<?xml version="1.0" encoding="UTF-8" standalone="no" ?>
<gpx xmlns="http://www.topografix.com/GPX/1/1" xmlns:xsi="http://www.w3.org/2001/XMLSchema-instance" xsi:schemaLocation="http://www.topografix.com/GPX/1/1 http://www.topografix.com/GPX/1/1/gpx.xsd" version="1.1" creator="VisuGPX - https://www.visugpx.com">
  <metadata>
    <name>Crevant-Laveine Cyclisme</name>
  </metadata>
  <trk>
    <name><![CDATA[Crevant-Laveine Cyclisme_1]]></name>
    <trkseg>
      <trkpt lat="45.9132" lon="3.37358">
        <ele>312.4</ele>
        <time>2024-08-11T08:13:08Z</time>
      </trkpt>
      <trkpt lat="45.9132" lon="3.37358">
        <ele>312.4</ele>
        <time>2024-08-11T08:13:09Z</time>
      </trkpt>
      <trkpt lat="45.9132" lon="3.37358">
        <ele>312.6</ele>
        <time>2024-08-11T08:13:10Z</time>
      </trkpt>
      <trkpt lat="45.9132" lon="3.37358">
        <ele>312.4</ele>
        <time>2024-08-11T08:13:11Z</time>
      </trkpt>
      <trkpt lat="45.91307" lon="3.37363">
        <ele>312.6</ele>
        <time>2024-08-11T08:13:12Z</time>
      </trkpt>
      <trkpt lat="45.91307" lon="3.37363">
        <ele>312.4</ele>
        <time>2024-08-11T08:13:13Z</time>
      </trkpt>
      <trkpt lat="45.91304" lon="3.37365">
        <ele>312.4</ele>
        <time>2024-08-11T08:13:14Z</time>
      </trkpt>
      <trkpt lat="45.913" lon="3.37366">
        <ele>312.4</ele>
        <time>2024-08-11T08:13:15Z</time>
      </trkpt>
      <trkpt lat="45.91297" lon="3.37367">
        <ele>312.4</ele>
        <time>2024-08-11T08:13:16Z</time>
      </trkpt>
      <trkpt lat="45.91294" lon="3.37369">
        <ele>312.4</ele>
        <time>2024-08-11T08:13:17Z</time>
      </trkpt>
      <trkpt lat="45.9129" lon="3.3737">
        <ele>312.4</ele>
        <time>2024-08-11T08:13:18Z</time>
      </trkpt>
      <trkpt lat="45.91287" lon="3.37371">
        <ele>312.4</ele>
        <time>2024-08-11T08:13:19Z</time>
      </trkpt>
      <trkpt lat="45.91283" lon="3.37373">
        <ele>312.6</ele>
        <time>2024-08-11T08:13:20Z</time>
      </trkpt>
      <trkpt lat="45.9128" lon="3.37374">
        <ele>312.6</ele>
        <time>2024-08-11T08:13:21Z</time>
      </trkpt>
      <trkpt lat="45.91276" lon="3.37376">
        <ele>312.6</ele>
        <time>2024-08-11T08:13:22Z</time>
      </trkpt>
      <trkpt lat="45.91273" lon="3.37377">
        <ele>312.4</ele>
        <time>2024-08-11T08:13:23Z</time>
      </trkpt>
      <trkpt lat="45.91268" lon="3.37379">
        <ele>312.4</ele>
        <time>2024-08-11T08:13:24Z</time>
      </trkpt>
      <trkpt lat="45.91268" lon="3.37379">
        <ele>312.4</ele>
        <time>2024-08-11T08:13:25Z</time>
      </trkpt>
      <trkpt lat="45.91266" lon="3.37389">
        <ele>312.6</ele>
        <time>2024-08-11T08:13:26Z</time>
      </trkpt>
      <trkpt lat="45.91264" lon="3.37394">
        <ele>312.6</ele>
        <time>2024-08-11T08:13:27Z</time>
      </trkpt>
      <trkpt lat="45.91263" lon="3.374">
        <ele>312.6</ele>
        <time>2024-08-11T08:13:28Z</time>
      </trkpt>
      <trkpt lat="45.91262" lon="3.37405">
        <ele>312.6</ele>
        <time>2024-08-11T08:13:29Z</time>
      </trkpt>
      <trkpt lat="45.9126" lon="3.37411">
        <ele>312.8</ele>
        <time>2024-08-11T08:13:30Z</time>
      </trkpt>
      <trkpt lat="45.91259" lon="3.37417">
        <ele>312.8</ele>
        <time>2024-08-11T08:13:31Z</time>
      </trkpt>
      <trkpt lat="45.91258" lon="3.37423">
        <ele>312.8</ele>
        <time>2024-08-11T08:13:32Z</time>
      </trkpt>
      <trkpt lat="45.91255" lon="3.37429">
        <ele>313</ele>
        <time>2024-08-11T08:13:33Z</time>
      </trkpt>
      <trkpt lat="45.91253" lon="3.37434">
        <ele>313</ele>
        <time>2024-08-11T08:13:34Z</time>
      </trkpt>
      <trkpt lat="45.91251" lon="3.3744">
        <ele>313.2</ele>
        <time>2024-08-11T08:13:35Z</time>
      </trkpt>
      <trkpt lat="45.91248" lon="3.37445">
        <ele>313.2</ele>
        <time>2024-08-11T08:13:36Z</time>
      </trkpt>
      <trkpt lat="45.91248" lon="3.37445">
        <ele>313.2</ele>
        <time>2024-08-11T08:13:37Z</time>
      </trkpt>
      <trkpt lat="45.91248" lon="3.37445">
        <ele>313.4</ele>
        <time>2024-08-11T08:13:38Z</time>
      </trkpt>
      <trkpt lat="45.91237" lon="3.37464">
        <ele>313.4</ele>
        <time>2024-08-11T08:13:39Z</time>
      </trkpt>
      <trkpt lat="45.91237" lon="3.37464">
        <ele>313.4</ele>
        <time>2024-08-11T08:13:40Z</time>
      </trkpt>
      <trkpt lat="45.91234" lon="3.37468">
        <ele>313.6</ele>
        <time>2024-08-11T08:13:41Z</time>
      </trkpt>
      <trkpt lat="45.91231" lon="3.37473">
        <ele>313.6</ele>
        <time>2024-08-11T08:13:42Z</time>
      </trkpt>
      <trkpt lat="45.91227" lon="3.37477">
        <ele>313.8</ele>
        <time>2024-08-11T08:13:43Z</time>
      </trkpt>
      <trkpt lat="45.91224" lon="3.37482">
        <ele>313.8</ele>
        <time>2024-08-11T08:13:44Z</time>
      </trkpt>
      <trkpt lat="45.91221" lon="3.37487">
        <ele>313.8</ele>
        <time>2024-08-11T08:13:45Z</time>
      </trkpt>
      <trkpt lat="45.91218" lon="3.37491">
        <ele>313.8</ele>
        <time>2024-08-11T08:13:46Z</time>
      </trkpt>
      <trkpt lat="45.91215" lon="3.37496">
        <ele>314</ele>
        <time>2024-08-11T08:13:47Z</time>
      </trkpt>
      <trkpt lat="45.91212" lon="3.375">
        <ele>314</ele>
        <time>2024-08-11T08:13:48Z</time>
      </trkpt>
      <trkpt lat="45.91209" lon="3.37504">
        <ele>314</ele>
        <time>2024-08-11T08:13:49Z</time>
      </trkpt>
      <trkpt lat="45.91206" lon="3.37508">
        <ele>314</ele>
        <time>2024-08-11T08:13:50Z</time>
      </trkpt>
      <trkpt lat="45.91204" lon="3.37512">
        <ele>314.2</ele>
        <time>2024-08-11T08:13:51Z</time>
      </trkpt>
      <trkpt lat="45.91201" lon="3.37516">
        <ele>314.2</ele>
        <time>2024-08-11T08:13:52Z</time>
      </trkpt>
      <trkpt lat="45.91198" lon="3.37521">
        <ele>314.2</ele>
        <time>2024-08-11T08:13:53Z</time>
      </trkpt>
      <trkpt lat="45.91195" lon="3.37525">
        <ele>314.4</ele>
        <time>2024-08-11T08:13:54Z</time>
      </trkpt>
      <trkpt lat="45.91192" lon="3.37529">
        <ele>314.4</ele>
        <time>2024-08-11T08:13:55Z</time>
      </trkpt>
      <trkpt lat="45.91189" lon="3.37533">
        <ele>314.4</ele>
        <time>2024-08-11T08:13:56Z</time>
      </trkpt>
      <trkpt lat="45.91186" lon="3.37537">
        <ele>314.6</ele>
        <time>2024-08-11T08:13:57Z</time>
      </trkpt>
      <trkpt lat="45.91183" lon="3.37542">
        <ele>314.6</ele>
        <time>2024-08-11T08:13:58Z</time>
      </trkpt>
      <trkpt lat="45.9118" lon="3.37546">
        <ele>314.6</ele>
        <time>2024-08-11T08:13:59Z</time>
      </trkpt>
      <trkpt lat="45.91177" lon="3.3755">
        <ele>314.6</ele>
        <time>2024-08-11T08:14:00Z</time>
      </trkpt>
      <trkpt lat="45.91174" lon="3.37554">
        <ele>314.8</ele>
        <time>2024-08-11T08:14:01Z</time>
      </trkpt>
      <trkpt lat="45.91172" lon="3.37558">
        <ele>314.8</ele>
        <time>2024-08-11T08:14:02Z</time>
      </trkpt>
      <trkpt lat="45.91169" lon="3.37562">
        <ele>315</ele>
        <time>2024-08-11T08:14:03Z</time>
      </trkpt>
      <trkpt lat="45.91166" lon="3.37567">
        <ele>315</ele>
        <time>2024-08-11T08:14:04Z</time>
      </trkpt>
      <trkpt lat="45.91163" lon="3.37571">
        <ele>315</ele>
        <time>2024-08-11T08:14:05Z</time>
      </trkpt>
      <trkpt lat="45.9116" lon="3.37576">
        <ele>315</ele>
        <time>2024-08-11T08:14:06Z</time>
      </trkpt>
      <trkpt lat="45.91156" lon="3.3758">
        <ele>315</ele>
        <time>2024-08-11T08:14:07Z</time>
      </trkpt>
      <trkpt lat="45.91153" lon="3.37584">
        <ele>315.2</ele>
        <time>2024-08-11T08:14:08Z</time>
      </trkpt>
      <trkpt lat="45.9115" lon="3.37589">
        <ele>315.2</ele>
        <time>2024-08-11T08:14:09Z</time>
      </trkpt>
      <trkpt lat="45.91148" lon="3.37594">
        <ele>315.2</ele>
        <time>2024-08-11T08:14:10Z</time>
      </trkpt>
      <trkpt lat="45.91145" lon="3.37599">
        <ele>315.4</ele>
        <time>2024-08-11T08:14:11Z</time>
      </trkpt>
      <trkpt lat="45.91142" lon="3.37604">
        <ele>315.4</ele>
        <time>2024-08-11T08:14:12Z</time>
      </trkpt>
      <trkpt lat="45.91139" lon="3.37609">
        <ele>315.4</ele>
        <time>2024-08-11T08:14:13Z</time>
      </trkpt>
      <trkpt lat="45.91136" lon="3.37615">
        <ele>315.6</ele>
        <time>2024-08-11T08:14:14Z</time>
      </trkpt>
      <trkpt lat="45.91134" lon="3.3762">
        <ele>315.6</ele>
        <time>2024-08-11T08:14:15Z</time>
      </trkpt>
      <trkpt lat="45.91131" lon="3.37625">
        <ele>315.6</ele>
        <time>2024-08-11T08:14:16Z</time>
      </trkpt>
      <trkpt lat="45.91128" lon="3.3763">
        <ele>315.6</ele>
        <time>2024-08-11T08:14:17Z</time>
      </trkpt>
      <trkpt lat="45.91126" lon="3.37635">
        <ele>315.6</ele>
        <time>2024-08-11T08:14:18Z</time>
      </trkpt>
      <trkpt lat="45.91123" lon="3.3764">
        <ele>315.8</ele>
        <time>2024-08-11T08:14:19Z</time>
      </trkpt>
      <trkpt lat="45.9112" lon="3.37645">
        <ele>316</ele>
        <time>2024-08-11T08:14:20Z</time>
      </trkpt>
      <trkpt lat="45.9112" lon="3.37645">
        <ele>316</ele>
        <time>2024-08-11T08:14:21Z</time>
      </trkpt>
      <trkpt lat="45.91114" lon="3.37664">
        <ele>316.2</ele>
        <time>2024-08-11T08:14:22Z</time>
      </trkpt>
      <trkpt lat="45.91114" lon="3.37664">
        <ele>316.4</ele>
        <time>2024-08-11T08:14:23Z</time>
      </trkpt>
      <trkpt lat="45.91113" lon="3.3767">
        <ele>316.4</ele>
        <time>2024-08-11T08:14:24Z</time>
      </trkpt>
      <trkpt lat="45.9111" lon="3.37678">
        <ele>316.6</ele>
        <time>2024-08-11T08:14:25Z</time>
      </trkpt>
      <trkpt lat="45.91106" lon="3.3768">
        <ele>316.6</ele>
        <time>2024-08-11T08:14:26Z</time>
      </trkpt>
      <trkpt lat="45.91102" lon="3.37683">
        <ele>316.8</ele>
        <time>2024-08-11T08:14:27Z</time>
      </trkpt>
      <trkpt lat="45.91098" lon="3.37685">
        <ele>316.8</ele>
        <time>2024-08-11T08:14:28Z</time>
      </trkpt>
      <trkpt lat="45.91093" lon="3.37687">
        <ele>317</ele>
        <time>2024-08-11T08:14:29Z</time>
      </trkpt>
      <trkpt lat="45.91089" lon="3.3769">
        <ele>317</ele>
        <time>2024-08-11T08:14:30Z</time>
      </trkpt>
      <trkpt lat="45.91085" lon="3.37692">
        <ele>317</ele>
        <time>2024-08-11T08:14:31Z</time>
      </trkpt>
      <trkpt lat="45.91081" lon="3.37695">
        <ele>317.2</ele>
        <time>2024-08-11T08:14:32Z</time>
      </trkpt>
      <trkpt lat="45.91076" lon="3.37697">
        <ele>317.2</ele>
        <time>2024-08-11T08:14:33Z</time>
      </trkpt>
      <trkpt lat="45.91072" lon="3.377">
        <ele>317.4</ele>
        <time>2024-08-11T08:14:34Z</time>
      </trkpt>
      <trkpt lat="45.91068" lon="3.37702">
        <ele>317.6</ele>
        <time>2024-08-11T08:14:35Z</time>
      </trkpt>
      <trkpt lat="45.91068" lon="3.37702">
        <ele>317.6</ele>
        <time>2024-08-11T08:14:36Z</time>
      </trkpt>
      <trkpt lat="45.91068" lon="3.37702">
        <ele>317.8</ele>
        <time>2024-08-11T08:14:37Z</time>
      </trkpt>
      <trkpt lat="45.91055" lon="3.3771">
        <ele>317.8</ele>
        <time>2024-08-11T08:14:38Z</time>
      </trkpt>
      <trkpt lat="45.9105" lon="3.37712">
        <ele>317.8</ele>
        <time>2024-08-11T08:14:39Z</time>
      </trkpt>
      <trkpt lat="45.91046" lon="3.37714">
        <ele>318</ele>
        <time>2024-08-11T08:14:40Z</time>
      </trkpt>
      <trkpt lat="45.91041" lon="3.37717">
        <ele>318.2</ele>
        <time>2024-08-11T08:14:41Z</time>
      </trkpt>
      <trkpt lat="45.91037" lon="3.37719">
        <ele>318.2</ele>
        <time>2024-08-11T08:14:42Z</time>
      </trkpt>
      <trkpt lat="45.91033" lon="3.37722">
        <ele>318.4</ele>
        <time>2024-08-11T08:14:43Z</time>
      </trkpt>
      <trkpt lat="45.91028" lon="3.37725">
        <ele>318.4</ele>
        <time>2024-08-11T08:14:44Z</time>
      </trkpt>
      <trkpt lat="45.91024" lon="3.37727">
        <ele>318.4</ele>
        <time>2024-08-11T08:14:45Z</time>
      </trkpt>
      <trkpt lat="45.91019" lon="3.3773">
        <ele>318.6</ele>
        <time>2024-08-11T08:14:46Z</time>
      </trkpt>
      <trkpt lat="45.91019" lon="3.3773">
        <ele>318.8</ele>
        <time>2024-08-11T08:14:47Z</time>
      </trkpt>
      <trkpt lat="45.91019" lon="3.3773">
        <ele>318.8</ele>
        <time>2024-08-11T08:14:48Z</time>
      </trkpt>
      <trkpt lat="45.91001" lon="3.3774">
        <ele>318.8</ele>
        <time>2024-08-11T08:14:49Z</time>
      </trkpt>
      <trkpt lat="45.91001" lon="3.3774">
        <ele>319</ele>
        <time>2024-08-11T08:14:50Z</time>
      </trkpt>
      <trkpt lat="45.90997" lon="3.37743">
        <ele>319</ele>
        <time>2024-08-11T08:14:51Z</time>
      </trkpt>
      <trkpt lat="45.90992" lon="3.37745">
        <ele>319.2</ele>
        <time>2024-08-11T08:14:52Z</time>
      </trkpt>
      <trkpt lat="45.90988" lon="3.37748">
        <ele>319.2</ele>
        <time>2024-08-11T08:14:53Z</time>
      </trkpt>
      <trkpt lat="45.90983" lon="3.3775">
        <ele>319.4</ele>
        <time>2024-08-11T08:14:54Z</time>
      </trkpt>
      <trkpt lat="45.90979" lon="3.37753">
        <ele>319.4</ele>
        <time>2024-08-11T08:14:55Z</time>
      </trkpt>
      <trkpt lat="45.90974" lon="3.37755">
        <ele>319.6</ele>
        <time>2024-08-11T08:14:56Z</time>
      </trkpt>
      <trkpt lat="45.9097" lon="3.37758">
        <ele>319.6</ele>
        <time>2024-08-11T08:14:57Z</time>
      </trkpt>
      <trkpt lat="45.90966" lon="3.3776">
        <ele>319.8</ele>
        <time>2024-08-11T08:14:58Z</time>
      </trkpt>
      <trkpt lat="45.90961" lon="3.37763">
        <ele>319.8</ele>
        <time>2024-08-11T08:14:59Z</time>
      </trkpt>
      <trkpt lat="45.90957" lon="3.37765">
        <ele>319.8</ele>
        <time>2024-08-11T08:15:00Z</time>
      </trkpt>
      <trkpt lat="45.90952" lon="3.37768">
        <ele>320</ele>
        <time>2024-08-11T08:15:01Z</time>
      </trkpt>
      <trkpt lat="45.90947" lon="3.37771">
        <ele>320</ele>
        <time>2024-08-11T08:15:02Z</time>
      </trkpt>
      <trkpt lat="45.90943" lon="3.37773">
        <ele>320</ele>
        <time>2024-08-11T08:15:03Z</time>
      </trkpt>
      <trkpt lat="45.90938" lon="3.37776">
        <ele>320</ele>
        <time>2024-08-11T08:15:04Z</time>
      </trkpt>
      <trkpt lat="45.90933" lon="3.37779">
        <ele>320.2</ele>
        <time>2024-08-11T08:15:05Z</time>
      </trkpt>
      <trkpt lat="45.90929" lon="3.37781">
        <ele>320.2</ele>
        <time>2024-08-11T08:15:06Z</time>
      </trkpt>
      <trkpt lat="45.90924" lon="3.37784">
        <ele>320.2</ele>
        <time>2024-08-11T08:15:07Z</time>
      </trkpt>
      <trkpt lat="45.90919" lon="3.37787">
        <ele>320.4</ele>
        <time>2024-08-11T08:15:08Z</time>
      </trkpt>
      <trkpt lat="45.90914" lon="3.37789">
        <ele>320.4</ele>
        <time>2024-08-11T08:15:09Z</time>
      </trkpt>
      <trkpt lat="45.90909" lon="3.37792">
        <ele>320.4</ele>
        <time>2024-08-11T08:15:10Z</time>
      </trkpt>
      <trkpt lat="45.90905" lon="3.37795">
        <ele>320.4</ele>
        <time>2024-08-11T08:15:11Z</time>
      </trkpt>
      <trkpt lat="45.909" lon="3.37797">
        <ele>320.6</ele>
        <time>2024-08-11T08:15:12Z</time>
      </trkpt>
      <trkpt lat="45.90895" lon="3.378">
        <ele>320.6</ele>
        <time>2024-08-11T08:15:13Z</time>
      </trkpt>
      <trkpt lat="45.90891" lon="3.37803">
        <ele>320.6</ele>
        <time>2024-08-11T08:15:14Z</time>
      </trkpt>
      <trkpt lat="45.90886" lon="3.37805">
        <ele>320.6</ele>
        <time>2024-08-11T08:15:15Z</time>
      </trkpt>
      <trkpt lat="45.90881" lon="3.37808">
        <ele>320.8</ele>
        <time>2024-08-11T08:15:16Z</time>
      </trkpt>
      <trkpt lat="45.90876" lon="3.37811">
        <ele>320.8</ele>
        <time>2024-08-11T08:15:17Z</time>
      </trkpt>
      <trkpt lat="45.90871" lon="3.37814">
        <ele>320.8</ele>
        <time>2024-08-11T08:15:18Z</time>
      </trkpt>
      <trkpt lat="45.90867" lon="3.37816">
        <ele>321</ele>
        <time>2024-08-11T08:15:19Z</time>
      </trkpt>
      <trkpt lat="45.90862" lon="3.37819">
        <ele>321</ele>
        <time>2024-08-11T08:15:20Z</time>
      </trkpt>
      <trkpt lat="45.90857" lon="3.37822">
        <ele>321.2</ele>
        <time>2024-08-11T08:15:21Z</time>
      </trkpt>
      <trkpt lat="45.90853" lon="3.37824">
        <ele>321.4</ele>
        <time>2024-08-11T08:15:22Z</time>
      </trkpt>
      <trkpt lat="45.90848" lon="3.37827">
        <ele>321.4</ele>
        <time>2024-08-11T08:15:23Z</time>
      </trkpt>
      <trkpt lat="45.90843" lon="3.3783">
        <ele>321.4</ele>
        <time>2024-08-11T08:15:24Z</time>
      </trkpt>
      <trkpt lat="45.90839" lon="3.37832">
        <ele>321.4</ele>
        <time>2024-08-11T08:15:25Z</time>
      </trkpt>
      <trkpt lat="45.90834" lon="3.37835">
        <ele>321.6</ele>
        <time>2024-08-11T08:15:26Z</time>
      </trkpt>
      <trkpt lat="45.90829" lon="3.37838">
        <ele>321.6</ele>
        <time>2024-08-11T08:15:27Z</time>
      </trkpt>
      <trkpt lat="45.90825" lon="3.3784">
        <ele>321.6</ele>
        <time>2024-08-11T08:15:28Z</time>
      </trkpt>
      <trkpt lat="45.9082" lon="3.37843">
        <ele>321.8</ele>
        <time>2024-08-11T08:15:29Z</time>
      </trkpt>
      <trkpt lat="45.90816" lon="3.37845">
        <ele>321.8</ele>
        <time>2024-08-11T08:15:30Z</time>
      </trkpt>
      <trkpt lat="45.90811" lon="3.37848">
        <ele>322</ele>
        <time>2024-08-11T08:15:31Z</time>
      </trkpt>
      <trkpt lat="45.90807" lon="3.37851">
        <ele>322</ele>
        <time>2024-08-11T08:15:32Z</time>
      </trkpt>
      <trkpt lat="45.90802" lon="3.37854">
        <ele>322</ele>
        <time>2024-08-11T08:15:33Z</time>
      </trkpt>
      <trkpt lat="45.90798" lon="3.37857">
        <ele>322.2</ele>
        <time>2024-08-11T08:15:34Z</time>
      </trkpt>
      <trkpt lat="45.90793" lon="3.37859">
        <ele>322.2</ele>
        <time>2024-08-11T08:15:35Z</time>
      </trkpt>
      <trkpt lat="45.90789" lon="3.37862">
        <ele>322.4</ele>
        <time>2024-08-11T08:15:36Z</time>
      </trkpt>
      <trkpt lat="45.90784" lon="3.37865">
        <ele>322.4</ele>
        <time>2024-08-11T08:15:37Z</time>
      </trkpt>
      <trkpt lat="45.9078" lon="3.37868">
        <ele>322.6</ele>
        <time>2024-08-11T08:15:38Z</time>
      </trkpt>
      <trkpt lat="45.90775" lon="3.37871">
        <ele>322.6</ele>
        <time>2024-08-11T08:15:39Z</time>
      </trkpt>
      <trkpt lat="45.90771" lon="3.37873">
        <ele>322.6</ele>
        <time>2024-08-11T08:15:40Z</time>
      </trkpt>
      <trkpt lat="45.90767" lon="3.37876">
        <ele>322.6</ele>
        <time>2024-08-11T08:15:41Z</time>
      </trkpt>
      <trkpt lat="45.90763" lon="3.37879">
        <ele>322.8</ele>
        <time>2024-08-11T08:15:42Z</time>
      </trkpt>
      <trkpt lat="45.90759" lon="3.37881">
        <ele>322.8</ele>
        <time>2024-08-11T08:15:43Z</time>
      </trkpt>
      <trkpt lat="45.90754" lon="3.37884">
        <ele>322.8</ele>
        <time>2024-08-11T08:15:44Z</time>
      </trkpt>
      <trkpt lat="45.9075" lon="3.37887">
        <ele>323</ele>
        <time>2024-08-11T08:15:45Z</time>
      </trkpt>
      <trkpt lat="45.90745" lon="3.37889">
        <ele>323</ele>
        <time>2024-08-11T08:15:46Z</time>
      </trkpt>
      <trkpt lat="45.90741" lon="3.37892">
        <ele>323</ele>
        <time>2024-08-11T08:15:47Z</time>
      </trkpt>
      <trkpt lat="45.90737" lon="3.37895">
        <ele>323.2</ele>
        <time>2024-08-11T08:15:48Z</time>
      </trkpt>
      <trkpt lat="45.90732" lon="3.37898">
        <ele>323.2</ele>
        <time>2024-08-11T08:15:49Z</time>
      </trkpt>
      <trkpt lat="45.90728" lon="3.379">
        <ele>323.2</ele>
        <time>2024-08-11T08:15:50Z</time>
      </trkpt>
      <trkpt lat="45.90724" lon="3.37903">
        <ele>323.2</ele>
        <time>2024-08-11T08:15:51Z</time>
      </trkpt>
      <trkpt lat="45.90719" lon="3.37906">
        <ele>323.4</ele>
        <time>2024-08-11T08:15:52Z</time>
      </trkpt>
      <trkpt lat="45.90715" lon="3.37909">
        <ele>323.4</ele>
        <time>2024-08-11T08:15:53Z</time>
      </trkpt>
      <trkpt lat="45.90711" lon="3.37911">
        <ele>323.4</ele>
        <time>2024-08-11T08:15:54Z</time>
      </trkpt>
      <trkpt lat="45.90706" lon="3.37914">
        <ele>323.6</ele>
        <time>2024-08-11T08:15:55Z</time>
      </trkpt>
      <trkpt lat="45.90702" lon="3.37917">
        <ele>323.6</ele>
        <time>2024-08-11T08:15:56Z</time>
      </trkpt>
      <trkpt lat="45.90698" lon="3.37919">
        <ele>323.8</ele>
        <time>2024-08-11T08:15:57Z</time>
      </trkpt>
      <trkpt lat="45.90697" lon="3.3792">
        <ele>323.8</ele>
        <time>2024-08-11T08:15:58Z</time>
      </trkpt>
      <trkpt lat="45.90686" lon="3.37914">
        <ele>324</ele>
        <time>2024-08-11T08:15:59Z</time>
      </trkpt>
      <trkpt lat="45.90681" lon="3.37917">
        <ele>324</ele>
        <time>2024-08-11T08:16:00Z</time>
      </trkpt>
      <trkpt lat="45.90678" lon="3.3792">
        <ele>324</ele>
        <time>2024-08-11T08:16:01Z</time>
      </trkpt>
      <trkpt lat="45.90674" lon="3.37939">
        <ele>324.2</ele>
        <time>2024-08-11T08:16:02Z</time>
      </trkpt>
      <trkpt lat="45.90671" lon="3.3794">
        <ele>324.2</ele>
        <time>2024-08-11T08:16:03Z</time>
      </trkpt>
      <trkpt lat="45.90667" lon="3.37942">
        <ele>324.2</ele>
        <time>2024-08-11T08:16:04Z</time>
      </trkpt>
      <trkpt lat="45.90662" lon="3.37943">
        <ele>324.2</ele>
        <time>2024-08-11T08:16:05Z</time>
      </trkpt>
      <trkpt lat="45.90657" lon="3.37945">
        <ele>324.2</ele>
        <time>2024-08-11T08:16:06Z</time>
      </trkpt>
      <trkpt lat="45.90652" lon="3.37947">
        <ele>324.2</ele>
        <time>2024-08-11T08:16:07Z</time>
      </trkpt>
      <trkpt lat="45.90647" lon="3.37949">
        <ele>324.4</ele>
        <time>2024-08-11T08:16:08Z</time>
      </trkpt>
      <trkpt lat="45.90642" lon="3.3795">
        <ele>324.4</ele>
        <time>2024-08-11T08:16:09Z</time>
      </trkpt>
      <trkpt lat="45.90637" lon="3.37952">
        <ele>324.4</ele>
        <time>2024-08-11T08:16:10Z</time>
      </trkpt>
      <trkpt lat="45.90632" lon="3.37954">
        <ele>324.6</ele>
        <time>2024-08-11T08:16:11Z</time>
      </trkpt>
      <trkpt lat="45.90628" lon="3.37956">
        <ele>324.6</ele>
        <time>2024-08-11T08:16:12Z</time>
      </trkpt>
      <trkpt lat="45.90623" lon="3.37957">
        <ele>324.6</ele>
        <time>2024-08-11T08:16:13Z</time>
      </trkpt>
      <trkpt lat="45.90618" lon="3.37959">
        <ele>324.8</ele>
        <time>2024-08-11T08:16:14Z</time>
      </trkpt>
      <trkpt lat="45.90613" lon="3.37962">
        <ele>324.8</ele>
        <time>2024-08-11T08:16:15Z</time>
      </trkpt>
      <trkpt lat="45.90609" lon="3.37965">
        <ele>324.8</ele>
        <time>2024-08-11T08:16:16Z</time>
      </trkpt>
      <trkpt lat="45.90604" lon="3.37967">
        <ele>325</ele>
        <time>2024-08-11T08:16:17Z</time>
      </trkpt>
      <trkpt lat="45.90599" lon="3.3797">
        <ele>325</ele>
        <time>2024-08-11T08:16:18Z</time>
      </trkpt>
      <trkpt lat="45.90595" lon="3.37973">
        <ele>325.2</ele>
        <time>2024-08-11T08:16:19Z</time>
      </trkpt>
      <trkpt lat="45.9059" lon="3.37975">
        <ele>325.2</ele>
        <time>2024-08-11T08:16:20Z</time>
      </trkpt>
      <trkpt lat="45.90585" lon="3.37978">
        <ele>325.2</ele>
        <time>2024-08-11T08:16:21Z</time>
      </trkpt>
      <trkpt lat="45.90581" lon="3.37981">
        <ele>325.2</ele>
        <time>2024-08-11T08:16:22Z</time>
      </trkpt>
      <trkpt lat="45.90576" lon="3.37983">
        <ele>325.4</ele>
        <time>2024-08-11T08:16:23Z</time>
      </trkpt>
      <trkpt lat="45.90572" lon="3.37986">
        <ele>325.4</ele>
        <time>2024-08-11T08:16:24Z</time>
      </trkpt>
      <trkpt lat="45.90567" lon="3.37988">
        <ele>325.6</ele>
        <time>2024-08-11T08:16:25Z</time>
      </trkpt>
      <trkpt lat="45.90562" lon="3.37991">
        <ele>325.6</ele>
        <time>2024-08-11T08:16:26Z</time>
      </trkpt>
      <trkpt lat="45.90558" lon="3.37994">
        <ele>325.6</ele>
        <time>2024-08-11T08:16:27Z</time>
      </trkpt>
      <trkpt lat="45.90553" lon="3.37996">
        <ele>325.6</ele>
        <time>2024-08-11T08:16:28Z</time>
      </trkpt>
      <trkpt lat="45.90549" lon="3.37999">
        <ele>325.8</ele>
        <time>2024-08-11T08:16:29Z</time>
      </trkpt>
      <trkpt lat="45.90544" lon="3.38002">
        <ele>325.8</ele>
        <time>2024-08-11T08:16:30Z</time>
      </trkpt>
      <trkpt lat="45.90539" lon="3.38004">
        <ele>326</ele>
        <time>2024-08-11T08:16:31Z</time>
      </trkpt>
      <trkpt lat="45.90535" lon="3.38007">
        <ele>326</ele>
        <time>2024-08-11T08:16:32Z</time>
      </trkpt>
      <trkpt lat="45.9053" lon="3.38009">
        <ele>326</ele>
        <time>2024-08-11T08:16:33Z</time>
      </trkpt>
      <trkpt lat="45.90525" lon="3.38012">
        <ele>326</ele>
        <time>2024-08-11T08:16:34Z</time>
      </trkpt>
      <trkpt lat="45.90521" lon="3.38015">
        <ele>326.2</ele>
        <time>2024-08-11T08:16:35Z</time>
      </trkpt>
      <trkpt lat="45.90516" lon="3.38017">
        <ele>326.2</ele>
        <time>2024-08-11T08:16:36Z</time>
      </trkpt>
      <trkpt lat="45.90512" lon="3.3802">
        <ele>326.2</ele>
        <time>2024-08-11T08:16:37Z</time>
      </trkpt>
      <trkpt lat="45.90507" lon="3.38023">
        <ele>326.2</ele>
        <time>2024-08-11T08:16:38Z</time>
      </trkpt>
      <trkpt lat="45.90502" lon="3.38025">
        <ele>326.2</ele>
        <time>2024-08-11T08:16:39Z</time>
      </trkpt>
      <trkpt lat="45.90498" lon="3.38028">
        <ele>326.2</ele>
        <time>2024-08-11T08:16:40Z</time>
      </trkpt>
      <trkpt lat="45.90493" lon="3.3803">
        <ele>326.4</ele>
        <time>2024-08-11T08:16:41Z</time>
      </trkpt>
      <trkpt lat="45.90489" lon="3.38033">
        <ele>326.4</ele>
        <time>2024-08-11T08:16:42Z</time>
      </trkpt>
      <trkpt lat="45.90484" lon="3.38036">
        <ele>326.4</ele>
        <time>2024-08-11T08:16:43Z</time>
      </trkpt>
      <trkpt lat="45.9048" lon="3.38038">
        <ele>326.6</ele>
        <time>2024-08-11T08:16:44Z</time>
      </trkpt>
      <trkpt lat="45.90475" lon="3.38041">
        <ele>326.6</ele>
        <time>2024-08-11T08:16:45Z</time>
      </trkpt>
      <trkpt lat="45.9047" lon="3.38043">
        <ele>326.6</ele>
        <time>2024-08-11T08:16:46Z</time>
      </trkpt>
      <trkpt lat="45.90466" lon="3.38046">
        <ele>326.6</ele>
        <time>2024-08-11T08:16:47Z</time>
      </trkpt>
      <trkpt lat="45.90461" lon="3.38048">
        <ele>326.6</ele>
        <time>2024-08-11T08:16:48Z</time>
      </trkpt>
      <trkpt lat="45.90457" lon="3.38051">
        <ele>326.8</ele>
        <time>2024-08-11T08:16:49Z</time>
      </trkpt>
      <trkpt lat="45.90452" lon="3.38054">
        <ele>326.8</ele>
        <time>2024-08-11T08:16:50Z</time>
      </trkpt>
      <trkpt lat="45.90447" lon="3.38056">
        <ele>326.8</ele>
        <time>2024-08-11T08:16:51Z</time>
      </trkpt>
      <trkpt lat="45.90443" lon="3.38059">
        <ele>327</ele>
        <time>2024-08-11T08:16:52Z</time>
      </trkpt>
      <trkpt lat="45.90438" lon="3.38062">
        <ele>327</ele>
        <time>2024-08-11T08:16:53Z</time>
      </trkpt>
      <trkpt lat="45.90433" lon="3.38064">
        <ele>327</ele>
        <time>2024-08-11T08:16:54Z</time>
      </trkpt>
      <trkpt lat="45.90429" lon="3.38067">
        <ele>327</ele>
        <time>2024-08-11T08:16:55Z</time>
      </trkpt>
      <trkpt lat="45.90424" lon="3.3807">
        <ele>327</ele>
        <time>2024-08-11T08:16:56Z</time>
      </trkpt>
      <trkpt lat="45.9042" lon="3.38072">
        <ele>327.2</ele>
        <time>2024-08-11T08:16:57Z</time>
      </trkpt>
      <trkpt lat="45.90415" lon="3.38075">
        <ele>327.2</ele>
        <time>2024-08-11T08:16:58Z</time>
      </trkpt>
      <trkpt lat="45.9041" lon="3.38077">
        <ele>327.2</ele>
        <time>2024-08-11T08:16:59Z</time>
      </trkpt>
      <trkpt lat="45.90406" lon="3.3808">
        <ele>327.2</ele>
        <time>2024-08-11T08:17:00Z</time>
      </trkpt>
      <trkpt lat="45.90401" lon="3.38083">
        <ele>327.4</ele>
        <time>2024-08-11T08:17:01Z</time>
      </trkpt>
      <trkpt lat="45.90397" lon="3.38085">
        <ele>327.4</ele>
        <time>2024-08-11T08:17:02Z</time>
      </trkpt>
      <trkpt lat="45.90392" lon="3.38088">
        <ele>327.4</ele>
        <time>2024-08-11T08:17:03Z</time>
      </trkpt>
      <trkpt lat="45.90388" lon="3.3809">
        <ele>327.4</ele>
        <time>2024-08-11T08:17:04Z</time>
      </trkpt>
      <trkpt lat="45.90383" lon="3.38093">
        <ele>327.4</ele>
        <time>2024-08-11T08:17:05Z</time>
      </trkpt>
      <trkpt lat="45.90379" lon="3.38095">
        <ele>327.6</ele>
        <time>2024-08-11T08:17:06Z</time>
      </trkpt>
      <trkpt lat="45.90374" lon="3.38098">
        <ele>327.6</ele>
        <time>2024-08-11T08:17:07Z</time>
      </trkpt>
      <trkpt lat="45.9037" lon="3.381">
        <ele>327.6</ele>
        <time>2024-08-11T08:17:08Z</time>
      </trkpt>
      <trkpt lat="45.90365" lon="3.38103">
        <ele>327.6</ele>
        <time>2024-08-11T08:17:09Z</time>
      </trkpt>
      <trkpt lat="45.90361" lon="3.38106">
        <ele>327.6</ele>
        <time>2024-08-11T08:17:10Z</time>
      </trkpt>
      <trkpt lat="45.90356" lon="3.38108">
        <ele>327.6</ele>
        <time>2024-08-11T08:17:11Z</time>
      </trkpt>
      <trkpt lat="45.90352" lon="3.3811">
        <ele>327.8</ele>
        <time>2024-08-11T08:17:12Z</time>
      </trkpt>
      <trkpt lat="45.90348" lon="3.38113">
        <ele>327.8</ele>
        <time>2024-08-11T08:17:13Z</time>
      </trkpt>
      <trkpt lat="45.90343" lon="3.38115">
        <ele>327.8</ele>
        <time>2024-08-11T08:17:14Z</time>
      </trkpt>
      <trkpt lat="45.90339" lon="3.38118">
        <ele>327.8</ele>
        <time>2024-08-11T08:17:15Z</time>
      </trkpt>
      <trkpt lat="45.90335" lon="3.3812">
        <ele>327.8</ele>
        <time>2024-08-11T08:17:16Z</time>
      </trkpt>
      <trkpt lat="45.9033" lon="3.38123">
        <ele>328</ele>
        <time>2024-08-11T08:17:17Z</time>
      </trkpt>
      <trkpt lat="45.90326" lon="3.38125">
        <ele>328</ele>
        <time>2024-08-11T08:17:18Z</time>
      </trkpt>
      <trkpt lat="45.90322" lon="3.38128">
        <ele>328</ele>
        <time>2024-08-11T08:17:19Z</time>
      </trkpt>
      <trkpt lat="45.90317" lon="3.3813">
        <ele>328</ele>
        <time>2024-08-11T08:17:20Z</time>
      </trkpt>
      <trkpt lat="45.90313" lon="3.38133">
        <ele>328</ele>
        <time>2024-08-11T08:17:21Z</time>
      </trkpt>
      <trkpt lat="45.90308" lon="3.38135">
        <ele>328.2</ele>
        <time>2024-08-11T08:17:22Z</time>
      </trkpt>
      <trkpt lat="45.90304" lon="3.38138">
        <ele>328.2</ele>
        <time>2024-08-11T08:17:23Z</time>
      </trkpt>
      <trkpt lat="45.90299" lon="3.3814">
        <ele>328.2</ele>
        <time>2024-08-11T08:17:24Z</time>
      </trkpt>
      <trkpt lat="45.90295" lon="3.38143">
        <ele>328.2</ele>
        <time>2024-08-11T08:17:25Z</time>
      </trkpt>
      <trkpt lat="45.90291" lon="3.38145">
        <ele>328.4</ele>
        <time>2024-08-11T08:17:26Z</time>
      </trkpt>
      <trkpt lat="45.90287" lon="3.38147">
        <ele>328.4</ele>
        <time>2024-08-11T08:17:27Z</time>
      </trkpt>
      <trkpt lat="45.90283" lon="3.3815">
        <ele>328.4</ele>
        <time>2024-08-11T08:17:28Z</time>
      </trkpt>
      <trkpt lat="45.90279" lon="3.38152">
        <ele>328.6</ele>
        <time>2024-08-11T08:17:29Z</time>
      </trkpt>
      <trkpt lat="45.90274" lon="3.38155">
        <ele>328.6</ele>
        <time>2024-08-11T08:17:30Z</time>
      </trkpt>
      <trkpt lat="45.9027" lon="3.38157">
        <ele>328.6</ele>
        <time>2024-08-11T08:17:31Z</time>
      </trkpt>
      <trkpt lat="45.90266" lon="3.38159">
        <ele>328.8</ele>
        <time>2024-08-11T08:17:32Z</time>
      </trkpt>
      <trkpt lat="45.90261" lon="3.38162">
        <ele>328.8</ele>
        <time>2024-08-11T08:17:33Z</time>
      </trkpt>
      <trkpt lat="45.90257" lon="3.38164">
        <ele>328.8</ele>
        <time>2024-08-11T08:17:34Z</time>
      </trkpt>
      <trkpt lat="45.90253" lon="3.38167">
        <ele>328.8</ele>
        <time>2024-08-11T08:17:35Z</time>
      </trkpt>
      <trkpt lat="45.90249" lon="3.38169">
        <ele>328.8</ele>
        <time>2024-08-11T08:17:36Z</time>
      </trkpt>
      <trkpt lat="45.90244" lon="3.38171">
        <ele>328.8</ele>
        <time>2024-08-11T08:17:37Z</time>
      </trkpt>
      <trkpt lat="45.9024" lon="3.38174">
        <ele>329</ele>
        <time>2024-08-11T08:17:38Z</time>
      </trkpt>
      <trkpt lat="45.90236" lon="3.38176">
        <ele>329</ele>
        <time>2024-08-11T08:17:39Z</time>
      </trkpt>
      <trkpt lat="45.90232" lon="3.38179">
        <ele>329.2</ele>
        <time>2024-08-11T08:17:40Z</time>
      </trkpt>
      <trkpt lat="45.90228" lon="3.38181">
        <ele>329.2</ele>
        <time>2024-08-11T08:17:41Z</time>
      </trkpt>
      <trkpt lat="45.90223" lon="3.38184">
        <ele>329.2</ele>
        <time>2024-08-11T08:17:42Z</time>
      </trkpt>
      <trkpt lat="45.90219" lon="3.38186">
        <ele>329.2</ele>
        <time>2024-08-11T08:17:43Z</time>
      </trkpt>
      <trkpt lat="45.90215" lon="3.38188">
        <ele>329.4</ele>
        <time>2024-08-11T08:17:44Z</time>
      </trkpt>
      <trkpt lat="45.9021" lon="3.38191">
        <ele>329.4</ele>
        <time>2024-08-11T08:17:45Z</time>
      </trkpt>
      <trkpt lat="45.90206" lon="3.38193">
        <ele>329.4</ele>
        <time>2024-08-11T08:17:46Z</time>
      </trkpt>
      <trkpt lat="45.90201" lon="3.38196">
        <ele>329.4</ele>
        <time>2024-08-11T08:17:47Z</time>
      </trkpt>
      <trkpt lat="45.90197" lon="3.38198">
        <ele>329.6</ele>
        <time>2024-08-11T08:17:48Z</time>
      </trkpt>
      <trkpt lat="45.90192" lon="3.38201">
        <ele>329.6</ele>
        <time>2024-08-11T08:17:49Z</time>
      </trkpt>
      <trkpt lat="45.90188" lon="3.38203">
        <ele>329.6</ele>
        <time>2024-08-11T08:17:50Z</time>
      </trkpt>
      <trkpt lat="45.90184" lon="3.38206">
        <ele>329.8</ele>
        <time>2024-08-11T08:17:51Z</time>
      </trkpt>
      <trkpt lat="45.90179" lon="3.38208">
        <ele>329.8</ele>
        <time>2024-08-11T08:17:52Z</time>
      </trkpt>
      <trkpt lat="45.90175" lon="3.38211">
        <ele>329.8</ele>
        <time>2024-08-11T08:17:53Z</time>
      </trkpt>
      <trkpt lat="45.9017" lon="3.38213">
        <ele>330</ele>
        <time>2024-08-11T08:17:54Z</time>
      </trkpt>
      <trkpt lat="45.90166" lon="3.38216">
        <ele>330</ele>
        <time>2024-08-11T08:17:55Z</time>
      </trkpt>
      <trkpt lat="45.90162" lon="3.38218">
        <ele>330</ele>
        <time>2024-08-11T08:17:56Z</time>
      </trkpt>
      <trkpt lat="45.90157" lon="3.38221">
        <ele>330.2</ele>
        <time>2024-08-11T08:17:57Z</time>
      </trkpt>
      <trkpt lat="45.90153" lon="3.38223">
        <ele>330.2</ele>
        <time>2024-08-11T08:17:58Z</time>
      </trkpt>
      <trkpt lat="45.90149" lon="3.38226">
        <ele>330.2</ele>
        <time>2024-08-11T08:17:59Z</time>
      </trkpt>
      <trkpt lat="45.90144" lon="3.38228">
        <ele>330.4</ele>
        <time>2024-08-11T08:18:00Z</time>
      </trkpt>
      <trkpt lat="45.9014" lon="3.38231">
        <ele>330.4</ele>
        <time>2024-08-11T08:18:01Z</time>
      </trkpt>
      <trkpt lat="45.90136" lon="3.38233">
        <ele>330.6</ele>
        <time>2024-08-11T08:18:02Z</time>
      </trkpt>
      <trkpt lat="45.90132" lon="3.38236">
        <ele>330.6</ele>
        <time>2024-08-11T08:18:03Z</time>
      </trkpt>
      <trkpt lat="45.90127" lon="3.38238">
        <ele>330.6</ele>
        <time>2024-08-11T08:18:04Z</time>
      </trkpt>
      <trkpt lat="45.90123" lon="3.3824">
        <ele>330.8</ele>
        <time>2024-08-11T08:18:05Z</time>
      </trkpt>
      <trkpt lat="45.90119" lon="3.38243">
        <ele>330.8</ele>
        <time>2024-08-11T08:18:06Z</time>
      </trkpt>
      <trkpt lat="45.90115" lon="3.38245">
        <ele>331</ele>
        <time>2024-08-11T08:18:07Z</time>
      </trkpt>
      <trkpt lat="45.9011" lon="3.38248">
        <ele>331</ele>
        <time>2024-08-11T08:18:08Z</time>
      </trkpt>
      <trkpt lat="45.90106" lon="3.3825">
        <ele>331.2</ele>
        <time>2024-08-11T08:18:09Z</time>
      </trkpt>
      <trkpt lat="45.90102" lon="3.38252">
        <ele>331.2</ele>
        <time>2024-08-11T08:18:10Z</time>
      </trkpt>
      <trkpt lat="45.90098" lon="3.38255">
        <ele>331.4</ele>
        <time>2024-08-11T08:18:11Z</time>
      </trkpt>
      <trkpt lat="45.90094" lon="3.38257">
        <ele>331.4</ele>
        <time>2024-08-11T08:18:12Z</time>
      </trkpt>
      <trkpt lat="45.9009" lon="3.38259">
        <ele>331.4</ele>
        <time>2024-08-11T08:18:13Z</time>
      </trkpt>
      <trkpt lat="45.90086" lon="3.38262">
        <ele>331.6</ele>
        <time>2024-08-11T08:18:14Z</time>
      </trkpt>
      <trkpt lat="45.90082" lon="3.38264">
        <ele>331.6</ele>
        <time>2024-08-11T08:18:15Z</time>
      </trkpt>
      <trkpt lat="45.90078" lon="3.38266">
        <ele>331.6</ele>
        <time>2024-08-11T08:18:16Z</time>
      </trkpt>
      <trkpt lat="45.90074" lon="3.38268">
        <ele>331.6</ele>
        <time>2024-08-11T08:18:17Z</time>
      </trkpt>
      <trkpt lat="45.9007" lon="3.38271">
        <ele>331.6</ele>
        <time>2024-08-11T08:18:18Z</time>
      </trkpt>
      <trkpt lat="45.90066" lon="3.38273">
        <ele>331.8</ele>
        <time>2024-08-11T08:18:19Z</time>
      </trkpt>
      <trkpt lat="45.90062" lon="3.38275">
        <ele>331.8</ele>
        <time>2024-08-11T08:18:20Z</time>
      </trkpt>
      <trkpt lat="45.90058" lon="3.38277">
        <ele>331.8</ele>
        <time>2024-08-11T08:18:21Z</time>
      </trkpt>
      <trkpt lat="45.90054" lon="3.38279">
        <ele>332</ele>
        <time>2024-08-11T08:18:22Z</time>
      </trkpt>
      <trkpt lat="45.9005" lon="3.38282">
        <ele>332</ele>
        <time>2024-08-11T08:18:23Z</time>
      </trkpt>
      <trkpt lat="45.90047" lon="3.38284">
        <ele>332</ele>
        <time>2024-08-11T08:18:24Z</time>
      </trkpt>
      <trkpt lat="45.90043" lon="3.38286">
        <ele>332</ele>
        <time>2024-08-11T08:18:25Z</time>
      </trkpt>
      <trkpt lat="45.90039" lon="3.38288">
        <ele>332.2</ele>
        <time>2024-08-11T08:18:26Z</time>
      </trkpt>
      <trkpt lat="45.90035" lon="3.3829">
        <ele>332.2</ele>
        <time>2024-08-11T08:18:27Z</time>
      </trkpt>
      <trkpt lat="45.90031" lon="3.38293">
        <ele>332.2</ele>
        <time>2024-08-11T08:18:28Z</time>
      </trkpt>
      <trkpt lat="45.90027" lon="3.38295">
        <ele>332.4</ele>
        <time>2024-08-11T08:18:29Z</time>
      </trkpt>
      <trkpt lat="45.90023" lon="3.38297">
        <ele>332.4</ele>
        <time>2024-08-11T08:18:30Z</time>
      </trkpt>
      <trkpt lat="45.90019" lon="3.38299">
        <ele>332.6</ele>
        <time>2024-08-11T08:18:31Z</time>
      </trkpt>
      <trkpt lat="45.90015" lon="3.38301">
        <ele>332.6</ele>
        <time>2024-08-11T08:18:32Z</time>
      </trkpt>
      <trkpt lat="45.90012" lon="3.38304">
        <ele>332.8</ele>
        <time>2024-08-11T08:18:33Z</time>
      </trkpt>
      <trkpt lat="45.90008" lon="3.38306">
        <ele>332.8</ele>
        <time>2024-08-11T08:18:34Z</time>
      </trkpt>
      <trkpt lat="45.90004" lon="3.38308">
        <ele>333</ele>
        <time>2024-08-11T08:18:35Z</time>
      </trkpt>
      <trkpt lat="45.90001" lon="3.3831">
        <ele>333</ele>
        <time>2024-08-11T08:18:36Z</time>
      </trkpt>
      <trkpt lat="45.89997" lon="3.38312">
        <ele>333.2</ele>
        <time>2024-08-11T08:18:37Z</time>
      </trkpt>
      <trkpt lat="45.89994" lon="3.38314">
        <ele>333.4</ele>
        <time>2024-08-11T08:18:38Z</time>
      </trkpt>
      <trkpt lat="45.8999" lon="3.38316">
        <ele>333.4</ele>
        <time>2024-08-11T08:18:39Z</time>
      </trkpt>
      <trkpt lat="45.89987" lon="3.38318">
        <ele>333.6</ele>
        <time>2024-08-11T08:18:40Z</time>
      </trkpt>
      <trkpt lat="45.89984" lon="3.38319">
        <ele>333.8</ele>
        <time>2024-08-11T08:18:41Z</time>
      </trkpt>
      <trkpt lat="45.89981" lon="3.38321">
        <ele>333.8</ele>
        <time>2024-08-11T08:18:42Z</time>
      </trkpt>
      <trkpt lat="45.89978" lon="3.38323">
        <ele>334</ele>
        <time>2024-08-11T08:18:43Z</time>
      </trkpt>
      <trkpt lat="45.89974" lon="3.38325">
        <ele>334</ele>
        <time>2024-08-11T08:18:44Z</time>
      </trkpt>
      <trkpt lat="45.89971" lon="3.38327">
        <ele>334.2</ele>
        <time>2024-08-11T08:18:45Z</time>
      </trkpt>
      <trkpt lat="45.89968" lon="3.38328">
        <ele>334.2</ele>
        <time>2024-08-11T08:18:46Z</time>
      </trkpt>
      <trkpt lat="45.89965" lon="3.3833">
        <ele>334.4</ele>
        <time>2024-08-11T08:18:47Z</time>
      </trkpt>
      <trkpt lat="45.89962" lon="3.38332">
        <ele>334.4</ele>
        <time>2024-08-11T08:18:48Z</time>
      </trkpt>
      <trkpt lat="45.89959" lon="3.38334">
        <ele>334.6</ele>
        <time>2024-08-11T08:18:49Z</time>
      </trkpt>
      <trkpt lat="45.89956" lon="3.38335">
        <ele>334.6</ele>
        <time>2024-08-11T08:18:50Z</time>
      </trkpt>
      <trkpt lat="45.89953" lon="3.38337">
        <ele>334.8</ele>
        <time>2024-08-11T08:18:51Z</time>
      </trkpt>
      <trkpt lat="45.8995" lon="3.38339">
        <ele>335</ele>
        <time>2024-08-11T08:18:52Z</time>
      </trkpt>
      <trkpt lat="45.89947" lon="3.38341">
        <ele>335</ele>
        <time>2024-08-11T08:18:53Z</time>
      </trkpt>
      <trkpt lat="45.89944" lon="3.38342">
        <ele>335.2</ele>
        <time>2024-08-11T08:18:54Z</time>
      </trkpt>
      <trkpt lat="45.89941" lon="3.38344">
        <ele>335.2</ele>
        <time>2024-08-11T08:18:55Z</time>
      </trkpt>
      <trkpt lat="45.89938" lon="3.38346">
        <ele>335.4</ele>
        <time>2024-08-11T08:18:56Z</time>
      </trkpt>
      <trkpt lat="45.89934" lon="3.38347">
        <ele>335.4</ele>
        <time>2024-08-11T08:18:57Z</time>
      </trkpt>
      <trkpt lat="45.89931" lon="3.38349">
        <ele>335.6</ele>
        <time>2024-08-11T08:18:58Z</time>
      </trkpt>
      <trkpt lat="45.89928" lon="3.38351">
        <ele>335.8</ele>
        <time>2024-08-11T08:18:59Z</time>
      </trkpt>
      <trkpt lat="45.89925" lon="3.38353">
        <ele>335.8</ele>
        <time>2024-08-11T08:19:00Z</time>
      </trkpt>
      <trkpt lat="45.89921" lon="3.38355">
        <ele>336</ele>
        <time>2024-08-11T08:19:01Z</time>
      </trkpt>
      <trkpt lat="45.89918" lon="3.38357">
        <ele>336.2</ele>
        <time>2024-08-11T08:19:02Z</time>
      </trkpt>
      <trkpt lat="45.89915" lon="3.38359">
        <ele>336.4</ele>
        <time>2024-08-11T08:19:03Z</time>
      </trkpt>
      <trkpt lat="45.89911" lon="3.38361">
        <ele>336.4</ele>
        <time>2024-08-11T08:19:04Z</time>
      </trkpt>
      <trkpt lat="45.89908" lon="3.38362">
        <ele>336.6</ele>
        <time>2024-08-11T08:19:05Z</time>
      </trkpt>
      <trkpt lat="45.89905" lon="3.38364">
        <ele>336.6</ele>
        <time>2024-08-11T08:19:06Z</time>
      </trkpt>
      <trkpt lat="45.89902" lon="3.38366">
        <ele>337</ele>
        <time>2024-08-11T08:19:07Z</time>
      </trkpt>
      <trkpt lat="45.89899" lon="3.38368">
        <ele>337</ele>
        <time>2024-08-11T08:19:08Z</time>
      </trkpt>
      <trkpt lat="45.89896" lon="3.38369">
        <ele>337.2</ele>
        <time>2024-08-11T08:19:09Z</time>
      </trkpt>
      <trkpt lat="45.89892" lon="3.38371">
        <ele>337.4</ele>
        <time>2024-08-11T08:19:10Z</time>
      </trkpt>
      <trkpt lat="45.89889" lon="3.38373">
        <ele>337.4</ele>
        <time>2024-08-11T08:19:11Z</time>
      </trkpt>
      <trkpt lat="45.89886" lon="3.38375">
        <ele>337.6</ele>
        <time>2024-08-11T08:19:12Z</time>
      </trkpt>
      <trkpt lat="45.89883" lon="3.38376">
        <ele>337.8</ele>
        <time>2024-08-11T08:19:13Z</time>
      </trkpt>
      <trkpt lat="45.8988" lon="3.38378">
        <ele>338</ele>
        <time>2024-08-11T08:19:14Z</time>
      </trkpt>
      <trkpt lat="45.89877" lon="3.3838">
        <ele>338</ele>
        <time>2024-08-11T08:19:15Z</time>
      </trkpt>
      <trkpt lat="45.89874" lon="3.38382">
        <ele>338.2</ele>
        <time>2024-08-11T08:19:16Z</time>
      </trkpt>
      <trkpt lat="45.89871" lon="3.38383">
        <ele>338.2</ele>
        <time>2024-08-11T08:19:17Z</time>
      </trkpt>
      <trkpt lat="45.89868" lon="3.38385">
        <ele>338.4</ele>
        <time>2024-08-11T08:19:18Z</time>
      </trkpt>
      <trkpt lat="45.89866" lon="3.38386">
        <ele>338.6</ele>
        <time>2024-08-11T08:19:19Z</time>
      </trkpt>
      <trkpt lat="45.89863" lon="3.38388">
        <ele>338.6</ele>
        <time>2024-08-11T08:19:20Z</time>
      </trkpt>
      <trkpt lat="45.8986" lon="3.3839">
        <ele>338.8</ele>
        <time>2024-08-11T08:19:21Z</time>
      </trkpt>
      <trkpt lat="45.89857" lon="3.38391">
        <ele>338.8</ele>
        <time>2024-08-11T08:19:22Z</time>
      </trkpt>
      <trkpt lat="45.89854" lon="3.38393">
        <ele>339</ele>
        <time>2024-08-11T08:19:23Z</time>
      </trkpt>
      <trkpt lat="45.89851" lon="3.38395">
        <ele>339.2</ele>
        <time>2024-08-11T08:19:24Z</time>
      </trkpt>
      <trkpt lat="45.89848" lon="3.38396">
        <ele>339.2</ele>
        <time>2024-08-11T08:19:25Z</time>
      </trkpt>
      <trkpt lat="45.89845" lon="3.38398">
        <ele>339.4</ele>
        <time>2024-08-11T08:19:26Z</time>
      </trkpt>
      <trkpt lat="45.89842" lon="3.384">
        <ele>339.6</ele>
        <time>2024-08-11T08:19:27Z</time>
      </trkpt>
      <trkpt lat="45.89839" lon="3.38401">
        <ele>339.8</ele>
        <time>2024-08-11T08:19:28Z</time>
      </trkpt>
      <trkpt lat="45.89837" lon="3.38403">
        <ele>340</ele>
        <time>2024-08-11T08:19:29Z</time>
      </trkpt>
      <trkpt lat="45.89834" lon="3.38405">
        <ele>340</ele>
        <time>2024-08-11T08:19:30Z</time>
      </trkpt>
      <trkpt lat="45.8983" lon="3.38406">
        <ele>340.2</ele>
        <time>2024-08-11T08:19:31Z</time>
      </trkpt>
      <trkpt lat="45.89827" lon="3.38408">
        <ele>340.4</ele>
        <time>2024-08-11T08:19:32Z</time>
      </trkpt>
      <trkpt lat="45.89824" lon="3.3841">
        <ele>340.6</ele>
        <time>2024-08-11T08:19:33Z</time>
      </trkpt>
      <trkpt lat="45.89822" lon="3.38411">
        <ele>340.6</ele>
        <time>2024-08-11T08:19:34Z</time>
      </trkpt>
      <trkpt lat="45.89819" lon="3.38413">
        <ele>340.8</ele>
        <time>2024-08-11T08:19:35Z</time>
      </trkpt>
      <trkpt lat="45.89816" lon="3.38415">
        <ele>341</ele>
        <time>2024-08-11T08:19:36Z</time>
      </trkpt>
      <trkpt lat="45.89813" lon="3.38416">
        <ele>341</ele>
        <time>2024-08-11T08:19:37Z</time>
      </trkpt>
      <trkpt lat="45.8981" lon="3.38418">
        <ele>341.2</ele>
        <time>2024-08-11T08:19:38Z</time>
      </trkpt>
      <trkpt lat="45.89807" lon="3.3842">
        <ele>341.4</ele>
        <time>2024-08-11T08:19:39Z</time>
      </trkpt>
      <trkpt lat="45.89805" lon="3.38421">
        <ele>341.6</ele>
        <time>2024-08-11T08:19:40Z</time>
      </trkpt>
      <trkpt lat="45.89802" lon="3.38423">
        <ele>341.6</ele>
        <time>2024-08-11T08:19:41Z</time>
      </trkpt>
      <trkpt lat="45.89799" lon="3.38424">
        <ele>341.8</ele>
        <time>2024-08-11T08:19:42Z</time>
      </trkpt>
      <trkpt lat="45.89796" lon="3.38426">
        <ele>342</ele>
        <time>2024-08-11T08:19:43Z</time>
      </trkpt>
      <trkpt lat="45.89793" lon="3.38427">
        <ele>342</ele>
        <time>2024-08-11T08:19:44Z</time>
      </trkpt>
      <trkpt lat="45.89791" lon="3.38429">
        <ele>342.2</ele>
        <time>2024-08-11T08:19:45Z</time>
      </trkpt>
      <trkpt lat="45.89788" lon="3.38431">
        <ele>342.4</ele>
        <time>2024-08-11T08:19:46Z</time>
      </trkpt>
      <trkpt lat="45.89785" lon="3.38432">
        <ele>342.6</ele>
        <time>2024-08-11T08:19:47Z</time>
      </trkpt>
      <trkpt lat="45.89782" lon="3.38434">
        <ele>342.6</ele>
        <time>2024-08-11T08:19:48Z</time>
      </trkpt>
      <trkpt lat="45.89779" lon="3.38436">
        <ele>342.8</ele>
        <time>2024-08-11T08:19:49Z</time>
      </trkpt>
      <trkpt lat="45.89775" lon="3.38438">
        <ele>343</ele>
        <time>2024-08-11T08:19:50Z</time>
      </trkpt>
      <trkpt lat="45.89772" lon="3.38439">
        <ele>343</ele>
        <time>2024-08-11T08:19:51Z</time>
      </trkpt>
      <trkpt lat="45.89769" lon="3.38441">
        <ele>343.2</ele>
        <time>2024-08-11T08:19:52Z</time>
      </trkpt>
      <trkpt lat="45.89765" lon="3.38443">
        <ele>343.4</ele>
        <time>2024-08-11T08:19:53Z</time>
      </trkpt>
      <trkpt lat="45.89761" lon="3.38446">
        <ele>343.4</ele>
        <time>2024-08-11T08:19:54Z</time>
      </trkpt>
      <trkpt lat="45.89758" lon="3.38449">
        <ele>343.4</ele>
        <time>2024-08-11T08:19:55Z</time>
      </trkpt>
      <trkpt lat="45.89755" lon="3.38452">
        <ele>343.6</ele>
        <time>2024-08-11T08:19:56Z</time>
      </trkpt>
      <trkpt lat="45.89751" lon="3.38456">
        <ele>343.8</ele>
        <time>2024-08-11T08:19:57Z</time>
      </trkpt>
      <trkpt lat="45.89749" lon="3.38462">
        <ele>343.8</ele>
        <time>2024-08-11T08:19:58Z</time>
      </trkpt>
      <trkpt lat="45.89747" lon="3.38468">
        <ele>344</ele>
        <time>2024-08-11T08:19:59Z</time>
      </trkpt>
      <trkpt lat="45.89745" lon="3.38473">
        <ele>344</ele>
        <time>2024-08-11T08:20:00Z</time>
      </trkpt>
      <trkpt lat="45.89743" lon="3.38479">
        <ele>344.2</ele>
        <time>2024-08-11T08:20:01Z</time>
      </trkpt>
      <trkpt lat="45.8974" lon="3.38485">
        <ele>344.2</ele>
        <time>2024-08-11T08:20:02Z</time>
      </trkpt>
      <trkpt lat="45.89738" lon="3.38491">
        <ele>344.2</ele>
        <time>2024-08-11T08:20:03Z</time>
      </trkpt>
      <trkpt lat="45.89736" lon="3.38497">
        <ele>344.4</ele>
        <time>2024-08-11T08:20:04Z</time>
      </trkpt>
      <trkpt lat="45.89734" lon="3.38503">
        <ele>344.4</ele>
        <time>2024-08-11T08:20:05Z</time>
      </trkpt>
      <trkpt lat="45.89731" lon="3.3851">
        <ele>344.6</ele>
        <time>2024-08-11T08:20:06Z</time>
      </trkpt>
      <trkpt lat="45.89729" lon="3.38516">
        <ele>344.6</ele>
        <time>2024-08-11T08:20:07Z</time>
      </trkpt>
      <trkpt lat="45.89727" lon="3.38522">
        <ele>344.8</ele>
        <time>2024-08-11T08:20:08Z</time>
      </trkpt>
      <trkpt lat="45.89725" lon="3.38529">
        <ele>344.8</ele>
        <time>2024-08-11T08:20:09Z</time>
      </trkpt>
      <trkpt lat="45.89722" lon="3.38535">
        <ele>344.8</ele>
        <time>2024-08-11T08:20:10Z</time>
      </trkpt>
      <trkpt lat="45.8972" lon="3.38541">
        <ele>345</ele>
        <time>2024-08-11T08:20:11Z</time>
      </trkpt>
      <trkpt lat="45.89718" lon="3.38548">
        <ele>345</ele>
        <time>2024-08-11T08:20:12Z</time>
      </trkpt>
      <trkpt lat="45.89715" lon="3.38553">
        <ele>345</ele>
        <time>2024-08-11T08:20:13Z</time>
      </trkpt>
      <trkpt lat="45.89712" lon="3.38558">
        <ele>345.2</ele>
        <time>2024-08-11T08:20:14Z</time>
      </trkpt>
      <trkpt lat="45.89708" lon="3.38563">
        <ele>345.2</ele>
        <time>2024-08-11T08:20:15Z</time>
      </trkpt>
      <trkpt lat="45.89705" lon="3.38568">
        <ele>345.2</ele>
        <time>2024-08-11T08:20:16Z</time>
      </trkpt>
      <trkpt lat="45.89701" lon="3.38573">
        <ele>345.2</ele>
        <time>2024-08-11T08:20:17Z</time>
      </trkpt>
      <trkpt lat="45.89698" lon="3.38578">
        <ele>345.4</ele>
        <time>2024-08-11T08:20:18Z</time>
      </trkpt>
      <trkpt lat="45.89694" lon="3.38583">
        <ele>345.4</ele>
        <time>2024-08-11T08:20:19Z</time>
      </trkpt>
      <trkpt lat="45.89691" lon="3.38588">
        <ele>345.6</ele>
        <time>2024-08-11T08:20:20Z</time>
      </trkpt>
      <trkpt lat="45.89688" lon="3.38593">
        <ele>345.6</ele>
        <time>2024-08-11T08:20:21Z</time>
      </trkpt>
      <trkpt lat="45.89684" lon="3.38597">
        <ele>345.6</ele>
        <time>2024-08-11T08:20:22Z</time>
      </trkpt>
      <trkpt lat="45.89681" lon="3.38602">
        <ele>345.8</ele>
        <time>2024-08-11T08:20:23Z</time>
      </trkpt>
      <trkpt lat="45.89677" lon="3.38607">
        <ele>345.8</ele>
        <time>2024-08-11T08:20:24Z</time>
      </trkpt>
      <trkpt lat="45.89674" lon="3.38613">
        <ele>346</ele>
        <time>2024-08-11T08:20:25Z</time>
      </trkpt>
      <trkpt lat="45.8967" lon="3.38618">
        <ele>346</ele>
        <time>2024-08-11T08:20:26Z</time>
      </trkpt>
      <trkpt lat="45.89666" lon="3.38623">
        <ele>346</ele>
        <time>2024-08-11T08:20:27Z</time>
      </trkpt>
      <trkpt lat="45.89662" lon="3.38628">
        <ele>346</ele>
        <time>2024-08-11T08:20:28Z</time>
      </trkpt>
      <trkpt lat="45.89657" lon="3.38632">
        <ele>346.2</ele>
        <time>2024-08-11T08:20:29Z</time>
      </trkpt>
      <trkpt lat="45.89653" lon="3.38635">
        <ele>346.2</ele>
        <time>2024-08-11T08:20:30Z</time>
      </trkpt>
      <trkpt lat="45.89648" lon="3.38638">
        <ele>346.2</ele>
        <time>2024-08-11T08:20:31Z</time>
      </trkpt>
      <trkpt lat="45.89643" lon="3.3864">
        <ele>346.4</ele>
        <time>2024-08-11T08:20:32Z</time>
      </trkpt>
      <trkpt lat="45.89638" lon="3.38642">
        <ele>346.4</ele>
        <time>2024-08-11T08:20:33Z</time>
      </trkpt>
      <trkpt lat="45.89632" lon="3.38642">
        <ele>346.4</ele>
        <time>2024-08-11T08:20:34Z</time>
      </trkpt>
      <trkpt lat="45.89626" lon="3.38642">
        <ele>346.4</ele>
        <time>2024-08-11T08:20:35Z</time>
      </trkpt>
      <trkpt lat="45.89621" lon="3.38641">
        <ele>346.4</ele>
        <time>2024-08-11T08:20:36Z</time>
      </trkpt>
      <trkpt lat="45.89615" lon="3.3864">
        <ele>346.4</ele>
        <time>2024-08-11T08:20:37Z</time>
      </trkpt>
      <trkpt lat="45.8961" lon="3.38638">
        <ele>346.4</ele>
        <time>2024-08-11T08:20:38Z</time>
      </trkpt>
      <trkpt lat="45.89604" lon="3.38635">
        <ele>346.4</ele>
        <time>2024-08-11T08:20:39Z</time>
      </trkpt>
      <trkpt lat="45.89599" lon="3.38633">
        <ele>346.4</ele>
        <time>2024-08-11T08:20:40Z</time>
      </trkpt>
      <trkpt lat="45.89593" lon="3.3863">
        <ele>346.6</ele>
        <time>2024-08-11T08:20:41Z</time>
      </trkpt>
      <trkpt lat="45.89588" lon="3.38628">
        <ele>346.6</ele>
        <time>2024-08-11T08:20:42Z</time>
      </trkpt>
      <trkpt lat="45.89582" lon="3.38625">
        <ele>346.6</ele>
        <time>2024-08-11T08:20:43Z</time>
      </trkpt>
      <trkpt lat="45.89576" lon="3.38623">
        <ele>346.6</ele>
        <time>2024-08-11T08:20:44Z</time>
      </trkpt>
      <trkpt lat="45.8957" lon="3.3862">
        <ele>346.6</ele>
        <time>2024-08-11T08:20:45Z</time>
      </trkpt>
      <trkpt lat="45.89564" lon="3.38617">
        <ele>346.6</ele>
        <time>2024-08-11T08:20:46Z</time>
      </trkpt>
      <trkpt lat="45.89558" lon="3.38614">
        <ele>346.6</ele>
        <time>2024-08-11T08:20:47Z</time>
      </trkpt>
      <trkpt lat="45.89552" lon="3.38612">
        <ele>346.6</ele>
        <time>2024-08-11T08:20:48Z</time>
      </trkpt>
      <trkpt lat="45.89546" lon="3.38609">
        <ele>346.6</ele>
        <time>2024-08-11T08:20:49Z</time>
      </trkpt>
      <trkpt lat="45.8954" lon="3.38606">
        <ele>346.6</ele>
        <time>2024-08-11T08:20:50Z</time>
      </trkpt>
      <trkpt lat="45.89534" lon="3.38603">
        <ele>346.8</ele>
        <time>2024-08-11T08:20:51Z</time>
      </trkpt>
      <trkpt lat="45.89528" lon="3.38601">
        <ele>346.8</ele>
        <time>2024-08-11T08:20:52Z</time>
      </trkpt>
      <trkpt lat="45.89523" lon="3.38598">
        <ele>346.8</ele>
        <time>2024-08-11T08:20:53Z</time>
      </trkpt>
      <trkpt lat="45.89517" lon="3.38595">
        <ele>346.8</ele>
        <time>2024-08-11T08:20:54Z</time>
      </trkpt>
      <trkpt lat="45.89512" lon="3.38593">
        <ele>347</ele>
        <time>2024-08-11T08:20:55Z</time>
      </trkpt>
      <trkpt lat="45.89506" lon="3.38591">
        <ele>347</ele>
        <time>2024-08-11T08:20:56Z</time>
      </trkpt>
      <trkpt lat="45.89501" lon="3.38588">
        <ele>347</ele>
        <time>2024-08-11T08:20:57Z</time>
      </trkpt>
      <trkpt lat="45.89497" lon="3.38586">
        <ele>347</ele>
        <time>2024-08-11T08:20:58Z</time>
      </trkpt>
      <trkpt lat="45.89492" lon="3.38584">
        <ele>347.2</ele>
        <time>2024-08-11T08:20:59Z</time>
      </trkpt>
      <trkpt lat="45.89487" lon="3.38582">
        <ele>347.2</ele>
        <time>2024-08-11T08:21:00Z</time>
      </trkpt>
      <trkpt lat="45.89482" lon="3.3858">
        <ele>347.2</ele>
        <time>2024-08-11T08:21:01Z</time>
      </trkpt>
      <trkpt lat="45.89478" lon="3.38577">
        <ele>347.2</ele>
        <time>2024-08-11T08:21:02Z</time>
      </trkpt>
      <trkpt lat="45.89473" lon="3.38575">
        <ele>347.2</ele>
        <time>2024-08-11T08:21:03Z</time>
      </trkpt>
      <trkpt lat="45.89469" lon="3.38573">
        <ele>347.4</ele>
        <time>2024-08-11T08:21:04Z</time>
      </trkpt>
      <trkpt lat="45.89464" lon="3.38571">
        <ele>347.4</ele>
        <time>2024-08-11T08:21:05Z</time>
      </trkpt>
      <trkpt lat="45.89459" lon="3.3857">
        <ele>347.4</ele>
        <time>2024-08-11T08:21:06Z</time>
      </trkpt>
      <trkpt lat="45.89454" lon="3.38569">
        <ele>347.4</ele>
        <time>2024-08-11T08:21:07Z</time>
      </trkpt>
      <trkpt lat="45.89449" lon="3.38568">
        <ele>347.6</ele>
        <time>2024-08-11T08:21:08Z</time>
      </trkpt>
      <trkpt lat="45.89445" lon="3.38568">
        <ele>347.6</ele>
        <time>2024-08-11T08:21:09Z</time>
      </trkpt>
      <trkpt lat="45.8944" lon="3.3857">
        <ele>347.6</ele>
        <time>2024-08-11T08:21:10Z</time>
      </trkpt>
      <trkpt lat="45.89435" lon="3.38572">
        <ele>347.6</ele>
        <time>2024-08-11T08:21:11Z</time>
      </trkpt>
      <trkpt lat="45.89429" lon="3.38574">
        <ele>347.6</ele>
        <time>2024-08-11T08:21:12Z</time>
      </trkpt>
      <trkpt lat="45.89425" lon="3.38579">
        <ele>347.6</ele>
        <time>2024-08-11T08:21:13Z</time>
      </trkpt>
      <trkpt lat="45.8942" lon="3.38585">
        <ele>347.6</ele>
        <time>2024-08-11T08:21:14Z</time>
      </trkpt>
      <trkpt lat="45.89415" lon="3.38591">
        <ele>347.6</ele>
        <time>2024-08-11T08:21:15Z</time>
      </trkpt>
      <trkpt lat="45.89411" lon="3.38598">
        <ele>347.6</ele>
        <time>2024-08-11T08:21:16Z</time>
      </trkpt>
      <trkpt lat="45.89407" lon="3.38605">
        <ele>347.6</ele>
        <time>2024-08-11T08:21:17Z</time>
      </trkpt>
      <trkpt lat="45.89403" lon="3.38613">
        <ele>347.6</ele>
        <time>2024-08-11T08:21:18Z</time>
      </trkpt>
      <trkpt lat="45.89398" lon="3.38621">
        <ele>347.6</ele>
        <time>2024-08-11T08:21:19Z</time>
      </trkpt>
      <trkpt lat="45.89394" lon="3.38629">
        <ele>347.4</ele>
        <time>2024-08-11T08:21:20Z</time>
      </trkpt>
      <trkpt lat="45.89389" lon="3.38638">
        <ele>347.4</ele>
        <time>2024-08-11T08:21:21Z</time>
      </trkpt>
      <trkpt lat="45.89384" lon="3.38647">
        <ele>347.4</ele>
        <time>2024-08-11T08:21:22Z</time>
      </trkpt>
      <trkpt lat="45.89379" lon="3.38656">
        <ele>347.4</ele>
        <time>2024-08-11T08:21:23Z</time>
      </trkpt>
      <trkpt lat="45.89372" lon="3.3866">
        <ele>347</ele>
        <time>2024-08-11T08:21:24Z</time>
      </trkpt>
      <trkpt lat="45.89364" lon="3.38663">
        <ele>347</ele>
        <time>2024-08-11T08:21:25Z</time>
      </trkpt>
      <trkpt lat="45.89356" lon="3.38666">
        <ele>346.8</ele>
        <time>2024-08-11T08:21:26Z</time>
      </trkpt>
      <trkpt lat="45.89347" lon="3.3867">
        <ele>346.8</ele>
        <time>2024-08-11T08:21:27Z</time>
      </trkpt>
      <trkpt lat="45.89339" lon="3.38673">
        <ele>346.6</ele>
        <time>2024-08-11T08:21:28Z</time>
      </trkpt>
      <trkpt lat="45.8933" lon="3.38677">
        <ele>346.4</ele>
        <time>2024-08-11T08:21:29Z</time>
      </trkpt>
      <trkpt lat="45.89323" lon="3.38686">
        <ele>346.2</ele>
        <time>2024-08-11T08:21:30Z</time>
      </trkpt>
      <trkpt lat="45.89317" lon="3.38696">
        <ele>346</ele>
        <time>2024-08-11T08:21:31Z</time>
      </trkpt>
      <trkpt lat="45.89311" lon="3.38706">
        <ele>345.8</ele>
        <time>2024-08-11T08:21:32Z</time>
      </trkpt>
      <trkpt lat="45.89304" lon="3.38717">
        <ele>345.6</ele>
        <time>2024-08-11T08:21:33Z</time>
      </trkpt>
      <trkpt lat="45.89298" lon="3.38727">
        <ele>345.4</ele>
        <time>2024-08-11T08:21:34Z</time>
      </trkpt>
      <trkpt lat="45.89292" lon="3.38737">
        <ele>345.2</ele>
        <time>2024-08-11T08:21:35Z</time>
      </trkpt>
      <trkpt lat="45.89286" lon="3.38747">
        <ele>345</ele>
        <time>2024-08-11T08:21:36Z</time>
      </trkpt>
      <trkpt lat="45.8928" lon="3.38757">
        <ele>344.8</ele>
        <time>2024-08-11T08:21:37Z</time>
      </trkpt>
      <trkpt lat="45.89275" lon="3.38765">
        <ele>344.8</ele>
        <time>2024-08-11T08:21:38Z</time>
      </trkpt>
      <trkpt lat="45.89267" lon="3.38771">
        <ele>344.8</ele>
        <time>2024-08-11T08:21:39Z</time>
      </trkpt>
      <trkpt lat="45.8926" lon="3.38774">
        <ele>344.8</ele>
        <time>2024-08-11T08:21:40Z</time>
      </trkpt>
      <trkpt lat="45.89253" lon="3.38776">
        <ele>344.8</ele>
        <time>2024-08-11T08:21:41Z</time>
      </trkpt>
      <trkpt lat="45.89247" lon="3.38778">
        <ele>344.8</ele>
        <time>2024-08-11T08:21:42Z</time>
      </trkpt>
      <trkpt lat="45.8924" lon="3.3878">
        <ele>344.8</ele>
        <time>2024-08-11T08:21:43Z</time>
      </trkpt>
      <trkpt lat="45.89234" lon="3.38782">
        <ele>344.8</ele>
        <time>2024-08-11T08:21:44Z</time>
      </trkpt>
      <trkpt lat="45.89229" lon="3.38784">
        <ele>344.8</ele>
        <time>2024-08-11T08:21:45Z</time>
      </trkpt>
      <trkpt lat="45.89223" lon="3.38786">
        <ele>345</ele>
        <time>2024-08-11T08:21:46Z</time>
      </trkpt>
      <trkpt lat="45.89218" lon="3.38788">
        <ele>345</ele>
        <time>2024-08-11T08:21:47Z</time>
      </trkpt>
      <trkpt lat="45.89213" lon="3.38789">
        <ele>345</ele>
        <time>2024-08-11T08:21:48Z</time>
      </trkpt>
      <trkpt lat="45.89208" lon="3.38791">
        <ele>345</ele>
        <time>2024-08-11T08:21:49Z</time>
      </trkpt>
      <trkpt lat="45.89203" lon="3.38793">
        <ele>345</ele>
        <time>2024-08-11T08:21:50Z</time>
      </trkpt>
      <trkpt lat="45.89198" lon="3.38794">
        <ele>345</ele>
        <time>2024-08-11T08:21:51Z</time>
      </trkpt>
      <trkpt lat="45.89194" lon="3.38796">
        <ele>345</ele>
        <time>2024-08-11T08:21:52Z</time>
      </trkpt>
      <trkpt lat="45.89189" lon="3.38797">
        <ele>345</ele>
        <time>2024-08-11T08:21:53Z</time>
      </trkpt>
      <trkpt lat="45.89185" lon="3.38799">
        <ele>345</ele>
        <time>2024-08-11T08:21:54Z</time>
      </trkpt>
      <trkpt lat="45.8918" lon="3.388">
        <ele>345</ele>
        <time>2024-08-11T08:21:55Z</time>
      </trkpt>
      <trkpt lat="45.89176" lon="3.38802">
        <ele>345</ele>
        <time>2024-08-11T08:21:56Z</time>
      </trkpt>
      <trkpt lat="45.89171" lon="3.38803">
        <ele>345</ele>
        <time>2024-08-11T08:21:57Z</time>
      </trkpt>
      <trkpt lat="45.89167" lon="3.38805">
        <ele>344</ele>
        <time>2024-08-11T08:21:58Z</time>
      </trkpt>
      <trkpt lat="45.89163" lon="3.38806">
        <ele>344.2</ele>
        <time>2024-08-11T08:21:59Z</time>
      </trkpt>
      <trkpt lat="45.89158" lon="3.38807">
        <ele>344.2</ele>
        <time>2024-08-11T08:22:00Z</time>
      </trkpt>
      <trkpt lat="45.89154" lon="3.38809">
        <ele>344.6</ele>
        <time>2024-08-11T08:22:01Z</time>
      </trkpt>
      <trkpt lat="45.8915" lon="3.3881">
        <ele>345.2</ele>
        <time>2024-08-11T08:22:02Z</time>
      </trkpt>
      <trkpt lat="45.89145" lon="3.38812">
        <ele>345.6</ele>
        <time>2024-08-11T08:22:03Z</time>
      </trkpt>
      <trkpt lat="45.89141" lon="3.38813">
        <ele>345.8</ele>
        <time>2024-08-11T08:22:04Z</time>
      </trkpt>
      <trkpt lat="45.89137" lon="3.38815">
        <ele>345.2</ele>
        <time>2024-08-11T08:22:05Z</time>
      </trkpt>
      <trkpt lat="45.89132" lon="3.38816">
        <ele>345.4</ele>
        <time>2024-08-11T08:22:06Z</time>
      </trkpt>
      <trkpt lat="45.89128" lon="3.38818">
        <ele>345.4</ele>
        <time>2024-08-11T08:22:07Z</time>
      </trkpt>
      <trkpt lat="45.89124" lon="3.38819">
        <ele>345.4</ele>
        <time>2024-08-11T08:22:08Z</time>
      </trkpt>
      <trkpt lat="45.89119" lon="3.38821">
        <ele>345.4</ele>
        <time>2024-08-11T08:22:09Z</time>
      </trkpt>
      <trkpt lat="45.89115" lon="3.38822">
        <ele>345.4</ele>
        <time>2024-08-11T08:22:10Z</time>
      </trkpt>
      <trkpt lat="45.8911" lon="3.38824">
        <ele>345.4</ele>
        <time>2024-08-11T08:22:11Z</time>
      </trkpt>
      <trkpt lat="45.89105" lon="3.38826">
        <ele>345.6</ele>
        <time>2024-08-11T08:22:12Z</time>
      </trkpt>
      <trkpt lat="45.891" lon="3.38828">
        <ele>345.6</ele>
        <time>2024-08-11T08:22:13Z</time>
      </trkpt>
      <trkpt lat="45.89095" lon="3.3883">
        <ele>345.6</ele>
        <time>2024-08-11T08:22:14Z</time>
      </trkpt>
      <trkpt lat="45.8909" lon="3.38831">
        <ele>345.8</ele>
        <time>2024-08-11T08:22:15Z</time>
      </trkpt>
      <trkpt lat="45.89085" lon="3.38833">
        <ele>345.8</ele>
        <time>2024-08-11T08:22:16Z</time>
      </trkpt>
      <trkpt lat="45.8908" lon="3.38835">
        <ele>345.8</ele>
        <time>2024-08-11T08:22:17Z</time>
      </trkpt>
      <trkpt lat="45.89076" lon="3.38837">
        <ele>345.8</ele>
        <time>2024-08-11T08:22:18Z</time>
      </trkpt>
      <trkpt lat="45.89071" lon="3.38839">
        <ele>345.8</ele>
        <time>2024-08-11T08:22:19Z</time>
      </trkpt>
      <trkpt lat="45.89066" lon="3.38841">
        <ele>345.8</ele>
        <time>2024-08-11T08:22:20Z</time>
      </trkpt>
      <trkpt lat="45.89061" lon="3.38843">
        <ele>346</ele>
        <time>2024-08-11T08:22:21Z</time>
      </trkpt>
      <trkpt lat="45.89056" lon="3.38844">
        <ele>346</ele>
        <time>2024-08-11T08:22:22Z</time>
      </trkpt>
      <trkpt lat="45.89051" lon="3.38846">
        <ele>346</ele>
        <time>2024-08-11T08:22:23Z</time>
      </trkpt>
      <trkpt lat="45.89046" lon="3.38848">
        <ele>346</ele>
        <time>2024-08-11T08:22:24Z</time>
      </trkpt>
      <trkpt lat="45.89041" lon="3.3885">
        <ele>346.2</ele>
        <time>2024-08-11T08:22:25Z</time>
      </trkpt>
      <trkpt lat="45.89037" lon="3.38852">
        <ele>346.2</ele>
        <time>2024-08-11T08:22:26Z</time>
      </trkpt>
      <trkpt lat="45.89032" lon="3.38854">
        <ele>346.2</ele>
        <time>2024-08-11T08:22:27Z</time>
      </trkpt>
      <trkpt lat="45.89027" lon="3.38856">
        <ele>346.2</ele>
        <time>2024-08-11T08:22:28Z</time>
      </trkpt>
      <trkpt lat="45.89022" lon="3.38857">
        <ele>346.4</ele>
        <time>2024-08-11T08:22:29Z</time>
      </trkpt>
      <trkpt lat="45.89017" lon="3.38859">
        <ele>346.4</ele>
        <time>2024-08-11T08:22:30Z</time>
      </trkpt>
      <trkpt lat="45.89011" lon="3.38861">
        <ele>346.4</ele>
        <time>2024-08-11T08:22:31Z</time>
      </trkpt>
      <trkpt lat="45.89006" lon="3.38863">
        <ele>346.4</ele>
        <time>2024-08-11T08:22:32Z</time>
      </trkpt>
      <trkpt lat="45.89001" lon="3.38865">
        <ele>346.6</ele>
        <time>2024-08-11T08:22:33Z</time>
      </trkpt>
      <trkpt lat="45.88996" lon="3.38867">
        <ele>346.6</ele>
        <time>2024-08-11T08:22:34Z</time>
      </trkpt>
      <trkpt lat="45.8899" lon="3.38871">
        <ele>346.8</ele>
        <time>2024-08-11T08:22:35Z</time>
      </trkpt>
      <trkpt lat="45.88986" lon="3.38874">
        <ele>346.8</ele>
        <time>2024-08-11T08:22:36Z</time>
      </trkpt>
      <trkpt lat="45.88981" lon="3.38878">
        <ele>347</ele>
        <time>2024-08-11T08:22:37Z</time>
      </trkpt>
      <trkpt lat="45.88977" lon="3.38881">
        <ele>347</ele>
        <time>2024-08-11T08:22:38Z</time>
      </trkpt>
      <trkpt lat="45.88972" lon="3.38885">
        <ele>347</ele>
        <time>2024-08-11T08:22:39Z</time>
      </trkpt>
      <trkpt lat="45.88967" lon="3.38889">
        <ele>347.2</ele>
        <time>2024-08-11T08:22:40Z</time>
      </trkpt>
      <trkpt lat="45.88963" lon="3.38892">
        <ele>347.2</ele>
        <time>2024-08-11T08:22:41Z</time>
      </trkpt>
      <trkpt lat="45.88958" lon="3.38896">
        <ele>347.2</ele>
        <time>2024-08-11T08:22:42Z</time>
      </trkpt>
      <trkpt lat="45.88953" lon="3.389">
        <ele>347.4</ele>
        <time>2024-08-11T08:22:43Z</time>
      </trkpt>
      <trkpt lat="45.88948" lon="3.38904">
        <ele>347.4</ele>
        <time>2024-08-11T08:22:44Z</time>
      </trkpt>
      <trkpt lat="45.88943" lon="3.38907">
        <ele>347.4</ele>
        <time>2024-08-11T08:22:45Z</time>
      </trkpt>
      <trkpt lat="45.88939" lon="3.38911">
        <ele>347.6</ele>
        <time>2024-08-11T08:22:46Z</time>
      </trkpt>
      <trkpt lat="45.88934" lon="3.38915">
        <ele>347.6</ele>
        <time>2024-08-11T08:22:47Z</time>
      </trkpt>
      <trkpt lat="45.88929" lon="3.38918">
        <ele>347.8</ele>
        <time>2024-08-11T08:22:48Z</time>
      </trkpt>
      <trkpt lat="45.88924" lon="3.38922">
        <ele>347.8</ele>
        <time>2024-08-11T08:22:49Z</time>
      </trkpt>
      <trkpt lat="45.8892" lon="3.38926">
        <ele>347.8</ele>
        <time>2024-08-11T08:22:50Z</time>
      </trkpt>
      <trkpt lat="45.88915" lon="3.38929">
        <ele>348</ele>
        <time>2024-08-11T08:22:51Z</time>
      </trkpt>
      <trkpt lat="45.8891" lon="3.38933">
        <ele>348</ele>
        <time>2024-08-11T08:22:52Z</time>
      </trkpt>
      <trkpt lat="45.88906" lon="3.38936">
        <ele>348</ele>
        <time>2024-08-11T08:22:53Z</time>
      </trkpt>
      <trkpt lat="45.88901" lon="3.3894">
        <ele>348</ele>
        <time>2024-08-11T08:22:54Z</time>
      </trkpt>
      <trkpt lat="45.88897" lon="3.38943">
        <ele>348.2</ele>
        <time>2024-08-11T08:22:55Z</time>
      </trkpt>
      <trkpt lat="45.88893" lon="3.38947">
        <ele>348.2</ele>
        <time>2024-08-11T08:22:56Z</time>
      </trkpt>
      <trkpt lat="45.88888" lon="3.3895">
        <ele>348.2</ele>
        <time>2024-08-11T08:22:57Z</time>
      </trkpt>
      <trkpt lat="45.88884" lon="3.38953">
        <ele>348.4</ele>
        <time>2024-08-11T08:22:58Z</time>
      </trkpt>
      <trkpt lat="45.88879" lon="3.38956">
        <ele>348.4</ele>
        <time>2024-08-11T08:22:59Z</time>
      </trkpt>
      <trkpt lat="45.88875" lon="3.38959">
        <ele>348.4</ele>
        <time>2024-08-11T08:23:00Z</time>
      </trkpt>
      <trkpt lat="45.8887" lon="3.38962">
        <ele>348.4</ele>
        <time>2024-08-11T08:23:01Z</time>
      </trkpt>
      <trkpt lat="45.88865" lon="3.38965">
        <ele>348.6</ele>
        <time>2024-08-11T08:23:02Z</time>
      </trkpt>
      <trkpt lat="45.88861" lon="3.38968">
        <ele>348.6</ele>
        <time>2024-08-11T08:23:03Z</time>
      </trkpt>
      <trkpt lat="45.88856" lon="3.38971">
        <ele>348.6</ele>
        <time>2024-08-11T08:23:04Z</time>
      </trkpt>
      <trkpt lat="45.88851" lon="3.38974">
        <ele>348.8</ele>
        <time>2024-08-11T08:23:05Z</time>
      </trkpt>
      <trkpt lat="45.88847" lon="3.38977">
        <ele>348.8</ele>
        <time>2024-08-11T08:23:06Z</time>
      </trkpt>
      <trkpt lat="45.88842" lon="3.3898">
        <ele>348.8</ele>
        <time>2024-08-11T08:23:07Z</time>
      </trkpt>
      <trkpt lat="45.88837" lon="3.38983">
        <ele>349</ele>
        <time>2024-08-11T08:23:08Z</time>
      </trkpt>
      <trkpt lat="45.88832" lon="3.38986">
        <ele>349</ele>
        <time>2024-08-11T08:23:09Z</time>
      </trkpt>
      <trkpt lat="45.88828" lon="3.38989">
        <ele>349</ele>
        <time>2024-08-11T08:23:10Z</time>
      </trkpt>
      <trkpt lat="45.88823" lon="3.38992">
        <ele>349.2</ele>
        <time>2024-08-11T08:23:11Z</time>
      </trkpt>
      <trkpt lat="45.88818" lon="3.38995">
        <ele>349.2</ele>
        <time>2024-08-11T08:23:12Z</time>
      </trkpt>
      <trkpt lat="45.88814" lon="3.38998">
        <ele>349.4</ele>
        <time>2024-08-11T08:23:13Z</time>
      </trkpt>
      <trkpt lat="45.88809" lon="3.39002">
        <ele>349.6</ele>
        <time>2024-08-11T08:23:14Z</time>
      </trkpt>
      <trkpt lat="45.88804" lon="3.39005">
        <ele>349.6</ele>
        <time>2024-08-11T08:23:15Z</time>
      </trkpt>
      <trkpt lat="45.88799" lon="3.39007">
        <ele>349.8</ele>
        <time>2024-08-11T08:23:16Z</time>
      </trkpt>
      <trkpt lat="45.88794" lon="3.3901">
        <ele>349.8</ele>
        <time>2024-08-11T08:23:17Z</time>
      </trkpt>
      <trkpt lat="45.88789" lon="3.39013">
        <ele>350</ele>
        <time>2024-08-11T08:23:18Z</time>
      </trkpt>
      <trkpt lat="45.88784" lon="3.39015">
        <ele>350</ele>
        <time>2024-08-11T08:23:19Z</time>
      </trkpt>
      <trkpt lat="45.88779" lon="3.39018">
        <ele>350.2</ele>
        <time>2024-08-11T08:23:20Z</time>
      </trkpt>
      <trkpt lat="45.88774" lon="3.3902">
        <ele>350.2</ele>
        <time>2024-08-11T08:23:21Z</time>
      </trkpt>
      <trkpt lat="45.88769" lon="3.39023">
        <ele>350.2</ele>
        <time>2024-08-11T08:23:22Z</time>
      </trkpt>
      <trkpt lat="45.88764" lon="3.39025">
        <ele>350.4</ele>
        <time>2024-08-11T08:23:23Z</time>
      </trkpt>
      <trkpt lat="45.88759" lon="3.39028">
        <ele>350.4</ele>
        <time>2024-08-11T08:23:24Z</time>
      </trkpt>
      <trkpt lat="45.88754" lon="3.3903">
        <ele>350.4</ele>
        <time>2024-08-11T08:23:25Z</time>
      </trkpt>
      <trkpt lat="45.88749" lon="3.39033">
        <ele>350.6</ele>
        <time>2024-08-11T08:23:26Z</time>
      </trkpt>
      <trkpt lat="45.88744" lon="3.39036">
        <ele>350.6</ele>
        <time>2024-08-11T08:23:27Z</time>
      </trkpt>
      <trkpt lat="45.88739" lon="3.39038">
        <ele>350.8</ele>
        <time>2024-08-11T08:23:28Z</time>
      </trkpt>
      <trkpt lat="45.88734" lon="3.39041">
        <ele>350.8</ele>
        <time>2024-08-11T08:23:29Z</time>
      </trkpt>
      <trkpt lat="45.88728" lon="3.39044">
        <ele>350.8</ele>
        <time>2024-08-11T08:23:30Z</time>
      </trkpt>
      <trkpt lat="45.88723" lon="3.39046">
        <ele>351</ele>
        <time>2024-08-11T08:23:31Z</time>
      </trkpt>
      <trkpt lat="45.88718" lon="3.39049">
        <ele>351</ele>
        <time>2024-08-11T08:23:32Z</time>
      </trkpt>
      <trkpt lat="45.88713" lon="3.39052">
        <ele>351</ele>
        <time>2024-08-11T08:23:33Z</time>
      </trkpt>
      <trkpt lat="45.88707" lon="3.39054">
        <ele>351</ele>
        <time>2024-08-11T08:23:34Z</time>
      </trkpt>
      <trkpt lat="45.88702" lon="3.39057">
        <ele>351.2</ele>
        <time>2024-08-11T08:23:35Z</time>
      </trkpt>
      <trkpt lat="45.88697" lon="3.3906">
        <ele>351.2</ele>
        <time>2024-08-11T08:23:36Z</time>
      </trkpt>
      <trkpt lat="45.88692" lon="3.39062">
        <ele>351.2</ele>
        <time>2024-08-11T08:23:37Z</time>
      </trkpt>
      <trkpt lat="45.88686" lon="3.39065">
        <ele>351.2</ele>
        <time>2024-08-11T08:23:38Z</time>
      </trkpt>
      <trkpt lat="45.88681" lon="3.39068">
        <ele>351.4</ele>
        <time>2024-08-11T08:23:39Z</time>
      </trkpt>
      <trkpt lat="45.88676" lon="3.39071">
        <ele>351.4</ele>
        <time>2024-08-11T08:23:40Z</time>
      </trkpt>
      <trkpt lat="45.8867" lon="3.39073">
        <ele>351.4</ele>
        <time>2024-08-11T08:23:41Z</time>
      </trkpt>
      <trkpt lat="45.88665" lon="3.39076">
        <ele>351.4</ele>
        <time>2024-08-11T08:23:42Z</time>
      </trkpt>
      <trkpt lat="45.8866" lon="3.39079">
        <ele>351.6</ele>
        <time>2024-08-11T08:23:43Z</time>
      </trkpt>
      <trkpt lat="45.88655" lon="3.39082">
        <ele>351.6</ele>
        <time>2024-08-11T08:23:44Z</time>
      </trkpt>
      <trkpt lat="45.88649" lon="3.39084">
        <ele>351.6</ele>
        <time>2024-08-11T08:23:45Z</time>
      </trkpt>
      <trkpt lat="45.88644" lon="3.39087">
        <ele>351.8</ele>
        <time>2024-08-11T08:23:46Z</time>
      </trkpt>
      <trkpt lat="45.88639" lon="3.39089">
        <ele>351.8</ele>
        <time>2024-08-11T08:23:47Z</time>
      </trkpt>
      <trkpt lat="45.88634" lon="3.39092">
        <ele>351.8</ele>
        <time>2024-08-11T08:23:48Z</time>
      </trkpt>
      <trkpt lat="45.88628" lon="3.39095">
        <ele>351.8</ele>
        <time>2024-08-11T08:23:49Z</time>
      </trkpt>
      <trkpt lat="45.88623" lon="3.39098">
        <ele>352</ele>
        <time>2024-08-11T08:23:50Z</time>
      </trkpt>
      <trkpt lat="45.88618" lon="3.391">
        <ele>352</ele>
        <time>2024-08-11T08:23:51Z</time>
      </trkpt>
      <trkpt lat="45.88613" lon="3.39103">
        <ele>352</ele>
        <time>2024-08-11T08:23:52Z</time>
      </trkpt>
      <trkpt lat="45.88607" lon="3.39106">
        <ele>352</ele>
        <time>2024-08-11T08:23:53Z</time>
      </trkpt>
      <trkpt lat="45.88602" lon="3.39109">
        <ele>352.2</ele>
        <time>2024-08-11T08:23:54Z</time>
      </trkpt>
      <trkpt lat="45.88597" lon="3.39111">
        <ele>352.2</ele>
        <time>2024-08-11T08:23:55Z</time>
      </trkpt>
      <trkpt lat="45.88591" lon="3.39114">
        <ele>352.2</ele>
        <time>2024-08-11T08:23:56Z</time>
      </trkpt>
      <trkpt lat="45.88586" lon="3.39117">
        <ele>352.4</ele>
        <time>2024-08-11T08:23:57Z</time>
      </trkpt>
      <trkpt lat="45.88581" lon="3.39119">
        <ele>352.4</ele>
        <time>2024-08-11T08:23:58Z</time>
      </trkpt>
      <trkpt lat="45.88576" lon="3.39122">
        <ele>352.4</ele>
        <time>2024-08-11T08:23:59Z</time>
      </trkpt>
      <trkpt lat="45.88571" lon="3.39125">
        <ele>352.4</ele>
        <time>2024-08-11T08:24:00Z</time>
      </trkpt>
      <trkpt lat="45.88566" lon="3.39127">
        <ele>352.6</ele>
        <time>2024-08-11T08:24:01Z</time>
      </trkpt>
      <trkpt lat="45.8856" lon="3.3913">
        <ele>352.6</ele>
        <time>2024-08-11T08:24:02Z</time>
      </trkpt>
      <trkpt lat="45.88555" lon="3.39133">
        <ele>352.6</ele>
        <time>2024-08-11T08:24:03Z</time>
      </trkpt>
      <trkpt lat="45.8855" lon="3.39135">
        <ele>352.8</ele>
        <time>2024-08-11T08:24:04Z</time>
      </trkpt>
      <trkpt lat="45.88545" lon="3.39138">
        <ele>352.8</ele>
        <time>2024-08-11T08:24:05Z</time>
      </trkpt>
      <trkpt lat="45.8854" lon="3.3914">
        <ele>352.8</ele>
        <time>2024-08-11T08:24:06Z</time>
      </trkpt>
      <trkpt lat="45.88535" lon="3.39143">
        <ele>352.8</ele>
        <time>2024-08-11T08:24:07Z</time>
      </trkpt>
      <trkpt lat="45.8853" lon="3.39146">
        <ele>353</ele>
        <time>2024-08-11T08:24:08Z</time>
      </trkpt>
      <trkpt lat="45.88525" lon="3.39148">
        <ele>353</ele>
        <time>2024-08-11T08:24:09Z</time>
      </trkpt>
      <trkpt lat="45.88519" lon="3.39151">
        <ele>353.2</ele>
        <time>2024-08-11T08:24:10Z</time>
      </trkpt>
      <trkpt lat="45.88514" lon="3.39154">
        <ele>353.2</ele>
        <time>2024-08-11T08:24:11Z</time>
      </trkpt>
      <trkpt lat="45.88509" lon="3.39156">
        <ele>353.2</ele>
        <time>2024-08-11T08:24:12Z</time>
      </trkpt>
      <trkpt lat="45.88504" lon="3.39159">
        <ele>353.2</ele>
        <time>2024-08-11T08:24:13Z</time>
      </trkpt>
      <trkpt lat="45.88499" lon="3.39162">
        <ele>353.4</ele>
        <time>2024-08-11T08:24:14Z</time>
      </trkpt>
      <trkpt lat="45.88493" lon="3.39165">
        <ele>353.4</ele>
        <time>2024-08-11T08:24:15Z</time>
      </trkpt>
      <trkpt lat="45.88488" lon="3.39167">
        <ele>353.4</ele>
        <time>2024-08-11T08:24:16Z</time>
      </trkpt>
      <trkpt lat="45.88482" lon="3.3917">
        <ele>353.4</ele>
        <time>2024-08-11T08:24:17Z</time>
      </trkpt>
      <trkpt lat="45.88477" lon="3.39173">
        <ele>353.4</ele>
        <time>2024-08-11T08:24:18Z</time>
      </trkpt>
      <trkpt lat="45.88472" lon="3.39175">
        <ele>353.6</ele>
        <time>2024-08-11T08:24:19Z</time>
      </trkpt>
      <trkpt lat="45.88466" lon="3.39178">
        <ele>353.6</ele>
        <time>2024-08-11T08:24:20Z</time>
      </trkpt>
      <trkpt lat="45.88461" lon="3.39181">
        <ele>353.6</ele>
        <time>2024-08-11T08:24:21Z</time>
      </trkpt>
      <trkpt lat="45.88456" lon="3.39184">
        <ele>353.6</ele>
        <time>2024-08-11T08:24:22Z</time>
      </trkpt>
      <trkpt lat="45.8845" lon="3.39187">
        <ele>353.6</ele>
        <time>2024-08-11T08:24:23Z</time>
      </trkpt>
      <trkpt lat="45.88445" lon="3.39189">
        <ele>353.6</ele>
        <time>2024-08-11T08:24:24Z</time>
      </trkpt>
      <trkpt lat="45.8844" lon="3.39192">
        <ele>353.8</ele>
        <time>2024-08-11T08:24:25Z</time>
      </trkpt>
      <trkpt lat="45.88434" lon="3.39195">
        <ele>353.8</ele>
        <time>2024-08-11T08:24:26Z</time>
      </trkpt>
      <trkpt lat="45.88429" lon="3.39197">
        <ele>353.8</ele>
        <time>2024-08-11T08:24:27Z</time>
      </trkpt>
      <trkpt lat="45.88423" lon="3.392">
        <ele>353.8</ele>
        <time>2024-08-11T08:24:28Z</time>
      </trkpt>
      <trkpt lat="45.88418" lon="3.39203">
        <ele>354</ele>
        <time>2024-08-11T08:24:29Z</time>
      </trkpt>
      <trkpt lat="45.88413" lon="3.39205">
        <ele>354</ele>
        <time>2024-08-11T08:24:30Z</time>
      </trkpt>
      <trkpt lat="45.88407" lon="3.39207">
        <ele>354</ele>
        <time>2024-08-11T08:24:31Z</time>
      </trkpt>
      <trkpt lat="45.88401" lon="3.39209">
        <ele>354.2</ele>
        <time>2024-08-11T08:24:32Z</time>
      </trkpt>
      <trkpt lat="45.88396" lon="3.3921">
        <ele>354.2</ele>
        <time>2024-08-11T08:24:33Z</time>
      </trkpt>
      <trkpt lat="45.8839" lon="3.39212">
        <ele>354.2</ele>
        <time>2024-08-11T08:24:34Z</time>
      </trkpt>
      <trkpt lat="45.88384" lon="3.39214">
        <ele>354.2</ele>
        <time>2024-08-11T08:24:35Z</time>
      </trkpt>
      <trkpt lat="45.88378" lon="3.39216">
        <ele>354.4</ele>
        <time>2024-08-11T08:24:36Z</time>
      </trkpt>
      <trkpt lat="45.88372" lon="3.39218">
        <ele>354.4</ele>
        <time>2024-08-11T08:24:37Z</time>
      </trkpt>
      <trkpt lat="45.88366" lon="3.3922">
        <ele>354.4</ele>
        <time>2024-08-11T08:24:38Z</time>
      </trkpt>
      <trkpt lat="45.8836" lon="3.39222">
        <ele>354.4</ele>
        <time>2024-08-11T08:24:39Z</time>
      </trkpt>
      <trkpt lat="45.88355" lon="3.39224">
        <ele>354.4</ele>
        <time>2024-08-11T08:24:40Z</time>
      </trkpt>
      <trkpt lat="45.88349" lon="3.39226">
        <ele>354.6</ele>
        <time>2024-08-11T08:24:41Z</time>
      </trkpt>
      <trkpt lat="45.88343" lon="3.39228">
        <ele>354.6</ele>
        <time>2024-08-11T08:24:42Z</time>
      </trkpt>
      <trkpt lat="45.88337" lon="3.3923">
        <ele>354.6</ele>
        <time>2024-08-11T08:24:43Z</time>
      </trkpt>
      <trkpt lat="45.88331" lon="3.39232">
        <ele>354.6</ele>
        <time>2024-08-11T08:24:44Z</time>
      </trkpt>
      <trkpt lat="45.88326" lon="3.39234">
        <ele>354.6</ele>
        <time>2024-08-11T08:24:45Z</time>
      </trkpt>
      <trkpt lat="45.8832" lon="3.39236">
        <ele>354.6</ele>
        <time>2024-08-11T08:24:46Z</time>
      </trkpt>
      <trkpt lat="45.88314" lon="3.39238">
        <ele>354.6</ele>
        <time>2024-08-11T08:24:47Z</time>
      </trkpt>
      <trkpt lat="45.88308" lon="3.39239">
        <ele>354.8</ele>
        <time>2024-08-11T08:24:48Z</time>
      </trkpt>
      <trkpt lat="45.88303" lon="3.39241">
        <ele>354.8</ele>
        <time>2024-08-11T08:24:49Z</time>
      </trkpt>
      <trkpt lat="45.88297" lon="3.39243">
        <ele>354.8</ele>
        <time>2024-08-11T08:24:50Z</time>
      </trkpt>
      <trkpt lat="45.88291" lon="3.39245">
        <ele>354.8</ele>
        <time>2024-08-11T08:24:51Z</time>
      </trkpt>
      <trkpt lat="45.88285" lon="3.39247">
        <ele>354.8</ele>
        <time>2024-08-11T08:24:52Z</time>
      </trkpt>
      <trkpt lat="45.8828" lon="3.39249">
        <ele>354.8</ele>
        <time>2024-08-11T08:24:53Z</time>
      </trkpt>
      <trkpt lat="45.88273" lon="3.39251">
        <ele>354.8</ele>
        <time>2024-08-11T08:24:54Z</time>
      </trkpt>
      <trkpt lat="45.88267" lon="3.39253">
        <ele>354.8</ele>
        <time>2024-08-11T08:24:55Z</time>
      </trkpt>
      <trkpt lat="45.88262" lon="3.39255">
        <ele>354.8</ele>
        <time>2024-08-11T08:24:56Z</time>
      </trkpt>
      <trkpt lat="45.88256" lon="3.39257">
        <ele>355</ele>
        <time>2024-08-11T08:24:57Z</time>
      </trkpt>
      <trkpt lat="45.8825" lon="3.39259">
        <ele>355</ele>
        <time>2024-08-11T08:24:58Z</time>
      </trkpt>
      <trkpt lat="45.88244" lon="3.39261">
        <ele>355</ele>
        <time>2024-08-11T08:24:59Z</time>
      </trkpt>
      <trkpt lat="45.88238" lon="3.39263">
        <ele>355</ele>
        <time>2024-08-11T08:25:00Z</time>
      </trkpt>
      <trkpt lat="45.88231" lon="3.39265">
        <ele>355</ele>
        <time>2024-08-11T08:25:01Z</time>
      </trkpt>
      <trkpt lat="45.88225" lon="3.39267">
        <ele>355</ele>
        <time>2024-08-11T08:25:02Z</time>
      </trkpt>
      <trkpt lat="45.88219" lon="3.39269">
        <ele>355</ele>
        <time>2024-08-11T08:25:03Z</time>
      </trkpt>
      <trkpt lat="45.88212" lon="3.39271">
        <ele>355</ele>
        <time>2024-08-11T08:25:04Z</time>
      </trkpt>
      <trkpt lat="45.88205" lon="3.39274">
        <ele>355</ele>
        <time>2024-08-11T08:25:05Z</time>
      </trkpt>
      <trkpt lat="45.88199" lon="3.39276">
        <ele>355.2</ele>
        <time>2024-08-11T08:25:06Z</time>
      </trkpt>
      <trkpt lat="45.88192" lon="3.39278">
        <ele>355.2</ele>
        <time>2024-08-11T08:25:07Z</time>
      </trkpt>
      <trkpt lat="45.88185" lon="3.3928">
        <ele>355.2</ele>
        <time>2024-08-11T08:25:08Z</time>
      </trkpt>
      <trkpt lat="45.88178" lon="3.39283">
        <ele>355.2</ele>
        <time>2024-08-11T08:25:09Z</time>
      </trkpt>
      <trkpt lat="45.88171" lon="3.39285">
        <ele>355</ele>
        <time>2024-08-11T08:25:10Z</time>
      </trkpt>
      <trkpt lat="45.88165" lon="3.39287">
        <ele>355</ele>
        <time>2024-08-11T08:25:11Z</time>
      </trkpt>
      <trkpt lat="45.88158" lon="3.39289">
        <ele>355</ele>
        <time>2024-08-11T08:25:12Z</time>
      </trkpt>
      <trkpt lat="45.88151" lon="3.39292">
        <ele>355</ele>
        <time>2024-08-11T08:25:13Z</time>
      </trkpt>
      <trkpt lat="45.88145" lon="3.39294">
        <ele>355</ele>
        <time>2024-08-11T08:25:14Z</time>
      </trkpt>
      <trkpt lat="45.88138" lon="3.39296">
        <ele>355</ele>
        <time>2024-08-11T08:25:15Z</time>
      </trkpt>
      <trkpt lat="45.88132" lon="3.39298">
        <ele>355</ele>
        <time>2024-08-11T08:25:16Z</time>
      </trkpt>
      <trkpt lat="45.88126" lon="3.393">
        <ele>355</ele>
        <time>2024-08-11T08:25:17Z</time>
      </trkpt>
      <trkpt lat="45.8812" lon="3.39302">
        <ele>355</ele>
        <time>2024-08-11T08:25:18Z</time>
      </trkpt>
      <trkpt lat="45.88114" lon="3.39304">
        <ele>355</ele>
        <time>2024-08-11T08:25:19Z</time>
      </trkpt>
      <trkpt lat="45.88108" lon="3.39306">
        <ele>355</ele>
        <time>2024-08-11T08:25:20Z</time>
      </trkpt>
      <trkpt lat="45.88102" lon="3.39308">
        <ele>355</ele>
        <time>2024-08-11T08:25:21Z</time>
      </trkpt>
      <trkpt lat="45.88097" lon="3.3931">
        <ele>355</ele>
        <time>2024-08-11T08:25:22Z</time>
      </trkpt>
      <trkpt lat="45.88091" lon="3.39312">
        <ele>355</ele>
        <time>2024-08-11T08:25:23Z</time>
      </trkpt>
      <trkpt lat="45.88085" lon="3.39314">
        <ele>355</ele>
        <time>2024-08-11T08:25:24Z</time>
      </trkpt>
      <trkpt lat="45.8808" lon="3.39315">
        <ele>355.2</ele>
        <time>2024-08-11T08:25:25Z</time>
      </trkpt>
      <trkpt lat="45.88075" lon="3.39317">
        <ele>355.2</ele>
        <time>2024-08-11T08:25:26Z</time>
      </trkpt>
      <trkpt lat="45.88069" lon="3.39319">
        <ele>355.2</ele>
        <time>2024-08-11T08:25:27Z</time>
      </trkpt>
      <trkpt lat="45.88064" lon="3.39321">
        <ele>355.2</ele>
        <time>2024-08-11T08:25:28Z</time>
      </trkpt>
      <trkpt lat="45.88059" lon="3.39322">
        <ele>355.2</ele>
        <time>2024-08-11T08:25:29Z</time>
      </trkpt>
      <trkpt lat="45.88054" lon="3.39324">
        <ele>355.4</ele>
        <time>2024-08-11T08:25:30Z</time>
      </trkpt>
      <trkpt lat="45.88049" lon="3.39326">
        <ele>355.4</ele>
        <time>2024-08-11T08:25:31Z</time>
      </trkpt>
      <trkpt lat="45.88044" lon="3.39327">
        <ele>355.4</ele>
        <time>2024-08-11T08:25:32Z</time>
      </trkpt>
      <trkpt lat="45.88039" lon="3.39329">
        <ele>355.4</ele>
        <time>2024-08-11T08:25:33Z</time>
      </trkpt>
      <trkpt lat="45.88034" lon="3.39331">
        <ele>355.4</ele>
        <time>2024-08-11T08:25:34Z</time>
      </trkpt>
      <trkpt lat="45.88029" lon="3.39332">
        <ele>355.6</ele>
        <time>2024-08-11T08:25:35Z</time>
      </trkpt>
      <trkpt lat="45.88024" lon="3.39334">
        <ele>355.6</ele>
        <time>2024-08-11T08:25:36Z</time>
      </trkpt>
      <trkpt lat="45.88019" lon="3.39336">
        <ele>355.6</ele>
        <time>2024-08-11T08:25:37Z</time>
      </trkpt>
      <trkpt lat="45.88014" lon="3.39337">
        <ele>355.6</ele>
        <time>2024-08-11T08:25:38Z</time>
      </trkpt>
      <trkpt lat="45.88009" lon="3.39339">
        <ele>355.6</ele>
        <time>2024-08-11T08:25:39Z</time>
      </trkpt>
      <trkpt lat="45.88005" lon="3.3934">
        <ele>355.6</ele>
        <time>2024-08-11T08:25:40Z</time>
      </trkpt>
      <trkpt lat="45.88" lon="3.39342">
        <ele>355.8</ele>
        <time>2024-08-11T08:25:41Z</time>
      </trkpt>
      <trkpt lat="45.87995" lon="3.39344">
        <ele>355.8</ele>
        <time>2024-08-11T08:25:42Z</time>
      </trkpt>
      <trkpt lat="45.8799" lon="3.39345">
        <ele>355.8</ele>
        <time>2024-08-11T08:25:43Z</time>
      </trkpt>
      <trkpt lat="45.87986" lon="3.39347">
        <ele>355.8</ele>
        <time>2024-08-11T08:25:44Z</time>
      </trkpt>
      <trkpt lat="45.87981" lon="3.39348">
        <ele>355.8</ele>
        <time>2024-08-11T08:25:45Z</time>
      </trkpt>
      <trkpt lat="45.87976" lon="3.3935">
        <ele>355.8</ele>
        <time>2024-08-11T08:25:46Z</time>
      </trkpt>
      <trkpt lat="45.87971" lon="3.39352">
        <ele>356</ele>
        <time>2024-08-11T08:25:47Z</time>
      </trkpt>
      <trkpt lat="45.87966" lon="3.39353">
        <ele>356</ele>
        <time>2024-08-11T08:25:48Z</time>
      </trkpt>
      <trkpt lat="45.8796" lon="3.39355">
        <ele>356</ele>
        <time>2024-08-11T08:25:49Z</time>
      </trkpt>
      <trkpt lat="45.87955" lon="3.39357">
        <ele>356</ele>
        <time>2024-08-11T08:25:50Z</time>
      </trkpt>
      <trkpt lat="45.8795" lon="3.39359">
        <ele>356</ele>
        <time>2024-08-11T08:25:51Z</time>
      </trkpt>
      <trkpt lat="45.87945" lon="3.3936">
        <ele>356</ele>
        <time>2024-08-11T08:25:52Z</time>
      </trkpt>
      <trkpt lat="45.8794" lon="3.39362">
        <ele>356.2</ele>
        <time>2024-08-11T08:25:53Z</time>
      </trkpt>
      <trkpt lat="45.87935" lon="3.39364">
        <ele>356.2</ele>
        <time>2024-08-11T08:25:54Z</time>
      </trkpt>
      <trkpt lat="45.8793" lon="3.39365">
        <ele>356.2</ele>
        <time>2024-08-11T08:25:55Z</time>
      </trkpt>
      <trkpt lat="45.87924" lon="3.39367">
        <ele>356.2</ele>
        <time>2024-08-11T08:25:56Z</time>
      </trkpt>
      <trkpt lat="45.87919" lon="3.39369">
        <ele>356.4</ele>
        <time>2024-08-11T08:25:57Z</time>
      </trkpt>
      <trkpt lat="45.87915" lon="3.3937">
        <ele>356.4</ele>
        <time>2024-08-11T08:25:58Z</time>
      </trkpt>
      <trkpt lat="45.87909" lon="3.39372">
        <ele>356.4</ele>
        <time>2024-08-11T08:25:59Z</time>
      </trkpt>
      <trkpt lat="45.87904" lon="3.39374">
        <ele>356.4</ele>
        <time>2024-08-11T08:26:00Z</time>
      </trkpt>
      <trkpt lat="45.87899" lon="3.39375">
        <ele>356.4</ele>
        <time>2024-08-11T08:26:01Z</time>
      </trkpt>
      <trkpt lat="45.87894" lon="3.39377">
        <ele>356.4</ele>
        <time>2024-08-11T08:26:02Z</time>
      </trkpt>
      <trkpt lat="45.87889" lon="3.39379">
        <ele>356.6</ele>
        <time>2024-08-11T08:26:03Z</time>
      </trkpt>
      <trkpt lat="45.87884" lon="3.3938">
        <ele>356.6</ele>
        <time>2024-08-11T08:26:04Z</time>
      </trkpt>
      <trkpt lat="45.87879" lon="3.39382">
        <ele>356.6</ele>
        <time>2024-08-11T08:26:05Z</time>
      </trkpt>
      <trkpt lat="45.87874" lon="3.39384">
        <ele>356.6</ele>
        <time>2024-08-11T08:26:06Z</time>
      </trkpt>
      <trkpt lat="45.87869" lon="3.39385">
        <ele>356.8</ele>
        <time>2024-08-11T08:26:07Z</time>
      </trkpt>
      <trkpt lat="45.87864" lon="3.39387">
        <ele>356.8</ele>
        <time>2024-08-11T08:26:08Z</time>
      </trkpt>
      <trkpt lat="45.87859" lon="3.39389">
        <ele>356.8</ele>
        <time>2024-08-11T08:26:09Z</time>
      </trkpt>
      <trkpt lat="45.87854" lon="3.3939">
        <ele>357</ele>
        <time>2024-08-11T08:26:10Z</time>
      </trkpt>
      <trkpt lat="45.87849" lon="3.39392">
        <ele>357</ele>
        <time>2024-08-11T08:26:11Z</time>
      </trkpt>
      <trkpt lat="45.87845" lon="3.39394">
        <ele>357</ele>
        <time>2024-08-11T08:26:12Z</time>
      </trkpt>
      <trkpt lat="45.8784" lon="3.39395">
        <ele>357</ele>
        <time>2024-08-11T08:26:13Z</time>
      </trkpt>
      <trkpt lat="45.87835" lon="3.39397">
        <ele>357.2</ele>
        <time>2024-08-11T08:26:14Z</time>
      </trkpt>
      <trkpt lat="45.8783" lon="3.39399">
        <ele>357.2</ele>
        <time>2024-08-11T08:26:15Z</time>
      </trkpt>
      <trkpt lat="45.87825" lon="3.394">
        <ele>357.2</ele>
        <time>2024-08-11T08:26:16Z</time>
      </trkpt>
      <trkpt lat="45.8782" lon="3.39402">
        <ele>357.4</ele>
        <time>2024-08-11T08:26:17Z</time>
      </trkpt>
      <trkpt lat="45.87815" lon="3.39404">
        <ele>357.4</ele>
        <time>2024-08-11T08:26:18Z</time>
      </trkpt>
      <trkpt lat="45.8781" lon="3.39405">
        <ele>357.4</ele>
        <time>2024-08-11T08:26:19Z</time>
      </trkpt>
      <trkpt lat="45.87805" lon="3.39407">
        <ele>357.6</ele>
        <time>2024-08-11T08:26:20Z</time>
      </trkpt>
      <trkpt lat="45.878" lon="3.39409">
        <ele>357.6</ele>
        <time>2024-08-11T08:26:21Z</time>
      </trkpt>
      <trkpt lat="45.87794" lon="3.3941">
        <ele>357.6</ele>
        <time>2024-08-11T08:26:22Z</time>
      </trkpt>
      <trkpt lat="45.87789" lon="3.39412">
        <ele>357.8</ele>
        <time>2024-08-11T08:26:23Z</time>
      </trkpt>
      <trkpt lat="45.87784" lon="3.39414">
        <ele>357.8</ele>
        <time>2024-08-11T08:26:24Z</time>
      </trkpt>
      <trkpt lat="45.87779" lon="3.39415">
        <ele>357.8</ele>
        <time>2024-08-11T08:26:25Z</time>
      </trkpt>
      <trkpt lat="45.87774" lon="3.39417">
        <ele>358</ele>
        <time>2024-08-11T08:26:26Z</time>
      </trkpt>
      <trkpt lat="45.87769" lon="3.39419">
        <ele>358</ele>
        <time>2024-08-11T08:26:27Z</time>
      </trkpt>
      <trkpt lat="45.87763" lon="3.39421">
        <ele>358</ele>
        <time>2024-08-11T08:26:28Z</time>
      </trkpt>
      <trkpt lat="45.87758" lon="3.39422">
        <ele>358.2</ele>
        <time>2024-08-11T08:26:29Z</time>
      </trkpt>
      <trkpt lat="45.87753" lon="3.39424">
        <ele>358.2</ele>
        <time>2024-08-11T08:26:30Z</time>
      </trkpt>
      <trkpt lat="45.87748" lon="3.39426">
        <ele>358.2</ele>
        <time>2024-08-11T08:26:31Z</time>
      </trkpt>
      <trkpt lat="45.87743" lon="3.39427">
        <ele>358.2</ele>
        <time>2024-08-11T08:26:32Z</time>
      </trkpt>
      <trkpt lat="45.87738" lon="3.39429">
        <ele>358.4</ele>
        <time>2024-08-11T08:26:33Z</time>
      </trkpt>
      <trkpt lat="45.87733" lon="3.39431">
        <ele>358.4</ele>
        <time>2024-08-11T08:26:34Z</time>
      </trkpt>
      <trkpt lat="45.87728" lon="3.39432">
        <ele>358.6</ele>
        <time>2024-08-11T08:26:35Z</time>
      </trkpt>
      <trkpt lat="45.87723" lon="3.39434">
        <ele>358.6</ele>
        <time>2024-08-11T08:26:36Z</time>
      </trkpt>
      <trkpt lat="45.87718" lon="3.39436">
        <ele>358.6</ele>
        <time>2024-08-11T08:26:37Z</time>
      </trkpt>
      <trkpt lat="45.87713" lon="3.39437">
        <ele>358.8</ele>
        <time>2024-08-11T08:26:38Z</time>
      </trkpt>
      <trkpt lat="45.87708" lon="3.39439">
        <ele>358.8</ele>
        <time>2024-08-11T08:26:39Z</time>
      </trkpt>
      <trkpt lat="45.87703" lon="3.39441">
        <ele>358.8</ele>
        <time>2024-08-11T08:26:40Z</time>
      </trkpt>
      <trkpt lat="45.87698" lon="3.39442">
        <ele>358.8</ele>
        <time>2024-08-11T08:26:41Z</time>
      </trkpt>
      <trkpt lat="45.87693" lon="3.39444">
        <ele>359</ele>
        <time>2024-08-11T08:26:42Z</time>
      </trkpt>
      <trkpt lat="45.87689" lon="3.39445">
        <ele>359</ele>
        <time>2024-08-11T08:26:43Z</time>
      </trkpt>
      <trkpt lat="45.87684" lon="3.39447">
        <ele>359</ele>
        <time>2024-08-11T08:26:44Z</time>
      </trkpt>
      <trkpt lat="45.87679" lon="3.39449">
        <ele>359.2</ele>
        <time>2024-08-11T08:26:45Z</time>
      </trkpt>
      <trkpt lat="45.87674" lon="3.3945">
        <ele>359.2</ele>
        <time>2024-08-11T08:26:46Z</time>
      </trkpt>
      <trkpt lat="45.8767" lon="3.39452">
        <ele>359.2</ele>
        <time>2024-08-11T08:26:47Z</time>
      </trkpt>
      <trkpt lat="45.87665" lon="3.39453">
        <ele>359.4</ele>
        <time>2024-08-11T08:26:48Z</time>
      </trkpt>
      <trkpt lat="45.8766" lon="3.39455">
        <ele>359.4</ele>
        <time>2024-08-11T08:26:49Z</time>
      </trkpt>
      <trkpt lat="45.87655" lon="3.39457">
        <ele>359.4</ele>
        <time>2024-08-11T08:26:50Z</time>
      </trkpt>
      <trkpt lat="45.87651" lon="3.39459">
        <ele>359.6</ele>
        <time>2024-08-11T08:26:51Z</time>
      </trkpt>
      <trkpt lat="45.87646" lon="3.3946">
        <ele>359.6</ele>
        <time>2024-08-11T08:26:52Z</time>
      </trkpt>
      <trkpt lat="45.87641" lon="3.39462">
        <ele>359.6</ele>
        <time>2024-08-11T08:26:53Z</time>
      </trkpt>
      <trkpt lat="45.87636" lon="3.39464">
        <ele>359.8</ele>
        <time>2024-08-11T08:26:54Z</time>
      </trkpt>
      <trkpt lat="45.87631" lon="3.39466">
        <ele>359.8</ele>
        <time>2024-08-11T08:26:55Z</time>
      </trkpt>
      <trkpt lat="45.87627" lon="3.39467">
        <ele>359.8</ele>
        <time>2024-08-11T08:26:56Z</time>
      </trkpt>
      <trkpt lat="45.87622" lon="3.39469">
        <ele>360</ele>
        <time>2024-08-11T08:26:57Z</time>
      </trkpt>
      <trkpt lat="45.87617" lon="3.39471">
        <ele>360</ele>
        <time>2024-08-11T08:26:58Z</time>
      </trkpt>
      <trkpt lat="45.87612" lon="3.39473">
        <ele>360</ele>
        <time>2024-08-11T08:26:59Z</time>
      </trkpt>
      <trkpt lat="45.87607" lon="3.39475">
        <ele>360.2</ele>
        <time>2024-08-11T08:27:00Z</time>
      </trkpt>
      <trkpt lat="45.87602" lon="3.39477">
        <ele>360.2</ele>
        <time>2024-08-11T08:27:01Z</time>
      </trkpt>
      <trkpt lat="45.87597" lon="3.39478">
        <ele>360.4</ele>
        <time>2024-08-11T08:27:02Z</time>
      </trkpt>
      <trkpt lat="45.87592" lon="3.3948">
        <ele>360.4</ele>
        <time>2024-08-11T08:27:03Z</time>
      </trkpt>
      <trkpt lat="45.87587" lon="3.39482">
        <ele>360.6</ele>
        <time>2024-08-11T08:27:04Z</time>
      </trkpt>
      <trkpt lat="45.87582" lon="3.39484">
        <ele>360.6</ele>
        <time>2024-08-11T08:27:05Z</time>
      </trkpt>
      <trkpt lat="45.87577" lon="3.39485">
        <ele>360.6</ele>
        <time>2024-08-11T08:27:06Z</time>
      </trkpt>
      <trkpt lat="45.87572" lon="3.39487">
        <ele>360.6</ele>
        <time>2024-08-11T08:27:07Z</time>
      </trkpt>
      <trkpt lat="45.87568" lon="3.39489">
        <ele>360.8</ele>
        <time>2024-08-11T08:27:08Z</time>
      </trkpt>
      <trkpt lat="45.87563" lon="3.39491">
        <ele>360.8</ele>
        <time>2024-08-11T08:27:09Z</time>
      </trkpt>
      <trkpt lat="45.87558" lon="3.39493">
        <ele>360.8</ele>
        <time>2024-08-11T08:27:10Z</time>
      </trkpt>
      <trkpt lat="45.87553" lon="3.39494">
        <ele>360.8</ele>
        <time>2024-08-11T08:27:11Z</time>
      </trkpt>
      <trkpt lat="45.87548" lon="3.39496">
        <ele>360.8</ele>
        <time>2024-08-11T08:27:12Z</time>
      </trkpt>
      <trkpt lat="45.87543" lon="3.39498">
        <ele>361</ele>
        <time>2024-08-11T08:27:13Z</time>
      </trkpt>
      <trkpt lat="45.87538" lon="3.395">
        <ele>361</ele>
        <time>2024-08-11T08:27:14Z</time>
      </trkpt>
      <trkpt lat="45.87533" lon="3.39501">
        <ele>361</ele>
        <time>2024-08-11T08:27:15Z</time>
      </trkpt>
      <trkpt lat="45.87528" lon="3.39503">
        <ele>361</ele>
        <time>2024-08-11T08:27:16Z</time>
      </trkpt>
      <trkpt lat="45.87523" lon="3.39505">
        <ele>361.2</ele>
        <time>2024-08-11T08:27:17Z</time>
      </trkpt>
      <trkpt lat="45.87518" lon="3.39507">
        <ele>361.2</ele>
        <time>2024-08-11T08:27:18Z</time>
      </trkpt>
      <trkpt lat="45.87513" lon="3.39509">
        <ele>361.2</ele>
        <time>2024-08-11T08:27:19Z</time>
      </trkpt>
      <trkpt lat="45.87508" lon="3.39511">
        <ele>361.2</ele>
        <time>2024-08-11T08:27:20Z</time>
      </trkpt>
      <trkpt lat="45.87503" lon="3.39513">
        <ele>361.4</ele>
        <time>2024-08-11T08:27:21Z</time>
      </trkpt>
      <trkpt lat="45.87498" lon="3.39514">
        <ele>361.4</ele>
        <time>2024-08-11T08:27:22Z</time>
      </trkpt>
      <trkpt lat="45.87493" lon="3.39516">
        <ele>361.4</ele>
        <time>2024-08-11T08:27:23Z</time>
      </trkpt>
      <trkpt lat="45.87487" lon="3.39518">
        <ele>361.6</ele>
        <time>2024-08-11T08:27:24Z</time>
      </trkpt>
      <trkpt lat="45.87482" lon="3.3952">
        <ele>361.6</ele>
        <time>2024-08-11T08:27:25Z</time>
      </trkpt>
      <trkpt lat="45.87477" lon="3.39522">
        <ele>361.6</ele>
        <time>2024-08-11T08:27:26Z</time>
      </trkpt>
      <trkpt lat="45.87472" lon="3.39524">
        <ele>361.8</ele>
        <time>2024-08-11T08:27:27Z</time>
      </trkpt>
      <trkpt lat="45.87468" lon="3.39526">
        <ele>361.8</ele>
        <time>2024-08-11T08:27:28Z</time>
      </trkpt>
      <trkpt lat="45.87463" lon="3.39527">
        <ele>361.8</ele>
        <time>2024-08-11T08:27:29Z</time>
      </trkpt>
      <trkpt lat="45.87458" lon="3.39529">
        <ele>362</ele>
        <time>2024-08-11T08:27:30Z</time>
      </trkpt>
      <trkpt lat="45.87453" lon="3.39531">
        <ele>362</ele>
        <time>2024-08-11T08:27:31Z</time>
      </trkpt>
      <trkpt lat="45.87448" lon="3.39533">
        <ele>362</ele>
        <time>2024-08-11T08:27:32Z</time>
      </trkpt>
      <trkpt lat="45.87444" lon="3.39534">
        <ele>362.2</ele>
        <time>2024-08-11T08:27:33Z</time>
      </trkpt>
      <trkpt lat="45.87439" lon="3.39536">
        <ele>362.2</ele>
        <time>2024-08-11T08:27:34Z</time>
      </trkpt>
      <trkpt lat="45.87434" lon="3.39538">
        <ele>362.4</ele>
        <time>2024-08-11T08:27:35Z</time>
      </trkpt>
      <trkpt lat="45.87429" lon="3.39539">
        <ele>362.4</ele>
        <time>2024-08-11T08:27:36Z</time>
      </trkpt>
      <trkpt lat="45.87425" lon="3.39541">
        <ele>362.4</ele>
        <time>2024-08-11T08:27:37Z</time>
      </trkpt>
      <trkpt lat="45.8742" lon="3.39543">
        <ele>362.6</ele>
        <time>2024-08-11T08:27:38Z</time>
      </trkpt>
      <trkpt lat="45.87415" lon="3.39545">
        <ele>362.6</ele>
        <time>2024-08-11T08:27:39Z</time>
      </trkpt>
      <trkpt lat="45.8741" lon="3.39547">
        <ele>362.8</ele>
        <time>2024-08-11T08:27:40Z</time>
      </trkpt>
      <trkpt lat="45.87405" lon="3.39548">
        <ele>362.8</ele>
        <time>2024-08-11T08:27:41Z</time>
      </trkpt>
      <trkpt lat="45.874" lon="3.3955">
        <ele>362.8</ele>
        <time>2024-08-11T08:27:42Z</time>
      </trkpt>
      <trkpt lat="45.87395" lon="3.39552">
        <ele>363</ele>
        <time>2024-08-11T08:27:43Z</time>
      </trkpt>
      <trkpt lat="45.8739" lon="3.39554">
        <ele>363</ele>
        <time>2024-08-11T08:27:44Z</time>
      </trkpt>
      <trkpt lat="45.87385" lon="3.39556">
        <ele>363.2</ele>
        <time>2024-08-11T08:27:45Z</time>
      </trkpt>
      <trkpt lat="45.8738" lon="3.39557">
        <ele>363.2</ele>
        <time>2024-08-11T08:27:46Z</time>
      </trkpt>
      <trkpt lat="45.87375" lon="3.39559">
        <ele>363.2</ele>
        <time>2024-08-11T08:27:47Z</time>
      </trkpt>
      <trkpt lat="45.8737" lon="3.39561">
        <ele>363.4</ele>
        <time>2024-08-11T08:27:48Z</time>
      </trkpt>
      <trkpt lat="45.87366" lon="3.39563">
        <ele>363.4</ele>
        <time>2024-08-11T08:27:49Z</time>
      </trkpt>
      <trkpt lat="45.87361" lon="3.39564">
        <ele>363.4</ele>
        <time>2024-08-11T08:27:50Z</time>
      </trkpt>
      <trkpt lat="45.87356" lon="3.39566">
        <ele>363.6</ele>
        <time>2024-08-11T08:27:51Z</time>
      </trkpt>
      <trkpt lat="45.87352" lon="3.39568">
        <ele>363.6</ele>
        <time>2024-08-11T08:27:52Z</time>
      </trkpt>
      <trkpt lat="45.87347" lon="3.3957">
        <ele>363.6</ele>
        <time>2024-08-11T08:27:53Z</time>
      </trkpt>
      <trkpt lat="45.87342" lon="3.39571">
        <ele>363.8</ele>
        <time>2024-08-11T08:27:54Z</time>
      </trkpt>
      <trkpt lat="45.87337" lon="3.39573">
        <ele>363.8</ele>
        <time>2024-08-11T08:27:55Z</time>
      </trkpt>
      <trkpt lat="45.87332" lon="3.39575">
        <ele>363.8</ele>
        <time>2024-08-11T08:27:56Z</time>
      </trkpt>
      <trkpt lat="45.87327" lon="3.39577">
        <ele>364</ele>
        <time>2024-08-11T08:27:57Z</time>
      </trkpt>
      <trkpt lat="45.87322" lon="3.39579">
        <ele>364</ele>
        <time>2024-08-11T08:27:58Z</time>
      </trkpt>
      <trkpt lat="45.87317" lon="3.39581">
        <ele>364.2</ele>
        <time>2024-08-11T08:27:59Z</time>
      </trkpt>
      <trkpt lat="45.87312" lon="3.39582">
        <ele>364.2</ele>
        <time>2024-08-11T08:28:00Z</time>
      </trkpt>
      <trkpt lat="45.87307" lon="3.39584">
        <ele>364.4</ele>
        <time>2024-08-11T08:28:01Z</time>
      </trkpt>
      <trkpt lat="45.87302" lon="3.39586">
        <ele>364.4</ele>
        <time>2024-08-11T08:28:02Z</time>
      </trkpt>
      <trkpt lat="45.87297" lon="3.39588">
        <ele>364.6</ele>
        <time>2024-08-11T08:28:03Z</time>
      </trkpt>
      <trkpt lat="45.87292" lon="3.3959">
        <ele>364.6</ele>
        <time>2024-08-11T08:28:04Z</time>
      </trkpt>
      <trkpt lat="45.87287" lon="3.39592">
        <ele>364.6</ele>
        <time>2024-08-11T08:28:05Z</time>
      </trkpt>
      <trkpt lat="45.87282" lon="3.39593">
        <ele>364.8</ele>
        <time>2024-08-11T08:28:06Z</time>
      </trkpt>
      <trkpt lat="45.87277" lon="3.39595">
        <ele>365</ele>
        <time>2024-08-11T08:28:07Z</time>
      </trkpt>
      <trkpt lat="45.87272" lon="3.39597">
        <ele>365</ele>
        <time>2024-08-11T08:28:08Z</time>
      </trkpt>
      <trkpt lat="45.87267" lon="3.39599">
        <ele>365</ele>
        <time>2024-08-11T08:28:09Z</time>
      </trkpt>
      <trkpt lat="45.87262" lon="3.396">
        <ele>365.2</ele>
        <time>2024-08-11T08:28:10Z</time>
      </trkpt>
      <trkpt lat="45.87257" lon="3.39602">
        <ele>365.2</ele>
        <time>2024-08-11T08:28:11Z</time>
      </trkpt>
      <trkpt lat="45.87252" lon="3.39604">
        <ele>365.2</ele>
        <time>2024-08-11T08:28:12Z</time>
      </trkpt>
      <trkpt lat="45.87247" lon="3.39606">
        <ele>365.4</ele>
        <time>2024-08-11T08:28:13Z</time>
      </trkpt>
      <trkpt lat="45.87242" lon="3.39608">
        <ele>365.4</ele>
        <time>2024-08-11T08:28:14Z</time>
      </trkpt>
      <trkpt lat="45.87237" lon="3.39609">
        <ele>365.6</ele>
        <time>2024-08-11T08:28:15Z</time>
      </trkpt>
      <trkpt lat="45.87233" lon="3.39611">
        <ele>365.6</ele>
        <time>2024-08-11T08:28:16Z</time>
      </trkpt>
      <trkpt lat="45.87228" lon="3.39613">
        <ele>365.6</ele>
        <time>2024-08-11T08:28:17Z</time>
      </trkpt>
      <trkpt lat="45.87223" lon="3.39615">
        <ele>365.8</ele>
        <time>2024-08-11T08:28:18Z</time>
      </trkpt>
      <trkpt lat="45.87218" lon="3.39617">
        <ele>365.8</ele>
        <time>2024-08-11T08:28:19Z</time>
      </trkpt>
      <trkpt lat="45.87213" lon="3.39618">
        <ele>365.8</ele>
        <time>2024-08-11T08:28:20Z</time>
      </trkpt>
      <trkpt lat="45.87208" lon="3.3962">
        <ele>366</ele>
        <time>2024-08-11T08:28:21Z</time>
      </trkpt>
      <trkpt lat="45.87203" lon="3.39622">
        <ele>366</ele>
        <time>2024-08-11T08:28:22Z</time>
      </trkpt>
      <trkpt lat="45.87199" lon="3.39624">
        <ele>366.2</ele>
        <time>2024-08-11T08:28:23Z</time>
      </trkpt>
      <trkpt lat="45.87194" lon="3.39625">
        <ele>366.2</ele>
        <time>2024-08-11T08:28:24Z</time>
      </trkpt>
      <trkpt lat="45.87189" lon="3.39627">
        <ele>366.2</ele>
        <time>2024-08-11T08:28:25Z</time>
      </trkpt>
      <trkpt lat="45.87184" lon="3.39629">
        <ele>366.4</ele>
        <time>2024-08-11T08:28:26Z</time>
      </trkpt>
      <trkpt lat="45.87179" lon="3.39631">
        <ele>366.4</ele>
        <time>2024-08-11T08:28:27Z</time>
      </trkpt>
      <trkpt lat="45.87174" lon="3.39633">
        <ele>366.4</ele>
        <time>2024-08-11T08:28:28Z</time>
      </trkpt>
      <trkpt lat="45.87169" lon="3.39634">
        <ele>366.6</ele>
        <time>2024-08-11T08:28:29Z</time>
      </trkpt>
      <trkpt lat="45.87164" lon="3.39636">
        <ele>366.6</ele>
        <time>2024-08-11T08:28:30Z</time>
      </trkpt>
      <trkpt lat="45.87159" lon="3.39638">
        <ele>366.8</ele>
        <time>2024-08-11T08:28:31Z</time>
      </trkpt>
      <trkpt lat="45.87155" lon="3.39639">
        <ele>366.8</ele>
        <time>2024-08-11T08:28:32Z</time>
      </trkpt>
      <trkpt lat="45.8715" lon="3.39641">
        <ele>367</ele>
        <time>2024-08-11T08:28:33Z</time>
      </trkpt>
      <trkpt lat="45.87145" lon="3.39642">
        <ele>367</ele>
        <time>2024-08-11T08:28:34Z</time>
      </trkpt>
      <trkpt lat="45.8714" lon="3.39644">
        <ele>367.2</ele>
        <time>2024-08-11T08:28:35Z</time>
      </trkpt>
      <trkpt lat="45.87136" lon="3.39646">
        <ele>367.4</ele>
        <time>2024-08-11T08:28:36Z</time>
      </trkpt>
      <trkpt lat="45.87131" lon="3.39648">
        <ele>367.4</ele>
        <time>2024-08-11T08:28:37Z</time>
      </trkpt>
      <trkpt lat="45.87126" lon="3.39649">
        <ele>367.4</ele>
        <time>2024-08-11T08:28:38Z</time>
      </trkpt>
      <trkpt lat="45.87121" lon="3.39651">
        <ele>367.6</ele>
        <time>2024-08-11T08:28:39Z</time>
      </trkpt>
      <trkpt lat="45.87116" lon="3.39653">
        <ele>367.6</ele>
        <time>2024-08-11T08:28:40Z</time>
      </trkpt>
      <trkpt lat="45.87111" lon="3.39655">
        <ele>367.6</ele>
        <time>2024-08-11T08:28:41Z</time>
      </trkpt>
      <trkpt lat="45.87106" lon="3.39656">
        <ele>367.8</ele>
        <time>2024-08-11T08:28:42Z</time>
      </trkpt>
      <trkpt lat="45.87101" lon="3.39658">
        <ele>367.8</ele>
        <time>2024-08-11T08:28:43Z</time>
      </trkpt>
      <trkpt lat="45.87096" lon="3.3966">
        <ele>368</ele>
        <time>2024-08-11T08:28:44Z</time>
      </trkpt>
      <trkpt lat="45.87091" lon="3.39662">
        <ele>368</ele>
        <time>2024-08-11T08:28:45Z</time>
      </trkpt>
      <trkpt lat="45.87086" lon="3.39664">
        <ele>368.2</ele>
        <time>2024-08-11T08:28:46Z</time>
      </trkpt>
      <trkpt lat="45.87081" lon="3.39665">
        <ele>368.2</ele>
        <time>2024-08-11T08:28:47Z</time>
      </trkpt>
      <trkpt lat="45.87076" lon="3.39667">
        <ele>368.2</ele>
        <time>2024-08-11T08:28:48Z</time>
      </trkpt>
      <trkpt lat="45.87071" lon="3.39669">
        <ele>368.4</ele>
        <time>2024-08-11T08:28:49Z</time>
      </trkpt>
      <trkpt lat="45.87065" lon="3.39671">
        <ele>368.4</ele>
        <time>2024-08-11T08:28:50Z</time>
      </trkpt>
      <trkpt lat="45.8706" lon="3.39673">
        <ele>368.4</ele>
        <time>2024-08-11T08:28:51Z</time>
      </trkpt>
      <trkpt lat="45.87055" lon="3.39674">
        <ele>368.6</ele>
        <time>2024-08-11T08:28:52Z</time>
      </trkpt>
      <trkpt lat="45.8705" lon="3.39676">
        <ele>368.6</ele>
        <time>2024-08-11T08:28:53Z</time>
      </trkpt>
      <trkpt lat="45.87045" lon="3.39678">
        <ele>368.8</ele>
        <time>2024-08-11T08:28:54Z</time>
      </trkpt>
      <trkpt lat="45.8704" lon="3.3968">
        <ele>368.8</ele>
        <time>2024-08-11T08:28:55Z</time>
      </trkpt>
      <trkpt lat="45.87035" lon="3.39682">
        <ele>368.8</ele>
        <time>2024-08-11T08:28:56Z</time>
      </trkpt>
      <trkpt lat="45.8703" lon="3.39684">
        <ele>369</ele>
        <time>2024-08-11T08:28:57Z</time>
      </trkpt>
      <trkpt lat="45.87025" lon="3.39685">
        <ele>369</ele>
        <time>2024-08-11T08:28:58Z</time>
      </trkpt>
      <trkpt lat="45.8702" lon="3.39687">
        <ele>369.2</ele>
        <time>2024-08-11T08:28:59Z</time>
      </trkpt>
      <trkpt lat="45.87015" lon="3.39689">
        <ele>369.2</ele>
        <time>2024-08-11T08:29:00Z</time>
      </trkpt>
      <trkpt lat="45.87009" lon="3.39691">
        <ele>369.2</ele>
        <time>2024-08-11T08:29:01Z</time>
      </trkpt>
      <trkpt lat="45.87004" lon="3.39693">
        <ele>369.4</ele>
        <time>2024-08-11T08:29:02Z</time>
      </trkpt>
      <trkpt lat="45.86999" lon="3.39694">
        <ele>369.4</ele>
        <time>2024-08-11T08:29:03Z</time>
      </trkpt>
      <trkpt lat="45.86994" lon="3.39696">
        <ele>369.6</ele>
        <time>2024-08-11T08:29:04Z</time>
      </trkpt>
      <trkpt lat="45.86989" lon="3.39698">
        <ele>369.6</ele>
        <time>2024-08-11T08:29:05Z</time>
      </trkpt>
      <trkpt lat="45.86984" lon="3.397">
        <ele>369.8</ele>
        <time>2024-08-11T08:29:06Z</time>
      </trkpt>
      <trkpt lat="45.86979" lon="3.39702">
        <ele>369.8</ele>
        <time>2024-08-11T08:29:07Z</time>
      </trkpt>
      <trkpt lat="45.86974" lon="3.39704">
        <ele>369.8</ele>
        <time>2024-08-11T08:29:08Z</time>
      </trkpt>
      <trkpt lat="45.86969" lon="3.39705">
        <ele>370</ele>
        <time>2024-08-11T08:29:09Z</time>
      </trkpt>
      <trkpt lat="45.86963" lon="3.39707">
        <ele>370</ele>
        <time>2024-08-11T08:29:10Z</time>
      </trkpt>
      <trkpt lat="45.86958" lon="3.39709">
        <ele>370</ele>
        <time>2024-08-11T08:29:11Z</time>
      </trkpt>
      <trkpt lat="45.86953" lon="3.39711">
        <ele>370.2</ele>
        <time>2024-08-11T08:29:12Z</time>
      </trkpt>
      <trkpt lat="45.86948" lon="3.39713">
        <ele>370.2</ele>
        <time>2024-08-11T08:29:13Z</time>
      </trkpt>
      <trkpt lat="45.86943" lon="3.39715">
        <ele>370.2</ele>
        <time>2024-08-11T08:29:14Z</time>
      </trkpt>
      <trkpt lat="45.86938" lon="3.39716">
        <ele>370.2</ele>
        <time>2024-08-11T08:29:15Z</time>
      </trkpt>
      <trkpt lat="45.86933" lon="3.39718">
        <ele>370.4</ele>
        <time>2024-08-11T08:29:16Z</time>
      </trkpt>
      <trkpt lat="45.86927" lon="3.3972">
        <ele>370.4</ele>
        <time>2024-08-11T08:29:17Z</time>
      </trkpt>
      <trkpt lat="45.86922" lon="3.39722">
        <ele>370.4</ele>
        <time>2024-08-11T08:29:18Z</time>
      </trkpt>
      <trkpt lat="45.86917" lon="3.39724">
        <ele>370.4</ele>
        <time>2024-08-11T08:29:19Z</time>
      </trkpt>
      <trkpt lat="45.86912" lon="3.39726">
        <ele>370.6</ele>
        <time>2024-08-11T08:29:20Z</time>
      </trkpt>
      <trkpt lat="45.86907" lon="3.39727">
        <ele>370.6</ele>
        <time>2024-08-11T08:29:21Z</time>
      </trkpt>
      <trkpt lat="45.86902" lon="3.39729">
        <ele>370.8</ele>
        <time>2024-08-11T08:29:22Z</time>
      </trkpt>
      <trkpt lat="45.86897" lon="3.39731">
        <ele>370.8</ele>
        <time>2024-08-11T08:29:23Z</time>
      </trkpt>
      <trkpt lat="45.86892" lon="3.39733">
        <ele>370.8</ele>
        <time>2024-08-11T08:29:24Z</time>
      </trkpt>
      <trkpt lat="45.86887" lon="3.39735">
        <ele>370.8</ele>
        <time>2024-08-11T08:29:25Z</time>
      </trkpt>
      <trkpt lat="45.86881" lon="3.39736">
        <ele>371</ele>
        <time>2024-08-11T08:29:26Z</time>
      </trkpt>
      <trkpt lat="45.86877" lon="3.39738">
        <ele>371</ele>
        <time>2024-08-11T08:29:27Z</time>
      </trkpt>
      <trkpt lat="45.86872" lon="3.3974">
        <ele>371.2</ele>
        <time>2024-08-11T08:29:28Z</time>
      </trkpt>
      <trkpt lat="45.86867" lon="3.39742">
        <ele>371.2</ele>
        <time>2024-08-11T08:29:29Z</time>
      </trkpt>
      <trkpt lat="45.86862" lon="3.39743">
        <ele>371.4</ele>
        <time>2024-08-11T08:29:30Z</time>
      </trkpt>
      <trkpt lat="45.86857" lon="3.39745">
        <ele>371.4</ele>
        <time>2024-08-11T08:29:31Z</time>
      </trkpt>
      <trkpt lat="45.86852" lon="3.39747">
        <ele>371.4</ele>
        <time>2024-08-11T08:29:32Z</time>
      </trkpt>
      <trkpt lat="45.86848" lon="3.39749">
        <ele>371.6</ele>
        <time>2024-08-11T08:29:33Z</time>
      </trkpt>
      <trkpt lat="45.86842" lon="3.3975">
        <ele>371.6</ele>
        <time>2024-08-11T08:29:34Z</time>
      </trkpt>
      <trkpt lat="45.86838" lon="3.39752">
        <ele>371.6</ele>
        <time>2024-08-11T08:29:35Z</time>
      </trkpt>
      <trkpt lat="45.86833" lon="3.39754">
        <ele>371.8</ele>
        <time>2024-08-11T08:29:36Z</time>
      </trkpt>
      <trkpt lat="45.86828" lon="3.39756">
        <ele>371.8</ele>
        <time>2024-08-11T08:29:37Z</time>
      </trkpt>
      <trkpt lat="45.86823" lon="3.39757">
        <ele>371.8</ele>
        <time>2024-08-11T08:29:38Z</time>
      </trkpt>
      <trkpt lat="45.86818" lon="3.39759">
        <ele>372</ele>
        <time>2024-08-11T08:29:39Z</time>
      </trkpt>
      <trkpt lat="45.86813" lon="3.39761">
        <ele>372</ele>
        <time>2024-08-11T08:29:40Z</time>
      </trkpt>
      <trkpt lat="45.86809" lon="3.39762">
        <ele>372.2</ele>
        <time>2024-08-11T08:29:41Z</time>
      </trkpt>
      <trkpt lat="45.86804" lon="3.39764">
        <ele>372.2</ele>
        <time>2024-08-11T08:29:42Z</time>
      </trkpt>
      <trkpt lat="45.86799" lon="3.39766">
        <ele>372.2</ele>
        <time>2024-08-11T08:29:43Z</time>
      </trkpt>
      <trkpt lat="45.86795" lon="3.39767">
        <ele>372.4</ele>
        <time>2024-08-11T08:29:44Z</time>
      </trkpt>
      <trkpt lat="45.8679" lon="3.39769">
        <ele>372.4</ele>
        <time>2024-08-11T08:29:45Z</time>
      </trkpt>
      <trkpt lat="45.86786" lon="3.39771">
        <ele>372.4</ele>
        <time>2024-08-11T08:29:46Z</time>
      </trkpt>
      <trkpt lat="45.86781" lon="3.39772">
        <ele>372.6</ele>
        <time>2024-08-11T08:29:47Z</time>
      </trkpt>
      <trkpt lat="45.86776" lon="3.39774">
        <ele>372.6</ele>
        <time>2024-08-11T08:29:48Z</time>
      </trkpt>
      <trkpt lat="45.86772" lon="3.39774">
        <ele>372.8</ele>
        <time>2024-08-11T08:29:49Z</time>
      </trkpt>
      <trkpt lat="45.86767" lon="3.39774">
        <ele>373</ele>
        <time>2024-08-11T08:29:50Z</time>
      </trkpt>
      <trkpt lat="45.86763" lon="3.39774">
        <ele>373</ele>
        <time>2024-08-11T08:29:51Z</time>
      </trkpt>
      <trkpt lat="45.86758" lon="3.39774">
        <ele>373.2</ele>
        <time>2024-08-11T08:29:52Z</time>
      </trkpt>
      <trkpt lat="45.86754" lon="3.39775">
        <ele>373.2</ele>
        <time>2024-08-11T08:29:53Z</time>
      </trkpt>
      <trkpt lat="45.8675" lon="3.39775">
        <ele>373.2</ele>
        <time>2024-08-11T08:29:54Z</time>
      </trkpt>
      <trkpt lat="45.86745" lon="3.39775">
        <ele>373.4</ele>
        <time>2024-08-11T08:29:55Z</time>
      </trkpt>
      <trkpt lat="45.86741" lon="3.39775">
        <ele>373.4</ele>
        <time>2024-08-11T08:29:56Z</time>
      </trkpt>
      <trkpt lat="45.86737" lon="3.39775">
        <ele>373.4</ele>
        <time>2024-08-11T08:29:57Z</time>
      </trkpt>
      <trkpt lat="45.86732" lon="3.39776">
        <ele>373.6</ele>
        <time>2024-08-11T08:29:58Z</time>
      </trkpt>
      <trkpt lat="45.86728" lon="3.39776">
        <ele>373.8</ele>
        <time>2024-08-11T08:29:59Z</time>
      </trkpt>
      <trkpt lat="45.86723" lon="3.39775">
        <ele>373.8</ele>
        <time>2024-08-11T08:30:00Z</time>
      </trkpt>
      <trkpt lat="45.86719" lon="3.39775">
        <ele>374</ele>
        <time>2024-08-11T08:30:01Z</time>
      </trkpt>
      <trkpt lat="45.86714" lon="3.39774">
        <ele>374</ele>
        <time>2024-08-11T08:30:02Z</time>
      </trkpt>
      <trkpt lat="45.8671" lon="3.39773">
        <ele>374</ele>
        <time>2024-08-11T08:30:03Z</time>
      </trkpt>
      <trkpt lat="45.86706" lon="3.39772">
        <ele>374.2</ele>
        <time>2024-08-11T08:30:04Z</time>
      </trkpt>
      <trkpt lat="45.86701" lon="3.39771">
        <ele>374.2</ele>
        <time>2024-08-11T08:30:05Z</time>
      </trkpt>
      <trkpt lat="45.86697" lon="3.3977">
        <ele>374.4</ele>
        <time>2024-08-11T08:30:06Z</time>
      </trkpt>
      <trkpt lat="45.86692" lon="3.39769">
        <ele>374.4</ele>
        <time>2024-08-11T08:30:07Z</time>
      </trkpt>
      <trkpt lat="45.86688" lon="3.39768">
        <ele>374.6</ele>
        <time>2024-08-11T08:30:08Z</time>
      </trkpt>
      <trkpt lat="45.86683" lon="3.39767">
        <ele>374.6</ele>
        <time>2024-08-11T08:30:09Z</time>
      </trkpt>
      <trkpt lat="45.86679" lon="3.39766">
        <ele>374.8</ele>
        <time>2024-08-11T08:30:10Z</time>
      </trkpt>
      <trkpt lat="45.86675" lon="3.39765">
        <ele>374.8</ele>
        <time>2024-08-11T08:30:11Z</time>
      </trkpt>
      <trkpt lat="45.86671" lon="3.39764">
        <ele>374.8</ele>
        <time>2024-08-11T08:30:12Z</time>
      </trkpt>
      <trkpt lat="45.86667" lon="3.39763">
        <ele>375</ele>
        <time>2024-08-11T08:30:13Z</time>
      </trkpt>
      <trkpt lat="45.86663" lon="3.39762">
        <ele>375</ele>
        <time>2024-08-11T08:30:14Z</time>
      </trkpt>
      <trkpt lat="45.86659" lon="3.39761">
        <ele>375.2</ele>
        <time>2024-08-11T08:30:15Z</time>
      </trkpt>
      <trkpt lat="45.86655" lon="3.3976">
        <ele>375.4</ele>
        <time>2024-08-11T08:30:16Z</time>
      </trkpt>
      <trkpt lat="45.86651" lon="3.39758">
        <ele>375.4</ele>
        <time>2024-08-11T08:30:17Z</time>
      </trkpt>
      <trkpt lat="45.86647" lon="3.39757">
        <ele>375.6</ele>
        <time>2024-08-11T08:30:18Z</time>
      </trkpt>
      <trkpt lat="45.86642" lon="3.39755">
        <ele>375.6</ele>
        <time>2024-08-11T08:30:19Z</time>
      </trkpt>
      <trkpt lat="45.86638" lon="3.39753">
        <ele>375.8</ele>
        <time>2024-08-11T08:30:20Z</time>
      </trkpt>
      <trkpt lat="45.86634" lon="3.39751">
        <ele>375.8</ele>
        <time>2024-08-11T08:30:21Z</time>
      </trkpt>
      <trkpt lat="45.8663" lon="3.39748">
        <ele>376</ele>
        <time>2024-08-11T08:30:22Z</time>
      </trkpt>
      <trkpt lat="45.86626" lon="3.39746">
        <ele>376</ele>
        <time>2024-08-11T08:30:23Z</time>
      </trkpt>
      <trkpt lat="45.86622" lon="3.39744">
        <ele>376.2</ele>
        <time>2024-08-11T08:30:24Z</time>
      </trkpt>
      <trkpt lat="45.86618" lon="3.39742">
        <ele>376.2</ele>
        <time>2024-08-11T08:30:25Z</time>
      </trkpt>
      <trkpt lat="45.86614" lon="3.39739">
        <ele>376.4</ele>
        <time>2024-08-11T08:30:26Z</time>
      </trkpt>
      <trkpt lat="45.8661" lon="3.39737">
        <ele>376.4</ele>
        <time>2024-08-11T08:30:27Z</time>
      </trkpt>
      <trkpt lat="45.86605" lon="3.39735">
        <ele>376.4</ele>
        <time>2024-08-11T08:30:28Z</time>
      </trkpt>
      <trkpt lat="45.86601" lon="3.39732">
        <ele>376.6</ele>
        <time>2024-08-11T08:30:29Z</time>
      </trkpt>
      <trkpt lat="45.86597" lon="3.3973">
        <ele>376.6</ele>
        <time>2024-08-11T08:30:30Z</time>
      </trkpt>
      <trkpt lat="45.86593" lon="3.39727">
        <ele>376.6</ele>
        <time>2024-08-11T08:30:31Z</time>
      </trkpt>
      <trkpt lat="45.86588" lon="3.39725">
        <ele>376.6</ele>
        <time>2024-08-11T08:30:32Z</time>
      </trkpt>
      <trkpt lat="45.86584" lon="3.39723">
        <ele>376.8</ele>
        <time>2024-08-11T08:30:33Z</time>
      </trkpt>
      <trkpt lat="45.8658" lon="3.3972">
        <ele>376.8</ele>
        <time>2024-08-11T08:30:34Z</time>
      </trkpt>
      <trkpt lat="45.86576" lon="3.39718">
        <ele>376.8</ele>
        <time>2024-08-11T08:30:35Z</time>
      </trkpt>
      <trkpt lat="45.86571" lon="3.39715">
        <ele>377</ele>
        <time>2024-08-11T08:30:36Z</time>
      </trkpt>
      <trkpt lat="45.86567" lon="3.39713">
        <ele>377</ele>
        <time>2024-08-11T08:30:37Z</time>
      </trkpt>
      <trkpt lat="45.86563" lon="3.3971">
        <ele>377.2</ele>
        <time>2024-08-11T08:30:38Z</time>
      </trkpt>
      <trkpt lat="45.86558" lon="3.39708">
        <ele>377.2</ele>
        <time>2024-08-11T08:30:39Z</time>
      </trkpt>
      <trkpt lat="45.86553" lon="3.39705">
        <ele>377.4</ele>
        <time>2024-08-11T08:30:40Z</time>
      </trkpt>
      <trkpt lat="45.86549" lon="3.39702">
        <ele>377.4</ele>
        <time>2024-08-11T08:30:41Z</time>
      </trkpt>
      <trkpt lat="45.86544" lon="3.397">
        <ele>377.4</ele>
        <time>2024-08-11T08:30:42Z</time>
      </trkpt>
      <trkpt lat="45.86539" lon="3.39697">
        <ele>377.4</ele>
        <time>2024-08-11T08:30:43Z</time>
      </trkpt>
      <trkpt lat="45.86534" lon="3.39694">
        <ele>377.4</ele>
        <time>2024-08-11T08:30:44Z</time>
      </trkpt>
      <trkpt lat="45.8653" lon="3.39692">
        <ele>377.4</ele>
        <time>2024-08-11T08:30:45Z</time>
      </trkpt>
      <trkpt lat="45.86525" lon="3.39689">
        <ele>377.4</ele>
        <time>2024-08-11T08:30:46Z</time>
      </trkpt>
      <trkpt lat="45.86521" lon="3.39686">
        <ele>377.4</ele>
        <time>2024-08-11T08:30:47Z</time>
      </trkpt>
      <trkpt lat="45.86516" lon="3.39684">
        <ele>377.4</ele>
        <time>2024-08-11T08:30:48Z</time>
      </trkpt>
      <trkpt lat="45.86511" lon="3.39681">
        <ele>377.4</ele>
        <time>2024-08-11T08:30:49Z</time>
      </trkpt>
      <trkpt lat="45.86506" lon="3.39678">
        <ele>377.4</ele>
        <time>2024-08-11T08:30:50Z</time>
      </trkpt>
      <trkpt lat="45.86501" lon="3.39675">
        <ele>377.4</ele>
        <time>2024-08-11T08:30:51Z</time>
      </trkpt>
      <trkpt lat="45.86496" lon="3.39672">
        <ele>377.4</ele>
        <time>2024-08-11T08:30:52Z</time>
      </trkpt>
      <trkpt lat="45.8649" lon="3.39669">
        <ele>377.4</ele>
        <time>2024-08-11T08:30:53Z</time>
      </trkpt>
      <trkpt lat="45.86485" lon="3.39666">
        <ele>377.6</ele>
        <time>2024-08-11T08:30:54Z</time>
      </trkpt>
      <trkpt lat="45.8648" lon="3.39663">
        <ele>377.6</ele>
        <time>2024-08-11T08:30:55Z</time>
      </trkpt>
      <trkpt lat="45.86474" lon="3.3966">
        <ele>377.6</ele>
        <time>2024-08-11T08:30:56Z</time>
      </trkpt>
      <trkpt lat="45.86469" lon="3.39657">
        <ele>377.6</ele>
        <time>2024-08-11T08:30:57Z</time>
      </trkpt>
      <trkpt lat="45.86463" lon="3.39654">
        <ele>377.6</ele>
        <time>2024-08-11T08:30:58Z</time>
      </trkpt>
      <trkpt lat="45.86457" lon="3.39651">
        <ele>377.6</ele>
        <time>2024-08-11T08:30:59Z</time>
      </trkpt>
      <trkpt lat="45.86452" lon="3.39647">
        <ele>377.8</ele>
        <time>2024-08-11T08:31:00Z</time>
      </trkpt>
      <trkpt lat="45.86446" lon="3.39644">
        <ele>377.8</ele>
        <time>2024-08-11T08:31:01Z</time>
      </trkpt>
      <trkpt lat="45.8644" lon="3.39641">
        <ele>377.8</ele>
        <time>2024-08-11T08:31:02Z</time>
      </trkpt>
      <trkpt lat="45.86434" lon="3.39637">
        <ele>377.8</ele>
        <time>2024-08-11T08:31:03Z</time>
      </trkpt>
      <trkpt lat="45.86428" lon="3.39634">
        <ele>377.8</ele>
        <time>2024-08-11T08:31:04Z</time>
      </trkpt>
      <trkpt lat="45.86422" lon="3.3963">
        <ele>378</ele>
        <time>2024-08-11T08:31:05Z</time>
      </trkpt>
      <trkpt lat="45.86416" lon="3.39627">
        <ele>378</ele>
        <time>2024-08-11T08:31:06Z</time>
      </trkpt>
      <trkpt lat="45.8641" lon="3.39624">
        <ele>378</ele>
        <time>2024-08-11T08:31:07Z</time>
      </trkpt>
      <trkpt lat="45.86404" lon="3.3962">
        <ele>378</ele>
        <time>2024-08-11T08:31:08Z</time>
      </trkpt>
      <trkpt lat="45.86398" lon="3.39617">
        <ele>378</ele>
        <time>2024-08-11T08:31:09Z</time>
      </trkpt>
      <trkpt lat="45.86392" lon="3.39613">
        <ele>378</ele>
        <time>2024-08-11T08:31:10Z</time>
      </trkpt>
      <trkpt lat="45.86386" lon="3.3961">
        <ele>378</ele>
        <time>2024-08-11T08:31:11Z</time>
      </trkpt>
      <trkpt lat="45.8638" lon="3.39607">
        <ele>378</ele>
        <time>2024-08-11T08:31:12Z</time>
      </trkpt>
      <trkpt lat="45.86374" lon="3.39603">
        <ele>378</ele>
        <time>2024-08-11T08:31:13Z</time>
      </trkpt>
      <trkpt lat="45.86368" lon="3.396">
        <ele>378</ele>
        <time>2024-08-11T08:31:14Z</time>
      </trkpt>
      <trkpt lat="45.86362" lon="3.39596">
        <ele>377.8</ele>
        <time>2024-08-11T08:31:15Z</time>
      </trkpt>
      <trkpt lat="45.86355" lon="3.39593">
        <ele>378</ele>
        <time>2024-08-11T08:31:16Z</time>
      </trkpt>
      <trkpt lat="45.8635" lon="3.39589">
        <ele>378</ele>
        <time>2024-08-11T08:31:17Z</time>
      </trkpt>
      <trkpt lat="45.86343" lon="3.39586">
        <ele>378</ele>
        <time>2024-08-11T08:31:18Z</time>
      </trkpt>
      <trkpt lat="45.86337" lon="3.39582">
        <ele>378</ele>
        <time>2024-08-11T08:31:19Z</time>
      </trkpt>
      <trkpt lat="45.86332" lon="3.39579">
        <ele>378</ele>
        <time>2024-08-11T08:31:20Z</time>
      </trkpt>
      <trkpt lat="45.86326" lon="3.39576">
        <ele>378</ele>
        <time>2024-08-11T08:31:21Z</time>
      </trkpt>
      <trkpt lat="45.8632" lon="3.39572">
        <ele>378</ele>
        <time>2024-08-11T08:31:22Z</time>
      </trkpt>
      <trkpt lat="45.86314" lon="3.39569">
        <ele>378</ele>
        <time>2024-08-11T08:31:23Z</time>
      </trkpt>
      <trkpt lat="45.86308" lon="3.39566">
        <ele>378.2</ele>
        <time>2024-08-11T08:31:24Z</time>
      </trkpt>
      <trkpt lat="45.86302" lon="3.39563">
        <ele>378.2</ele>
        <time>2024-08-11T08:31:25Z</time>
      </trkpt>
      <trkpt lat="45.86296" lon="3.3956">
        <ele>378.2</ele>
        <time>2024-08-11T08:31:26Z</time>
      </trkpt>
      <trkpt lat="45.8629" lon="3.39557">
        <ele>378.2</ele>
        <time>2024-08-11T08:31:27Z</time>
      </trkpt>
      <trkpt lat="45.86284" lon="3.39553">
        <ele>378.2</ele>
        <time>2024-08-11T08:31:28Z</time>
      </trkpt>
      <trkpt lat="45.86278" lon="3.3955">
        <ele>378.2</ele>
        <time>2024-08-11T08:31:29Z</time>
      </trkpt>
      <trkpt lat="45.86272" lon="3.39547">
        <ele>378.2</ele>
        <time>2024-08-11T08:31:30Z</time>
      </trkpt>
      <trkpt lat="45.86266" lon="3.39544">
        <ele>378.2</ele>
        <time>2024-08-11T08:31:31Z</time>
      </trkpt>
      <trkpt lat="45.8626" lon="3.39541">
        <ele>378.4</ele>
        <time>2024-08-11T08:31:32Z</time>
      </trkpt>
      <trkpt lat="45.86254" lon="3.39538">
        <ele>378.4</ele>
        <time>2024-08-11T08:31:33Z</time>
      </trkpt>
      <trkpt lat="45.86249" lon="3.39535">
        <ele>378.4</ele>
        <time>2024-08-11T08:31:34Z</time>
      </trkpt>
      <trkpt lat="45.86243" lon="3.39532">
        <ele>378.4</ele>
        <time>2024-08-11T08:31:35Z</time>
      </trkpt>
      <trkpt lat="45.86237" lon="3.39529">
        <ele>378.4</ele>
        <time>2024-08-11T08:31:36Z</time>
      </trkpt>
      <trkpt lat="45.86232" lon="3.39526">
        <ele>378.4</ele>
        <time>2024-08-11T08:31:37Z</time>
      </trkpt>
      <trkpt lat="45.86226" lon="3.39523">
        <ele>378.4</ele>
        <time>2024-08-11T08:31:38Z</time>
      </trkpt>
      <trkpt lat="45.8622" lon="3.39519">
        <ele>378.4</ele>
        <time>2024-08-11T08:31:39Z</time>
      </trkpt>
      <trkpt lat="45.86214" lon="3.39516">
        <ele>378.4</ele>
        <time>2024-08-11T08:31:40Z</time>
      </trkpt>
      <trkpt lat="45.86208" lon="3.39513">
        <ele>378.4</ele>
        <time>2024-08-11T08:31:41Z</time>
      </trkpt>
      <trkpt lat="45.86202" lon="3.3951">
        <ele>378.4</ele>
        <time>2024-08-11T08:31:42Z</time>
      </trkpt>
      <trkpt lat="45.86197" lon="3.39507">
        <ele>378.4</ele>
        <time>2024-08-11T08:31:43Z</time>
      </trkpt>
      <trkpt lat="45.86191" lon="3.39504">
        <ele>378.4</ele>
        <time>2024-08-11T08:31:44Z</time>
      </trkpt>
      <trkpt lat="45.86186" lon="3.39501">
        <ele>378.4</ele>
        <time>2024-08-11T08:31:45Z</time>
      </trkpt>
      <trkpt lat="45.8618" lon="3.39498">
        <ele>378.2</ele>
        <time>2024-08-11T08:31:46Z</time>
      </trkpt>
      <trkpt lat="45.86174" lon="3.39495">
        <ele>378.2</ele>
        <time>2024-08-11T08:31:47Z</time>
      </trkpt>
      <trkpt lat="45.86169" lon="3.39492">
        <ele>378.2</ele>
        <time>2024-08-11T08:31:48Z</time>
      </trkpt>
      <trkpt lat="45.86163" lon="3.3949">
        <ele>378.2</ele>
        <time>2024-08-11T08:31:49Z</time>
      </trkpt>
      <trkpt lat="45.86157" lon="3.39487">
        <ele>378.4</ele>
        <time>2024-08-11T08:31:50Z</time>
      </trkpt>
      <trkpt lat="45.86152" lon="3.39484">
        <ele>378.4</ele>
        <time>2024-08-11T08:31:51Z</time>
      </trkpt>
      <trkpt lat="45.86146" lon="3.39481">
        <ele>378.4</ele>
        <time>2024-08-11T08:31:52Z</time>
      </trkpt>
      <trkpt lat="45.8614" lon="3.39479">
        <ele>378.4</ele>
        <time>2024-08-11T08:31:53Z</time>
      </trkpt>
      <trkpt lat="45.86134" lon="3.39476">
        <ele>378.4</ele>
        <time>2024-08-11T08:31:54Z</time>
      </trkpt>
      <trkpt lat="45.86128" lon="3.39474">
        <ele>378.4</ele>
        <time>2024-08-11T08:31:55Z</time>
      </trkpt>
      <trkpt lat="45.86122" lon="3.39471">
        <ele>378.4</ele>
        <time>2024-08-11T08:31:56Z</time>
      </trkpt>
      <trkpt lat="45.86117" lon="3.39469">
        <ele>378.4</ele>
        <time>2024-08-11T08:31:57Z</time>
      </trkpt>
      <trkpt lat="45.86111" lon="3.39467">
        <ele>378.4</ele>
        <time>2024-08-11T08:31:58Z</time>
      </trkpt>
      <trkpt lat="45.86105" lon="3.39464">
        <ele>378.4</ele>
        <time>2024-08-11T08:31:59Z</time>
      </trkpt>
      <trkpt lat="45.861" lon="3.39462">
        <ele>378.4</ele>
        <time>2024-08-11T08:32:00Z</time>
      </trkpt>
      <trkpt lat="45.86094" lon="3.39459">
        <ele>378.4</ele>
        <time>2024-08-11T08:32:01Z</time>
      </trkpt>
      <trkpt lat="45.86089" lon="3.39457">
        <ele>378.4</ele>
        <time>2024-08-11T08:32:02Z</time>
      </trkpt>
      <trkpt lat="45.86083" lon="3.39455">
        <ele>378.4</ele>
        <time>2024-08-11T08:32:03Z</time>
      </trkpt>
      <trkpt lat="45.86077" lon="3.39452">
        <ele>378.6</ele>
        <time>2024-08-11T08:32:04Z</time>
      </trkpt>
      <trkpt lat="45.86072" lon="3.3945">
        <ele>378.6</ele>
        <time>2024-08-11T08:32:05Z</time>
      </trkpt>
      <trkpt lat="45.86066" lon="3.39448">
        <ele>378.6</ele>
        <time>2024-08-11T08:32:06Z</time>
      </trkpt>
      <trkpt lat="45.86061" lon="3.39445">
        <ele>378.6</ele>
        <time>2024-08-11T08:32:07Z</time>
      </trkpt>
      <trkpt lat="45.86055" lon="3.39443">
        <ele>378.6</ele>
        <time>2024-08-11T08:32:08Z</time>
      </trkpt>
      <trkpt lat="45.86049" lon="3.3944">
        <ele>378.6</ele>
        <time>2024-08-11T08:32:09Z</time>
      </trkpt>
      <trkpt lat="45.86043" lon="3.39438">
        <ele>378.6</ele>
        <time>2024-08-11T08:32:10Z</time>
      </trkpt>
      <trkpt lat="45.86037" lon="3.39436">
        <ele>378.6</ele>
        <time>2024-08-11T08:32:11Z</time>
      </trkpt>
      <trkpt lat="45.86031" lon="3.39433">
        <ele>378.6</ele>
        <time>2024-08-11T08:32:12Z</time>
      </trkpt>
      <trkpt lat="45.86026" lon="3.39431">
        <ele>378.6</ele>
        <time>2024-08-11T08:32:13Z</time>
      </trkpt>
      <trkpt lat="45.86019" lon="3.39428">
        <ele>378.6</ele>
        <time>2024-08-11T08:32:14Z</time>
      </trkpt>
      <trkpt lat="45.86013" lon="3.39426">
        <ele>378.8</ele>
        <time>2024-08-11T08:32:15Z</time>
      </trkpt>
      <trkpt lat="45.86007" lon="3.39423">
        <ele>378.8</ele>
        <time>2024-08-11T08:32:16Z</time>
      </trkpt>
      <trkpt lat="45.86002" lon="3.39421">
        <ele>379</ele>
        <time>2024-08-11T08:32:17Z</time>
      </trkpt>
      <trkpt lat="45.85996" lon="3.39418">
        <ele>379</ele>
        <time>2024-08-11T08:32:18Z</time>
      </trkpt>
      <trkpt lat="45.8599" lon="3.39416">
        <ele>379</ele>
        <time>2024-08-11T08:32:19Z</time>
      </trkpt>
      <trkpt lat="45.85984" lon="3.39413">
        <ele>379</ele>
        <time>2024-08-11T08:32:20Z</time>
      </trkpt>
      <trkpt lat="45.85978" lon="3.39411">
        <ele>379.2</ele>
        <time>2024-08-11T08:32:21Z</time>
      </trkpt>
      <trkpt lat="45.85973" lon="3.39408">
        <ele>379.2</ele>
        <time>2024-08-11T08:32:22Z</time>
      </trkpt>
      <trkpt lat="45.85967" lon="3.39406">
        <ele>379.2</ele>
        <time>2024-08-11T08:32:23Z</time>
      </trkpt>
      <trkpt lat="45.85961" lon="3.39404">
        <ele>379.4</ele>
        <time>2024-08-11T08:32:24Z</time>
      </trkpt>
      <trkpt lat="45.85955" lon="3.39401">
        <ele>379.4</ele>
        <time>2024-08-11T08:32:25Z</time>
      </trkpt>
      <trkpt lat="45.85949" lon="3.39399">
        <ele>379.4</ele>
        <time>2024-08-11T08:32:26Z</time>
      </trkpt>
      <trkpt lat="45.85944" lon="3.39396">
        <ele>379.6</ele>
        <time>2024-08-11T08:32:27Z</time>
      </trkpt>
      <trkpt lat="45.85938" lon="3.39394">
        <ele>379.6</ele>
        <time>2024-08-11T08:32:28Z</time>
      </trkpt>
      <trkpt lat="45.85932" lon="3.39392">
        <ele>379.6</ele>
        <time>2024-08-11T08:32:29Z</time>
      </trkpt>
      <trkpt lat="45.85927" lon="3.3939">
        <ele>379.8</ele>
        <time>2024-08-11T08:32:30Z</time>
      </trkpt>
      <trkpt lat="45.85921" lon="3.39387">
        <ele>379.8</ele>
        <time>2024-08-11T08:32:31Z</time>
      </trkpt>
      <trkpt lat="45.85915" lon="3.39385">
        <ele>379.8</ele>
        <time>2024-08-11T08:32:32Z</time>
      </trkpt>
      <trkpt lat="45.85909" lon="3.39382">
        <ele>379.8</ele>
        <time>2024-08-11T08:32:33Z</time>
      </trkpt>
      <trkpt lat="45.85903" lon="3.3938">
        <ele>379.8</ele>
        <time>2024-08-11T08:32:34Z</time>
      </trkpt>
      <trkpt lat="45.85897" lon="3.39378">
        <ele>380</ele>
        <time>2024-08-11T08:32:35Z</time>
      </trkpt>
      <trkpt lat="45.85891" lon="3.39375">
        <ele>379.8</ele>
        <time>2024-08-11T08:32:36Z</time>
      </trkpt>
      <trkpt lat="45.85885" lon="3.39373">
        <ele>380</ele>
        <time>2024-08-11T08:32:37Z</time>
      </trkpt>
      <trkpt lat="45.85879" lon="3.3937">
        <ele>380</ele>
        <time>2024-08-11T08:32:38Z</time>
      </trkpt>
      <trkpt lat="45.85873" lon="3.39368">
        <ele>380</ele>
        <time>2024-08-11T08:32:39Z</time>
      </trkpt>
      <trkpt lat="45.85867" lon="3.39366">
        <ele>380</ele>
        <time>2024-08-11T08:32:40Z</time>
      </trkpt>
      <trkpt lat="45.85862" lon="3.39363">
        <ele>380.2</ele>
        <time>2024-08-11T08:32:41Z</time>
      </trkpt>
      <trkpt lat="45.85856" lon="3.39361">
        <ele>380.2</ele>
        <time>2024-08-11T08:32:42Z</time>
      </trkpt>
      <trkpt lat="45.8585" lon="3.39359">
        <ele>380.2</ele>
        <time>2024-08-11T08:32:43Z</time>
      </trkpt>
      <trkpt lat="45.85844" lon="3.39356">
        <ele>380.2</ele>
        <time>2024-08-11T08:32:44Z</time>
      </trkpt>
      <trkpt lat="45.85838" lon="3.39354">
        <ele>380.2</ele>
        <time>2024-08-11T08:32:45Z</time>
      </trkpt>
      <trkpt lat="45.85833" lon="3.39352">
        <ele>380.4</ele>
        <time>2024-08-11T08:32:46Z</time>
      </trkpt>
      <trkpt lat="45.85827" lon="3.39349">
        <ele>380.4</ele>
        <time>2024-08-11T08:32:47Z</time>
      </trkpt>
      <trkpt lat="45.85822" lon="3.39347">
        <ele>380.4</ele>
        <time>2024-08-11T08:32:48Z</time>
      </trkpt>
      <trkpt lat="45.85816" lon="3.39345">
        <ele>380.4</ele>
        <time>2024-08-11T08:32:49Z</time>
      </trkpt>
      <trkpt lat="45.85811" lon="3.39343">
        <ele>380.4</ele>
        <time>2024-08-11T08:32:50Z</time>
      </trkpt>
      <trkpt lat="45.85806" lon="3.39341">
        <ele>380.4</ele>
        <time>2024-08-11T08:32:51Z</time>
      </trkpt>
      <trkpt lat="45.85801" lon="3.39339">
        <ele>380.6</ele>
        <time>2024-08-11T08:32:52Z</time>
      </trkpt>
      <trkpt lat="45.85796" lon="3.39337">
        <ele>380.6</ele>
        <time>2024-08-11T08:32:53Z</time>
      </trkpt>
      <trkpt lat="45.8579" lon="3.39334">
        <ele>380.6</ele>
        <time>2024-08-11T08:32:54Z</time>
      </trkpt>
      <trkpt lat="45.85785" lon="3.39332">
        <ele>380.6</ele>
        <time>2024-08-11T08:32:55Z</time>
      </trkpt>
      <trkpt lat="45.8578" lon="3.3933">
        <ele>380.8</ele>
        <time>2024-08-11T08:32:56Z</time>
      </trkpt>
      <trkpt lat="45.85774" lon="3.39328">
        <ele>380.8</ele>
        <time>2024-08-11T08:32:57Z</time>
      </trkpt>
      <trkpt lat="45.85769" lon="3.39326">
        <ele>380.8</ele>
        <time>2024-08-11T08:32:58Z</time>
      </trkpt>
      <trkpt lat="45.85764" lon="3.39324">
        <ele>380.8</ele>
        <time>2024-08-11T08:32:59Z</time>
      </trkpt>
      <trkpt lat="45.85758" lon="3.39321">
        <ele>380.8</ele>
        <time>2024-08-11T08:33:00Z</time>
      </trkpt>
      <trkpt lat="45.85753" lon="3.39319">
        <ele>380.8</ele>
        <time>2024-08-11T08:33:01Z</time>
      </trkpt>
      <trkpt lat="45.85748" lon="3.39317">
        <ele>380.8</ele>
        <time>2024-08-11T08:33:02Z</time>
      </trkpt>
      <trkpt lat="45.85742" lon="3.39315">
        <ele>381</ele>
        <time>2024-08-11T08:33:03Z</time>
      </trkpt>
      <trkpt lat="45.85737" lon="3.39313">
        <ele>381</ele>
        <time>2024-08-11T08:33:04Z</time>
      </trkpt>
      <trkpt lat="45.85732" lon="3.39311">
        <ele>381</ele>
        <time>2024-08-11T08:33:05Z</time>
      </trkpt>
      <trkpt lat="45.85726" lon="3.39308">
        <ele>381</ele>
        <time>2024-08-11T08:33:06Z</time>
      </trkpt>
      <trkpt lat="45.85721" lon="3.39306">
        <ele>381.2</ele>
        <time>2024-08-11T08:33:07Z</time>
      </trkpt>
      <trkpt lat="45.85715" lon="3.39304">
        <ele>381.2</ele>
        <time>2024-08-11T08:33:08Z</time>
      </trkpt>
      <trkpt lat="45.8571" lon="3.39302">
        <ele>381.2</ele>
        <time>2024-08-11T08:33:09Z</time>
      </trkpt>
      <trkpt lat="45.85705" lon="3.393">
        <ele>381.2</ele>
        <time>2024-08-11T08:33:10Z</time>
      </trkpt>
      <trkpt lat="45.857" lon="3.39298">
        <ele>381.4</ele>
        <time>2024-08-11T08:33:11Z</time>
      </trkpt>
      <trkpt lat="45.85695" lon="3.39296">
        <ele>381.4</ele>
        <time>2024-08-11T08:33:12Z</time>
      </trkpt>
      <trkpt lat="45.8569" lon="3.39294">
        <ele>381.4</ele>
        <time>2024-08-11T08:33:13Z</time>
      </trkpt>
      <trkpt lat="45.85685" lon="3.39292">
        <ele>381.4</ele>
        <time>2024-08-11T08:33:14Z</time>
      </trkpt>
      <trkpt lat="45.85681" lon="3.3929">
        <ele>381.4</ele>
        <time>2024-08-11T08:33:15Z</time>
      </trkpt>
      <trkpt lat="45.85676" lon="3.39288">
        <ele>381.4</ele>
        <time>2024-08-11T08:33:16Z</time>
      </trkpt>
      <trkpt lat="45.85671" lon="3.39286">
        <ele>381.4</ele>
        <time>2024-08-11T08:33:17Z</time>
      </trkpt>
      <trkpt lat="45.85666" lon="3.39284">
        <ele>381.4</ele>
        <time>2024-08-11T08:33:18Z</time>
      </trkpt>
      <trkpt lat="45.85661" lon="3.39282">
        <ele>381.4</ele>
        <time>2024-08-11T08:33:19Z</time>
      </trkpt>
      <trkpt lat="45.85656" lon="3.3928">
        <ele>381.4</ele>
        <time>2024-08-11T08:33:20Z</time>
      </trkpt>
      <trkpt lat="45.85651" lon="3.39278">
        <ele>381.4</ele>
        <time>2024-08-11T08:33:21Z</time>
      </trkpt>
      <trkpt lat="45.85646" lon="3.39276">
        <ele>381.4</ele>
        <time>2024-08-11T08:33:22Z</time>
      </trkpt>
      <trkpt lat="45.85641" lon="3.39274">
        <ele>381.4</ele>
        <time>2024-08-11T08:33:23Z</time>
      </trkpt>
      <trkpt lat="45.85637" lon="3.39272">
        <ele>381.6</ele>
        <time>2024-08-11T08:33:24Z</time>
      </trkpt>
      <trkpt lat="45.85632" lon="3.3927">
        <ele>381.6</ele>
        <time>2024-08-11T08:33:25Z</time>
      </trkpt>
      <trkpt lat="45.85627" lon="3.39268">
        <ele>381.6</ele>
        <time>2024-08-11T08:33:26Z</time>
      </trkpt>
      <trkpt lat="45.85623" lon="3.39267">
        <ele>381.8</ele>
        <time>2024-08-11T08:33:27Z</time>
      </trkpt>
      <trkpt lat="45.85618" lon="3.39265">
        <ele>381.8</ele>
        <time>2024-08-11T08:33:28Z</time>
      </trkpt>
      <trkpt lat="45.85613" lon="3.39263">
        <ele>381.8</ele>
        <time>2024-08-11T08:33:29Z</time>
      </trkpt>
      <trkpt lat="45.85608" lon="3.39262">
        <ele>382</ele>
        <time>2024-08-11T08:33:30Z</time>
      </trkpt>
      <trkpt lat="45.85604" lon="3.3926">
        <ele>382</ele>
        <time>2024-08-11T08:33:31Z</time>
      </trkpt>
      <trkpt lat="45.85599" lon="3.39258">
        <ele>382.2</ele>
        <time>2024-08-11T08:33:32Z</time>
      </trkpt>
      <trkpt lat="45.85595" lon="3.39257">
        <ele>382.2</ele>
        <time>2024-08-11T08:33:33Z</time>
      </trkpt>
      <trkpt lat="45.8559" lon="3.39255">
        <ele>382.2</ele>
        <time>2024-08-11T08:33:34Z</time>
      </trkpt>
      <trkpt lat="45.85585" lon="3.39254">
        <ele>382.2</ele>
        <time>2024-08-11T08:33:35Z</time>
      </trkpt>
      <trkpt lat="45.85581" lon="3.39252">
        <ele>382.4</ele>
        <time>2024-08-11T08:33:36Z</time>
      </trkpt>
      <trkpt lat="45.85576" lon="3.39251">
        <ele>382.4</ele>
        <time>2024-08-11T08:33:37Z</time>
      </trkpt>
      <trkpt lat="45.85572" lon="3.39249">
        <ele>382.4</ele>
        <time>2024-08-11T08:33:38Z</time>
      </trkpt>
      <trkpt lat="45.85568" lon="3.39248">
        <ele>382.4</ele>
        <time>2024-08-11T08:33:39Z</time>
      </trkpt>
      <trkpt lat="45.85564" lon="3.39246">
        <ele>382.6</ele>
        <time>2024-08-11T08:33:40Z</time>
      </trkpt>
      <trkpt lat="45.85559" lon="3.39245">
        <ele>382.6</ele>
        <time>2024-08-11T08:33:41Z</time>
      </trkpt>
      <trkpt lat="45.85555" lon="3.39245">
        <ele>382.6</ele>
        <time>2024-08-11T08:33:42Z</time>
      </trkpt>
      <trkpt lat="45.8555" lon="3.39244">
        <ele>382.6</ele>
        <time>2024-08-11T08:33:43Z</time>
      </trkpt>
      <trkpt lat="45.85546" lon="3.39244">
        <ele>382.6</ele>
        <time>2024-08-11T08:33:44Z</time>
      </trkpt>
      <trkpt lat="45.85542" lon="3.39243">
        <ele>382.6</ele>
        <time>2024-08-11T08:33:45Z</time>
      </trkpt>
      <trkpt lat="45.85537" lon="3.39242">
        <ele>382.6</ele>
        <time>2024-08-11T08:33:46Z</time>
      </trkpt>
      <trkpt lat="45.85533" lon="3.39242">
        <ele>382.8</ele>
        <time>2024-08-11T08:33:47Z</time>
      </trkpt>
      <trkpt lat="45.85528" lon="3.39241">
        <ele>382.8</ele>
        <time>2024-08-11T08:33:48Z</time>
      </trkpt>
      <trkpt lat="45.85523" lon="3.3924">
        <ele>383</ele>
        <time>2024-08-11T08:33:49Z</time>
      </trkpt>
      <trkpt lat="45.85519" lon="3.3924">
        <ele>383</ele>
        <time>2024-08-11T08:33:50Z</time>
      </trkpt>
      <trkpt lat="45.85514" lon="3.39239">
        <ele>383</ele>
        <time>2024-08-11T08:33:51Z</time>
      </trkpt>
      <trkpt lat="45.8551" lon="3.39238">
        <ele>383</ele>
        <time>2024-08-11T08:33:52Z</time>
      </trkpt>
      <trkpt lat="45.85505" lon="3.39238">
        <ele>383</ele>
        <time>2024-08-11T08:33:53Z</time>
      </trkpt>
      <trkpt lat="45.855" lon="3.39237">
        <ele>383</ele>
        <time>2024-08-11T08:33:54Z</time>
      </trkpt>
      <trkpt lat="45.85495" lon="3.39236">
        <ele>383</ele>
        <time>2024-08-11T08:33:55Z</time>
      </trkpt>
      <trkpt lat="45.8549" lon="3.39236">
        <ele>383.2</ele>
        <time>2024-08-11T08:33:56Z</time>
      </trkpt>
      <trkpt lat="45.85485" lon="3.39235">
        <ele>383.2</ele>
        <time>2024-08-11T08:33:57Z</time>
      </trkpt>
      <trkpt lat="45.8548" lon="3.39234">
        <ele>383.2</ele>
        <time>2024-08-11T08:33:58Z</time>
      </trkpt>
      <trkpt lat="45.85476" lon="3.39234">
        <ele>383.2</ele>
        <time>2024-08-11T08:33:59Z</time>
      </trkpt>
      <trkpt lat="45.8547" lon="3.39233">
        <ele>383.4</ele>
        <time>2024-08-11T08:34:00Z</time>
      </trkpt>
      <trkpt lat="45.85465" lon="3.39232">
        <ele>383.4</ele>
        <time>2024-08-11T08:34:01Z</time>
      </trkpt>
      <trkpt lat="45.8546" lon="3.39231">
        <ele>383.4</ele>
        <time>2024-08-11T08:34:02Z</time>
      </trkpt>
      <trkpt lat="45.85455" lon="3.39231">
        <ele>383.6</ele>
        <time>2024-08-11T08:34:03Z</time>
      </trkpt>
      <trkpt lat="45.85449" lon="3.3923">
        <ele>383.6</ele>
        <time>2024-08-11T08:34:04Z</time>
      </trkpt>
      <trkpt lat="45.85444" lon="3.39229">
        <ele>383.6</ele>
        <time>2024-08-11T08:34:05Z</time>
      </trkpt>
      <trkpt lat="45.85438" lon="3.39229">
        <ele>383.6</ele>
        <time>2024-08-11T08:34:06Z</time>
      </trkpt>
      <trkpt lat="45.85433" lon="3.3923">
        <ele>383.6</ele>
        <time>2024-08-11T08:34:07Z</time>
      </trkpt>
      <trkpt lat="45.85428" lon="3.39231">
        <ele>383.6</ele>
        <time>2024-08-11T08:34:08Z</time>
      </trkpt>
      <trkpt lat="45.85423" lon="3.39232">
        <ele>383.8</ele>
        <time>2024-08-11T08:34:09Z</time>
      </trkpt>
      <trkpt lat="45.85417" lon="3.39233">
        <ele>383.8</ele>
        <time>2024-08-11T08:34:10Z</time>
      </trkpt>
      <trkpt lat="45.85412" lon="3.39234">
        <ele>383.8</ele>
        <time>2024-08-11T08:34:11Z</time>
      </trkpt>
      <trkpt lat="45.85407" lon="3.39234">
        <ele>384</ele>
        <time>2024-08-11T08:34:12Z</time>
      </trkpt>
      <trkpt lat="45.85402" lon="3.39235">
        <ele>384</ele>
        <time>2024-08-11T08:34:13Z</time>
      </trkpt>
      <trkpt lat="45.85397" lon="3.39236">
        <ele>384</ele>
        <time>2024-08-11T08:34:14Z</time>
      </trkpt>
      <trkpt lat="45.85392" lon="3.39237">
        <ele>384</ele>
        <time>2024-08-11T08:34:15Z</time>
      </trkpt>
      <trkpt lat="45.85387" lon="3.39238">
        <ele>384</ele>
        <time>2024-08-11T08:34:16Z</time>
      </trkpt>
      <trkpt lat="45.85381" lon="3.39239">
        <ele>384</ele>
        <time>2024-08-11T08:34:17Z</time>
      </trkpt>
      <trkpt lat="45.85376" lon="3.3924">
        <ele>384</ele>
        <time>2024-08-11T08:34:18Z</time>
      </trkpt>
      <trkpt lat="45.85371" lon="3.39241">
        <ele>384</ele>
        <time>2024-08-11T08:34:19Z</time>
      </trkpt>
      <trkpt lat="45.85365" lon="3.39242">
        <ele>384</ele>
        <time>2024-08-11T08:34:20Z</time>
      </trkpt>
      <trkpt lat="45.8536" lon="3.39243">
        <ele>384</ele>
        <time>2024-08-11T08:34:21Z</time>
      </trkpt>
      <trkpt lat="45.85354" lon="3.39244">
        <ele>384</ele>
        <time>2024-08-11T08:34:22Z</time>
      </trkpt>
      <trkpt lat="45.85349" lon="3.39245">
        <ele>384</ele>
        <time>2024-08-11T08:34:23Z</time>
      </trkpt>
      <trkpt lat="45.85343" lon="3.39246">
        <ele>384</ele>
        <time>2024-08-11T08:34:24Z</time>
      </trkpt>
      <trkpt lat="45.85338" lon="3.39247">
        <ele>384</ele>
        <time>2024-08-11T08:34:25Z</time>
      </trkpt>
      <trkpt lat="45.85333" lon="3.39248">
        <ele>384</ele>
        <time>2024-08-11T08:34:26Z</time>
      </trkpt>
      <trkpt lat="45.85328" lon="3.39249">
        <ele>384.2</ele>
        <time>2024-08-11T08:34:27Z</time>
      </trkpt>
      <trkpt lat="45.85323" lon="3.39249">
        <ele>384.2</ele>
        <time>2024-08-11T08:34:28Z</time>
      </trkpt>
      <trkpt lat="45.85318" lon="3.3925">
        <ele>384.2</ele>
        <time>2024-08-11T08:34:29Z</time>
      </trkpt>
      <trkpt lat="45.85313" lon="3.39251">
        <ele>384.4</ele>
        <time>2024-08-11T08:34:30Z</time>
      </trkpt>
      <trkpt lat="45.85307" lon="3.39252">
        <ele>384.4</ele>
        <time>2024-08-11T08:34:31Z</time>
      </trkpt>
      <trkpt lat="45.85302" lon="3.39253">
        <ele>384.4</ele>
        <time>2024-08-11T08:34:32Z</time>
      </trkpt>
      <trkpt lat="45.85297" lon="3.39254">
        <ele>384.4</ele>
        <time>2024-08-11T08:34:33Z</time>
      </trkpt>
      <trkpt lat="45.85291" lon="3.39255">
        <ele>384.4</ele>
        <time>2024-08-11T08:34:34Z</time>
      </trkpt>
      <trkpt lat="45.85286" lon="3.39256">
        <ele>384.4</ele>
        <time>2024-08-11T08:34:35Z</time>
      </trkpt>
      <trkpt lat="45.85281" lon="3.39257">
        <ele>384.4</ele>
        <time>2024-08-11T08:34:36Z</time>
      </trkpt>
      <trkpt lat="45.85276" lon="3.39258">
        <ele>384.4</ele>
        <time>2024-08-11T08:34:37Z</time>
      </trkpt>
      <trkpt lat="45.85271" lon="3.3926">
        <ele>384.6</ele>
        <time>2024-08-11T08:34:38Z</time>
      </trkpt>
      <trkpt lat="45.85265" lon="3.39261">
        <ele>384.6</ele>
        <time>2024-08-11T08:34:39Z</time>
      </trkpt>
      <trkpt lat="45.8526" lon="3.39262">
        <ele>384.8</ele>
        <time>2024-08-11T08:34:40Z</time>
      </trkpt>
      <trkpt lat="45.85255" lon="3.39263">
        <ele>385</ele>
        <time>2024-08-11T08:34:41Z</time>
      </trkpt>
      <trkpt lat="45.85249" lon="3.39263">
        <ele>385</ele>
        <time>2024-08-11T08:34:42Z</time>
      </trkpt>
      <trkpt lat="45.85244" lon="3.39264">
        <ele>385.2</ele>
        <time>2024-08-11T08:34:43Z</time>
      </trkpt>
      <trkpt lat="45.85238" lon="3.39265">
        <ele>385.2</ele>
        <time>2024-08-11T08:34:44Z</time>
      </trkpt>
      <trkpt lat="45.85233" lon="3.39266">
        <ele>385.4</ele>
        <time>2024-08-11T08:34:45Z</time>
      </trkpt>
      <trkpt lat="45.85227" lon="3.39266">
        <ele>385.4</ele>
        <time>2024-08-11T08:34:46Z</time>
      </trkpt>
      <trkpt lat="45.85222" lon="3.39267">
        <ele>385.6</ele>
        <time>2024-08-11T08:34:47Z</time>
      </trkpt>
      <trkpt lat="45.85216" lon="3.39268">
        <ele>385.6</ele>
        <time>2024-08-11T08:34:48Z</time>
      </trkpt>
      <trkpt lat="45.85211" lon="3.39268">
        <ele>385.8</ele>
        <time>2024-08-11T08:34:49Z</time>
      </trkpt>
      <trkpt lat="45.85205" lon="3.39269">
        <ele>385.8</ele>
        <time>2024-08-11T08:34:50Z</time>
      </trkpt>
      <trkpt lat="45.852" lon="3.39269">
        <ele>386</ele>
        <time>2024-08-11T08:34:51Z</time>
      </trkpt>
      <trkpt lat="45.85195" lon="3.39269">
        <ele>386</ele>
        <time>2024-08-11T08:34:52Z</time>
      </trkpt>
      <trkpt lat="45.85189" lon="3.3927">
        <ele>386.2</ele>
        <time>2024-08-11T08:34:53Z</time>
      </trkpt>
      <trkpt lat="45.85184" lon="3.3927">
        <ele>386.2</ele>
        <time>2024-08-11T08:34:54Z</time>
      </trkpt>
      <trkpt lat="45.85178" lon="3.39271">
        <ele>386.4</ele>
        <time>2024-08-11T08:34:55Z</time>
      </trkpt>
      <trkpt lat="45.85173" lon="3.39271">
        <ele>386.4</ele>
        <time>2024-08-11T08:34:56Z</time>
      </trkpt>
      <trkpt lat="45.85167" lon="3.39272">
        <ele>386.6</ele>
        <time>2024-08-11T08:34:57Z</time>
      </trkpt>
      <trkpt lat="45.85162" lon="3.39272">
        <ele>386.6</ele>
        <time>2024-08-11T08:34:58Z</time>
      </trkpt>
      <trkpt lat="45.85156" lon="3.39272">
        <ele>386.6</ele>
        <time>2024-08-11T08:34:59Z</time>
      </trkpt>
      <trkpt lat="45.85151" lon="3.39273">
        <ele>386.8</ele>
        <time>2024-08-11T08:35:00Z</time>
      </trkpt>
      <trkpt lat="45.85146" lon="3.39273">
        <ele>386.8</ele>
        <time>2024-08-11T08:35:01Z</time>
      </trkpt>
      <trkpt lat="45.8514" lon="3.39274">
        <ele>386.8</ele>
        <time>2024-08-11T08:35:02Z</time>
      </trkpt>
      <trkpt lat="45.85135" lon="3.39274">
        <ele>387</ele>
        <time>2024-08-11T08:35:03Z</time>
      </trkpt>
      <trkpt lat="45.8513" lon="3.39274">
        <ele>387</ele>
        <time>2024-08-11T08:35:04Z</time>
      </trkpt>
      <trkpt lat="45.85124" lon="3.39275">
        <ele>387.2</ele>
        <time>2024-08-11T08:35:05Z</time>
      </trkpt>
      <trkpt lat="45.85119" lon="3.39275">
        <ele>387.2</ele>
        <time>2024-08-11T08:35:06Z</time>
      </trkpt>
      <trkpt lat="45.85113" lon="3.39276">
        <ele>387.2</ele>
        <time>2024-08-11T08:35:07Z</time>
      </trkpt>
      <trkpt lat="45.85108" lon="3.39276">
        <ele>387.4</ele>
        <time>2024-08-11T08:35:08Z</time>
      </trkpt>
      <trkpt lat="45.85102" lon="3.39276">
        <ele>387.6</ele>
        <time>2024-08-11T08:35:09Z</time>
      </trkpt>
      <trkpt lat="45.85097" lon="3.39277">
        <ele>387.6</ele>
        <time>2024-08-11T08:35:10Z</time>
      </trkpt>
      <trkpt lat="45.85091" lon="3.39277">
        <ele>387.8</ele>
        <time>2024-08-11T08:35:11Z</time>
      </trkpt>
      <trkpt lat="45.85086" lon="3.39278">
        <ele>387.8</ele>
        <time>2024-08-11T08:35:12Z</time>
      </trkpt>
      <trkpt lat="45.8508" lon="3.39278">
        <ele>388</ele>
        <time>2024-08-11T08:35:13Z</time>
      </trkpt>
      <trkpt lat="45.85074" lon="3.39278">
        <ele>388</ele>
        <time>2024-08-11T08:35:14Z</time>
      </trkpt>
      <trkpt lat="45.85068" lon="3.39277">
        <ele>388.2</ele>
        <time>2024-08-11T08:35:15Z</time>
      </trkpt>
      <trkpt lat="45.85063" lon="3.39277">
        <ele>388.2</ele>
        <time>2024-08-11T08:35:16Z</time>
      </trkpt>
      <trkpt lat="45.85057" lon="3.39277">
        <ele>388.2</ele>
        <time>2024-08-11T08:35:17Z</time>
      </trkpt>
      <trkpt lat="45.85051" lon="3.39277">
        <ele>388.4</ele>
        <time>2024-08-11T08:35:18Z</time>
      </trkpt>
      <trkpt lat="45.85045" lon="3.39277">
        <ele>388.4</ele>
        <time>2024-08-11T08:35:19Z</time>
      </trkpt>
      <trkpt lat="45.85039" lon="3.39276">
        <ele>388.6</ele>
        <time>2024-08-11T08:35:20Z</time>
      </trkpt>
      <trkpt lat="45.85033" lon="3.39276">
        <ele>388.6</ele>
        <time>2024-08-11T08:35:21Z</time>
      </trkpt>
      <trkpt lat="45.85027" lon="3.39276">
        <ele>388.8</ele>
        <time>2024-08-11T08:35:22Z</time>
      </trkpt>
      <trkpt lat="45.85021" lon="3.39276">
        <ele>388.8</ele>
        <time>2024-08-11T08:35:23Z</time>
      </trkpt>
      <trkpt lat="45.85015" lon="3.39275">
        <ele>388.8</ele>
        <time>2024-08-11T08:35:24Z</time>
      </trkpt>
      <trkpt lat="45.85009" lon="3.39275">
        <ele>388.8</ele>
        <time>2024-08-11T08:35:25Z</time>
      </trkpt>
      <trkpt lat="45.85003" lon="3.39275">
        <ele>389</ele>
        <time>2024-08-11T08:35:26Z</time>
      </trkpt>
      <trkpt lat="45.84997" lon="3.39275">
        <ele>389</ele>
        <time>2024-08-11T08:35:27Z</time>
      </trkpt>
      <trkpt lat="45.8499" lon="3.39275">
        <ele>389</ele>
        <time>2024-08-11T08:35:28Z</time>
      </trkpt>
      <trkpt lat="45.84984" lon="3.39274">
        <ele>389</ele>
        <time>2024-08-11T08:35:29Z</time>
      </trkpt>
      <trkpt lat="45.84977" lon="3.39274">
        <ele>389.2</ele>
        <time>2024-08-11T08:35:30Z</time>
      </trkpt>
      <trkpt lat="45.8497" lon="3.39274">
        <ele>389.2</ele>
        <time>2024-08-11T08:35:31Z</time>
      </trkpt>
      <trkpt lat="45.84964" lon="3.39274">
        <ele>389.2</ele>
        <time>2024-08-11T08:35:32Z</time>
      </trkpt>
      <trkpt lat="45.84957" lon="3.39273">
        <ele>389.4</ele>
        <time>2024-08-11T08:35:33Z</time>
      </trkpt>
      <trkpt lat="45.84951" lon="3.39273">
        <ele>389.4</ele>
        <time>2024-08-11T08:35:34Z</time>
      </trkpt>
      <trkpt lat="45.84944" lon="3.39273">
        <ele>389.4</ele>
        <time>2024-08-11T08:35:35Z</time>
      </trkpt>
      <trkpt lat="45.84938" lon="3.39273">
        <ele>389.4</ele>
        <time>2024-08-11T08:35:36Z</time>
      </trkpt>
      <trkpt lat="45.84931" lon="3.39272">
        <ele>389.4</ele>
        <time>2024-08-11T08:35:37Z</time>
      </trkpt>
      <trkpt lat="45.84925" lon="3.39272">
        <ele>389.4</ele>
        <time>2024-08-11T08:35:38Z</time>
      </trkpt>
      <trkpt lat="45.84918" lon="3.39272">
        <ele>389.4</ele>
        <time>2024-08-11T08:35:39Z</time>
      </trkpt>
      <trkpt lat="45.84912" lon="3.39272">
        <ele>389.6</ele>
        <time>2024-08-11T08:35:40Z</time>
      </trkpt>
      <trkpt lat="45.84905" lon="3.39271">
        <ele>389.6</ele>
        <time>2024-08-11T08:35:41Z</time>
      </trkpt>
      <trkpt lat="45.84898" lon="3.39271">
        <ele>389.6</ele>
        <time>2024-08-11T08:35:42Z</time>
      </trkpt>
      <trkpt lat="45.84892" lon="3.3927">
        <ele>389.6</ele>
        <time>2024-08-11T08:35:43Z</time>
      </trkpt>
      <trkpt lat="45.84886" lon="3.39269">
        <ele>389.8</ele>
        <time>2024-08-11T08:35:44Z</time>
      </trkpt>
      <trkpt lat="45.8488" lon="3.39269">
        <ele>389.8</ele>
        <time>2024-08-11T08:35:45Z</time>
      </trkpt>
      <trkpt lat="45.84873" lon="3.39268">
        <ele>389.8</ele>
        <time>2024-08-11T08:35:46Z</time>
      </trkpt>
      <trkpt lat="45.84867" lon="3.39268">
        <ele>389.8</ele>
        <time>2024-08-11T08:35:47Z</time>
      </trkpt>
      <trkpt lat="45.8486" lon="3.39267">
        <ele>390</ele>
        <time>2024-08-11T08:35:48Z</time>
      </trkpt>
      <trkpt lat="45.84854" lon="3.39266">
        <ele>390</ele>
        <time>2024-08-11T08:35:49Z</time>
      </trkpt>
      <trkpt lat="45.84847" lon="3.39265">
        <ele>390</ele>
        <time>2024-08-11T08:35:50Z</time>
      </trkpt>
      <trkpt lat="45.8484" lon="3.39264">
        <ele>390</ele>
        <time>2024-08-11T08:35:51Z</time>
      </trkpt>
      <trkpt lat="45.84834" lon="3.39262">
        <ele>390.2</ele>
        <time>2024-08-11T08:35:52Z</time>
      </trkpt>
      <trkpt lat="45.84827" lon="3.39261">
        <ele>390.2</ele>
        <time>2024-08-11T08:35:53Z</time>
      </trkpt>
      <trkpt lat="45.8482" lon="3.3926">
        <ele>390.4</ele>
        <time>2024-08-11T08:35:54Z</time>
      </trkpt>
      <trkpt lat="45.84814" lon="3.39259">
        <ele>390.4</ele>
        <time>2024-08-11T08:35:55Z</time>
      </trkpt>
      <trkpt lat="45.84807" lon="3.39251">
        <ele>390.4</ele>
        <time>2024-08-11T08:35:56Z</time>
      </trkpt>
      <trkpt lat="45.84799" lon="3.39246">
        <ele>390.4</ele>
        <time>2024-08-11T08:35:57Z</time>
      </trkpt>
      <trkpt lat="45.84792" lon="3.39248">
        <ele>390.6</ele>
        <time>2024-08-11T08:35:58Z</time>
      </trkpt>
      <trkpt lat="45.84785" lon="3.39255">
        <ele>390.6</ele>
        <time>2024-08-11T08:35:59Z</time>
      </trkpt>
      <trkpt lat="45.84778" lon="3.39259">
        <ele>390.8</ele>
        <time>2024-08-11T08:36:00Z</time>
      </trkpt>
      <trkpt lat="45.84771" lon="3.39263">
        <ele>390.8</ele>
        <time>2024-08-11T08:36:01Z</time>
      </trkpt>
      <trkpt lat="45.84763" lon="3.39264">
        <ele>390.8</ele>
        <time>2024-08-11T08:36:02Z</time>
      </trkpt>
      <trkpt lat="45.84755" lon="3.39266">
        <ele>390.8</ele>
        <time>2024-08-11T08:36:03Z</time>
      </trkpt>
      <trkpt lat="45.84747" lon="3.39267">
        <ele>390.8</ele>
        <time>2024-08-11T08:36:04Z</time>
      </trkpt>
      <trkpt lat="45.84739" lon="3.39269">
        <ele>391</ele>
        <time>2024-08-11T08:36:05Z</time>
      </trkpt>
      <trkpt lat="45.84731" lon="3.39269">
        <ele>391</ele>
        <time>2024-08-11T08:36:06Z</time>
      </trkpt>
      <trkpt lat="45.84723" lon="3.39269">
        <ele>391</ele>
        <time>2024-08-11T08:36:07Z</time>
      </trkpt>
      <trkpt lat="45.84714" lon="3.39269">
        <ele>391</ele>
        <time>2024-08-11T08:36:08Z</time>
      </trkpt>
      <trkpt lat="45.84706" lon="3.39269">
        <ele>391.2</ele>
        <time>2024-08-11T08:36:09Z</time>
      </trkpt>
      <trkpt lat="45.84697" lon="3.39269">
        <ele>391.2</ele>
        <time>2024-08-11T08:36:10Z</time>
      </trkpt>
      <trkpt lat="45.84689" lon="3.39269">
        <ele>391.2</ele>
        <time>2024-08-11T08:36:11Z</time>
      </trkpt>
      <trkpt lat="45.84681" lon="3.39269">
        <ele>391.2</ele>
        <time>2024-08-11T08:36:12Z</time>
      </trkpt>
      <trkpt lat="45.84673" lon="3.39269">
        <ele>391.2</ele>
        <time>2024-08-11T08:36:13Z</time>
      </trkpt>
      <trkpt lat="45.84665" lon="3.39269">
        <ele>391.2</ele>
        <time>2024-08-11T08:36:14Z</time>
      </trkpt>
      <trkpt lat="45.84656" lon="3.39269">
        <ele>391.2</ele>
        <time>2024-08-11T08:36:15Z</time>
      </trkpt>
      <trkpt lat="45.84648" lon="3.39269">
        <ele>391.2</ele>
        <time>2024-08-11T08:36:16Z</time>
      </trkpt>
      <trkpt lat="45.8464" lon="3.39269">
        <ele>391.2</ele>
        <time>2024-08-11T08:36:17Z</time>
      </trkpt>
      <trkpt lat="45.84632" lon="3.39269">
        <ele>391.2</ele>
        <time>2024-08-11T08:36:18Z</time>
      </trkpt>
      <trkpt lat="45.84624" lon="3.39269">
        <ele>391.4</ele>
        <time>2024-08-11T08:36:19Z</time>
      </trkpt>
      <trkpt lat="45.84616" lon="3.39269">
        <ele>391.4</ele>
        <time>2024-08-11T08:36:20Z</time>
      </trkpt>
      <trkpt lat="45.84608" lon="3.39269">
        <ele>391.4</ele>
        <time>2024-08-11T08:36:21Z</time>
      </trkpt>
      <trkpt lat="45.846" lon="3.39269">
        <ele>391.4</ele>
        <time>2024-08-11T08:36:22Z</time>
      </trkpt>
      <trkpt lat="45.84592" lon="3.39269">
        <ele>391.4</ele>
        <time>2024-08-11T08:36:23Z</time>
      </trkpt>
      <trkpt lat="45.84584" lon="3.39269">
        <ele>391.4</ele>
        <time>2024-08-11T08:36:24Z</time>
      </trkpt>
      <trkpt lat="45.84576" lon="3.39269">
        <ele>391.4</ele>
        <time>2024-08-11T08:36:25Z</time>
      </trkpt>
      <trkpt lat="45.84568" lon="3.39269">
        <ele>391.4</ele>
        <time>2024-08-11T08:36:26Z</time>
      </trkpt>
      <trkpt lat="45.84559" lon="3.39269">
        <ele>391.4</ele>
        <time>2024-08-11T08:36:27Z</time>
      </trkpt>
      <trkpt lat="45.84551" lon="3.39269">
        <ele>391.4</ele>
        <time>2024-08-11T08:36:28Z</time>
      </trkpt>
      <trkpt lat="45.84543" lon="3.39269">
        <ele>391.4</ele>
        <time>2024-08-11T08:36:29Z</time>
      </trkpt>
      <trkpt lat="45.84534" lon="3.39269">
        <ele>391.4</ele>
        <time>2024-08-11T08:36:30Z</time>
      </trkpt>
      <trkpt lat="45.84526" lon="3.39269">
        <ele>391.4</ele>
        <time>2024-08-11T08:36:31Z</time>
      </trkpt>
      <trkpt lat="45.84518" lon="3.39269">
        <ele>391.4</ele>
        <time>2024-08-11T08:36:32Z</time>
      </trkpt>
      <trkpt lat="45.8451" lon="3.39269">
        <ele>391.4</ele>
        <time>2024-08-11T08:36:33Z</time>
      </trkpt>
      <trkpt lat="45.84502" lon="3.39269">
        <ele>391.6</ele>
        <time>2024-08-11T08:36:34Z</time>
      </trkpt>
      <trkpt lat="45.84494" lon="3.39269">
        <ele>391.6</ele>
        <time>2024-08-11T08:36:35Z</time>
      </trkpt>
      <trkpt lat="45.84486" lon="3.39269">
        <ele>391.6</ele>
        <time>2024-08-11T08:36:36Z</time>
      </trkpt>
      <trkpt lat="45.84478" lon="3.39269">
        <ele>391.8</ele>
        <time>2024-08-11T08:36:37Z</time>
      </trkpt>
      <trkpt lat="45.8447" lon="3.39269">
        <ele>391.8</ele>
        <time>2024-08-11T08:36:38Z</time>
      </trkpt>
      <trkpt lat="45.84463" lon="3.39269">
        <ele>391.8</ele>
        <time>2024-08-11T08:36:39Z</time>
      </trkpt>
      <trkpt lat="45.84455" lon="3.39269">
        <ele>391.8</ele>
        <time>2024-08-11T08:36:40Z</time>
      </trkpt>
      <trkpt lat="45.84446" lon="3.39269">
        <ele>391.8</ele>
        <time>2024-08-11T08:36:41Z</time>
      </trkpt>
      <trkpt lat="45.84438" lon="3.39269">
        <ele>391.8</ele>
        <time>2024-08-11T08:36:42Z</time>
      </trkpt>
      <trkpt lat="45.84431" lon="3.39269">
        <ele>391.8</ele>
        <time>2024-08-11T08:36:43Z</time>
      </trkpt>
      <trkpt lat="45.84423" lon="3.39269">
        <ele>391.8</ele>
        <time>2024-08-11T08:36:44Z</time>
      </trkpt>
      <trkpt lat="45.84415" lon="3.39269">
        <ele>391.8</ele>
        <time>2024-08-11T08:36:45Z</time>
      </trkpt>
      <trkpt lat="45.84407" lon="3.39269">
        <ele>391.8</ele>
        <time>2024-08-11T08:36:46Z</time>
      </trkpt>
      <trkpt lat="45.84399" lon="3.39269">
        <ele>391.8</ele>
        <time>2024-08-11T08:36:47Z</time>
      </trkpt>
      <trkpt lat="45.84391" lon="3.39269">
        <ele>391.8</ele>
        <time>2024-08-11T08:36:48Z</time>
      </trkpt>
      <trkpt lat="45.84383" lon="3.39269">
        <ele>391.8</ele>
        <time>2024-08-11T08:36:49Z</time>
      </trkpt>
      <trkpt lat="45.84375" lon="3.39269">
        <ele>391.8</ele>
        <time>2024-08-11T08:36:50Z</time>
      </trkpt>
      <trkpt lat="45.84366" lon="3.39269">
        <ele>391.8</ele>
        <time>2024-08-11T08:36:51Z</time>
      </trkpt>
      <trkpt lat="45.84358" lon="3.39266">
        <ele>391.8</ele>
        <time>2024-08-11T08:36:52Z</time>
      </trkpt>
      <trkpt lat="45.8435" lon="3.39264">
        <ele>391.6</ele>
        <time>2024-08-11T08:36:53Z</time>
      </trkpt>
      <trkpt lat="45.84342" lon="3.39258">
        <ele>392</ele>
        <time>2024-08-11T08:36:54Z</time>
      </trkpt>
      <trkpt lat="45.84335" lon="3.39252">
        <ele>391.6</ele>
        <time>2024-08-11T08:36:55Z</time>
      </trkpt>
      <trkpt lat="45.84327" lon="3.39246">
        <ele>391.6</ele>
        <time>2024-08-11T08:36:56Z</time>
      </trkpt>
      <trkpt lat="45.84319" lon="3.39239">
        <ele>391.4</ele>
        <time>2024-08-11T08:36:57Z</time>
      </trkpt>
      <trkpt lat="45.84311" lon="3.39233">
        <ele>391.4</ele>
        <time>2024-08-11T08:36:58Z</time>
      </trkpt>
      <trkpt lat="45.84303" lon="3.39226">
        <ele>391.2</ele>
        <time>2024-08-11T08:36:59Z</time>
      </trkpt>
      <trkpt lat="45.84294" lon="3.3922">
        <ele>391</ele>
        <time>2024-08-11T08:37:00Z</time>
      </trkpt>
      <trkpt lat="45.84286" lon="3.39213">
        <ele>391</ele>
        <time>2024-08-11T08:37:01Z</time>
      </trkpt>
      <trkpt lat="45.84278" lon="3.39206">
        <ele>390.8</ele>
        <time>2024-08-11T08:37:02Z</time>
      </trkpt>
      <trkpt lat="45.84269" lon="3.39199">
        <ele>390.8</ele>
        <time>2024-08-11T08:37:03Z</time>
      </trkpt>
      <trkpt lat="45.84261" lon="3.39193">
        <ele>390.6</ele>
        <time>2024-08-11T08:37:04Z</time>
      </trkpt>
      <trkpt lat="45.84253" lon="3.39186">
        <ele>390.6</ele>
        <time>2024-08-11T08:37:05Z</time>
      </trkpt>
      <trkpt lat="45.84244" lon="3.39179">
        <ele>390.4</ele>
        <time>2024-08-11T08:37:06Z</time>
      </trkpt>
      <trkpt lat="45.84236" lon="3.39173">
        <ele>390.2</ele>
        <time>2024-08-11T08:37:07Z</time>
      </trkpt>
      <trkpt lat="45.84228" lon="3.39166">
        <ele>390.2</ele>
        <time>2024-08-11T08:37:08Z</time>
      </trkpt>
      <trkpt lat="45.8422" lon="3.39159">
        <ele>390</ele>
        <time>2024-08-11T08:37:09Z</time>
      </trkpt>
      <trkpt lat="45.84211" lon="3.39153">
        <ele>390</ele>
        <time>2024-08-11T08:37:10Z</time>
      </trkpt>
      <trkpt lat="45.84203" lon="3.39146">
        <ele>390</ele>
        <time>2024-08-11T08:37:11Z</time>
      </trkpt>
      <trkpt lat="45.84195" lon="3.39139">
        <ele>389.8</ele>
        <time>2024-08-11T08:37:12Z</time>
      </trkpt>
      <trkpt lat="45.84187" lon="3.39133">
        <ele>389.6</ele>
        <time>2024-08-11T08:37:13Z</time>
      </trkpt>
      <trkpt lat="45.84179" lon="3.39126">
        <ele>389.6</ele>
        <time>2024-08-11T08:37:14Z</time>
      </trkpt>
      <trkpt lat="45.84171" lon="3.3912">
        <ele>389.4</ele>
        <time>2024-08-11T08:37:15Z</time>
      </trkpt>
      <trkpt lat="45.84162" lon="3.39113">
        <ele>389.2</ele>
        <time>2024-08-11T08:37:16Z</time>
      </trkpt>
      <trkpt lat="45.84154" lon="3.39106">
        <ele>389</ele>
        <time>2024-08-11T08:37:17Z</time>
      </trkpt>
      <trkpt lat="45.84146" lon="3.391">
        <ele>389</ele>
        <time>2024-08-11T08:37:18Z</time>
      </trkpt>
      <trkpt lat="45.84138" lon="3.39093">
        <ele>388.8</ele>
        <time>2024-08-11T08:37:19Z</time>
      </trkpt>
      <trkpt lat="45.84129" lon="3.39086">
        <ele>388.8</ele>
        <time>2024-08-11T08:37:20Z</time>
      </trkpt>
      <trkpt lat="45.84121" lon="3.3908">
        <ele>388.8</ele>
        <time>2024-08-11T08:37:21Z</time>
      </trkpt>
      <trkpt lat="45.84113" lon="3.39073">
        <ele>388.8</ele>
        <time>2024-08-11T08:37:22Z</time>
      </trkpt>
      <trkpt lat="45.84105" lon="3.39067">
        <ele>388.8</ele>
        <time>2024-08-11T08:37:23Z</time>
      </trkpt>
      <trkpt lat="45.84098" lon="3.39061">
        <ele>388.8</ele>
        <time>2024-08-11T08:37:24Z</time>
      </trkpt>
      <trkpt lat="45.8409" lon="3.39054">
        <ele>388.8</ele>
        <time>2024-08-11T08:37:25Z</time>
      </trkpt>
      <trkpt lat="45.84082" lon="3.39048">
        <ele>388.6</ele>
        <time>2024-08-11T08:37:26Z</time>
      </trkpt>
      <trkpt lat="45.84075" lon="3.39042">
        <ele>388.6</ele>
        <time>2024-08-11T08:37:27Z</time>
      </trkpt>
      <trkpt lat="45.84067" lon="3.39036">
        <ele>388.6</ele>
        <time>2024-08-11T08:37:28Z</time>
      </trkpt>
      <trkpt lat="45.8406" lon="3.3903">
        <ele>388.4</ele>
        <time>2024-08-11T08:37:29Z</time>
      </trkpt>
      <trkpt lat="45.84053" lon="3.39024">
        <ele>388.4</ele>
        <time>2024-08-11T08:37:30Z</time>
      </trkpt>
      <trkpt lat="45.84045" lon="3.39018">
        <ele>388.2</ele>
        <time>2024-08-11T08:37:31Z</time>
      </trkpt>
      <trkpt lat="45.84038" lon="3.39012">
        <ele>388.2</ele>
        <time>2024-08-11T08:37:32Z</time>
      </trkpt>
      <trkpt lat="45.8403" lon="3.39006">
        <ele>388.2</ele>
        <time>2024-08-11T08:37:33Z</time>
      </trkpt>
      <trkpt lat="45.84023" lon="3.39">
        <ele>388</ele>
        <time>2024-08-11T08:37:34Z</time>
      </trkpt>
      <trkpt lat="45.84015" lon="3.38994">
        <ele>387.8</ele>
        <time>2024-08-11T08:37:35Z</time>
      </trkpt>
      <trkpt lat="45.84007" lon="3.38987">
        <ele>387.8</ele>
        <time>2024-08-11T08:37:36Z</time>
      </trkpt>
      <trkpt lat="45.83999" lon="3.38981">
        <ele>387.6</ele>
        <time>2024-08-11T08:37:37Z</time>
      </trkpt>
      <trkpt lat="45.83991" lon="3.38975">
        <ele>387.6</ele>
        <time>2024-08-11T08:37:38Z</time>
      </trkpt>
      <trkpt lat="45.83983" lon="3.38968">
        <ele>387.4</ele>
        <time>2024-08-11T08:37:39Z</time>
      </trkpt>
      <trkpt lat="45.83975" lon="3.38962">
        <ele>387.2</ele>
        <time>2024-08-11T08:37:40Z</time>
      </trkpt>
      <trkpt lat="45.83968" lon="3.38955">
        <ele>387.2</ele>
        <time>2024-08-11T08:37:41Z</time>
      </trkpt>
      <trkpt lat="45.8396" lon="3.38949">
        <ele>387</ele>
        <time>2024-08-11T08:37:42Z</time>
      </trkpt>
      <trkpt lat="45.83952" lon="3.38943">
        <ele>386.8</ele>
        <time>2024-08-11T08:37:43Z</time>
      </trkpt>
      <trkpt lat="45.83944" lon="3.38936">
        <ele>386.8</ele>
        <time>2024-08-11T08:37:44Z</time>
      </trkpt>
      <trkpt lat="45.83936" lon="3.3893">
        <ele>386.6</ele>
        <time>2024-08-11T08:37:45Z</time>
      </trkpt>
      <trkpt lat="45.83928" lon="3.38924">
        <ele>386.4</ele>
        <time>2024-08-11T08:37:46Z</time>
      </trkpt>
      <trkpt lat="45.8392" lon="3.38917">
        <ele>386.2</ele>
        <time>2024-08-11T08:37:47Z</time>
      </trkpt>
      <trkpt lat="45.83913" lon="3.38911">
        <ele>386</ele>
        <time>2024-08-11T08:37:48Z</time>
      </trkpt>
      <trkpt lat="45.83905" lon="3.38905">
        <ele>385.8</ele>
        <time>2024-08-11T08:37:49Z</time>
      </trkpt>
      <trkpt lat="45.83897" lon="3.38899">
        <ele>385.8</ele>
        <time>2024-08-11T08:37:50Z</time>
      </trkpt>
      <trkpt lat="45.83889" lon="3.38892">
        <ele>385.6</ele>
        <time>2024-08-11T08:37:51Z</time>
      </trkpt>
      <trkpt lat="45.83881" lon="3.38886">
        <ele>385.4</ele>
        <time>2024-08-11T08:37:52Z</time>
      </trkpt>
      <trkpt lat="45.83873" lon="3.38879">
        <ele>385.4</ele>
        <time>2024-08-11T08:37:53Z</time>
      </trkpt>
      <trkpt lat="45.83865" lon="3.38873">
        <ele>385.2</ele>
        <time>2024-08-11T08:37:54Z</time>
      </trkpt>
      <trkpt lat="45.83857" lon="3.38866">
        <ele>385</ele>
        <time>2024-08-11T08:37:55Z</time>
      </trkpt>
      <trkpt lat="45.8385" lon="3.3886">
        <ele>384.8</ele>
        <time>2024-08-11T08:37:56Z</time>
      </trkpt>
      <trkpt lat="45.83842" lon="3.38854">
        <ele>384.8</ele>
        <time>2024-08-11T08:37:57Z</time>
      </trkpt>
      <trkpt lat="45.83834" lon="3.38847">
        <ele>384.6</ele>
        <time>2024-08-11T08:37:58Z</time>
      </trkpt>
      <trkpt lat="45.83826" lon="3.38841">
        <ele>384.4</ele>
        <time>2024-08-11T08:37:59Z</time>
      </trkpt>
      <trkpt lat="45.83818" lon="3.38834">
        <ele>384.2</ele>
        <time>2024-08-11T08:38:00Z</time>
      </trkpt>
      <trkpt lat="45.8381" lon="3.38828">
        <ele>384</ele>
        <time>2024-08-11T08:38:01Z</time>
      </trkpt>
      <trkpt lat="45.83802" lon="3.38822">
        <ele>383.8</ele>
        <time>2024-08-11T08:38:02Z</time>
      </trkpt>
      <trkpt lat="45.83794" lon="3.38815">
        <ele>383.8</ele>
        <time>2024-08-11T08:38:03Z</time>
      </trkpt>
      <trkpt lat="45.83786" lon="3.38809">
        <ele>383.6</ele>
        <time>2024-08-11T08:38:04Z</time>
      </trkpt>
      <trkpt lat="45.83778" lon="3.38802">
        <ele>383.4</ele>
        <time>2024-08-11T08:38:05Z</time>
      </trkpt>
      <trkpt lat="45.8377" lon="3.38796">
        <ele>383.2</ele>
        <time>2024-08-11T08:38:06Z</time>
      </trkpt>
      <trkpt lat="45.83762" lon="3.38789">
        <ele>383</ele>
        <time>2024-08-11T08:38:07Z</time>
      </trkpt>
      <trkpt lat="45.83753" lon="3.38782">
        <ele>382.8</ele>
        <time>2024-08-11T08:38:08Z</time>
      </trkpt>
      <trkpt lat="45.83745" lon="3.38776">
        <ele>382.6</ele>
        <time>2024-08-11T08:38:09Z</time>
      </trkpt>
      <trkpt lat="45.83737" lon="3.38769">
        <ele>382.4</ele>
        <time>2024-08-11T08:38:10Z</time>
      </trkpt>
      <trkpt lat="45.83729" lon="3.38762">
        <ele>382.2</ele>
        <time>2024-08-11T08:38:11Z</time>
      </trkpt>
      <trkpt lat="45.8372" lon="3.38756">
        <ele>382</ele>
        <time>2024-08-11T08:38:12Z</time>
      </trkpt>
      <trkpt lat="45.83712" lon="3.38749">
        <ele>382</ele>
        <time>2024-08-11T08:38:13Z</time>
      </trkpt>
      <trkpt lat="45.83704" lon="3.38742">
        <ele>381.8</ele>
        <time>2024-08-11T08:38:14Z</time>
      </trkpt>
      <trkpt lat="45.83696" lon="3.38736">
        <ele>381.8</ele>
        <time>2024-08-11T08:38:15Z</time>
      </trkpt>
      <trkpt lat="45.83688" lon="3.38729">
        <ele>381.6</ele>
        <time>2024-08-11T08:38:16Z</time>
      </trkpt>
      <trkpt lat="45.8368" lon="3.38723">
        <ele>381.4</ele>
        <time>2024-08-11T08:38:17Z</time>
      </trkpt>
      <trkpt lat="45.83672" lon="3.38716">
        <ele>381.4</ele>
        <time>2024-08-11T08:38:18Z</time>
      </trkpt>
      <trkpt lat="45.83664" lon="3.3871">
        <ele>381.2</ele>
        <time>2024-08-11T08:38:19Z</time>
      </trkpt>
      <trkpt lat="45.83656" lon="3.38704">
        <ele>381.2</ele>
        <time>2024-08-11T08:38:20Z</time>
      </trkpt>
      <trkpt lat="45.83649" lon="3.38698">
        <ele>381</ele>
        <time>2024-08-11T08:38:21Z</time>
      </trkpt>
      <trkpt lat="45.83641" lon="3.38692">
        <ele>381</ele>
        <time>2024-08-11T08:38:22Z</time>
      </trkpt>
      <trkpt lat="45.83634" lon="3.38686">
        <ele>380.8</ele>
        <time>2024-08-11T08:38:23Z</time>
      </trkpt>
      <trkpt lat="45.83626" lon="3.38679">
        <ele>380.6</ele>
        <time>2024-08-11T08:38:24Z</time>
      </trkpt>
      <trkpt lat="45.83619" lon="3.38673">
        <ele>380.4</ele>
        <time>2024-08-11T08:38:25Z</time>
      </trkpt>
      <trkpt lat="45.83611" lon="3.38667">
        <ele>380.4</ele>
        <time>2024-08-11T08:38:26Z</time>
      </trkpt>
      <trkpt lat="45.83604" lon="3.38661">
        <ele>380.2</ele>
        <time>2024-08-11T08:38:27Z</time>
      </trkpt>
      <trkpt lat="45.83596" lon="3.38655">
        <ele>380.2</ele>
        <time>2024-08-11T08:38:28Z</time>
      </trkpt>
      <trkpt lat="45.83589" lon="3.38649">
        <ele>380</ele>
        <time>2024-08-11T08:38:29Z</time>
      </trkpt>
      <trkpt lat="45.83582" lon="3.38644">
        <ele>380</ele>
        <time>2024-08-11T08:38:30Z</time>
      </trkpt>
      <trkpt lat="45.83575" lon="3.38637">
        <ele>379.8</ele>
        <time>2024-08-11T08:38:31Z</time>
      </trkpt>
      <trkpt lat="45.83567" lon="3.38632">
        <ele>379.6</ele>
        <time>2024-08-11T08:38:32Z</time>
      </trkpt>
      <trkpt lat="45.8356" lon="3.38626">
        <ele>379.6</ele>
        <time>2024-08-11T08:38:33Z</time>
      </trkpt>
      <trkpt lat="45.83553" lon="3.3862">
        <ele>379.4</ele>
        <time>2024-08-11T08:38:34Z</time>
      </trkpt>
      <trkpt lat="45.83546" lon="3.38614">
        <ele>379.2</ele>
        <time>2024-08-11T08:38:35Z</time>
      </trkpt>
      <trkpt lat="45.83539" lon="3.38608">
        <ele>379.2</ele>
        <time>2024-08-11T08:38:36Z</time>
      </trkpt>
      <trkpt lat="45.83531" lon="3.38602">
        <ele>379</ele>
        <time>2024-08-11T08:38:37Z</time>
      </trkpt>
      <trkpt lat="45.83524" lon="3.38596">
        <ele>378.8</ele>
        <time>2024-08-11T08:38:38Z</time>
      </trkpt>
      <trkpt lat="45.83517" lon="3.3859">
        <ele>378.6</ele>
        <time>2024-08-11T08:38:39Z</time>
      </trkpt>
      <trkpt lat="45.8351" lon="3.38584">
        <ele>378.6</ele>
        <time>2024-08-11T08:38:40Z</time>
      </trkpt>
      <trkpt lat="45.83503" lon="3.38578">
        <ele>378.4</ele>
        <time>2024-08-11T08:38:41Z</time>
      </trkpt>
      <trkpt lat="45.83496" lon="3.38573">
        <ele>378.2</ele>
        <time>2024-08-11T08:38:42Z</time>
      </trkpt>
      <trkpt lat="45.83488" lon="3.38567">
        <ele>378.2</ele>
        <time>2024-08-11T08:38:43Z</time>
      </trkpt>
      <trkpt lat="45.83481" lon="3.3856">
        <ele>378</ele>
        <time>2024-08-11T08:38:44Z</time>
      </trkpt>
      <trkpt lat="45.83474" lon="3.38554">
        <ele>377.8</ele>
        <time>2024-08-11T08:38:45Z</time>
      </trkpt>
      <trkpt lat="45.83466" lon="3.38548">
        <ele>377.6</ele>
        <time>2024-08-11T08:38:46Z</time>
      </trkpt>
      <trkpt lat="45.83458" lon="3.38542">
        <ele>377.6</ele>
        <time>2024-08-11T08:38:47Z</time>
      </trkpt>
      <trkpt lat="45.83451" lon="3.38536">
        <ele>377.4</ele>
        <time>2024-08-11T08:38:48Z</time>
      </trkpt>
      <trkpt lat="45.83443" lon="3.3853">
        <ele>377.2</ele>
        <time>2024-08-11T08:38:49Z</time>
      </trkpt>
      <trkpt lat="45.83436" lon="3.38524">
        <ele>377.2</ele>
        <time>2024-08-11T08:38:50Z</time>
      </trkpt>
      <trkpt lat="45.83428" lon="3.38518">
        <ele>377</ele>
        <time>2024-08-11T08:38:51Z</time>
      </trkpt>
      <trkpt lat="45.8342" lon="3.38511">
        <ele>377</ele>
        <time>2024-08-11T08:38:52Z</time>
      </trkpt>
      <trkpt lat="45.83412" lon="3.38505">
        <ele>376.8</ele>
        <time>2024-08-11T08:38:53Z</time>
      </trkpt>
      <trkpt lat="45.83405" lon="3.38499">
        <ele>376.8</ele>
        <time>2024-08-11T08:38:54Z</time>
      </trkpt>
      <trkpt lat="45.83397" lon="3.38493">
        <ele>376.6</ele>
        <time>2024-08-11T08:38:55Z</time>
      </trkpt>
      <trkpt lat="45.83389" lon="3.38486">
        <ele>376.4</ele>
        <time>2024-08-11T08:38:56Z</time>
      </trkpt>
      <trkpt lat="45.83382" lon="3.3848">
        <ele>376.4</ele>
        <time>2024-08-11T08:38:57Z</time>
      </trkpt>
      <trkpt lat="45.83374" lon="3.38474">
        <ele>376.2</ele>
        <time>2024-08-11T08:38:58Z</time>
      </trkpt>
      <trkpt lat="45.83366" lon="3.38468">
        <ele>376.2</ele>
        <time>2024-08-11T08:38:59Z</time>
      </trkpt>
      <trkpt lat="45.83358" lon="3.38461">
        <ele>376</ele>
        <time>2024-08-11T08:39:00Z</time>
      </trkpt>
      <trkpt lat="45.8335" lon="3.38455">
        <ele>376</ele>
        <time>2024-08-11T08:39:01Z</time>
      </trkpt>
      <trkpt lat="45.83342" lon="3.38449">
        <ele>375.8</ele>
        <time>2024-08-11T08:39:02Z</time>
      </trkpt>
      <trkpt lat="45.83334" lon="3.38442">
        <ele>375.6</ele>
        <time>2024-08-11T08:39:03Z</time>
      </trkpt>
      <trkpt lat="45.83326" lon="3.38436">
        <ele>375.6</ele>
        <time>2024-08-11T08:39:04Z</time>
      </trkpt>
      <trkpt lat="45.83318" lon="3.38429">
        <ele>375.4</ele>
        <time>2024-08-11T08:39:05Z</time>
      </trkpt>
      <trkpt lat="45.8331" lon="3.38423">
        <ele>375.2</ele>
        <time>2024-08-11T08:39:06Z</time>
      </trkpt>
      <trkpt lat="45.83302" lon="3.38417">
        <ele>375.2</ele>
        <time>2024-08-11T08:39:07Z</time>
      </trkpt>
      <trkpt lat="45.83295" lon="3.38411">
        <ele>375</ele>
        <time>2024-08-11T08:39:08Z</time>
      </trkpt>
      <trkpt lat="45.83287" lon="3.38404">
        <ele>374.8</ele>
        <time>2024-08-11T08:39:09Z</time>
      </trkpt>
      <trkpt lat="45.83279" lon="3.38398">
        <ele>374.8</ele>
        <time>2024-08-11T08:39:10Z</time>
      </trkpt>
      <trkpt lat="45.83271" lon="3.38392">
        <ele>374.6</ele>
        <time>2024-08-11T08:39:11Z</time>
      </trkpt>
      <trkpt lat="45.83264" lon="3.38386">
        <ele>374.6</ele>
        <time>2024-08-11T08:39:12Z</time>
      </trkpt>
      <trkpt lat="45.83256" lon="3.3838">
        <ele>374.4</ele>
        <time>2024-08-11T08:39:13Z</time>
      </trkpt>
      <trkpt lat="45.83249" lon="3.38374">
        <ele>374.4</ele>
        <time>2024-08-11T08:39:14Z</time>
      </trkpt>
      <trkpt lat="45.83242" lon="3.38368">
        <ele>374.2</ele>
        <time>2024-08-11T08:39:15Z</time>
      </trkpt>
      <trkpt lat="45.83234" lon="3.38363">
        <ele>374</ele>
        <time>2024-08-11T08:39:16Z</time>
      </trkpt>
      <trkpt lat="45.83227" lon="3.38357">
        <ele>373.8</ele>
        <time>2024-08-11T08:39:17Z</time>
      </trkpt>
      <trkpt lat="45.8322" lon="3.38351">
        <ele>373.8</ele>
        <time>2024-08-11T08:39:18Z</time>
      </trkpt>
      <trkpt lat="45.83214" lon="3.38346">
        <ele>373.6</ele>
        <time>2024-08-11T08:39:19Z</time>
      </trkpt>
      <trkpt lat="45.83207" lon="3.3834">
        <ele>373.4</ele>
        <time>2024-08-11T08:39:20Z</time>
      </trkpt>
      <trkpt lat="45.832" lon="3.38334">
        <ele>373.4</ele>
        <time>2024-08-11T08:39:21Z</time>
      </trkpt>
      <trkpt lat="45.83193" lon="3.38329">
        <ele>373.2</ele>
        <time>2024-08-11T08:39:22Z</time>
      </trkpt>
      <trkpt lat="45.83187" lon="3.38324">
        <ele>373.2</ele>
        <time>2024-08-11T08:39:23Z</time>
      </trkpt>
      <trkpt lat="45.8318" lon="3.38319">
        <ele>373</ele>
        <time>2024-08-11T08:39:24Z</time>
      </trkpt>
      <trkpt lat="45.83174" lon="3.38315">
        <ele>373</ele>
        <time>2024-08-11T08:39:25Z</time>
      </trkpt>
      <trkpt lat="45.83167" lon="3.38311">
        <ele>372.8</ele>
        <time>2024-08-11T08:39:26Z</time>
      </trkpt>
      <trkpt lat="45.83161" lon="3.38306">
        <ele>372.8</ele>
        <time>2024-08-11T08:39:27Z</time>
      </trkpt>
      <trkpt lat="45.83155" lon="3.38301">
        <ele>372.6</ele>
        <time>2024-08-11T08:39:28Z</time>
      </trkpt>
      <trkpt lat="45.83149" lon="3.38296">
        <ele>372.6</ele>
        <time>2024-08-11T08:39:29Z</time>
      </trkpt>
      <trkpt lat="45.83143" lon="3.38291">
        <ele>372.6</ele>
        <time>2024-08-11T08:39:30Z</time>
      </trkpt>
      <trkpt lat="45.83137" lon="3.38286">
        <ele>372.4</ele>
        <time>2024-08-11T08:39:31Z</time>
      </trkpt>
      <trkpt lat="45.83131" lon="3.38283">
        <ele>372.4</ele>
        <time>2024-08-11T08:39:32Z</time>
      </trkpt>
      <trkpt lat="45.83124" lon="3.38281">
        <ele>372.2</ele>
        <time>2024-08-11T08:39:33Z</time>
      </trkpt>
      <trkpt lat="45.83116" lon="3.38275">
        <ele>372.2</ele>
        <time>2024-08-11T08:39:34Z</time>
      </trkpt>
      <trkpt lat="45.8311" lon="3.38269">
        <ele>372</ele>
        <time>2024-08-11T08:39:35Z</time>
      </trkpt>
      <trkpt lat="45.83104" lon="3.38264">
        <ele>371.8</ele>
        <time>2024-08-11T08:39:36Z</time>
      </trkpt>
      <trkpt lat="45.83098" lon="3.38259">
        <ele>371.8</ele>
        <time>2024-08-11T08:39:37Z</time>
      </trkpt>
      <trkpt lat="45.83091" lon="3.38253">
        <ele>371.6</ele>
        <time>2024-08-11T08:39:38Z</time>
      </trkpt>
      <trkpt lat="45.83085" lon="3.38248">
        <ele>371.4</ele>
        <time>2024-08-11T08:39:39Z</time>
      </trkpt>
      <trkpt lat="45.83079" lon="3.38243">
        <ele>371.2</ele>
        <time>2024-08-11T08:39:40Z</time>
      </trkpt>
      <trkpt lat="45.83073" lon="3.38238">
        <ele>371</ele>
        <time>2024-08-11T08:39:41Z</time>
      </trkpt>
      <trkpt lat="45.83067" lon="3.38233">
        <ele>371</ele>
        <time>2024-08-11T08:39:42Z</time>
      </trkpt>
      <trkpt lat="45.83061" lon="3.38227">
        <ele>370.8</ele>
        <time>2024-08-11T08:39:43Z</time>
      </trkpt>
      <trkpt lat="45.83054" lon="3.38221">
        <ele>370.6</ele>
        <time>2024-08-11T08:39:44Z</time>
      </trkpt>
      <trkpt lat="45.83047" lon="3.38216">
        <ele>370.4</ele>
        <time>2024-08-11T08:39:45Z</time>
      </trkpt>
      <trkpt lat="45.83041" lon="3.3821">
        <ele>370.2</ele>
        <time>2024-08-11T08:39:46Z</time>
      </trkpt>
      <trkpt lat="45.83034" lon="3.38204">
        <ele>370</ele>
        <time>2024-08-11T08:39:47Z</time>
      </trkpt>
      <trkpt lat="45.83027" lon="3.38198">
        <ele>369.8</ele>
        <time>2024-08-11T08:39:48Z</time>
      </trkpt>
      <trkpt lat="45.83019" lon="3.38192">
        <ele>369.6</ele>
        <time>2024-08-11T08:39:49Z</time>
      </trkpt>
      <trkpt lat="45.83012" lon="3.38186">
        <ele>369.4</ele>
        <time>2024-08-11T08:39:50Z</time>
      </trkpt>
      <trkpt lat="45.83005" lon="3.3818">
        <ele>369.2</ele>
        <time>2024-08-11T08:39:51Z</time>
      </trkpt>
      <trkpt lat="45.82998" lon="3.38174">
        <ele>369.2</ele>
        <time>2024-08-11T08:39:52Z</time>
      </trkpt>
      <trkpt lat="45.82991" lon="3.38168">
        <ele>369</ele>
        <time>2024-08-11T08:39:53Z</time>
      </trkpt>
      <trkpt lat="45.82983" lon="3.38162">
        <ele>369</ele>
        <time>2024-08-11T08:39:54Z</time>
      </trkpt>
      <trkpt lat="45.82976" lon="3.38156">
        <ele>368.8</ele>
        <time>2024-08-11T08:39:55Z</time>
      </trkpt>
      <trkpt lat="45.82969" lon="3.38151">
        <ele>368.8</ele>
        <time>2024-08-11T08:39:56Z</time>
      </trkpt>
      <trkpt lat="45.82962" lon="3.38145">
        <ele>368.6</ele>
        <time>2024-08-11T08:39:57Z</time>
      </trkpt>
      <trkpt lat="45.82955" lon="3.38139">
        <ele>368.6</ele>
        <time>2024-08-11T08:39:58Z</time>
      </trkpt>
      <trkpt lat="45.82947" lon="3.38132">
        <ele>368.4</ele>
        <time>2024-08-11T08:39:59Z</time>
      </trkpt>
      <trkpt lat="45.8294" lon="3.38126">
        <ele>368.4</ele>
        <time>2024-08-11T08:40:00Z</time>
      </trkpt>
      <trkpt lat="45.82932" lon="3.3812">
        <ele>368.2</ele>
        <time>2024-08-11T08:40:01Z</time>
      </trkpt>
      <trkpt lat="45.82925" lon="3.38114">
        <ele>368</ele>
        <time>2024-08-11T08:40:02Z</time>
      </trkpt>
      <trkpt lat="45.82917" lon="3.38108">
        <ele>367.8</ele>
        <time>2024-08-11T08:40:03Z</time>
      </trkpt>
      <trkpt lat="45.82909" lon="3.38101">
        <ele>367.8</ele>
        <time>2024-08-11T08:40:04Z</time>
      </trkpt>
      <trkpt lat="45.82902" lon="3.38095">
        <ele>367.6</ele>
        <time>2024-08-11T08:40:05Z</time>
      </trkpt>
      <trkpt lat="45.82894" lon="3.38088">
        <ele>367.4</ele>
        <time>2024-08-11T08:40:06Z</time>
      </trkpt>
      <trkpt lat="45.82886" lon="3.38082">
        <ele>367.2</ele>
        <time>2024-08-11T08:40:07Z</time>
      </trkpt>
      <trkpt lat="45.82879" lon="3.38075">
        <ele>367</ele>
        <time>2024-08-11T08:40:08Z</time>
      </trkpt>
      <trkpt lat="45.82871" lon="3.38069">
        <ele>366.8</ele>
        <time>2024-08-11T08:40:09Z</time>
      </trkpt>
      <trkpt lat="45.82864" lon="3.38063">
        <ele>366.8</ele>
        <time>2024-08-11T08:40:10Z</time>
      </trkpt>
      <trkpt lat="45.82857" lon="3.38057">
        <ele>366.6</ele>
        <time>2024-08-11T08:40:11Z</time>
      </trkpt>
      <trkpt lat="45.8285" lon="3.38052">
        <ele>366.6</ele>
        <time>2024-08-11T08:40:12Z</time>
      </trkpt>
      <trkpt lat="45.82843" lon="3.38047">
        <ele>366.4</ele>
        <time>2024-08-11T08:40:13Z</time>
      </trkpt>
      <trkpt lat="45.82837" lon="3.38042">
        <ele>366.4</ele>
        <time>2024-08-11T08:40:14Z</time>
      </trkpt>
      <trkpt lat="45.82831" lon="3.38037">
        <ele>366.2</ele>
        <time>2024-08-11T08:40:15Z</time>
      </trkpt>
      <trkpt lat="45.82825" lon="3.38033">
        <ele>366</ele>
        <time>2024-08-11T08:40:16Z</time>
      </trkpt>
      <trkpt lat="45.82819" lon="3.38029">
        <ele>365.8</ele>
        <time>2024-08-11T08:40:17Z</time>
      </trkpt>
      <trkpt lat="45.82813" lon="3.38028">
        <ele>365.8</ele>
        <time>2024-08-11T08:40:18Z</time>
      </trkpt>
      <trkpt lat="45.82806" lon="3.38027">
        <ele>365.6</ele>
        <time>2024-08-11T08:40:19Z</time>
      </trkpt>
      <trkpt lat="45.82799" lon="3.38024">
        <ele>365.6</ele>
        <time>2024-08-11T08:40:20Z</time>
      </trkpt>
      <trkpt lat="45.82792" lon="3.3802">
        <ele>365.6</ele>
        <time>2024-08-11T08:40:21Z</time>
      </trkpt>
      <trkpt lat="45.82785" lon="3.38016">
        <ele>365.4</ele>
        <time>2024-08-11T08:40:22Z</time>
      </trkpt>
      <trkpt lat="45.8278" lon="3.3801">
        <ele>365.4</ele>
        <time>2024-08-11T08:40:23Z</time>
      </trkpt>
      <trkpt lat="45.82773" lon="3.38006">
        <ele>365.2</ele>
        <time>2024-08-11T08:40:24Z</time>
      </trkpt>
      <trkpt lat="45.82767" lon="3.38002">
        <ele>365.2</ele>
        <time>2024-08-11T08:40:25Z</time>
      </trkpt>
      <trkpt lat="45.82763" lon="3.37997">
        <ele>365</ele>
        <time>2024-08-11T08:40:26Z</time>
      </trkpt>
      <trkpt lat="45.82759" lon="3.37992">
        <ele>365</ele>
        <time>2024-08-11T08:40:27Z</time>
      </trkpt>
      <trkpt lat="45.82752" lon="3.37989">
        <ele>364.8</ele>
        <time>2024-08-11T08:40:28Z</time>
      </trkpt>
      <trkpt lat="45.82746" lon="3.37988">
        <ele>364.6</ele>
        <time>2024-08-11T08:40:29Z</time>
      </trkpt>
      <trkpt lat="45.82741" lon="3.37987">
        <ele>364.6</ele>
        <time>2024-08-11T08:40:30Z</time>
      </trkpt>
      <trkpt lat="45.82736" lon="3.37985">
        <ele>364.4</ele>
        <time>2024-08-11T08:40:31Z</time>
      </trkpt>
      <trkpt lat="45.8273" lon="3.37983">
        <ele>364.2</ele>
        <time>2024-08-11T08:40:32Z</time>
      </trkpt>
      <trkpt lat="45.82725" lon="3.37981">
        <ele>364</ele>
        <time>2024-08-11T08:40:33Z</time>
      </trkpt>
      <trkpt lat="45.82719" lon="3.37979">
        <ele>363.8</ele>
        <time>2024-08-11T08:40:34Z</time>
      </trkpt>
      <trkpt lat="45.82714" lon="3.37977">
        <ele>363.6</ele>
        <time>2024-08-11T08:40:35Z</time>
      </trkpt>
      <trkpt lat="45.82708" lon="3.37975">
        <ele>363.6</ele>
        <time>2024-08-11T08:40:36Z</time>
      </trkpt>
      <trkpt lat="45.82703" lon="3.37973">
        <ele>363.4</ele>
        <time>2024-08-11T08:40:37Z</time>
      </trkpt>
      <trkpt lat="45.82698" lon="3.37972">
        <ele>363.2</ele>
        <time>2024-08-11T08:40:38Z</time>
      </trkpt>
      <trkpt lat="45.82694" lon="3.3797">
        <ele>363</ele>
        <time>2024-08-11T08:40:39Z</time>
      </trkpt>
      <trkpt lat="45.8269" lon="3.37969">
        <ele>362.8</ele>
        <time>2024-08-11T08:40:40Z</time>
      </trkpt>
      <trkpt lat="45.82687" lon="3.37968">
        <ele>362.6</ele>
        <time>2024-08-11T08:40:41Z</time>
      </trkpt>
      <trkpt lat="45.82683" lon="3.37967">
        <ele>362.4</ele>
        <time>2024-08-11T08:40:42Z</time>
      </trkpt>
      <trkpt lat="45.82678" lon="3.37967">
        <ele>362.4</ele>
        <time>2024-08-11T08:40:43Z</time>
      </trkpt>
      <trkpt lat="45.82675" lon="3.37967">
        <ele>362.2</ele>
        <time>2024-08-11T08:40:44Z</time>
      </trkpt>
      <trkpt lat="45.82672" lon="3.37967">
        <ele>362</ele>
        <time>2024-08-11T08:40:45Z</time>
      </trkpt>
      <trkpt lat="45.8267" lon="3.37967">
        <ele>362</ele>
        <time>2024-08-11T08:40:46Z</time>
      </trkpt>
      <trkpt lat="45.82668" lon="3.37967">
        <ele>362</ele>
        <time>2024-08-11T08:40:47Z</time>
      </trkpt>
      <trkpt lat="45.82666" lon="3.37967">
        <ele>362</ele>
        <time>2024-08-11T08:40:48Z</time>
      </trkpt>
      <trkpt lat="45.82666" lon="3.37967">
        <ele>361.8</ele>
        <time>2024-08-11T08:40:49Z</time>
      </trkpt>
      <trkpt lat="45.82663" lon="3.37967">
        <ele>361.8</ele>
        <time>2024-08-11T08:40:50Z</time>
      </trkpt>
      <trkpt lat="45.82661" lon="3.37967">
        <ele>361.8</ele>
        <time>2024-08-11T08:40:51Z</time>
      </trkpt>
      <trkpt lat="45.82658" lon="3.37967">
        <ele>361.8</ele>
        <time>2024-08-11T08:40:52Z</time>
      </trkpt>
      <trkpt lat="45.82656" lon="3.37967">
        <ele>361.8</ele>
        <time>2024-08-11T08:40:53Z</time>
      </trkpt>
      <trkpt lat="45.82653" lon="3.37966">
        <ele>361.8</ele>
        <time>2024-08-11T08:40:54Z</time>
      </trkpt>
      <trkpt lat="45.82649" lon="3.37966">
        <ele>361.6</ele>
        <time>2024-08-11T08:40:55Z</time>
      </trkpt>
      <trkpt lat="45.82645" lon="3.37965">
        <ele>361.4</ele>
        <time>2024-08-11T08:40:56Z</time>
      </trkpt>
      <trkpt lat="45.82641" lon="3.37964">
        <ele>361.4</ele>
        <time>2024-08-11T08:40:57Z</time>
      </trkpt>
      <trkpt lat="45.82635" lon="3.37963">
        <ele>361.2</ele>
        <time>2024-08-11T08:40:58Z</time>
      </trkpt>
      <trkpt lat="45.82629" lon="3.37962">
        <ele>361</ele>
        <time>2024-08-11T08:40:59Z</time>
      </trkpt>
      <trkpt lat="45.82623" lon="3.37961">
        <ele>360.8</ele>
        <time>2024-08-11T08:41:00Z</time>
      </trkpt>
      <trkpt lat="45.82617" lon="3.37959">
        <ele>360.6</ele>
        <time>2024-08-11T08:41:01Z</time>
      </trkpt>
      <trkpt lat="45.82611" lon="3.37958">
        <ele>360.4</ele>
        <time>2024-08-11T08:41:02Z</time>
      </trkpt>
      <trkpt lat="45.82605" lon="3.37957">
        <ele>360.2</ele>
        <time>2024-08-11T08:41:03Z</time>
      </trkpt>
      <trkpt lat="45.82601" lon="3.37956">
        <ele>360</ele>
        <time>2024-08-11T08:41:04Z</time>
      </trkpt>
      <trkpt lat="45.82596" lon="3.37955">
        <ele>359.8</ele>
        <time>2024-08-11T08:41:05Z</time>
      </trkpt>
      <trkpt lat="45.82592" lon="3.37955">
        <ele>359.6</ele>
        <time>2024-08-11T08:41:06Z</time>
      </trkpt>
      <trkpt lat="45.82587" lon="3.37954">
        <ele>359.4</ele>
        <time>2024-08-11T08:41:07Z</time>
      </trkpt>
      <trkpt lat="45.82584" lon="3.37953">
        <ele>359.2</ele>
        <time>2024-08-11T08:41:08Z</time>
      </trkpt>
      <trkpt lat="45.8258" lon="3.37952">
        <ele>359.2</ele>
        <time>2024-08-11T08:41:09Z</time>
      </trkpt>
      <trkpt lat="45.82576" lon="3.3795">
        <ele>359.2</ele>
        <time>2024-08-11T08:41:10Z</time>
      </trkpt>
      <trkpt lat="45.82573" lon="3.3795">
        <ele>359</ele>
        <time>2024-08-11T08:41:11Z</time>
      </trkpt>
      <trkpt lat="45.82569" lon="3.37949">
        <ele>358.8</ele>
        <time>2024-08-11T08:41:12Z</time>
      </trkpt>
      <trkpt lat="45.82564" lon="3.37949">
        <ele>358.8</ele>
        <time>2024-08-11T08:41:13Z</time>
      </trkpt>
      <trkpt lat="45.82558" lon="3.37949">
        <ele>358.8</ele>
        <time>2024-08-11T08:41:14Z</time>
      </trkpt>
      <trkpt lat="45.82554" lon="3.37948">
        <ele>358.6</ele>
        <time>2024-08-11T08:41:15Z</time>
      </trkpt>
      <trkpt lat="45.82549" lon="3.37948">
        <ele>358.6</ele>
        <time>2024-08-11T08:41:16Z</time>
      </trkpt>
      <trkpt lat="45.82543" lon="3.37948">
        <ele>358.4</ele>
        <time>2024-08-11T08:41:17Z</time>
      </trkpt>
      <trkpt lat="45.82537" lon="3.37948">
        <ele>358.4</ele>
        <time>2024-08-11T08:41:18Z</time>
      </trkpt>
      <trkpt lat="45.8253" lon="3.37948">
        <ele>358.2</ele>
        <time>2024-08-11T08:41:19Z</time>
      </trkpt>
      <trkpt lat="45.82523" lon="3.37948">
        <ele>358</ele>
        <time>2024-08-11T08:41:20Z</time>
      </trkpt>
      <trkpt lat="45.82517" lon="3.37948">
        <ele>358</ele>
        <time>2024-08-11T08:41:21Z</time>
      </trkpt>
      <trkpt lat="45.82511" lon="3.37948">
        <ele>357.8</ele>
        <time>2024-08-11T08:41:22Z</time>
      </trkpt>
      <trkpt lat="45.82504" lon="3.37948">
        <ele>357.8</ele>
        <time>2024-08-11T08:41:23Z</time>
      </trkpt>
      <trkpt lat="45.82498" lon="3.37948">
        <ele>357.8</ele>
        <time>2024-08-11T08:41:24Z</time>
      </trkpt>
      <trkpt lat="45.8249" lon="3.37948">
        <ele>357.8</ele>
        <time>2024-08-11T08:41:25Z</time>
      </trkpt>
      <trkpt lat="45.82483" lon="3.37948">
        <ele>357.6</ele>
        <time>2024-08-11T08:41:26Z</time>
      </trkpt>
      <trkpt lat="45.82476" lon="3.37948">
        <ele>357.6</ele>
        <time>2024-08-11T08:41:27Z</time>
      </trkpt>
      <trkpt lat="45.82469" lon="3.37948">
        <ele>357.4</ele>
        <time>2024-08-11T08:41:28Z</time>
      </trkpt>
      <trkpt lat="45.82462" lon="3.37948">
        <ele>357.6</ele>
        <time>2024-08-11T08:41:29Z</time>
      </trkpt>
      <trkpt lat="45.82454" lon="3.37948">
        <ele>357.6</ele>
        <time>2024-08-11T08:41:30Z</time>
      </trkpt>
      <trkpt lat="45.82446" lon="3.37948">
        <ele>357.4</ele>
        <time>2024-08-11T08:41:31Z</time>
      </trkpt>
      <trkpt lat="45.82439" lon="3.37948">
        <ele>357.4</ele>
        <time>2024-08-11T08:41:32Z</time>
      </trkpt>
      <trkpt lat="45.82431" lon="3.37948">
        <ele>357.4</ele>
        <time>2024-08-11T08:41:33Z</time>
      </trkpt>
      <trkpt lat="45.82424" lon="3.37948">
        <ele>357.4</ele>
        <time>2024-08-11T08:41:34Z</time>
      </trkpt>
      <trkpt lat="45.82417" lon="3.37948">
        <ele>357.4</ele>
        <time>2024-08-11T08:41:35Z</time>
      </trkpt>
      <trkpt lat="45.82409" lon="3.37947">
        <ele>357.2</ele>
        <time>2024-08-11T08:41:36Z</time>
      </trkpt>
      <trkpt lat="45.82402" lon="3.37945">
        <ele>357.2</ele>
        <time>2024-08-11T08:41:37Z</time>
      </trkpt>
      <trkpt lat="45.82395" lon="3.37943">
        <ele>357.2</ele>
        <time>2024-08-11T08:41:38Z</time>
      </trkpt>
      <trkpt lat="45.82388" lon="3.37942">
        <ele>357.2</ele>
        <time>2024-08-11T08:41:39Z</time>
      </trkpt>
      <trkpt lat="45.82381" lon="3.3794">
        <ele>357</ele>
        <time>2024-08-11T08:41:40Z</time>
      </trkpt>
      <trkpt lat="45.82374" lon="3.37938">
        <ele>357</ele>
        <time>2024-08-11T08:41:41Z</time>
      </trkpt>
      <trkpt lat="45.82368" lon="3.37936">
        <ele>357</ele>
        <time>2024-08-11T08:41:42Z</time>
      </trkpt>
      <trkpt lat="45.82361" lon="3.37934">
        <ele>357</ele>
        <time>2024-08-11T08:41:43Z</time>
      </trkpt>
      <trkpt lat="45.82355" lon="3.37933">
        <ele>357</ele>
        <time>2024-08-11T08:41:44Z</time>
      </trkpt>
      <trkpt lat="45.82349" lon="3.37931">
        <ele>357</ele>
        <time>2024-08-11T08:41:45Z</time>
      </trkpt>
      <trkpt lat="45.82343" lon="3.37929">
        <ele>357</ele>
        <time>2024-08-11T08:41:46Z</time>
      </trkpt>
      <trkpt lat="45.82337" lon="3.37928">
        <ele>357</ele>
        <time>2024-08-11T08:41:47Z</time>
      </trkpt>
      <trkpt lat="45.82331" lon="3.37923">
        <ele>356.8</ele>
        <time>2024-08-11T08:41:48Z</time>
      </trkpt>
      <trkpt lat="45.82325" lon="3.37921">
        <ele>356.8</ele>
        <time>2024-08-11T08:41:49Z</time>
      </trkpt>
      <trkpt lat="45.82318" lon="3.37918">
        <ele>356.8</ele>
        <time>2024-08-11T08:41:50Z</time>
      </trkpt>
      <trkpt lat="45.82312" lon="3.37915">
        <ele>356.8</ele>
        <time>2024-08-11T08:41:51Z</time>
      </trkpt>
      <trkpt lat="45.82305" lon="3.37913">
        <ele>356.6</ele>
        <time>2024-08-11T08:41:52Z</time>
      </trkpt>
      <trkpt lat="45.82298" lon="3.3791">
        <ele>356.6</ele>
        <time>2024-08-11T08:41:53Z</time>
      </trkpt>
      <trkpt lat="45.82291" lon="3.37907">
        <ele>356.6</ele>
        <time>2024-08-11T08:41:54Z</time>
      </trkpt>
      <trkpt lat="45.82284" lon="3.37904">
        <ele>356.4</ele>
        <time>2024-08-11T08:41:55Z</time>
      </trkpt>
      <trkpt lat="45.82277" lon="3.37902">
        <ele>356.4</ele>
        <time>2024-08-11T08:41:56Z</time>
      </trkpt>
      <trkpt lat="45.82271" lon="3.37899">
        <ele>356.4</ele>
        <time>2024-08-11T08:41:57Z</time>
      </trkpt>
      <trkpt lat="45.82264" lon="3.37896">
        <ele>356.4</ele>
        <time>2024-08-11T08:41:58Z</time>
      </trkpt>
      <trkpt lat="45.82257" lon="3.37893">
        <ele>356.4</ele>
        <time>2024-08-11T08:41:59Z</time>
      </trkpt>
      <trkpt lat="45.8225" lon="3.3789">
        <ele>356.4</ele>
        <time>2024-08-11T08:42:00Z</time>
      </trkpt>
      <trkpt lat="45.82243" lon="3.37888">
        <ele>356.4</ele>
        <time>2024-08-11T08:42:01Z</time>
      </trkpt>
      <trkpt lat="45.82235" lon="3.37885">
        <ele>356.4</ele>
        <time>2024-08-11T08:42:02Z</time>
      </trkpt>
      <trkpt lat="45.82228" lon="3.37882">
        <ele>356.2</ele>
        <time>2024-08-11T08:42:03Z</time>
      </trkpt>
      <trkpt lat="45.82221" lon="3.37879">
        <ele>356.2</ele>
        <time>2024-08-11T08:42:04Z</time>
      </trkpt>
      <trkpt lat="45.82214" lon="3.37876">
        <ele>356.2</ele>
        <time>2024-08-11T08:42:05Z</time>
      </trkpt>
      <trkpt lat="45.82207" lon="3.37873">
        <ele>356.2</ele>
        <time>2024-08-11T08:42:06Z</time>
      </trkpt>
      <trkpt lat="45.822" lon="3.3787">
        <ele>356</ele>
        <time>2024-08-11T08:42:07Z</time>
      </trkpt>
      <trkpt lat="45.82193" lon="3.37868">
        <ele>356</ele>
        <time>2024-08-11T08:42:08Z</time>
      </trkpt>
      <trkpt lat="45.82186" lon="3.37865">
        <ele>356</ele>
        <time>2024-08-11T08:42:09Z</time>
      </trkpt>
      <trkpt lat="45.82179" lon="3.37863">
        <ele>355.8</ele>
        <time>2024-08-11T08:42:10Z</time>
      </trkpt>
      <trkpt lat="45.82172" lon="3.37861">
        <ele>355.8</ele>
        <time>2024-08-11T08:42:11Z</time>
      </trkpt>
      <trkpt lat="45.82165" lon="3.37859">
        <ele>355.8</ele>
        <time>2024-08-11T08:42:12Z</time>
      </trkpt>
      <trkpt lat="45.82158" lon="3.37857">
        <ele>355.8</ele>
        <time>2024-08-11T08:42:13Z</time>
      </trkpt>
      <trkpt lat="45.82151" lon="3.37855">
        <ele>355.8</ele>
        <time>2024-08-11T08:42:14Z</time>
      </trkpt>
      <trkpt lat="45.82144" lon="3.37853">
        <ele>355.6</ele>
        <time>2024-08-11T08:42:15Z</time>
      </trkpt>
      <trkpt lat="45.82137" lon="3.37851">
        <ele>355.6</ele>
        <time>2024-08-11T08:42:16Z</time>
      </trkpt>
      <trkpt lat="45.82129" lon="3.37849">
        <ele>355.6</ele>
        <time>2024-08-11T08:42:17Z</time>
      </trkpt>
      <trkpt lat="45.82122" lon="3.37847">
        <ele>355.6</ele>
        <time>2024-08-11T08:42:18Z</time>
      </trkpt>
      <trkpt lat="45.82115" lon="3.37845">
        <ele>355.6</ele>
        <time>2024-08-11T08:42:19Z</time>
      </trkpt>
      <trkpt lat="45.82108" lon="3.37843">
        <ele>355.6</ele>
        <time>2024-08-11T08:42:20Z</time>
      </trkpt>
      <trkpt lat="45.821" lon="3.37841">
        <ele>355.4</ele>
        <time>2024-08-11T08:42:21Z</time>
      </trkpt>
      <trkpt lat="45.82093" lon="3.37839">
        <ele>355.4</ele>
        <time>2024-08-11T08:42:22Z</time>
      </trkpt>
      <trkpt lat="45.82085" lon="3.37837">
        <ele>355.4</ele>
        <time>2024-08-11T08:42:23Z</time>
      </trkpt>
      <trkpt lat="45.82078" lon="3.37835">
        <ele>355.4</ele>
        <time>2024-08-11T08:42:24Z</time>
      </trkpt>
      <trkpt lat="45.82071" lon="3.37833">
        <ele>355.2</ele>
        <time>2024-08-11T08:42:25Z</time>
      </trkpt>
      <trkpt lat="45.82064" lon="3.3783">
        <ele>355.2</ele>
        <time>2024-08-11T08:42:26Z</time>
      </trkpt>
      <trkpt lat="45.82057" lon="3.37826">
        <ele>355.2</ele>
        <time>2024-08-11T08:42:27Z</time>
      </trkpt>
      <trkpt lat="45.8205" lon="3.37823">
        <ele>355</ele>
        <time>2024-08-11T08:42:28Z</time>
      </trkpt>
      <trkpt lat="45.82043" lon="3.37819">
        <ele>355</ele>
        <time>2024-08-11T08:42:29Z</time>
      </trkpt>
      <trkpt lat="45.82036" lon="3.37816">
        <ele>355</ele>
        <time>2024-08-11T08:42:30Z</time>
      </trkpt>
      <trkpt lat="45.82029" lon="3.37813">
        <ele>355</ele>
        <time>2024-08-11T08:42:31Z</time>
      </trkpt>
      <trkpt lat="45.82021" lon="3.37811">
        <ele>354.8</ele>
        <time>2024-08-11T08:42:32Z</time>
      </trkpt>
      <trkpt lat="45.82014" lon="3.37808">
        <ele>354.8</ele>
        <time>2024-08-11T08:42:33Z</time>
      </trkpt>
      <trkpt lat="45.82007" lon="3.37805">
        <ele>354.6</ele>
        <time>2024-08-11T08:42:34Z</time>
      </trkpt>
      <trkpt lat="45.82" lon="3.37801">
        <ele>354.6</ele>
        <time>2024-08-11T08:42:35Z</time>
      </trkpt>
      <trkpt lat="45.81993" lon="3.37797">
        <ele>354.4</ele>
        <time>2024-08-11T08:42:36Z</time>
      </trkpt>
      <trkpt lat="45.81986" lon="3.37793">
        <ele>354.4</ele>
        <time>2024-08-11T08:42:37Z</time>
      </trkpt>
      <trkpt lat="45.8198" lon="3.37789">
        <ele>354.2</ele>
        <time>2024-08-11T08:42:38Z</time>
      </trkpt>
      <trkpt lat="45.81973" lon="3.37785">
        <ele>354.2</ele>
        <time>2024-08-11T08:42:39Z</time>
      </trkpt>
      <trkpt lat="45.81965" lon="3.37781">
        <ele>354.2</ele>
        <time>2024-08-11T08:42:40Z</time>
      </trkpt>
      <trkpt lat="45.81958" lon="3.37777">
        <ele>354</ele>
        <time>2024-08-11T08:42:41Z</time>
      </trkpt>
      <trkpt lat="45.81951" lon="3.37774">
        <ele>354</ele>
        <time>2024-08-11T08:42:42Z</time>
      </trkpt>
      <trkpt lat="45.81944" lon="3.37771">
        <ele>353.8</ele>
        <time>2024-08-11T08:42:43Z</time>
      </trkpt>
      <trkpt lat="45.81937" lon="3.37767">
        <ele>353.8</ele>
        <time>2024-08-11T08:42:44Z</time>
      </trkpt>
      <trkpt lat="45.8193" lon="3.37764">
        <ele>353.8</ele>
        <time>2024-08-11T08:42:45Z</time>
      </trkpt>
      <trkpt lat="45.81923" lon="3.3776">
        <ele>353.6</ele>
        <time>2024-08-11T08:42:46Z</time>
      </trkpt>
      <trkpt lat="45.81915" lon="3.37757">
        <ele>353.6</ele>
        <time>2024-08-11T08:42:47Z</time>
      </trkpt>
      <trkpt lat="45.81908" lon="3.37753">
        <ele>353.4</ele>
        <time>2024-08-11T08:42:48Z</time>
      </trkpt>
      <trkpt lat="45.81901" lon="3.37749">
        <ele>353.4</ele>
        <time>2024-08-11T08:42:49Z</time>
      </trkpt>
      <trkpt lat="45.81894" lon="3.37745">
        <ele>353.4</ele>
        <time>2024-08-11T08:42:50Z</time>
      </trkpt>
      <trkpt lat="45.81887" lon="3.37741">
        <ele>353.4</ele>
        <time>2024-08-11T08:42:51Z</time>
      </trkpt>
      <trkpt lat="45.81879" lon="3.37737">
        <ele>353.2</ele>
        <time>2024-08-11T08:42:52Z</time>
      </trkpt>
      <trkpt lat="45.81872" lon="3.37733">
        <ele>353.2</ele>
        <time>2024-08-11T08:42:53Z</time>
      </trkpt>
      <trkpt lat="45.81864" lon="3.37729">
        <ele>353</ele>
        <time>2024-08-11T08:42:54Z</time>
      </trkpt>
      <trkpt lat="45.81856" lon="3.37725">
        <ele>353</ele>
        <time>2024-08-11T08:42:55Z</time>
      </trkpt>
      <trkpt lat="45.81849" lon="3.37721">
        <ele>352.8</ele>
        <time>2024-08-11T08:42:56Z</time>
      </trkpt>
      <trkpt lat="45.81841" lon="3.37716">
        <ele>352.8</ele>
        <time>2024-08-11T08:42:57Z</time>
      </trkpt>
      <trkpt lat="45.81833" lon="3.37712">
        <ele>352.6</ele>
        <time>2024-08-11T08:42:58Z</time>
      </trkpt>
      <trkpt lat="45.81825" lon="3.37708">
        <ele>352.6</ele>
        <time>2024-08-11T08:42:59Z</time>
      </trkpt>
      <trkpt lat="45.81818" lon="3.37703">
        <ele>352.4</ele>
        <time>2024-08-11T08:43:00Z</time>
      </trkpt>
      <trkpt lat="45.8181" lon="3.37699">
        <ele>352.4</ele>
        <time>2024-08-11T08:43:01Z</time>
      </trkpt>
      <trkpt lat="45.81802" lon="3.37695">
        <ele>352.2</ele>
        <time>2024-08-11T08:43:02Z</time>
      </trkpt>
      <trkpt lat="45.81794" lon="3.37691">
        <ele>352.2</ele>
        <time>2024-08-11T08:43:03Z</time>
      </trkpt>
      <trkpt lat="45.81785" lon="3.37686">
        <ele>352</ele>
        <time>2024-08-11T08:43:04Z</time>
      </trkpt>
      <trkpt lat="45.81777" lon="3.37682">
        <ele>352</ele>
        <time>2024-08-11T08:43:05Z</time>
      </trkpt>
      <trkpt lat="45.81769" lon="3.37678">
        <ele>352</ele>
        <time>2024-08-11T08:43:06Z</time>
      </trkpt>
      <trkpt lat="45.81761" lon="3.37674">
        <ele>351.8</ele>
        <time>2024-08-11T08:43:07Z</time>
      </trkpt>
      <trkpt lat="45.81752" lon="3.3767">
        <ele>351.8</ele>
        <time>2024-08-11T08:43:08Z</time>
      </trkpt>
      <trkpt lat="45.81744" lon="3.37665">
        <ele>351.6</ele>
        <time>2024-08-11T08:43:09Z</time>
      </trkpt>
      <trkpt lat="45.81736" lon="3.37661">
        <ele>351.6</ele>
        <time>2024-08-11T08:43:10Z</time>
      </trkpt>
      <trkpt lat="45.81727" lon="3.37657">
        <ele>351.4</ele>
        <time>2024-08-11T08:43:11Z</time>
      </trkpt>
      <trkpt lat="45.81719" lon="3.37653">
        <ele>351.4</ele>
        <time>2024-08-11T08:43:12Z</time>
      </trkpt>
      <trkpt lat="45.81711" lon="3.37649">
        <ele>351.2</ele>
        <time>2024-08-11T08:43:13Z</time>
      </trkpt>
      <trkpt lat="45.81704" lon="3.37645">
        <ele>351.2</ele>
        <time>2024-08-11T08:43:14Z</time>
      </trkpt>
      <trkpt lat="45.81695" lon="3.37641">
        <ele>351</ele>
        <time>2024-08-11T08:43:15Z</time>
      </trkpt>
      <trkpt lat="45.81687" lon="3.37637">
        <ele>351</ele>
        <time>2024-08-11T08:43:16Z</time>
      </trkpt>
      <trkpt lat="45.81679" lon="3.37633">
        <ele>350.8</ele>
        <time>2024-08-11T08:43:17Z</time>
      </trkpt>
      <trkpt lat="45.81672" lon="3.37629">
        <ele>350.8</ele>
        <time>2024-08-11T08:43:18Z</time>
      </trkpt>
      <trkpt lat="45.81664" lon="3.37625">
        <ele>350.6</ele>
        <time>2024-08-11T08:43:19Z</time>
      </trkpt>
      <trkpt lat="45.81656" lon="3.37621">
        <ele>350.6</ele>
        <time>2024-08-11T08:43:20Z</time>
      </trkpt>
      <trkpt lat="45.81648" lon="3.37617">
        <ele>350.4</ele>
        <time>2024-08-11T08:43:21Z</time>
      </trkpt>
      <trkpt lat="45.8164" lon="3.37613">
        <ele>350.2</ele>
        <time>2024-08-11T08:43:22Z</time>
      </trkpt>
      <trkpt lat="45.81633" lon="3.37609">
        <ele>350.2</ele>
        <time>2024-08-11T08:43:23Z</time>
      </trkpt>
      <trkpt lat="45.81625" lon="3.37605">
        <ele>350</ele>
        <time>2024-08-11T08:43:24Z</time>
      </trkpt>
      <trkpt lat="45.81617" lon="3.37601">
        <ele>350</ele>
        <time>2024-08-11T08:43:25Z</time>
      </trkpt>
      <trkpt lat="45.81609" lon="3.37597">
        <ele>349.8</ele>
        <time>2024-08-11T08:43:26Z</time>
      </trkpt>
      <trkpt lat="45.81601" lon="3.37593">
        <ele>349.8</ele>
        <time>2024-08-11T08:43:27Z</time>
      </trkpt>
      <trkpt lat="45.81593" lon="3.37589">
        <ele>349.6</ele>
        <time>2024-08-11T08:43:28Z</time>
      </trkpt>
      <trkpt lat="45.81585" lon="3.37585">
        <ele>349.6</ele>
        <time>2024-08-11T08:43:29Z</time>
      </trkpt>
      <trkpt lat="45.81577" lon="3.37581">
        <ele>349.4</ele>
        <time>2024-08-11T08:43:30Z</time>
      </trkpt>
      <trkpt lat="45.81569" lon="3.37577">
        <ele>349.4</ele>
        <time>2024-08-11T08:43:31Z</time>
      </trkpt>
      <trkpt lat="45.81561" lon="3.37573">
        <ele>349.2</ele>
        <time>2024-08-11T08:43:32Z</time>
      </trkpt>
      <trkpt lat="45.81553" lon="3.37569">
        <ele>349.2</ele>
        <time>2024-08-11T08:43:33Z</time>
      </trkpt>
      <trkpt lat="45.81546" lon="3.37565">
        <ele>349.2</ele>
        <time>2024-08-11T08:43:34Z</time>
      </trkpt>
      <trkpt lat="45.81538" lon="3.37561">
        <ele>349</ele>
        <time>2024-08-11T08:43:35Z</time>
      </trkpt>
      <trkpt lat="45.8153" lon="3.37557">
        <ele>349</ele>
        <time>2024-08-11T08:43:36Z</time>
      </trkpt>
      <trkpt lat="45.81522" lon="3.37553">
        <ele>348.8</ele>
        <time>2024-08-11T08:43:37Z</time>
      </trkpt>
      <trkpt lat="45.81514" lon="3.37549">
        <ele>348.6</ele>
        <time>2024-08-11T08:43:38Z</time>
      </trkpt>
      <trkpt lat="45.81506" lon="3.37545">
        <ele>348.6</ele>
        <time>2024-08-11T08:43:39Z</time>
      </trkpt>
      <trkpt lat="45.81499" lon="3.37541">
        <ele>348.6</ele>
        <time>2024-08-11T08:43:40Z</time>
      </trkpt>
      <trkpt lat="45.81491" lon="3.37537">
        <ele>348.4</ele>
        <time>2024-08-11T08:43:41Z</time>
      </trkpt>
      <trkpt lat="45.81483" lon="3.37533">
        <ele>348.4</ele>
        <time>2024-08-11T08:43:42Z</time>
      </trkpt>
      <trkpt lat="45.81475" lon="3.37529">
        <ele>348.2</ele>
        <time>2024-08-11T08:43:43Z</time>
      </trkpt>
      <trkpt lat="45.81468" lon="3.37525">
        <ele>348.2</ele>
        <time>2024-08-11T08:43:44Z</time>
      </trkpt>
      <trkpt lat="45.8146" lon="3.37521">
        <ele>348</ele>
        <time>2024-08-11T08:43:45Z</time>
      </trkpt>
      <trkpt lat="45.81452" lon="3.37517">
        <ele>348</ele>
        <time>2024-08-11T08:43:46Z</time>
      </trkpt>
      <trkpt lat="45.81445" lon="3.37513">
        <ele>347.8</ele>
        <time>2024-08-11T08:43:47Z</time>
      </trkpt>
      <trkpt lat="45.81437" lon="3.3751">
        <ele>347.8</ele>
        <time>2024-08-11T08:43:48Z</time>
      </trkpt>
      <trkpt lat="45.8143" lon="3.37506">
        <ele>347.6</ele>
        <time>2024-08-11T08:43:49Z</time>
      </trkpt>
      <trkpt lat="45.81422" lon="3.37502">
        <ele>347.6</ele>
        <time>2024-08-11T08:43:50Z</time>
      </trkpt>
      <trkpt lat="45.81415" lon="3.37498">
        <ele>347.4</ele>
        <time>2024-08-11T08:43:51Z</time>
      </trkpt>
      <trkpt lat="45.81407" lon="3.37494">
        <ele>347.2</ele>
        <time>2024-08-11T08:43:52Z</time>
      </trkpt>
      <trkpt lat="45.814" lon="3.3749">
        <ele>347.2</ele>
        <time>2024-08-11T08:43:53Z</time>
      </trkpt>
      <trkpt lat="45.81392" lon="3.37486">
        <ele>347.2</ele>
        <time>2024-08-11T08:43:54Z</time>
      </trkpt>
      <trkpt lat="45.81384" lon="3.37482">
        <ele>347</ele>
        <time>2024-08-11T08:43:55Z</time>
      </trkpt>
      <trkpt lat="45.81377" lon="3.37478">
        <ele>347</ele>
        <time>2024-08-11T08:43:56Z</time>
      </trkpt>
      <trkpt lat="45.81369" lon="3.37474">
        <ele>346.8</ele>
        <time>2024-08-11T08:43:57Z</time>
      </trkpt>
      <trkpt lat="45.81362" lon="3.37471">
        <ele>346.8</ele>
        <time>2024-08-11T08:43:58Z</time>
      </trkpt>
      <trkpt lat="45.81354" lon="3.37468">
        <ele>346.6</ele>
        <time>2024-08-11T08:43:59Z</time>
      </trkpt>
      <trkpt lat="45.81346" lon="3.37466">
        <ele>346.6</ele>
        <time>2024-08-11T08:44:00Z</time>
      </trkpt>
      <trkpt lat="45.81338" lon="3.37464">
        <ele>346.4</ele>
        <time>2024-08-11T08:44:01Z</time>
      </trkpt>
      <trkpt lat="45.8133" lon="3.37463">
        <ele>346.4</ele>
        <time>2024-08-11T08:44:02Z</time>
      </trkpt>
      <trkpt lat="45.81322" lon="3.37461">
        <ele>346.2</ele>
        <time>2024-08-11T08:44:03Z</time>
      </trkpt>
      <trkpt lat="45.81313" lon="3.37459">
        <ele>346.2</ele>
        <time>2024-08-11T08:44:04Z</time>
      </trkpt>
      <trkpt lat="45.81305" lon="3.37457">
        <ele>346.2</ele>
        <time>2024-08-11T08:44:05Z</time>
      </trkpt>
      <trkpt lat="45.81297" lon="3.37455">
        <ele>346</ele>
        <time>2024-08-11T08:44:06Z</time>
      </trkpt>
      <trkpt lat="45.81289" lon="3.37453">
        <ele>346</ele>
        <time>2024-08-11T08:44:07Z</time>
      </trkpt>
      <trkpt lat="45.8128" lon="3.37452">
        <ele>345.8</ele>
        <time>2024-08-11T08:44:08Z</time>
      </trkpt>
      <trkpt lat="45.81272" lon="3.3745">
        <ele>345.8</ele>
        <time>2024-08-11T08:44:09Z</time>
      </trkpt>
      <trkpt lat="45.81264" lon="3.37448">
        <ele>345.8</ele>
        <time>2024-08-11T08:44:10Z</time>
      </trkpt>
      <trkpt lat="45.81255" lon="3.37446">
        <ele>345.6</ele>
        <time>2024-08-11T08:44:11Z</time>
      </trkpt>
      <trkpt lat="45.81247" lon="3.37444">
        <ele>345.6</ele>
        <time>2024-08-11T08:44:12Z</time>
      </trkpt>
      <trkpt lat="45.81239" lon="3.37442">
        <ele>345.4</ele>
        <time>2024-08-11T08:44:13Z</time>
      </trkpt>
      <trkpt lat="45.81231" lon="3.37441">
        <ele>345.4</ele>
        <time>2024-08-11T08:44:14Z</time>
      </trkpt>
      <trkpt lat="45.81222" lon="3.37439">
        <ele>345.2</ele>
        <time>2024-08-11T08:44:15Z</time>
      </trkpt>
      <trkpt lat="45.81214" lon="3.37437">
        <ele>345.2</ele>
        <time>2024-08-11T08:44:16Z</time>
      </trkpt>
      <trkpt lat="45.81206" lon="3.37435">
        <ele>345</ele>
        <time>2024-08-11T08:44:17Z</time>
      </trkpt>
      <trkpt lat="45.81198" lon="3.37433">
        <ele>345</ele>
        <time>2024-08-11T08:44:18Z</time>
      </trkpt>
      <trkpt lat="45.8119" lon="3.37432">
        <ele>345</ele>
        <time>2024-08-11T08:44:19Z</time>
      </trkpt>
      <trkpt lat="45.81182" lon="3.3743">
        <ele>344.8</ele>
        <time>2024-08-11T08:44:20Z</time>
      </trkpt>
      <trkpt lat="45.81174" lon="3.37428">
        <ele>344.8</ele>
        <time>2024-08-11T08:44:21Z</time>
      </trkpt>
      <trkpt lat="45.81166" lon="3.37426">
        <ele>344.6</ele>
        <time>2024-08-11T08:44:22Z</time>
      </trkpt>
      <trkpt lat="45.81158" lon="3.37424">
        <ele>344.6</ele>
        <time>2024-08-11T08:44:23Z</time>
      </trkpt>
      <trkpt lat="45.8115" lon="3.37423">
        <ele>344.4</ele>
        <time>2024-08-11T08:44:24Z</time>
      </trkpt>
      <trkpt lat="45.81142" lon="3.37421">
        <ele>344.4</ele>
        <time>2024-08-11T08:44:25Z</time>
      </trkpt>
      <trkpt lat="45.81134" lon="3.37419">
        <ele>344.4</ele>
        <time>2024-08-11T08:44:26Z</time>
      </trkpt>
      <trkpt lat="45.81127" lon="3.37417">
        <ele>344.4</ele>
        <time>2024-08-11T08:44:27Z</time>
      </trkpt>
      <trkpt lat="45.81119" lon="3.37416">
        <ele>344.2</ele>
        <time>2024-08-11T08:44:28Z</time>
      </trkpt>
      <trkpt lat="45.81111" lon="3.37414">
        <ele>344.2</ele>
        <time>2024-08-11T08:44:29Z</time>
      </trkpt>
      <trkpt lat="45.81103" lon="3.37412">
        <ele>344.2</ele>
        <time>2024-08-11T08:44:30Z</time>
      </trkpt>
      <trkpt lat="45.81095" lon="3.37411">
        <ele>344</ele>
        <time>2024-08-11T08:44:31Z</time>
      </trkpt>
      <trkpt lat="45.81087" lon="3.37409">
        <ele>344</ele>
        <time>2024-08-11T08:44:32Z</time>
      </trkpt>
      <trkpt lat="45.81079" lon="3.37407">
        <ele>344</ele>
        <time>2024-08-11T08:44:33Z</time>
      </trkpt>
      <trkpt lat="45.81071" lon="3.37405">
        <ele>343.8</ele>
        <time>2024-08-11T08:44:34Z</time>
      </trkpt>
      <trkpt lat="45.81064" lon="3.37404">
        <ele>343.8</ele>
        <time>2024-08-11T08:44:35Z</time>
      </trkpt>
      <trkpt lat="45.81056" lon="3.37402">
        <ele>343.8</ele>
        <time>2024-08-11T08:44:36Z</time>
      </trkpt>
      <trkpt lat="45.81048" lon="3.374">
        <ele>343.6</ele>
        <time>2024-08-11T08:44:37Z</time>
      </trkpt>
      <trkpt lat="45.8104" lon="3.37398">
        <ele>343.6</ele>
        <time>2024-08-11T08:44:38Z</time>
      </trkpt>
      <trkpt lat="45.81032" lon="3.37397">
        <ele>343.6</ele>
        <time>2024-08-11T08:44:39Z</time>
      </trkpt>
      <trkpt lat="45.81024" lon="3.37395">
        <ele>343.6</ele>
        <time>2024-08-11T08:44:40Z</time>
      </trkpt>
      <trkpt lat="45.81017" lon="3.37393">
        <ele>343.4</ele>
        <time>2024-08-11T08:44:41Z</time>
      </trkpt>
      <trkpt lat="45.81009" lon="3.37391">
        <ele>343.4</ele>
        <time>2024-08-11T08:44:42Z</time>
      </trkpt>
      <trkpt lat="45.81001" lon="3.3739">
        <ele>343.4</ele>
        <time>2024-08-11T08:44:43Z</time>
      </trkpt>
      <trkpt lat="45.80993" lon="3.37388">
        <ele>343.2</ele>
        <time>2024-08-11T08:44:44Z</time>
      </trkpt>
      <trkpt lat="45.80985" lon="3.37386">
        <ele>343.2</ele>
        <time>2024-08-11T08:44:45Z</time>
      </trkpt>
      <trkpt lat="45.80977" lon="3.37384">
        <ele>343.2</ele>
        <time>2024-08-11T08:44:46Z</time>
      </trkpt>
      <trkpt lat="45.80969" lon="3.37383">
        <ele>343</ele>
        <time>2024-08-11T08:44:47Z</time>
      </trkpt>
      <trkpt lat="45.80961" lon="3.37381">
        <ele>343</ele>
        <time>2024-08-11T08:44:48Z</time>
      </trkpt>
      <trkpt lat="45.80952" lon="3.37379">
        <ele>343</ele>
        <time>2024-08-11T08:44:49Z</time>
      </trkpt>
      <trkpt lat="45.80944" lon="3.37377">
        <ele>342.8</ele>
        <time>2024-08-11T08:44:50Z</time>
      </trkpt>
      <trkpt lat="45.80936" lon="3.37376">
        <ele>342.8</ele>
        <time>2024-08-11T08:44:51Z</time>
      </trkpt>
      <trkpt lat="45.80928" lon="3.37374">
        <ele>342.8</ele>
        <time>2024-08-11T08:44:52Z</time>
      </trkpt>
      <trkpt lat="45.8092" lon="3.37372">
        <ele>342.6</ele>
        <time>2024-08-11T08:44:53Z</time>
      </trkpt>
      <trkpt lat="45.80912" lon="3.37371">
        <ele>342.6</ele>
        <time>2024-08-11T08:44:54Z</time>
      </trkpt>
      <trkpt lat="45.80904" lon="3.37369">
        <ele>342.6</ele>
        <time>2024-08-11T08:44:55Z</time>
      </trkpt>
      <trkpt lat="45.80896" lon="3.37367">
        <ele>342.4</ele>
        <time>2024-08-11T08:44:56Z</time>
      </trkpt>
      <trkpt lat="45.80888" lon="3.37365">
        <ele>342.4</ele>
        <time>2024-08-11T08:44:57Z</time>
      </trkpt>
      <trkpt lat="45.8088" lon="3.37364">
        <ele>342.4</ele>
        <time>2024-08-11T08:44:58Z</time>
      </trkpt>
      <trkpt lat="45.80872" lon="3.37362">
        <ele>342.4</ele>
        <time>2024-08-11T08:44:59Z</time>
      </trkpt>
      <trkpt lat="45.80864" lon="3.3736">
        <ele>342.2</ele>
        <time>2024-08-11T08:45:00Z</time>
      </trkpt>
      <trkpt lat="45.80856" lon="3.37359">
        <ele>342.2</ele>
        <time>2024-08-11T08:45:01Z</time>
      </trkpt>
      <trkpt lat="45.80848" lon="3.37357">
        <ele>342</ele>
        <time>2024-08-11T08:45:02Z</time>
      </trkpt>
      <trkpt lat="45.8084" lon="3.37355">
        <ele>342</ele>
        <time>2024-08-11T08:45:03Z</time>
      </trkpt>
      <trkpt lat="45.80832" lon="3.37353">
        <ele>342</ele>
        <time>2024-08-11T08:45:04Z</time>
      </trkpt>
      <trkpt lat="45.80824" lon="3.37352">
        <ele>342</ele>
        <time>2024-08-11T08:45:05Z</time>
      </trkpt>
      <trkpt lat="45.80816" lon="3.3735">
        <ele>341.8</ele>
        <time>2024-08-11T08:45:06Z</time>
      </trkpt>
      <trkpt lat="45.80808" lon="3.37348">
        <ele>341.8</ele>
        <time>2024-08-11T08:45:07Z</time>
      </trkpt>
      <trkpt lat="45.808" lon="3.37347">
        <ele>341.8</ele>
        <time>2024-08-11T08:45:08Z</time>
      </trkpt>
      <trkpt lat="45.80792" lon="3.37345">
        <ele>341.8</ele>
        <time>2024-08-11T08:45:09Z</time>
      </trkpt>
      <trkpt lat="45.80785" lon="3.37343">
        <ele>341.6</ele>
        <time>2024-08-11T08:45:10Z</time>
      </trkpt>
      <trkpt lat="45.80777" lon="3.37342">
        <ele>341.6</ele>
        <time>2024-08-11T08:45:11Z</time>
      </trkpt>
      <trkpt lat="45.80769" lon="3.3734">
        <ele>341.6</ele>
        <time>2024-08-11T08:45:12Z</time>
      </trkpt>
      <trkpt lat="45.80762" lon="3.37338">
        <ele>341.6</ele>
        <time>2024-08-11T08:45:13Z</time>
      </trkpt>
      <trkpt lat="45.80754" lon="3.37337">
        <ele>341.4</ele>
        <time>2024-08-11T08:45:14Z</time>
      </trkpt>
      <trkpt lat="45.80746" lon="3.37335">
        <ele>341.4</ele>
        <time>2024-08-11T08:45:15Z</time>
      </trkpt>
      <trkpt lat="45.80738" lon="3.37333">
        <ele>341.2</ele>
        <time>2024-08-11T08:45:16Z</time>
      </trkpt>
      <trkpt lat="45.80731" lon="3.37332">
        <ele>341.2</ele>
        <time>2024-08-11T08:45:17Z</time>
      </trkpt>
      <trkpt lat="45.80723" lon="3.3733">
        <ele>341.2</ele>
        <time>2024-08-11T08:45:18Z</time>
      </trkpt>
      <trkpt lat="45.80715" lon="3.37328">
        <ele>341</ele>
        <time>2024-08-11T08:45:19Z</time>
      </trkpt>
      <trkpt lat="45.80707" lon="3.37327">
        <ele>341</ele>
        <time>2024-08-11T08:45:20Z</time>
      </trkpt>
      <trkpt lat="45.80699" lon="3.37325">
        <ele>340.8</ele>
        <time>2024-08-11T08:45:21Z</time>
      </trkpt>
      <trkpt lat="45.80692" lon="3.37323">
        <ele>340.8</ele>
        <time>2024-08-11T08:45:22Z</time>
      </trkpt>
      <trkpt lat="45.80684" lon="3.37322">
        <ele>340.6</ele>
        <time>2024-08-11T08:45:23Z</time>
      </trkpt>
      <trkpt lat="45.80676" lon="3.3732">
        <ele>340.6</ele>
        <time>2024-08-11T08:45:24Z</time>
      </trkpt>
      <trkpt lat="45.80668" lon="3.37318">
        <ele>340.4</ele>
        <time>2024-08-11T08:45:25Z</time>
      </trkpt>
      <trkpt lat="45.80661" lon="3.37315">
        <ele>340.4</ele>
        <time>2024-08-11T08:45:26Z</time>
      </trkpt>
      <trkpt lat="45.80653" lon="3.37312">
        <ele>340.2</ele>
        <time>2024-08-11T08:45:27Z</time>
      </trkpt>
      <trkpt lat="45.80646" lon="3.37308">
        <ele>340.2</ele>
        <time>2024-08-11T08:45:28Z</time>
      </trkpt>
      <trkpt lat="45.80638" lon="3.37305">
        <ele>340.2</ele>
        <time>2024-08-11T08:45:29Z</time>
      </trkpt>
      <trkpt lat="45.80631" lon="3.37302">
        <ele>340</ele>
        <time>2024-08-11T08:45:30Z</time>
      </trkpt>
      <trkpt lat="45.80623" lon="3.37299">
        <ele>340</ele>
        <time>2024-08-11T08:45:31Z</time>
      </trkpt>
      <trkpt lat="45.80616" lon="3.37296">
        <ele>339.8</ele>
        <time>2024-08-11T08:45:32Z</time>
      </trkpt>
      <trkpt lat="45.80608" lon="3.37292">
        <ele>339.8</ele>
        <time>2024-08-11T08:45:33Z</time>
      </trkpt>
      <trkpt lat="45.80601" lon="3.37289">
        <ele>339.6</ele>
        <time>2024-08-11T08:45:34Z</time>
      </trkpt>
      <trkpt lat="45.80593" lon="3.37286">
        <ele>339.6</ele>
        <time>2024-08-11T08:45:35Z</time>
      </trkpt>
      <trkpt lat="45.80586" lon="3.37283">
        <ele>339.6</ele>
        <time>2024-08-11T08:45:36Z</time>
      </trkpt>
      <trkpt lat="45.80578" lon="3.37279">
        <ele>339.4</ele>
        <time>2024-08-11T08:45:37Z</time>
      </trkpt>
      <trkpt lat="45.80571" lon="3.37276">
        <ele>339.4</ele>
        <time>2024-08-11T08:45:38Z</time>
      </trkpt>
      <trkpt lat="45.80563" lon="3.37273">
        <ele>339.4</ele>
        <time>2024-08-11T08:45:39Z</time>
      </trkpt>
      <trkpt lat="45.80556" lon="3.3727">
        <ele>339.2</ele>
        <time>2024-08-11T08:45:40Z</time>
      </trkpt>
      <trkpt lat="45.80548" lon="3.37267">
        <ele>339.2</ele>
        <time>2024-08-11T08:45:41Z</time>
      </trkpt>
      <trkpt lat="45.80541" lon="3.37263">
        <ele>339</ele>
        <time>2024-08-11T08:45:42Z</time>
      </trkpt>
      <trkpt lat="45.80533" lon="3.3726">
        <ele>339</ele>
        <time>2024-08-11T08:45:43Z</time>
      </trkpt>
      <trkpt lat="45.80526" lon="3.37257">
        <ele>338.8</ele>
        <time>2024-08-11T08:45:44Z</time>
      </trkpt>
      <trkpt lat="45.80518" lon="3.37254">
        <ele>338.8</ele>
        <time>2024-08-11T08:45:45Z</time>
      </trkpt>
      <trkpt lat="45.80511" lon="3.37251">
        <ele>338.8</ele>
        <time>2024-08-11T08:45:46Z</time>
      </trkpt>
      <trkpt lat="45.80504" lon="3.37248">
        <ele>338.6</ele>
        <time>2024-08-11T08:45:47Z</time>
      </trkpt>
      <trkpt lat="45.80496" lon="3.37244">
        <ele>338.6</ele>
        <time>2024-08-11T08:45:48Z</time>
      </trkpt>
      <trkpt lat="45.80489" lon="3.37241">
        <ele>338.6</ele>
        <time>2024-08-11T08:45:49Z</time>
      </trkpt>
      <trkpt lat="45.80482" lon="3.37236">
        <ele>338.4</ele>
        <time>2024-08-11T08:45:50Z</time>
      </trkpt>
      <trkpt lat="45.80475" lon="3.37231">
        <ele>338.4</ele>
        <time>2024-08-11T08:45:51Z</time>
      </trkpt>
      <trkpt lat="45.80468" lon="3.37226">
        <ele>338.4</ele>
        <time>2024-08-11T08:45:52Z</time>
      </trkpt>
      <trkpt lat="45.80461" lon="3.37222">
        <ele>338.2</ele>
        <time>2024-08-11T08:45:53Z</time>
      </trkpt>
      <trkpt lat="45.80454" lon="3.37217">
        <ele>338.2</ele>
        <time>2024-08-11T08:45:54Z</time>
      </trkpt>
      <trkpt lat="45.80447" lon="3.37212">
        <ele>338.2</ele>
        <time>2024-08-11T08:45:55Z</time>
      </trkpt>
      <trkpt lat="45.8044" lon="3.37207">
        <ele>338</ele>
        <time>2024-08-11T08:45:56Z</time>
      </trkpt>
      <trkpt lat="45.80433" lon="3.37202">
        <ele>338</ele>
        <time>2024-08-11T08:45:57Z</time>
      </trkpt>
      <trkpt lat="45.80426" lon="3.37198">
        <ele>338</ele>
        <time>2024-08-11T08:45:58Z</time>
      </trkpt>
      <trkpt lat="45.80419" lon="3.37193">
        <ele>337.8</ele>
        <time>2024-08-11T08:45:59Z</time>
      </trkpt>
      <trkpt lat="45.80412" lon="3.37188">
        <ele>337.8</ele>
        <time>2024-08-11T08:46:00Z</time>
      </trkpt>
      <trkpt lat="45.80405" lon="3.37182">
        <ele>337.8</ele>
        <time>2024-08-11T08:46:01Z</time>
      </trkpt>
      <trkpt lat="45.80399" lon="3.37177">
        <ele>337.6</ele>
        <time>2024-08-11T08:46:02Z</time>
      </trkpt>
      <trkpt lat="45.80392" lon="3.37171">
        <ele>337.6</ele>
        <time>2024-08-11T08:46:03Z</time>
      </trkpt>
      <trkpt lat="45.80385" lon="3.37166">
        <ele>337.6</ele>
        <time>2024-08-11T08:46:04Z</time>
      </trkpt>
      <trkpt lat="45.80378" lon="3.3716">
        <ele>337.6</ele>
        <time>2024-08-11T08:46:05Z</time>
      </trkpt>
      <trkpt lat="45.80371" lon="3.37155">
        <ele>337.4</ele>
        <time>2024-08-11T08:46:06Z</time>
      </trkpt>
      <trkpt lat="45.80364" lon="3.37149">
        <ele>337.4</ele>
        <time>2024-08-11T08:46:07Z</time>
      </trkpt>
      <trkpt lat="45.80357" lon="3.37144">
        <ele>337.4</ele>
        <time>2024-08-11T08:46:08Z</time>
      </trkpt>
      <trkpt lat="45.8035" lon="3.37139">
        <ele>337.2</ele>
        <time>2024-08-11T08:46:09Z</time>
      </trkpt>
      <trkpt lat="45.80343" lon="3.37133">
        <ele>337.2</ele>
        <time>2024-08-11T08:46:10Z</time>
      </trkpt>
      <trkpt lat="45.80336" lon="3.37127">
        <ele>337.2</ele>
        <time>2024-08-11T08:46:11Z</time>
      </trkpt>
      <trkpt lat="45.8033" lon="3.37122">
        <ele>337.2</ele>
        <time>2024-08-11T08:46:12Z</time>
      </trkpt>
      <trkpt lat="45.80323" lon="3.37116">
        <ele>337</ele>
        <time>2024-08-11T08:46:13Z</time>
      </trkpt>
      <trkpt lat="45.80316" lon="3.37111">
        <ele>337</ele>
        <time>2024-08-11T08:46:14Z</time>
      </trkpt>
      <trkpt lat="45.80309" lon="3.37105">
        <ele>337</ele>
        <time>2024-08-11T08:46:15Z</time>
      </trkpt>
      <trkpt lat="45.80303" lon="3.37099">
        <ele>337</ele>
        <time>2024-08-11T08:46:16Z</time>
      </trkpt>
      <trkpt lat="45.80296" lon="3.37094">
        <ele>337</ele>
        <time>2024-08-11T08:46:17Z</time>
      </trkpt>
      <trkpt lat="45.80289" lon="3.37088">
        <ele>337</ele>
        <time>2024-08-11T08:46:18Z</time>
      </trkpt>
      <trkpt lat="45.80283" lon="3.37083">
        <ele>337</ele>
        <time>2024-08-11T08:46:19Z</time>
      </trkpt>
      <trkpt lat="45.80277" lon="3.37078">
        <ele>337</ele>
        <time>2024-08-11T08:46:20Z</time>
      </trkpt>
      <trkpt lat="45.8027" lon="3.37072">
        <ele>337</ele>
        <time>2024-08-11T08:46:21Z</time>
      </trkpt>
      <trkpt lat="45.8027" lon="3.37072">
        <ele>337</ele>
        <time>2024-08-11T08:46:22Z</time>
      </trkpt>
      <trkpt lat="45.80251" lon="3.37056">
        <ele>337</ele>
        <time>2024-08-11T08:46:23Z</time>
      </trkpt>
      <trkpt lat="45.80251" lon="3.37056">
        <ele>337</ele>
        <time>2024-08-11T08:46:24Z</time>
      </trkpt>
      <trkpt lat="45.80244" lon="3.37051">
        <ele>337</ele>
        <time>2024-08-11T08:46:25Z</time>
      </trkpt>
      <trkpt lat="45.80238" lon="3.37046">
        <ele>337</ele>
        <time>2024-08-11T08:46:26Z</time>
      </trkpt>
      <trkpt lat="45.80232" lon="3.3704">
        <ele>337</ele>
        <time>2024-08-11T08:46:27Z</time>
      </trkpt>
      <trkpt lat="45.80225" lon="3.37035">
        <ele>337</ele>
        <time>2024-08-11T08:46:28Z</time>
      </trkpt>
      <trkpt lat="45.80219" lon="3.3703">
        <ele>337</ele>
        <time>2024-08-11T08:46:29Z</time>
      </trkpt>
      <trkpt lat="45.80212" lon="3.37024">
        <ele>337</ele>
        <time>2024-08-11T08:46:30Z</time>
      </trkpt>
      <trkpt lat="45.80206" lon="3.37019">
        <ele>337</ele>
        <time>2024-08-11T08:46:31Z</time>
      </trkpt>
      <trkpt lat="45.802" lon="3.37014">
        <ele>337</ele>
        <time>2024-08-11T08:46:32Z</time>
      </trkpt>
      <trkpt lat="45.80193" lon="3.37008">
        <ele>336.8</ele>
        <time>2024-08-11T08:46:33Z</time>
      </trkpt>
      <trkpt lat="45.80187" lon="3.37003">
        <ele>336.8</ele>
        <time>2024-08-11T08:46:34Z</time>
      </trkpt>
      <trkpt lat="45.80181" lon="3.36998">
        <ele>336.8</ele>
        <time>2024-08-11T08:46:35Z</time>
      </trkpt>
      <trkpt lat="45.80174" lon="3.36993">
        <ele>336.8</ele>
        <time>2024-08-11T08:46:36Z</time>
      </trkpt>
      <trkpt lat="45.80168" lon="3.36987">
        <ele>336.8</ele>
        <time>2024-08-11T08:46:37Z</time>
      </trkpt>
      <trkpt lat="45.80162" lon="3.36982">
        <ele>336.8</ele>
        <time>2024-08-11T08:46:38Z</time>
      </trkpt>
      <trkpt lat="45.80155" lon="3.36977">
        <ele>336.6</ele>
        <time>2024-08-11T08:46:39Z</time>
      </trkpt>
      <trkpt lat="45.80149" lon="3.36971">
        <ele>336.6</ele>
        <time>2024-08-11T08:46:40Z</time>
      </trkpt>
      <trkpt lat="45.80142" lon="3.36966">
        <ele>336.6</ele>
        <time>2024-08-11T08:46:41Z</time>
      </trkpt>
      <trkpt lat="45.80136" lon="3.36961">
        <ele>336.6</ele>
        <time>2024-08-11T08:46:42Z</time>
      </trkpt>
      <trkpt lat="45.80129" lon="3.36955">
        <ele>336.6</ele>
        <time>2024-08-11T08:46:43Z</time>
      </trkpt>
      <trkpt lat="45.80123" lon="3.3695">
        <ele>336.4</ele>
        <time>2024-08-11T08:46:44Z</time>
      </trkpt>
      <trkpt lat="45.80116" lon="3.36945">
        <ele>336.4</ele>
        <time>2024-08-11T08:46:45Z</time>
      </trkpt>
      <trkpt lat="45.8011" lon="3.36939">
        <ele>336.4</ele>
        <time>2024-08-11T08:46:46Z</time>
      </trkpt>
      <trkpt lat="45.80104" lon="3.36934">
        <ele>336.4</ele>
        <time>2024-08-11T08:46:47Z</time>
      </trkpt>
      <trkpt lat="45.80097" lon="3.36928">
        <ele>336.4</ele>
        <time>2024-08-11T08:46:48Z</time>
      </trkpt>
      <trkpt lat="45.80091" lon="3.36923">
        <ele>336.4</ele>
        <time>2024-08-11T08:46:49Z</time>
      </trkpt>
      <trkpt lat="45.80084" lon="3.36918">
        <ele>336.4</ele>
        <time>2024-08-11T08:46:50Z</time>
      </trkpt>
      <trkpt lat="45.80078" lon="3.36912">
        <ele>336.4</ele>
        <time>2024-08-11T08:46:51Z</time>
      </trkpt>
      <trkpt lat="45.80071" lon="3.36907">
        <ele>336.4</ele>
        <time>2024-08-11T08:46:52Z</time>
      </trkpt>
      <trkpt lat="45.80065" lon="3.36901">
        <ele>336.2</ele>
        <time>2024-08-11T08:46:53Z</time>
      </trkpt>
      <trkpt lat="45.80058" lon="3.36896">
        <ele>336.4</ele>
        <time>2024-08-11T08:46:54Z</time>
      </trkpt>
      <trkpt lat="45.80052" lon="3.36891">
        <ele>336.2</ele>
        <time>2024-08-11T08:46:55Z</time>
      </trkpt>
      <trkpt lat="45.80045" lon="3.36885">
        <ele>336.2</ele>
        <time>2024-08-11T08:46:56Z</time>
      </trkpt>
      <trkpt lat="45.80039" lon="3.3688">
        <ele>336.2</ele>
        <time>2024-08-11T08:46:57Z</time>
      </trkpt>
      <trkpt lat="45.80032" lon="3.36875">
        <ele>336.2</ele>
        <time>2024-08-11T08:46:58Z</time>
      </trkpt>
      <trkpt lat="45.80026" lon="3.36869">
        <ele>336.2</ele>
        <time>2024-08-11T08:46:59Z</time>
      </trkpt>
      <trkpt lat="45.8002" lon="3.36864">
        <ele>336.2</ele>
        <time>2024-08-11T08:47:00Z</time>
      </trkpt>
      <trkpt lat="45.80013" lon="3.36859">
        <ele>336.2</ele>
        <time>2024-08-11T08:47:01Z</time>
      </trkpt>
      <trkpt lat="45.80006" lon="3.36853">
        <ele>336.2</ele>
        <time>2024-08-11T08:47:02Z</time>
      </trkpt>
      <trkpt lat="45.8" lon="3.36848">
        <ele>336.2</ele>
        <time>2024-08-11T08:47:03Z</time>
      </trkpt>
      <trkpt lat="45.79993" lon="3.36842">
        <ele>336</ele>
        <time>2024-08-11T08:47:04Z</time>
      </trkpt>
      <trkpt lat="45.79987" lon="3.36836">
        <ele>336</ele>
        <time>2024-08-11T08:47:05Z</time>
      </trkpt>
      <trkpt lat="45.7998" lon="3.36831">
        <ele>336</ele>
        <time>2024-08-11T08:47:06Z</time>
      </trkpt>
      <trkpt lat="45.79974" lon="3.36826">
        <ele>336</ele>
        <time>2024-08-11T08:47:07Z</time>
      </trkpt>
      <trkpt lat="45.79967" lon="3.3682">
        <ele>335.8</ele>
        <time>2024-08-11T08:47:08Z</time>
      </trkpt>
      <trkpt lat="45.7996" lon="3.36815">
        <ele>335.8</ele>
        <time>2024-08-11T08:47:09Z</time>
      </trkpt>
      <trkpt lat="45.79953" lon="3.36809">
        <ele>335.6</ele>
        <time>2024-08-11T08:47:10Z</time>
      </trkpt>
      <trkpt lat="45.79946" lon="3.36804">
        <ele>335.6</ele>
        <time>2024-08-11T08:47:11Z</time>
      </trkpt>
      <trkpt lat="45.79939" lon="3.36798">
        <ele>335.4</ele>
        <time>2024-08-11T08:47:12Z</time>
      </trkpt>
      <trkpt lat="45.79932" lon="3.36793">
        <ele>335.4</ele>
        <time>2024-08-11T08:47:13Z</time>
      </trkpt>
      <trkpt lat="45.79925" lon="3.36787">
        <ele>335.2</ele>
        <time>2024-08-11T08:47:14Z</time>
      </trkpt>
      <trkpt lat="45.79918" lon="3.36781">
        <ele>335.2</ele>
        <time>2024-08-11T08:47:15Z</time>
      </trkpt>
      <trkpt lat="45.7991" lon="3.36775">
        <ele>335.2</ele>
        <time>2024-08-11T08:47:16Z</time>
      </trkpt>
      <trkpt lat="45.79903" lon="3.36769">
        <ele>335</ele>
        <time>2024-08-11T08:47:17Z</time>
      </trkpt>
      <trkpt lat="45.79895" lon="3.36763">
        <ele>335</ele>
        <time>2024-08-11T08:47:18Z</time>
      </trkpt>
      <trkpt lat="45.79887" lon="3.36756">
        <ele>334.8</ele>
        <time>2024-08-11T08:47:19Z</time>
      </trkpt>
      <trkpt lat="45.7988" lon="3.3675">
        <ele>334.8</ele>
        <time>2024-08-11T08:47:20Z</time>
      </trkpt>
      <trkpt lat="45.79872" lon="3.36744">
        <ele>334.8</ele>
        <time>2024-08-11T08:47:21Z</time>
      </trkpt>
      <trkpt lat="45.79864" lon="3.36738">
        <ele>334.6</ele>
        <time>2024-08-11T08:47:22Z</time>
      </trkpt>
      <trkpt lat="45.79856" lon="3.36731">
        <ele>334.4</ele>
        <time>2024-08-11T08:47:23Z</time>
      </trkpt>
      <trkpt lat="45.79847" lon="3.36725">
        <ele>334.4</ele>
        <time>2024-08-11T08:47:24Z</time>
      </trkpt>
      <trkpt lat="45.79839" lon="3.36718">
        <ele>334.4</ele>
        <time>2024-08-11T08:47:25Z</time>
      </trkpt>
      <trkpt lat="45.79831" lon="3.36712">
        <ele>334.2</ele>
        <time>2024-08-11T08:47:26Z</time>
      </trkpt>
      <trkpt lat="45.79823" lon="3.36705">
        <ele>334.2</ele>
        <time>2024-08-11T08:47:27Z</time>
      </trkpt>
      <trkpt lat="45.79815" lon="3.36698">
        <ele>334</ele>
        <time>2024-08-11T08:47:28Z</time>
      </trkpt>
      <trkpt lat="45.79806" lon="3.36692">
        <ele>334</ele>
        <time>2024-08-11T08:47:29Z</time>
      </trkpt>
      <trkpt lat="45.79798" lon="3.36685">
        <ele>333.8</ele>
        <time>2024-08-11T08:47:30Z</time>
      </trkpt>
      <trkpt lat="45.7979" lon="3.36678">
        <ele>333.8</ele>
        <time>2024-08-11T08:47:31Z</time>
      </trkpt>
      <trkpt lat="45.79781" lon="3.36672">
        <ele>333.8</ele>
        <time>2024-08-11T08:47:32Z</time>
      </trkpt>
      <trkpt lat="45.79773" lon="3.36665">
        <ele>333.6</ele>
        <time>2024-08-11T08:47:33Z</time>
      </trkpt>
      <trkpt lat="45.79765" lon="3.36658">
        <ele>333.6</ele>
        <time>2024-08-11T08:47:34Z</time>
      </trkpt>
      <trkpt lat="45.79756" lon="3.36652">
        <ele>333.4</ele>
        <time>2024-08-11T08:47:35Z</time>
      </trkpt>
      <trkpt lat="45.79748" lon="3.36645">
        <ele>333.4</ele>
        <time>2024-08-11T08:47:36Z</time>
      </trkpt>
      <trkpt lat="45.7974" lon="3.36638">
        <ele>333.2</ele>
        <time>2024-08-11T08:47:37Z</time>
      </trkpt>
      <trkpt lat="45.79732" lon="3.36631">
        <ele>333</ele>
        <time>2024-08-11T08:47:38Z</time>
      </trkpt>
      <trkpt lat="45.79724" lon="3.36624">
        <ele>333</ele>
        <time>2024-08-11T08:47:39Z</time>
      </trkpt>
      <trkpt lat="45.79716" lon="3.36617">
        <ele>332.8</ele>
        <time>2024-08-11T08:47:40Z</time>
      </trkpt>
      <trkpt lat="45.79708" lon="3.36611">
        <ele>332.8</ele>
        <time>2024-08-11T08:47:41Z</time>
      </trkpt>
      <trkpt lat="45.79699" lon="3.36604">
        <ele>332.6</ele>
        <time>2024-08-11T08:47:42Z</time>
      </trkpt>
      <trkpt lat="45.79691" lon="3.36597">
        <ele>332.6</ele>
        <time>2024-08-11T08:47:43Z</time>
      </trkpt>
      <trkpt lat="45.79683" lon="3.3659">
        <ele>332.4</ele>
        <time>2024-08-11T08:47:44Z</time>
      </trkpt>
      <trkpt lat="45.79675" lon="3.36583">
        <ele>332.4</ele>
        <time>2024-08-11T08:47:45Z</time>
      </trkpt>
      <trkpt lat="45.79666" lon="3.36576">
        <ele>332.2</ele>
        <time>2024-08-11T08:47:46Z</time>
      </trkpt>
      <trkpt lat="45.79658" lon="3.36569">
        <ele>332</ele>
        <time>2024-08-11T08:47:47Z</time>
      </trkpt>
      <trkpt lat="45.7965" lon="3.36562">
        <ele>332</ele>
        <time>2024-08-11T08:47:48Z</time>
      </trkpt>
      <trkpt lat="45.79642" lon="3.36556">
        <ele>331.8</ele>
        <time>2024-08-11T08:47:49Z</time>
      </trkpt>
      <trkpt lat="45.79634" lon="3.36549">
        <ele>331.6</ele>
        <time>2024-08-11T08:47:50Z</time>
      </trkpt>
      <trkpt lat="45.79626" lon="3.36542">
        <ele>331.6</ele>
        <time>2024-08-11T08:47:51Z</time>
      </trkpt>
      <trkpt lat="45.79618" lon="3.36535">
        <ele>331.4</ele>
        <time>2024-08-11T08:47:52Z</time>
      </trkpt>
      <trkpt lat="45.7961" lon="3.36529">
        <ele>331.2</ele>
        <time>2024-08-11T08:47:53Z</time>
      </trkpt>
      <trkpt lat="45.79602" lon="3.36522">
        <ele>331.2</ele>
        <time>2024-08-11T08:47:54Z</time>
      </trkpt>
      <trkpt lat="45.79594" lon="3.36516">
        <ele>331</ele>
        <time>2024-08-11T08:47:55Z</time>
      </trkpt>
      <trkpt lat="45.79586" lon="3.3651">
        <ele>331</ele>
        <time>2024-08-11T08:47:56Z</time>
      </trkpt>
      <trkpt lat="45.79579" lon="3.36504">
        <ele>330.8</ele>
        <time>2024-08-11T08:47:57Z</time>
      </trkpt>
      <trkpt lat="45.79571" lon="3.36499">
        <ele>330.8</ele>
        <time>2024-08-11T08:47:58Z</time>
      </trkpt>
      <trkpt lat="45.79563" lon="3.36493">
        <ele>330.6</ele>
        <time>2024-08-11T08:47:59Z</time>
      </trkpt>
      <trkpt lat="45.79556" lon="3.36487">
        <ele>330.6</ele>
        <time>2024-08-11T08:48:00Z</time>
      </trkpt>
      <trkpt lat="45.79548" lon="3.36482">
        <ele>330.6</ele>
        <time>2024-08-11T08:48:01Z</time>
      </trkpt>
      <trkpt lat="45.79541" lon="3.36476">
        <ele>330.6</ele>
        <time>2024-08-11T08:48:02Z</time>
      </trkpt>
      <trkpt lat="45.79533" lon="3.36471">
        <ele>330.6</ele>
        <time>2024-08-11T08:48:03Z</time>
      </trkpt>
      <trkpt lat="45.79526" lon="3.3647">
        <ele>330.6</ele>
        <time>2024-08-11T08:48:04Z</time>
      </trkpt>
      <trkpt lat="45.79518" lon="3.36469">
        <ele>330.6</ele>
        <time>2024-08-11T08:48:05Z</time>
      </trkpt>
      <trkpt lat="45.79511" lon="3.36468">
        <ele>330.6</ele>
        <time>2024-08-11T08:48:06Z</time>
      </trkpt>
      <trkpt lat="45.79504" lon="3.36466">
        <ele>330.6</ele>
        <time>2024-08-11T08:48:07Z</time>
      </trkpt>
      <trkpt lat="45.79497" lon="3.36465">
        <ele>330.6</ele>
        <time>2024-08-11T08:48:08Z</time>
      </trkpt>
      <trkpt lat="45.7949" lon="3.36464">
        <ele>330.6</ele>
        <time>2024-08-11T08:48:09Z</time>
      </trkpt>
      <trkpt lat="45.79483" lon="3.36463">
        <ele>330.6</ele>
        <time>2024-08-11T08:48:10Z</time>
      </trkpt>
      <trkpt lat="45.79476" lon="3.36462">
        <ele>330.6</ele>
        <time>2024-08-11T08:48:11Z</time>
      </trkpt>
      <trkpt lat="45.79469" lon="3.36461">
        <ele>330.4</ele>
        <time>2024-08-11T08:48:12Z</time>
      </trkpt>
      <trkpt lat="45.79462" lon="3.3646">
        <ele>330.6</ele>
        <time>2024-08-11T08:48:13Z</time>
      </trkpt>
      <trkpt lat="45.79456" lon="3.36459">
        <ele>330.6</ele>
        <time>2024-08-11T08:48:14Z</time>
      </trkpt>
      <trkpt lat="45.79449" lon="3.36458">
        <ele>330.4</ele>
        <time>2024-08-11T08:48:15Z</time>
      </trkpt>
      <trkpt lat="45.79443" lon="3.36457">
        <ele>330.4</ele>
        <time>2024-08-11T08:48:16Z</time>
      </trkpt>
      <trkpt lat="45.79436" lon="3.36456">
        <ele>330.4</ele>
        <time>2024-08-11T08:48:17Z</time>
      </trkpt>
      <trkpt lat="45.7943" lon="3.36455">
        <ele>330.4</ele>
        <time>2024-08-11T08:48:18Z</time>
      </trkpt>
      <trkpt lat="45.79423" lon="3.36454">
        <ele>330.4</ele>
        <time>2024-08-11T08:48:19Z</time>
      </trkpt>
      <trkpt lat="45.79417" lon="3.36453">
        <ele>330.4</ele>
        <time>2024-08-11T08:48:20Z</time>
      </trkpt>
      <trkpt lat="45.79411" lon="3.36452">
        <ele>330.4</ele>
        <time>2024-08-11T08:48:21Z</time>
      </trkpt>
      <trkpt lat="45.79405" lon="3.36451">
        <ele>330.4</ele>
        <time>2024-08-11T08:48:22Z</time>
      </trkpt>
      <trkpt lat="45.79399" lon="3.3645">
        <ele>330.4</ele>
        <time>2024-08-11T08:48:23Z</time>
      </trkpt>
      <trkpt lat="45.79393" lon="3.36449">
        <ele>330.4</ele>
        <time>2024-08-11T08:48:24Z</time>
      </trkpt>
      <trkpt lat="45.79387" lon="3.36448">
        <ele>330.6</ele>
        <time>2024-08-11T08:48:25Z</time>
      </trkpt>
      <trkpt lat="45.79381" lon="3.36447">
        <ele>330.2</ele>
        <time>2024-08-11T08:48:26Z</time>
      </trkpt>
      <trkpt lat="45.79376" lon="3.36446">
        <ele>330.4</ele>
        <time>2024-08-11T08:48:27Z</time>
      </trkpt>
      <trkpt lat="45.7937" lon="3.36445">
        <ele>330.2</ele>
        <time>2024-08-11T08:48:28Z</time>
      </trkpt>
      <trkpt lat="45.79364" lon="3.36444">
        <ele>330.4</ele>
        <time>2024-08-11T08:48:29Z</time>
      </trkpt>
      <trkpt lat="45.79358" lon="3.36443">
        <ele>330.4</ele>
        <time>2024-08-11T08:48:30Z</time>
      </trkpt>
      <trkpt lat="45.79352" lon="3.36442">
        <ele>330.6</ele>
        <time>2024-08-11T08:48:31Z</time>
      </trkpt>
      <trkpt lat="45.79346" lon="3.36441">
        <ele>330.6</ele>
        <time>2024-08-11T08:48:32Z</time>
      </trkpt>
      <trkpt lat="45.7934" lon="3.36441">
        <ele>330.6</ele>
        <time>2024-08-11T08:48:33Z</time>
      </trkpt>
      <trkpt lat="45.79334" lon="3.3644">
        <ele>330.6</ele>
        <time>2024-08-11T08:48:34Z</time>
      </trkpt>
      <trkpt lat="45.79329" lon="3.36439">
        <ele>330.6</ele>
        <time>2024-08-11T08:48:35Z</time>
      </trkpt>
      <trkpt lat="45.79323" lon="3.36438">
        <ele>330.6</ele>
        <time>2024-08-11T08:48:36Z</time>
      </trkpt>
      <trkpt lat="45.79317" lon="3.36436">
        <ele>330.6</ele>
        <time>2024-08-11T08:48:37Z</time>
      </trkpt>
      <trkpt lat="45.79311" lon="3.36434">
        <ele>330.6</ele>
        <time>2024-08-11T08:48:38Z</time>
      </trkpt>
      <trkpt lat="45.79305" lon="3.36432">
        <ele>330.6</ele>
        <time>2024-08-11T08:48:39Z</time>
      </trkpt>
      <trkpt lat="45.79299" lon="3.36429">
        <ele>330.8</ele>
        <time>2024-08-11T08:48:40Z</time>
      </trkpt>
      <trkpt lat="45.79293" lon="3.36427">
        <ele>330.8</ele>
        <time>2024-08-11T08:48:41Z</time>
      </trkpt>
      <trkpt lat="45.79287" lon="3.36424">
        <ele>330.8</ele>
        <time>2024-08-11T08:48:42Z</time>
      </trkpt>
      <trkpt lat="45.7928" lon="3.36422">
        <ele>330.8</ele>
        <time>2024-08-11T08:48:43Z</time>
      </trkpt>
      <trkpt lat="45.79275" lon="3.3642">
        <ele>330.8</ele>
        <time>2024-08-11T08:48:44Z</time>
      </trkpt>
      <trkpt lat="45.79268" lon="3.36417">
        <ele>330.8</ele>
        <time>2024-08-11T08:48:45Z</time>
      </trkpt>
      <trkpt lat="45.79262" lon="3.36415">
        <ele>330.8</ele>
        <time>2024-08-11T08:48:46Z</time>
      </trkpt>
      <trkpt lat="45.79256" lon="3.36413">
        <ele>330.8</ele>
        <time>2024-08-11T08:48:47Z</time>
      </trkpt>
      <trkpt lat="45.7925" lon="3.3641">
        <ele>330.8</ele>
        <time>2024-08-11T08:48:48Z</time>
      </trkpt>
      <trkpt lat="45.79244" lon="3.36408">
        <ele>330.8</ele>
        <time>2024-08-11T08:48:49Z</time>
      </trkpt>
      <trkpt lat="45.79238" lon="3.36405">
        <ele>330.8</ele>
        <time>2024-08-11T08:48:50Z</time>
      </trkpt>
      <trkpt lat="45.79232" lon="3.36403">
        <ele>330.8</ele>
        <time>2024-08-11T08:48:51Z</time>
      </trkpt>
      <trkpt lat="45.79226" lon="3.364">
        <ele>330.8</ele>
        <time>2024-08-11T08:48:52Z</time>
      </trkpt>
      <trkpt lat="45.7922" lon="3.36398">
        <ele>330.8</ele>
        <time>2024-08-11T08:48:53Z</time>
      </trkpt>
      <trkpt lat="45.79213" lon="3.36395">
        <ele>330.8</ele>
        <time>2024-08-11T08:48:54Z</time>
      </trkpt>
      <trkpt lat="45.79207" lon="3.36393">
        <ele>330.8</ele>
        <time>2024-08-11T08:48:55Z</time>
      </trkpt>
      <trkpt lat="45.79201" lon="3.3639">
        <ele>330.8</ele>
        <time>2024-08-11T08:48:56Z</time>
      </trkpt>
      <trkpt lat="45.79195" lon="3.36387">
        <ele>330.8</ele>
        <time>2024-08-11T08:48:57Z</time>
      </trkpt>
      <trkpt lat="45.79188" lon="3.36385">
        <ele>330.8</ele>
        <time>2024-08-11T08:48:58Z</time>
      </trkpt>
      <trkpt lat="45.79182" lon="3.36382">
        <ele>330.8</ele>
        <time>2024-08-11T08:48:59Z</time>
      </trkpt>
      <trkpt lat="45.79176" lon="3.3638">
        <ele>330.8</ele>
        <time>2024-08-11T08:49:00Z</time>
      </trkpt>
      <trkpt lat="45.79169" lon="3.36377">
        <ele>330.8</ele>
        <time>2024-08-11T08:49:01Z</time>
      </trkpt>
      <trkpt lat="45.79163" lon="3.36374">
        <ele>330.8</ele>
        <time>2024-08-11T08:49:02Z</time>
      </trkpt>
      <trkpt lat="45.79157" lon="3.36372">
        <ele>330.8</ele>
        <time>2024-08-11T08:49:03Z</time>
      </trkpt>
      <trkpt lat="45.7915" lon="3.36369">
        <ele>330.8</ele>
        <time>2024-08-11T08:49:04Z</time>
      </trkpt>
      <trkpt lat="45.79144" lon="3.36367">
        <ele>331</ele>
        <time>2024-08-11T08:49:05Z</time>
      </trkpt>
      <trkpt lat="45.79138" lon="3.36364">
        <ele>331</ele>
        <time>2024-08-11T08:49:06Z</time>
      </trkpt>
      <trkpt lat="45.79131" lon="3.36361">
        <ele>331</ele>
        <time>2024-08-11T08:49:07Z</time>
      </trkpt>
      <trkpt lat="45.79125" lon="3.36359">
        <ele>330.8</ele>
        <time>2024-08-11T08:49:08Z</time>
      </trkpt>
      <trkpt lat="45.79119" lon="3.36356">
        <ele>330.8</ele>
        <time>2024-08-11T08:49:09Z</time>
      </trkpt>
      <trkpt lat="45.79112" lon="3.36354">
        <ele>330.8</ele>
        <time>2024-08-11T08:49:10Z</time>
      </trkpt>
      <trkpt lat="45.79106" lon="3.36351">
        <ele>330.8</ele>
        <time>2024-08-11T08:49:11Z</time>
      </trkpt>
      <trkpt lat="45.791" lon="3.36348">
        <ele>330.8</ele>
        <time>2024-08-11T08:49:12Z</time>
      </trkpt>
      <trkpt lat="45.79093" lon="3.36346">
        <ele>330.8</ele>
        <time>2024-08-11T08:49:13Z</time>
      </trkpt>
      <trkpt lat="45.79087" lon="3.36343">
        <ele>330.8</ele>
        <time>2024-08-11T08:49:14Z</time>
      </trkpt>
      <trkpt lat="45.79081" lon="3.3634">
        <ele>330.8</ele>
        <time>2024-08-11T08:49:15Z</time>
      </trkpt>
      <trkpt lat="45.79074" lon="3.36338">
        <ele>330.8</ele>
        <time>2024-08-11T08:49:16Z</time>
      </trkpt>
      <trkpt lat="45.79068" lon="3.36335">
        <ele>330.8</ele>
        <time>2024-08-11T08:49:17Z</time>
      </trkpt>
      <trkpt lat="45.79061" lon="3.36332">
        <ele>330.8</ele>
        <time>2024-08-11T08:49:18Z</time>
      </trkpt>
      <trkpt lat="45.79055" lon="3.3633">
        <ele>331</ele>
        <time>2024-08-11T08:49:19Z</time>
      </trkpt>
      <trkpt lat="45.79048" lon="3.36327">
        <ele>330.8</ele>
        <time>2024-08-11T08:49:20Z</time>
      </trkpt>
      <trkpt lat="45.79042" lon="3.36324">
        <ele>330.8</ele>
        <time>2024-08-11T08:49:21Z</time>
      </trkpt>
      <trkpt lat="45.79035" lon="3.36322">
        <ele>331</ele>
        <time>2024-08-11T08:49:22Z</time>
      </trkpt>
      <trkpt lat="45.79029" lon="3.36319">
        <ele>331</ele>
        <time>2024-08-11T08:49:23Z</time>
      </trkpt>
      <trkpt lat="45.79022" lon="3.36317">
        <ele>331</ele>
        <time>2024-08-11T08:49:24Z</time>
      </trkpt>
      <trkpt lat="45.79016" lon="3.36314">
        <ele>331</ele>
        <time>2024-08-11T08:49:25Z</time>
      </trkpt>
      <trkpt lat="45.7901" lon="3.36311">
        <ele>331</ele>
        <time>2024-08-11T08:49:26Z</time>
      </trkpt>
      <trkpt lat="45.79003" lon="3.36309">
        <ele>331</ele>
        <time>2024-08-11T08:49:27Z</time>
      </trkpt>
      <trkpt lat="45.78997" lon="3.36306">
        <ele>331</ele>
        <time>2024-08-11T08:49:28Z</time>
      </trkpt>
      <trkpt lat="45.78991" lon="3.36303">
        <ele>331</ele>
        <time>2024-08-11T08:49:29Z</time>
      </trkpt>
      <trkpt lat="45.78984" lon="3.36301">
        <ele>331</ele>
        <time>2024-08-11T08:49:30Z</time>
      </trkpt>
      <trkpt lat="45.78978" lon="3.36298">
        <ele>331</ele>
        <time>2024-08-11T08:49:31Z</time>
      </trkpt>
      <trkpt lat="45.78972" lon="3.36296">
        <ele>331</ele>
        <time>2024-08-11T08:49:32Z</time>
      </trkpt>
      <trkpt lat="45.78966" lon="3.36293">
        <ele>331</ele>
        <time>2024-08-11T08:49:33Z</time>
      </trkpt>
      <trkpt lat="45.78959" lon="3.3629">
        <ele>331</ele>
        <time>2024-08-11T08:49:34Z</time>
      </trkpt>
      <trkpt lat="45.78953" lon="3.36288">
        <ele>330.8</ele>
        <time>2024-08-11T08:49:35Z</time>
      </trkpt>
      <trkpt lat="45.78947" lon="3.36285">
        <ele>331</ele>
        <time>2024-08-11T08:49:36Z</time>
      </trkpt>
      <trkpt lat="45.78941" lon="3.36283">
        <ele>331</ele>
        <time>2024-08-11T08:49:37Z</time>
      </trkpt>
      <trkpt lat="45.78935" lon="3.3628">
        <ele>331</ele>
        <time>2024-08-11T08:49:38Z</time>
      </trkpt>
      <trkpt lat="45.78929" lon="3.36278">
        <ele>331</ele>
        <time>2024-08-11T08:49:39Z</time>
      </trkpt>
      <trkpt lat="45.78923" lon="3.36275">
        <ele>331</ele>
        <time>2024-08-11T08:49:40Z</time>
      </trkpt>
      <trkpt lat="45.78917" lon="3.36273">
        <ele>331</ele>
        <time>2024-08-11T08:49:41Z</time>
      </trkpt>
      <trkpt lat="45.78911" lon="3.36271">
        <ele>331</ele>
        <time>2024-08-11T08:49:42Z</time>
      </trkpt>
      <trkpt lat="45.78905" lon="3.36268">
        <ele>331</ele>
        <time>2024-08-11T08:49:43Z</time>
      </trkpt>
      <trkpt lat="45.78899" lon="3.36266">
        <ele>331</ele>
        <time>2024-08-11T08:49:44Z</time>
      </trkpt>
      <trkpt lat="45.78893" lon="3.36263">
        <ele>331</ele>
        <time>2024-08-11T08:49:45Z</time>
      </trkpt>
      <trkpt lat="45.78887" lon="3.36261">
        <ele>331</ele>
        <time>2024-08-11T08:49:46Z</time>
      </trkpt>
      <trkpt lat="45.78881" lon="3.36258">
        <ele>331</ele>
        <time>2024-08-11T08:49:47Z</time>
      </trkpt>
      <trkpt lat="45.78875" lon="3.36256">
        <ele>331</ele>
        <time>2024-08-11T08:49:48Z</time>
      </trkpt>
      <trkpt lat="45.78869" lon="3.36253">
        <ele>331</ele>
        <time>2024-08-11T08:49:49Z</time>
      </trkpt>
      <trkpt lat="45.78863" lon="3.36251">
        <ele>331</ele>
        <time>2024-08-11T08:49:50Z</time>
      </trkpt>
      <trkpt lat="45.78857" lon="3.36248">
        <ele>331</ele>
        <time>2024-08-11T08:49:51Z</time>
      </trkpt>
      <trkpt lat="45.78851" lon="3.36246">
        <ele>331</ele>
        <time>2024-08-11T08:49:52Z</time>
      </trkpt>
      <trkpt lat="45.78845" lon="3.36243">
        <ele>331</ele>
        <time>2024-08-11T08:49:53Z</time>
      </trkpt>
      <trkpt lat="45.78839" lon="3.36241">
        <ele>331</ele>
        <time>2024-08-11T08:49:54Z</time>
      </trkpt>
      <trkpt lat="45.78833" lon="3.36238">
        <ele>331</ele>
        <time>2024-08-11T08:49:55Z</time>
      </trkpt>
      <trkpt lat="45.78827" lon="3.36236">
        <ele>331</ele>
        <time>2024-08-11T08:49:56Z</time>
      </trkpt>
      <trkpt lat="45.78821" lon="3.36233">
        <ele>331.2</ele>
        <time>2024-08-11T08:49:57Z</time>
      </trkpt>
      <trkpt lat="45.78815" lon="3.36231">
        <ele>331.2</ele>
        <time>2024-08-11T08:49:58Z</time>
      </trkpt>
      <trkpt lat="45.78809" lon="3.36229">
        <ele>331.2</ele>
        <time>2024-08-11T08:49:59Z</time>
      </trkpt>
      <trkpt lat="45.78803" lon="3.36226">
        <ele>331.2</ele>
        <time>2024-08-11T08:50:00Z</time>
      </trkpt>
      <trkpt lat="45.78797" lon="3.36224">
        <ele>331.2</ele>
        <time>2024-08-11T08:50:01Z</time>
      </trkpt>
      <trkpt lat="45.78791" lon="3.36221">
        <ele>331.2</ele>
        <time>2024-08-11T08:50:02Z</time>
      </trkpt>
      <trkpt lat="45.78785" lon="3.36219">
        <ele>331.2</ele>
        <time>2024-08-11T08:50:03Z</time>
      </trkpt>
      <trkpt lat="45.7878" lon="3.36216">
        <ele>331.2</ele>
        <time>2024-08-11T08:50:04Z</time>
      </trkpt>
      <trkpt lat="45.78774" lon="3.36214">
        <ele>331.2</ele>
        <time>2024-08-11T08:50:05Z</time>
      </trkpt>
      <trkpt lat="45.78768" lon="3.36212">
        <ele>331.2</ele>
        <time>2024-08-11T08:50:06Z</time>
      </trkpt>
      <trkpt lat="45.78762" lon="3.36209">
        <ele>331.2</ele>
        <time>2024-08-11T08:50:07Z</time>
      </trkpt>
      <trkpt lat="45.78756" lon="3.36207">
        <ele>331.2</ele>
        <time>2024-08-11T08:50:08Z</time>
      </trkpt>
      <trkpt lat="45.7875" lon="3.36204">
        <ele>331.2</ele>
        <time>2024-08-11T08:50:09Z</time>
      </trkpt>
      <trkpt lat="45.78744" lon="3.36202">
        <ele>331.2</ele>
        <time>2024-08-11T08:50:10Z</time>
      </trkpt>
      <trkpt lat="45.78739" lon="3.36199">
        <ele>331.4</ele>
        <time>2024-08-11T08:50:11Z</time>
      </trkpt>
      <trkpt lat="45.78733" lon="3.36197">
        <ele>331.4</ele>
        <time>2024-08-11T08:50:12Z</time>
      </trkpt>
      <trkpt lat="45.78727" lon="3.36194">
        <ele>331.4</ele>
        <time>2024-08-11T08:50:13Z</time>
      </trkpt>
      <trkpt lat="45.78721" lon="3.36192">
        <ele>331.4</ele>
        <time>2024-08-11T08:50:14Z</time>
      </trkpt>
      <trkpt lat="45.78715" lon="3.36189">
        <ele>331.4</ele>
        <time>2024-08-11T08:50:15Z</time>
      </trkpt>
      <trkpt lat="45.78709" lon="3.36187">
        <ele>331.6</ele>
        <time>2024-08-11T08:50:16Z</time>
      </trkpt>
      <trkpt lat="45.78703" lon="3.36185">
        <ele>331.6</ele>
        <time>2024-08-11T08:50:17Z</time>
      </trkpt>
      <trkpt lat="45.78697" lon="3.36182">
        <ele>331.6</ele>
        <time>2024-08-11T08:50:18Z</time>
      </trkpt>
      <trkpt lat="45.78691" lon="3.3618">
        <ele>331.6</ele>
        <time>2024-08-11T08:50:19Z</time>
      </trkpt>
      <trkpt lat="45.78685" lon="3.36177">
        <ele>331.6</ele>
        <time>2024-08-11T08:50:20Z</time>
      </trkpt>
      <trkpt lat="45.78679" lon="3.36175">
        <ele>331.4</ele>
        <time>2024-08-11T08:50:21Z</time>
      </trkpt>
      <trkpt lat="45.78673" lon="3.36172">
        <ele>331.6</ele>
        <time>2024-08-11T08:50:22Z</time>
      </trkpt>
      <trkpt lat="45.78667" lon="3.3617">
        <ele>331.6</ele>
        <time>2024-08-11T08:50:23Z</time>
      </trkpt>
      <trkpt lat="45.78661" lon="3.36167">
        <ele>331.6</ele>
        <time>2024-08-11T08:50:24Z</time>
      </trkpt>
      <trkpt lat="45.78655" lon="3.36164">
        <ele>331.6</ele>
        <time>2024-08-11T08:50:25Z</time>
      </trkpt>
      <trkpt lat="45.78649" lon="3.36162">
        <ele>331.6</ele>
        <time>2024-08-11T08:50:26Z</time>
      </trkpt>
      <trkpt lat="45.78643" lon="3.36159">
        <ele>331.6</ele>
        <time>2024-08-11T08:50:27Z</time>
      </trkpt>
      <trkpt lat="45.78637" lon="3.36157">
        <ele>331.6</ele>
        <time>2024-08-11T08:50:28Z</time>
      </trkpt>
      <trkpt lat="45.78631" lon="3.36154">
        <ele>331.8</ele>
        <time>2024-08-11T08:50:29Z</time>
      </trkpt>
      <trkpt lat="45.78625" lon="3.36152">
        <ele>331.8</ele>
        <time>2024-08-11T08:50:30Z</time>
      </trkpt>
      <trkpt lat="45.78619" lon="3.36149">
        <ele>331.8</ele>
        <time>2024-08-11T08:50:31Z</time>
      </trkpt>
      <trkpt lat="45.78613" lon="3.36147">
        <ele>331.8</ele>
        <time>2024-08-11T08:50:32Z</time>
      </trkpt>
      <trkpt lat="45.78607" lon="3.36145">
        <ele>331.8</ele>
        <time>2024-08-11T08:50:33Z</time>
      </trkpt>
      <trkpt lat="45.78601" lon="3.36142">
        <ele>331.8</ele>
        <time>2024-08-11T08:50:34Z</time>
      </trkpt>
      <trkpt lat="45.78595" lon="3.3614">
        <ele>332</ele>
        <time>2024-08-11T08:50:35Z</time>
      </trkpt>
      <trkpt lat="45.7859" lon="3.36137">
        <ele>332</ele>
        <time>2024-08-11T08:50:36Z</time>
      </trkpt>
      <trkpt lat="45.78584" lon="3.36135">
        <ele>332</ele>
        <time>2024-08-11T08:50:37Z</time>
      </trkpt>
      <trkpt lat="45.78578" lon="3.36133">
        <ele>332</ele>
        <time>2024-08-11T08:50:38Z</time>
      </trkpt>
      <trkpt lat="45.78573" lon="3.3613">
        <ele>332</ele>
        <time>2024-08-11T08:50:39Z</time>
      </trkpt>
      <trkpt lat="45.78567" lon="3.36128">
        <ele>332</ele>
        <time>2024-08-11T08:50:40Z</time>
      </trkpt>
      <trkpt lat="45.78561" lon="3.36125">
        <ele>332</ele>
        <time>2024-08-11T08:50:41Z</time>
      </trkpt>
      <trkpt lat="45.78556" lon="3.36123">
        <ele>332</ele>
        <time>2024-08-11T08:50:42Z</time>
      </trkpt>
      <trkpt lat="45.7855" lon="3.36121">
        <ele>332</ele>
        <time>2024-08-11T08:50:43Z</time>
      </trkpt>
      <trkpt lat="45.78545" lon="3.36118">
        <ele>332.2</ele>
        <time>2024-08-11T08:50:44Z</time>
      </trkpt>
      <trkpt lat="45.78539" lon="3.36116">
        <ele>332.2</ele>
        <time>2024-08-11T08:50:45Z</time>
      </trkpt>
      <trkpt lat="45.78534" lon="3.36114">
        <ele>332.2</ele>
        <time>2024-08-11T08:50:46Z</time>
      </trkpt>
      <trkpt lat="45.78528" lon="3.36112">
        <ele>332.2</ele>
        <time>2024-08-11T08:50:47Z</time>
      </trkpt>
      <trkpt lat="45.78522" lon="3.36109">
        <ele>332.4</ele>
        <time>2024-08-11T08:50:48Z</time>
      </trkpt>
      <trkpt lat="45.78517" lon="3.36107">
        <ele>332.4</ele>
        <time>2024-08-11T08:50:49Z</time>
      </trkpt>
      <trkpt lat="45.78511" lon="3.36105">
        <ele>332.4</ele>
        <time>2024-08-11T08:50:50Z</time>
      </trkpt>
      <trkpt lat="45.78506" lon="3.36102">
        <ele>332.4</ele>
        <time>2024-08-11T08:50:51Z</time>
      </trkpt>
      <trkpt lat="45.785" lon="3.361">
        <ele>332.6</ele>
        <time>2024-08-11T08:50:52Z</time>
      </trkpt>
      <trkpt lat="45.78495" lon="3.36098">
        <ele>332.6</ele>
        <time>2024-08-11T08:50:53Z</time>
      </trkpt>
      <trkpt lat="45.78489" lon="3.36095">
        <ele>332.6</ele>
        <time>2024-08-11T08:50:54Z</time>
      </trkpt>
      <trkpt lat="45.78484" lon="3.36093">
        <ele>332.6</ele>
        <time>2024-08-11T08:50:55Z</time>
      </trkpt>
      <trkpt lat="45.78479" lon="3.36091">
        <ele>332.6</ele>
        <time>2024-08-11T08:50:56Z</time>
      </trkpt>
      <trkpt lat="45.78473" lon="3.36089">
        <ele>332.6</ele>
        <time>2024-08-11T08:50:57Z</time>
      </trkpt>
      <trkpt lat="45.78468" lon="3.36086">
        <ele>332.6</ele>
        <time>2024-08-11T08:50:58Z</time>
      </trkpt>
      <trkpt lat="45.78462" lon="3.36084">
        <ele>332.8</ele>
        <time>2024-08-11T08:50:59Z</time>
      </trkpt>
      <trkpt lat="45.78457" lon="3.36082">
        <ele>332.8</ele>
        <time>2024-08-11T08:51:00Z</time>
      </trkpt>
      <trkpt lat="45.78452" lon="3.3608">
        <ele>332.8</ele>
        <time>2024-08-11T08:51:01Z</time>
      </trkpt>
      <trkpt lat="45.78447" lon="3.36078">
        <ele>332.8</ele>
        <time>2024-08-11T08:51:02Z</time>
      </trkpt>
      <trkpt lat="45.78441" lon="3.36075">
        <ele>333</ele>
        <time>2024-08-11T08:51:03Z</time>
      </trkpt>
      <trkpt lat="45.78436" lon="3.36073">
        <ele>333</ele>
        <time>2024-08-11T08:51:04Z</time>
      </trkpt>
      <trkpt lat="45.78431" lon="3.36071">
        <ele>333</ele>
        <time>2024-08-11T08:51:05Z</time>
      </trkpt>
      <trkpt lat="45.78425" lon="3.36069">
        <ele>333</ele>
        <time>2024-08-11T08:51:06Z</time>
      </trkpt>
      <trkpt lat="45.78419" lon="3.36066">
        <ele>333</ele>
        <time>2024-08-11T08:51:07Z</time>
      </trkpt>
      <trkpt lat="45.78414" lon="3.36064">
        <ele>333.2</ele>
        <time>2024-08-11T08:51:08Z</time>
      </trkpt>
      <trkpt lat="45.78409" lon="3.36062">
        <ele>333.2</ele>
        <time>2024-08-11T08:51:09Z</time>
      </trkpt>
      <trkpt lat="45.78404" lon="3.3606">
        <ele>333.2</ele>
        <time>2024-08-11T08:51:10Z</time>
      </trkpt>
      <trkpt lat="45.78398" lon="3.36057">
        <ele>333.2</ele>
        <time>2024-08-11T08:51:11Z</time>
      </trkpt>
      <trkpt lat="45.78393" lon="3.36055">
        <ele>333.4</ele>
        <time>2024-08-11T08:51:12Z</time>
      </trkpt>
      <trkpt lat="45.78388" lon="3.36053">
        <ele>333.4</ele>
        <time>2024-08-11T08:51:13Z</time>
      </trkpt>
      <trkpt lat="45.78382" lon="3.36051">
        <ele>333.4</ele>
        <time>2024-08-11T08:51:14Z</time>
      </trkpt>
      <trkpt lat="45.78377" lon="3.36049">
        <ele>333.4</ele>
        <time>2024-08-11T08:51:15Z</time>
      </trkpt>
      <trkpt lat="45.78372" lon="3.36046">
        <ele>333.4</ele>
        <time>2024-08-11T08:51:16Z</time>
      </trkpt>
      <trkpt lat="45.78366" lon="3.36044">
        <ele>333.6</ele>
        <time>2024-08-11T08:51:17Z</time>
      </trkpt>
      <trkpt lat="45.78361" lon="3.36042">
        <ele>333.6</ele>
        <time>2024-08-11T08:51:18Z</time>
      </trkpt>
      <trkpt lat="45.78356" lon="3.3604">
        <ele>333.6</ele>
        <time>2024-08-11T08:51:19Z</time>
      </trkpt>
      <trkpt lat="45.7835" lon="3.36037">
        <ele>333.6</ele>
        <time>2024-08-11T08:51:20Z</time>
      </trkpt>
      <trkpt lat="45.78345" lon="3.36035">
        <ele>333.8</ele>
        <time>2024-08-11T08:51:21Z</time>
      </trkpt>
      <trkpt lat="45.7834" lon="3.36033">
        <ele>333.8</ele>
        <time>2024-08-11T08:51:22Z</time>
      </trkpt>
      <trkpt lat="45.78334" lon="3.36031">
        <ele>333.8</ele>
        <time>2024-08-11T08:51:23Z</time>
      </trkpt>
      <trkpt lat="45.78329" lon="3.36029">
        <ele>333.8</ele>
        <time>2024-08-11T08:51:24Z</time>
      </trkpt>
      <trkpt lat="45.78324" lon="3.36026">
        <ele>333.8</ele>
        <time>2024-08-11T08:51:25Z</time>
      </trkpt>
      <trkpt lat="45.78319" lon="3.36024">
        <ele>334</ele>
        <time>2024-08-11T08:51:26Z</time>
      </trkpt>
      <trkpt lat="45.78313" lon="3.36022">
        <ele>334</ele>
        <time>2024-08-11T08:51:27Z</time>
      </trkpt>
      <trkpt lat="45.78308" lon="3.3602">
        <ele>334</ele>
        <time>2024-08-11T08:51:28Z</time>
      </trkpt>
      <trkpt lat="45.78303" lon="3.36018">
        <ele>334</ele>
        <time>2024-08-11T08:51:29Z</time>
      </trkpt>
      <trkpt lat="45.78297" lon="3.36015">
        <ele>334.2</ele>
        <time>2024-08-11T08:51:30Z</time>
      </trkpt>
      <trkpt lat="45.78292" lon="3.36013">
        <ele>334.2</ele>
        <time>2024-08-11T08:51:31Z</time>
      </trkpt>
      <trkpt lat="45.78287" lon="3.36011">
        <ele>334.2</ele>
        <time>2024-08-11T08:51:32Z</time>
      </trkpt>
      <trkpt lat="45.78282" lon="3.36009">
        <ele>334.2</ele>
        <time>2024-08-11T08:51:33Z</time>
      </trkpt>
      <trkpt lat="45.78276" lon="3.36007">
        <ele>334.2</ele>
        <time>2024-08-11T08:51:34Z</time>
      </trkpt>
      <trkpt lat="45.78271" lon="3.36004">
        <ele>334.4</ele>
        <time>2024-08-11T08:51:35Z</time>
      </trkpt>
      <trkpt lat="45.78266" lon="3.36002">
        <ele>334.4</ele>
        <time>2024-08-11T08:51:36Z</time>
      </trkpt>
      <trkpt lat="45.78261" lon="3.36">
        <ele>334.4</ele>
        <time>2024-08-11T08:51:37Z</time>
      </trkpt>
      <trkpt lat="45.78255" lon="3.35998">
        <ele>334.4</ele>
        <time>2024-08-11T08:51:38Z</time>
      </trkpt>
      <trkpt lat="45.7825" lon="3.35996">
        <ele>334.6</ele>
        <time>2024-08-11T08:51:39Z</time>
      </trkpt>
      <trkpt lat="45.78245" lon="3.35993">
        <ele>334.6</ele>
        <time>2024-08-11T08:51:40Z</time>
      </trkpt>
      <trkpt lat="45.78239" lon="3.35991">
        <ele>334.6</ele>
        <time>2024-08-11T08:51:41Z</time>
      </trkpt>
      <trkpt lat="45.78234" lon="3.35989">
        <ele>334.6</ele>
        <time>2024-08-11T08:51:42Z</time>
      </trkpt>
      <trkpt lat="45.78229" lon="3.35987">
        <ele>334.8</ele>
        <time>2024-08-11T08:51:43Z</time>
      </trkpt>
      <trkpt lat="45.78224" lon="3.35985">
        <ele>334.8</ele>
        <time>2024-08-11T08:51:44Z</time>
      </trkpt>
      <trkpt lat="45.78219" lon="3.35983">
        <ele>334.8</ele>
        <time>2024-08-11T08:51:45Z</time>
      </trkpt>
      <trkpt lat="45.78214" lon="3.3598">
        <ele>335</ele>
        <time>2024-08-11T08:51:46Z</time>
      </trkpt>
      <trkpt lat="45.78208" lon="3.35978">
        <ele>335</ele>
        <time>2024-08-11T08:51:47Z</time>
      </trkpt>
      <trkpt lat="45.78203" lon="3.35976">
        <ele>335</ele>
        <time>2024-08-11T08:51:48Z</time>
      </trkpt>
      <trkpt lat="45.78198" lon="3.35974">
        <ele>335</ele>
        <time>2024-08-11T08:51:49Z</time>
      </trkpt>
      <trkpt lat="45.78193" lon="3.35972">
        <ele>335.2</ele>
        <time>2024-08-11T08:51:50Z</time>
      </trkpt>
      <trkpt lat="45.78188" lon="3.3597">
        <ele>335.2</ele>
        <time>2024-08-11T08:51:51Z</time>
      </trkpt>
      <trkpt lat="45.78183" lon="3.35967">
        <ele>335.2</ele>
        <time>2024-08-11T08:51:52Z</time>
      </trkpt>
      <trkpt lat="45.78177" lon="3.35965">
        <ele>335.4</ele>
        <time>2024-08-11T08:51:53Z</time>
      </trkpt>
      <trkpt lat="45.78172" lon="3.35963">
        <ele>335.4</ele>
        <time>2024-08-11T08:51:54Z</time>
      </trkpt>
      <trkpt lat="45.78167" lon="3.35961">
        <ele>335.4</ele>
        <time>2024-08-11T08:51:55Z</time>
      </trkpt>
      <trkpt lat="45.78162" lon="3.35959">
        <ele>335.4</ele>
        <time>2024-08-11T08:51:56Z</time>
      </trkpt>
      <trkpt lat="45.78156" lon="3.35956">
        <ele>335.6</ele>
        <time>2024-08-11T08:51:57Z</time>
      </trkpt>
      <trkpt lat="45.78151" lon="3.35954">
        <ele>335.6</ele>
        <time>2024-08-11T08:51:58Z</time>
      </trkpt>
      <trkpt lat="45.78146" lon="3.35952">
        <ele>335.6</ele>
        <time>2024-08-11T08:51:59Z</time>
      </trkpt>
      <trkpt lat="45.7814" lon="3.3595">
        <ele>335.6</ele>
        <time>2024-08-11T08:52:00Z</time>
      </trkpt>
      <trkpt lat="45.78135" lon="3.35948">
        <ele>335.6</ele>
        <time>2024-08-11T08:52:01Z</time>
      </trkpt>
      <trkpt lat="45.7813" lon="3.35945">
        <ele>335.8</ele>
        <time>2024-08-11T08:52:02Z</time>
      </trkpt>
      <trkpt lat="45.78124" lon="3.35943">
        <ele>335.8</ele>
        <time>2024-08-11T08:52:03Z</time>
      </trkpt>
      <trkpt lat="45.78118" lon="3.35941">
        <ele>335.8</ele>
        <time>2024-08-11T08:52:04Z</time>
      </trkpt>
      <trkpt lat="45.78113" lon="3.35938">
        <ele>335.8</ele>
        <time>2024-08-11T08:52:05Z</time>
      </trkpt>
      <trkpt lat="45.78107" lon="3.35936">
        <ele>336</ele>
        <time>2024-08-11T08:52:06Z</time>
      </trkpt>
      <trkpt lat="45.78102" lon="3.35934">
        <ele>336</ele>
        <time>2024-08-11T08:52:07Z</time>
      </trkpt>
      <trkpt lat="45.78096" lon="3.35931">
        <ele>336</ele>
        <time>2024-08-11T08:52:08Z</time>
      </trkpt>
      <trkpt lat="45.78091" lon="3.35929">
        <ele>336.2</ele>
        <time>2024-08-11T08:52:09Z</time>
      </trkpt>
      <trkpt lat="45.78086" lon="3.35927">
        <ele>336.2</ele>
        <time>2024-08-11T08:52:10Z</time>
      </trkpt>
      <trkpt lat="45.7808" lon="3.35924">
        <ele>336.2</ele>
        <time>2024-08-11T08:52:11Z</time>
      </trkpt>
      <trkpt lat="45.78075" lon="3.35922">
        <ele>336.2</ele>
        <time>2024-08-11T08:52:12Z</time>
      </trkpt>
      <trkpt lat="45.7807" lon="3.3592">
        <ele>336.4</ele>
        <time>2024-08-11T08:52:13Z</time>
      </trkpt>
      <trkpt lat="45.78065" lon="3.35917">
        <ele>336.4</ele>
        <time>2024-08-11T08:52:14Z</time>
      </trkpt>
      <trkpt lat="45.78059" lon="3.35915">
        <ele>336.4</ele>
        <time>2024-08-11T08:52:15Z</time>
      </trkpt>
      <trkpt lat="45.78054" lon="3.35913">
        <ele>336.6</ele>
        <time>2024-08-11T08:52:16Z</time>
      </trkpt>
      <trkpt lat="45.78049" lon="3.3591">
        <ele>336.6</ele>
        <time>2024-08-11T08:52:17Z</time>
      </trkpt>
      <trkpt lat="45.78043" lon="3.35908">
        <ele>336.6</ele>
        <time>2024-08-11T08:52:18Z</time>
      </trkpt>
      <trkpt lat="45.78038" lon="3.35906">
        <ele>336.6</ele>
        <time>2024-08-11T08:52:19Z</time>
      </trkpt>
      <trkpt lat="45.78033" lon="3.35904">
        <ele>336.8</ele>
        <time>2024-08-11T08:52:20Z</time>
      </trkpt>
      <trkpt lat="45.78028" lon="3.35901">
        <ele>336.8</ele>
        <time>2024-08-11T08:52:21Z</time>
      </trkpt>
      <trkpt lat="45.78023" lon="3.35899">
        <ele>336.8</ele>
        <time>2024-08-11T08:52:22Z</time>
      </trkpt>
      <trkpt lat="45.78017" lon="3.35897">
        <ele>336.8</ele>
        <time>2024-08-11T08:52:23Z</time>
      </trkpt>
      <trkpt lat="45.78012" lon="3.35894">
        <ele>337</ele>
        <time>2024-08-11T08:52:24Z</time>
      </trkpt>
      <trkpt lat="45.78006" lon="3.35892">
        <ele>337</ele>
        <time>2024-08-11T08:52:25Z</time>
      </trkpt>
      <trkpt lat="45.78" lon="3.35889">
        <ele>337</ele>
        <time>2024-08-11T08:52:26Z</time>
      </trkpt>
      <trkpt lat="45.77994" lon="3.35887">
        <ele>337.2</ele>
        <time>2024-08-11T08:52:27Z</time>
      </trkpt>
      <trkpt lat="45.77989" lon="3.35884">
        <ele>337.2</ele>
        <time>2024-08-11T08:52:28Z</time>
      </trkpt>
      <trkpt lat="45.77983" lon="3.35882">
        <ele>337.4</ele>
        <time>2024-08-11T08:52:29Z</time>
      </trkpt>
      <trkpt lat="45.77978" lon="3.35879">
        <ele>337.4</ele>
        <time>2024-08-11T08:52:30Z</time>
      </trkpt>
      <trkpt lat="45.77973" lon="3.35877">
        <ele>337.6</ele>
        <time>2024-08-11T08:52:31Z</time>
      </trkpt>
      <trkpt lat="45.77967" lon="3.35875">
        <ele>337.6</ele>
        <time>2024-08-11T08:52:32Z</time>
      </trkpt>
      <trkpt lat="45.77962" lon="3.35872">
        <ele>337.8</ele>
        <time>2024-08-11T08:52:33Z</time>
      </trkpt>
      <trkpt lat="45.77957" lon="3.3587">
        <ele>337.8</ele>
        <time>2024-08-11T08:52:34Z</time>
      </trkpt>
      <trkpt lat="45.77952" lon="3.35869">
        <ele>337.8</ele>
        <time>2024-08-11T08:52:35Z</time>
      </trkpt>
      <trkpt lat="45.77947" lon="3.35867">
        <ele>338</ele>
        <time>2024-08-11T08:52:36Z</time>
      </trkpt>
      <trkpt lat="45.77942" lon="3.35864">
        <ele>338</ele>
        <time>2024-08-11T08:52:37Z</time>
      </trkpt>
      <trkpt lat="45.77937" lon="3.3586">
        <ele>338.2</ele>
        <time>2024-08-11T08:52:38Z</time>
      </trkpt>
      <trkpt lat="45.77933" lon="3.35857">
        <ele>338.2</ele>
        <time>2024-08-11T08:52:39Z</time>
      </trkpt>
      <trkpt lat="45.77928" lon="3.35854">
        <ele>338.4</ele>
        <time>2024-08-11T08:52:40Z</time>
      </trkpt>
      <trkpt lat="45.77924" lon="3.35851">
        <ele>338.4</ele>
        <time>2024-08-11T08:52:41Z</time>
      </trkpt>
      <trkpt lat="45.77922" lon="3.35846">
        <ele>338.4</ele>
        <time>2024-08-11T08:52:42Z</time>
      </trkpt>
      <trkpt lat="45.77916" lon="3.35836">
        <ele>338.4</ele>
        <time>2024-08-11T08:52:43Z</time>
      </trkpt>
      <trkpt lat="45.77911" lon="3.35835">
        <ele>338.6</ele>
        <time>2024-08-11T08:52:44Z</time>
      </trkpt>
      <trkpt lat="45.77904" lon="3.35838">
        <ele>338.6</ele>
        <time>2024-08-11T08:52:45Z</time>
      </trkpt>
      <trkpt lat="45.77899" lon="3.35839">
        <ele>338.8</ele>
        <time>2024-08-11T08:52:46Z</time>
      </trkpt>
      <trkpt lat="45.77893" lon="3.35839">
        <ele>338.8</ele>
        <time>2024-08-11T08:52:47Z</time>
      </trkpt>
      <trkpt lat="45.77888" lon="3.3584">
        <ele>339</ele>
        <time>2024-08-11T08:52:48Z</time>
      </trkpt>
      <trkpt lat="45.77882" lon="3.3584">
        <ele>339</ele>
        <time>2024-08-11T08:52:49Z</time>
      </trkpt>
      <trkpt lat="45.77876" lon="3.3584">
        <ele>339.2</ele>
        <time>2024-08-11T08:52:50Z</time>
      </trkpt>
      <trkpt lat="45.77871" lon="3.35837">
        <ele>339.2</ele>
        <time>2024-08-11T08:52:51Z</time>
      </trkpt>
      <trkpt lat="45.77867" lon="3.35835">
        <ele>339.4</ele>
        <time>2024-08-11T08:52:52Z</time>
      </trkpt>
      <trkpt lat="45.77862" lon="3.35833">
        <ele>339.6</ele>
        <time>2024-08-11T08:52:53Z</time>
      </trkpt>
      <trkpt lat="45.77857" lon="3.35831">
        <ele>339.6</ele>
        <time>2024-08-11T08:52:54Z</time>
      </trkpt>
      <trkpt lat="45.77852" lon="3.35829">
        <ele>339.8</ele>
        <time>2024-08-11T08:52:55Z</time>
      </trkpt>
      <trkpt lat="45.77847" lon="3.35827">
        <ele>339.8</ele>
        <time>2024-08-11T08:52:56Z</time>
      </trkpt>
      <trkpt lat="45.77842" lon="3.35825">
        <ele>340</ele>
        <time>2024-08-11T08:52:57Z</time>
      </trkpt>
      <trkpt lat="45.77838" lon="3.35823">
        <ele>340</ele>
        <time>2024-08-11T08:52:58Z</time>
      </trkpt>
      <trkpt lat="45.77833" lon="3.35821">
        <ele>340.2</ele>
        <time>2024-08-11T08:52:59Z</time>
      </trkpt>
      <trkpt lat="45.77829" lon="3.3582">
        <ele>340.2</ele>
        <time>2024-08-11T08:53:00Z</time>
      </trkpt>
      <trkpt lat="45.77824" lon="3.35818">
        <ele>340.4</ele>
        <time>2024-08-11T08:53:01Z</time>
      </trkpt>
      <trkpt lat="45.77819" lon="3.35816">
        <ele>340.4</ele>
        <time>2024-08-11T08:53:02Z</time>
      </trkpt>
      <trkpt lat="45.77814" lon="3.35814">
        <ele>340.6</ele>
        <time>2024-08-11T08:53:03Z</time>
      </trkpt>
      <trkpt lat="45.7781" lon="3.35812">
        <ele>340.6</ele>
        <time>2024-08-11T08:53:04Z</time>
      </trkpt>
      <trkpt lat="45.77805" lon="3.3581">
        <ele>340.8</ele>
        <time>2024-08-11T08:53:05Z</time>
      </trkpt>
      <trkpt lat="45.778" lon="3.35808">
        <ele>340.8</ele>
        <time>2024-08-11T08:53:06Z</time>
      </trkpt>
      <trkpt lat="45.77796" lon="3.35806">
        <ele>341</ele>
        <time>2024-08-11T08:53:07Z</time>
      </trkpt>
      <trkpt lat="45.77791" lon="3.35804">
        <ele>341.2</ele>
        <time>2024-08-11T08:53:08Z</time>
      </trkpt>
      <trkpt lat="45.77787" lon="3.35802">
        <ele>341.2</ele>
        <time>2024-08-11T08:53:09Z</time>
      </trkpt>
      <trkpt lat="45.77782" lon="3.358">
        <ele>341.4</ele>
        <time>2024-08-11T08:53:10Z</time>
      </trkpt>
      <trkpt lat="45.77778" lon="3.35798">
        <ele>341.4</ele>
        <time>2024-08-11T08:53:11Z</time>
      </trkpt>
      <trkpt lat="45.77773" lon="3.35796">
        <ele>341.6</ele>
        <time>2024-08-11T08:53:12Z</time>
      </trkpt>
      <trkpt lat="45.77769" lon="3.35795">
        <ele>341.6</ele>
        <time>2024-08-11T08:53:13Z</time>
      </trkpt>
      <trkpt lat="45.77765" lon="3.35793">
        <ele>341.8</ele>
        <time>2024-08-11T08:53:14Z</time>
      </trkpt>
      <trkpt lat="45.7776" lon="3.35791">
        <ele>341.8</ele>
        <time>2024-08-11T08:53:15Z</time>
      </trkpt>
      <trkpt lat="45.77756" lon="3.35789">
        <ele>342</ele>
        <time>2024-08-11T08:53:16Z</time>
      </trkpt>
      <trkpt lat="45.77752" lon="3.35787">
        <ele>342.2</ele>
        <time>2024-08-11T08:53:17Z</time>
      </trkpt>
      <trkpt lat="45.77747" lon="3.35785">
        <ele>342.2</ele>
        <time>2024-08-11T08:53:18Z</time>
      </trkpt>
      <trkpt lat="45.77743" lon="3.35784">
        <ele>342.4</ele>
        <time>2024-08-11T08:53:19Z</time>
      </trkpt>
      <trkpt lat="45.77739" lon="3.35782">
        <ele>342.6</ele>
        <time>2024-08-11T08:53:20Z</time>
      </trkpt>
      <trkpt lat="45.77734" lon="3.3578">
        <ele>342.6</ele>
        <time>2024-08-11T08:53:21Z</time>
      </trkpt>
      <trkpt lat="45.7773" lon="3.35778">
        <ele>342.8</ele>
        <time>2024-08-11T08:53:22Z</time>
      </trkpt>
      <trkpt lat="45.77726" lon="3.35776">
        <ele>342.8</ele>
        <time>2024-08-11T08:53:23Z</time>
      </trkpt>
      <trkpt lat="45.77722" lon="3.35775">
        <ele>343</ele>
        <time>2024-08-11T08:53:24Z</time>
      </trkpt>
      <trkpt lat="45.77717" lon="3.35773">
        <ele>343</ele>
        <time>2024-08-11T08:53:25Z</time>
      </trkpt>
      <trkpt lat="45.77713" lon="3.35771">
        <ele>343.2</ele>
        <time>2024-08-11T08:53:26Z</time>
      </trkpt>
      <trkpt lat="45.77708" lon="3.35769">
        <ele>343.2</ele>
        <time>2024-08-11T08:53:27Z</time>
      </trkpt>
      <trkpt lat="45.77704" lon="3.35767">
        <ele>343.4</ele>
        <time>2024-08-11T08:53:28Z</time>
      </trkpt>
      <trkpt lat="45.77699" lon="3.35765">
        <ele>343.6</ele>
        <time>2024-08-11T08:53:29Z</time>
      </trkpt>
      <trkpt lat="45.77695" lon="3.35764">
        <ele>343.6</ele>
        <time>2024-08-11T08:53:30Z</time>
      </trkpt>
      <trkpt lat="45.77691" lon="3.35762">
        <ele>343.6</ele>
        <time>2024-08-11T08:53:31Z</time>
      </trkpt>
      <trkpt lat="45.77686" lon="3.3576">
        <ele>343.8</ele>
        <time>2024-08-11T08:53:32Z</time>
      </trkpt>
      <trkpt lat="45.77682" lon="3.35758">
        <ele>344</ele>
        <time>2024-08-11T08:53:33Z</time>
      </trkpt>
      <trkpt lat="45.77677" lon="3.35757">
        <ele>344</ele>
        <time>2024-08-11T08:53:34Z</time>
      </trkpt>
      <trkpt lat="45.77672" lon="3.35757">
        <ele>344.2</ele>
        <time>2024-08-11T08:53:35Z</time>
      </trkpt>
      <trkpt lat="45.77667" lon="3.35756">
        <ele>344.2</ele>
        <time>2024-08-11T08:53:36Z</time>
      </trkpt>
      <trkpt lat="45.77663" lon="3.35756">
        <ele>344.4</ele>
        <time>2024-08-11T08:53:37Z</time>
      </trkpt>
      <trkpt lat="45.77658" lon="3.35756">
        <ele>344.4</ele>
        <time>2024-08-11T08:53:38Z</time>
      </trkpt>
      <trkpt lat="45.77653" lon="3.35756">
        <ele>344.6</ele>
        <time>2024-08-11T08:53:39Z</time>
      </trkpt>
      <trkpt lat="45.77649" lon="3.35756">
        <ele>344.6</ele>
        <time>2024-08-11T08:53:40Z</time>
      </trkpt>
      <trkpt lat="45.77644" lon="3.35755">
        <ele>344.8</ele>
        <time>2024-08-11T08:53:41Z</time>
      </trkpt>
      <trkpt lat="45.77639" lon="3.35755">
        <ele>345</ele>
        <time>2024-08-11T08:53:42Z</time>
      </trkpt>
      <trkpt lat="45.77635" lon="3.35755">
        <ele>345</ele>
        <time>2024-08-11T08:53:43Z</time>
      </trkpt>
      <trkpt lat="45.7763" lon="3.35755">
        <ele>345.2</ele>
        <time>2024-08-11T08:53:44Z</time>
      </trkpt>
      <trkpt lat="45.77626" lon="3.35755">
        <ele>345.2</ele>
        <time>2024-08-11T08:53:45Z</time>
      </trkpt>
      <trkpt lat="45.77621" lon="3.35754">
        <ele>345.4</ele>
        <time>2024-08-11T08:53:46Z</time>
      </trkpt>
      <trkpt lat="45.77617" lon="3.35754">
        <ele>345.4</ele>
        <time>2024-08-11T08:53:47Z</time>
      </trkpt>
      <trkpt lat="45.77612" lon="3.35754">
        <ele>345.6</ele>
        <time>2024-08-11T08:53:48Z</time>
      </trkpt>
      <trkpt lat="45.77607" lon="3.35754">
        <ele>345.6</ele>
        <time>2024-08-11T08:53:49Z</time>
      </trkpt>
      <trkpt lat="45.77602" lon="3.35754">
        <ele>345.8</ele>
        <time>2024-08-11T08:53:50Z</time>
      </trkpt>
      <trkpt lat="45.77597" lon="3.35753">
        <ele>346</ele>
        <time>2024-08-11T08:53:51Z</time>
      </trkpt>
      <trkpt lat="45.77592" lon="3.35753">
        <ele>346</ele>
        <time>2024-08-11T08:53:52Z</time>
      </trkpt>
      <trkpt lat="45.77587" lon="3.35753">
        <ele>346.2</ele>
        <time>2024-08-11T08:53:53Z</time>
      </trkpt>
      <trkpt lat="45.77582" lon="3.35753">
        <ele>346.2</ele>
        <time>2024-08-11T08:53:54Z</time>
      </trkpt>
      <trkpt lat="45.77577" lon="3.35753">
        <ele>346.4</ele>
        <time>2024-08-11T08:53:55Z</time>
      </trkpt>
      <trkpt lat="45.77572" lon="3.35753">
        <ele>346.4</ele>
        <time>2024-08-11T08:53:56Z</time>
      </trkpt>
      <trkpt lat="45.77567" lon="3.35753">
        <ele>346.6</ele>
        <time>2024-08-11T08:53:57Z</time>
      </trkpt>
      <trkpt lat="45.77562" lon="3.35754">
        <ele>346.6</ele>
        <time>2024-08-11T08:53:58Z</time>
      </trkpt>
      <trkpt lat="45.77557" lon="3.35756">
        <ele>346.8</ele>
        <time>2024-08-11T08:53:59Z</time>
      </trkpt>
      <trkpt lat="45.77552" lon="3.35757">
        <ele>346.8</ele>
        <time>2024-08-11T08:54:00Z</time>
      </trkpt>
      <trkpt lat="45.77548" lon="3.35758">
        <ele>347</ele>
        <time>2024-08-11T08:54:01Z</time>
      </trkpt>
      <trkpt lat="45.77543" lon="3.35759">
        <ele>347</ele>
        <time>2024-08-11T08:54:02Z</time>
      </trkpt>
      <trkpt lat="45.77538" lon="3.3576">
        <ele>347.2</ele>
        <time>2024-08-11T08:54:03Z</time>
      </trkpt>
      <trkpt lat="45.77533" lon="3.35761">
        <ele>347.2</ele>
        <time>2024-08-11T08:54:04Z</time>
      </trkpt>
      <trkpt lat="45.77528" lon="3.35762">
        <ele>347.4</ele>
        <time>2024-08-11T08:54:05Z</time>
      </trkpt>
      <trkpt lat="45.77524" lon="3.35763">
        <ele>347.4</ele>
        <time>2024-08-11T08:54:06Z</time>
      </trkpt>
      <trkpt lat="45.77519" lon="3.35764">
        <ele>347.6</ele>
        <time>2024-08-11T08:54:07Z</time>
      </trkpt>
      <trkpt lat="45.77515" lon="3.35765">
        <ele>347.6</ele>
        <time>2024-08-11T08:54:08Z</time>
      </trkpt>
      <trkpt lat="45.7751" lon="3.35766">
        <ele>347.8</ele>
        <time>2024-08-11T08:54:09Z</time>
      </trkpt>
      <trkpt lat="45.77505" lon="3.35767">
        <ele>347.8</ele>
        <time>2024-08-11T08:54:10Z</time>
      </trkpt>
      <trkpt lat="45.77501" lon="3.35768">
        <ele>348</ele>
        <time>2024-08-11T08:54:11Z</time>
      </trkpt>
      <trkpt lat="45.77496" lon="3.35769">
        <ele>348.2</ele>
        <time>2024-08-11T08:54:12Z</time>
      </trkpt>
      <trkpt lat="45.77491" lon="3.3577">
        <ele>348.2</ele>
        <time>2024-08-11T08:54:13Z</time>
      </trkpt>
      <trkpt lat="45.77487" lon="3.35771">
        <ele>348.4</ele>
        <time>2024-08-11T08:54:14Z</time>
      </trkpt>
      <trkpt lat="45.77482" lon="3.35772">
        <ele>348.4</ele>
        <time>2024-08-11T08:54:15Z</time>
      </trkpt>
      <trkpt lat="45.77477" lon="3.35773">
        <ele>348.6</ele>
        <time>2024-08-11T08:54:16Z</time>
      </trkpt>
      <trkpt lat="45.77473" lon="3.35774">
        <ele>348.6</ele>
        <time>2024-08-11T08:54:17Z</time>
      </trkpt>
      <trkpt lat="45.77468" lon="3.35775">
        <ele>348.8</ele>
        <time>2024-08-11T08:54:18Z</time>
      </trkpt>
      <trkpt lat="45.77463" lon="3.35776">
        <ele>348.8</ele>
        <time>2024-08-11T08:54:19Z</time>
      </trkpt>
      <trkpt lat="45.77459" lon="3.35777">
        <ele>349</ele>
        <time>2024-08-11T08:54:20Z</time>
      </trkpt>
      <trkpt lat="45.77454" lon="3.35778">
        <ele>349.2</ele>
        <time>2024-08-11T08:54:21Z</time>
      </trkpt>
      <trkpt lat="45.77449" lon="3.3578">
        <ele>349.2</ele>
        <time>2024-08-11T08:54:22Z</time>
      </trkpt>
      <trkpt lat="45.77445" lon="3.35781">
        <ele>349.4</ele>
        <time>2024-08-11T08:54:23Z</time>
      </trkpt>
      <trkpt lat="45.7744" lon="3.35782">
        <ele>349.4</ele>
        <time>2024-08-11T08:54:24Z</time>
      </trkpt>
      <trkpt lat="45.77435" lon="3.35784">
        <ele>349.6</ele>
        <time>2024-08-11T08:54:25Z</time>
      </trkpt>
      <trkpt lat="45.77431" lon="3.35785">
        <ele>349.8</ele>
        <time>2024-08-11T08:54:26Z</time>
      </trkpt>
      <trkpt lat="45.77426" lon="3.35786">
        <ele>349.8</ele>
        <time>2024-08-11T08:54:27Z</time>
      </trkpt>
      <trkpt lat="45.77422" lon="3.35788">
        <ele>350</ele>
        <time>2024-08-11T08:54:28Z</time>
      </trkpt>
      <trkpt lat="45.77417" lon="3.35789">
        <ele>350</ele>
        <time>2024-08-11T08:54:29Z</time>
      </trkpt>
      <trkpt lat="45.77413" lon="3.3579">
        <ele>350.2</ele>
        <time>2024-08-11T08:54:30Z</time>
      </trkpt>
      <trkpt lat="45.77408" lon="3.35791">
        <ele>350.2</ele>
        <time>2024-08-11T08:54:31Z</time>
      </trkpt>
      <trkpt lat="45.77404" lon="3.35793">
        <ele>350.4</ele>
        <time>2024-08-11T08:54:32Z</time>
      </trkpt>
      <trkpt lat="45.77398" lon="3.35793">
        <ele>350.4</ele>
        <time>2024-08-11T08:54:33Z</time>
      </trkpt>
      <trkpt lat="45.77394" lon="3.35793">
        <ele>350.4</ele>
        <time>2024-08-11T08:54:34Z</time>
      </trkpt>
      <trkpt lat="45.77389" lon="3.35793">
        <ele>350.6</ele>
        <time>2024-08-11T08:54:35Z</time>
      </trkpt>
      <trkpt lat="45.77384" lon="3.35792">
        <ele>350.6</ele>
        <time>2024-08-11T08:54:36Z</time>
      </trkpt>
      <trkpt lat="45.77379" lon="3.35792">
        <ele>350.8</ele>
        <time>2024-08-11T08:54:37Z</time>
      </trkpt>
      <trkpt lat="45.77375" lon="3.35792">
        <ele>350.8</ele>
        <time>2024-08-11T08:54:38Z</time>
      </trkpt>
      <trkpt lat="45.7737" lon="3.35791">
        <ele>351</ele>
        <time>2024-08-11T08:54:39Z</time>
      </trkpt>
      <trkpt lat="45.77365" lon="3.35791">
        <ele>351</ele>
        <time>2024-08-11T08:54:40Z</time>
      </trkpt>
      <trkpt lat="45.7736" lon="3.35791">
        <ele>351.2</ele>
        <time>2024-08-11T08:54:41Z</time>
      </trkpt>
      <trkpt lat="45.77355" lon="3.35791">
        <ele>351.2</ele>
        <time>2024-08-11T08:54:42Z</time>
      </trkpt>
      <trkpt lat="45.7735" lon="3.3579">
        <ele>351.2</ele>
        <time>2024-08-11T08:54:43Z</time>
      </trkpt>
      <trkpt lat="45.77345" lon="3.3579">
        <ele>351.4</ele>
        <time>2024-08-11T08:54:44Z</time>
      </trkpt>
      <trkpt lat="45.77341" lon="3.3579">
        <ele>351.4</ele>
        <time>2024-08-11T08:54:45Z</time>
      </trkpt>
      <trkpt lat="45.77336" lon="3.3579">
        <ele>351.6</ele>
        <time>2024-08-11T08:54:46Z</time>
      </trkpt>
      <trkpt lat="45.77332" lon="3.35789">
        <ele>351.6</ele>
        <time>2024-08-11T08:54:47Z</time>
      </trkpt>
      <trkpt lat="45.77327" lon="3.35789">
        <ele>351.8</ele>
        <time>2024-08-11T08:54:48Z</time>
      </trkpt>
      <trkpt lat="45.77322" lon="3.35788">
        <ele>351.8</ele>
        <time>2024-08-11T08:54:49Z</time>
      </trkpt>
      <trkpt lat="45.77318" lon="3.35786">
        <ele>352</ele>
        <time>2024-08-11T08:54:50Z</time>
      </trkpt>
      <trkpt lat="45.77314" lon="3.35785">
        <ele>352</ele>
        <time>2024-08-11T08:54:51Z</time>
      </trkpt>
      <trkpt lat="45.77309" lon="3.35783">
        <ele>352.2</ele>
        <time>2024-08-11T08:54:52Z</time>
      </trkpt>
      <trkpt lat="45.77305" lon="3.35781">
        <ele>352.4</ele>
        <time>2024-08-11T08:54:53Z</time>
      </trkpt>
      <trkpt lat="45.773" lon="3.35779">
        <ele>352.4</ele>
        <time>2024-08-11T08:54:54Z</time>
      </trkpt>
      <trkpt lat="45.77296" lon="3.35778">
        <ele>352.6</ele>
        <time>2024-08-11T08:54:55Z</time>
      </trkpt>
      <trkpt lat="45.77291" lon="3.35776">
        <ele>352.8</ele>
        <time>2024-08-11T08:54:56Z</time>
      </trkpt>
      <trkpt lat="45.77287" lon="3.35774">
        <ele>352.8</ele>
        <time>2024-08-11T08:54:57Z</time>
      </trkpt>
      <trkpt lat="45.77282" lon="3.35773">
        <ele>353</ele>
        <time>2024-08-11T08:54:58Z</time>
      </trkpt>
      <trkpt lat="45.77278" lon="3.35771">
        <ele>353.2</ele>
        <time>2024-08-11T08:54:59Z</time>
      </trkpt>
      <trkpt lat="45.77274" lon="3.35769">
        <ele>353.2</ele>
        <time>2024-08-11T08:55:00Z</time>
      </trkpt>
      <trkpt lat="45.77269" lon="3.35767">
        <ele>353.2</ele>
        <time>2024-08-11T08:55:01Z</time>
      </trkpt>
      <trkpt lat="45.77265" lon="3.35766">
        <ele>353.4</ele>
        <time>2024-08-11T08:55:02Z</time>
      </trkpt>
      <trkpt lat="45.7726" lon="3.35764">
        <ele>353.4</ele>
        <time>2024-08-11T08:55:03Z</time>
      </trkpt>
      <trkpt lat="45.77256" lon="3.35762">
        <ele>353.6</ele>
        <time>2024-08-11T08:55:04Z</time>
      </trkpt>
      <trkpt lat="45.77252" lon="3.35761">
        <ele>353.6</ele>
        <time>2024-08-11T08:55:05Z</time>
      </trkpt>
      <trkpt lat="45.77247" lon="3.35759">
        <ele>353.8</ele>
        <time>2024-08-11T08:55:06Z</time>
      </trkpt>
      <trkpt lat="45.77243" lon="3.35757">
        <ele>354</ele>
        <time>2024-08-11T08:55:07Z</time>
      </trkpt>
      <trkpt lat="45.77239" lon="3.35756">
        <ele>354</ele>
        <time>2024-08-11T08:55:08Z</time>
      </trkpt>
      <trkpt lat="45.77234" lon="3.35754">
        <ele>354</ele>
        <time>2024-08-11T08:55:09Z</time>
      </trkpt>
      <trkpt lat="45.7723" lon="3.35752">
        <ele>354.2</ele>
        <time>2024-08-11T08:55:10Z</time>
      </trkpt>
      <trkpt lat="45.77225" lon="3.3575">
        <ele>354.4</ele>
        <time>2024-08-11T08:55:11Z</time>
      </trkpt>
      <trkpt lat="45.77221" lon="3.35749">
        <ele>354.6</ele>
        <time>2024-08-11T08:55:12Z</time>
      </trkpt>
      <trkpt lat="45.77216" lon="3.35747">
        <ele>354.6</ele>
        <time>2024-08-11T08:55:13Z</time>
      </trkpt>
      <trkpt lat="45.77211" lon="3.35745">
        <ele>354.8</ele>
        <time>2024-08-11T08:55:14Z</time>
      </trkpt>
      <trkpt lat="45.77207" lon="3.35743">
        <ele>355</ele>
        <time>2024-08-11T08:55:15Z</time>
      </trkpt>
      <trkpt lat="45.77202" lon="3.35741">
        <ele>355</ele>
        <time>2024-08-11T08:55:16Z</time>
      </trkpt>
      <trkpt lat="45.77197" lon="3.3574">
        <ele>355.2</ele>
        <time>2024-08-11T08:55:17Z</time>
      </trkpt>
      <trkpt lat="45.77193" lon="3.35738">
        <ele>355.2</ele>
        <time>2024-08-11T08:55:18Z</time>
      </trkpt>
      <trkpt lat="45.77188" lon="3.35736">
        <ele>355.4</ele>
        <time>2024-08-11T08:55:19Z</time>
      </trkpt>
      <trkpt lat="45.77183" lon="3.35734">
        <ele>355.6</ele>
        <time>2024-08-11T08:55:20Z</time>
      </trkpt>
      <trkpt lat="45.77179" lon="3.35732">
        <ele>355.6</ele>
        <time>2024-08-11T08:55:21Z</time>
      </trkpt>
      <trkpt lat="45.77174" lon="3.35731">
        <ele>355.8</ele>
        <time>2024-08-11T08:55:22Z</time>
      </trkpt>
      <trkpt lat="45.77169" lon="3.35729">
        <ele>355.8</ele>
        <time>2024-08-11T08:55:23Z</time>
      </trkpt>
      <trkpt lat="45.77164" lon="3.35727">
        <ele>356</ele>
        <time>2024-08-11T08:55:24Z</time>
      </trkpt>
      <trkpt lat="45.7716" lon="3.35725">
        <ele>356</ele>
        <time>2024-08-11T08:55:25Z</time>
      </trkpt>
      <trkpt lat="45.77155" lon="3.35723">
        <ele>356.2</ele>
        <time>2024-08-11T08:55:26Z</time>
      </trkpt>
      <trkpt lat="45.7715" lon="3.35722">
        <ele>356.2</ele>
        <time>2024-08-11T08:55:27Z</time>
      </trkpt>
      <trkpt lat="45.77146" lon="3.3572">
        <ele>356.2</ele>
        <time>2024-08-11T08:55:28Z</time>
      </trkpt>
      <trkpt lat="45.77141" lon="3.35718">
        <ele>356.4</ele>
        <time>2024-08-11T08:55:29Z</time>
      </trkpt>
      <trkpt lat="45.77137" lon="3.35716">
        <ele>356.4</ele>
        <time>2024-08-11T08:55:30Z</time>
      </trkpt>
      <trkpt lat="45.77132" lon="3.35714">
        <ele>356.6</ele>
        <time>2024-08-11T08:55:31Z</time>
      </trkpt>
      <trkpt lat="45.77127" lon="3.35713">
        <ele>356.6</ele>
        <time>2024-08-11T08:55:32Z</time>
      </trkpt>
      <trkpt lat="45.77123" lon="3.35711">
        <ele>356.8</ele>
        <time>2024-08-11T08:55:33Z</time>
      </trkpt>
      <trkpt lat="45.77118" lon="3.35709">
        <ele>356.8</ele>
        <time>2024-08-11T08:55:34Z</time>
      </trkpt>
      <trkpt lat="45.77114" lon="3.35707">
        <ele>356.8</ele>
        <time>2024-08-11T08:55:35Z</time>
      </trkpt>
      <trkpt lat="45.7711" lon="3.35706">
        <ele>357</ele>
        <time>2024-08-11T08:55:36Z</time>
      </trkpt>
      <trkpt lat="45.77105" lon="3.35704">
        <ele>357</ele>
        <time>2024-08-11T08:55:37Z</time>
      </trkpt>
      <trkpt lat="45.77101" lon="3.35702">
        <ele>357.2</ele>
        <time>2024-08-11T08:55:38Z</time>
      </trkpt>
      <trkpt lat="45.77096" lon="3.357">
        <ele>357.4</ele>
        <time>2024-08-11T08:55:39Z</time>
      </trkpt>
      <trkpt lat="45.77091" lon="3.35699">
        <ele>357.4</ele>
        <time>2024-08-11T08:55:40Z</time>
      </trkpt>
      <trkpt lat="45.77087" lon="3.35697">
        <ele>357.4</ele>
        <time>2024-08-11T08:55:41Z</time>
      </trkpt>
      <trkpt lat="45.77083" lon="3.35695">
        <ele>357.6</ele>
        <time>2024-08-11T08:55:42Z</time>
      </trkpt>
      <trkpt lat="45.77078" lon="3.35694">
        <ele>357.6</ele>
        <time>2024-08-11T08:55:43Z</time>
      </trkpt>
      <trkpt lat="45.77074" lon="3.35692">
        <ele>357.8</ele>
        <time>2024-08-11T08:55:44Z</time>
      </trkpt>
      <trkpt lat="45.77069" lon="3.3569">
        <ele>358</ele>
        <time>2024-08-11T08:55:45Z</time>
      </trkpt>
      <trkpt lat="45.77064" lon="3.35688">
        <ele>358</ele>
        <time>2024-08-11T08:55:46Z</time>
      </trkpt>
      <trkpt lat="45.77059" lon="3.35686">
        <ele>358.2</ele>
        <time>2024-08-11T08:55:47Z</time>
      </trkpt>
      <trkpt lat="45.77054" lon="3.35684">
        <ele>358.2</ele>
        <time>2024-08-11T08:55:48Z</time>
      </trkpt>
      <trkpt lat="45.77049" lon="3.35682">
        <ele>358.4</ele>
        <time>2024-08-11T08:55:49Z</time>
      </trkpt>
      <trkpt lat="45.77044" lon="3.35681">
        <ele>358.4</ele>
        <time>2024-08-11T08:55:50Z</time>
      </trkpt>
      <trkpt lat="45.77039" lon="3.35679">
        <ele>358.4</ele>
        <time>2024-08-11T08:55:51Z</time>
      </trkpt>
      <trkpt lat="45.77034" lon="3.35677">
        <ele>358.6</ele>
        <time>2024-08-11T08:55:52Z</time>
      </trkpt>
      <trkpt lat="45.77029" lon="3.35675">
        <ele>358.6</ele>
        <time>2024-08-11T08:55:53Z</time>
      </trkpt>
      <trkpt lat="45.77024" lon="3.35673">
        <ele>358.8</ele>
        <time>2024-08-11T08:55:54Z</time>
      </trkpt>
      <trkpt lat="45.77019" lon="3.35671">
        <ele>358.8</ele>
        <time>2024-08-11T08:55:55Z</time>
      </trkpt>
      <trkpt lat="45.77013" lon="3.35668">
        <ele>359</ele>
        <time>2024-08-11T08:55:56Z</time>
      </trkpt>
      <trkpt lat="45.77007" lon="3.35666">
        <ele>359</ele>
        <time>2024-08-11T08:55:57Z</time>
      </trkpt>
      <trkpt lat="45.77002" lon="3.35664">
        <ele>359.2</ele>
        <time>2024-08-11T08:55:58Z</time>
      </trkpt>
      <trkpt lat="45.76996" lon="3.35662">
        <ele>359.2</ele>
        <time>2024-08-11T08:55:59Z</time>
      </trkpt>
      <trkpt lat="45.76991" lon="3.3566">
        <ele>359.4</ele>
        <time>2024-08-11T08:56:00Z</time>
      </trkpt>
      <trkpt lat="45.76986" lon="3.35658">
        <ele>359.4</ele>
        <time>2024-08-11T08:56:01Z</time>
      </trkpt>
      <trkpt lat="45.7698" lon="3.35656">
        <ele>359.4</ele>
        <time>2024-08-11T08:56:02Z</time>
      </trkpt>
      <trkpt lat="45.76974" lon="3.35654">
        <ele>359.6</ele>
        <time>2024-08-11T08:56:03Z</time>
      </trkpt>
      <trkpt lat="45.76969" lon="3.35651">
        <ele>359.6</ele>
        <time>2024-08-11T08:56:04Z</time>
      </trkpt>
      <trkpt lat="45.76964" lon="3.35649">
        <ele>359.6</ele>
        <time>2024-08-11T08:56:05Z</time>
      </trkpt>
      <trkpt lat="45.76958" lon="3.35647">
        <ele>359.8</ele>
        <time>2024-08-11T08:56:06Z</time>
      </trkpt>
      <trkpt lat="45.76953" lon="3.35645">
        <ele>359.8</ele>
        <time>2024-08-11T08:56:07Z</time>
      </trkpt>
      <trkpt lat="45.76949" lon="3.35643">
        <ele>359.8</ele>
        <time>2024-08-11T08:56:08Z</time>
      </trkpt>
      <trkpt lat="45.76943" lon="3.35641">
        <ele>360</ele>
        <time>2024-08-11T08:56:09Z</time>
      </trkpt>
      <trkpt lat="45.76939" lon="3.35639">
        <ele>360</ele>
        <time>2024-08-11T08:56:10Z</time>
      </trkpt>
      <trkpt lat="45.76933" lon="3.35637">
        <ele>360.2</ele>
        <time>2024-08-11T08:56:11Z</time>
      </trkpt>
      <trkpt lat="45.76928" lon="3.35635">
        <ele>360.2</ele>
        <time>2024-08-11T08:56:12Z</time>
      </trkpt>
      <trkpt lat="45.76922" lon="3.35633">
        <ele>360.4</ele>
        <time>2024-08-11T08:56:13Z</time>
      </trkpt>
      <trkpt lat="45.76917" lon="3.35631">
        <ele>360.4</ele>
        <time>2024-08-11T08:56:14Z</time>
      </trkpt>
      <trkpt lat="45.76912" lon="3.35628">
        <ele>360.6</ele>
        <time>2024-08-11T08:56:15Z</time>
      </trkpt>
      <trkpt lat="45.76906" lon="3.35626">
        <ele>360.6</ele>
        <time>2024-08-11T08:56:16Z</time>
      </trkpt>
      <trkpt lat="45.76901" lon="3.35624">
        <ele>360.8</ele>
        <time>2024-08-11T08:56:17Z</time>
      </trkpt>
      <trkpt lat="45.76895" lon="3.35622">
        <ele>360.8</ele>
        <time>2024-08-11T08:56:18Z</time>
      </trkpt>
      <trkpt lat="45.7689" lon="3.3562">
        <ele>360.8</ele>
        <time>2024-08-11T08:56:19Z</time>
      </trkpt>
      <trkpt lat="45.76884" lon="3.35618">
        <ele>361</ele>
        <time>2024-08-11T08:56:20Z</time>
      </trkpt>
      <trkpt lat="45.76878" lon="3.35617">
        <ele>361</ele>
        <time>2024-08-11T08:56:21Z</time>
      </trkpt>
      <trkpt lat="45.76872" lon="3.35615">
        <ele>361</ele>
        <time>2024-08-11T08:56:22Z</time>
      </trkpt>
      <trkpt lat="45.76866" lon="3.35614">
        <ele>361.2</ele>
        <time>2024-08-11T08:56:23Z</time>
      </trkpt>
      <trkpt lat="45.7686" lon="3.35613">
        <ele>361.2</ele>
        <time>2024-08-11T08:56:24Z</time>
      </trkpt>
      <trkpt lat="45.76854" lon="3.35611">
        <ele>361.2</ele>
        <time>2024-08-11T08:56:25Z</time>
      </trkpt>
      <trkpt lat="45.76848" lon="3.3561">
        <ele>361.2</ele>
        <time>2024-08-11T08:56:26Z</time>
      </trkpt>
      <trkpt lat="45.76842" lon="3.35608">
        <ele>361.2</ele>
        <time>2024-08-11T08:56:27Z</time>
      </trkpt>
      <trkpt lat="45.76835" lon="3.35607">
        <ele>361.4</ele>
        <time>2024-08-11T08:56:28Z</time>
      </trkpt>
      <trkpt lat="45.76829" lon="3.35605">
        <ele>361.4</ele>
        <time>2024-08-11T08:56:29Z</time>
      </trkpt>
      <trkpt lat="45.76822" lon="3.35604">
        <ele>361.4</ele>
        <time>2024-08-11T08:56:30Z</time>
      </trkpt>
      <trkpt lat="45.76815" lon="3.35602">
        <ele>361.4</ele>
        <time>2024-08-11T08:56:31Z</time>
      </trkpt>
      <trkpt lat="45.76809" lon="3.35601">
        <ele>361.4</ele>
        <time>2024-08-11T08:56:32Z</time>
      </trkpt>
      <trkpt lat="45.76802" lon="3.35599">
        <ele>361.4</ele>
        <time>2024-08-11T08:56:33Z</time>
      </trkpt>
      <trkpt lat="45.76795" lon="3.35598">
        <ele>361.4</ele>
        <time>2024-08-11T08:56:34Z</time>
      </trkpt>
      <trkpt lat="45.76788" lon="3.35596">
        <ele>361.4</ele>
        <time>2024-08-11T08:56:35Z</time>
      </trkpt>
      <trkpt lat="45.76781" lon="3.35595">
        <ele>361.4</ele>
        <time>2024-08-11T08:56:36Z</time>
      </trkpt>
      <trkpt lat="45.76774" lon="3.35593">
        <ele>361.4</ele>
        <time>2024-08-11T08:56:37Z</time>
      </trkpt>
      <trkpt lat="45.76767" lon="3.35591">
        <ele>361.4</ele>
        <time>2024-08-11T08:56:38Z</time>
      </trkpt>
      <trkpt lat="45.7676" lon="3.3559">
        <ele>361.4</ele>
        <time>2024-08-11T08:56:39Z</time>
      </trkpt>
      <trkpt lat="45.76753" lon="3.35588">
        <ele>361.4</ele>
        <time>2024-08-11T08:56:40Z</time>
      </trkpt>
      <trkpt lat="45.76746" lon="3.35587">
        <ele>361.4</ele>
        <time>2024-08-11T08:56:41Z</time>
      </trkpt>
      <trkpt lat="45.76739" lon="3.35585">
        <ele>361.4</ele>
        <time>2024-08-11T08:56:42Z</time>
      </trkpt>
      <trkpt lat="45.76733" lon="3.35584">
        <ele>361.4</ele>
        <time>2024-08-11T08:56:43Z</time>
      </trkpt>
      <trkpt lat="45.76726" lon="3.35582">
        <ele>361.4</ele>
        <time>2024-08-11T08:56:44Z</time>
      </trkpt>
      <trkpt lat="45.76719" lon="3.3558">
        <ele>361.4</ele>
        <time>2024-08-11T08:56:45Z</time>
      </trkpt>
      <trkpt lat="45.76712" lon="3.35579">
        <ele>361.4</ele>
        <time>2024-08-11T08:56:46Z</time>
      </trkpt>
      <trkpt lat="45.76704" lon="3.35577">
        <ele>361.4</ele>
        <time>2024-08-11T08:56:47Z</time>
      </trkpt>
      <trkpt lat="45.76697" lon="3.35575">
        <ele>361.4</ele>
        <time>2024-08-11T08:56:48Z</time>
      </trkpt>
      <trkpt lat="45.7669" lon="3.35574">
        <ele>361.4</ele>
        <time>2024-08-11T08:56:49Z</time>
      </trkpt>
      <trkpt lat="45.76683" lon="3.35572">
        <ele>361.4</ele>
        <time>2024-08-11T08:56:50Z</time>
      </trkpt>
      <trkpt lat="45.76675" lon="3.35571">
        <ele>361.4</ele>
        <time>2024-08-11T08:56:51Z</time>
      </trkpt>
      <trkpt lat="45.76668" lon="3.35569">
        <ele>361.2</ele>
        <time>2024-08-11T08:56:52Z</time>
      </trkpt>
      <trkpt lat="45.7666" lon="3.35567">
        <ele>361.2</ele>
        <time>2024-08-11T08:56:53Z</time>
      </trkpt>
      <trkpt lat="45.76652" lon="3.35565">
        <ele>361.2</ele>
        <time>2024-08-11T08:56:54Z</time>
      </trkpt>
      <trkpt lat="45.76644" lon="3.35564">
        <ele>361.2</ele>
        <time>2024-08-11T08:56:55Z</time>
      </trkpt>
      <trkpt lat="45.76636" lon="3.35563">
        <ele>361</ele>
        <time>2024-08-11T08:56:56Z</time>
      </trkpt>
      <trkpt lat="45.76628" lon="3.35563">
        <ele>361</ele>
        <time>2024-08-11T08:56:57Z</time>
      </trkpt>
      <trkpt lat="45.7662" lon="3.35562">
        <ele>361</ele>
        <time>2024-08-11T08:56:58Z</time>
      </trkpt>
      <trkpt lat="45.76612" lon="3.35562">
        <ele>360.8</ele>
        <time>2024-08-11T08:56:59Z</time>
      </trkpt>
      <trkpt lat="45.76605" lon="3.35562">
        <ele>360.8</ele>
        <time>2024-08-11T08:57:00Z</time>
      </trkpt>
      <trkpt lat="45.76597" lon="3.35561">
        <ele>360.8</ele>
        <time>2024-08-11T08:57:01Z</time>
      </trkpt>
      <trkpt lat="45.76589" lon="3.35561">
        <ele>360.8</ele>
        <time>2024-08-11T08:57:02Z</time>
      </trkpt>
      <trkpt lat="45.76582" lon="3.35561">
        <ele>360.8</ele>
        <time>2024-08-11T08:57:03Z</time>
      </trkpt>
      <trkpt lat="45.76574" lon="3.35561">
        <ele>360.8</ele>
        <time>2024-08-11T08:57:04Z</time>
      </trkpt>
      <trkpt lat="45.76567" lon="3.3556">
        <ele>360.8</ele>
        <time>2024-08-11T08:57:05Z</time>
      </trkpt>
      <trkpt lat="45.7656" lon="3.3556">
        <ele>360.8</ele>
        <time>2024-08-11T08:57:06Z</time>
      </trkpt>
      <trkpt lat="45.76553" lon="3.3556">
        <ele>360.8</ele>
        <time>2024-08-11T08:57:07Z</time>
      </trkpt>
      <trkpt lat="45.76546" lon="3.3556">
        <ele>360.8</ele>
        <time>2024-08-11T08:57:08Z</time>
      </trkpt>
      <trkpt lat="45.76539" lon="3.3556">
        <ele>360.8</ele>
        <time>2024-08-11T08:57:09Z</time>
      </trkpt>
      <trkpt lat="45.76532" lon="3.35562">
        <ele>360.8</ele>
        <time>2024-08-11T08:57:10Z</time>
      </trkpt>
      <trkpt lat="45.76526" lon="3.35564">
        <ele>360.8</ele>
        <time>2024-08-11T08:57:11Z</time>
      </trkpt>
      <trkpt lat="45.76519" lon="3.35566">
        <ele>360.8</ele>
        <time>2024-08-11T08:57:12Z</time>
      </trkpt>
      <trkpt lat="45.76513" lon="3.35567">
        <ele>360.8</ele>
        <time>2024-08-11T08:57:13Z</time>
      </trkpt>
      <trkpt lat="45.76506" lon="3.35569">
        <ele>360.8</ele>
        <time>2024-08-11T08:57:14Z</time>
      </trkpt>
      <trkpt lat="45.765" lon="3.35571">
        <ele>360.8</ele>
        <time>2024-08-11T08:57:15Z</time>
      </trkpt>
      <trkpt lat="45.76494" lon="3.35572">
        <ele>360.8</ele>
        <time>2024-08-11T08:57:16Z</time>
      </trkpt>
      <trkpt lat="45.76488" lon="3.35574">
        <ele>360.6</ele>
        <time>2024-08-11T08:57:17Z</time>
      </trkpt>
      <trkpt lat="45.76482" lon="3.35576">
        <ele>360.6</ele>
        <time>2024-08-11T08:57:18Z</time>
      </trkpt>
      <trkpt lat="45.76476" lon="3.35577">
        <ele>360.8</ele>
        <time>2024-08-11T08:57:19Z</time>
      </trkpt>
      <trkpt lat="45.7647" lon="3.35579">
        <ele>360.8</ele>
        <time>2024-08-11T08:57:20Z</time>
      </trkpt>
      <trkpt lat="45.76464" lon="3.35581">
        <ele>361</ele>
        <time>2024-08-11T08:57:21Z</time>
      </trkpt>
      <trkpt lat="45.76458" lon="3.35582">
        <ele>361.2</ele>
        <time>2024-08-11T08:57:22Z</time>
      </trkpt>
      <trkpt lat="45.76452" lon="3.35584">
        <ele>361</ele>
        <time>2024-08-11T08:57:23Z</time>
      </trkpt>
      <trkpt lat="45.76447" lon="3.35585">
        <ele>361</ele>
        <time>2024-08-11T08:57:24Z</time>
      </trkpt>
      <trkpt lat="45.76441" lon="3.35587">
        <ele>361</ele>
        <time>2024-08-11T08:57:25Z</time>
      </trkpt>
      <trkpt lat="45.76436" lon="3.35588">
        <ele>361.2</ele>
        <time>2024-08-11T08:57:26Z</time>
      </trkpt>
      <trkpt lat="45.76431" lon="3.3559">
        <ele>361.2</ele>
        <time>2024-08-11T08:57:27Z</time>
      </trkpt>
      <trkpt lat="45.76425" lon="3.35591">
        <ele>361.2</ele>
        <time>2024-08-11T08:57:28Z</time>
      </trkpt>
      <trkpt lat="45.76419" lon="3.35593">
        <ele>361.2</ele>
        <time>2024-08-11T08:57:29Z</time>
      </trkpt>
      <trkpt lat="45.76414" lon="3.35594">
        <ele>361.2</ele>
        <time>2024-08-11T08:57:30Z</time>
      </trkpt>
      <trkpt lat="45.76408" lon="3.35596">
        <ele>361.2</ele>
        <time>2024-08-11T08:57:31Z</time>
      </trkpt>
      <trkpt lat="45.76403" lon="3.35597">
        <ele>361.4</ele>
        <time>2024-08-11T08:57:32Z</time>
      </trkpt>
      <trkpt lat="45.76397" lon="3.35598">
        <ele>361.4</ele>
        <time>2024-08-11T08:57:33Z</time>
      </trkpt>
      <trkpt lat="45.76391" lon="3.35599">
        <ele>361.4</ele>
        <time>2024-08-11T08:57:34Z</time>
      </trkpt>
      <trkpt lat="45.76386" lon="3.356">
        <ele>361.6</ele>
        <time>2024-08-11T08:57:35Z</time>
      </trkpt>
      <trkpt lat="45.76381" lon="3.35601">
        <ele>361.6</ele>
        <time>2024-08-11T08:57:36Z</time>
      </trkpt>
      <trkpt lat="45.76375" lon="3.35602">
        <ele>361.6</ele>
        <time>2024-08-11T08:57:37Z</time>
      </trkpt>
      <trkpt lat="45.7637" lon="3.35603">
        <ele>361.8</ele>
        <time>2024-08-11T08:57:38Z</time>
      </trkpt>
      <trkpt lat="45.76365" lon="3.35604">
        <ele>361.8</ele>
        <time>2024-08-11T08:57:39Z</time>
      </trkpt>
      <trkpt lat="45.76359" lon="3.35605">
        <ele>361.8</ele>
        <time>2024-08-11T08:57:40Z</time>
      </trkpt>
      <trkpt lat="45.76354" lon="3.35606">
        <ele>361.8</ele>
        <time>2024-08-11T08:57:41Z</time>
      </trkpt>
      <trkpt lat="45.76349" lon="3.35607">
        <ele>361.8</ele>
        <time>2024-08-11T08:57:42Z</time>
      </trkpt>
      <trkpt lat="45.76344" lon="3.35608">
        <ele>362</ele>
        <time>2024-08-11T08:57:43Z</time>
      </trkpt>
      <trkpt lat="45.76339" lon="3.35608">
        <ele>362</ele>
        <time>2024-08-11T08:57:44Z</time>
      </trkpt>
      <trkpt lat="45.76334" lon="3.35609">
        <ele>362</ele>
        <time>2024-08-11T08:57:45Z</time>
      </trkpt>
      <trkpt lat="45.76329" lon="3.3561">
        <ele>362.2</ele>
        <time>2024-08-11T08:57:46Z</time>
      </trkpt>
      <trkpt lat="45.76324" lon="3.35611">
        <ele>362.2</ele>
        <time>2024-08-11T08:57:47Z</time>
      </trkpt>
      <trkpt lat="45.76319" lon="3.35612">
        <ele>362.2</ele>
        <time>2024-08-11T08:57:48Z</time>
      </trkpt>
      <trkpt lat="45.76314" lon="3.35613">
        <ele>362.2</ele>
        <time>2024-08-11T08:57:49Z</time>
      </trkpt>
      <trkpt lat="45.7631" lon="3.35614">
        <ele>362.4</ele>
        <time>2024-08-11T08:57:50Z</time>
      </trkpt>
      <trkpt lat="45.76305" lon="3.35615">
        <ele>362.4</ele>
        <time>2024-08-11T08:57:51Z</time>
      </trkpt>
      <trkpt lat="45.763" lon="3.35615">
        <ele>362.4</ele>
        <time>2024-08-11T08:57:52Z</time>
      </trkpt>
      <trkpt lat="45.76295" lon="3.35616">
        <ele>362.4</ele>
        <time>2024-08-11T08:57:53Z</time>
      </trkpt>
      <trkpt lat="45.76291" lon="3.35617">
        <ele>362.6</ele>
        <time>2024-08-11T08:57:54Z</time>
      </trkpt>
      <trkpt lat="45.76286" lon="3.35618">
        <ele>362.6</ele>
        <time>2024-08-11T08:57:55Z</time>
      </trkpt>
      <trkpt lat="45.76282" lon="3.35619">
        <ele>362.8</ele>
        <time>2024-08-11T08:57:56Z</time>
      </trkpt>
      <trkpt lat="45.76277" lon="3.3562">
        <ele>362.8</ele>
        <time>2024-08-11T08:57:57Z</time>
      </trkpt>
      <trkpt lat="45.76273" lon="3.3562">
        <ele>362.8</ele>
        <time>2024-08-11T08:57:58Z</time>
      </trkpt>
      <trkpt lat="45.76268" lon="3.35621">
        <ele>363</ele>
        <time>2024-08-11T08:57:59Z</time>
      </trkpt>
      <trkpt lat="45.76264" lon="3.35622">
        <ele>363</ele>
        <time>2024-08-11T08:58:00Z</time>
      </trkpt>
      <trkpt lat="45.7626" lon="3.35623">
        <ele>363</ele>
        <time>2024-08-11T08:58:01Z</time>
      </trkpt>
      <trkpt lat="45.76255" lon="3.35624">
        <ele>363.2</ele>
        <time>2024-08-11T08:58:02Z</time>
      </trkpt>
      <trkpt lat="45.76251" lon="3.35624">
        <ele>363.2</ele>
        <time>2024-08-11T08:58:03Z</time>
      </trkpt>
      <trkpt lat="45.76246" lon="3.35625">
        <ele>363.2</ele>
        <time>2024-08-11T08:58:04Z</time>
      </trkpt>
      <trkpt lat="45.76242" lon="3.35626">
        <ele>363.4</ele>
        <time>2024-08-11T08:58:05Z</time>
      </trkpt>
      <trkpt lat="45.76237" lon="3.35627">
        <ele>363.4</ele>
        <time>2024-08-11T08:58:06Z</time>
      </trkpt>
      <trkpt lat="45.76233" lon="3.35628">
        <ele>363.4</ele>
        <time>2024-08-11T08:58:07Z</time>
      </trkpt>
      <trkpt lat="45.76228" lon="3.35628">
        <ele>363.6</ele>
        <time>2024-08-11T08:58:08Z</time>
      </trkpt>
      <trkpt lat="45.76223" lon="3.35629">
        <ele>363.6</ele>
        <time>2024-08-11T08:58:09Z</time>
      </trkpt>
      <trkpt lat="45.76218" lon="3.3563">
        <ele>363.6</ele>
        <time>2024-08-11T08:58:10Z</time>
      </trkpt>
      <trkpt lat="45.76214" lon="3.35631">
        <ele>363.6</ele>
        <time>2024-08-11T08:58:11Z</time>
      </trkpt>
      <trkpt lat="45.76209" lon="3.35632">
        <ele>363.8</ele>
        <time>2024-08-11T08:58:12Z</time>
      </trkpt>
      <trkpt lat="45.76204" lon="3.35633">
        <ele>363.8</ele>
        <time>2024-08-11T08:58:13Z</time>
      </trkpt>
      <trkpt lat="45.76199" lon="3.35634">
        <ele>363.8</ele>
        <time>2024-08-11T08:58:14Z</time>
      </trkpt>
      <trkpt lat="45.76194" lon="3.35634">
        <ele>363.8</ele>
        <time>2024-08-11T08:58:15Z</time>
      </trkpt>
      <trkpt lat="45.76189" lon="3.35634">
        <ele>363.8</ele>
        <time>2024-08-11T08:58:16Z</time>
      </trkpt>
      <trkpt lat="45.76184" lon="3.35634">
        <ele>364</ele>
        <time>2024-08-11T08:58:17Z</time>
      </trkpt>
      <trkpt lat="45.76178" lon="3.35633">
        <ele>364</ele>
        <time>2024-08-11T08:58:18Z</time>
      </trkpt>
      <trkpt lat="45.76173" lon="3.35633">
        <ele>364</ele>
        <time>2024-08-11T08:58:19Z</time>
      </trkpt>
      <trkpt lat="45.76168" lon="3.35633">
        <ele>364</ele>
        <time>2024-08-11T08:58:20Z</time>
      </trkpt>
      <trkpt lat="45.76163" lon="3.35633">
        <ele>364.2</ele>
        <time>2024-08-11T08:58:21Z</time>
      </trkpt>
      <trkpt lat="45.76157" lon="3.35632">
        <ele>364.2</ele>
        <time>2024-08-11T08:58:22Z</time>
      </trkpt>
      <trkpt lat="45.76151" lon="3.35632">
        <ele>364.2</ele>
        <time>2024-08-11T08:58:23Z</time>
      </trkpt>
      <trkpt lat="45.76146" lon="3.35632">
        <ele>364.2</ele>
        <time>2024-08-11T08:58:24Z</time>
      </trkpt>
      <trkpt lat="45.76141" lon="3.35631">
        <ele>364.2</ele>
        <time>2024-08-11T08:58:25Z</time>
      </trkpt>
      <trkpt lat="45.76135" lon="3.35631">
        <ele>364.4</ele>
        <time>2024-08-11T08:58:26Z</time>
      </trkpt>
      <trkpt lat="45.76129" lon="3.35631">
        <ele>364.4</ele>
        <time>2024-08-11T08:58:27Z</time>
      </trkpt>
      <trkpt lat="45.76124" lon="3.3563">
        <ele>364.4</ele>
        <time>2024-08-11T08:58:28Z</time>
      </trkpt>
      <trkpt lat="45.76118" lon="3.3563">
        <ele>364.6</ele>
        <time>2024-08-11T08:58:29Z</time>
      </trkpt>
      <trkpt lat="45.76112" lon="3.3563">
        <ele>364.6</ele>
        <time>2024-08-11T08:58:30Z</time>
      </trkpt>
      <trkpt lat="45.76107" lon="3.35629">
        <ele>364.6</ele>
        <time>2024-08-11T08:58:31Z</time>
      </trkpt>
      <trkpt lat="45.76101" lon="3.35629">
        <ele>364.6</ele>
        <time>2024-08-11T08:58:32Z</time>
      </trkpt>
      <trkpt lat="45.76095" lon="3.35629">
        <ele>364.6</ele>
        <time>2024-08-11T08:58:33Z</time>
      </trkpt>
      <trkpt lat="45.76089" lon="3.35628">
        <ele>364.8</ele>
        <time>2024-08-11T08:58:34Z</time>
      </trkpt>
      <trkpt lat="45.76084" lon="3.35628">
        <ele>364.8</ele>
        <time>2024-08-11T08:58:35Z</time>
      </trkpt>
      <trkpt lat="45.76078" lon="3.35628">
        <ele>364.8</ele>
        <time>2024-08-11T08:58:36Z</time>
      </trkpt>
      <trkpt lat="45.76072" lon="3.35627">
        <ele>364.8</ele>
        <time>2024-08-11T08:58:37Z</time>
      </trkpt>
      <trkpt lat="45.76066" lon="3.35627">
        <ele>364.8</ele>
        <time>2024-08-11T08:58:38Z</time>
      </trkpt>
      <trkpt lat="45.7606" lon="3.35627">
        <ele>364.8</ele>
        <time>2024-08-11T08:58:39Z</time>
      </trkpt>
      <trkpt lat="45.76054" lon="3.35626">
        <ele>365</ele>
        <time>2024-08-11T08:58:40Z</time>
      </trkpt>
      <trkpt lat="45.76048" lon="3.35626">
        <ele>365</ele>
        <time>2024-08-11T08:58:41Z</time>
      </trkpt>
      <trkpt lat="45.76042" lon="3.35625">
        <ele>365</ele>
        <time>2024-08-11T08:58:42Z</time>
      </trkpt>
      <trkpt lat="45.76036" lon="3.35625">
        <ele>365</ele>
        <time>2024-08-11T08:58:43Z</time>
      </trkpt>
      <trkpt lat="45.76029" lon="3.35624">
        <ele>365</ele>
        <time>2024-08-11T08:58:44Z</time>
      </trkpt>
      <trkpt lat="45.76023" lon="3.35623">
        <ele>365.2</ele>
        <time>2024-08-11T08:58:45Z</time>
      </trkpt>
      <trkpt lat="45.76017" lon="3.35623">
        <ele>365.2</ele>
        <time>2024-08-11T08:58:46Z</time>
      </trkpt>
      <trkpt lat="45.76011" lon="3.35622">
        <ele>365.2</ele>
        <time>2024-08-11T08:58:47Z</time>
      </trkpt>
      <trkpt lat="45.76005" lon="3.35621">
        <ele>365.2</ele>
        <time>2024-08-11T08:58:48Z</time>
      </trkpt>
      <trkpt lat="45.75998" lon="3.3562">
        <ele>365.2</ele>
        <time>2024-08-11T08:58:49Z</time>
      </trkpt>
      <trkpt lat="45.75992" lon="3.3562">
        <ele>365.2</ele>
        <time>2024-08-11T08:58:50Z</time>
      </trkpt>
      <trkpt lat="45.75985" lon="3.35619">
        <ele>365.2</ele>
        <time>2024-08-11T08:58:51Z</time>
      </trkpt>
      <trkpt lat="45.75978" lon="3.35618">
        <ele>365.2</ele>
        <time>2024-08-11T08:58:52Z</time>
      </trkpt>
      <trkpt lat="45.75972" lon="3.35617">
        <ele>365.2</ele>
        <time>2024-08-11T08:58:53Z</time>
      </trkpt>
      <trkpt lat="45.75965" lon="3.35616">
        <ele>365.2</ele>
        <time>2024-08-11T08:58:54Z</time>
      </trkpt>
      <trkpt lat="45.75958" lon="3.35616">
        <ele>365.2</ele>
        <time>2024-08-11T08:58:55Z</time>
      </trkpt>
      <trkpt lat="45.75952" lon="3.35615">
        <ele>365.2</ele>
        <time>2024-08-11T08:58:56Z</time>
      </trkpt>
      <trkpt lat="45.75945" lon="3.35614">
        <ele>365.2</ele>
        <time>2024-08-11T08:58:57Z</time>
      </trkpt>
      <trkpt lat="45.75938" lon="3.35613">
        <ele>365.2</ele>
        <time>2024-08-11T08:58:58Z</time>
      </trkpt>
      <trkpt lat="45.75931" lon="3.35612">
        <ele>365.2</ele>
        <time>2024-08-11T08:58:59Z</time>
      </trkpt>
      <trkpt lat="45.75923" lon="3.35612">
        <ele>365.2</ele>
        <time>2024-08-11T08:59:00Z</time>
      </trkpt>
      <trkpt lat="45.75916" lon="3.35611">
        <ele>365.2</ele>
        <time>2024-08-11T08:59:01Z</time>
      </trkpt>
      <trkpt lat="45.75909" lon="3.3561">
        <ele>365.2</ele>
        <time>2024-08-11T08:59:02Z</time>
      </trkpt>
      <trkpt lat="45.75902" lon="3.35609">
        <ele>365.2</ele>
        <time>2024-08-11T08:59:03Z</time>
      </trkpt>
      <trkpt lat="45.75895" lon="3.35608">
        <ele>365.2</ele>
        <time>2024-08-11T08:59:04Z</time>
      </trkpt>
      <trkpt lat="45.75888" lon="3.35607">
        <ele>365.2</ele>
        <time>2024-08-11T08:59:05Z</time>
      </trkpt>
      <trkpt lat="45.7588" lon="3.35607">
        <ele>365.4</ele>
        <time>2024-08-11T08:59:06Z</time>
      </trkpt>
      <trkpt lat="45.75873" lon="3.35606">
        <ele>365</ele>
        <time>2024-08-11T08:59:07Z</time>
      </trkpt>
      <trkpt lat="45.75866" lon="3.35605">
        <ele>365</ele>
        <time>2024-08-11T08:59:08Z</time>
      </trkpt>
      <trkpt lat="45.75859" lon="3.35604">
        <ele>365</ele>
        <time>2024-08-11T08:59:09Z</time>
      </trkpt>
      <trkpt lat="45.75852" lon="3.35603">
        <ele>364.8</ele>
        <time>2024-08-11T08:59:10Z</time>
      </trkpt>
      <trkpt lat="45.75845" lon="3.35602">
        <ele>364.8</ele>
        <time>2024-08-11T08:59:11Z</time>
      </trkpt>
      <trkpt lat="45.75837" lon="3.35602">
        <ele>364.8</ele>
        <time>2024-08-11T08:59:12Z</time>
      </trkpt>
      <trkpt lat="45.7583" lon="3.35601">
        <ele>364.6</ele>
        <time>2024-08-11T08:59:13Z</time>
      </trkpt>
      <trkpt lat="45.75823" lon="3.356">
        <ele>364.6</ele>
        <time>2024-08-11T08:59:14Z</time>
      </trkpt>
      <trkpt lat="45.75815" lon="3.35599">
        <ele>364.6</ele>
        <time>2024-08-11T08:59:15Z</time>
      </trkpt>
      <trkpt lat="45.75807" lon="3.35598">
        <ele>364.6</ele>
        <time>2024-08-11T08:59:16Z</time>
      </trkpt>
      <trkpt lat="45.758" lon="3.35597">
        <ele>364.6</ele>
        <time>2024-08-11T08:59:17Z</time>
      </trkpt>
      <trkpt lat="45.75792" lon="3.35596">
        <ele>364.6</ele>
        <time>2024-08-11T08:59:18Z</time>
      </trkpt>
      <trkpt lat="45.75785" lon="3.35595">
        <ele>364.6</ele>
        <time>2024-08-11T08:59:19Z</time>
      </trkpt>
      <trkpt lat="45.75777" lon="3.35595">
        <ele>364.6</ele>
        <time>2024-08-11T08:59:20Z</time>
      </trkpt>
      <trkpt lat="45.7577" lon="3.35594">
        <ele>364.4</ele>
        <time>2024-08-11T08:59:21Z</time>
      </trkpt>
      <trkpt lat="45.75763" lon="3.35593">
        <ele>364.4</ele>
        <time>2024-08-11T08:59:22Z</time>
      </trkpt>
      <trkpt lat="45.75755" lon="3.35592">
        <ele>364.4</ele>
        <time>2024-08-11T08:59:23Z</time>
      </trkpt>
      <trkpt lat="45.75748" lon="3.35591">
        <ele>364.4</ele>
        <time>2024-08-11T08:59:24Z</time>
      </trkpt>
      <trkpt lat="45.7574" lon="3.3559">
        <ele>364.2</ele>
        <time>2024-08-11T08:59:25Z</time>
      </trkpt>
      <trkpt lat="45.75733" lon="3.35589">
        <ele>364.2</ele>
        <time>2024-08-11T08:59:26Z</time>
      </trkpt>
      <trkpt lat="45.75725" lon="3.35588">
        <ele>364.2</ele>
        <time>2024-08-11T08:59:27Z</time>
      </trkpt>
      <trkpt lat="45.75718" lon="3.35587">
        <ele>364.2</ele>
        <time>2024-08-11T08:59:28Z</time>
      </trkpt>
      <trkpt lat="45.75711" lon="3.35586">
        <ele>364</ele>
        <time>2024-08-11T08:59:29Z</time>
      </trkpt>
      <trkpt lat="45.75703" lon="3.35584">
        <ele>364</ele>
        <time>2024-08-11T08:59:30Z</time>
      </trkpt>
      <trkpt lat="45.75695" lon="3.35583">
        <ele>364</ele>
        <time>2024-08-11T08:59:31Z</time>
      </trkpt>
      <trkpt lat="45.75688" lon="3.35582">
        <ele>363.8</ele>
        <time>2024-08-11T08:59:32Z</time>
      </trkpt>
      <trkpt lat="45.7568" lon="3.3558">
        <ele>363.8</ele>
        <time>2024-08-11T08:59:33Z</time>
      </trkpt>
      <trkpt lat="45.75673" lon="3.35579">
        <ele>363.8</ele>
        <time>2024-08-11T08:59:34Z</time>
      </trkpt>
      <trkpt lat="45.75666" lon="3.35578">
        <ele>363.8</ele>
        <time>2024-08-11T08:59:35Z</time>
      </trkpt>
      <trkpt lat="45.75659" lon="3.35577">
        <ele>363.8</ele>
        <time>2024-08-11T08:59:36Z</time>
      </trkpt>
      <trkpt lat="45.75652" lon="3.35575">
        <ele>363.8</ele>
        <time>2024-08-11T08:59:37Z</time>
      </trkpt>
      <trkpt lat="45.75645" lon="3.35574">
        <ele>363.6</ele>
        <time>2024-08-11T08:59:38Z</time>
      </trkpt>
      <trkpt lat="45.75637" lon="3.35573">
        <ele>363.6</ele>
        <time>2024-08-11T08:59:39Z</time>
      </trkpt>
      <trkpt lat="45.7563" lon="3.35572">
        <ele>363.6</ele>
        <time>2024-08-11T08:59:40Z</time>
      </trkpt>
      <trkpt lat="45.75623" lon="3.35571">
        <ele>363.6</ele>
        <time>2024-08-11T08:59:41Z</time>
      </trkpt>
      <trkpt lat="45.75616" lon="3.35569">
        <ele>363.6</ele>
        <time>2024-08-11T08:59:42Z</time>
      </trkpt>
      <trkpt lat="45.7561" lon="3.35568">
        <ele>363.6</ele>
        <time>2024-08-11T08:59:43Z</time>
      </trkpt>
      <trkpt lat="45.75603" lon="3.35567">
        <ele>363.4</ele>
        <time>2024-08-11T08:59:44Z</time>
      </trkpt>
      <trkpt lat="45.75596" lon="3.35566">
        <ele>363.4</ele>
        <time>2024-08-11T08:59:45Z</time>
      </trkpt>
      <trkpt lat="45.75589" lon="3.35564">
        <ele>363.4</ele>
        <time>2024-08-11T08:59:46Z</time>
      </trkpt>
      <trkpt lat="45.75583" lon="3.35562">
        <ele>363.4</ele>
        <time>2024-08-11T08:59:47Z</time>
      </trkpt>
      <trkpt lat="45.75576" lon="3.3556">
        <ele>363.4</ele>
        <time>2024-08-11T08:59:48Z</time>
      </trkpt>
      <trkpt lat="45.75569" lon="3.35558">
        <ele>363.4</ele>
        <time>2024-08-11T08:59:49Z</time>
      </trkpt>
      <trkpt lat="45.75563" lon="3.35556">
        <ele>363.4</ele>
        <time>2024-08-11T08:59:50Z</time>
      </trkpt>
      <trkpt lat="45.75557" lon="3.35554">
        <ele>363.4</ele>
        <time>2024-08-11T08:59:51Z</time>
      </trkpt>
      <trkpt lat="45.7555" lon="3.35552">
        <ele>363.4</ele>
        <time>2024-08-11T08:59:52Z</time>
      </trkpt>
      <trkpt lat="45.75544" lon="3.35551">
        <ele>363.4</ele>
        <time>2024-08-11T08:59:53Z</time>
      </trkpt>
      <trkpt lat="45.75537" lon="3.35549">
        <ele>363.4</ele>
        <time>2024-08-11T08:59:54Z</time>
      </trkpt>
      <trkpt lat="45.75531" lon="3.35547">
        <ele>363.4</ele>
        <time>2024-08-11T08:59:55Z</time>
      </trkpt>
      <trkpt lat="45.75525" lon="3.35545">
        <ele>363.4</ele>
        <time>2024-08-11T08:59:56Z</time>
      </trkpt>
      <trkpt lat="45.75518" lon="3.35543">
        <ele>363.4</ele>
        <time>2024-08-11T08:59:57Z</time>
      </trkpt>
      <trkpt lat="45.75512" lon="3.35541">
        <ele>363.4</ele>
        <time>2024-08-11T08:59:58Z</time>
      </trkpt>
      <trkpt lat="45.75506" lon="3.35539">
        <ele>363.4</ele>
        <time>2024-08-11T08:59:59Z</time>
      </trkpt>
      <trkpt lat="45.755" lon="3.35538">
        <ele>363.4</ele>
        <time>2024-08-11T09:00:00Z</time>
      </trkpt>
      <trkpt lat="45.75494" lon="3.35536">
        <ele>363.4</ele>
        <time>2024-08-11T09:00:01Z</time>
      </trkpt>
      <trkpt lat="45.75488" lon="3.35534">
        <ele>363.4</ele>
        <time>2024-08-11T09:00:02Z</time>
      </trkpt>
      <trkpt lat="45.75482" lon="3.35532">
        <ele>363.4</ele>
        <time>2024-08-11T09:00:03Z</time>
      </trkpt>
      <trkpt lat="45.75476" lon="3.3553">
        <ele>363.4</ele>
        <time>2024-08-11T09:00:04Z</time>
      </trkpt>
      <trkpt lat="45.7547" lon="3.35529">
        <ele>363.4</ele>
        <time>2024-08-11T09:00:05Z</time>
      </trkpt>
      <trkpt lat="45.75464" lon="3.35527">
        <ele>363.4</ele>
        <time>2024-08-11T09:00:06Z</time>
      </trkpt>
      <trkpt lat="45.75457" lon="3.35525">
        <ele>363.4</ele>
        <time>2024-08-11T09:00:07Z</time>
      </trkpt>
      <trkpt lat="45.75451" lon="3.35523">
        <ele>363.4</ele>
        <time>2024-08-11T09:00:08Z</time>
      </trkpt>
      <trkpt lat="45.75445" lon="3.35521">
        <ele>363.4</ele>
        <time>2024-08-11T09:00:09Z</time>
      </trkpt>
      <trkpt lat="45.75439" lon="3.3552">
        <ele>363.4</ele>
        <time>2024-08-11T09:00:10Z</time>
      </trkpt>
      <trkpt lat="45.75433" lon="3.35518">
        <ele>363.4</ele>
        <time>2024-08-11T09:00:11Z</time>
      </trkpt>
      <trkpt lat="45.75427" lon="3.35516">
        <ele>363.4</ele>
        <time>2024-08-11T09:00:12Z</time>
      </trkpt>
      <trkpt lat="45.75421" lon="3.35514">
        <ele>363.4</ele>
        <time>2024-08-11T09:00:13Z</time>
      </trkpt>
      <trkpt lat="45.75415" lon="3.35513">
        <ele>363.6</ele>
        <time>2024-08-11T09:00:14Z</time>
      </trkpt>
      <trkpt lat="45.75409" lon="3.35511">
        <ele>363.4</ele>
        <time>2024-08-11T09:00:15Z</time>
      </trkpt>
      <trkpt lat="45.75403" lon="3.35509">
        <ele>363.4</ele>
        <time>2024-08-11T09:00:16Z</time>
      </trkpt>
      <trkpt lat="45.75398" lon="3.35507">
        <ele>363.6</ele>
        <time>2024-08-11T09:00:17Z</time>
      </trkpt>
      <trkpt lat="45.75392" lon="3.35506">
        <ele>363.6</ele>
        <time>2024-08-11T09:00:18Z</time>
      </trkpt>
      <trkpt lat="45.75386" lon="3.35504">
        <ele>363.6</ele>
        <time>2024-08-11T09:00:19Z</time>
      </trkpt>
      <trkpt lat="45.7538" lon="3.35502">
        <ele>363.6</ele>
        <time>2024-08-11T09:00:20Z</time>
      </trkpt>
      <trkpt lat="45.75374" lon="3.355">
        <ele>363.6</ele>
        <time>2024-08-11T09:00:21Z</time>
      </trkpt>
      <trkpt lat="45.75368" lon="3.35499">
        <ele>363.6</ele>
        <time>2024-08-11T09:00:22Z</time>
      </trkpt>
      <trkpt lat="45.75362" lon="3.35497">
        <ele>363.6</ele>
        <time>2024-08-11T09:00:23Z</time>
      </trkpt>
      <trkpt lat="45.75357" lon="3.35495">
        <ele>363.6</ele>
        <time>2024-08-11T09:00:24Z</time>
      </trkpt>
      <trkpt lat="45.75351" lon="3.35493">
        <ele>363.6</ele>
        <time>2024-08-11T09:00:25Z</time>
      </trkpt>
      <trkpt lat="45.75345" lon="3.35493">
        <ele>363.6</ele>
        <time>2024-08-11T09:00:26Z</time>
      </trkpt>
      <trkpt lat="45.75339" lon="3.35492">
        <ele>363.8</ele>
        <time>2024-08-11T09:00:27Z</time>
      </trkpt>
      <trkpt lat="45.75334" lon="3.35492">
        <ele>363.6</ele>
        <time>2024-08-11T09:00:28Z</time>
      </trkpt>
      <trkpt lat="45.75328" lon="3.35491">
        <ele>363.6</ele>
        <time>2024-08-11T09:00:29Z</time>
      </trkpt>
      <trkpt lat="45.75322" lon="3.35491">
        <ele>363.6</ele>
        <time>2024-08-11T09:00:30Z</time>
      </trkpt>
      <trkpt lat="45.75316" lon="3.35484">
        <ele>363.6</ele>
        <time>2024-08-11T09:00:31Z</time>
      </trkpt>
      <trkpt lat="45.75314" lon="3.35482">
        <ele>363.6</ele>
        <time>2024-08-11T09:00:32Z</time>
      </trkpt>
      <trkpt lat="45.75303" lon="3.35482">
        <ele>363.6</ele>
        <time>2024-08-11T09:00:33Z</time>
      </trkpt>
      <trkpt lat="45.75299" lon="3.35478">
        <ele>363.6</ele>
        <time>2024-08-11T09:00:34Z</time>
      </trkpt>
      <trkpt lat="45.75294" lon="3.35473">
        <ele>363.8</ele>
        <time>2024-08-11T09:00:35Z</time>
      </trkpt>
      <trkpt lat="45.75289" lon="3.35469">
        <ele>363.8</ele>
        <time>2024-08-11T09:00:36Z</time>
      </trkpt>
      <trkpt lat="45.75284" lon="3.35464">
        <ele>363.8</ele>
        <time>2024-08-11T09:00:37Z</time>
      </trkpt>
      <trkpt lat="45.7528" lon="3.3546">
        <ele>363.8</ele>
        <time>2024-08-11T09:00:38Z</time>
      </trkpt>
      <trkpt lat="45.75275" lon="3.35455">
        <ele>363.8</ele>
        <time>2024-08-11T09:00:39Z</time>
      </trkpt>
      <trkpt lat="45.7527" lon="3.3545">
        <ele>363.8</ele>
        <time>2024-08-11T09:00:40Z</time>
      </trkpt>
      <trkpt lat="45.75264" lon="3.35446">
        <ele>363.8</ele>
        <time>2024-08-11T09:00:41Z</time>
      </trkpt>
      <trkpt lat="45.75259" lon="3.35443">
        <ele>363.8</ele>
        <time>2024-08-11T09:00:42Z</time>
      </trkpt>
      <trkpt lat="45.75254" lon="3.3544">
        <ele>363.8</ele>
        <time>2024-08-11T09:00:43Z</time>
      </trkpt>
      <trkpt lat="45.75248" lon="3.35437">
        <ele>363.8</ele>
        <time>2024-08-11T09:00:44Z</time>
      </trkpt>
      <trkpt lat="45.75242" lon="3.35434">
        <ele>363.8</ele>
        <time>2024-08-11T09:00:45Z</time>
      </trkpt>
      <trkpt lat="45.75237" lon="3.35431">
        <ele>364</ele>
        <time>2024-08-11T09:00:46Z</time>
      </trkpt>
      <trkpt lat="45.75231" lon="3.35428">
        <ele>364</ele>
        <time>2024-08-11T09:00:47Z</time>
      </trkpt>
      <trkpt lat="45.75225" lon="3.35425">
        <ele>364</ele>
        <time>2024-08-11T09:00:48Z</time>
      </trkpt>
      <trkpt lat="45.7522" lon="3.35421">
        <ele>364</ele>
        <time>2024-08-11T09:00:49Z</time>
      </trkpt>
      <trkpt lat="45.75214" lon="3.35418">
        <ele>364</ele>
        <time>2024-08-11T09:00:50Z</time>
      </trkpt>
      <trkpt lat="45.75208" lon="3.35415">
        <ele>364</ele>
        <time>2024-08-11T09:00:51Z</time>
      </trkpt>
      <trkpt lat="45.75202" lon="3.35412">
        <ele>364</ele>
        <time>2024-08-11T09:00:52Z</time>
      </trkpt>
      <trkpt lat="45.75197" lon="3.35409">
        <ele>364</ele>
        <time>2024-08-11T09:00:53Z</time>
      </trkpt>
      <trkpt lat="45.75191" lon="3.35406">
        <ele>364.2</ele>
        <time>2024-08-11T09:00:54Z</time>
      </trkpt>
      <trkpt lat="45.75186" lon="3.35403">
        <ele>364.2</ele>
        <time>2024-08-11T09:00:55Z</time>
      </trkpt>
      <trkpt lat="45.75181" lon="3.354">
        <ele>364.2</ele>
        <time>2024-08-11T09:00:56Z</time>
      </trkpt>
      <trkpt lat="45.75175" lon="3.35397">
        <ele>364.2</ele>
        <time>2024-08-11T09:00:57Z</time>
      </trkpt>
      <trkpt lat="45.7517" lon="3.35394">
        <ele>364.2</ele>
        <time>2024-08-11T09:00:58Z</time>
      </trkpt>
      <trkpt lat="45.75164" lon="3.3539">
        <ele>364.2</ele>
        <time>2024-08-11T09:00:59Z</time>
      </trkpt>
      <trkpt lat="45.75158" lon="3.35387">
        <ele>364.2</ele>
        <time>2024-08-11T09:01:00Z</time>
      </trkpt>
      <trkpt lat="45.75153" lon="3.35384">
        <ele>364.2</ele>
        <time>2024-08-11T09:01:01Z</time>
      </trkpt>
      <trkpt lat="45.75147" lon="3.35382">
        <ele>364.2</ele>
        <time>2024-08-11T09:01:02Z</time>
      </trkpt>
      <trkpt lat="45.75142" lon="3.3538">
        <ele>364.4</ele>
        <time>2024-08-11T09:01:03Z</time>
      </trkpt>
      <trkpt lat="45.75136" lon="3.35377">
        <ele>364.4</ele>
        <time>2024-08-11T09:01:04Z</time>
      </trkpt>
      <trkpt lat="45.7513" lon="3.35373">
        <ele>364.4</ele>
        <time>2024-08-11T09:01:05Z</time>
      </trkpt>
      <trkpt lat="45.75124" lon="3.35371">
        <ele>364.4</ele>
        <time>2024-08-11T09:01:06Z</time>
      </trkpt>
      <trkpt lat="45.75118" lon="3.35368">
        <ele>364.4</ele>
        <time>2024-08-11T09:01:07Z</time>
      </trkpt>
      <trkpt lat="45.75112" lon="3.35366">
        <ele>364.4</ele>
        <time>2024-08-11T09:01:08Z</time>
      </trkpt>
      <trkpt lat="45.75106" lon="3.35363">
        <ele>364.4</ele>
        <time>2024-08-11T09:01:09Z</time>
      </trkpt>
      <trkpt lat="45.751" lon="3.35361">
        <ele>364.4</ele>
        <time>2024-08-11T09:01:10Z</time>
      </trkpt>
      <trkpt lat="45.75094" lon="3.35358">
        <ele>364.4</ele>
        <time>2024-08-11T09:01:11Z</time>
      </trkpt>
      <trkpt lat="45.75088" lon="3.35356">
        <ele>364.6</ele>
        <time>2024-08-11T09:01:12Z</time>
      </trkpt>
      <trkpt lat="45.75082" lon="3.35354">
        <ele>364.6</ele>
        <time>2024-08-11T09:01:13Z</time>
      </trkpt>
      <trkpt lat="45.75076" lon="3.35351">
        <ele>364.6</ele>
        <time>2024-08-11T09:01:15Z</time>
      </trkpt>
      <trkpt lat="45.7507" lon="3.35349">
        <ele>364.6</ele>
        <time>2024-08-11T09:01:16Z</time>
      </trkpt>
      <trkpt lat="45.75064" lon="3.35346">
        <ele>364.6</ele>
        <time>2024-08-11T09:01:17Z</time>
      </trkpt>
      <trkpt lat="45.75058" lon="3.35344">
        <ele>364.6</ele>
        <time>2024-08-11T09:01:18Z</time>
      </trkpt>
      <trkpt lat="45.75052" lon="3.35342">
        <ele>364.6</ele>
        <time>2024-08-11T09:01:19Z</time>
      </trkpt>
      <trkpt lat="45.75046" lon="3.35339">
        <ele>364.6</ele>
        <time>2024-08-11T09:01:20Z</time>
      </trkpt>
      <trkpt lat="45.75039" lon="3.35337">
        <ele>364.6</ele>
        <time>2024-08-11T09:01:21Z</time>
      </trkpt>
      <trkpt lat="45.75033" lon="3.35334">
        <ele>364.6</ele>
        <time>2024-08-11T09:01:22Z</time>
      </trkpt>
      <trkpt lat="45.75027" lon="3.35332">
        <ele>364.6</ele>
        <time>2024-08-11T09:01:23Z</time>
      </trkpt>
      <trkpt lat="45.75021" lon="3.35329">
        <ele>364.6</ele>
        <time>2024-08-11T09:01:24Z</time>
      </trkpt>
      <trkpt lat="45.75014" lon="3.35327">
        <ele>364.6</ele>
        <time>2024-08-11T09:01:25Z</time>
      </trkpt>
      <trkpt lat="45.75008" lon="3.35324">
        <ele>364.6</ele>
        <time>2024-08-11T09:01:26Z</time>
      </trkpt>
      <trkpt lat="45.75002" lon="3.35321">
        <ele>364.8</ele>
        <time>2024-08-11T09:01:27Z</time>
      </trkpt>
      <trkpt lat="45.74995" lon="3.35319">
        <ele>364.8</ele>
        <time>2024-08-11T09:01:28Z</time>
      </trkpt>
      <trkpt lat="45.74988" lon="3.35316">
        <ele>364.8</ele>
        <time>2024-08-11T09:01:29Z</time>
      </trkpt>
      <trkpt lat="45.74982" lon="3.35314">
        <ele>364.8</ele>
        <time>2024-08-11T09:01:30Z</time>
      </trkpt>
      <trkpt lat="45.74975" lon="3.3531">
        <ele>364.8</ele>
        <time>2024-08-11T09:01:31Z</time>
      </trkpt>
      <trkpt lat="45.74969" lon="3.35307">
        <ele>364.6</ele>
        <time>2024-08-11T09:01:32Z</time>
      </trkpt>
      <trkpt lat="45.74963" lon="3.35304">
        <ele>364.6</ele>
        <time>2024-08-11T09:01:33Z</time>
      </trkpt>
      <trkpt lat="45.74956" lon="3.353">
        <ele>364.8</ele>
        <time>2024-08-11T09:01:34Z</time>
      </trkpt>
      <trkpt lat="45.7495" lon="3.35297">
        <ele>364.6</ele>
        <time>2024-08-11T09:01:35Z</time>
      </trkpt>
      <trkpt lat="45.74944" lon="3.35294">
        <ele>364.6</ele>
        <time>2024-08-11T09:01:36Z</time>
      </trkpt>
      <trkpt lat="45.74937" lon="3.3529">
        <ele>364.6</ele>
        <time>2024-08-11T09:01:37Z</time>
      </trkpt>
      <trkpt lat="45.74931" lon="3.35285">
        <ele>364.6</ele>
        <time>2024-08-11T09:01:38Z</time>
      </trkpt>
      <trkpt lat="45.74926" lon="3.3528">
        <ele>364.6</ele>
        <time>2024-08-11T09:01:39Z</time>
      </trkpt>
      <trkpt lat="45.7492" lon="3.35275">
        <ele>364.6</ele>
        <time>2024-08-11T09:01:40Z</time>
      </trkpt>
      <trkpt lat="45.74914" lon="3.35269">
        <ele>364.6</ele>
        <time>2024-08-11T09:01:41Z</time>
      </trkpt>
      <trkpt lat="45.74908" lon="3.35264">
        <ele>364.6</ele>
        <time>2024-08-11T09:01:42Z</time>
      </trkpt>
      <trkpt lat="45.74902" lon="3.35259">
        <ele>364.8</ele>
        <time>2024-08-11T09:01:43Z</time>
      </trkpt>
      <trkpt lat="45.74897" lon="3.35253">
        <ele>364.8</ele>
        <time>2024-08-11T09:01:44Z</time>
      </trkpt>
      <trkpt lat="45.74891" lon="3.35248">
        <ele>364.6</ele>
        <time>2024-08-11T09:01:45Z</time>
      </trkpt>
      <trkpt lat="45.74886" lon="3.35242">
        <ele>364.6</ele>
        <time>2024-08-11T09:01:46Z</time>
      </trkpt>
      <trkpt lat="45.7488" lon="3.35236">
        <ele>364.6</ele>
        <time>2024-08-11T09:01:47Z</time>
      </trkpt>
      <trkpt lat="45.74874" lon="3.3523">
        <ele>364.8</ele>
        <time>2024-08-11T09:01:48Z</time>
      </trkpt>
      <trkpt lat="45.74868" lon="3.35224">
        <ele>364.6</ele>
        <time>2024-08-11T09:01:49Z</time>
      </trkpt>
      <trkpt lat="45.74863" lon="3.35219">
        <ele>364.6</ele>
        <time>2024-08-11T09:01:50Z</time>
      </trkpt>
      <trkpt lat="45.74857" lon="3.35213">
        <ele>364.8</ele>
        <time>2024-08-11T09:01:51Z</time>
      </trkpt>
      <trkpt lat="45.74851" lon="3.35207">
        <ele>364.6</ele>
        <time>2024-08-11T09:01:52Z</time>
      </trkpt>
      <trkpt lat="45.74845" lon="3.35201">
        <ele>364.6</ele>
        <time>2024-08-11T09:01:53Z</time>
      </trkpt>
      <trkpt lat="45.74839" lon="3.35194">
        <ele>364.6</ele>
        <time>2024-08-11T09:01:54Z</time>
      </trkpt>
      <trkpt lat="45.74833" lon="3.35188">
        <ele>364.6</ele>
        <time>2024-08-11T09:01:55Z</time>
      </trkpt>
      <trkpt lat="45.74827" lon="3.35182">
        <ele>364.6</ele>
        <time>2024-08-11T09:01:56Z</time>
      </trkpt>
      <trkpt lat="45.74821" lon="3.35176">
        <ele>364.6</ele>
        <time>2024-08-11T09:01:57Z</time>
      </trkpt>
      <trkpt lat="45.74815" lon="3.3517">
        <ele>364.6</ele>
        <time>2024-08-11T09:01:58Z</time>
      </trkpt>
      <trkpt lat="45.74809" lon="3.35164">
        <ele>364.6</ele>
        <time>2024-08-11T09:01:59Z</time>
      </trkpt>
      <trkpt lat="45.74802" lon="3.35157">
        <ele>364.6</ele>
        <time>2024-08-11T09:02:00Z</time>
      </trkpt>
      <trkpt lat="45.74796" lon="3.35151">
        <ele>364.6</ele>
        <time>2024-08-11T09:02:01Z</time>
      </trkpt>
      <trkpt lat="45.7479" lon="3.35145">
        <ele>364.6</ele>
        <time>2024-08-11T09:02:02Z</time>
      </trkpt>
      <trkpt lat="45.74784" lon="3.35139">
        <ele>364.6</ele>
        <time>2024-08-11T09:02:03Z</time>
      </trkpt>
      <trkpt lat="45.74778" lon="3.35132">
        <ele>364.6</ele>
        <time>2024-08-11T09:02:04Z</time>
      </trkpt>
      <trkpt lat="45.74771" lon="3.35126">
        <ele>364.6</ele>
        <time>2024-08-11T09:02:05Z</time>
      </trkpt>
      <trkpt lat="45.74764" lon="3.35121">
        <ele>364.4</ele>
        <time>2024-08-11T09:02:06Z</time>
      </trkpt>
      <trkpt lat="45.74757" lon="3.35115">
        <ele>364.4</ele>
        <time>2024-08-11T09:02:07Z</time>
      </trkpt>
      <trkpt lat="45.7475" lon="3.35109">
        <ele>364.4</ele>
        <time>2024-08-11T09:02:08Z</time>
      </trkpt>
      <trkpt lat="45.74743" lon="3.35104">
        <ele>364.4</ele>
        <time>2024-08-11T09:02:09Z</time>
      </trkpt>
      <trkpt lat="45.74736" lon="3.35099">
        <ele>364.4</ele>
        <time>2024-08-11T09:02:10Z</time>
      </trkpt>
      <trkpt lat="45.74728" lon="3.35094">
        <ele>364.4</ele>
        <time>2024-08-11T09:02:11Z</time>
      </trkpt>
      <trkpt lat="45.7472" lon="3.3509">
        <ele>364.2</ele>
        <time>2024-08-11T09:02:12Z</time>
      </trkpt>
      <trkpt lat="45.74712" lon="3.35085">
        <ele>364.2</ele>
        <time>2024-08-11T09:02:13Z</time>
      </trkpt>
      <trkpt lat="45.74704" lon="3.3508">
        <ele>364.2</ele>
        <time>2024-08-11T09:02:14Z</time>
      </trkpt>
      <trkpt lat="45.74696" lon="3.35076">
        <ele>364.2</ele>
        <time>2024-08-11T09:02:15Z</time>
      </trkpt>
      <trkpt lat="45.74688" lon="3.35071">
        <ele>364</ele>
        <time>2024-08-11T09:02:16Z</time>
      </trkpt>
      <trkpt lat="45.7468" lon="3.35066">
        <ele>364</ele>
        <time>2024-08-11T09:02:17Z</time>
      </trkpt>
      <trkpt lat="45.74671" lon="3.35063">
        <ele>363.8</ele>
        <time>2024-08-11T09:02:18Z</time>
      </trkpt>
      <trkpt lat="45.74663" lon="3.35059">
        <ele>363.8</ele>
        <time>2024-08-11T09:02:19Z</time>
      </trkpt>
      <trkpt lat="45.74654" lon="3.35056">
        <ele>363.6</ele>
        <time>2024-08-11T09:02:20Z</time>
      </trkpt>
      <trkpt lat="45.74646" lon="3.35053">
        <ele>363.6</ele>
        <time>2024-08-11T09:02:21Z</time>
      </trkpt>
      <trkpt lat="45.74637" lon="3.35049">
        <ele>363.6</ele>
        <time>2024-08-11T09:02:22Z</time>
      </trkpt>
      <trkpt lat="45.74629" lon="3.35046">
        <ele>363.4</ele>
        <time>2024-08-11T09:02:23Z</time>
      </trkpt>
      <trkpt lat="45.7462" lon="3.35042">
        <ele>363.4</ele>
        <time>2024-08-11T09:02:24Z</time>
      </trkpt>
      <trkpt lat="45.74612" lon="3.35039">
        <ele>363.2</ele>
        <time>2024-08-11T09:02:25Z</time>
      </trkpt>
      <trkpt lat="45.74603" lon="3.35035">
        <ele>363.2</ele>
        <time>2024-08-11T09:02:26Z</time>
      </trkpt>
      <trkpt lat="45.74594" lon="3.35032">
        <ele>363.2</ele>
        <time>2024-08-11T09:02:27Z</time>
      </trkpt>
      <trkpt lat="45.74585" lon="3.35029">
        <ele>363</ele>
        <time>2024-08-11T09:02:28Z</time>
      </trkpt>
      <trkpt lat="45.74577" lon="3.35025">
        <ele>362.8</ele>
        <time>2024-08-11T09:02:29Z</time>
      </trkpt>
      <trkpt lat="45.74567" lon="3.35021">
        <ele>362.8</ele>
        <time>2024-08-11T09:02:30Z</time>
      </trkpt>
      <trkpt lat="45.74559" lon="3.35018">
        <ele>362.8</ele>
        <time>2024-08-11T09:02:31Z</time>
      </trkpt>
      <trkpt lat="45.74549" lon="3.35014">
        <ele>362.6</ele>
        <time>2024-08-11T09:02:32Z</time>
      </trkpt>
      <trkpt lat="45.7454" lon="3.35011">
        <ele>362.6</ele>
        <time>2024-08-11T09:02:33Z</time>
      </trkpt>
      <trkpt lat="45.74531" lon="3.35007">
        <ele>362.4</ele>
        <time>2024-08-11T09:02:34Z</time>
      </trkpt>
      <trkpt lat="45.74522" lon="3.35003">
        <ele>362.4</ele>
        <time>2024-08-11T09:02:35Z</time>
      </trkpt>
      <trkpt lat="45.74513" lon="3.35">
        <ele>362.4</ele>
        <time>2024-08-11T09:02:36Z</time>
      </trkpt>
      <trkpt lat="45.74504" lon="3.34996">
        <ele>362.2</ele>
        <time>2024-08-11T09:02:37Z</time>
      </trkpt>
      <trkpt lat="45.74495" lon="3.34992">
        <ele>362.2</ele>
        <time>2024-08-11T09:02:38Z</time>
      </trkpt>
      <trkpt lat="45.74486" lon="3.34989">
        <ele>362</ele>
        <time>2024-08-11T09:02:39Z</time>
      </trkpt>
      <trkpt lat="45.74477" lon="3.34985">
        <ele>362</ele>
        <time>2024-08-11T09:02:40Z</time>
      </trkpt>
      <trkpt lat="45.74467" lon="3.34982">
        <ele>362</ele>
        <time>2024-08-11T09:02:41Z</time>
      </trkpt>
      <trkpt lat="45.74458" lon="3.34978">
        <ele>362</ele>
        <time>2024-08-11T09:02:42Z</time>
      </trkpt>
      <trkpt lat="45.74449" lon="3.34974">
        <ele>361.8</ele>
        <time>2024-08-11T09:02:43Z</time>
      </trkpt>
      <trkpt lat="45.7444" lon="3.34971">
        <ele>361.8</ele>
        <time>2024-08-11T09:02:44Z</time>
      </trkpt>
      <trkpt lat="45.74431" lon="3.34967">
        <ele>361.6</ele>
        <time>2024-08-11T09:02:45Z</time>
      </trkpt>
      <trkpt lat="45.74422" lon="3.34964">
        <ele>361.6</ele>
        <time>2024-08-11T09:02:46Z</time>
      </trkpt>
      <trkpt lat="45.74413" lon="3.34963">
        <ele>361.6</ele>
        <time>2024-08-11T09:02:47Z</time>
      </trkpt>
      <trkpt lat="45.74404" lon="3.34961">
        <ele>361.4</ele>
        <time>2024-08-11T09:02:48Z</time>
      </trkpt>
      <trkpt lat="45.74395" lon="3.3496">
        <ele>361.4</ele>
        <time>2024-08-11T09:02:49Z</time>
      </trkpt>
      <trkpt lat="45.74386" lon="3.34958">
        <ele>361.4</ele>
        <time>2024-08-11T09:02:50Z</time>
      </trkpt>
      <trkpt lat="45.74377" lon="3.34956">
        <ele>361.4</ele>
        <time>2024-08-11T09:02:51Z</time>
      </trkpt>
      <trkpt lat="45.74368" lon="3.34955">
        <ele>361.2</ele>
        <time>2024-08-11T09:02:52Z</time>
      </trkpt>
      <trkpt lat="45.74359" lon="3.34953">
        <ele>361.2</ele>
        <time>2024-08-11T09:02:53Z</time>
      </trkpt>
      <trkpt lat="45.7435" lon="3.34952">
        <ele>361.2</ele>
        <time>2024-08-11T09:02:54Z</time>
      </trkpt>
      <trkpt lat="45.74342" lon="3.3495">
        <ele>361</ele>
        <time>2024-08-11T09:02:55Z</time>
      </trkpt>
      <trkpt lat="45.74333" lon="3.34949">
        <ele>361</ele>
        <time>2024-08-11T09:02:56Z</time>
      </trkpt>
      <trkpt lat="45.74324" lon="3.34947">
        <ele>361</ele>
        <time>2024-08-11T09:02:57Z</time>
      </trkpt>
      <trkpt lat="45.74315" lon="3.34945">
        <ele>360.8</ele>
        <time>2024-08-11T09:02:58Z</time>
      </trkpt>
      <trkpt lat="45.74306" lon="3.34944">
        <ele>360.8</ele>
        <time>2024-08-11T09:02:59Z</time>
      </trkpt>
      <trkpt lat="45.74297" lon="3.34942">
        <ele>360.8</ele>
        <time>2024-08-11T09:03:00Z</time>
      </trkpt>
      <trkpt lat="45.74288" lon="3.34941">
        <ele>360.8</ele>
        <time>2024-08-11T09:03:01Z</time>
      </trkpt>
      <trkpt lat="45.7428" lon="3.34939">
        <ele>360.6</ele>
        <time>2024-08-11T09:03:02Z</time>
      </trkpt>
      <trkpt lat="45.74271" lon="3.34938">
        <ele>360.6</ele>
        <time>2024-08-11T09:03:03Z</time>
      </trkpt>
      <trkpt lat="45.74262" lon="3.34936">
        <ele>360.4</ele>
        <time>2024-08-11T09:03:04Z</time>
      </trkpt>
      <trkpt lat="45.74254" lon="3.34935">
        <ele>360.4</ele>
        <time>2024-08-11T09:03:05Z</time>
      </trkpt>
      <trkpt lat="45.74245" lon="3.34933">
        <ele>360.4</ele>
        <time>2024-08-11T09:03:06Z</time>
      </trkpt>
      <trkpt lat="45.74237" lon="3.34932">
        <ele>360.4</ele>
        <time>2024-08-11T09:03:07Z</time>
      </trkpt>
      <trkpt lat="45.74229" lon="3.3493">
        <ele>360.4</ele>
        <time>2024-08-11T09:03:08Z</time>
      </trkpt>
      <trkpt lat="45.7422" lon="3.34928">
        <ele>360.2</ele>
        <time>2024-08-11T09:03:09Z</time>
      </trkpt>
      <trkpt lat="45.74212" lon="3.34926">
        <ele>360.2</ele>
        <time>2024-08-11T09:03:10Z</time>
      </trkpt>
      <trkpt lat="45.74204" lon="3.34924">
        <ele>360.2</ele>
        <time>2024-08-11T09:03:11Z</time>
      </trkpt>
      <trkpt lat="45.74195" lon="3.34922">
        <ele>360.2</ele>
        <time>2024-08-11T09:03:12Z</time>
      </trkpt>
      <trkpt lat="45.74187" lon="3.3492">
        <ele>360.2</ele>
        <time>2024-08-11T09:03:13Z</time>
      </trkpt>
      <trkpt lat="45.74178" lon="3.34918">
        <ele>360</ele>
        <time>2024-08-11T09:03:14Z</time>
      </trkpt>
      <trkpt lat="45.7417" lon="3.34916">
        <ele>360</ele>
        <time>2024-08-11T09:03:15Z</time>
      </trkpt>
      <trkpt lat="45.74161" lon="3.34914">
        <ele>360</ele>
        <time>2024-08-11T09:03:16Z</time>
      </trkpt>
      <trkpt lat="45.74152" lon="3.34912">
        <ele>359.8</ele>
        <time>2024-08-11T09:03:17Z</time>
      </trkpt>
      <trkpt lat="45.74143" lon="3.3491">
        <ele>359.8</ele>
        <time>2024-08-11T09:03:18Z</time>
      </trkpt>
      <trkpt lat="45.74134" lon="3.34908">
        <ele>359.6</ele>
        <time>2024-08-11T09:03:19Z</time>
      </trkpt>
      <trkpt lat="45.74125" lon="3.34905">
        <ele>359.6</ele>
        <time>2024-08-11T09:03:20Z</time>
      </trkpt>
      <trkpt lat="45.74116" lon="3.34901">
        <ele>359.4</ele>
        <time>2024-08-11T09:03:21Z</time>
      </trkpt>
      <trkpt lat="45.74107" lon="3.34898">
        <ele>359.2</ele>
        <time>2024-08-11T09:03:22Z</time>
      </trkpt>
      <trkpt lat="45.74098" lon="3.34895">
        <ele>359.2</ele>
        <time>2024-08-11T09:03:23Z</time>
      </trkpt>
      <trkpt lat="45.74089" lon="3.34891">
        <ele>359</ele>
        <time>2024-08-11T09:03:24Z</time>
      </trkpt>
      <trkpt lat="45.7408" lon="3.34888">
        <ele>358.8</ele>
        <time>2024-08-11T09:03:25Z</time>
      </trkpt>
      <trkpt lat="45.74071" lon="3.34884">
        <ele>358.8</ele>
        <time>2024-08-11T09:03:26Z</time>
      </trkpt>
      <trkpt lat="45.74061" lon="3.34881">
        <ele>358.6</ele>
        <time>2024-08-11T09:03:27Z</time>
      </trkpt>
      <trkpt lat="45.74052" lon="3.34877">
        <ele>358.4</ele>
        <time>2024-08-11T09:03:28Z</time>
      </trkpt>
      <trkpt lat="45.74042" lon="3.34874">
        <ele>358.2</ele>
        <time>2024-08-11T09:03:29Z</time>
      </trkpt>
      <trkpt lat="45.74033" lon="3.3487">
        <ele>358</ele>
        <time>2024-08-11T09:03:30Z</time>
      </trkpt>
      <trkpt lat="45.74023" lon="3.34867">
        <ele>357.8</ele>
        <time>2024-08-11T09:03:31Z</time>
      </trkpt>
      <trkpt lat="45.74013" lon="3.34863">
        <ele>357.8</ele>
        <time>2024-08-11T09:03:32Z</time>
      </trkpt>
      <trkpt lat="45.74004" lon="3.34859">
        <ele>357.6</ele>
        <time>2024-08-11T09:03:33Z</time>
      </trkpt>
      <trkpt lat="45.73994" lon="3.34856">
        <ele>357.4</ele>
        <time>2024-08-11T09:03:34Z</time>
      </trkpt>
      <trkpt lat="45.73984" lon="3.34852">
        <ele>357.2</ele>
        <time>2024-08-11T09:03:35Z</time>
      </trkpt>
      <trkpt lat="45.73974" lon="3.34847">
        <ele>357.2</ele>
        <time>2024-08-11T09:03:36Z</time>
      </trkpt>
      <trkpt lat="45.73965" lon="3.34842">
        <ele>357</ele>
        <time>2024-08-11T09:03:37Z</time>
      </trkpt>
      <trkpt lat="45.73955" lon="3.34837">
        <ele>356.8</ele>
        <time>2024-08-11T09:03:38Z</time>
      </trkpt>
      <trkpt lat="45.73945" lon="3.34832">
        <ele>356.8</ele>
        <time>2024-08-11T09:03:39Z</time>
      </trkpt>
      <trkpt lat="45.73936" lon="3.34825">
        <ele>356.6</ele>
        <time>2024-08-11T09:03:40Z</time>
      </trkpt>
      <trkpt lat="45.73927" lon="3.34818">
        <ele>356.6</ele>
        <time>2024-08-11T09:03:41Z</time>
      </trkpt>
      <trkpt lat="45.73918" lon="3.34811">
        <ele>356.4</ele>
        <time>2024-08-11T09:03:42Z</time>
      </trkpt>
      <trkpt lat="45.7391" lon="3.34804">
        <ele>356.2</ele>
        <time>2024-08-11T09:03:43Z</time>
      </trkpt>
      <trkpt lat="45.73901" lon="3.34797">
        <ele>356.2</ele>
        <time>2024-08-11T09:03:44Z</time>
      </trkpt>
      <trkpt lat="45.73892" lon="3.34791">
        <ele>356</ele>
        <time>2024-08-11T09:03:45Z</time>
      </trkpt>
      <trkpt lat="45.73883" lon="3.34784">
        <ele>355.8</ele>
        <time>2024-08-11T09:03:46Z</time>
      </trkpt>
      <trkpt lat="45.73875" lon="3.34777">
        <ele>355.8</ele>
        <time>2024-08-11T09:03:47Z</time>
      </trkpt>
      <trkpt lat="45.73867" lon="3.34771">
        <ele>355.8</ele>
        <time>2024-08-11T09:03:48Z</time>
      </trkpt>
      <trkpt lat="45.73858" lon="3.34764">
        <ele>355.6</ele>
        <time>2024-08-11T09:03:49Z</time>
      </trkpt>
      <trkpt lat="45.7385" lon="3.34758">
        <ele>355.4</ele>
        <time>2024-08-11T09:03:50Z</time>
      </trkpt>
      <trkpt lat="45.73841" lon="3.34751">
        <ele>355.4</ele>
        <time>2024-08-11T09:03:51Z</time>
      </trkpt>
      <trkpt lat="45.73833" lon="3.34745">
        <ele>355.2</ele>
        <time>2024-08-11T09:03:52Z</time>
      </trkpt>
      <trkpt lat="45.73825" lon="3.34738">
        <ele>355</ele>
        <time>2024-08-11T09:03:53Z</time>
      </trkpt>
      <trkpt lat="45.73817" lon="3.34732">
        <ele>355</ele>
        <time>2024-08-11T09:03:54Z</time>
      </trkpt>
      <trkpt lat="45.73809" lon="3.34726">
        <ele>354.8</ele>
        <time>2024-08-11T09:03:55Z</time>
      </trkpt>
      <trkpt lat="45.738" lon="3.3472">
        <ele>354.8</ele>
        <time>2024-08-11T09:03:56Z</time>
      </trkpt>
      <trkpt lat="45.73792" lon="3.34714">
        <ele>354.6</ele>
        <time>2024-08-11T09:03:57Z</time>
      </trkpt>
      <trkpt lat="45.73784" lon="3.34708">
        <ele>354.6</ele>
        <time>2024-08-11T09:03:58Z</time>
      </trkpt>
      <trkpt lat="45.73776" lon="3.34702">
        <ele>354.6</ele>
        <time>2024-08-11T09:03:59Z</time>
      </trkpt>
      <trkpt lat="45.73769" lon="3.34696">
        <ele>354.4</ele>
        <time>2024-08-11T09:04:00Z</time>
      </trkpt>
      <trkpt lat="45.73761" lon="3.3469">
        <ele>354.4</ele>
        <time>2024-08-11T09:04:01Z</time>
      </trkpt>
      <trkpt lat="45.73754" lon="3.34685">
        <ele>354.4</ele>
        <time>2024-08-11T09:04:02Z</time>
      </trkpt>
      <trkpt lat="45.73747" lon="3.34679">
        <ele>354.4</ele>
        <time>2024-08-11T09:04:03Z</time>
      </trkpt>
      <trkpt lat="45.7374" lon="3.34674">
        <ele>354.2</ele>
        <time>2024-08-11T09:04:04Z</time>
      </trkpt>
      <trkpt lat="45.73733" lon="3.34669">
        <ele>354.4</ele>
        <time>2024-08-11T09:04:05Z</time>
      </trkpt>
      <trkpt lat="45.73726" lon="3.34664">
        <ele>354.4</ele>
        <time>2024-08-11T09:04:06Z</time>
      </trkpt>
      <trkpt lat="45.7372" lon="3.3466">
        <ele>354.4</ele>
        <time>2024-08-11T09:04:07Z</time>
      </trkpt>
      <trkpt lat="45.73714" lon="3.34655">
        <ele>354.4</ele>
        <time>2024-08-11T09:04:08Z</time>
      </trkpt>
      <trkpt lat="45.73708" lon="3.34651">
        <ele>354.4</ele>
        <time>2024-08-11T09:04:09Z</time>
      </trkpt>
      <trkpt lat="45.73702" lon="3.34647">
        <ele>354.4</ele>
        <time>2024-08-11T09:04:10Z</time>
      </trkpt>
      <trkpt lat="45.73696" lon="3.34642">
        <ele>354.4</ele>
        <time>2024-08-11T09:04:11Z</time>
      </trkpt>
      <trkpt lat="45.7369" lon="3.34638">
        <ele>354.4</ele>
        <time>2024-08-11T09:04:12Z</time>
      </trkpt>
      <trkpt lat="45.73684" lon="3.34634">
        <ele>354.4</ele>
        <time>2024-08-11T09:04:13Z</time>
      </trkpt>
      <trkpt lat="45.73678" lon="3.34629">
        <ele>354.6</ele>
        <time>2024-08-11T09:04:14Z</time>
      </trkpt>
      <trkpt lat="45.73672" lon="3.34625">
        <ele>354.6</ele>
        <time>2024-08-11T09:04:15Z</time>
      </trkpt>
      <trkpt lat="45.73666" lon="3.3462">
        <ele>354.6</ele>
        <time>2024-08-11T09:04:16Z</time>
      </trkpt>
      <trkpt lat="45.7366" lon="3.34616">
        <ele>353.8</ele>
        <time>2024-08-11T09:04:17Z</time>
      </trkpt>
      <trkpt lat="45.73654" lon="3.34612">
        <ele>354</ele>
        <time>2024-08-11T09:04:18Z</time>
      </trkpt>
      <trkpt lat="45.73648" lon="3.34607">
        <ele>354.2</ele>
        <time>2024-08-11T09:04:19Z</time>
      </trkpt>
      <trkpt lat="45.73642" lon="3.34603">
        <ele>354.6</ele>
        <time>2024-08-11T09:04:20Z</time>
      </trkpt>
      <trkpt lat="45.73635" lon="3.34598">
        <ele>354.8</ele>
        <time>2024-08-11T09:04:21Z</time>
      </trkpt>
      <trkpt lat="45.73629" lon="3.34594">
        <ele>355.2</ele>
        <time>2024-08-11T09:04:22Z</time>
      </trkpt>
      <trkpt lat="45.73623" lon="3.34589">
        <ele>355.4</ele>
        <time>2024-08-11T09:04:23Z</time>
      </trkpt>
      <trkpt lat="45.73616" lon="3.34585">
        <ele>354.8</ele>
        <time>2024-08-11T09:04:24Z</time>
      </trkpt>
      <trkpt lat="45.7361" lon="3.34581">
        <ele>355</ele>
        <time>2024-08-11T09:04:25Z</time>
      </trkpt>
      <trkpt lat="45.73603" lon="3.34577">
        <ele>355</ele>
        <time>2024-08-11T09:04:26Z</time>
      </trkpt>
      <trkpt lat="45.73597" lon="3.34573">
        <ele>355</ele>
        <time>2024-08-11T09:04:27Z</time>
      </trkpt>
      <trkpt lat="45.7359" lon="3.3457">
        <ele>355</ele>
        <time>2024-08-11T09:04:28Z</time>
      </trkpt>
      <trkpt lat="45.73584" lon="3.34566">
        <ele>355</ele>
        <time>2024-08-11T09:04:29Z</time>
      </trkpt>
      <trkpt lat="45.73578" lon="3.34562">
        <ele>355</ele>
        <time>2024-08-11T09:04:30Z</time>
      </trkpt>
      <trkpt lat="45.73572" lon="3.34559">
        <ele>355</ele>
        <time>2024-08-11T09:04:31Z</time>
      </trkpt>
      <trkpt lat="45.73566" lon="3.34555">
        <ele>355</ele>
        <time>2024-08-11T09:04:32Z</time>
      </trkpt>
      <trkpt lat="45.7356" lon="3.34551">
        <ele>355</ele>
        <time>2024-08-11T09:04:33Z</time>
      </trkpt>
      <trkpt lat="45.73553" lon="3.34548">
        <ele>355.2</ele>
        <time>2024-08-11T09:04:34Z</time>
      </trkpt>
      <trkpt lat="45.73547" lon="3.34544">
        <ele>355.2</ele>
        <time>2024-08-11T09:04:35Z</time>
      </trkpt>
      <trkpt lat="45.73541" lon="3.3454">
        <ele>355.2</ele>
        <time>2024-08-11T09:04:36Z</time>
      </trkpt>
      <trkpt lat="45.73536" lon="3.34537">
        <ele>355.2</ele>
        <time>2024-08-11T09:04:37Z</time>
      </trkpt>
      <trkpt lat="45.7353" lon="3.34533">
        <ele>355.2</ele>
        <time>2024-08-11T09:04:38Z</time>
      </trkpt>
      <trkpt lat="45.73524" lon="3.3453">
        <ele>355.2</ele>
        <time>2024-08-11T09:04:39Z</time>
      </trkpt>
      <trkpt lat="45.73518" lon="3.34526">
        <ele>355.2</ele>
        <time>2024-08-11T09:04:40Z</time>
      </trkpt>
      <trkpt lat="45.73512" lon="3.34522">
        <ele>355.4</ele>
        <time>2024-08-11T09:04:41Z</time>
      </trkpt>
      <trkpt lat="45.73506" lon="3.34519">
        <ele>355.4</ele>
        <time>2024-08-11T09:04:42Z</time>
      </trkpt>
      <trkpt lat="45.735" lon="3.34514">
        <ele>355.4</ele>
        <time>2024-08-11T09:04:43Z</time>
      </trkpt>
      <trkpt lat="45.73494" lon="3.3451">
        <ele>355.4</ele>
        <time>2024-08-11T09:04:44Z</time>
      </trkpt>
      <trkpt lat="45.73489" lon="3.34506">
        <ele>355.4</ele>
        <time>2024-08-11T09:04:45Z</time>
      </trkpt>
      <trkpt lat="45.73483" lon="3.34501">
        <ele>355.4</ele>
        <time>2024-08-11T09:04:46Z</time>
      </trkpt>
      <trkpt lat="45.73478" lon="3.34497">
        <ele>355.6</ele>
        <time>2024-08-11T09:04:47Z</time>
      </trkpt>
      <trkpt lat="45.73473" lon="3.34493">
        <ele>355.6</ele>
        <time>2024-08-11T09:04:48Z</time>
      </trkpt>
      <trkpt lat="45.73467" lon="3.34489">
        <ele>355.6</ele>
        <time>2024-08-11T09:04:49Z</time>
      </trkpt>
      <trkpt lat="45.73462" lon="3.34485">
        <ele>355.6</ele>
        <time>2024-08-11T09:04:50Z</time>
      </trkpt>
      <trkpt lat="45.73456" lon="3.3448">
        <ele>355.6</ele>
        <time>2024-08-11T09:04:51Z</time>
      </trkpt>
      <trkpt lat="45.73451" lon="3.34476">
        <ele>355.8</ele>
        <time>2024-08-11T09:04:52Z</time>
      </trkpt>
      <trkpt lat="45.73446" lon="3.34472">
        <ele>355.8</ele>
        <time>2024-08-11T09:04:53Z</time>
      </trkpt>
      <trkpt lat="45.7344" lon="3.34468">
        <ele>355.8</ele>
        <time>2024-08-11T09:04:54Z</time>
      </trkpt>
      <trkpt lat="45.73435" lon="3.34465">
        <ele>355.8</ele>
        <time>2024-08-11T09:04:55Z</time>
      </trkpt>
      <trkpt lat="45.73429" lon="3.34461">
        <ele>356</ele>
        <time>2024-08-11T09:04:56Z</time>
      </trkpt>
      <trkpt lat="45.73424" lon="3.34457">
        <ele>356</ele>
        <time>2024-08-11T09:04:57Z</time>
      </trkpt>
      <trkpt lat="45.73418" lon="3.34453">
        <ele>356</ele>
        <time>2024-08-11T09:04:58Z</time>
      </trkpt>
      <trkpt lat="45.73413" lon="3.34449">
        <ele>356</ele>
        <time>2024-08-11T09:04:59Z</time>
      </trkpt>
      <trkpt lat="45.73407" lon="3.34445">
        <ele>356</ele>
        <time>2024-08-11T09:05:00Z</time>
      </trkpt>
      <trkpt lat="45.73402" lon="3.34441">
        <ele>356</ele>
        <time>2024-08-11T09:05:01Z</time>
      </trkpt>
      <trkpt lat="45.73398" lon="3.34434">
        <ele>356</ele>
        <time>2024-08-11T09:05:02Z</time>
      </trkpt>
      <trkpt lat="45.73394" lon="3.34428">
        <ele>356</ele>
        <time>2024-08-11T09:05:03Z</time>
      </trkpt>
      <trkpt lat="45.73392" lon="3.34418">
        <ele>356</ele>
        <time>2024-08-11T09:05:04Z</time>
      </trkpt>
      <trkpt lat="45.73389" lon="3.34411">
        <ele>356</ele>
        <time>2024-08-11T09:05:05Z</time>
      </trkpt>
      <trkpt lat="45.73384" lon="3.34405">
        <ele>356</ele>
        <time>2024-08-11T09:05:06Z</time>
      </trkpt>
      <trkpt lat="45.7338" lon="3.34399">
        <ele>356.2</ele>
        <time>2024-08-11T09:05:07Z</time>
      </trkpt>
      <trkpt lat="45.73374" lon="3.34394">
        <ele>356.2</ele>
        <time>2024-08-11T09:05:08Z</time>
      </trkpt>
      <trkpt lat="45.73368" lon="3.34394">
        <ele>356.2</ele>
        <time>2024-08-11T09:05:09Z</time>
      </trkpt>
      <trkpt lat="45.73361" lon="3.34393">
        <ele>356.2</ele>
        <time>2024-08-11T09:05:10Z</time>
      </trkpt>
      <trkpt lat="45.73355" lon="3.34389">
        <ele>356.2</ele>
        <time>2024-08-11T09:05:11Z</time>
      </trkpt>
      <trkpt lat="45.73349" lon="3.34386">
        <ele>356.2</ele>
        <time>2024-08-11T09:05:12Z</time>
      </trkpt>
      <trkpt lat="45.73343" lon="3.34382">
        <ele>356.2</ele>
        <time>2024-08-11T09:05:13Z</time>
      </trkpt>
      <trkpt lat="45.73337" lon="3.34377">
        <ele>356.2</ele>
        <time>2024-08-11T09:05:14Z</time>
      </trkpt>
      <trkpt lat="45.73334" lon="3.34369">
        <ele>356.2</ele>
        <time>2024-08-11T09:05:15Z</time>
      </trkpt>
      <trkpt lat="45.7333" lon="3.3436">
        <ele>356.2</ele>
        <time>2024-08-11T09:05:16Z</time>
      </trkpt>
      <trkpt lat="45.73327" lon="3.34352">
        <ele>356.2</ele>
        <time>2024-08-11T09:05:17Z</time>
      </trkpt>
      <trkpt lat="45.73323" lon="3.34343">
        <ele>356.4</ele>
        <time>2024-08-11T09:05:18Z</time>
      </trkpt>
      <trkpt lat="45.7332" lon="3.34335">
        <ele>356.4</ele>
        <time>2024-08-11T09:05:19Z</time>
      </trkpt>
      <trkpt lat="45.73316" lon="3.34326">
        <ele>356.4</ele>
        <time>2024-08-11T09:05:20Z</time>
      </trkpt>
      <trkpt lat="45.73313" lon="3.34316">
        <ele>356.4</ele>
        <time>2024-08-11T09:05:21Z</time>
      </trkpt>
      <trkpt lat="45.73309" lon="3.34306">
        <ele>356.4</ele>
        <time>2024-08-11T09:05:22Z</time>
      </trkpt>
      <trkpt lat="45.73306" lon="3.34296">
        <ele>356.4</ele>
        <time>2024-08-11T09:05:23Z</time>
      </trkpt>
      <trkpt lat="45.73302" lon="3.34287">
        <ele>356.4</ele>
        <time>2024-08-11T09:05:24Z</time>
      </trkpt>
      <trkpt lat="45.73299" lon="3.34277">
        <ele>356.2</ele>
        <time>2024-08-11T09:05:25Z</time>
      </trkpt>
      <trkpt lat="45.73295" lon="3.34267">
        <ele>356.2</ele>
        <time>2024-08-11T09:05:26Z</time>
      </trkpt>
      <trkpt lat="45.73291" lon="3.34257">
        <ele>356.4</ele>
        <time>2024-08-11T09:05:27Z</time>
      </trkpt>
      <trkpt lat="45.73287" lon="3.34247">
        <ele>356</ele>
        <time>2024-08-11T09:05:28Z</time>
      </trkpt>
      <trkpt lat="45.73283" lon="3.34237">
        <ele>356</ele>
        <time>2024-08-11T09:05:29Z</time>
      </trkpt>
      <trkpt lat="45.73278" lon="3.34227">
        <ele>355.8</ele>
        <time>2024-08-11T09:05:30Z</time>
      </trkpt>
      <trkpt lat="45.73274" lon="3.34216">
        <ele>355.8</ele>
        <time>2024-08-11T09:05:31Z</time>
      </trkpt>
      <trkpt lat="45.73269" lon="3.34205">
        <ele>355.6</ele>
        <time>2024-08-11T09:05:32Z</time>
      </trkpt>
      <trkpt lat="45.73265" lon="3.34194">
        <ele>355.6</ele>
        <time>2024-08-11T09:05:33Z</time>
      </trkpt>
      <trkpt lat="45.7326" lon="3.34183">
        <ele>355.4</ele>
        <time>2024-08-11T09:05:34Z</time>
      </trkpt>
      <trkpt lat="45.73255" lon="3.34172">
        <ele>355.4</ele>
        <time>2024-08-11T09:05:35Z</time>
      </trkpt>
      <trkpt lat="45.73248" lon="3.34163">
        <ele>355.2</ele>
        <time>2024-08-11T09:05:36Z</time>
      </trkpt>
      <trkpt lat="45.73242" lon="3.34153">
        <ele>355</ele>
        <time>2024-08-11T09:05:37Z</time>
      </trkpt>
      <trkpt lat="45.73235" lon="3.34143">
        <ele>355</ele>
        <time>2024-08-11T09:05:38Z</time>
      </trkpt>
      <trkpt lat="45.73229" lon="3.34133">
        <ele>355</ele>
        <time>2024-08-11T09:05:39Z</time>
      </trkpt>
      <trkpt lat="45.73222" lon="3.34124">
        <ele>354.8</ele>
        <time>2024-08-11T09:05:40Z</time>
      </trkpt>
      <trkpt lat="45.73214" lon="3.34116">
        <ele>354.8</ele>
        <time>2024-08-11T09:05:41Z</time>
      </trkpt>
      <trkpt lat="45.73206" lon="3.34108">
        <ele>354.6</ele>
        <time>2024-08-11T09:05:42Z</time>
      </trkpt>
      <trkpt lat="45.73198" lon="3.341">
        <ele>354.6</ele>
        <time>2024-08-11T09:05:43Z</time>
      </trkpt>
      <trkpt lat="45.7319" lon="3.34092">
        <ele>354.6</ele>
        <time>2024-08-11T09:05:44Z</time>
      </trkpt>
      <trkpt lat="45.73183" lon="3.34084">
        <ele>354.4</ele>
        <time>2024-08-11T09:05:45Z</time>
      </trkpt>
      <trkpt lat="45.73175" lon="3.34077">
        <ele>354.4</ele>
        <time>2024-08-11T09:05:46Z</time>
      </trkpt>
      <trkpt lat="45.73167" lon="3.34069">
        <ele>354.2</ele>
        <time>2024-08-11T09:05:47Z</time>
      </trkpt>
      <trkpt lat="45.73159" lon="3.34064">
        <ele>354.2</ele>
        <time>2024-08-11T09:05:48Z</time>
      </trkpt>
      <trkpt lat="45.73151" lon="3.3406">
        <ele>354.2</ele>
        <time>2024-08-11T09:05:49Z</time>
      </trkpt>
      <trkpt lat="45.73143" lon="3.34055">
        <ele>354.2</ele>
        <time>2024-08-11T09:05:50Z</time>
      </trkpt>
      <trkpt lat="45.73135" lon="3.3405">
        <ele>354</ele>
        <time>2024-08-11T09:05:51Z</time>
      </trkpt>
      <trkpt lat="45.73127" lon="3.34045">
        <ele>354</ele>
        <time>2024-08-11T09:05:52Z</time>
      </trkpt>
      <trkpt lat="45.73119" lon="3.34042">
        <ele>354</ele>
        <time>2024-08-11T09:05:53Z</time>
      </trkpt>
      <trkpt lat="45.73111" lon="3.34038">
        <ele>353.8</ele>
        <time>2024-08-11T09:05:54Z</time>
      </trkpt>
      <trkpt lat="45.73103" lon="3.34035">
        <ele>353.8</ele>
        <time>2024-08-11T09:05:55Z</time>
      </trkpt>
      <trkpt lat="45.73095" lon="3.34032">
        <ele>353.6</ele>
        <time>2024-08-11T09:05:56Z</time>
      </trkpt>
      <trkpt lat="45.73087" lon="3.34029">
        <ele>353.6</ele>
        <time>2024-08-11T09:05:57Z</time>
      </trkpt>
      <trkpt lat="45.7308" lon="3.34025">
        <ele>353.6</ele>
        <time>2024-08-11T09:05:58Z</time>
      </trkpt>
      <trkpt lat="45.73072" lon="3.34022">
        <ele>353.4</ele>
        <time>2024-08-11T09:05:59Z</time>
      </trkpt>
      <trkpt lat="45.73064" lon="3.34019">
        <ele>353.4</ele>
        <time>2024-08-11T09:06:00Z</time>
      </trkpt>
      <trkpt lat="45.73057" lon="3.34016">
        <ele>353.4</ele>
        <time>2024-08-11T09:06:01Z</time>
      </trkpt>
      <trkpt lat="45.73049" lon="3.34013">
        <ele>353.4</ele>
        <time>2024-08-11T09:06:02Z</time>
      </trkpt>
      <trkpt lat="45.73042" lon="3.3401">
        <ele>353.4</ele>
        <time>2024-08-11T09:06:03Z</time>
      </trkpt>
      <trkpt lat="45.73034" lon="3.34007">
        <ele>353.2</ele>
        <time>2024-08-11T09:06:04Z</time>
      </trkpt>
      <trkpt lat="45.73027" lon="3.34004">
        <ele>353.2</ele>
        <time>2024-08-11T09:06:05Z</time>
      </trkpt>
      <trkpt lat="45.7302" lon="3.34001">
        <ele>353.2</ele>
        <time>2024-08-11T09:06:06Z</time>
      </trkpt>
      <trkpt lat="45.73013" lon="3.33998">
        <ele>353.2</ele>
        <time>2024-08-11T09:06:07Z</time>
      </trkpt>
      <trkpt lat="45.73006" lon="3.33995">
        <ele>353.2</ele>
        <time>2024-08-11T09:06:08Z</time>
      </trkpt>
      <trkpt lat="45.72998" lon="3.33992">
        <ele>353.2</ele>
        <time>2024-08-11T09:06:09Z</time>
      </trkpt>
      <trkpt lat="45.72992" lon="3.33989">
        <ele>353.2</ele>
        <time>2024-08-11T09:06:10Z</time>
      </trkpt>
      <trkpt lat="45.72985" lon="3.33985">
        <ele>353.2</ele>
        <time>2024-08-11T09:06:11Z</time>
      </trkpt>
      <trkpt lat="45.72979" lon="3.3398">
        <ele>353.2</ele>
        <time>2024-08-11T09:06:12Z</time>
      </trkpt>
      <trkpt lat="45.72973" lon="3.33976">
        <ele>353.2</ele>
        <time>2024-08-11T09:06:13Z</time>
      </trkpt>
      <trkpt lat="45.72967" lon="3.33972">
        <ele>353.2</ele>
        <time>2024-08-11T09:06:14Z</time>
      </trkpt>
      <trkpt lat="45.72961" lon="3.33967">
        <ele>353.2</ele>
        <time>2024-08-11T09:06:15Z</time>
      </trkpt>
      <trkpt lat="45.72957" lon="3.33961">
        <ele>353.2</ele>
        <time>2024-08-11T09:06:16Z</time>
      </trkpt>
      <trkpt lat="45.72955" lon="3.33953">
        <ele>353.2</ele>
        <time>2024-08-11T09:06:17Z</time>
      </trkpt>
      <trkpt lat="45.72952" lon="3.33944">
        <ele>353.2</ele>
        <time>2024-08-11T09:06:18Z</time>
      </trkpt>
      <trkpt lat="45.72949" lon="3.33935">
        <ele>353</ele>
        <time>2024-08-11T09:06:19Z</time>
      </trkpt>
      <trkpt lat="45.72947" lon="3.33926">
        <ele>353</ele>
        <time>2024-08-11T09:06:20Z</time>
      </trkpt>
      <trkpt lat="45.72946" lon="3.33917">
        <ele>353</ele>
        <time>2024-08-11T09:06:21Z</time>
      </trkpt>
      <trkpt lat="45.7294" lon="3.3391">
        <ele>353</ele>
        <time>2024-08-11T09:06:22Z</time>
      </trkpt>
      <trkpt lat="45.72934" lon="3.33906">
        <ele>353.2</ele>
        <time>2024-08-11T09:06:23Z</time>
      </trkpt>
      <trkpt lat="45.72928" lon="3.33901">
        <ele>353.2</ele>
        <time>2024-08-11T09:06:24Z</time>
      </trkpt>
      <trkpt lat="45.72922" lon="3.33896">
        <ele>353.2</ele>
        <time>2024-08-11T09:06:25Z</time>
      </trkpt>
      <trkpt lat="45.72916" lon="3.33891">
        <ele>353.2</ele>
        <time>2024-08-11T09:06:26Z</time>
      </trkpt>
      <trkpt lat="45.72911" lon="3.33886">
        <ele>353.2</ele>
        <time>2024-08-11T09:06:27Z</time>
      </trkpt>
      <trkpt lat="45.72905" lon="3.33881">
        <ele>352.8</ele>
        <time>2024-08-11T09:06:28Z</time>
      </trkpt>
      <trkpt lat="45.72899" lon="3.33875">
        <ele>353</ele>
        <time>2024-08-11T09:06:29Z</time>
      </trkpt>
      <trkpt lat="45.72893" lon="3.3387">
        <ele>353</ele>
        <time>2024-08-11T09:06:30Z</time>
      </trkpt>
      <trkpt lat="45.72887" lon="3.33865">
        <ele>353.2</ele>
        <time>2024-08-11T09:06:31Z</time>
      </trkpt>
      <trkpt lat="45.72881" lon="3.33859">
        <ele>353.2</ele>
        <time>2024-08-11T09:06:32Z</time>
      </trkpt>
      <trkpt lat="45.72875" lon="3.33854">
        <ele>353.2</ele>
        <time>2024-08-11T09:06:33Z</time>
      </trkpt>
      <trkpt lat="45.72868" lon="3.33848">
        <ele>353.2</ele>
        <time>2024-08-11T09:06:34Z</time>
      </trkpt>
      <trkpt lat="45.72862" lon="3.33842">
        <ele>353.2</ele>
        <time>2024-08-11T09:06:35Z</time>
      </trkpt>
      <trkpt lat="45.72856" lon="3.33837">
        <ele>353.4</ele>
        <time>2024-08-11T09:06:36Z</time>
      </trkpt>
      <trkpt lat="45.7285" lon="3.33831">
        <ele>353.4</ele>
        <time>2024-08-11T09:06:37Z</time>
      </trkpt>
      <trkpt lat="45.72843" lon="3.33826">
        <ele>353.6</ele>
        <time>2024-08-11T09:06:38Z</time>
      </trkpt>
      <trkpt lat="45.72837" lon="3.3382">
        <ele>353.6</ele>
        <time>2024-08-11T09:06:39Z</time>
      </trkpt>
      <trkpt lat="45.72831" lon="3.33814">
        <ele>353.4</ele>
        <time>2024-08-11T09:06:40Z</time>
      </trkpt>
      <trkpt lat="45.72825" lon="3.33809">
        <ele>353.4</ele>
        <time>2024-08-11T09:06:41Z</time>
      </trkpt>
      <trkpt lat="45.72819" lon="3.33803">
        <ele>353.4</ele>
        <time>2024-08-11T09:06:42Z</time>
      </trkpt>
      <trkpt lat="45.72812" lon="3.33797">
        <ele>353.4</ele>
        <time>2024-08-11T09:06:43Z</time>
      </trkpt>
      <trkpt lat="45.72806" lon="3.33792">
        <ele>353.4</ele>
        <time>2024-08-11T09:06:44Z</time>
      </trkpt>
      <trkpt lat="45.728" lon="3.33786">
        <ele>353.4</ele>
        <time>2024-08-11T09:06:45Z</time>
      </trkpt>
      <trkpt lat="45.72794" lon="3.33781">
        <ele>353.4</ele>
        <time>2024-08-11T09:06:46Z</time>
      </trkpt>
      <trkpt lat="45.72788" lon="3.33776">
        <ele>353.4</ele>
        <time>2024-08-11T09:06:47Z</time>
      </trkpt>
      <trkpt lat="45.72782" lon="3.3377">
        <ele>353.4</ele>
        <time>2024-08-11T09:06:48Z</time>
      </trkpt>
      <trkpt lat="45.72777" lon="3.33764">
        <ele>353.4</ele>
        <time>2024-08-11T09:06:49Z</time>
      </trkpt>
      <trkpt lat="45.72771" lon="3.33758">
        <ele>353.4</ele>
        <time>2024-08-11T09:06:50Z</time>
      </trkpt>
      <trkpt lat="45.72766" lon="3.33752">
        <ele>353.4</ele>
        <time>2024-08-11T09:06:51Z</time>
      </trkpt>
      <trkpt lat="45.7276" lon="3.33746">
        <ele>353.6</ele>
        <time>2024-08-11T09:06:52Z</time>
      </trkpt>
      <trkpt lat="45.72754" lon="3.3374">
        <ele>353.4</ele>
        <time>2024-08-11T09:06:53Z</time>
      </trkpt>
      <trkpt lat="45.72749" lon="3.33734">
        <ele>353.4</ele>
        <time>2024-08-11T09:06:54Z</time>
      </trkpt>
      <trkpt lat="45.72744" lon="3.33728">
        <ele>353.4</ele>
        <time>2024-08-11T09:06:55Z</time>
      </trkpt>
      <trkpt lat="45.72739" lon="3.33722">
        <ele>353.6</ele>
        <time>2024-08-11T09:06:56Z</time>
      </trkpt>
      <trkpt lat="45.72734" lon="3.33716">
        <ele>353.4</ele>
        <time>2024-08-11T09:06:57Z</time>
      </trkpt>
      <trkpt lat="45.72728" lon="3.33711">
        <ele>353.4</ele>
        <time>2024-08-11T09:06:58Z</time>
      </trkpt>
      <trkpt lat="45.72723" lon="3.33705">
        <ele>353.6</ele>
        <time>2024-08-11T09:06:59Z</time>
      </trkpt>
      <trkpt lat="45.72718" lon="3.33699">
        <ele>353.6</ele>
        <time>2024-08-11T09:07:00Z</time>
      </trkpt>
      <trkpt lat="45.72713" lon="3.33693">
        <ele>353.6</ele>
        <time>2024-08-11T09:07:01Z</time>
      </trkpt>
      <trkpt lat="45.72708" lon="3.33688">
        <ele>353.6</ele>
        <time>2024-08-11T09:07:02Z</time>
      </trkpt>
      <trkpt lat="45.72703" lon="3.33682">
        <ele>353.6</ele>
        <time>2024-08-11T09:07:03Z</time>
      </trkpt>
      <trkpt lat="45.72698" lon="3.33676">
        <ele>353.8</ele>
        <time>2024-08-11T09:07:04Z</time>
      </trkpt>
      <trkpt lat="45.72693" lon="3.33671">
        <ele>353.8</ele>
        <time>2024-08-11T09:07:05Z</time>
      </trkpt>
      <trkpt lat="45.72688" lon="3.33665">
        <ele>353.4</ele>
        <time>2024-08-11T09:07:06Z</time>
      </trkpt>
      <trkpt lat="45.72683" lon="3.3366">
        <ele>353.6</ele>
        <time>2024-08-11T09:07:07Z</time>
      </trkpt>
      <trkpt lat="45.72678" lon="3.33654">
        <ele>353.6</ele>
        <time>2024-08-11T09:07:08Z</time>
      </trkpt>
      <trkpt lat="45.72673" lon="3.33648">
        <ele>353.6</ele>
        <time>2024-08-11T09:07:09Z</time>
      </trkpt>
      <trkpt lat="45.72668" lon="3.33643">
        <ele>353.6</ele>
        <time>2024-08-11T09:07:10Z</time>
      </trkpt>
      <trkpt lat="45.72663" lon="3.33637">
        <ele>353.6</ele>
        <time>2024-08-11T09:07:11Z</time>
      </trkpt>
      <trkpt lat="45.72658" lon="3.33632">
        <ele>353.6</ele>
        <time>2024-08-11T09:07:12Z</time>
      </trkpt>
      <trkpt lat="45.72653" lon="3.33627">
        <ele>353.6</ele>
        <time>2024-08-11T09:07:13Z</time>
      </trkpt>
      <trkpt lat="45.72648" lon="3.33621">
        <ele>353.6</ele>
        <time>2024-08-11T09:07:14Z</time>
      </trkpt>
      <trkpt lat="45.72644" lon="3.33616">
        <ele>353.6</ele>
        <time>2024-08-11T09:07:15Z</time>
      </trkpt>
      <trkpt lat="45.72639" lon="3.33611">
        <ele>353.4</ele>
        <time>2024-08-11T09:07:16Z</time>
      </trkpt>
      <trkpt lat="45.72634" lon="3.33606">
        <ele>353.4</ele>
        <time>2024-08-11T09:07:17Z</time>
      </trkpt>
      <trkpt lat="45.72629" lon="3.336">
        <ele>353.4</ele>
        <time>2024-08-11T09:07:18Z</time>
      </trkpt>
      <trkpt lat="45.72625" lon="3.33595">
        <ele>353.4</ele>
        <time>2024-08-11T09:07:19Z</time>
      </trkpt>
      <trkpt lat="45.7262" lon="3.3359">
        <ele>353.4</ele>
        <time>2024-08-11T09:07:20Z</time>
      </trkpt>
      <trkpt lat="45.72615" lon="3.33584">
        <ele>353.4</ele>
        <time>2024-08-11T09:07:21Z</time>
      </trkpt>
      <trkpt lat="45.7261" lon="3.33579">
        <ele>353.4</ele>
        <time>2024-08-11T09:07:22Z</time>
      </trkpt>
      <trkpt lat="45.72606" lon="3.33574">
        <ele>353.4</ele>
        <time>2024-08-11T09:07:23Z</time>
      </trkpt>
      <trkpt lat="45.72601" lon="3.33569">
        <ele>353.4</ele>
        <time>2024-08-11T09:07:24Z</time>
      </trkpt>
      <trkpt lat="45.72597" lon="3.33564">
        <ele>353.4</ele>
        <time>2024-08-11T09:07:25Z</time>
      </trkpt>
      <trkpt lat="45.72592" lon="3.33559">
        <ele>353.4</ele>
        <time>2024-08-11T09:07:26Z</time>
      </trkpt>
      <trkpt lat="45.72587" lon="3.33553">
        <ele>353.4</ele>
        <time>2024-08-11T09:07:27Z</time>
      </trkpt>
      <trkpt lat="45.72582" lon="3.33548">
        <ele>353.4</ele>
        <time>2024-08-11T09:07:28Z</time>
      </trkpt>
      <trkpt lat="45.72578" lon="3.33543">
        <ele>353.4</ele>
        <time>2024-08-11T09:07:29Z</time>
      </trkpt>
      <trkpt lat="45.72574" lon="3.33538">
        <ele>353.4</ele>
        <time>2024-08-11T09:07:30Z</time>
      </trkpt>
      <trkpt lat="45.7257" lon="3.33534">
        <ele>353.2</ele>
        <time>2024-08-11T09:07:31Z</time>
      </trkpt>
      <trkpt lat="45.72565" lon="3.33529">
        <ele>353.2</ele>
        <time>2024-08-11T09:07:32Z</time>
      </trkpt>
      <trkpt lat="45.72561" lon="3.33524">
        <ele>353.2</ele>
        <time>2024-08-11T09:07:33Z</time>
      </trkpt>
      <trkpt lat="45.72557" lon="3.33519">
        <ele>353.4</ele>
        <time>2024-08-11T09:07:34Z</time>
      </trkpt>
      <trkpt lat="45.72552" lon="3.33515">
        <ele>353.4</ele>
        <time>2024-08-11T09:07:35Z</time>
      </trkpt>
      <trkpt lat="45.72548" lon="3.3351">
        <ele>353.2</ele>
        <time>2024-08-11T09:07:36Z</time>
      </trkpt>
      <trkpt lat="45.72545" lon="3.33506">
        <ele>353.2</ele>
        <time>2024-08-11T09:07:37Z</time>
      </trkpt>
      <trkpt lat="45.72541" lon="3.33503">
        <ele>353.2</ele>
        <time>2024-08-11T09:07:38Z</time>
      </trkpt>
      <trkpt lat="45.72538" lon="3.33499">
        <ele>353.4</ele>
        <time>2024-08-11T09:07:39Z</time>
      </trkpt>
      <trkpt lat="45.72535" lon="3.33495">
        <ele>353.4</ele>
        <time>2024-08-11T09:07:40Z</time>
      </trkpt>
      <trkpt lat="45.72532" lon="3.33492">
        <ele>353.4</ele>
        <time>2024-08-11T09:07:41Z</time>
      </trkpt>
      <trkpt lat="45.7253" lon="3.3349">
        <ele>353.6</ele>
        <time>2024-08-11T09:07:42Z</time>
      </trkpt>
      <trkpt lat="45.72529" lon="3.33489">
        <ele>353.6</ele>
        <time>2024-08-11T09:07:43Z</time>
      </trkpt>
      <trkpt lat="45.72528" lon="3.33488">
        <ele>353.6</ele>
        <time>2024-08-11T09:07:44Z</time>
      </trkpt>
      <trkpt lat="45.72528" lon="3.33488">
        <ele>353.6</ele>
        <time>2024-08-11T09:07:45Z</time>
      </trkpt>
      <trkpt lat="45.72527" lon="3.33486">
        <ele>353.4</ele>
        <time>2024-08-11T09:07:52Z</time>
      </trkpt>
      <trkpt lat="45.72526" lon="3.33485">
        <ele>353.4</ele>
        <time>2024-08-11T09:07:53Z</time>
      </trkpt>
      <trkpt lat="45.72524" lon="3.33483">
        <ele>353.4</ele>
        <time>2024-08-11T09:07:54Z</time>
      </trkpt>
      <trkpt lat="45.72522" lon="3.3348">
        <ele>353.4</ele>
        <time>2024-08-11T09:07:55Z</time>
      </trkpt>
      <trkpt lat="45.72519" lon="3.33477">
        <ele>353.4</ele>
        <time>2024-08-11T09:07:56Z</time>
      </trkpt>
      <trkpt lat="45.72515" lon="3.33473">
        <ele>353.4</ele>
        <time>2024-08-11T09:07:57Z</time>
      </trkpt>
      <trkpt lat="45.72511" lon="3.33469">
        <ele>353.4</ele>
        <time>2024-08-11T09:07:58Z</time>
      </trkpt>
      <trkpt lat="45.72507" lon="3.33463">
        <ele>353.4</ele>
        <time>2024-08-11T09:07:59Z</time>
      </trkpt>
      <trkpt lat="45.72503" lon="3.33456">
        <ele>353.4</ele>
        <time>2024-08-11T09:08:00Z</time>
      </trkpt>
      <trkpt lat="45.72499" lon="3.3345">
        <ele>353.6</ele>
        <time>2024-08-11T09:08:01Z</time>
      </trkpt>
      <trkpt lat="45.72495" lon="3.33443">
        <ele>353.6</ele>
        <time>2024-08-11T09:08:02Z</time>
      </trkpt>
      <trkpt lat="45.72491" lon="3.33437">
        <ele>353.6</ele>
        <time>2024-08-11T09:08:03Z</time>
      </trkpt>
      <trkpt lat="45.72487" lon="3.3343">
        <ele>353.6</ele>
        <time>2024-08-11T09:08:04Z</time>
      </trkpt>
      <trkpt lat="45.72483" lon="3.33424">
        <ele>353.6</ele>
        <time>2024-08-11T09:08:05Z</time>
      </trkpt>
      <trkpt lat="45.72479" lon="3.33418">
        <ele>353.6</ele>
        <time>2024-08-11T09:08:06Z</time>
      </trkpt>
      <trkpt lat="45.72475" lon="3.33411">
        <ele>353.6</ele>
        <time>2024-08-11T09:08:07Z</time>
      </trkpt>
      <trkpt lat="45.72471" lon="3.33404">
        <ele>353.8</ele>
        <time>2024-08-11T09:08:08Z</time>
      </trkpt>
      <trkpt lat="45.72467" lon="3.33398">
        <ele>353.8</ele>
        <time>2024-08-11T09:08:09Z</time>
      </trkpt>
      <trkpt lat="45.72464" lon="3.33392">
        <ele>353.8</ele>
        <time>2024-08-11T09:08:10Z</time>
      </trkpt>
      <trkpt lat="45.7246" lon="3.33386">
        <ele>353.8</ele>
        <time>2024-08-11T09:08:11Z</time>
      </trkpt>
      <trkpt lat="45.72455" lon="3.33379">
        <ele>354</ele>
        <time>2024-08-11T09:08:12Z</time>
      </trkpt>
      <trkpt lat="45.72451" lon="3.33373">
        <ele>354</ele>
        <time>2024-08-11T09:08:13Z</time>
      </trkpt>
      <trkpt lat="45.72447" lon="3.33366">
        <ele>354</ele>
        <time>2024-08-11T09:08:14Z</time>
      </trkpt>
      <trkpt lat="45.72443" lon="3.3336">
        <ele>354.2</ele>
        <time>2024-08-11T09:08:15Z</time>
      </trkpt>
      <trkpt lat="45.7244" lon="3.33354">
        <ele>354.2</ele>
        <time>2024-08-11T09:08:16Z</time>
      </trkpt>
      <trkpt lat="45.72436" lon="3.33347">
        <ele>354.2</ele>
        <time>2024-08-11T09:08:17Z</time>
      </trkpt>
      <trkpt lat="45.72432" lon="3.33341">
        <ele>354.2</ele>
        <time>2024-08-11T09:08:18Z</time>
      </trkpt>
      <trkpt lat="45.72428" lon="3.33334">
        <ele>354.2</ele>
        <time>2024-08-11T09:08:19Z</time>
      </trkpt>
      <trkpt lat="45.72424" lon="3.33328">
        <ele>354.4</ele>
        <time>2024-08-11T09:08:20Z</time>
      </trkpt>
      <trkpt lat="45.7242" lon="3.33322">
        <ele>354.4</ele>
        <time>2024-08-11T09:08:21Z</time>
      </trkpt>
      <trkpt lat="45.72416" lon="3.33316">
        <ele>354.4</ele>
        <time>2024-08-11T09:08:22Z</time>
      </trkpt>
      <trkpt lat="45.72412" lon="3.33309">
        <ele>354.4</ele>
        <time>2024-08-11T09:08:23Z</time>
      </trkpt>
      <trkpt lat="45.72409" lon="3.33302">
        <ele>354.4</ele>
        <time>2024-08-11T09:08:24Z</time>
      </trkpt>
      <trkpt lat="45.72405" lon="3.33296">
        <ele>354.4</ele>
        <time>2024-08-11T09:08:25Z</time>
      </trkpt>
      <trkpt lat="45.72402" lon="3.33289">
        <ele>354.4</ele>
        <time>2024-08-11T09:08:26Z</time>
      </trkpt>
      <trkpt lat="45.72399" lon="3.33282">
        <ele>354.6</ele>
        <time>2024-08-11T09:08:27Z</time>
      </trkpt>
      <trkpt lat="45.72395" lon="3.33276">
        <ele>354.6</ele>
        <time>2024-08-11T09:08:28Z</time>
      </trkpt>
      <trkpt lat="45.72392" lon="3.33269">
        <ele>354.6</ele>
        <time>2024-08-11T09:08:29Z</time>
      </trkpt>
      <trkpt lat="45.72388" lon="3.33262">
        <ele>354.6</ele>
        <time>2024-08-11T09:08:30Z</time>
      </trkpt>
      <trkpt lat="45.72385" lon="3.33256">
        <ele>354.6</ele>
        <time>2024-08-11T09:08:31Z</time>
      </trkpt>
      <trkpt lat="45.72381" lon="3.33249">
        <ele>354.6</ele>
        <time>2024-08-11T09:08:32Z</time>
      </trkpt>
      <trkpt lat="45.72379" lon="3.3324">
        <ele>354.6</ele>
        <time>2024-08-11T09:08:33Z</time>
      </trkpt>
      <trkpt lat="45.72377" lon="3.33232">
        <ele>354.6</ele>
        <time>2024-08-11T09:08:34Z</time>
      </trkpt>
      <trkpt lat="45.72375" lon="3.33224">
        <ele>354.8</ele>
        <time>2024-08-11T09:08:35Z</time>
      </trkpt>
      <trkpt lat="45.72373" lon="3.33216">
        <ele>354.8</ele>
        <time>2024-08-11T09:08:36Z</time>
      </trkpt>
      <trkpt lat="45.72371" lon="3.33207">
        <ele>354.8</ele>
        <time>2024-08-11T09:08:37Z</time>
      </trkpt>
      <trkpt lat="45.72369" lon="3.33199">
        <ele>354.8</ele>
        <time>2024-08-11T09:08:38Z</time>
      </trkpt>
      <trkpt lat="45.72367" lon="3.33191">
        <ele>354.8</ele>
        <time>2024-08-11T09:08:39Z</time>
      </trkpt>
      <trkpt lat="45.72365" lon="3.33183">
        <ele>354.8</ele>
        <time>2024-08-11T09:08:40Z</time>
      </trkpt>
      <trkpt lat="45.72363" lon="3.33175">
        <ele>354.8</ele>
        <time>2024-08-11T09:08:41Z</time>
      </trkpt>
      <trkpt lat="45.72361" lon="3.33167">
        <ele>354.8</ele>
        <time>2024-08-11T09:08:42Z</time>
      </trkpt>
      <trkpt lat="45.72359" lon="3.33158">
        <ele>354.8</ele>
        <time>2024-08-11T09:08:43Z</time>
      </trkpt>
      <trkpt lat="45.72357" lon="3.3315">
        <ele>354.8</ele>
        <time>2024-08-11T09:08:44Z</time>
      </trkpt>
      <trkpt lat="45.72355" lon="3.33142">
        <ele>355</ele>
        <time>2024-08-11T09:08:45Z</time>
      </trkpt>
      <trkpt lat="45.72353" lon="3.33133">
        <ele>355</ele>
        <time>2024-08-11T09:08:46Z</time>
      </trkpt>
      <trkpt lat="45.72351" lon="3.33125">
        <ele>355</ele>
        <time>2024-08-11T09:08:47Z</time>
      </trkpt>
      <trkpt lat="45.72348" lon="3.33117">
        <ele>355</ele>
        <time>2024-08-11T09:08:48Z</time>
      </trkpt>
      <trkpt lat="45.72346" lon="3.33109">
        <ele>355</ele>
        <time>2024-08-11T09:08:49Z</time>
      </trkpt>
      <trkpt lat="45.72344" lon="3.331">
        <ele>355</ele>
        <time>2024-08-11T09:08:50Z</time>
      </trkpt>
      <trkpt lat="45.72342" lon="3.33092">
        <ele>355</ele>
        <time>2024-08-11T09:08:51Z</time>
      </trkpt>
      <trkpt lat="45.7234" lon="3.33084">
        <ele>355</ele>
        <time>2024-08-11T09:08:52Z</time>
      </trkpt>
      <trkpt lat="45.72338" lon="3.33076">
        <ele>355</ele>
        <time>2024-08-11T09:08:53Z</time>
      </trkpt>
      <trkpt lat="45.72336" lon="3.33068">
        <ele>355</ele>
        <time>2024-08-11T09:08:54Z</time>
      </trkpt>
      <trkpt lat="45.72334" lon="3.3306">
        <ele>355</ele>
        <time>2024-08-11T09:08:55Z</time>
      </trkpt>
      <trkpt lat="45.72332" lon="3.33051">
        <ele>355.2</ele>
        <time>2024-08-11T09:08:56Z</time>
      </trkpt>
      <trkpt lat="45.7233" lon="3.33043">
        <ele>355.2</ele>
        <time>2024-08-11T09:08:57Z</time>
      </trkpt>
      <trkpt lat="45.72328" lon="3.33035">
        <ele>355.2</ele>
        <time>2024-08-11T09:08:58Z</time>
      </trkpt>
      <trkpt lat="45.72326" lon="3.33027">
        <ele>355.2</ele>
        <time>2024-08-11T09:08:59Z</time>
      </trkpt>
      <trkpt lat="45.72324" lon="3.33019">
        <ele>355.2</ele>
        <time>2024-08-11T09:09:00Z</time>
      </trkpt>
      <trkpt lat="45.72321" lon="3.33011">
        <ele>355.2</ele>
        <time>2024-08-11T09:09:01Z</time>
      </trkpt>
      <trkpt lat="45.72319" lon="3.33003">
        <ele>355.2</ele>
        <time>2024-08-11T09:09:02Z</time>
      </trkpt>
      <trkpt lat="45.72316" lon="3.32996">
        <ele>355.4</ele>
        <time>2024-08-11T09:09:03Z</time>
      </trkpt>
      <trkpt lat="45.72312" lon="3.32988">
        <ele>355.4</ele>
        <time>2024-08-11T09:09:04Z</time>
      </trkpt>
      <trkpt lat="45.72309" lon="3.32981">
        <ele>355.4</ele>
        <time>2024-08-11T09:09:05Z</time>
      </trkpt>
      <trkpt lat="45.72305" lon="3.32973">
        <ele>355.4</ele>
        <time>2024-08-11T09:09:06Z</time>
      </trkpt>
      <trkpt lat="45.72302" lon="3.32966">
        <ele>355.6</ele>
        <time>2024-08-11T09:09:07Z</time>
      </trkpt>
      <trkpt lat="45.72299" lon="3.32958">
        <ele>355.6</ele>
        <time>2024-08-11T09:09:08Z</time>
      </trkpt>
      <trkpt lat="45.72295" lon="3.3295">
        <ele>355.6</ele>
        <time>2024-08-11T09:09:09Z</time>
      </trkpt>
      <trkpt lat="45.72291" lon="3.32942">
        <ele>355.6</ele>
        <time>2024-08-11T09:09:10Z</time>
      </trkpt>
      <trkpt lat="45.72287" lon="3.32935">
        <ele>355.8</ele>
        <time>2024-08-11T09:09:11Z</time>
      </trkpt>
      <trkpt lat="45.72283" lon="3.32927">
        <ele>355.8</ele>
        <time>2024-08-11T09:09:12Z</time>
      </trkpt>
      <trkpt lat="45.72279" lon="3.32919">
        <ele>355.8</ele>
        <time>2024-08-11T09:09:13Z</time>
      </trkpt>
      <trkpt lat="45.72275" lon="3.32912">
        <ele>356</ele>
        <time>2024-08-11T09:09:14Z</time>
      </trkpt>
      <trkpt lat="45.72271" lon="3.32905">
        <ele>356</ele>
        <time>2024-08-11T09:09:15Z</time>
      </trkpt>
      <trkpt lat="45.72267" lon="3.32897">
        <ele>356</ele>
        <time>2024-08-11T09:09:16Z</time>
      </trkpt>
      <trkpt lat="45.72263" lon="3.3289">
        <ele>356.2</ele>
        <time>2024-08-11T09:09:17Z</time>
      </trkpt>
      <trkpt lat="45.72259" lon="3.32882">
        <ele>356.2</ele>
        <time>2024-08-11T09:09:18Z</time>
      </trkpt>
      <trkpt lat="45.72255" lon="3.32875">
        <ele>356.2</ele>
        <time>2024-08-11T09:09:19Z</time>
      </trkpt>
      <trkpt lat="45.72251" lon="3.32868">
        <ele>356.4</ele>
        <time>2024-08-11T09:09:20Z</time>
      </trkpt>
      <trkpt lat="45.72247" lon="3.3286">
        <ele>356.4</ele>
        <time>2024-08-11T09:09:21Z</time>
      </trkpt>
      <trkpt lat="45.72243" lon="3.32853">
        <ele>356.4</ele>
        <time>2024-08-11T09:09:22Z</time>
      </trkpt>
      <trkpt lat="45.72239" lon="3.32846">
        <ele>356.4</ele>
        <time>2024-08-11T09:09:23Z</time>
      </trkpt>
      <trkpt lat="45.72235" lon="3.32839">
        <ele>356.4</ele>
        <time>2024-08-11T09:09:24Z</time>
      </trkpt>
      <trkpt lat="45.72232" lon="3.32832">
        <ele>356.6</ele>
        <time>2024-08-11T09:09:25Z</time>
      </trkpt>
      <trkpt lat="45.72228" lon="3.32825">
        <ele>356.6</ele>
        <time>2024-08-11T09:09:26Z</time>
      </trkpt>
      <trkpt lat="45.72225" lon="3.32817">
        <ele>356.6</ele>
        <time>2024-08-11T09:09:27Z</time>
      </trkpt>
      <trkpt lat="45.72221" lon="3.3281">
        <ele>356.8</ele>
        <time>2024-08-11T09:09:28Z</time>
      </trkpt>
      <trkpt lat="45.72217" lon="3.32804">
        <ele>356.8</ele>
        <time>2024-08-11T09:09:29Z</time>
      </trkpt>
      <trkpt lat="45.72213" lon="3.32797">
        <ele>356.8</ele>
        <time>2024-08-11T09:09:30Z</time>
      </trkpt>
      <trkpt lat="45.72209" lon="3.3279">
        <ele>356.8</ele>
        <time>2024-08-11T09:09:31Z</time>
      </trkpt>
      <trkpt lat="45.72206" lon="3.32783">
        <ele>357</ele>
        <time>2024-08-11T09:09:32Z</time>
      </trkpt>
      <trkpt lat="45.72202" lon="3.32777">
        <ele>357</ele>
        <time>2024-08-11T09:09:33Z</time>
      </trkpt>
      <trkpt lat="45.72198" lon="3.3277">
        <ele>357</ele>
        <time>2024-08-11T09:09:34Z</time>
      </trkpt>
      <trkpt lat="45.72194" lon="3.32764">
        <ele>357.2</ele>
        <time>2024-08-11T09:09:35Z</time>
      </trkpt>
      <trkpt lat="45.72191" lon="3.32757">
        <ele>357.2</ele>
        <time>2024-08-11T09:09:36Z</time>
      </trkpt>
      <trkpt lat="45.72187" lon="3.32751">
        <ele>357.2</ele>
        <time>2024-08-11T09:09:37Z</time>
      </trkpt>
      <trkpt lat="45.72184" lon="3.32744">
        <ele>357.4</ele>
        <time>2024-08-11T09:09:38Z</time>
      </trkpt>
      <trkpt lat="45.7218" lon="3.32738">
        <ele>357.4</ele>
        <time>2024-08-11T09:09:39Z</time>
      </trkpt>
      <trkpt lat="45.72177" lon="3.32732">
        <ele>357.6</ele>
        <time>2024-08-11T09:09:40Z</time>
      </trkpt>
      <trkpt lat="45.72173" lon="3.32726">
        <ele>357.6</ele>
        <time>2024-08-11T09:09:41Z</time>
      </trkpt>
      <trkpt lat="45.72169" lon="3.32721">
        <ele>357.8</ele>
        <time>2024-08-11T09:09:42Z</time>
      </trkpt>
      <trkpt lat="45.72164" lon="3.32715">
        <ele>357.8</ele>
        <time>2024-08-11T09:09:43Z</time>
      </trkpt>
      <trkpt lat="45.7216" lon="3.3271">
        <ele>357.8</ele>
        <time>2024-08-11T09:09:44Z</time>
      </trkpt>
      <trkpt lat="45.72156" lon="3.32704">
        <ele>357.8</ele>
        <time>2024-08-11T09:09:45Z</time>
      </trkpt>
      <trkpt lat="45.72152" lon="3.32698">
        <ele>358</ele>
        <time>2024-08-11T09:09:46Z</time>
      </trkpt>
      <trkpt lat="45.72147" lon="3.32693">
        <ele>358</ele>
        <time>2024-08-11T09:09:47Z</time>
      </trkpt>
      <trkpt lat="45.72143" lon="3.32688">
        <ele>358</ele>
        <time>2024-08-11T09:09:48Z</time>
      </trkpt>
      <trkpt lat="45.72139" lon="3.32683">
        <ele>358</ele>
        <time>2024-08-11T09:09:49Z</time>
      </trkpt>
      <trkpt lat="45.72135" lon="3.32677">
        <ele>358.2</ele>
        <time>2024-08-11T09:09:50Z</time>
      </trkpt>
      <trkpt lat="45.72131" lon="3.32672">
        <ele>358.2</ele>
        <time>2024-08-11T09:09:51Z</time>
      </trkpt>
      <trkpt lat="45.72127" lon="3.32666">
        <ele>358.2</ele>
        <time>2024-08-11T09:09:52Z</time>
      </trkpt>
      <trkpt lat="45.72123" lon="3.32661">
        <ele>358.2</ele>
        <time>2024-08-11T09:09:53Z</time>
      </trkpt>
      <trkpt lat="45.72118" lon="3.32656">
        <ele>358.4</ele>
        <time>2024-08-11T09:09:54Z</time>
      </trkpt>
      <trkpt lat="45.72114" lon="3.32651">
        <ele>358.4</ele>
        <time>2024-08-11T09:09:55Z</time>
      </trkpt>
      <trkpt lat="45.7211" lon="3.32646">
        <ele>358.4</ele>
        <time>2024-08-11T09:09:56Z</time>
      </trkpt>
      <trkpt lat="45.72106" lon="3.32641">
        <ele>358.4</ele>
        <time>2024-08-11T09:09:57Z</time>
      </trkpt>
      <trkpt lat="45.72102" lon="3.32636">
        <ele>358.4</ele>
        <time>2024-08-11T09:09:58Z</time>
      </trkpt>
      <trkpt lat="45.72098" lon="3.32631">
        <ele>358.4</ele>
        <time>2024-08-11T09:09:59Z</time>
      </trkpt>
      <trkpt lat="45.72094" lon="3.32627">
        <ele>358.4</ele>
        <time>2024-08-11T09:10:00Z</time>
      </trkpt>
      <trkpt lat="45.7209" lon="3.32622">
        <ele>358.6</ele>
        <time>2024-08-11T09:10:01Z</time>
      </trkpt>
      <trkpt lat="45.72086" lon="3.32617">
        <ele>358.6</ele>
        <time>2024-08-11T09:10:02Z</time>
      </trkpt>
      <trkpt lat="45.72082" lon="3.32612">
        <ele>358.6</ele>
        <time>2024-08-11T09:10:03Z</time>
      </trkpt>
      <trkpt lat="45.72077" lon="3.32607">
        <ele>358.6</ele>
        <time>2024-08-11T09:10:04Z</time>
      </trkpt>
      <trkpt lat="45.72073" lon="3.32602">
        <ele>358.6</ele>
        <time>2024-08-11T09:10:05Z</time>
      </trkpt>
      <trkpt lat="45.72069" lon="3.32597">
        <ele>358.6</ele>
        <time>2024-08-11T09:10:06Z</time>
      </trkpt>
      <trkpt lat="45.72065" lon="3.32592">
        <ele>358.6</ele>
        <time>2024-08-11T09:10:07Z</time>
      </trkpt>
      <trkpt lat="45.72061" lon="3.32587">
        <ele>358.6</ele>
        <time>2024-08-11T09:10:08Z</time>
      </trkpt>
      <trkpt lat="45.72057" lon="3.32582">
        <ele>358.6</ele>
        <time>2024-08-11T09:10:09Z</time>
      </trkpt>
      <trkpt lat="45.72053" lon="3.32577">
        <ele>358.6</ele>
        <time>2024-08-11T09:10:10Z</time>
      </trkpt>
      <trkpt lat="45.72049" lon="3.32572">
        <ele>358.6</ele>
        <time>2024-08-11T09:10:11Z</time>
      </trkpt>
      <trkpt lat="45.72045" lon="3.32568">
        <ele>358.6</ele>
        <time>2024-08-11T09:10:12Z</time>
      </trkpt>
      <trkpt lat="45.72041" lon="3.32563">
        <ele>358.8</ele>
        <time>2024-08-11T09:10:13Z</time>
      </trkpt>
      <trkpt lat="45.72038" lon="3.32559">
        <ele>358.8</ele>
        <time>2024-08-11T09:10:14Z</time>
      </trkpt>
      <trkpt lat="45.72034" lon="3.32554">
        <ele>358.8</ele>
        <time>2024-08-11T09:10:15Z</time>
      </trkpt>
      <trkpt lat="45.7203" lon="3.3255">
        <ele>358.8</ele>
        <time>2024-08-11T09:10:16Z</time>
      </trkpt>
      <trkpt lat="45.72027" lon="3.32545">
        <ele>358.8</ele>
        <time>2024-08-11T09:10:17Z</time>
      </trkpt>
      <trkpt lat="45.72024" lon="3.3254">
        <ele>359</ele>
        <time>2024-08-11T09:10:18Z</time>
      </trkpt>
      <trkpt lat="45.7202" lon="3.32535">
        <ele>359</ele>
        <time>2024-08-11T09:10:19Z</time>
      </trkpt>
      <trkpt lat="45.72017" lon="3.3253">
        <ele>359</ele>
        <time>2024-08-11T09:10:20Z</time>
      </trkpt>
      <trkpt lat="45.72014" lon="3.32526">
        <ele>359.2</ele>
        <time>2024-08-11T09:10:21Z</time>
      </trkpt>
      <trkpt lat="45.7201" lon="3.32521">
        <ele>359.2</ele>
        <time>2024-08-11T09:10:22Z</time>
      </trkpt>
      <trkpt lat="45.72007" lon="3.32515">
        <ele>359.4</ele>
        <time>2024-08-11T09:10:23Z</time>
      </trkpt>
      <trkpt lat="45.72004" lon="3.32509">
        <ele>359.6</ele>
        <time>2024-08-11T09:10:24Z</time>
      </trkpt>
      <trkpt lat="45.72002" lon="3.32504">
        <ele>359.6</ele>
        <time>2024-08-11T09:10:25Z</time>
      </trkpt>
      <trkpt lat="45.71999" lon="3.32498">
        <ele>359.8</ele>
        <time>2024-08-11T09:10:26Z</time>
      </trkpt>
      <trkpt lat="45.71997" lon="3.32492">
        <ele>359.8</ele>
        <time>2024-08-11T09:10:27Z</time>
      </trkpt>
      <trkpt lat="45.71994" lon="3.32487">
        <ele>359.8</ele>
        <time>2024-08-11T09:10:28Z</time>
      </trkpt>
      <trkpt lat="45.71992" lon="3.32481">
        <ele>360</ele>
        <time>2024-08-11T09:10:29Z</time>
      </trkpt>
      <trkpt lat="45.71989" lon="3.32475">
        <ele>360</ele>
        <time>2024-08-11T09:10:30Z</time>
      </trkpt>
      <trkpt lat="45.71986" lon="3.32469">
        <ele>360.2</ele>
        <time>2024-08-11T09:10:31Z</time>
      </trkpt>
      <trkpt lat="45.71984" lon="3.32463">
        <ele>360.2</ele>
        <time>2024-08-11T09:10:32Z</time>
      </trkpt>
      <trkpt lat="45.71981" lon="3.32458">
        <ele>360.4</ele>
        <time>2024-08-11T09:10:33Z</time>
      </trkpt>
      <trkpt lat="45.71979" lon="3.32452">
        <ele>360.6</ele>
        <time>2024-08-11T09:10:34Z</time>
      </trkpt>
      <trkpt lat="45.71977" lon="3.32447">
        <ele>360.8</ele>
        <time>2024-08-11T09:10:35Z</time>
      </trkpt>
      <trkpt lat="45.71974" lon="3.32442">
        <ele>361</ele>
        <time>2024-08-11T09:10:36Z</time>
      </trkpt>
      <trkpt lat="45.71972" lon="3.32437">
        <ele>361</ele>
        <time>2024-08-11T09:10:37Z</time>
      </trkpt>
      <trkpt lat="45.7197" lon="3.32431">
        <ele>361.2</ele>
        <time>2024-08-11T09:10:38Z</time>
      </trkpt>
      <trkpt lat="45.71967" lon="3.32426">
        <ele>361.2</ele>
        <time>2024-08-11T09:10:39Z</time>
      </trkpt>
      <trkpt lat="45.71965" lon="3.3242">
        <ele>361.4</ele>
        <time>2024-08-11T09:10:40Z</time>
      </trkpt>
      <trkpt lat="45.71963" lon="3.32415">
        <ele>361.4</ele>
        <time>2024-08-11T09:10:41Z</time>
      </trkpt>
      <trkpt lat="45.71951" lon="3.32441">
        <ele>361.4</ele>
        <time>2024-08-11T09:10:42Z</time>
      </trkpt>
      <trkpt lat="45.71947" lon="3.32443">
        <ele>361.6</ele>
        <time>2024-08-11T09:10:43Z</time>
      </trkpt>
      <trkpt lat="45.71937" lon="3.32443">
        <ele>361.6</ele>
        <time>2024-08-11T09:10:44Z</time>
      </trkpt>
      <trkpt lat="45.71932" lon="3.32443">
        <ele>361.8</ele>
        <time>2024-08-11T09:10:45Z</time>
      </trkpt>
      <trkpt lat="45.71927" lon="3.32443">
        <ele>361.8</ele>
        <time>2024-08-11T09:10:46Z</time>
      </trkpt>
      <trkpt lat="45.71921" lon="3.32442">
        <ele>361.8</ele>
        <time>2024-08-11T09:10:47Z</time>
      </trkpt>
      <trkpt lat="45.71915" lon="3.32442">
        <ele>362</ele>
        <time>2024-08-11T09:10:48Z</time>
      </trkpt>
      <trkpt lat="45.71909" lon="3.32441">
        <ele>362</ele>
        <time>2024-08-11T09:10:49Z</time>
      </trkpt>
      <trkpt lat="45.71902" lon="3.32441">
        <ele>362</ele>
        <time>2024-08-11T09:10:50Z</time>
      </trkpt>
      <trkpt lat="45.71896" lon="3.3244">
        <ele>362.2</ele>
        <time>2024-08-11T09:10:51Z</time>
      </trkpt>
      <trkpt lat="45.71889" lon="3.3244">
        <ele>362.2</ele>
        <time>2024-08-11T09:10:52Z</time>
      </trkpt>
      <trkpt lat="45.71883" lon="3.3244">
        <ele>362.4</ele>
        <time>2024-08-11T09:10:53Z</time>
      </trkpt>
      <trkpt lat="45.71877" lon="3.32439">
        <ele>362.4</ele>
        <time>2024-08-11T09:10:54Z</time>
      </trkpt>
      <trkpt lat="45.71871" lon="3.32439">
        <ele>362.6</ele>
        <time>2024-08-11T09:10:55Z</time>
      </trkpt>
      <trkpt lat="45.71864" lon="3.32438">
        <ele>362.6</ele>
        <time>2024-08-11T09:10:56Z</time>
      </trkpt>
      <trkpt lat="45.71858" lon="3.32438">
        <ele>362.6</ele>
        <time>2024-08-11T09:10:57Z</time>
      </trkpt>
      <trkpt lat="45.71851" lon="3.32437">
        <ele>362.8</ele>
        <time>2024-08-11T09:10:58Z</time>
      </trkpt>
      <trkpt lat="45.71845" lon="3.32437">
        <ele>362.8</ele>
        <time>2024-08-11T09:10:59Z</time>
      </trkpt>
      <trkpt lat="45.71838" lon="3.32436">
        <ele>362.8</ele>
        <time>2024-08-11T09:11:00Z</time>
      </trkpt>
      <trkpt lat="45.71832" lon="3.32436">
        <ele>363</ele>
        <time>2024-08-11T09:11:01Z</time>
      </trkpt>
      <trkpt lat="45.71825" lon="3.32436">
        <ele>363</ele>
        <time>2024-08-11T09:11:02Z</time>
      </trkpt>
      <trkpt lat="45.71818" lon="3.32435">
        <ele>363</ele>
        <time>2024-08-11T09:11:03Z</time>
      </trkpt>
      <trkpt lat="45.71812" lon="3.32432">
        <ele>363.2</ele>
        <time>2024-08-11T09:11:04Z</time>
      </trkpt>
      <trkpt lat="45.71806" lon="3.3243">
        <ele>363.2</ele>
        <time>2024-08-11T09:11:05Z</time>
      </trkpt>
      <trkpt lat="45.71799" lon="3.32427">
        <ele>363.2</ele>
        <time>2024-08-11T09:11:06Z</time>
      </trkpt>
      <trkpt lat="45.71793" lon="3.32424">
        <ele>363.2</ele>
        <time>2024-08-11T09:11:07Z</time>
      </trkpt>
      <trkpt lat="45.71786" lon="3.32421">
        <ele>363.4</ele>
        <time>2024-08-11T09:11:08Z</time>
      </trkpt>
      <trkpt lat="45.71779" lon="3.32419">
        <ele>363.4</ele>
        <time>2024-08-11T09:11:09Z</time>
      </trkpt>
      <trkpt lat="45.71773" lon="3.32416">
        <ele>363.4</ele>
        <time>2024-08-11T09:11:10Z</time>
      </trkpt>
      <trkpt lat="45.71767" lon="3.32413">
        <ele>363.4</ele>
        <time>2024-08-11T09:11:11Z</time>
      </trkpt>
      <trkpt lat="45.7176" lon="3.32411">
        <ele>363.6</ele>
        <time>2024-08-11T09:11:12Z</time>
      </trkpt>
      <trkpt lat="45.71754" lon="3.32408">
        <ele>363.6</ele>
        <time>2024-08-11T09:11:13Z</time>
      </trkpt>
      <trkpt lat="45.71747" lon="3.32405">
        <ele>363.6</ele>
        <time>2024-08-11T09:11:14Z</time>
      </trkpt>
      <trkpt lat="45.71741" lon="3.32402">
        <ele>363.8</ele>
        <time>2024-08-11T09:11:15Z</time>
      </trkpt>
      <trkpt lat="45.71734" lon="3.324">
        <ele>363.8</ele>
        <time>2024-08-11T09:11:16Z</time>
      </trkpt>
      <trkpt lat="45.71728" lon="3.32397">
        <ele>363.8</ele>
        <time>2024-08-11T09:11:17Z</time>
      </trkpt>
      <trkpt lat="45.71721" lon="3.32394">
        <ele>363.8</ele>
        <time>2024-08-11T09:11:18Z</time>
      </trkpt>
      <trkpt lat="45.71715" lon="3.32392">
        <ele>364</ele>
        <time>2024-08-11T09:11:19Z</time>
      </trkpt>
      <trkpt lat="45.71709" lon="3.32389">
        <ele>364</ele>
        <time>2024-08-11T09:11:20Z</time>
      </trkpt>
      <trkpt lat="45.71703" lon="3.32387">
        <ele>364</ele>
        <time>2024-08-11T09:11:21Z</time>
      </trkpt>
      <trkpt lat="45.71697" lon="3.32384">
        <ele>364</ele>
        <time>2024-08-11T09:11:22Z</time>
      </trkpt>
      <trkpt lat="45.71691" lon="3.32382">
        <ele>364.2</ele>
        <time>2024-08-11T09:11:23Z</time>
      </trkpt>
      <trkpt lat="45.71685" lon="3.32379">
        <ele>364.2</ele>
        <time>2024-08-11T09:11:24Z</time>
      </trkpt>
      <trkpt lat="45.71679" lon="3.32377">
        <ele>364.4</ele>
        <time>2024-08-11T09:11:25Z</time>
      </trkpt>
      <trkpt lat="45.71673" lon="3.32374">
        <ele>364.4</ele>
        <time>2024-08-11T09:11:26Z</time>
      </trkpt>
      <trkpt lat="45.71667" lon="3.32372">
        <ele>364.4</ele>
        <time>2024-08-11T09:11:27Z</time>
      </trkpt>
      <trkpt lat="45.71661" lon="3.32369">
        <ele>364.4</ele>
        <time>2024-08-11T09:11:28Z</time>
      </trkpt>
      <trkpt lat="45.71655" lon="3.32367">
        <ele>364.6</ele>
        <time>2024-08-11T09:11:29Z</time>
      </trkpt>
      <trkpt lat="45.71649" lon="3.32364">
        <ele>364.6</ele>
        <time>2024-08-11T09:11:30Z</time>
      </trkpt>
      <trkpt lat="45.71643" lon="3.32362">
        <ele>364.6</ele>
        <time>2024-08-11T09:11:31Z</time>
      </trkpt>
      <trkpt lat="45.71637" lon="3.32359">
        <ele>364.8</ele>
        <time>2024-08-11T09:11:32Z</time>
      </trkpt>
      <trkpt lat="45.71631" lon="3.32357">
        <ele>364.8</ele>
        <time>2024-08-11T09:11:33Z</time>
      </trkpt>
      <trkpt lat="45.71625" lon="3.32354">
        <ele>364.8</ele>
        <time>2024-08-11T09:11:34Z</time>
      </trkpt>
      <trkpt lat="45.71619" lon="3.32352">
        <ele>365</ele>
        <time>2024-08-11T09:11:35Z</time>
      </trkpt>
      <trkpt lat="45.71613" lon="3.32349">
        <ele>365</ele>
        <time>2024-08-11T09:11:36Z</time>
      </trkpt>
      <trkpt lat="45.71607" lon="3.32347">
        <ele>365</ele>
        <time>2024-08-11T09:11:37Z</time>
      </trkpt>
      <trkpt lat="45.71601" lon="3.32344">
        <ele>365.2</ele>
        <time>2024-08-11T09:11:38Z</time>
      </trkpt>
      <trkpt lat="45.71595" lon="3.32342">
        <ele>365.2</ele>
        <time>2024-08-11T09:11:39Z</time>
      </trkpt>
      <trkpt lat="45.71589" lon="3.32339">
        <ele>365.2</ele>
        <time>2024-08-11T09:11:40Z</time>
      </trkpt>
      <trkpt lat="45.71583" lon="3.32337">
        <ele>365.2</ele>
        <time>2024-08-11T09:11:41Z</time>
      </trkpt>
      <trkpt lat="45.71577" lon="3.32334">
        <ele>365.2</ele>
        <time>2024-08-11T09:11:42Z</time>
      </trkpt>
      <trkpt lat="45.71571" lon="3.32332">
        <ele>365.2</ele>
        <time>2024-08-11T09:11:43Z</time>
      </trkpt>
      <trkpt lat="45.71565" lon="3.32329">
        <ele>365.4</ele>
        <time>2024-08-11T09:11:44Z</time>
      </trkpt>
      <trkpt lat="45.71559" lon="3.32327">
        <ele>365.4</ele>
        <time>2024-08-11T09:11:45Z</time>
      </trkpt>
      <trkpt lat="45.71553" lon="3.32324">
        <ele>365.6</ele>
        <time>2024-08-11T09:11:46Z</time>
      </trkpt>
      <trkpt lat="45.71548" lon="3.32322">
        <ele>365.6</ele>
        <time>2024-08-11T09:11:47Z</time>
      </trkpt>
      <trkpt lat="45.71542" lon="3.32319">
        <ele>365.6</ele>
        <time>2024-08-11T09:11:48Z</time>
      </trkpt>
      <trkpt lat="45.71536" lon="3.32317">
        <ele>365.8</ele>
        <time>2024-08-11T09:11:49Z</time>
      </trkpt>
      <trkpt lat="45.7153" lon="3.32315">
        <ele>365.8</ele>
        <time>2024-08-11T09:11:50Z</time>
      </trkpt>
      <trkpt lat="45.71524" lon="3.32312">
        <ele>365.8</ele>
        <time>2024-08-11T09:11:51Z</time>
      </trkpt>
      <trkpt lat="45.71518" lon="3.3231">
        <ele>366</ele>
        <time>2024-08-11T09:11:52Z</time>
      </trkpt>
      <trkpt lat="45.71513" lon="3.32307">
        <ele>366</ele>
        <time>2024-08-11T09:11:53Z</time>
      </trkpt>
      <trkpt lat="45.71507" lon="3.32305">
        <ele>366</ele>
        <time>2024-08-11T09:11:54Z</time>
      </trkpt>
      <trkpt lat="45.71501" lon="3.32302">
        <ele>366.2</ele>
        <time>2024-08-11T09:11:55Z</time>
      </trkpt>
      <trkpt lat="45.71495" lon="3.323">
        <ele>366.2</ele>
        <time>2024-08-11T09:11:56Z</time>
      </trkpt>
      <trkpt lat="45.7149" lon="3.32298">
        <ele>366.2</ele>
        <time>2024-08-11T09:11:57Z</time>
      </trkpt>
      <trkpt lat="45.71484" lon="3.32295">
        <ele>366.2</ele>
        <time>2024-08-11T09:11:58Z</time>
      </trkpt>
      <trkpt lat="45.71478" lon="3.32293">
        <ele>366.4</ele>
        <time>2024-08-11T09:11:59Z</time>
      </trkpt>
      <trkpt lat="45.71472" lon="3.3229">
        <ele>366.4</ele>
        <time>2024-08-11T09:12:00Z</time>
      </trkpt>
      <trkpt lat="45.71467" lon="3.32288">
        <ele>366.4</ele>
        <time>2024-08-11T09:12:01Z</time>
      </trkpt>
      <trkpt lat="45.71461" lon="3.32286">
        <ele>366.6</ele>
        <time>2024-08-11T09:12:02Z</time>
      </trkpt>
      <trkpt lat="45.71455" lon="3.32283">
        <ele>366.6</ele>
        <time>2024-08-11T09:12:03Z</time>
      </trkpt>
      <trkpt lat="45.71449" lon="3.32281">
        <ele>366.6</ele>
        <time>2024-08-11T09:12:04Z</time>
      </trkpt>
      <trkpt lat="45.71443" lon="3.32278">
        <ele>366.6</ele>
        <time>2024-08-11T09:12:05Z</time>
      </trkpt>
      <trkpt lat="45.71437" lon="3.32276">
        <ele>366.8</ele>
        <time>2024-08-11T09:12:06Z</time>
      </trkpt>
      <trkpt lat="45.71431" lon="3.32273">
        <ele>366.8</ele>
        <time>2024-08-11T09:12:07Z</time>
      </trkpt>
      <trkpt lat="45.71425" lon="3.32271">
        <ele>366.8</ele>
        <time>2024-08-11T09:12:08Z</time>
      </trkpt>
      <trkpt lat="45.71419" lon="3.32268">
        <ele>366.8</ele>
        <time>2024-08-11T09:12:09Z</time>
      </trkpt>
      <trkpt lat="45.71413" lon="3.32266">
        <ele>367</ele>
        <time>2024-08-11T09:12:10Z</time>
      </trkpt>
      <trkpt lat="45.71407" lon="3.32263">
        <ele>367</ele>
        <time>2024-08-11T09:12:11Z</time>
      </trkpt>
      <trkpt lat="45.71401" lon="3.32261">
        <ele>367</ele>
        <time>2024-08-11T09:12:12Z</time>
      </trkpt>
      <trkpt lat="45.71396" lon="3.32258">
        <ele>367</ele>
        <time>2024-08-11T09:12:13Z</time>
      </trkpt>
      <trkpt lat="45.7139" lon="3.32256">
        <ele>367.2</ele>
        <time>2024-08-11T09:12:14Z</time>
      </trkpt>
      <trkpt lat="45.71384" lon="3.32253">
        <ele>367.2</ele>
        <time>2024-08-11T09:12:15Z</time>
      </trkpt>
      <trkpt lat="45.71378" lon="3.32251">
        <ele>367.2</ele>
        <time>2024-08-11T09:12:16Z</time>
      </trkpt>
      <trkpt lat="45.71372" lon="3.32248">
        <ele>367.4</ele>
        <time>2024-08-11T09:12:17Z</time>
      </trkpt>
      <trkpt lat="45.71366" lon="3.32246">
        <ele>367.4</ele>
        <time>2024-08-11T09:12:18Z</time>
      </trkpt>
      <trkpt lat="45.7136" lon="3.32244">
        <ele>367.4</ele>
        <time>2024-08-11T09:12:19Z</time>
      </trkpt>
      <trkpt lat="45.71355" lon="3.32241">
        <ele>367.4</ele>
        <time>2024-08-11T09:12:20Z</time>
      </trkpt>
      <trkpt lat="45.71349" lon="3.32239">
        <ele>367.6</ele>
        <time>2024-08-11T09:12:21Z</time>
      </trkpt>
      <trkpt lat="45.71343" lon="3.32236">
        <ele>367.6</ele>
        <time>2024-08-11T09:12:22Z</time>
      </trkpt>
      <trkpt lat="45.71338" lon="3.32234">
        <ele>367.6</ele>
        <time>2024-08-11T09:12:23Z</time>
      </trkpt>
      <trkpt lat="45.71332" lon="3.32232">
        <ele>367.8</ele>
        <time>2024-08-11T09:12:24Z</time>
      </trkpt>
      <trkpt lat="45.71326" lon="3.32229">
        <ele>367.8</ele>
        <time>2024-08-11T09:12:25Z</time>
      </trkpt>
      <trkpt lat="45.71321" lon="3.32227">
        <ele>367.8</ele>
        <time>2024-08-11T09:12:26Z</time>
      </trkpt>
      <trkpt lat="45.71315" lon="3.32225">
        <ele>367.8</ele>
        <time>2024-08-11T09:12:27Z</time>
      </trkpt>
      <trkpt lat="45.7131" lon="3.32222">
        <ele>368</ele>
        <time>2024-08-11T09:12:28Z</time>
      </trkpt>
      <trkpt lat="45.71304" lon="3.3222">
        <ele>368</ele>
        <time>2024-08-11T09:12:29Z</time>
      </trkpt>
      <trkpt lat="45.71299" lon="3.32218">
        <ele>368</ele>
        <time>2024-08-11T09:12:30Z</time>
      </trkpt>
      <trkpt lat="45.71293" lon="3.32215">
        <ele>368.2</ele>
        <time>2024-08-11T09:12:31Z</time>
      </trkpt>
      <trkpt lat="45.71288" lon="3.32213">
        <ele>368.2</ele>
        <time>2024-08-11T09:12:32Z</time>
      </trkpt>
      <trkpt lat="45.71282" lon="3.32211">
        <ele>368.2</ele>
        <time>2024-08-11T09:12:33Z</time>
      </trkpt>
      <trkpt lat="45.71277" lon="3.32209">
        <ele>368.4</ele>
        <time>2024-08-11T09:12:34Z</time>
      </trkpt>
      <trkpt lat="45.71272" lon="3.32207">
        <ele>368.4</ele>
        <time>2024-08-11T09:12:35Z</time>
      </trkpt>
      <trkpt lat="45.71267" lon="3.32204">
        <ele>368.6</ele>
        <time>2024-08-11T09:12:36Z</time>
      </trkpt>
      <trkpt lat="45.71262" lon="3.32202">
        <ele>368.6</ele>
        <time>2024-08-11T09:12:37Z</time>
      </trkpt>
      <trkpt lat="45.71256" lon="3.322">
        <ele>368.6</ele>
        <time>2024-08-11T09:12:38Z</time>
      </trkpt>
      <trkpt lat="45.71251" lon="3.32198">
        <ele>368.6</ele>
        <time>2024-08-11T09:12:39Z</time>
      </trkpt>
      <trkpt lat="45.71246" lon="3.32196">
        <ele>368.8</ele>
        <time>2024-08-11T09:12:40Z</time>
      </trkpt>
      <trkpt lat="45.71241" lon="3.32194">
        <ele>368.8</ele>
        <time>2024-08-11T09:12:41Z</time>
      </trkpt>
      <trkpt lat="45.71236" lon="3.32192">
        <ele>368.8</ele>
        <time>2024-08-11T09:12:42Z</time>
      </trkpt>
      <trkpt lat="45.71231" lon="3.32189">
        <ele>369</ele>
        <time>2024-08-11T09:12:43Z</time>
      </trkpt>
      <trkpt lat="45.71226" lon="3.32187">
        <ele>369</ele>
        <time>2024-08-11T09:12:44Z</time>
      </trkpt>
      <trkpt lat="45.7122" lon="3.32185">
        <ele>369.2</ele>
        <time>2024-08-11T09:12:45Z</time>
      </trkpt>
      <trkpt lat="45.71215" lon="3.32183">
        <ele>369.2</ele>
        <time>2024-08-11T09:12:46Z</time>
      </trkpt>
      <trkpt lat="45.7121" lon="3.32181">
        <ele>369.2</ele>
        <time>2024-08-11T09:12:47Z</time>
      </trkpt>
      <trkpt lat="45.71205" lon="3.32179">
        <ele>369.4</ele>
        <time>2024-08-11T09:12:48Z</time>
      </trkpt>
      <trkpt lat="45.712" lon="3.32177">
        <ele>369.4</ele>
        <time>2024-08-11T09:12:49Z</time>
      </trkpt>
      <trkpt lat="45.71195" lon="3.32174">
        <ele>369.6</ele>
        <time>2024-08-11T09:12:50Z</time>
      </trkpt>
      <trkpt lat="45.7119" lon="3.32172">
        <ele>369.6</ele>
        <time>2024-08-11T09:12:51Z</time>
      </trkpt>
      <trkpt lat="45.71185" lon="3.3217">
        <ele>369.6</ele>
        <time>2024-08-11T09:12:52Z</time>
      </trkpt>
      <trkpt lat="45.71179" lon="3.32169">
        <ele>369.8</ele>
        <time>2024-08-11T09:12:53Z</time>
      </trkpt>
      <trkpt lat="45.71174" lon="3.32166">
        <ele>369.8</ele>
        <time>2024-08-11T09:12:54Z</time>
      </trkpt>
      <trkpt lat="45.71169" lon="3.32164">
        <ele>370</ele>
        <time>2024-08-11T09:12:55Z</time>
      </trkpt>
      <trkpt lat="45.71164" lon="3.32161">
        <ele>370</ele>
        <time>2024-08-11T09:12:56Z</time>
      </trkpt>
      <trkpt lat="45.71159" lon="3.32158">
        <ele>370</ele>
        <time>2024-08-11T09:12:57Z</time>
      </trkpt>
      <trkpt lat="45.71153" lon="3.32156">
        <ele>370.2</ele>
        <time>2024-08-11T09:12:58Z</time>
      </trkpt>
      <trkpt lat="45.71148" lon="3.32153">
        <ele>370.2</ele>
        <time>2024-08-11T09:12:59Z</time>
      </trkpt>
      <trkpt lat="45.71143" lon="3.3215">
        <ele>370.4</ele>
        <time>2024-08-11T09:13:00Z</time>
      </trkpt>
      <trkpt lat="45.71138" lon="3.32148">
        <ele>370.4</ele>
        <time>2024-08-11T09:13:01Z</time>
      </trkpt>
      <trkpt lat="45.71133" lon="3.32145">
        <ele>370.6</ele>
        <time>2024-08-11T09:13:02Z</time>
      </trkpt>
      <trkpt lat="45.71128" lon="3.32143">
        <ele>370.6</ele>
        <time>2024-08-11T09:13:03Z</time>
      </trkpt>
      <trkpt lat="45.71123" lon="3.3214">
        <ele>370.6</ele>
        <time>2024-08-11T09:13:04Z</time>
      </trkpt>
      <trkpt lat="45.71118" lon="3.32137">
        <ele>370.6</ele>
        <time>2024-08-11T09:13:05Z</time>
      </trkpt>
      <trkpt lat="45.71113" lon="3.32135">
        <ele>370.8</ele>
        <time>2024-08-11T09:13:06Z</time>
      </trkpt>
      <trkpt lat="45.71108" lon="3.32132">
        <ele>371</ele>
        <time>2024-08-11T09:13:07Z</time>
      </trkpt>
      <trkpt lat="45.71104" lon="3.32128">
        <ele>371</ele>
        <time>2024-08-11T09:13:08Z</time>
      </trkpt>
      <trkpt lat="45.71099" lon="3.32124">
        <ele>371</ele>
        <time>2024-08-11T09:13:09Z</time>
      </trkpt>
      <trkpt lat="45.71095" lon="3.3212">
        <ele>371.2</ele>
        <time>2024-08-11T09:13:10Z</time>
      </trkpt>
      <trkpt lat="45.7109" lon="3.32116">
        <ele>371.2</ele>
        <time>2024-08-11T09:13:11Z</time>
      </trkpt>
      <trkpt lat="45.71086" lon="3.32111">
        <ele>371.4</ele>
        <time>2024-08-11T09:13:12Z</time>
      </trkpt>
      <trkpt lat="45.71081" lon="3.32107">
        <ele>371.4</ele>
        <time>2024-08-11T09:13:13Z</time>
      </trkpt>
      <trkpt lat="45.71077" lon="3.32103">
        <ele>371.6</ele>
        <time>2024-08-11T09:13:14Z</time>
      </trkpt>
      <trkpt lat="45.71072" lon="3.32099">
        <ele>371.6</ele>
        <time>2024-08-11T09:13:15Z</time>
      </trkpt>
      <trkpt lat="45.71067" lon="3.32094">
        <ele>371.8</ele>
        <time>2024-08-11T09:13:16Z</time>
      </trkpt>
      <trkpt lat="45.71063" lon="3.3209">
        <ele>371.8</ele>
        <time>2024-08-11T09:13:17Z</time>
      </trkpt>
      <trkpt lat="45.71058" lon="3.32086">
        <ele>372</ele>
        <time>2024-08-11T09:13:18Z</time>
      </trkpt>
      <trkpt lat="45.71053" lon="3.32082">
        <ele>372</ele>
        <time>2024-08-11T09:13:19Z</time>
      </trkpt>
      <trkpt lat="45.71049" lon="3.32076">
        <ele>372</ele>
        <time>2024-08-11T09:13:20Z</time>
      </trkpt>
      <trkpt lat="45.71045" lon="3.3207">
        <ele>372.2</ele>
        <time>2024-08-11T09:13:21Z</time>
      </trkpt>
      <trkpt lat="45.71042" lon="3.32065">
        <ele>372.4</ele>
        <time>2024-08-11T09:13:22Z</time>
      </trkpt>
      <trkpt lat="45.71038" lon="3.32059">
        <ele>372.4</ele>
        <time>2024-08-11T09:13:23Z</time>
      </trkpt>
      <trkpt lat="45.71034" lon="3.32053">
        <ele>372.4</ele>
        <time>2024-08-11T09:13:24Z</time>
      </trkpt>
      <trkpt lat="45.71031" lon="3.32048">
        <ele>372.6</ele>
        <time>2024-08-11T09:13:25Z</time>
      </trkpt>
      <trkpt lat="45.71027" lon="3.32042">
        <ele>372.6</ele>
        <time>2024-08-11T09:13:26Z</time>
      </trkpt>
      <trkpt lat="45.71024" lon="3.32037">
        <ele>372.8</ele>
        <time>2024-08-11T09:13:27Z</time>
      </trkpt>
      <trkpt lat="45.7102" lon="3.32031">
        <ele>372.8</ele>
        <time>2024-08-11T09:13:28Z</time>
      </trkpt>
      <trkpt lat="45.71017" lon="3.32026">
        <ele>372.8</ele>
        <time>2024-08-11T09:13:29Z</time>
      </trkpt>
      <trkpt lat="45.71013" lon="3.3202">
        <ele>373</ele>
        <time>2024-08-11T09:13:30Z</time>
      </trkpt>
      <trkpt lat="45.7101" lon="3.32015">
        <ele>373</ele>
        <time>2024-08-11T09:13:31Z</time>
      </trkpt>
      <trkpt lat="45.71006" lon="3.32009">
        <ele>373.2</ele>
        <time>2024-08-11T09:13:32Z</time>
      </trkpt>
      <trkpt lat="45.71003" lon="3.32004">
        <ele>373.2</ele>
        <time>2024-08-11T09:13:33Z</time>
      </trkpt>
      <trkpt lat="45.71" lon="3.31999">
        <ele>373.4</ele>
        <time>2024-08-11T09:13:34Z</time>
      </trkpt>
      <trkpt lat="45.70996" lon="3.31993">
        <ele>373.4</ele>
        <time>2024-08-11T09:13:35Z</time>
      </trkpt>
      <trkpt lat="45.70993" lon="3.31988">
        <ele>373.6</ele>
        <time>2024-08-11T09:13:36Z</time>
      </trkpt>
      <trkpt lat="45.70989" lon="3.31982">
        <ele>373.6</ele>
        <time>2024-08-11T09:13:37Z</time>
      </trkpt>
      <trkpt lat="45.70986" lon="3.31976">
        <ele>373.8</ele>
        <time>2024-08-11T09:13:38Z</time>
      </trkpt>
      <trkpt lat="45.70982" lon="3.31971">
        <ele>373.8</ele>
        <time>2024-08-11T09:13:39Z</time>
      </trkpt>
      <trkpt lat="45.70979" lon="3.31966">
        <ele>374</ele>
        <time>2024-08-11T09:13:40Z</time>
      </trkpt>
      <trkpt lat="45.70975" lon="3.3196">
        <ele>374</ele>
        <time>2024-08-11T09:13:41Z</time>
      </trkpt>
      <trkpt lat="45.70972" lon="3.31955">
        <ele>374.2</ele>
        <time>2024-08-11T09:13:42Z</time>
      </trkpt>
      <trkpt lat="45.70969" lon="3.3195">
        <ele>374.4</ele>
        <time>2024-08-11T09:13:43Z</time>
      </trkpt>
      <trkpt lat="45.70965" lon="3.31944">
        <ele>374.4</ele>
        <time>2024-08-11T09:13:44Z</time>
      </trkpt>
      <trkpt lat="45.70962" lon="3.31939">
        <ele>374.6</ele>
        <time>2024-08-11T09:13:45Z</time>
      </trkpt>
      <trkpt lat="45.70959" lon="3.31934">
        <ele>374.6</ele>
        <time>2024-08-11T09:13:46Z</time>
      </trkpt>
      <trkpt lat="45.70955" lon="3.31928">
        <ele>374.8</ele>
        <time>2024-08-11T09:13:47Z</time>
      </trkpt>
      <trkpt lat="45.70952" lon="3.31923">
        <ele>374.8</ele>
        <time>2024-08-11T09:13:48Z</time>
      </trkpt>
      <trkpt lat="45.70949" lon="3.31918">
        <ele>375</ele>
        <time>2024-08-11T09:13:49Z</time>
      </trkpt>
      <trkpt lat="45.70945" lon="3.31913">
        <ele>375.2</ele>
        <time>2024-08-11T09:13:50Z</time>
      </trkpt>
      <trkpt lat="45.70942" lon="3.31908">
        <ele>375.2</ele>
        <time>2024-08-11T09:13:51Z</time>
      </trkpt>
      <trkpt lat="45.70939" lon="3.31902">
        <ele>375.2</ele>
        <time>2024-08-11T09:13:52Z</time>
      </trkpt>
      <trkpt lat="45.70936" lon="3.31897">
        <ele>375.4</ele>
        <time>2024-08-11T09:13:53Z</time>
      </trkpt>
      <trkpt lat="45.70933" lon="3.31893">
        <ele>375.6</ele>
        <time>2024-08-11T09:13:54Z</time>
      </trkpt>
      <trkpt lat="45.7093" lon="3.31888">
        <ele>375.6</ele>
        <time>2024-08-11T09:13:55Z</time>
      </trkpt>
      <trkpt lat="45.70926" lon="3.31883">
        <ele>375.6</ele>
        <time>2024-08-11T09:13:56Z</time>
      </trkpt>
      <trkpt lat="45.70923" lon="3.31878">
        <ele>375.8</ele>
        <time>2024-08-11T09:13:57Z</time>
      </trkpt>
      <trkpt lat="45.7092" lon="3.31873">
        <ele>376</ele>
        <time>2024-08-11T09:13:58Z</time>
      </trkpt>
      <trkpt lat="45.70917" lon="3.31869">
        <ele>376</ele>
        <time>2024-08-11T09:13:59Z</time>
      </trkpt>
      <trkpt lat="45.70914" lon="3.31864">
        <ele>376.2</ele>
        <time>2024-08-11T09:14:00Z</time>
      </trkpt>
      <trkpt lat="45.70911" lon="3.31859">
        <ele>376.2</ele>
        <time>2024-08-11T09:14:01Z</time>
      </trkpt>
      <trkpt lat="45.70908" lon="3.31854">
        <ele>376.4</ele>
        <time>2024-08-11T09:14:02Z</time>
      </trkpt>
      <trkpt lat="45.70905" lon="3.31849">
        <ele>376.4</ele>
        <time>2024-08-11T09:14:03Z</time>
      </trkpt>
      <trkpt lat="45.70902" lon="3.31844">
        <ele>376.6</ele>
        <time>2024-08-11T09:14:04Z</time>
      </trkpt>
      <trkpt lat="45.70898" lon="3.31839">
        <ele>376.6</ele>
        <time>2024-08-11T09:14:05Z</time>
      </trkpt>
      <trkpt lat="45.70895" lon="3.31834">
        <ele>376.8</ele>
        <time>2024-08-11T09:14:06Z</time>
      </trkpt>
      <trkpt lat="45.70892" lon="3.3183">
        <ele>376.8</ele>
        <time>2024-08-11T09:14:07Z</time>
      </trkpt>
      <trkpt lat="45.70888" lon="3.31825">
        <ele>377</ele>
        <time>2024-08-11T09:14:08Z</time>
      </trkpt>
      <trkpt lat="45.70885" lon="3.31821">
        <ele>377</ele>
        <time>2024-08-11T09:14:09Z</time>
      </trkpt>
      <trkpt lat="45.70882" lon="3.31816">
        <ele>377.2</ele>
        <time>2024-08-11T09:14:10Z</time>
      </trkpt>
      <trkpt lat="45.70878" lon="3.31811">
        <ele>377.2</ele>
        <time>2024-08-11T09:14:11Z</time>
      </trkpt>
      <trkpt lat="45.70875" lon="3.31807">
        <ele>377.4</ele>
        <time>2024-08-11T09:14:12Z</time>
      </trkpt>
      <trkpt lat="45.70872" lon="3.31803">
        <ele>377.4</ele>
        <time>2024-08-11T09:14:13Z</time>
      </trkpt>
      <trkpt lat="45.70869" lon="3.31798">
        <ele>377.6</ele>
        <time>2024-08-11T09:14:14Z</time>
      </trkpt>
      <trkpt lat="45.70866" lon="3.31794">
        <ele>377.8</ele>
        <time>2024-08-11T09:14:15Z</time>
      </trkpt>
      <trkpt lat="45.70863" lon="3.3179">
        <ele>377.8</ele>
        <time>2024-08-11T09:14:16Z</time>
      </trkpt>
      <trkpt lat="45.70859" lon="3.31785">
        <ele>378</ele>
        <time>2024-08-11T09:14:17Z</time>
      </trkpt>
      <trkpt lat="45.70856" lon="3.3178">
        <ele>378.2</ele>
        <time>2024-08-11T09:14:18Z</time>
      </trkpt>
      <trkpt lat="45.70852" lon="3.31776">
        <ele>378.2</ele>
        <time>2024-08-11T09:14:19Z</time>
      </trkpt>
      <trkpt lat="45.70849" lon="3.31771">
        <ele>378.4</ele>
        <time>2024-08-11T09:14:20Z</time>
      </trkpt>
      <trkpt lat="45.70846" lon="3.31766">
        <ele>378.4</ele>
        <time>2024-08-11T09:14:21Z</time>
      </trkpt>
      <trkpt lat="45.70842" lon="3.31762">
        <ele>378.6</ele>
        <time>2024-08-11T09:14:22Z</time>
      </trkpt>
      <trkpt lat="45.70839" lon="3.31759">
        <ele>378.6</ele>
        <time>2024-08-11T09:14:23Z</time>
      </trkpt>
      <trkpt lat="45.70835" lon="3.31755">
        <ele>378.8</ele>
        <time>2024-08-11T09:14:24Z</time>
      </trkpt>
      <trkpt lat="45.70832" lon="3.3175">
        <ele>378.8</ele>
        <time>2024-08-11T09:14:25Z</time>
      </trkpt>
      <trkpt lat="45.70828" lon="3.31746">
        <ele>378.8</ele>
        <time>2024-08-11T09:14:26Z</time>
      </trkpt>
      <trkpt lat="45.70825" lon="3.31743">
        <ele>379</ele>
        <time>2024-08-11T09:14:27Z</time>
      </trkpt>
      <trkpt lat="45.70822" lon="3.31739">
        <ele>379</ele>
        <time>2024-08-11T09:14:28Z</time>
      </trkpt>
      <trkpt lat="45.70818" lon="3.31735">
        <ele>379.2</ele>
        <time>2024-08-11T09:14:29Z</time>
      </trkpt>
      <trkpt lat="45.70815" lon="3.31731">
        <ele>379.2</ele>
        <time>2024-08-11T09:14:30Z</time>
      </trkpt>
      <trkpt lat="45.70811" lon="3.31727">
        <ele>379.4</ele>
        <time>2024-08-11T09:14:31Z</time>
      </trkpt>
      <trkpt lat="45.70808" lon="3.31723">
        <ele>379.4</ele>
        <time>2024-08-11T09:14:32Z</time>
      </trkpt>
      <trkpt lat="45.70804" lon="3.31719">
        <ele>379.4</ele>
        <time>2024-08-11T09:14:33Z</time>
      </trkpt>
      <trkpt lat="45.70801" lon="3.31715">
        <ele>379.6</ele>
        <time>2024-08-11T09:14:34Z</time>
      </trkpt>
      <trkpt lat="45.70797" lon="3.31711">
        <ele>379.6</ele>
        <time>2024-08-11T09:14:35Z</time>
      </trkpt>
      <trkpt lat="45.70794" lon="3.31707">
        <ele>379.8</ele>
        <time>2024-08-11T09:14:36Z</time>
      </trkpt>
      <trkpt lat="45.7079" lon="3.31702">
        <ele>379.8</ele>
        <time>2024-08-11T09:14:37Z</time>
      </trkpt>
      <trkpt lat="45.70786" lon="3.31698">
        <ele>379.8</ele>
        <time>2024-08-11T09:14:38Z</time>
      </trkpt>
      <trkpt lat="45.70783" lon="3.31694">
        <ele>380</ele>
        <time>2024-08-11T09:14:39Z</time>
      </trkpt>
      <trkpt lat="45.70779" lon="3.3169">
        <ele>380</ele>
        <time>2024-08-11T09:14:40Z</time>
      </trkpt>
      <trkpt lat="45.70776" lon="3.31686">
        <ele>380</ele>
        <time>2024-08-11T09:14:41Z</time>
      </trkpt>
      <trkpt lat="45.70772" lon="3.31682">
        <ele>380.2</ele>
        <time>2024-08-11T09:14:42Z</time>
      </trkpt>
      <trkpt lat="45.70769" lon="3.31678">
        <ele>380.4</ele>
        <time>2024-08-11T09:14:43Z</time>
      </trkpt>
      <trkpt lat="45.70766" lon="3.31674">
        <ele>380.4</ele>
        <time>2024-08-11T09:14:44Z</time>
      </trkpt>
      <trkpt lat="45.70762" lon="3.3167">
        <ele>380.4</ele>
        <time>2024-08-11T09:14:45Z</time>
      </trkpt>
      <trkpt lat="45.70758" lon="3.31666">
        <ele>380.6</ele>
        <time>2024-08-11T09:14:46Z</time>
      </trkpt>
      <trkpt lat="45.70755" lon="3.31662">
        <ele>380.6</ele>
        <time>2024-08-11T09:14:47Z</time>
      </trkpt>
      <trkpt lat="45.70752" lon="3.31658">
        <ele>380.8</ele>
        <time>2024-08-11T09:14:48Z</time>
      </trkpt>
      <trkpt lat="45.70748" lon="3.31654">
        <ele>381</ele>
        <time>2024-08-11T09:14:49Z</time>
      </trkpt>
      <trkpt lat="45.70745" lon="3.31651">
        <ele>381.2</ele>
        <time>2024-08-11T09:14:50Z</time>
      </trkpt>
      <trkpt lat="45.70741" lon="3.31647">
        <ele>381.2</ele>
        <time>2024-08-11T09:14:51Z</time>
      </trkpt>
      <trkpt lat="45.70738" lon="3.31642">
        <ele>381.4</ele>
        <time>2024-08-11T09:14:52Z</time>
      </trkpt>
      <trkpt lat="45.70734" lon="3.31638">
        <ele>381.4</ele>
        <time>2024-08-11T09:14:53Z</time>
      </trkpt>
      <trkpt lat="45.70731" lon="3.31634">
        <ele>381.6</ele>
        <time>2024-08-11T09:14:54Z</time>
      </trkpt>
      <trkpt lat="45.70727" lon="3.3163">
        <ele>381.6</ele>
        <time>2024-08-11T09:14:55Z</time>
      </trkpt>
      <trkpt lat="45.70724" lon="3.31626">
        <ele>381.6</ele>
        <time>2024-08-11T09:14:56Z</time>
      </trkpt>
      <trkpt lat="45.7072" lon="3.31622">
        <ele>381.8</ele>
        <time>2024-08-11T09:14:57Z</time>
      </trkpt>
      <trkpt lat="45.70716" lon="3.31618">
        <ele>381.8</ele>
        <time>2024-08-11T09:14:58Z</time>
      </trkpt>
      <trkpt lat="45.70712" lon="3.31613">
        <ele>381.8</ele>
        <time>2024-08-11T09:14:59Z</time>
      </trkpt>
      <trkpt lat="45.70709" lon="3.31609">
        <ele>382</ele>
        <time>2024-08-11T09:15:00Z</time>
      </trkpt>
      <trkpt lat="45.70705" lon="3.31605">
        <ele>382</ele>
        <time>2024-08-11T09:15:01Z</time>
      </trkpt>
      <trkpt lat="45.70701" lon="3.316">
        <ele>382</ele>
        <time>2024-08-11T09:15:02Z</time>
      </trkpt>
      <trkpt lat="45.70698" lon="3.31596">
        <ele>382.2</ele>
        <time>2024-08-11T09:15:03Z</time>
      </trkpt>
      <trkpt lat="45.70694" lon="3.31592">
        <ele>382.2</ele>
        <time>2024-08-11T09:15:04Z</time>
      </trkpt>
      <trkpt lat="45.7069" lon="3.31588">
        <ele>382.4</ele>
        <time>2024-08-11T09:15:05Z</time>
      </trkpt>
      <trkpt lat="45.70687" lon="3.31584">
        <ele>382.4</ele>
        <time>2024-08-11T09:15:06Z</time>
      </trkpt>
      <trkpt lat="45.70683" lon="3.3158">
        <ele>382.6</ele>
        <time>2024-08-11T09:15:07Z</time>
      </trkpt>
      <trkpt lat="45.7068" lon="3.31576">
        <ele>382.6</ele>
        <time>2024-08-11T09:15:08Z</time>
      </trkpt>
      <trkpt lat="45.70676" lon="3.31572">
        <ele>382.8</ele>
        <time>2024-08-11T09:15:09Z</time>
      </trkpt>
      <trkpt lat="45.70673" lon="3.31568">
        <ele>382.8</ele>
        <time>2024-08-11T09:15:10Z</time>
      </trkpt>
      <trkpt lat="45.7067" lon="3.31564">
        <ele>383</ele>
        <time>2024-08-11T09:15:11Z</time>
      </trkpt>
      <trkpt lat="45.70667" lon="3.31561">
        <ele>383</ele>
        <time>2024-08-11T09:15:12Z</time>
      </trkpt>
      <trkpt lat="45.70664" lon="3.31557">
        <ele>383.2</ele>
        <time>2024-08-11T09:15:13Z</time>
      </trkpt>
      <trkpt lat="45.7066" lon="3.31554">
        <ele>383.2</ele>
        <time>2024-08-11T09:15:14Z</time>
      </trkpt>
      <trkpt lat="45.70657" lon="3.3155">
        <ele>383.4</ele>
        <time>2024-08-11T09:15:15Z</time>
      </trkpt>
      <trkpt lat="45.70654" lon="3.31546">
        <ele>383.6</ele>
        <time>2024-08-11T09:15:16Z</time>
      </trkpt>
      <trkpt lat="45.7065" lon="3.31542">
        <ele>383.6</ele>
        <time>2024-08-11T09:15:17Z</time>
      </trkpt>
      <trkpt lat="45.70647" lon="3.31538">
        <ele>383.8</ele>
        <time>2024-08-11T09:15:18Z</time>
      </trkpt>
      <trkpt lat="45.70644" lon="3.31534">
        <ele>384</ele>
        <time>2024-08-11T09:15:19Z</time>
      </trkpt>
      <trkpt lat="45.70641" lon="3.31531">
        <ele>384.2</ele>
        <time>2024-08-11T09:15:20Z</time>
      </trkpt>
      <trkpt lat="45.70637" lon="3.31527">
        <ele>384.2</ele>
        <time>2024-08-11T09:15:21Z</time>
      </trkpt>
      <trkpt lat="45.70634" lon="3.31523">
        <ele>384.4</ele>
        <time>2024-08-11T09:15:22Z</time>
      </trkpt>
      <trkpt lat="45.70631" lon="3.31519">
        <ele>384.6</ele>
        <time>2024-08-11T09:15:23Z</time>
      </trkpt>
      <trkpt lat="45.70627" lon="3.31515">
        <ele>384.6</ele>
        <time>2024-08-11T09:15:24Z</time>
      </trkpt>
      <trkpt lat="45.70624" lon="3.31511">
        <ele>384.8</ele>
        <time>2024-08-11T09:15:25Z</time>
      </trkpt>
      <trkpt lat="45.7062" lon="3.31508">
        <ele>385</ele>
        <time>2024-08-11T09:15:26Z</time>
      </trkpt>
      <trkpt lat="45.70617" lon="3.31504">
        <ele>385</ele>
        <time>2024-08-11T09:15:27Z</time>
      </trkpt>
      <trkpt lat="45.70614" lon="3.315">
        <ele>385.2</ele>
        <time>2024-08-11T09:15:28Z</time>
      </trkpt>
      <trkpt lat="45.70611" lon="3.31497">
        <ele>385.4</ele>
        <time>2024-08-11T09:15:29Z</time>
      </trkpt>
      <trkpt lat="45.70608" lon="3.31493">
        <ele>385.6</ele>
        <time>2024-08-11T09:15:30Z</time>
      </trkpt>
      <trkpt lat="45.70605" lon="3.31489">
        <ele>385.6</ele>
        <time>2024-08-11T09:15:31Z</time>
      </trkpt>
      <trkpt lat="45.70601" lon="3.31486">
        <ele>385.8</ele>
        <time>2024-08-11T09:15:32Z</time>
      </trkpt>
      <trkpt lat="45.70599" lon="3.31482">
        <ele>385.8</ele>
        <time>2024-08-11T09:15:33Z</time>
      </trkpt>
      <trkpt lat="45.70595" lon="3.31479">
        <ele>386</ele>
        <time>2024-08-11T09:15:34Z</time>
      </trkpt>
      <trkpt lat="45.70592" lon="3.31475">
        <ele>386.2</ele>
        <time>2024-08-11T09:15:35Z</time>
      </trkpt>
      <trkpt lat="45.70589" lon="3.31472">
        <ele>386.4</ele>
        <time>2024-08-11T09:15:36Z</time>
      </trkpt>
      <trkpt lat="45.70586" lon="3.31468">
        <ele>386.4</ele>
        <time>2024-08-11T09:15:37Z</time>
      </trkpt>
      <trkpt lat="45.70583" lon="3.31465">
        <ele>386.6</ele>
        <time>2024-08-11T09:15:38Z</time>
      </trkpt>
      <trkpt lat="45.7058" lon="3.31462">
        <ele>386.8</ele>
        <time>2024-08-11T09:15:39Z</time>
      </trkpt>
      <trkpt lat="45.70577" lon="3.31458">
        <ele>387</ele>
        <time>2024-08-11T09:15:40Z</time>
      </trkpt>
      <trkpt lat="45.70574" lon="3.31455">
        <ele>387</ele>
        <time>2024-08-11T09:15:41Z</time>
      </trkpt>
      <trkpt lat="45.70571" lon="3.31451">
        <ele>387.2</ele>
        <time>2024-08-11T09:15:42Z</time>
      </trkpt>
      <trkpt lat="45.70568" lon="3.31448">
        <ele>387.2</ele>
        <time>2024-08-11T09:15:43Z</time>
      </trkpt>
      <trkpt lat="45.70565" lon="3.31444">
        <ele>387.4</ele>
        <time>2024-08-11T09:15:44Z</time>
      </trkpt>
      <trkpt lat="45.70562" lon="3.3144">
        <ele>387.4</ele>
        <time>2024-08-11T09:15:45Z</time>
      </trkpt>
      <trkpt lat="45.70559" lon="3.31437">
        <ele>387.6</ele>
        <time>2024-08-11T09:15:46Z</time>
      </trkpt>
      <trkpt lat="45.70556" lon="3.31433">
        <ele>387.8</ele>
        <time>2024-08-11T09:15:47Z</time>
      </trkpt>
      <trkpt lat="45.70553" lon="3.3143">
        <ele>388</ele>
        <time>2024-08-11T09:15:48Z</time>
      </trkpt>
      <trkpt lat="45.7055" lon="3.31427">
        <ele>388</ele>
        <time>2024-08-11T09:15:49Z</time>
      </trkpt>
      <trkpt lat="45.70547" lon="3.31423">
        <ele>388.2</ele>
        <time>2024-08-11T09:15:50Z</time>
      </trkpt>
      <trkpt lat="45.70544" lon="3.3142">
        <ele>388.4</ele>
        <time>2024-08-11T09:15:51Z</time>
      </trkpt>
      <trkpt lat="45.70541" lon="3.31417">
        <ele>388.6</ele>
        <time>2024-08-11T09:15:52Z</time>
      </trkpt>
      <trkpt lat="45.70538" lon="3.31413">
        <ele>388.8</ele>
        <time>2024-08-11T09:15:53Z</time>
      </trkpt>
      <trkpt lat="45.70535" lon="3.3141">
        <ele>389</ele>
        <time>2024-08-11T09:15:54Z</time>
      </trkpt>
      <trkpt lat="45.70532" lon="3.31406">
        <ele>389</ele>
        <time>2024-08-11T09:15:55Z</time>
      </trkpt>
      <trkpt lat="45.70529" lon="3.31403">
        <ele>389.2</ele>
        <time>2024-08-11T09:15:56Z</time>
      </trkpt>
      <trkpt lat="45.70526" lon="3.31399">
        <ele>389.4</ele>
        <time>2024-08-11T09:15:57Z</time>
      </trkpt>
      <trkpt lat="45.70523" lon="3.31396">
        <ele>389.4</ele>
        <time>2024-08-11T09:15:58Z</time>
      </trkpt>
      <trkpt lat="45.7052" lon="3.31392">
        <ele>389.6</ele>
        <time>2024-08-11T09:15:59Z</time>
      </trkpt>
      <trkpt lat="45.70517" lon="3.31389">
        <ele>389.8</ele>
        <time>2024-08-11T09:16:00Z</time>
      </trkpt>
      <trkpt lat="45.70514" lon="3.31385">
        <ele>390</ele>
        <time>2024-08-11T09:16:01Z</time>
      </trkpt>
      <trkpt lat="45.70511" lon="3.31382">
        <ele>390.2</ele>
        <time>2024-08-11T09:16:02Z</time>
      </trkpt>
      <trkpt lat="45.70508" lon="3.31378">
        <ele>390.4</ele>
        <time>2024-08-11T09:16:03Z</time>
      </trkpt>
      <trkpt lat="45.70505" lon="3.31375">
        <ele>390.4</ele>
        <time>2024-08-11T09:16:04Z</time>
      </trkpt>
      <trkpt lat="45.70502" lon="3.31371">
        <ele>390.6</ele>
        <time>2024-08-11T09:16:05Z</time>
      </trkpt>
      <trkpt lat="45.70499" lon="3.31368">
        <ele>390.8</ele>
        <time>2024-08-11T09:16:06Z</time>
      </trkpt>
      <trkpt lat="45.70496" lon="3.31364">
        <ele>391</ele>
        <time>2024-08-11T09:16:07Z</time>
      </trkpt>
      <trkpt lat="45.70493" lon="3.31361">
        <ele>391.2</ele>
        <time>2024-08-11T09:16:08Z</time>
      </trkpt>
      <trkpt lat="45.7049" lon="3.31357">
        <ele>391.2</ele>
        <time>2024-08-11T09:16:09Z</time>
      </trkpt>
      <trkpt lat="45.70487" lon="3.31354">
        <ele>391.4</ele>
        <time>2024-08-11T09:16:10Z</time>
      </trkpt>
      <trkpt lat="45.70484" lon="3.3135">
        <ele>391.6</ele>
        <time>2024-08-11T09:16:11Z</time>
      </trkpt>
      <trkpt lat="45.70481" lon="3.31347">
        <ele>391.8</ele>
        <time>2024-08-11T09:16:12Z</time>
      </trkpt>
      <trkpt lat="45.70478" lon="3.31343">
        <ele>392</ele>
        <time>2024-08-11T09:16:13Z</time>
      </trkpt>
      <trkpt lat="45.70475" lon="3.3134">
        <ele>392</ele>
        <time>2024-08-11T09:16:14Z</time>
      </trkpt>
      <trkpt lat="45.70472" lon="3.31337">
        <ele>392.2</ele>
        <time>2024-08-11T09:16:15Z</time>
      </trkpt>
      <trkpt lat="45.70469" lon="3.31333">
        <ele>392.4</ele>
        <time>2024-08-11T09:16:16Z</time>
      </trkpt>
      <trkpt lat="45.70466" lon="3.3133">
        <ele>392.6</ele>
        <time>2024-08-11T09:16:17Z</time>
      </trkpt>
      <trkpt lat="45.70463" lon="3.31326">
        <ele>392.8</ele>
        <time>2024-08-11T09:16:18Z</time>
      </trkpt>
      <trkpt lat="45.7046" lon="3.31323">
        <ele>392.8</ele>
        <time>2024-08-11T09:16:19Z</time>
      </trkpt>
      <trkpt lat="45.70457" lon="3.31319">
        <ele>393</ele>
        <time>2024-08-11T09:16:20Z</time>
      </trkpt>
      <trkpt lat="45.70454" lon="3.31316">
        <ele>393.2</ele>
        <time>2024-08-11T09:16:21Z</time>
      </trkpt>
      <trkpt lat="45.70451" lon="3.31312">
        <ele>393.4</ele>
        <time>2024-08-11T09:16:22Z</time>
      </trkpt>
      <trkpt lat="45.70448" lon="3.31309">
        <ele>393.6</ele>
        <time>2024-08-11T09:16:23Z</time>
      </trkpt>
      <trkpt lat="45.70445" lon="3.31306">
        <ele>393.8</ele>
        <time>2024-08-11T09:16:24Z</time>
      </trkpt>
      <trkpt lat="45.70442" lon="3.31302">
        <ele>393.8</ele>
        <time>2024-08-11T09:16:25Z</time>
      </trkpt>
      <trkpt lat="45.70439" lon="3.31299">
        <ele>394</ele>
        <time>2024-08-11T09:16:26Z</time>
      </trkpt>
      <trkpt lat="45.70436" lon="3.31295">
        <ele>394.2</ele>
        <time>2024-08-11T09:16:27Z</time>
      </trkpt>
      <trkpt lat="45.70433" lon="3.31292">
        <ele>394.2</ele>
        <time>2024-08-11T09:16:28Z</time>
      </trkpt>
      <trkpt lat="45.7043" lon="3.31289">
        <ele>394.4</ele>
        <time>2024-08-11T09:16:29Z</time>
      </trkpt>
      <trkpt lat="45.70427" lon="3.31286">
        <ele>394.6</ele>
        <time>2024-08-11T09:16:30Z</time>
      </trkpt>
      <trkpt lat="45.70423" lon="3.31283">
        <ele>394.8</ele>
        <time>2024-08-11T09:16:31Z</time>
      </trkpt>
      <trkpt lat="45.7042" lon="3.3128">
        <ele>395</ele>
        <time>2024-08-11T09:16:32Z</time>
      </trkpt>
      <trkpt lat="45.70417" lon="3.31277">
        <ele>395</ele>
        <time>2024-08-11T09:16:33Z</time>
      </trkpt>
      <trkpt lat="45.70414" lon="3.31274">
        <ele>395.2</ele>
        <time>2024-08-11T09:16:34Z</time>
      </trkpt>
      <trkpt lat="45.70411" lon="3.31271">
        <ele>395.4</ele>
        <time>2024-08-11T09:16:35Z</time>
      </trkpt>
      <trkpt lat="45.70407" lon="3.31268">
        <ele>395.6</ele>
        <time>2024-08-11T09:16:36Z</time>
      </trkpt>
      <trkpt lat="45.70404" lon="3.31266">
        <ele>395.6</ele>
        <time>2024-08-11T09:16:37Z</time>
      </trkpt>
      <trkpt lat="45.70401" lon="3.31264">
        <ele>395.8</ele>
        <time>2024-08-11T09:16:38Z</time>
      </trkpt>
      <trkpt lat="45.70397" lon="3.31261">
        <ele>395.8</ele>
        <time>2024-08-11T09:16:39Z</time>
      </trkpt>
      <trkpt lat="45.70394" lon="3.31259">
        <ele>396</ele>
        <time>2024-08-11T09:16:40Z</time>
      </trkpt>
      <trkpt lat="45.70391" lon="3.31257">
        <ele>396.2</ele>
        <time>2024-08-11T09:16:41Z</time>
      </trkpt>
      <trkpt lat="45.70388" lon="3.31255">
        <ele>396.4</ele>
        <time>2024-08-11T09:16:42Z</time>
      </trkpt>
      <trkpt lat="45.70385" lon="3.31253">
        <ele>396.6</ele>
        <time>2024-08-11T09:16:43Z</time>
      </trkpt>
      <trkpt lat="45.70382" lon="3.31251">
        <ele>396.6</ele>
        <time>2024-08-11T09:16:44Z</time>
      </trkpt>
      <trkpt lat="45.70378" lon="3.31249">
        <ele>396.8</ele>
        <time>2024-08-11T09:16:45Z</time>
      </trkpt>
      <trkpt lat="45.70375" lon="3.31246">
        <ele>397</ele>
        <time>2024-08-11T09:16:46Z</time>
      </trkpt>
      <trkpt lat="45.70372" lon="3.31244">
        <ele>397</ele>
        <time>2024-08-11T09:16:47Z</time>
      </trkpt>
      <trkpt lat="45.70368" lon="3.31242">
        <ele>397.2</ele>
        <time>2024-08-11T09:16:48Z</time>
      </trkpt>
      <trkpt lat="45.70365" lon="3.3124">
        <ele>397.4</ele>
        <time>2024-08-11T09:16:49Z</time>
      </trkpt>
      <trkpt lat="45.70362" lon="3.31238">
        <ele>397.6</ele>
        <time>2024-08-11T09:16:50Z</time>
      </trkpt>
      <trkpt lat="45.70359" lon="3.31235">
        <ele>397.6</ele>
        <time>2024-08-11T09:16:51Z</time>
      </trkpt>
      <trkpt lat="45.70356" lon="3.31233">
        <ele>397.8</ele>
        <time>2024-08-11T09:16:52Z</time>
      </trkpt>
      <trkpt lat="45.70352" lon="3.31231">
        <ele>398</ele>
        <time>2024-08-11T09:16:53Z</time>
      </trkpt>
      <trkpt lat="45.70349" lon="3.31229">
        <ele>398</ele>
        <time>2024-08-11T09:16:54Z</time>
      </trkpt>
      <trkpt lat="45.70346" lon="3.31227">
        <ele>398.2</ele>
        <time>2024-08-11T09:16:55Z</time>
      </trkpt>
      <trkpt lat="45.70343" lon="3.31225">
        <ele>398.4</ele>
        <time>2024-08-11T09:16:56Z</time>
      </trkpt>
      <trkpt lat="45.7034" lon="3.31222">
        <ele>398.4</ele>
        <time>2024-08-11T09:16:57Z</time>
      </trkpt>
      <trkpt lat="45.70336" lon="3.3122">
        <ele>398.6</ele>
        <time>2024-08-11T09:16:58Z</time>
      </trkpt>
      <trkpt lat="45.70333" lon="3.31218">
        <ele>398.8</ele>
        <time>2024-08-11T09:16:59Z</time>
      </trkpt>
      <trkpt lat="45.70329" lon="3.31215">
        <ele>399</ele>
        <time>2024-08-11T09:17:00Z</time>
      </trkpt>
      <trkpt lat="45.70326" lon="3.31213">
        <ele>399.2</ele>
        <time>2024-08-11T09:17:01Z</time>
      </trkpt>
      <trkpt lat="45.70322" lon="3.31211">
        <ele>399.2</ele>
        <time>2024-08-11T09:17:02Z</time>
      </trkpt>
      <trkpt lat="45.70319" lon="3.31209">
        <ele>399.4</ele>
        <time>2024-08-11T09:17:03Z</time>
      </trkpt>
      <trkpt lat="45.70315" lon="3.31207">
        <ele>399.4</ele>
        <time>2024-08-11T09:17:04Z</time>
      </trkpt>
      <trkpt lat="45.70311" lon="3.31204">
        <ele>399.6</ele>
        <time>2024-08-11T09:17:05Z</time>
      </trkpt>
      <trkpt lat="45.70308" lon="3.31202">
        <ele>399.8</ele>
        <time>2024-08-11T09:17:06Z</time>
      </trkpt>
      <trkpt lat="45.70304" lon="3.312">
        <ele>399.8</ele>
        <time>2024-08-11T09:17:07Z</time>
      </trkpt>
      <trkpt lat="45.703" lon="3.31198">
        <ele>400</ele>
        <time>2024-08-11T09:17:08Z</time>
      </trkpt>
      <trkpt lat="45.70297" lon="3.31195">
        <ele>400.2</ele>
        <time>2024-08-11T09:17:09Z</time>
      </trkpt>
      <trkpt lat="45.70293" lon="3.31193">
        <ele>400.2</ele>
        <time>2024-08-11T09:17:10Z</time>
      </trkpt>
      <trkpt lat="45.7029" lon="3.31191">
        <ele>400.4</ele>
        <time>2024-08-11T09:17:11Z</time>
      </trkpt>
      <trkpt lat="45.70286" lon="3.31189">
        <ele>400.6</ele>
        <time>2024-08-11T09:17:12Z</time>
      </trkpt>
      <trkpt lat="45.70282" lon="3.31187">
        <ele>400.8</ele>
        <time>2024-08-11T09:17:13Z</time>
      </trkpt>
      <trkpt lat="45.70279" lon="3.31184">
        <ele>401</ele>
        <time>2024-08-11T09:17:14Z</time>
      </trkpt>
      <trkpt lat="45.70275" lon="3.31182">
        <ele>401.2</ele>
        <time>2024-08-11T09:17:15Z</time>
      </trkpt>
      <trkpt lat="45.70272" lon="3.3118">
        <ele>401.4</ele>
        <time>2024-08-11T09:17:16Z</time>
      </trkpt>
      <trkpt lat="45.70268" lon="3.31178">
        <ele>401.4</ele>
        <time>2024-08-11T09:17:17Z</time>
      </trkpt>
      <trkpt lat="45.70265" lon="3.31176">
        <ele>401.6</ele>
        <time>2024-08-11T09:17:18Z</time>
      </trkpt>
      <trkpt lat="45.70261" lon="3.31174">
        <ele>401.8</ele>
        <time>2024-08-11T09:17:19Z</time>
      </trkpt>
      <trkpt lat="45.70258" lon="3.31172">
        <ele>402</ele>
        <time>2024-08-11T09:17:20Z</time>
      </trkpt>
      <trkpt lat="45.70254" lon="3.31169">
        <ele>402</ele>
        <time>2024-08-11T09:17:21Z</time>
      </trkpt>
      <trkpt lat="45.70251" lon="3.31167">
        <ele>402.2</ele>
        <time>2024-08-11T09:17:22Z</time>
      </trkpt>
      <trkpt lat="45.70248" lon="3.31165">
        <ele>402.4</ele>
        <time>2024-08-11T09:17:23Z</time>
      </trkpt>
      <trkpt lat="45.70244" lon="3.31163">
        <ele>402.4</ele>
        <time>2024-08-11T09:17:24Z</time>
      </trkpt>
      <trkpt lat="45.70241" lon="3.31161">
        <ele>402.6</ele>
        <time>2024-08-11T09:17:25Z</time>
      </trkpt>
      <trkpt lat="45.70237" lon="3.31159">
        <ele>402.6</ele>
        <time>2024-08-11T09:17:26Z</time>
      </trkpt>
      <trkpt lat="45.70234" lon="3.31157">
        <ele>402.8</ele>
        <time>2024-08-11T09:17:27Z</time>
      </trkpt>
      <trkpt lat="45.70231" lon="3.31155">
        <ele>402.8</ele>
        <time>2024-08-11T09:17:28Z</time>
      </trkpt>
      <trkpt lat="45.70228" lon="3.31154">
        <ele>403</ele>
        <time>2024-08-11T09:17:29Z</time>
      </trkpt>
      <trkpt lat="45.70225" lon="3.31152">
        <ele>403</ele>
        <time>2024-08-11T09:17:30Z</time>
      </trkpt>
      <trkpt lat="45.70222" lon="3.3115">
        <ele>403.2</ele>
        <time>2024-08-11T09:17:31Z</time>
      </trkpt>
      <trkpt lat="45.70218" lon="3.31148">
        <ele>403.4</ele>
        <time>2024-08-11T09:17:32Z</time>
      </trkpt>
      <trkpt lat="45.70215" lon="3.31146">
        <ele>403.6</ele>
        <time>2024-08-11T09:17:33Z</time>
      </trkpt>
      <trkpt lat="45.70211" lon="3.31143">
        <ele>403.8</ele>
        <time>2024-08-11T09:17:34Z</time>
      </trkpt>
      <trkpt lat="45.70208" lon="3.31141">
        <ele>403.8</ele>
        <time>2024-08-11T09:17:35Z</time>
      </trkpt>
      <trkpt lat="45.70205" lon="3.31138">
        <ele>404</ele>
        <time>2024-08-11T09:17:36Z</time>
      </trkpt>
      <trkpt lat="45.70202" lon="3.31135">
        <ele>404.2</ele>
        <time>2024-08-11T09:17:37Z</time>
      </trkpt>
      <trkpt lat="45.70198" lon="3.31132">
        <ele>404.4</ele>
        <time>2024-08-11T09:17:38Z</time>
      </trkpt>
      <trkpt lat="45.70195" lon="3.31129">
        <ele>404.6</ele>
        <time>2024-08-11T09:17:39Z</time>
      </trkpt>
      <trkpt lat="45.70192" lon="3.31126">
        <ele>404.6</ele>
        <time>2024-08-11T09:17:40Z</time>
      </trkpt>
      <trkpt lat="45.70188" lon="3.31124">
        <ele>404.8</ele>
        <time>2024-08-11T09:17:41Z</time>
      </trkpt>
      <trkpt lat="45.70185" lon="3.31121">
        <ele>404.8</ele>
        <time>2024-08-11T09:17:42Z</time>
      </trkpt>
      <trkpt lat="45.70182" lon="3.31118">
        <ele>405</ele>
        <time>2024-08-11T09:17:43Z</time>
      </trkpt>
      <trkpt lat="45.70179" lon="3.31115">
        <ele>405.2</ele>
        <time>2024-08-11T09:17:44Z</time>
      </trkpt>
      <trkpt lat="45.70177" lon="3.31112">
        <ele>405.4</ele>
        <time>2024-08-11T09:17:45Z</time>
      </trkpt>
      <trkpt lat="45.70174" lon="3.31109">
        <ele>405.6</ele>
        <time>2024-08-11T09:17:46Z</time>
      </trkpt>
      <trkpt lat="45.70172" lon="3.31107">
        <ele>405.8</ele>
        <time>2024-08-11T09:17:47Z</time>
      </trkpt>
      <trkpt lat="45.7017" lon="3.31104">
        <ele>406</ele>
        <time>2024-08-11T09:17:48Z</time>
      </trkpt>
      <trkpt lat="45.70168" lon="3.31101">
        <ele>406.2</ele>
        <time>2024-08-11T09:17:49Z</time>
      </trkpt>
      <trkpt lat="45.70165" lon="3.31098">
        <ele>406.2</ele>
        <time>2024-08-11T09:17:50Z</time>
      </trkpt>
      <trkpt lat="45.70163" lon="3.31095">
        <ele>406.4</ele>
        <time>2024-08-11T09:17:51Z</time>
      </trkpt>
      <trkpt lat="45.7016" lon="3.31092">
        <ele>406.6</ele>
        <time>2024-08-11T09:17:52Z</time>
      </trkpt>
      <trkpt lat="45.70157" lon="3.31088">
        <ele>406.8</ele>
        <time>2024-08-11T09:17:53Z</time>
      </trkpt>
      <trkpt lat="45.70155" lon="3.31085">
        <ele>407</ele>
        <time>2024-08-11T09:17:54Z</time>
      </trkpt>
      <trkpt lat="45.70153" lon="3.31081">
        <ele>407.2</ele>
        <time>2024-08-11T09:17:55Z</time>
      </trkpt>
      <trkpt lat="45.70151" lon="3.31078">
        <ele>407.2</ele>
        <time>2024-08-11T09:17:56Z</time>
      </trkpt>
      <trkpt lat="45.70149" lon="3.31074">
        <ele>407.6</ele>
        <time>2024-08-11T09:17:57Z</time>
      </trkpt>
      <trkpt lat="45.70147" lon="3.31071">
        <ele>407.6</ele>
        <time>2024-08-11T09:17:58Z</time>
      </trkpt>
      <trkpt lat="45.70145" lon="3.31067">
        <ele>408</ele>
        <time>2024-08-11T09:17:59Z</time>
      </trkpt>
      <trkpt lat="45.70143" lon="3.31064">
        <ele>408.2</ele>
        <time>2024-08-11T09:18:00Z</time>
      </trkpt>
      <trkpt lat="45.70141" lon="3.31061">
        <ele>408.2</ele>
        <time>2024-08-11T09:18:01Z</time>
      </trkpt>
      <trkpt lat="45.70139" lon="3.31058">
        <ele>408.4</ele>
        <time>2024-08-11T09:18:02Z</time>
      </trkpt>
      <trkpt lat="45.70137" lon="3.31054">
        <ele>408.6</ele>
        <time>2024-08-11T09:18:03Z</time>
      </trkpt>
      <trkpt lat="45.70135" lon="3.31051">
        <ele>408.8</ele>
        <time>2024-08-11T09:18:04Z</time>
      </trkpt>
      <trkpt lat="45.70134" lon="3.31048">
        <ele>408.8</ele>
        <time>2024-08-11T09:18:05Z</time>
      </trkpt>
      <trkpt lat="45.70132" lon="3.31044">
        <ele>409.2</ele>
        <time>2024-08-11T09:18:06Z</time>
      </trkpt>
      <trkpt lat="45.7013" lon="3.31041">
        <ele>409.2</ele>
        <time>2024-08-11T09:18:07Z</time>
      </trkpt>
      <trkpt lat="45.70128" lon="3.31037">
        <ele>409.4</ele>
        <time>2024-08-11T09:18:08Z</time>
      </trkpt>
      <trkpt lat="45.70126" lon="3.31033">
        <ele>409.6</ele>
        <time>2024-08-11T09:18:09Z</time>
      </trkpt>
      <trkpt lat="45.70125" lon="3.3103">
        <ele>409.8</ele>
        <time>2024-08-11T09:18:10Z</time>
      </trkpt>
      <trkpt lat="45.70124" lon="3.31027">
        <ele>410</ele>
        <time>2024-08-11T09:18:11Z</time>
      </trkpt>
      <trkpt lat="45.70122" lon="3.31023">
        <ele>410</ele>
        <time>2024-08-11T09:18:12Z</time>
      </trkpt>
      <trkpt lat="45.70121" lon="3.31019">
        <ele>410.4</ele>
        <time>2024-08-11T09:18:13Z</time>
      </trkpt>
      <trkpt lat="45.7012" lon="3.31016">
        <ele>410.6</ele>
        <time>2024-08-11T09:18:14Z</time>
      </trkpt>
      <trkpt lat="45.70118" lon="3.31012">
        <ele>410.6</ele>
        <time>2024-08-11T09:18:15Z</time>
      </trkpt>
      <trkpt lat="45.70117" lon="3.31008">
        <ele>410.8</ele>
        <time>2024-08-11T09:18:16Z</time>
      </trkpt>
      <trkpt lat="45.70115" lon="3.31004">
        <ele>411</ele>
        <time>2024-08-11T09:18:17Z</time>
      </trkpt>
      <trkpt lat="45.70114" lon="3.31">
        <ele>411.2</ele>
        <time>2024-08-11T09:18:18Z</time>
      </trkpt>
      <trkpt lat="45.70112" lon="3.30995">
        <ele>411.4</ele>
        <time>2024-08-11T09:18:19Z</time>
      </trkpt>
      <trkpt lat="45.70111" lon="3.30991">
        <ele>411.6</ele>
        <time>2024-08-11T09:18:20Z</time>
      </trkpt>
      <trkpt lat="45.70109" lon="3.30987">
        <ele>411.8</ele>
        <time>2024-08-11T09:18:21Z</time>
      </trkpt>
      <trkpt lat="45.70108" lon="3.30983">
        <ele>412</ele>
        <time>2024-08-11T09:18:22Z</time>
      </trkpt>
      <trkpt lat="45.70106" lon="3.30979">
        <ele>412.2</ele>
        <time>2024-08-11T09:18:23Z</time>
      </trkpt>
      <trkpt lat="45.70105" lon="3.30975">
        <ele>412.2</ele>
        <time>2024-08-11T09:18:24Z</time>
      </trkpt>
      <trkpt lat="45.70105" lon="3.30971">
        <ele>412.4</ele>
        <time>2024-08-11T09:18:25Z</time>
      </trkpt>
      <trkpt lat="45.70104" lon="3.30967">
        <ele>412.4</ele>
        <time>2024-08-11T09:18:26Z</time>
      </trkpt>
      <trkpt lat="45.70103" lon="3.30964">
        <ele>412.6</ele>
        <time>2024-08-11T09:18:27Z</time>
      </trkpt>
      <trkpt lat="45.70102" lon="3.3096">
        <ele>412.8</ele>
        <time>2024-08-11T09:18:28Z</time>
      </trkpt>
      <trkpt lat="45.70101" lon="3.30956">
        <ele>412.8</ele>
        <time>2024-08-11T09:18:29Z</time>
      </trkpt>
      <trkpt lat="45.70101" lon="3.30953">
        <ele>413</ele>
        <time>2024-08-11T09:18:30Z</time>
      </trkpt>
      <trkpt lat="45.701" lon="3.30949">
        <ele>413.2</ele>
        <time>2024-08-11T09:18:31Z</time>
      </trkpt>
      <trkpt lat="45.70099" lon="3.30945">
        <ele>413.2</ele>
        <time>2024-08-11T09:18:32Z</time>
      </trkpt>
      <trkpt lat="45.70098" lon="3.30941">
        <ele>413.4</ele>
        <time>2024-08-11T09:18:33Z</time>
      </trkpt>
      <trkpt lat="45.70097" lon="3.30937">
        <ele>413.6</ele>
        <time>2024-08-11T09:18:34Z</time>
      </trkpt>
      <trkpt lat="45.70096" lon="3.30933">
        <ele>413.8</ele>
        <time>2024-08-11T09:18:35Z</time>
      </trkpt>
      <trkpt lat="45.70095" lon="3.30928">
        <ele>414</ele>
        <time>2024-08-11T09:18:36Z</time>
      </trkpt>
      <trkpt lat="45.70094" lon="3.30924">
        <ele>414.2</ele>
        <time>2024-08-11T09:18:37Z</time>
      </trkpt>
      <trkpt lat="45.70093" lon="3.30919">
        <ele>414.2</ele>
        <time>2024-08-11T09:18:38Z</time>
      </trkpt>
      <trkpt lat="45.70092" lon="3.30915">
        <ele>414.4</ele>
        <time>2024-08-11T09:18:39Z</time>
      </trkpt>
      <trkpt lat="45.70092" lon="3.30911">
        <ele>414.6</ele>
        <time>2024-08-11T09:18:40Z</time>
      </trkpt>
      <trkpt lat="45.70091" lon="3.30907">
        <ele>414.8</ele>
        <time>2024-08-11T09:18:41Z</time>
      </trkpt>
      <trkpt lat="45.7009" lon="3.30903">
        <ele>415</ele>
        <time>2024-08-11T09:18:42Z</time>
      </trkpt>
      <trkpt lat="45.7009" lon="3.30897">
        <ele>415.2</ele>
        <time>2024-08-11T09:18:43Z</time>
      </trkpt>
      <trkpt lat="45.7009" lon="3.30893">
        <ele>415.2</ele>
        <time>2024-08-11T09:18:44Z</time>
      </trkpt>
      <trkpt lat="45.7009" lon="3.30889">
        <ele>415.4</ele>
        <time>2024-08-11T09:18:45Z</time>
      </trkpt>
      <trkpt lat="45.7009" lon="3.30885">
        <ele>415.6</ele>
        <time>2024-08-11T09:18:46Z</time>
      </trkpt>
      <trkpt lat="45.7009" lon="3.3088">
        <ele>415.8</ele>
        <time>2024-08-11T09:18:47Z</time>
      </trkpt>
      <trkpt lat="45.70091" lon="3.30876">
        <ele>416.2</ele>
        <time>2024-08-11T09:18:48Z</time>
      </trkpt>
      <trkpt lat="45.70091" lon="3.30872">
        <ele>416.2</ele>
        <time>2024-08-11T09:18:49Z</time>
      </trkpt>
      <trkpt lat="45.70091" lon="3.30867">
        <ele>416.4</ele>
        <time>2024-08-11T09:18:50Z</time>
      </trkpt>
      <trkpt lat="45.70091" lon="3.30863">
        <ele>416.8</ele>
        <time>2024-08-11T09:18:51Z</time>
      </trkpt>
      <trkpt lat="45.70091" lon="3.30859">
        <ele>416.8</ele>
        <time>2024-08-11T09:18:52Z</time>
      </trkpt>
      <trkpt lat="45.70092" lon="3.30855">
        <ele>417.2</ele>
        <time>2024-08-11T09:18:53Z</time>
      </trkpt>
      <trkpt lat="45.70092" lon="3.30851">
        <ele>417.4</ele>
        <time>2024-08-11T09:18:54Z</time>
      </trkpt>
      <trkpt lat="45.70092" lon="3.30847">
        <ele>417.4</ele>
        <time>2024-08-11T09:18:55Z</time>
      </trkpt>
      <trkpt lat="45.70092" lon="3.30843">
        <ele>417.6</ele>
        <time>2024-08-11T09:18:56Z</time>
      </trkpt>
      <trkpt lat="45.70092" lon="3.30839">
        <ele>417.8</ele>
        <time>2024-08-11T09:18:57Z</time>
      </trkpt>
      <trkpt lat="45.70092" lon="3.30835">
        <ele>418</ele>
        <time>2024-08-11T09:18:58Z</time>
      </trkpt>
      <trkpt lat="45.70093" lon="3.30831">
        <ele>418.2</ele>
        <time>2024-08-11T09:18:59Z</time>
      </trkpt>
      <trkpt lat="45.70093" lon="3.30827">
        <ele>418.4</ele>
        <time>2024-08-11T09:19:00Z</time>
      </trkpt>
      <trkpt lat="45.70093" lon="3.30823">
        <ele>418.6</ele>
        <time>2024-08-11T09:19:01Z</time>
      </trkpt>
      <trkpt lat="45.70093" lon="3.30819">
        <ele>418.8</ele>
        <time>2024-08-11T09:19:02Z</time>
      </trkpt>
      <trkpt lat="45.70093" lon="3.30815">
        <ele>419</ele>
        <time>2024-08-11T09:19:03Z</time>
      </trkpt>
      <trkpt lat="45.70094" lon="3.30811">
        <ele>419</ele>
        <time>2024-08-11T09:19:04Z</time>
      </trkpt>
      <trkpt lat="45.70094" lon="3.30807">
        <ele>419.4</ele>
        <time>2024-08-11T09:19:05Z</time>
      </trkpt>
      <trkpt lat="45.70094" lon="3.30804">
        <ele>419.6</ele>
        <time>2024-08-11T09:19:06Z</time>
      </trkpt>
      <trkpt lat="45.70095" lon="3.308">
        <ele>419.6</ele>
        <time>2024-08-11T09:19:07Z</time>
      </trkpt>
      <trkpt lat="45.70095" lon="3.30797">
        <ele>419.8</ele>
        <time>2024-08-11T09:19:08Z</time>
      </trkpt>
      <trkpt lat="45.70096" lon="3.30793">
        <ele>420</ele>
        <time>2024-08-11T09:19:09Z</time>
      </trkpt>
      <trkpt lat="45.70096" lon="3.30788">
        <ele>420.2</ele>
        <time>2024-08-11T09:19:10Z</time>
      </trkpt>
      <trkpt lat="45.70097" lon="3.30784">
        <ele>420.4</ele>
        <time>2024-08-11T09:19:11Z</time>
      </trkpt>
      <trkpt lat="45.70097" lon="3.30781">
        <ele>420.6</ele>
        <time>2024-08-11T09:19:12Z</time>
      </trkpt>
      <trkpt lat="45.70097" lon="3.30777">
        <ele>420.8</ele>
        <time>2024-08-11T09:19:13Z</time>
      </trkpt>
      <trkpt lat="45.70098" lon="3.30774">
        <ele>421</ele>
        <time>2024-08-11T09:19:14Z</time>
      </trkpt>
      <trkpt lat="45.70098" lon="3.3077">
        <ele>421.2</ele>
        <time>2024-08-11T09:19:15Z</time>
      </trkpt>
      <trkpt lat="45.70099" lon="3.30766">
        <ele>421.4</ele>
        <time>2024-08-11T09:19:16Z</time>
      </trkpt>
      <trkpt lat="45.70099" lon="3.30762">
        <ele>421.6</ele>
        <time>2024-08-11T09:19:17Z</time>
      </trkpt>
      <trkpt lat="45.70099" lon="3.30759">
        <ele>421.8</ele>
        <time>2024-08-11T09:19:18Z</time>
      </trkpt>
      <trkpt lat="45.701" lon="3.30755">
        <ele>422</ele>
        <time>2024-08-11T09:19:19Z</time>
      </trkpt>
      <trkpt lat="45.701" lon="3.30751">
        <ele>422.2</ele>
        <time>2024-08-11T09:19:20Z</time>
      </trkpt>
      <trkpt lat="45.70101" lon="3.30748">
        <ele>422.4</ele>
        <time>2024-08-11T09:19:21Z</time>
      </trkpt>
      <trkpt lat="45.70101" lon="3.30745">
        <ele>422.6</ele>
        <time>2024-08-11T09:19:22Z</time>
      </trkpt>
      <trkpt lat="45.70101" lon="3.30741">
        <ele>422.8</ele>
        <time>2024-08-11T09:19:23Z</time>
      </trkpt>
      <trkpt lat="45.70102" lon="3.30737">
        <ele>423</ele>
        <time>2024-08-11T09:19:24Z</time>
      </trkpt>
      <trkpt lat="45.70102" lon="3.30733">
        <ele>423.2</ele>
        <time>2024-08-11T09:19:25Z</time>
      </trkpt>
      <trkpt lat="45.70103" lon="3.3073">
        <ele>423.4</ele>
        <time>2024-08-11T09:19:26Z</time>
      </trkpt>
      <trkpt lat="45.70103" lon="3.30727">
        <ele>423.6</ele>
        <time>2024-08-11T09:19:27Z</time>
      </trkpt>
      <trkpt lat="45.70103" lon="3.30723">
        <ele>423.8</ele>
        <time>2024-08-11T09:19:28Z</time>
      </trkpt>
      <trkpt lat="45.70104" lon="3.30719">
        <ele>423.8</ele>
        <time>2024-08-11T09:19:29Z</time>
      </trkpt>
      <trkpt lat="45.70104" lon="3.30715">
        <ele>424</ele>
        <time>2024-08-11T09:19:30Z</time>
      </trkpt>
      <trkpt lat="45.70104" lon="3.30712">
        <ele>424.2</ele>
        <time>2024-08-11T09:19:31Z</time>
      </trkpt>
      <trkpt lat="45.70104" lon="3.30709">
        <ele>424.4</ele>
        <time>2024-08-11T09:19:32Z</time>
      </trkpt>
      <trkpt lat="45.70104" lon="3.30706">
        <ele>424.6</ele>
        <time>2024-08-11T09:19:33Z</time>
      </trkpt>
      <trkpt lat="45.70104" lon="3.30703">
        <ele>424.8</ele>
        <time>2024-08-11T09:19:34Z</time>
      </trkpt>
      <trkpt lat="45.70104" lon="3.307">
        <ele>425</ele>
        <time>2024-08-11T09:19:35Z</time>
      </trkpt>
      <trkpt lat="45.70104" lon="3.30696">
        <ele>425.2</ele>
        <time>2024-08-11T09:19:36Z</time>
      </trkpt>
      <trkpt lat="45.70103" lon="3.30693">
        <ele>425.4</ele>
        <time>2024-08-11T09:19:37Z</time>
      </trkpt>
      <trkpt lat="45.70103" lon="3.30689">
        <ele>425.4</ele>
        <time>2024-08-11T09:19:38Z</time>
      </trkpt>
      <trkpt lat="45.70103" lon="3.30686">
        <ele>425.6</ele>
        <time>2024-08-11T09:19:39Z</time>
      </trkpt>
      <trkpt lat="45.70103" lon="3.30682">
        <ele>425.8</ele>
        <time>2024-08-11T09:19:40Z</time>
      </trkpt>
      <trkpt lat="45.70103" lon="3.30678">
        <ele>426</ele>
        <time>2024-08-11T09:19:41Z</time>
      </trkpt>
      <trkpt lat="45.70102" lon="3.30675">
        <ele>426.2</ele>
        <time>2024-08-11T09:19:42Z</time>
      </trkpt>
      <trkpt lat="45.70102" lon="3.30671">
        <ele>426.4</ele>
        <time>2024-08-11T09:19:43Z</time>
      </trkpt>
      <trkpt lat="45.70102" lon="3.30668">
        <ele>426.6</ele>
        <time>2024-08-11T09:19:44Z</time>
      </trkpt>
      <trkpt lat="45.70102" lon="3.30664">
        <ele>426.8</ele>
        <time>2024-08-11T09:19:45Z</time>
      </trkpt>
      <trkpt lat="45.70102" lon="3.3066">
        <ele>427</ele>
        <time>2024-08-11T09:19:46Z</time>
      </trkpt>
      <trkpt lat="45.70102" lon="3.30657">
        <ele>427.2</ele>
        <time>2024-08-11T09:19:47Z</time>
      </trkpt>
      <trkpt lat="45.70101" lon="3.30654">
        <ele>427.2</ele>
        <time>2024-08-11T09:19:48Z</time>
      </trkpt>
      <trkpt lat="45.70101" lon="3.3065">
        <ele>427.4</ele>
        <time>2024-08-11T09:19:49Z</time>
      </trkpt>
      <trkpt lat="45.70101" lon="3.30646">
        <ele>427.6</ele>
        <time>2024-08-11T09:19:50Z</time>
      </trkpt>
      <trkpt lat="45.70101" lon="3.30642">
        <ele>427.8</ele>
        <time>2024-08-11T09:19:51Z</time>
      </trkpt>
      <trkpt lat="45.70101" lon="3.30638">
        <ele>428</ele>
        <time>2024-08-11T09:19:52Z</time>
      </trkpt>
      <trkpt lat="45.70101" lon="3.30635">
        <ele>428</ele>
        <time>2024-08-11T09:19:53Z</time>
      </trkpt>
      <trkpt lat="45.701" lon="3.30632">
        <ele>428.2</ele>
        <time>2024-08-11T09:19:54Z</time>
      </trkpt>
      <trkpt lat="45.701" lon="3.30628">
        <ele>428.4</ele>
        <time>2024-08-11T09:19:55Z</time>
      </trkpt>
      <trkpt lat="45.701" lon="3.30625">
        <ele>428.6</ele>
        <time>2024-08-11T09:19:56Z</time>
      </trkpt>
      <trkpt lat="45.70099" lon="3.30621">
        <ele>428.8</ele>
        <time>2024-08-11T09:19:57Z</time>
      </trkpt>
      <trkpt lat="45.70098" lon="3.30618">
        <ele>429</ele>
        <time>2024-08-11T09:19:58Z</time>
      </trkpt>
      <trkpt lat="45.70097" lon="3.30614">
        <ele>429.2</ele>
        <time>2024-08-11T09:19:59Z</time>
      </trkpt>
      <trkpt lat="45.70097" lon="3.30611">
        <ele>429.2</ele>
        <time>2024-08-11T09:20:00Z</time>
      </trkpt>
      <trkpt lat="45.70096" lon="3.30608">
        <ele>429.4</ele>
        <time>2024-08-11T09:20:01Z</time>
      </trkpt>
      <trkpt lat="45.70095" lon="3.30605">
        <ele>429.6</ele>
        <time>2024-08-11T09:20:02Z</time>
      </trkpt>
      <trkpt lat="45.70094" lon="3.30601">
        <ele>429.8</ele>
        <time>2024-08-11T09:20:03Z</time>
      </trkpt>
      <trkpt lat="45.70093" lon="3.30598">
        <ele>430</ele>
        <time>2024-08-11T09:20:04Z</time>
      </trkpt>
      <trkpt lat="45.70092" lon="3.30595">
        <ele>430.2</ele>
        <time>2024-08-11T09:20:05Z</time>
      </trkpt>
      <trkpt lat="45.70091" lon="3.30591">
        <ele>430.4</ele>
        <time>2024-08-11T09:20:06Z</time>
      </trkpt>
      <trkpt lat="45.7009" lon="3.30588">
        <ele>430.6</ele>
        <time>2024-08-11T09:20:07Z</time>
      </trkpt>
      <trkpt lat="45.7009" lon="3.30584">
        <ele>430.6</ele>
        <time>2024-08-11T09:20:08Z</time>
      </trkpt>
      <trkpt lat="45.70089" lon="3.30581">
        <ele>430.8</ele>
        <time>2024-08-11T09:20:09Z</time>
      </trkpt>
      <trkpt lat="45.70088" lon="3.30577">
        <ele>431</ele>
        <time>2024-08-11T09:20:10Z</time>
      </trkpt>
      <trkpt lat="45.70087" lon="3.30574">
        <ele>431</ele>
        <time>2024-08-11T09:20:11Z</time>
      </trkpt>
      <trkpt lat="45.70086" lon="3.3057">
        <ele>431.2</ele>
        <time>2024-08-11T09:20:12Z</time>
      </trkpt>
      <trkpt lat="45.70085" lon="3.30566">
        <ele>431.4</ele>
        <time>2024-08-11T09:20:13Z</time>
      </trkpt>
      <trkpt lat="45.70084" lon="3.30563">
        <ele>431.6</ele>
        <time>2024-08-11T09:20:14Z</time>
      </trkpt>
      <trkpt lat="45.70083" lon="3.30559">
        <ele>431.8</ele>
        <time>2024-08-11T09:20:15Z</time>
      </trkpt>
      <trkpt lat="45.70082" lon="3.30555">
        <ele>432</ele>
        <time>2024-08-11T09:20:16Z</time>
      </trkpt>
      <trkpt lat="45.70081" lon="3.30552">
        <ele>432.2</ele>
        <time>2024-08-11T09:20:17Z</time>
      </trkpt>
      <trkpt lat="45.70079" lon="3.30547">
        <ele>432.4</ele>
        <time>2024-08-11T09:20:18Z</time>
      </trkpt>
      <trkpt lat="45.70078" lon="3.30544">
        <ele>432.6</ele>
        <time>2024-08-11T09:20:19Z</time>
      </trkpt>
      <trkpt lat="45.70076" lon="3.3054">
        <ele>432.8</ele>
        <time>2024-08-11T09:20:20Z</time>
      </trkpt>
      <trkpt lat="45.70075" lon="3.30537">
        <ele>432.8</ele>
        <time>2024-08-11T09:20:21Z</time>
      </trkpt>
      <trkpt lat="45.70074" lon="3.30533">
        <ele>433</ele>
        <time>2024-08-11T09:20:22Z</time>
      </trkpt>
      <trkpt lat="45.70072" lon="3.3053">
        <ele>433.2</ele>
        <time>2024-08-11T09:20:23Z</time>
      </trkpt>
      <trkpt lat="45.70071" lon="3.30526">
        <ele>433.2</ele>
        <time>2024-08-11T09:20:24Z</time>
      </trkpt>
      <trkpt lat="45.70069" lon="3.30522">
        <ele>433.4</ele>
        <time>2024-08-11T09:20:25Z</time>
      </trkpt>
      <trkpt lat="45.70068" lon="3.30518">
        <ele>433.6</ele>
        <time>2024-08-11T09:20:26Z</time>
      </trkpt>
      <trkpt lat="45.70066" lon="3.30515">
        <ele>433.8</ele>
        <time>2024-08-11T09:20:27Z</time>
      </trkpt>
      <trkpt lat="45.70065" lon="3.30511">
        <ele>434</ele>
        <time>2024-08-11T09:20:28Z</time>
      </trkpt>
      <trkpt lat="45.70063" lon="3.30506">
        <ele>434</ele>
        <time>2024-08-11T09:20:29Z</time>
      </trkpt>
      <trkpt lat="45.70062" lon="3.30502">
        <ele>434.2</ele>
        <time>2024-08-11T09:20:30Z</time>
      </trkpt>
      <trkpt lat="45.7006" lon="3.30498">
        <ele>434.4</ele>
        <time>2024-08-11T09:20:31Z</time>
      </trkpt>
      <trkpt lat="45.70058" lon="3.30494">
        <ele>434.6</ele>
        <time>2024-08-11T09:20:32Z</time>
      </trkpt>
      <trkpt lat="45.70057" lon="3.3049">
        <ele>434.8</ele>
        <time>2024-08-11T09:20:33Z</time>
      </trkpt>
      <trkpt lat="45.70055" lon="3.30486">
        <ele>434.8</ele>
        <time>2024-08-11T09:20:34Z</time>
      </trkpt>
      <trkpt lat="45.70054" lon="3.30482">
        <ele>435</ele>
        <time>2024-08-11T09:20:35Z</time>
      </trkpt>
      <trkpt lat="45.70052" lon="3.30478">
        <ele>435.2</ele>
        <time>2024-08-11T09:20:36Z</time>
      </trkpt>
      <trkpt lat="45.70051" lon="3.30474">
        <ele>435.4</ele>
        <time>2024-08-11T09:20:37Z</time>
      </trkpt>
      <trkpt lat="45.70049" lon="3.3047">
        <ele>435.4</ele>
        <time>2024-08-11T09:20:38Z</time>
      </trkpt>
      <trkpt lat="45.70047" lon="3.30465">
        <ele>435.6</ele>
        <time>2024-08-11T09:20:39Z</time>
      </trkpt>
      <trkpt lat="45.70045" lon="3.30461">
        <ele>435.8</ele>
        <time>2024-08-11T09:20:40Z</time>
      </trkpt>
      <trkpt lat="45.70044" lon="3.30456">
        <ele>435.8</ele>
        <time>2024-08-11T09:20:41Z</time>
      </trkpt>
      <trkpt lat="45.70042" lon="3.30451">
        <ele>436</ele>
        <time>2024-08-11T09:20:42Z</time>
      </trkpt>
      <trkpt lat="45.7004" lon="3.30447">
        <ele>436.2</ele>
        <time>2024-08-11T09:20:43Z</time>
      </trkpt>
      <trkpt lat="45.70038" lon="3.30442">
        <ele>436.2</ele>
        <time>2024-08-11T09:20:44Z</time>
      </trkpt>
      <trkpt lat="45.70036" lon="3.30436">
        <ele>436.4</ele>
        <time>2024-08-11T09:20:45Z</time>
      </trkpt>
      <trkpt lat="45.70034" lon="3.30431">
        <ele>436.4</ele>
        <time>2024-08-11T09:20:46Z</time>
      </trkpt>
      <trkpt lat="45.70032" lon="3.30426">
        <ele>436.6</ele>
        <time>2024-08-11T09:20:47Z</time>
      </trkpt>
      <trkpt lat="45.70029" lon="3.30421">
        <ele>436.8</ele>
        <time>2024-08-11T09:20:48Z</time>
      </trkpt>
      <trkpt lat="45.70027" lon="3.30415">
        <ele>436.8</ele>
        <time>2024-08-11T09:20:49Z</time>
      </trkpt>
      <trkpt lat="45.70025" lon="3.3041">
        <ele>437</ele>
        <time>2024-08-11T09:20:50Z</time>
      </trkpt>
      <trkpt lat="45.70023" lon="3.30404">
        <ele>437.2</ele>
        <time>2024-08-11T09:20:51Z</time>
      </trkpt>
      <trkpt lat="45.7002" lon="3.30398">
        <ele>437.2</ele>
        <time>2024-08-11T09:20:52Z</time>
      </trkpt>
      <trkpt lat="45.70018" lon="3.30392">
        <ele>437.2</ele>
        <time>2024-08-11T09:20:53Z</time>
      </trkpt>
      <trkpt lat="45.70015" lon="3.30385">
        <ele>437.4</ele>
        <time>2024-08-11T09:20:54Z</time>
      </trkpt>
      <trkpt lat="45.70013" lon="3.30379">
        <ele>437.4</ele>
        <time>2024-08-11T09:20:55Z</time>
      </trkpt>
      <trkpt lat="45.7001" lon="3.30372">
        <ele>437.6</ele>
        <time>2024-08-11T09:20:56Z</time>
      </trkpt>
      <trkpt lat="45.70007" lon="3.30365">
        <ele>437.6</ele>
        <time>2024-08-11T09:20:57Z</time>
      </trkpt>
      <trkpt lat="45.70004" lon="3.30357">
        <ele>437.8</ele>
        <time>2024-08-11T09:20:58Z</time>
      </trkpt>
      <trkpt lat="45.70001" lon="3.3035">
        <ele>437.8</ele>
        <time>2024-08-11T09:20:59Z</time>
      </trkpt>
      <trkpt lat="45.69998" lon="3.30342">
        <ele>437.8</ele>
        <time>2024-08-11T09:21:00Z</time>
      </trkpt>
      <trkpt lat="45.69995" lon="3.30334">
        <ele>438</ele>
        <time>2024-08-11T09:21:01Z</time>
      </trkpt>
      <trkpt lat="45.69992" lon="3.30327">
        <ele>438</ele>
        <time>2024-08-11T09:21:02Z</time>
      </trkpt>
      <trkpt lat="45.69988" lon="3.30319">
        <ele>438.2</ele>
        <time>2024-08-11T09:21:03Z</time>
      </trkpt>
      <trkpt lat="45.69985" lon="3.30311">
        <ele>438.2</ele>
        <time>2024-08-11T09:21:04Z</time>
      </trkpt>
      <trkpt lat="45.69982" lon="3.30303">
        <ele>438.2</ele>
        <time>2024-08-11T09:21:05Z</time>
      </trkpt>
      <trkpt lat="45.69979" lon="3.30296">
        <ele>438.4</ele>
        <time>2024-08-11T09:21:06Z</time>
      </trkpt>
      <trkpt lat="45.69976" lon="3.30288">
        <ele>438.4</ele>
        <time>2024-08-11T09:21:07Z</time>
      </trkpt>
      <trkpt lat="45.69973" lon="3.30281">
        <ele>438.6</ele>
        <time>2024-08-11T09:21:08Z</time>
      </trkpt>
      <trkpt lat="45.6997" lon="3.30274">
        <ele>438.6</ele>
        <time>2024-08-11T09:21:09Z</time>
      </trkpt>
      <trkpt lat="45.69968" lon="3.30267">
        <ele>438.6</ele>
        <time>2024-08-11T09:21:10Z</time>
      </trkpt>
      <trkpt lat="45.69965" lon="3.3026">
        <ele>438.8</ele>
        <time>2024-08-11T09:21:11Z</time>
      </trkpt>
      <trkpt lat="45.69962" lon="3.30254">
        <ele>438.8</ele>
        <time>2024-08-11T09:21:12Z</time>
      </trkpt>
      <trkpt lat="45.6996" lon="3.30247">
        <ele>438.8</ele>
        <time>2024-08-11T09:21:13Z</time>
      </trkpt>
      <trkpt lat="45.69957" lon="3.30241">
        <ele>439</ele>
        <time>2024-08-11T09:21:14Z</time>
      </trkpt>
      <trkpt lat="45.69955" lon="3.30235">
        <ele>439</ele>
        <time>2024-08-11T09:21:15Z</time>
      </trkpt>
      <trkpt lat="45.69953" lon="3.3023">
        <ele>439</ele>
        <time>2024-08-11T09:21:16Z</time>
      </trkpt>
      <trkpt lat="45.69951" lon="3.30224">
        <ele>439.2</ele>
        <time>2024-08-11T09:21:17Z</time>
      </trkpt>
      <trkpt lat="45.69948" lon="3.30219">
        <ele>439.2</ele>
        <time>2024-08-11T09:21:18Z</time>
      </trkpt>
      <trkpt lat="45.69946" lon="3.30215">
        <ele>439.2</ele>
        <time>2024-08-11T09:21:19Z</time>
      </trkpt>
      <trkpt lat="45.69944" lon="3.3021">
        <ele>439.4</ele>
        <time>2024-08-11T09:21:20Z</time>
      </trkpt>
      <trkpt lat="45.69942" lon="3.30206">
        <ele>439.6</ele>
        <time>2024-08-11T09:21:21Z</time>
      </trkpt>
      <trkpt lat="45.69939" lon="3.30202">
        <ele>439.6</ele>
        <time>2024-08-11T09:21:22Z</time>
      </trkpt>
      <trkpt lat="45.69937" lon="3.30198">
        <ele>439.8</ele>
        <time>2024-08-11T09:21:23Z</time>
      </trkpt>
      <trkpt lat="45.69935" lon="3.30194">
        <ele>439.8</ele>
        <time>2024-08-11T09:21:24Z</time>
      </trkpt>
      <trkpt lat="45.69934" lon="3.3019">
        <ele>440</ele>
        <time>2024-08-11T09:21:25Z</time>
      </trkpt>
      <trkpt lat="45.69932" lon="3.30186">
        <ele>440</ele>
        <time>2024-08-11T09:21:26Z</time>
      </trkpt>
      <trkpt lat="45.6993" lon="3.30182">
        <ele>440.2</ele>
        <time>2024-08-11T09:21:27Z</time>
      </trkpt>
      <trkpt lat="45.69928" lon="3.30178">
        <ele>440.4</ele>
        <time>2024-08-11T09:21:28Z</time>
      </trkpt>
      <trkpt lat="45.69926" lon="3.30175">
        <ele>440.4</ele>
        <time>2024-08-11T09:21:29Z</time>
      </trkpt>
      <trkpt lat="45.69924" lon="3.30171">
        <ele>440.4</ele>
        <time>2024-08-11T09:21:30Z</time>
      </trkpt>
      <trkpt lat="45.69923" lon="3.30168">
        <ele>440.6</ele>
        <time>2024-08-11T09:21:31Z</time>
      </trkpt>
      <trkpt lat="45.69921" lon="3.30164">
        <ele>440.8</ele>
        <time>2024-08-11T09:21:32Z</time>
      </trkpt>
      <trkpt lat="45.69919" lon="3.30161">
        <ele>440.8</ele>
        <time>2024-08-11T09:21:33Z</time>
      </trkpt>
      <trkpt lat="45.69918" lon="3.30157">
        <ele>441</ele>
        <time>2024-08-11T09:21:34Z</time>
      </trkpt>
      <trkpt lat="45.69916" lon="3.30154">
        <ele>441</ele>
        <time>2024-08-11T09:21:35Z</time>
      </trkpt>
      <trkpt lat="45.69914" lon="3.3015">
        <ele>441.2</ele>
        <time>2024-08-11T09:21:36Z</time>
      </trkpt>
      <trkpt lat="45.69912" lon="3.30146">
        <ele>441.2</ele>
        <time>2024-08-11T09:21:37Z</time>
      </trkpt>
      <trkpt lat="45.69911" lon="3.30143">
        <ele>441.4</ele>
        <time>2024-08-11T09:21:38Z</time>
      </trkpt>
      <trkpt lat="45.69909" lon="3.30139">
        <ele>441.6</ele>
        <time>2024-08-11T09:21:39Z</time>
      </trkpt>
      <trkpt lat="45.69907" lon="3.30136">
        <ele>441.6</ele>
        <time>2024-08-11T09:21:40Z</time>
      </trkpt>
      <trkpt lat="45.69905" lon="3.30132">
        <ele>441.8</ele>
        <time>2024-08-11T09:21:41Z</time>
      </trkpt>
      <trkpt lat="45.69904" lon="3.30129">
        <ele>441.8</ele>
        <time>2024-08-11T09:21:42Z</time>
      </trkpt>
      <trkpt lat="45.69902" lon="3.30125">
        <ele>442</ele>
        <time>2024-08-11T09:21:43Z</time>
      </trkpt>
      <trkpt lat="45.699" lon="3.30122">
        <ele>442</ele>
        <time>2024-08-11T09:21:44Z</time>
      </trkpt>
      <trkpt lat="45.69899" lon="3.30119">
        <ele>442.2</ele>
        <time>2024-08-11T09:21:45Z</time>
      </trkpt>
      <trkpt lat="45.69897" lon="3.30116">
        <ele>442.4</ele>
        <time>2024-08-11T09:21:46Z</time>
      </trkpt>
      <trkpt lat="45.69896" lon="3.30112">
        <ele>442.6</ele>
        <time>2024-08-11T09:21:47Z</time>
      </trkpt>
      <trkpt lat="45.69894" lon="3.30109">
        <ele>442.6</ele>
        <time>2024-08-11T09:21:48Z</time>
      </trkpt>
      <trkpt lat="45.69892" lon="3.30107">
        <ele>442.8</ele>
        <time>2024-08-11T09:21:49Z</time>
      </trkpt>
      <trkpt lat="45.6989" lon="3.30104">
        <ele>442.8</ele>
        <time>2024-08-11T09:21:50Z</time>
      </trkpt>
      <trkpt lat="45.69888" lon="3.30102">
        <ele>443</ele>
        <time>2024-08-11T09:21:51Z</time>
      </trkpt>
      <trkpt lat="45.69886" lon="3.30099">
        <ele>443.2</ele>
        <time>2024-08-11T09:21:52Z</time>
      </trkpt>
      <trkpt lat="45.69884" lon="3.30097">
        <ele>443.4</ele>
        <time>2024-08-11T09:21:53Z</time>
      </trkpt>
      <trkpt lat="45.69881" lon="3.30094">
        <ele>443.4</ele>
        <time>2024-08-11T09:21:54Z</time>
      </trkpt>
      <trkpt lat="45.69879" lon="3.30091">
        <ele>443.6</ele>
        <time>2024-08-11T09:21:55Z</time>
      </trkpt>
      <trkpt lat="45.69877" lon="3.30089">
        <ele>443.8</ele>
        <time>2024-08-11T09:21:56Z</time>
      </trkpt>
      <trkpt lat="45.69875" lon="3.30086">
        <ele>444</ele>
        <time>2024-08-11T09:21:57Z</time>
      </trkpt>
      <trkpt lat="45.69873" lon="3.30084">
        <ele>444</ele>
        <time>2024-08-11T09:21:58Z</time>
      </trkpt>
      <trkpt lat="45.69871" lon="3.30081">
        <ele>444.2</ele>
        <time>2024-08-11T09:21:59Z</time>
      </trkpt>
      <trkpt lat="45.69869" lon="3.30079">
        <ele>444.4</ele>
        <time>2024-08-11T09:22:00Z</time>
      </trkpt>
      <trkpt lat="45.69867" lon="3.30076">
        <ele>444.4</ele>
        <time>2024-08-11T09:22:01Z</time>
      </trkpt>
      <trkpt lat="45.69865" lon="3.30074">
        <ele>444.6</ele>
        <time>2024-08-11T09:22:02Z</time>
      </trkpt>
      <trkpt lat="45.69863" lon="3.30072">
        <ele>444.8</ele>
        <time>2024-08-11T09:22:03Z</time>
      </trkpt>
      <trkpt lat="45.69861" lon="3.3007">
        <ele>445</ele>
        <time>2024-08-11T09:22:04Z</time>
      </trkpt>
      <trkpt lat="45.69859" lon="3.30067">
        <ele>445.2</ele>
        <time>2024-08-11T09:22:05Z</time>
      </trkpt>
      <trkpt lat="45.69857" lon="3.30065">
        <ele>445.2</ele>
        <time>2024-08-11T09:22:06Z</time>
      </trkpt>
      <trkpt lat="45.69855" lon="3.30063">
        <ele>445.4</ele>
        <time>2024-08-11T09:22:07Z</time>
      </trkpt>
      <trkpt lat="45.69853" lon="3.30061">
        <ele>445.6</ele>
        <time>2024-08-11T09:22:08Z</time>
      </trkpt>
      <trkpt lat="45.69851" lon="3.30058">
        <ele>445.6</ele>
        <time>2024-08-11T09:22:09Z</time>
      </trkpt>
      <trkpt lat="45.6985" lon="3.30056">
        <ele>445.8</ele>
        <time>2024-08-11T09:22:10Z</time>
      </trkpt>
      <trkpt lat="45.69848" lon="3.30054">
        <ele>446</ele>
        <time>2024-08-11T09:22:11Z</time>
      </trkpt>
      <trkpt lat="45.69846" lon="3.30052">
        <ele>446.2</ele>
        <time>2024-08-11T09:22:12Z</time>
      </trkpt>
      <trkpt lat="45.69844" lon="3.30049">
        <ele>446.2</ele>
        <time>2024-08-11T09:22:13Z</time>
      </trkpt>
      <trkpt lat="45.69842" lon="3.30047">
        <ele>446.4</ele>
        <time>2024-08-11T09:22:14Z</time>
      </trkpt>
      <trkpt lat="45.6984" lon="3.30045">
        <ele>446.6</ele>
        <time>2024-08-11T09:22:15Z</time>
      </trkpt>
      <trkpt lat="45.69838" lon="3.30043">
        <ele>446.8</ele>
        <time>2024-08-11T09:22:16Z</time>
      </trkpt>
      <trkpt lat="45.69836" lon="3.30041">
        <ele>447</ele>
        <time>2024-08-11T09:22:17Z</time>
      </trkpt>
      <trkpt lat="45.69834" lon="3.3004">
        <ele>447</ele>
        <time>2024-08-11T09:22:18Z</time>
      </trkpt>
      <trkpt lat="45.69832" lon="3.30039">
        <ele>447.2</ele>
        <time>2024-08-11T09:22:19Z</time>
      </trkpt>
      <trkpt lat="45.6983" lon="3.30037">
        <ele>447.4</ele>
        <time>2024-08-11T09:22:20Z</time>
      </trkpt>
      <trkpt lat="45.69828" lon="3.30036">
        <ele>447.4</ele>
        <time>2024-08-11T09:22:21Z</time>
      </trkpt>
      <trkpt lat="45.69825" lon="3.30034">
        <ele>447.6</ele>
        <time>2024-08-11T09:22:22Z</time>
      </trkpt>
      <trkpt lat="45.69823" lon="3.30033">
        <ele>447.8</ele>
        <time>2024-08-11T09:22:23Z</time>
      </trkpt>
      <trkpt lat="45.69821" lon="3.30032">
        <ele>448</ele>
        <time>2024-08-11T09:22:24Z</time>
      </trkpt>
      <trkpt lat="45.69819" lon="3.3003">
        <ele>448.2</ele>
        <time>2024-08-11T09:22:25Z</time>
      </trkpt>
      <trkpt lat="45.69817" lon="3.30029">
        <ele>448.4</ele>
        <time>2024-08-11T09:22:26Z</time>
      </trkpt>
      <trkpt lat="45.69814" lon="3.30027">
        <ele>448.4</ele>
        <time>2024-08-11T09:22:27Z</time>
      </trkpt>
      <trkpt lat="45.69812" lon="3.30026">
        <ele>448.6</ele>
        <time>2024-08-11T09:22:28Z</time>
      </trkpt>
      <trkpt lat="45.6981" lon="3.30025">
        <ele>448.8</ele>
        <time>2024-08-11T09:22:29Z</time>
      </trkpt>
      <trkpt lat="45.69808" lon="3.30023">
        <ele>449</ele>
        <time>2024-08-11T09:22:30Z</time>
      </trkpt>
      <trkpt lat="45.69805" lon="3.30022">
        <ele>449.2</ele>
        <time>2024-08-11T09:22:31Z</time>
      </trkpt>
      <trkpt lat="45.69803" lon="3.3002">
        <ele>449.4</ele>
        <time>2024-08-11T09:22:32Z</time>
      </trkpt>
      <trkpt lat="45.69801" lon="3.30019">
        <ele>449.4</ele>
        <time>2024-08-11T09:22:33Z</time>
      </trkpt>
      <trkpt lat="45.69798" lon="3.30017">
        <ele>449.6</ele>
        <time>2024-08-11T09:22:34Z</time>
      </trkpt>
      <trkpt lat="45.69796" lon="3.30016">
        <ele>449.8</ele>
        <time>2024-08-11T09:22:35Z</time>
      </trkpt>
      <trkpt lat="45.69794" lon="3.30014">
        <ele>450</ele>
        <time>2024-08-11T09:22:36Z</time>
      </trkpt>
      <trkpt lat="45.69791" lon="3.30013">
        <ele>450.2</ele>
        <time>2024-08-11T09:22:37Z</time>
      </trkpt>
      <trkpt lat="45.69789" lon="3.30011">
        <ele>450.2</ele>
        <time>2024-08-11T09:22:38Z</time>
      </trkpt>
      <trkpt lat="45.69787" lon="3.3001">
        <ele>450.4</ele>
        <time>2024-08-11T09:22:39Z</time>
      </trkpt>
      <trkpt lat="45.69785" lon="3.30009">
        <ele>450.6</ele>
        <time>2024-08-11T09:22:40Z</time>
      </trkpt>
      <trkpt lat="45.69782" lon="3.30007">
        <ele>450.8</ele>
        <time>2024-08-11T09:22:41Z</time>
      </trkpt>
      <trkpt lat="45.6978" lon="3.30006">
        <ele>451</ele>
        <time>2024-08-11T09:22:42Z</time>
      </trkpt>
      <trkpt lat="45.69778" lon="3.30004">
        <ele>451.2</ele>
        <time>2024-08-11T09:22:43Z</time>
      </trkpt>
      <trkpt lat="45.69775" lon="3.30003">
        <ele>451.2</ele>
        <time>2024-08-11T09:22:44Z</time>
      </trkpt>
      <trkpt lat="45.69773" lon="3.30001">
        <ele>451.4</ele>
        <time>2024-08-11T09:22:45Z</time>
      </trkpt>
      <trkpt lat="45.69771" lon="3.3">
        <ele>451.6</ele>
        <time>2024-08-11T09:22:46Z</time>
      </trkpt>
      <trkpt lat="45.69769" lon="3.29999">
        <ele>451.8</ele>
        <time>2024-08-11T09:22:47Z</time>
      </trkpt>
      <trkpt lat="45.69767" lon="3.29997">
        <ele>452</ele>
        <time>2024-08-11T09:22:48Z</time>
      </trkpt>
      <trkpt lat="45.69765" lon="3.29996">
        <ele>452</ele>
        <time>2024-08-11T09:22:49Z</time>
      </trkpt>
      <trkpt lat="45.69763" lon="3.29995">
        <ele>452.2</ele>
        <time>2024-08-11T09:22:50Z</time>
      </trkpt>
      <trkpt lat="45.6976" lon="3.29993">
        <ele>452.4</ele>
        <time>2024-08-11T09:22:51Z</time>
      </trkpt>
      <trkpt lat="45.69758" lon="3.29992">
        <ele>452.6</ele>
        <time>2024-08-11T09:22:52Z</time>
      </trkpt>
      <trkpt lat="45.69756" lon="3.2999">
        <ele>452.8</ele>
        <time>2024-08-11T09:22:53Z</time>
      </trkpt>
      <trkpt lat="45.69754" lon="3.29989">
        <ele>452.8</ele>
        <time>2024-08-11T09:22:54Z</time>
      </trkpt>
      <trkpt lat="45.69751" lon="3.29987">
        <ele>453</ele>
        <time>2024-08-11T09:22:55Z</time>
      </trkpt>
      <trkpt lat="45.69749" lon="3.29986">
        <ele>453.2</ele>
        <time>2024-08-11T09:22:56Z</time>
      </trkpt>
      <trkpt lat="45.69746" lon="3.29985">
        <ele>453.4</ele>
        <time>2024-08-11T09:22:57Z</time>
      </trkpt>
      <trkpt lat="45.69744" lon="3.29984">
        <ele>453.6</ele>
        <time>2024-08-11T09:22:58Z</time>
      </trkpt>
      <trkpt lat="45.69742" lon="3.29983">
        <ele>453.8</ele>
        <time>2024-08-11T09:22:59Z</time>
      </trkpt>
      <trkpt lat="45.69739" lon="3.29982">
        <ele>454</ele>
        <time>2024-08-11T09:23:00Z</time>
      </trkpt>
      <trkpt lat="45.69737" lon="3.29981">
        <ele>454</ele>
        <time>2024-08-11T09:23:01Z</time>
      </trkpt>
      <trkpt lat="45.69735" lon="3.29981">
        <ele>454.2</ele>
        <time>2024-08-11T09:23:02Z</time>
      </trkpt>
      <trkpt lat="45.69732" lon="3.2998">
        <ele>454.4</ele>
        <time>2024-08-11T09:23:03Z</time>
      </trkpt>
      <trkpt lat="45.6973" lon="3.29979">
        <ele>454.6</ele>
        <time>2024-08-11T09:23:04Z</time>
      </trkpt>
      <trkpt lat="45.69727" lon="3.29978">
        <ele>454.6</ele>
        <time>2024-08-11T09:23:05Z</time>
      </trkpt>
      <trkpt lat="45.69725" lon="3.29977">
        <ele>454.8</ele>
        <time>2024-08-11T09:23:06Z</time>
      </trkpt>
      <trkpt lat="45.69722" lon="3.29976">
        <ele>455</ele>
        <time>2024-08-11T09:23:07Z</time>
      </trkpt>
      <trkpt lat="45.6972" lon="3.29975">
        <ele>455.2</ele>
        <time>2024-08-11T09:23:08Z</time>
      </trkpt>
      <trkpt lat="45.69717" lon="3.29974">
        <ele>455.4</ele>
        <time>2024-08-11T09:23:09Z</time>
      </trkpt>
      <trkpt lat="45.69715" lon="3.29973">
        <ele>455.4</ele>
        <time>2024-08-11T09:23:10Z</time>
      </trkpt>
      <trkpt lat="45.69712" lon="3.29972">
        <ele>455.6</ele>
        <time>2024-08-11T09:23:11Z</time>
      </trkpt>
      <trkpt lat="45.6971" lon="3.29971">
        <ele>455.8</ele>
        <time>2024-08-11T09:23:12Z</time>
      </trkpt>
      <trkpt lat="45.69707" lon="3.2997">
        <ele>456</ele>
        <time>2024-08-11T09:23:13Z</time>
      </trkpt>
      <trkpt lat="45.69705" lon="3.29969">
        <ele>456.2</ele>
        <time>2024-08-11T09:23:14Z</time>
      </trkpt>
      <trkpt lat="45.69702" lon="3.29968">
        <ele>456.2</ele>
        <time>2024-08-11T09:23:15Z</time>
      </trkpt>
      <trkpt lat="45.697" lon="3.29967">
        <ele>456.4</ele>
        <time>2024-08-11T09:23:16Z</time>
      </trkpt>
      <trkpt lat="45.69697" lon="3.29966">
        <ele>456.6</ele>
        <time>2024-08-11T09:23:17Z</time>
      </trkpt>
      <trkpt lat="45.69695" lon="3.29965">
        <ele>456.8</ele>
        <time>2024-08-11T09:23:18Z</time>
      </trkpt>
      <trkpt lat="45.69693" lon="3.29964">
        <ele>457</ele>
        <time>2024-08-11T09:23:19Z</time>
      </trkpt>
      <trkpt lat="45.6969" lon="3.29963">
        <ele>457</ele>
        <time>2024-08-11T09:23:20Z</time>
      </trkpt>
      <trkpt lat="45.69688" lon="3.29962">
        <ele>457.2</ele>
        <time>2024-08-11T09:23:21Z</time>
      </trkpt>
      <trkpt lat="45.69685" lon="3.29961">
        <ele>457.4</ele>
        <time>2024-08-11T09:23:22Z</time>
      </trkpt>
      <trkpt lat="45.69683" lon="3.2996">
        <ele>457.6</ele>
        <time>2024-08-11T09:23:23Z</time>
      </trkpt>
      <trkpt lat="45.6968" lon="3.29959">
        <ele>457.8</ele>
        <time>2024-08-11T09:23:24Z</time>
      </trkpt>
      <trkpt lat="45.69678" lon="3.29958">
        <ele>457.8</ele>
        <time>2024-08-11T09:23:25Z</time>
      </trkpt>
      <trkpt lat="45.69675" lon="3.29957">
        <ele>458</ele>
        <time>2024-08-11T09:23:26Z</time>
      </trkpt>
      <trkpt lat="45.69673" lon="3.29956">
        <ele>458.2</ele>
        <time>2024-08-11T09:23:27Z</time>
      </trkpt>
      <trkpt lat="45.69671" lon="3.29955">
        <ele>458.4</ele>
        <time>2024-08-11T09:23:28Z</time>
      </trkpt>
      <trkpt lat="45.69668" lon="3.29954">
        <ele>458.6</ele>
        <time>2024-08-11T09:23:29Z</time>
      </trkpt>
      <trkpt lat="45.69665" lon="3.29953">
        <ele>458.6</ele>
        <time>2024-08-11T09:23:30Z</time>
      </trkpt>
      <trkpt lat="45.69663" lon="3.29952">
        <ele>458.8</ele>
        <time>2024-08-11T09:23:31Z</time>
      </trkpt>
      <trkpt lat="45.6966" lon="3.29951">
        <ele>459</ele>
        <time>2024-08-11T09:23:32Z</time>
      </trkpt>
      <trkpt lat="45.69658" lon="3.2995">
        <ele>459.2</ele>
        <time>2024-08-11T09:23:33Z</time>
      </trkpt>
      <trkpt lat="45.69655" lon="3.29949">
        <ele>459.4</ele>
        <time>2024-08-11T09:23:34Z</time>
      </trkpt>
      <trkpt lat="45.69655" lon="3.29949">
        <ele>459.4</ele>
        <time>2024-08-11T09:23:35Z</time>
      </trkpt>
      <trkpt lat="45.69655" lon="3.29949">
        <ele>459.6</ele>
        <time>2024-08-11T09:23:36Z</time>
      </trkpt>
      <trkpt lat="45.69647" lon="3.29946">
        <ele>459.8</ele>
        <time>2024-08-11T09:23:37Z</time>
      </trkpt>
      <trkpt lat="45.69645" lon="3.29945">
        <ele>460</ele>
        <time>2024-08-11T09:23:38Z</time>
      </trkpt>
      <trkpt lat="45.69642" lon="3.29944">
        <ele>460.2</ele>
        <time>2024-08-11T09:23:39Z</time>
      </trkpt>
      <trkpt lat="45.69639" lon="3.29942">
        <ele>460.2</ele>
        <time>2024-08-11T09:23:40Z</time>
      </trkpt>
      <trkpt lat="45.69637" lon="3.29941">
        <ele>460.4</ele>
        <time>2024-08-11T09:23:41Z</time>
      </trkpt>
      <trkpt lat="45.69634" lon="3.2994">
        <ele>460.6</ele>
        <time>2024-08-11T09:23:42Z</time>
      </trkpt>
      <trkpt lat="45.69631" lon="3.29939">
        <ele>460.8</ele>
        <time>2024-08-11T09:23:43Z</time>
      </trkpt>
      <trkpt lat="45.69628" lon="3.29938">
        <ele>460.8</ele>
        <time>2024-08-11T09:23:44Z</time>
      </trkpt>
      <trkpt lat="45.69625" lon="3.29937">
        <ele>461</ele>
        <time>2024-08-11T09:23:45Z</time>
      </trkpt>
      <trkpt lat="45.69623" lon="3.29936">
        <ele>461.2</ele>
        <time>2024-08-11T09:23:46Z</time>
      </trkpt>
      <trkpt lat="45.6962" lon="3.29935">
        <ele>461.4</ele>
        <time>2024-08-11T09:23:47Z</time>
      </trkpt>
      <trkpt lat="45.69617" lon="3.29933">
        <ele>461.4</ele>
        <time>2024-08-11T09:23:48Z</time>
      </trkpt>
      <trkpt lat="45.69614" lon="3.29932">
        <ele>461.6</ele>
        <time>2024-08-11T09:23:49Z</time>
      </trkpt>
      <trkpt lat="45.69611" lon="3.29931">
        <ele>461.8</ele>
        <time>2024-08-11T09:23:50Z</time>
      </trkpt>
      <trkpt lat="45.69608" lon="3.2993">
        <ele>462</ele>
        <time>2024-08-11T09:23:51Z</time>
      </trkpt>
      <trkpt lat="45.69605" lon="3.29929">
        <ele>462.2</ele>
        <time>2024-08-11T09:23:52Z</time>
      </trkpt>
      <trkpt lat="45.69602" lon="3.29927">
        <ele>462.4</ele>
        <time>2024-08-11T09:23:53Z</time>
      </trkpt>
      <trkpt lat="45.69599" lon="3.29926">
        <ele>462.6</ele>
        <time>2024-08-11T09:23:54Z</time>
      </trkpt>
      <trkpt lat="45.69596" lon="3.29925">
        <ele>462.6</ele>
        <time>2024-08-11T09:23:55Z</time>
      </trkpt>
      <trkpt lat="45.69593" lon="3.29924">
        <ele>462.8</ele>
        <time>2024-08-11T09:23:56Z</time>
      </trkpt>
      <trkpt lat="45.6959" lon="3.29923">
        <ele>463</ele>
        <time>2024-08-11T09:23:57Z</time>
      </trkpt>
      <trkpt lat="45.69587" lon="3.29921">
        <ele>463.2</ele>
        <time>2024-08-11T09:23:58Z</time>
      </trkpt>
      <trkpt lat="45.69584" lon="3.2992">
        <ele>463.4</ele>
        <time>2024-08-11T09:23:59Z</time>
      </trkpt>
      <trkpt lat="45.69581" lon="3.29919">
        <ele>463.4</ele>
        <time>2024-08-11T09:24:00Z</time>
      </trkpt>
      <trkpt lat="45.69578" lon="3.29918">
        <ele>463.6</ele>
        <time>2024-08-11T09:24:01Z</time>
      </trkpt>
      <trkpt lat="45.69575" lon="3.29917">
        <ele>463.8</ele>
        <time>2024-08-11T09:24:02Z</time>
      </trkpt>
      <trkpt lat="45.69572" lon="3.29915">
        <ele>464</ele>
        <time>2024-08-11T09:24:03Z</time>
      </trkpt>
      <trkpt lat="45.69569" lon="3.29914">
        <ele>464</ele>
        <time>2024-08-11T09:24:04Z</time>
      </trkpt>
      <trkpt lat="45.69566" lon="3.29913">
        <ele>464.2</ele>
        <time>2024-08-11T09:24:05Z</time>
      </trkpt>
      <trkpt lat="45.69563" lon="3.29912">
        <ele>464.4</ele>
        <time>2024-08-11T09:24:06Z</time>
      </trkpt>
      <trkpt lat="45.6956" lon="3.29911">
        <ele>464.6</ele>
        <time>2024-08-11T09:24:07Z</time>
      </trkpt>
      <trkpt lat="45.69557" lon="3.2991">
        <ele>464.8</ele>
        <time>2024-08-11T09:24:08Z</time>
      </trkpt>
      <trkpt lat="45.69555" lon="3.29908">
        <ele>464.8</ele>
        <time>2024-08-11T09:24:09Z</time>
      </trkpt>
      <trkpt lat="45.69552" lon="3.29907">
        <ele>465</ele>
        <time>2024-08-11T09:24:10Z</time>
      </trkpt>
      <trkpt lat="45.69549" lon="3.29906">
        <ele>465.2</ele>
        <time>2024-08-11T09:24:11Z</time>
      </trkpt>
      <trkpt lat="45.69546" lon="3.29905">
        <ele>465.4</ele>
        <time>2024-08-11T09:24:12Z</time>
      </trkpt>
      <trkpt lat="45.69543" lon="3.29906">
        <ele>465.6</ele>
        <time>2024-08-11T09:24:13Z</time>
      </trkpt>
      <trkpt lat="45.6954" lon="3.29906">
        <ele>465.8</ele>
        <time>2024-08-11T09:24:14Z</time>
      </trkpt>
      <trkpt lat="45.69537" lon="3.29906">
        <ele>466</ele>
        <time>2024-08-11T09:24:15Z</time>
      </trkpt>
      <trkpt lat="45.69534" lon="3.29907">
        <ele>466</ele>
        <time>2024-08-11T09:24:16Z</time>
      </trkpt>
      <trkpt lat="45.69532" lon="3.29907">
        <ele>466.2</ele>
        <time>2024-08-11T09:24:17Z</time>
      </trkpt>
      <trkpt lat="45.69529" lon="3.29907">
        <ele>466.4</ele>
        <time>2024-08-11T09:24:18Z</time>
      </trkpt>
      <trkpt lat="45.69526" lon="3.29908">
        <ele>466.6</ele>
        <time>2024-08-11T09:24:19Z</time>
      </trkpt>
      <trkpt lat="45.69523" lon="3.29908">
        <ele>466.8</ele>
        <time>2024-08-11T09:24:20Z</time>
      </trkpt>
      <trkpt lat="45.6952" lon="3.29909">
        <ele>466.8</ele>
        <time>2024-08-11T09:24:21Z</time>
      </trkpt>
      <trkpt lat="45.69518" lon="3.29909">
        <ele>467</ele>
        <time>2024-08-11T09:24:22Z</time>
      </trkpt>
      <trkpt lat="45.69515" lon="3.29909">
        <ele>467.2</ele>
        <time>2024-08-11T09:24:23Z</time>
      </trkpt>
      <trkpt lat="45.69512" lon="3.2991">
        <ele>467.4</ele>
        <time>2024-08-11T09:24:24Z</time>
      </trkpt>
      <trkpt lat="45.69509" lon="3.2991">
        <ele>467.6</ele>
        <time>2024-08-11T09:24:25Z</time>
      </trkpt>
      <trkpt lat="45.69506" lon="3.2991">
        <ele>467.6</ele>
        <time>2024-08-11T09:24:26Z</time>
      </trkpt>
      <trkpt lat="45.69503" lon="3.29911">
        <ele>467.8</ele>
        <time>2024-08-11T09:24:27Z</time>
      </trkpt>
      <trkpt lat="45.695" lon="3.29911">
        <ele>468</ele>
        <time>2024-08-11T09:24:28Z</time>
      </trkpt>
      <trkpt lat="45.69497" lon="3.29912">
        <ele>468.2</ele>
        <time>2024-08-11T09:24:29Z</time>
      </trkpt>
      <trkpt lat="45.69494" lon="3.29912">
        <ele>468.4</ele>
        <time>2024-08-11T09:24:30Z</time>
      </trkpt>
      <trkpt lat="45.69491" lon="3.29912">
        <ele>468.4</ele>
        <time>2024-08-11T09:24:31Z</time>
      </trkpt>
      <trkpt lat="45.69488" lon="3.29913">
        <ele>468.6</ele>
        <time>2024-08-11T09:24:32Z</time>
      </trkpt>
      <trkpt lat="45.69485" lon="3.29913">
        <ele>468.8</ele>
        <time>2024-08-11T09:24:33Z</time>
      </trkpt>
      <trkpt lat="45.69483" lon="3.29913">
        <ele>469</ele>
        <time>2024-08-11T09:24:34Z</time>
      </trkpt>
      <trkpt lat="45.6948" lon="3.29914">
        <ele>469</ele>
        <time>2024-08-11T09:24:35Z</time>
      </trkpt>
      <trkpt lat="45.69477" lon="3.29914">
        <ele>469.2</ele>
        <time>2024-08-11T09:24:36Z</time>
      </trkpt>
      <trkpt lat="45.69474" lon="3.29914">
        <ele>469.4</ele>
        <time>2024-08-11T09:24:37Z</time>
      </trkpt>
      <trkpt lat="45.69471" lon="3.29915">
        <ele>469.6</ele>
        <time>2024-08-11T09:24:38Z</time>
      </trkpt>
      <trkpt lat="45.69468" lon="3.29915">
        <ele>469.8</ele>
        <time>2024-08-11T09:24:39Z</time>
      </trkpt>
      <trkpt lat="45.69465" lon="3.29916">
        <ele>470</ele>
        <time>2024-08-11T09:24:40Z</time>
      </trkpt>
      <trkpt lat="45.69462" lon="3.29916">
        <ele>470</ele>
        <time>2024-08-11T09:24:41Z</time>
      </trkpt>
      <trkpt lat="45.6946" lon="3.29916">
        <ele>470.2</ele>
        <time>2024-08-11T09:24:42Z</time>
      </trkpt>
      <trkpt lat="45.69457" lon="3.29917">
        <ele>470.4</ele>
        <time>2024-08-11T09:24:43Z</time>
      </trkpt>
      <trkpt lat="45.69454" lon="3.29917">
        <ele>470.4</ele>
        <time>2024-08-11T09:24:44Z</time>
      </trkpt>
      <trkpt lat="45.69451" lon="3.29917">
        <ele>470.6</ele>
        <time>2024-08-11T09:24:45Z</time>
      </trkpt>
      <trkpt lat="45.69448" lon="3.29918">
        <ele>470.8</ele>
        <time>2024-08-11T09:24:46Z</time>
      </trkpt>
      <trkpt lat="45.69446" lon="3.29918">
        <ele>471</ele>
        <time>2024-08-11T09:24:47Z</time>
      </trkpt>
      <trkpt lat="45.69443" lon="3.29918">
        <ele>471</ele>
        <time>2024-08-11T09:24:48Z</time>
      </trkpt>
      <trkpt lat="45.6944" lon="3.29919">
        <ele>471.2</ele>
        <time>2024-08-11T09:24:49Z</time>
      </trkpt>
      <trkpt lat="45.69437" lon="3.29919">
        <ele>471.4</ele>
        <time>2024-08-11T09:24:50Z</time>
      </trkpt>
      <trkpt lat="45.69434" lon="3.2992">
        <ele>471.4</ele>
        <time>2024-08-11T09:24:51Z</time>
      </trkpt>
      <trkpt lat="45.69431" lon="3.2992">
        <ele>471.6</ele>
        <time>2024-08-11T09:24:52Z</time>
      </trkpt>
      <trkpt lat="45.69428" lon="3.2992">
        <ele>471.8</ele>
        <time>2024-08-11T09:24:53Z</time>
      </trkpt>
      <trkpt lat="45.69425" lon="3.29921">
        <ele>472</ele>
        <time>2024-08-11T09:24:54Z</time>
      </trkpt>
      <trkpt lat="45.69422" lon="3.29921">
        <ele>472</ele>
        <time>2024-08-11T09:24:55Z</time>
      </trkpt>
      <trkpt lat="45.69419" lon="3.29921">
        <ele>472.2</ele>
        <time>2024-08-11T09:24:56Z</time>
      </trkpt>
      <trkpt lat="45.69416" lon="3.29922">
        <ele>472.4</ele>
        <time>2024-08-11T09:24:57Z</time>
      </trkpt>
      <trkpt lat="45.69413" lon="3.29922">
        <ele>472.4</ele>
        <time>2024-08-11T09:24:58Z</time>
      </trkpt>
      <trkpt lat="45.6941" lon="3.29923">
        <ele>472.6</ele>
        <time>2024-08-11T09:24:59Z</time>
      </trkpt>
      <trkpt lat="45.69407" lon="3.29923">
        <ele>472.8</ele>
        <time>2024-08-11T09:25:00Z</time>
      </trkpt>
      <trkpt lat="45.69404" lon="3.29923">
        <ele>472.8</ele>
        <time>2024-08-11T09:25:01Z</time>
      </trkpt>
      <trkpt lat="45.69401" lon="3.29924">
        <ele>473</ele>
        <time>2024-08-11T09:25:02Z</time>
      </trkpt>
      <trkpt lat="45.69398" lon="3.29924">
        <ele>473.2</ele>
        <time>2024-08-11T09:25:03Z</time>
      </trkpt>
      <trkpt lat="45.69395" lon="3.29924">
        <ele>473.2</ele>
        <time>2024-08-11T09:25:04Z</time>
      </trkpt>
      <trkpt lat="45.69393" lon="3.29924">
        <ele>473.4</ele>
        <time>2024-08-11T09:25:05Z</time>
      </trkpt>
      <trkpt lat="45.6939" lon="3.29924">
        <ele>473.6</ele>
        <time>2024-08-11T09:25:06Z</time>
      </trkpt>
      <trkpt lat="45.69387" lon="3.29924">
        <ele>473.8</ele>
        <time>2024-08-11T09:25:07Z</time>
      </trkpt>
      <trkpt lat="45.69384" lon="3.29923">
        <ele>474</ele>
        <time>2024-08-11T09:25:08Z</time>
      </trkpt>
      <trkpt lat="45.69381" lon="3.29923">
        <ele>474</ele>
        <time>2024-08-11T09:25:09Z</time>
      </trkpt>
      <trkpt lat="45.69379" lon="3.29923">
        <ele>474.2</ele>
        <time>2024-08-11T09:25:10Z</time>
      </trkpt>
      <trkpt lat="45.69376" lon="3.29922">
        <ele>474.4</ele>
        <time>2024-08-11T09:25:11Z</time>
      </trkpt>
      <trkpt lat="45.69373" lon="3.29922">
        <ele>474.4</ele>
        <time>2024-08-11T09:25:12Z</time>
      </trkpt>
      <trkpt lat="45.6937" lon="3.29922">
        <ele>474.6</ele>
        <time>2024-08-11T09:25:13Z</time>
      </trkpt>
      <trkpt lat="45.69367" lon="3.29921">
        <ele>474.8</ele>
        <time>2024-08-11T09:25:14Z</time>
      </trkpt>
      <trkpt lat="45.69364" lon="3.29921">
        <ele>474.8</ele>
        <time>2024-08-11T09:25:15Z</time>
      </trkpt>
      <trkpt lat="45.69361" lon="3.29921">
        <ele>475</ele>
        <time>2024-08-11T09:25:16Z</time>
      </trkpt>
      <trkpt lat="45.69358" lon="3.2992">
        <ele>475.2</ele>
        <time>2024-08-11T09:25:17Z</time>
      </trkpt>
      <trkpt lat="45.69355" lon="3.2992">
        <ele>475.4</ele>
        <time>2024-08-11T09:25:18Z</time>
      </trkpt>
      <trkpt lat="45.69352" lon="3.2992">
        <ele>475.4</ele>
        <time>2024-08-11T09:25:19Z</time>
      </trkpt>
      <trkpt lat="45.69349" lon="3.29919">
        <ele>475.6</ele>
        <time>2024-08-11T09:25:20Z</time>
      </trkpt>
      <trkpt lat="45.69346" lon="3.29919">
        <ele>475.8</ele>
        <time>2024-08-11T09:25:21Z</time>
      </trkpt>
      <trkpt lat="45.69343" lon="3.29918">
        <ele>475.8</ele>
        <time>2024-08-11T09:25:22Z</time>
      </trkpt>
      <trkpt lat="45.6934" lon="3.29918">
        <ele>476</ele>
        <time>2024-08-11T09:25:23Z</time>
      </trkpt>
      <trkpt lat="45.69338" lon="3.29917">
        <ele>476.2</ele>
        <time>2024-08-11T09:25:24Z</time>
      </trkpt>
      <trkpt lat="45.69335" lon="3.29916">
        <ele>476.4</ele>
        <time>2024-08-11T09:25:25Z</time>
      </trkpt>
      <trkpt lat="45.69332" lon="3.29914">
        <ele>476.4</ele>
        <time>2024-08-11T09:25:26Z</time>
      </trkpt>
      <trkpt lat="45.69329" lon="3.29913">
        <ele>476.6</ele>
        <time>2024-08-11T09:25:27Z</time>
      </trkpt>
      <trkpt lat="45.69326" lon="3.29911">
        <ele>476.8</ele>
        <time>2024-08-11T09:25:28Z</time>
      </trkpt>
      <trkpt lat="45.69324" lon="3.2991">
        <ele>477</ele>
        <time>2024-08-11T09:25:29Z</time>
      </trkpt>
      <trkpt lat="45.69321" lon="3.29909">
        <ele>477</ele>
        <time>2024-08-11T09:25:30Z</time>
      </trkpt>
      <trkpt lat="45.69318" lon="3.29908">
        <ele>477.2</ele>
        <time>2024-08-11T09:25:31Z</time>
      </trkpt>
      <trkpt lat="45.69316" lon="3.29906">
        <ele>477.4</ele>
        <time>2024-08-11T09:25:32Z</time>
      </trkpt>
      <trkpt lat="45.69313" lon="3.29905">
        <ele>477.6</ele>
        <time>2024-08-11T09:25:33Z</time>
      </trkpt>
      <trkpt lat="45.6931" lon="3.29904">
        <ele>477.6</ele>
        <time>2024-08-11T09:25:34Z</time>
      </trkpt>
      <trkpt lat="45.69308" lon="3.29903">
        <ele>477.8</ele>
        <time>2024-08-11T09:25:35Z</time>
      </trkpt>
      <trkpt lat="45.69305" lon="3.29901">
        <ele>478</ele>
        <time>2024-08-11T09:25:36Z</time>
      </trkpt>
      <trkpt lat="45.69302" lon="3.29899">
        <ele>478.2</ele>
        <time>2024-08-11T09:25:37Z</time>
      </trkpt>
      <trkpt lat="45.693" lon="3.29897">
        <ele>478.4</ele>
        <time>2024-08-11T09:25:38Z</time>
      </trkpt>
      <trkpt lat="45.69297" lon="3.29895">
        <ele>478.4</ele>
        <time>2024-08-11T09:25:39Z</time>
      </trkpt>
      <trkpt lat="45.69295" lon="3.29892">
        <ele>478.6</ele>
        <time>2024-08-11T09:25:40Z</time>
      </trkpt>
      <trkpt lat="45.69293" lon="3.2989">
        <ele>478.8</ele>
        <time>2024-08-11T09:25:41Z</time>
      </trkpt>
      <trkpt lat="45.6929" lon="3.29888">
        <ele>479</ele>
        <time>2024-08-11T09:25:42Z</time>
      </trkpt>
      <trkpt lat="45.69287" lon="3.29885">
        <ele>479.2</ele>
        <time>2024-08-11T09:25:43Z</time>
      </trkpt>
      <trkpt lat="45.69285" lon="3.29883">
        <ele>479.2</ele>
        <time>2024-08-11T09:25:44Z</time>
      </trkpt>
      <trkpt lat="45.69282" lon="3.2988">
        <ele>479.4</ele>
        <time>2024-08-11T09:25:45Z</time>
      </trkpt>
      <trkpt lat="45.6928" lon="3.29878">
        <ele>479.6</ele>
        <time>2024-08-11T09:25:46Z</time>
      </trkpt>
      <trkpt lat="45.69278" lon="3.29876">
        <ele>479.6</ele>
        <time>2024-08-11T09:25:47Z</time>
      </trkpt>
      <trkpt lat="45.69275" lon="3.29874">
        <ele>479.8</ele>
        <time>2024-08-11T09:25:48Z</time>
      </trkpt>
      <trkpt lat="45.69273" lon="3.29871">
        <ele>480</ele>
        <time>2024-08-11T09:25:49Z</time>
      </trkpt>
      <trkpt lat="45.6927" lon="3.29869">
        <ele>480.2</ele>
        <time>2024-08-11T09:25:50Z</time>
      </trkpt>
      <trkpt lat="45.69268" lon="3.29866">
        <ele>480.4</ele>
        <time>2024-08-11T09:25:51Z</time>
      </trkpt>
      <trkpt lat="45.69265" lon="3.29864">
        <ele>480.4</ele>
        <time>2024-08-11T09:25:52Z</time>
      </trkpt>
      <trkpt lat="45.69263" lon="3.29862">
        <ele>480.6</ele>
        <time>2024-08-11T09:25:53Z</time>
      </trkpt>
      <trkpt lat="45.69261" lon="3.2986">
        <ele>480.8</ele>
        <time>2024-08-11T09:25:54Z</time>
      </trkpt>
      <trkpt lat="45.69258" lon="3.29857">
        <ele>481</ele>
        <time>2024-08-11T09:25:55Z</time>
      </trkpt>
      <trkpt lat="45.69256" lon="3.29854">
        <ele>481</ele>
        <time>2024-08-11T09:25:56Z</time>
      </trkpt>
      <trkpt lat="45.69254" lon="3.29851">
        <ele>481.2</ele>
        <time>2024-08-11T09:25:57Z</time>
      </trkpt>
      <trkpt lat="45.69252" lon="3.29847">
        <ele>481.4</ele>
        <time>2024-08-11T09:25:58Z</time>
      </trkpt>
      <trkpt lat="45.6925" lon="3.29844">
        <ele>481.6</ele>
        <time>2024-08-11T09:25:59Z</time>
      </trkpt>
      <trkpt lat="45.69248" lon="3.29841">
        <ele>481.6</ele>
        <time>2024-08-11T09:26:00Z</time>
      </trkpt>
      <trkpt lat="45.69246" lon="3.29838">
        <ele>481.8</ele>
        <time>2024-08-11T09:26:01Z</time>
      </trkpt>
      <trkpt lat="45.69243" lon="3.29834">
        <ele>482</ele>
        <time>2024-08-11T09:26:02Z</time>
      </trkpt>
      <trkpt lat="45.69241" lon="3.29831">
        <ele>482.2</ele>
        <time>2024-08-11T09:26:03Z</time>
      </trkpt>
      <trkpt lat="45.69239" lon="3.29828">
        <ele>482.4</ele>
        <time>2024-08-11T09:26:04Z</time>
      </trkpt>
      <trkpt lat="45.69237" lon="3.29825">
        <ele>482.4</ele>
        <time>2024-08-11T09:26:05Z</time>
      </trkpt>
      <trkpt lat="45.69235" lon="3.29822">
        <ele>482.6</ele>
        <time>2024-08-11T09:26:06Z</time>
      </trkpt>
      <trkpt lat="45.69233" lon="3.29818">
        <ele>482.8</ele>
        <time>2024-08-11T09:26:07Z</time>
      </trkpt>
      <trkpt lat="45.69231" lon="3.29815">
        <ele>483</ele>
        <time>2024-08-11T09:26:08Z</time>
      </trkpt>
      <trkpt lat="45.69229" lon="3.29812">
        <ele>483.2</ele>
        <time>2024-08-11T09:26:09Z</time>
      </trkpt>
      <trkpt lat="45.69227" lon="3.29809">
        <ele>483.4</ele>
        <time>2024-08-11T09:26:10Z</time>
      </trkpt>
      <trkpt lat="45.69225" lon="3.29806">
        <ele>483.4</ele>
        <time>2024-08-11T09:26:11Z</time>
      </trkpt>
      <trkpt lat="45.69223" lon="3.29803">
        <ele>483.6</ele>
        <time>2024-08-11T09:26:12Z</time>
      </trkpt>
      <trkpt lat="45.69221" lon="3.29798">
        <ele>483.8</ele>
        <time>2024-08-11T09:26:13Z</time>
      </trkpt>
      <trkpt lat="45.6922" lon="3.29795">
        <ele>483.8</ele>
        <time>2024-08-11T09:26:14Z</time>
      </trkpt>
      <trkpt lat="45.69218" lon="3.29791">
        <ele>484</ele>
        <time>2024-08-11T09:26:15Z</time>
      </trkpt>
      <trkpt lat="45.69217" lon="3.29787">
        <ele>484.2</ele>
        <time>2024-08-11T09:26:16Z</time>
      </trkpt>
      <trkpt lat="45.69216" lon="3.29783">
        <ele>484.4</ele>
        <time>2024-08-11T09:26:17Z</time>
      </trkpt>
      <trkpt lat="45.69214" lon="3.2978">
        <ele>484.4</ele>
        <time>2024-08-11T09:26:18Z</time>
      </trkpt>
      <trkpt lat="45.69213" lon="3.29776">
        <ele>484.6</ele>
        <time>2024-08-11T09:26:19Z</time>
      </trkpt>
      <trkpt lat="45.69212" lon="3.29773">
        <ele>484.8</ele>
        <time>2024-08-11T09:26:20Z</time>
      </trkpt>
      <trkpt lat="45.69211" lon="3.29769">
        <ele>485</ele>
        <time>2024-08-11T09:26:21Z</time>
      </trkpt>
      <trkpt lat="45.6921" lon="3.29766">
        <ele>485</ele>
        <time>2024-08-11T09:26:22Z</time>
      </trkpt>
      <trkpt lat="45.69208" lon="3.29763">
        <ele>485.2</ele>
        <time>2024-08-11T09:26:23Z</time>
      </trkpt>
      <trkpt lat="45.69207" lon="3.29759">
        <ele>485.4</ele>
        <time>2024-08-11T09:26:24Z</time>
      </trkpt>
      <trkpt lat="45.69206" lon="3.29756">
        <ele>485.6</ele>
        <time>2024-08-11T09:26:25Z</time>
      </trkpt>
      <trkpt lat="45.69205" lon="3.29752">
        <ele>485.8</ele>
        <time>2024-08-11T09:26:26Z</time>
      </trkpt>
      <trkpt lat="45.69203" lon="3.29749">
        <ele>486</ele>
        <time>2024-08-11T09:26:27Z</time>
      </trkpt>
      <trkpt lat="45.69202" lon="3.29746">
        <ele>486</ele>
        <time>2024-08-11T09:26:28Z</time>
      </trkpt>
      <trkpt lat="45.69201" lon="3.29742">
        <ele>486.2</ele>
        <time>2024-08-11T09:26:29Z</time>
      </trkpt>
      <trkpt lat="45.692" lon="3.29739">
        <ele>486.4</ele>
        <time>2024-08-11T09:26:30Z</time>
      </trkpt>
      <trkpt lat="45.69199" lon="3.29736">
        <ele>486.6</ele>
        <time>2024-08-11T09:26:31Z</time>
      </trkpt>
      <trkpt lat="45.69198" lon="3.29733">
        <ele>486.8</ele>
        <time>2024-08-11T09:26:32Z</time>
      </trkpt>
      <trkpt lat="45.69196" lon="3.29729">
        <ele>486.8</ele>
        <time>2024-08-11T09:26:33Z</time>
      </trkpt>
      <trkpt lat="45.69195" lon="3.29726">
        <ele>487</ele>
        <time>2024-08-11T09:26:34Z</time>
      </trkpt>
      <trkpt lat="45.69194" lon="3.29722">
        <ele>487.2</ele>
        <time>2024-08-11T09:26:35Z</time>
      </trkpt>
      <trkpt lat="45.69193" lon="3.29719">
        <ele>487.4</ele>
        <time>2024-08-11T09:26:36Z</time>
      </trkpt>
      <trkpt lat="45.69191" lon="3.29715">
        <ele>487.6</ele>
        <time>2024-08-11T09:26:37Z</time>
      </trkpt>
      <trkpt lat="45.6919" lon="3.29712">
        <ele>487.6</ele>
        <time>2024-08-11T09:26:38Z</time>
      </trkpt>
      <trkpt lat="45.69189" lon="3.29708">
        <ele>487.8</ele>
        <time>2024-08-11T09:26:39Z</time>
      </trkpt>
      <trkpt lat="45.69188" lon="3.29705">
        <ele>488</ele>
        <time>2024-08-11T09:26:40Z</time>
      </trkpt>
      <trkpt lat="45.69186" lon="3.29701">
        <ele>488.2</ele>
        <time>2024-08-11T09:26:41Z</time>
      </trkpt>
      <trkpt lat="45.69185" lon="3.29698">
        <ele>488.2</ele>
        <time>2024-08-11T09:26:42Z</time>
      </trkpt>
      <trkpt lat="45.69184" lon="3.29694">
        <ele>488.4</ele>
        <time>2024-08-11T09:26:43Z</time>
      </trkpt>
      <trkpt lat="45.69183" lon="3.29691">
        <ele>488.6</ele>
        <time>2024-08-11T09:26:44Z</time>
      </trkpt>
      <trkpt lat="45.69181" lon="3.29687">
        <ele>488.8</ele>
        <time>2024-08-11T09:26:45Z</time>
      </trkpt>
      <trkpt lat="45.6918" lon="3.29684">
        <ele>489</ele>
        <time>2024-08-11T09:26:46Z</time>
      </trkpt>
      <trkpt lat="45.69179" lon="3.2968">
        <ele>489.2</ele>
        <time>2024-08-11T09:26:47Z</time>
      </trkpt>
      <trkpt lat="45.69178" lon="3.29677">
        <ele>489.4</ele>
        <time>2024-08-11T09:26:48Z</time>
      </trkpt>
      <trkpt lat="45.69176" lon="3.29673">
        <ele>489.4</ele>
        <time>2024-08-11T09:26:49Z</time>
      </trkpt>
      <trkpt lat="45.69175" lon="3.2967">
        <ele>489.6</ele>
        <time>2024-08-11T09:26:50Z</time>
      </trkpt>
      <trkpt lat="45.69174" lon="3.29666">
        <ele>489.8</ele>
        <time>2024-08-11T09:26:51Z</time>
      </trkpt>
      <trkpt lat="45.69173" lon="3.29663">
        <ele>490</ele>
        <time>2024-08-11T09:26:52Z</time>
      </trkpt>
      <trkpt lat="45.69171" lon="3.2966">
        <ele>490.2</ele>
        <time>2024-08-11T09:26:53Z</time>
      </trkpt>
      <trkpt lat="45.6917" lon="3.29656">
        <ele>490.4</ele>
        <time>2024-08-11T09:26:54Z</time>
      </trkpt>
      <trkpt lat="45.69169" lon="3.29653">
        <ele>490.4</ele>
        <time>2024-08-11T09:26:55Z</time>
      </trkpt>
      <trkpt lat="45.69167" lon="3.2965">
        <ele>490.6</ele>
        <time>2024-08-11T09:26:56Z</time>
      </trkpt>
      <trkpt lat="45.69165" lon="3.29647">
        <ele>490.8</ele>
        <time>2024-08-11T09:26:57Z</time>
      </trkpt>
      <trkpt lat="45.69164" lon="3.29643">
        <ele>491</ele>
        <time>2024-08-11T09:26:58Z</time>
      </trkpt>
      <trkpt lat="45.69162" lon="3.2964">
        <ele>491.2</ele>
        <time>2024-08-11T09:26:59Z</time>
      </trkpt>
      <trkpt lat="45.6916" lon="3.29637">
        <ele>491.2</ele>
        <time>2024-08-11T09:27:00Z</time>
      </trkpt>
      <trkpt lat="45.69158" lon="3.29634">
        <ele>491.4</ele>
        <time>2024-08-11T09:27:01Z</time>
      </trkpt>
      <trkpt lat="45.69156" lon="3.29631">
        <ele>491.6</ele>
        <time>2024-08-11T09:27:02Z</time>
      </trkpt>
      <trkpt lat="45.69154" lon="3.29628">
        <ele>491.8</ele>
        <time>2024-08-11T09:27:03Z</time>
      </trkpt>
      <trkpt lat="45.69152" lon="3.29625">
        <ele>492</ele>
        <time>2024-08-11T09:27:04Z</time>
      </trkpt>
      <trkpt lat="45.69151" lon="3.29622">
        <ele>492.2</ele>
        <time>2024-08-11T09:27:05Z</time>
      </trkpt>
      <trkpt lat="45.69149" lon="3.29619">
        <ele>492.2</ele>
        <time>2024-08-11T09:27:06Z</time>
      </trkpt>
      <trkpt lat="45.69147" lon="3.29616">
        <ele>492.4</ele>
        <time>2024-08-11T09:27:07Z</time>
      </trkpt>
      <trkpt lat="45.69145" lon="3.29613">
        <ele>492.6</ele>
        <time>2024-08-11T09:27:08Z</time>
      </trkpt>
      <trkpt lat="45.69143" lon="3.2961">
        <ele>492.8</ele>
        <time>2024-08-11T09:27:09Z</time>
      </trkpt>
      <trkpt lat="45.69141" lon="3.29607">
        <ele>493</ele>
        <time>2024-08-11T09:27:10Z</time>
      </trkpt>
      <trkpt lat="45.69139" lon="3.29603">
        <ele>493.2</ele>
        <time>2024-08-11T09:27:11Z</time>
      </trkpt>
      <trkpt lat="45.69137" lon="3.296">
        <ele>493.4</ele>
        <time>2024-08-11T09:27:12Z</time>
      </trkpt>
      <trkpt lat="45.69135" lon="3.29597">
        <ele>493.6</ele>
        <time>2024-08-11T09:27:13Z</time>
      </trkpt>
      <trkpt lat="45.69133" lon="3.29595">
        <ele>493.6</ele>
        <time>2024-08-11T09:27:14Z</time>
      </trkpt>
      <trkpt lat="45.69131" lon="3.29592">
        <ele>493.8</ele>
        <time>2024-08-11T09:27:15Z</time>
      </trkpt>
      <trkpt lat="45.69129" lon="3.29589">
        <ele>494</ele>
        <time>2024-08-11T09:27:16Z</time>
      </trkpt>
      <trkpt lat="45.69126" lon="3.29586">
        <ele>494.2</ele>
        <time>2024-08-11T09:27:17Z</time>
      </trkpt>
      <trkpt lat="45.69124" lon="3.29583">
        <ele>494.2</ele>
        <time>2024-08-11T09:27:18Z</time>
      </trkpt>
      <trkpt lat="45.69122" lon="3.2958">
        <ele>494.4</ele>
        <time>2024-08-11T09:27:19Z</time>
      </trkpt>
      <trkpt lat="45.6912" lon="3.29577">
        <ele>494.6</ele>
        <time>2024-08-11T09:27:20Z</time>
      </trkpt>
      <trkpt lat="45.69118" lon="3.29574">
        <ele>494.8</ele>
        <time>2024-08-11T09:27:21Z</time>
      </trkpt>
      <trkpt lat="45.69116" lon="3.29571">
        <ele>495</ele>
        <time>2024-08-11T09:27:22Z</time>
      </trkpt>
      <trkpt lat="45.69114" lon="3.29568">
        <ele>495.2</ele>
        <time>2024-08-11T09:27:23Z</time>
      </trkpt>
      <trkpt lat="45.69112" lon="3.29566">
        <ele>495.2</ele>
        <time>2024-08-11T09:27:24Z</time>
      </trkpt>
      <trkpt lat="45.6911" lon="3.29563">
        <ele>495.4</ele>
        <time>2024-08-11T09:27:25Z</time>
      </trkpt>
      <trkpt lat="45.69108" lon="3.2956">
        <ele>495.6</ele>
        <time>2024-08-11T09:27:26Z</time>
      </trkpt>
      <trkpt lat="45.69106" lon="3.29557">
        <ele>495.8</ele>
        <time>2024-08-11T09:27:27Z</time>
      </trkpt>
      <trkpt lat="45.69103" lon="3.29554">
        <ele>496</ele>
        <time>2024-08-11T09:27:28Z</time>
      </trkpt>
      <trkpt lat="45.69101" lon="3.29551">
        <ele>496</ele>
        <time>2024-08-11T09:27:29Z</time>
      </trkpt>
      <trkpt lat="45.69099" lon="3.29548">
        <ele>496.2</ele>
        <time>2024-08-11T09:27:30Z</time>
      </trkpt>
      <trkpt lat="45.69097" lon="3.29545">
        <ele>496.4</ele>
        <time>2024-08-11T09:27:31Z</time>
      </trkpt>
      <trkpt lat="45.69095" lon="3.29543">
        <ele>496.6</ele>
        <time>2024-08-11T09:27:32Z</time>
      </trkpt>
      <trkpt lat="45.69093" lon="3.2954">
        <ele>496.8</ele>
        <time>2024-08-11T09:27:33Z</time>
      </trkpt>
      <trkpt lat="45.69091" lon="3.29537">
        <ele>497</ele>
        <time>2024-08-11T09:27:34Z</time>
      </trkpt>
      <trkpt lat="45.69089" lon="3.29534">
        <ele>497.2</ele>
        <time>2024-08-11T09:27:35Z</time>
      </trkpt>
      <trkpt lat="45.69087" lon="3.29532">
        <ele>497.2</ele>
        <time>2024-08-11T09:27:36Z</time>
      </trkpt>
      <trkpt lat="45.69086" lon="3.29529">
        <ele>497.4</ele>
        <time>2024-08-11T09:27:37Z</time>
      </trkpt>
      <trkpt lat="45.69084" lon="3.29527">
        <ele>497.6</ele>
        <time>2024-08-11T09:27:38Z</time>
      </trkpt>
      <trkpt lat="45.69082" lon="3.29524">
        <ele>497.8</ele>
        <time>2024-08-11T09:27:39Z</time>
      </trkpt>
      <trkpt lat="45.6908" lon="3.29521">
        <ele>497.8</ele>
        <time>2024-08-11T09:27:40Z</time>
      </trkpt>
      <trkpt lat="45.69078" lon="3.29519">
        <ele>498</ele>
        <time>2024-08-11T09:27:41Z</time>
      </trkpt>
      <trkpt lat="45.69076" lon="3.29516">
        <ele>498.2</ele>
        <time>2024-08-11T09:27:42Z</time>
      </trkpt>
      <trkpt lat="45.69074" lon="3.29514">
        <ele>498.4</ele>
        <time>2024-08-11T09:27:43Z</time>
      </trkpt>
      <trkpt lat="45.69072" lon="3.29511">
        <ele>498.6</ele>
        <time>2024-08-11T09:27:44Z</time>
      </trkpt>
      <trkpt lat="45.6907" lon="3.29508">
        <ele>498.8</ele>
        <time>2024-08-11T09:27:45Z</time>
      </trkpt>
      <trkpt lat="45.69069" lon="3.29506">
        <ele>498.8</ele>
        <time>2024-08-11T09:27:46Z</time>
      </trkpt>
      <trkpt lat="45.69067" lon="3.29503">
        <ele>499</ele>
        <time>2024-08-11T09:27:47Z</time>
      </trkpt>
      <trkpt lat="45.69065" lon="3.29501">
        <ele>499.2</ele>
        <time>2024-08-11T09:27:48Z</time>
      </trkpt>
      <trkpt lat="45.69063" lon="3.29498">
        <ele>499.4</ele>
        <time>2024-08-11T09:27:49Z</time>
      </trkpt>
      <trkpt lat="45.69061" lon="3.29496">
        <ele>499.4</ele>
        <time>2024-08-11T09:27:50Z</time>
      </trkpt>
      <trkpt lat="45.69059" lon="3.29493">
        <ele>499.6</ele>
        <time>2024-08-11T09:27:51Z</time>
      </trkpt>
      <trkpt lat="45.69057" lon="3.2949">
        <ele>499.8</ele>
        <time>2024-08-11T09:27:52Z</time>
      </trkpt>
      <trkpt lat="45.69055" lon="3.29486">
        <ele>500</ele>
        <time>2024-08-11T09:27:53Z</time>
      </trkpt>
      <trkpt lat="45.69052" lon="3.29483">
        <ele>500</ele>
        <time>2024-08-11T09:27:54Z</time>
      </trkpt>
      <trkpt lat="45.6905" lon="3.2948">
        <ele>500.2</ele>
        <time>2024-08-11T09:27:55Z</time>
      </trkpt>
      <trkpt lat="45.69048" lon="3.29477">
        <ele>500.4</ele>
        <time>2024-08-11T09:27:56Z</time>
      </trkpt>
      <trkpt lat="45.69046" lon="3.29474">
        <ele>500.6</ele>
        <time>2024-08-11T09:27:57Z</time>
      </trkpt>
      <trkpt lat="45.69044" lon="3.29471">
        <ele>500.6</ele>
        <time>2024-08-11T09:27:58Z</time>
      </trkpt>
      <trkpt lat="45.69042" lon="3.29468">
        <ele>500.8</ele>
        <time>2024-08-11T09:27:59Z</time>
      </trkpt>
      <trkpt lat="45.69039" lon="3.29466">
        <ele>501</ele>
        <time>2024-08-11T09:28:00Z</time>
      </trkpt>
      <trkpt lat="45.69037" lon="3.29463">
        <ele>501.2</ele>
        <time>2024-08-11T09:28:01Z</time>
      </trkpt>
      <trkpt lat="45.69035" lon="3.2946">
        <ele>501.4</ele>
        <time>2024-08-11T09:28:02Z</time>
      </trkpt>
      <trkpt lat="45.69033" lon="3.29457">
        <ele>501.6</ele>
        <time>2024-08-11T09:28:03Z</time>
      </trkpt>
      <trkpt lat="45.69031" lon="3.29454">
        <ele>501.6</ele>
        <time>2024-08-11T09:28:04Z</time>
      </trkpt>
      <trkpt lat="45.69029" lon="3.29452">
        <ele>501.8</ele>
        <time>2024-08-11T09:28:05Z</time>
      </trkpt>
      <trkpt lat="45.69027" lon="3.29449">
        <ele>502</ele>
        <time>2024-08-11T09:28:06Z</time>
      </trkpt>
      <trkpt lat="45.69025" lon="3.29446">
        <ele>502.2</ele>
        <time>2024-08-11T09:28:07Z</time>
      </trkpt>
      <trkpt lat="45.69024" lon="3.29443">
        <ele>502.2</ele>
        <time>2024-08-11T09:28:08Z</time>
      </trkpt>
      <trkpt lat="45.69022" lon="3.29441">
        <ele>502.4</ele>
        <time>2024-08-11T09:28:09Z</time>
      </trkpt>
      <trkpt lat="45.6902" lon="3.29438">
        <ele>502.6</ele>
        <time>2024-08-11T09:28:10Z</time>
      </trkpt>
      <trkpt lat="45.69018" lon="3.29436">
        <ele>502.8</ele>
        <time>2024-08-11T09:28:11Z</time>
      </trkpt>
      <trkpt lat="45.69016" lon="3.29433">
        <ele>503</ele>
        <time>2024-08-11T09:28:12Z</time>
      </trkpt>
      <trkpt lat="45.69014" lon="3.29431">
        <ele>503.2</ele>
        <time>2024-08-11T09:28:13Z</time>
      </trkpt>
      <trkpt lat="45.69013" lon="3.29428">
        <ele>503.4</ele>
        <time>2024-08-11T09:28:14Z</time>
      </trkpt>
      <trkpt lat="45.69011" lon="3.29426">
        <ele>503.6</ele>
        <time>2024-08-11T09:28:15Z</time>
      </trkpt>
      <trkpt lat="45.69009" lon="3.29423">
        <ele>503.8</ele>
        <time>2024-08-11T09:28:16Z</time>
      </trkpt>
      <trkpt lat="45.69007" lon="3.29421">
        <ele>503.8</ele>
        <time>2024-08-11T09:28:17Z</time>
      </trkpt>
      <trkpt lat="45.69005" lon="3.29418">
        <ele>504</ele>
        <time>2024-08-11T09:28:18Z</time>
      </trkpt>
      <trkpt lat="45.69003" lon="3.29416">
        <ele>504.2</ele>
        <time>2024-08-11T09:28:19Z</time>
      </trkpt>
      <trkpt lat="45.69001" lon="3.29413">
        <ele>504.4</ele>
        <time>2024-08-11T09:28:20Z</time>
      </trkpt>
      <trkpt lat="45.69" lon="3.2941">
        <ele>504.6</ele>
        <time>2024-08-11T09:28:21Z</time>
      </trkpt>
      <trkpt lat="45.68998" lon="3.29408">
        <ele>504.8</ele>
        <time>2024-08-11T09:28:22Z</time>
      </trkpt>
      <trkpt lat="45.68996" lon="3.29405">
        <ele>505</ele>
        <time>2024-08-11T09:28:23Z</time>
      </trkpt>
      <trkpt lat="45.68994" lon="3.29403">
        <ele>505</ele>
        <time>2024-08-11T09:28:24Z</time>
      </trkpt>
      <trkpt lat="45.68992" lon="3.29401">
        <ele>505.2</ele>
        <time>2024-08-11T09:28:25Z</time>
      </trkpt>
      <trkpt lat="45.68991" lon="3.29398">
        <ele>505.4</ele>
        <time>2024-08-11T09:28:26Z</time>
      </trkpt>
      <trkpt lat="45.68989" lon="3.29396">
        <ele>505.6</ele>
        <time>2024-08-11T09:28:27Z</time>
      </trkpt>
      <trkpt lat="45.68987" lon="3.29393">
        <ele>505.8</ele>
        <time>2024-08-11T09:28:28Z</time>
      </trkpt>
      <trkpt lat="45.68986" lon="3.29391">
        <ele>505.8</ele>
        <time>2024-08-11T09:28:29Z</time>
      </trkpt>
      <trkpt lat="45.68984" lon="3.29389">
        <ele>506</ele>
        <time>2024-08-11T09:28:30Z</time>
      </trkpt>
      <trkpt lat="45.68982" lon="3.29387">
        <ele>506.2</ele>
        <time>2024-08-11T09:28:31Z</time>
      </trkpt>
      <trkpt lat="45.68981" lon="3.29384">
        <ele>506.2</ele>
        <time>2024-08-11T09:28:32Z</time>
      </trkpt>
      <trkpt lat="45.68979" lon="3.29382">
        <ele>506.4</ele>
        <time>2024-08-11T09:28:33Z</time>
      </trkpt>
      <trkpt lat="45.68977" lon="3.2938">
        <ele>506.6</ele>
        <time>2024-08-11T09:28:34Z</time>
      </trkpt>
      <trkpt lat="45.68976" lon="3.29377">
        <ele>506.8</ele>
        <time>2024-08-11T09:28:35Z</time>
      </trkpt>
      <trkpt lat="45.68974" lon="3.29375">
        <ele>506.8</ele>
        <time>2024-08-11T09:28:36Z</time>
      </trkpt>
      <trkpt lat="45.68972" lon="3.29372">
        <ele>507</ele>
        <time>2024-08-11T09:28:37Z</time>
      </trkpt>
      <trkpt lat="45.6897" lon="3.2937">
        <ele>507.2</ele>
        <time>2024-08-11T09:28:38Z</time>
      </trkpt>
      <trkpt lat="45.68969" lon="3.29368">
        <ele>507.2</ele>
        <time>2024-08-11T09:28:39Z</time>
      </trkpt>
      <trkpt lat="45.68967" lon="3.29365">
        <ele>507.4</ele>
        <time>2024-08-11T09:28:40Z</time>
      </trkpt>
      <trkpt lat="45.68965" lon="3.29363">
        <ele>507.4</ele>
        <time>2024-08-11T09:28:41Z</time>
      </trkpt>
      <trkpt lat="45.68963" lon="3.2936">
        <ele>507.6</ele>
        <time>2024-08-11T09:28:42Z</time>
      </trkpt>
      <trkpt lat="45.68962" lon="3.29358">
        <ele>507.8</ele>
        <time>2024-08-11T09:28:43Z</time>
      </trkpt>
      <trkpt lat="45.6896" lon="3.29355">
        <ele>507.8</ele>
        <time>2024-08-11T09:28:44Z</time>
      </trkpt>
      <trkpt lat="45.68958" lon="3.29353">
        <ele>508</ele>
        <time>2024-08-11T09:28:45Z</time>
      </trkpt>
      <trkpt lat="45.68956" lon="3.2935">
        <ele>508</ele>
        <time>2024-08-11T09:28:46Z</time>
      </trkpt>
      <trkpt lat="45.68954" lon="3.29348">
        <ele>508</ele>
        <time>2024-08-11T09:28:47Z</time>
      </trkpt>
      <trkpt lat="45.68953" lon="3.29345">
        <ele>508.2</ele>
        <time>2024-08-11T09:28:48Z</time>
      </trkpt>
      <trkpt lat="45.68951" lon="3.29343">
        <ele>508.2</ele>
        <time>2024-08-11T09:28:49Z</time>
      </trkpt>
      <trkpt lat="45.68949" lon="3.29341">
        <ele>508.2</ele>
        <time>2024-08-11T09:28:50Z</time>
      </trkpt>
      <trkpt lat="45.68947" lon="3.29338">
        <ele>508.4</ele>
        <time>2024-08-11T09:28:51Z</time>
      </trkpt>
      <trkpt lat="45.68946" lon="3.29335">
        <ele>508.4</ele>
        <time>2024-08-11T09:28:52Z</time>
      </trkpt>
      <trkpt lat="45.68944" lon="3.29332">
        <ele>508.4</ele>
        <time>2024-08-11T09:28:53Z</time>
      </trkpt>
      <trkpt lat="45.68942" lon="3.29329">
        <ele>508.4</ele>
        <time>2024-08-11T09:28:54Z</time>
      </trkpt>
      <trkpt lat="45.68941" lon="3.29327">
        <ele>508.6</ele>
        <time>2024-08-11T09:28:55Z</time>
      </trkpt>
      <trkpt lat="45.68939" lon="3.29324">
        <ele>508.6</ele>
        <time>2024-08-11T09:28:56Z</time>
      </trkpt>
      <trkpt lat="45.68937" lon="3.29321">
        <ele>508.6</ele>
        <time>2024-08-11T09:28:57Z</time>
      </trkpt>
      <trkpt lat="45.68936" lon="3.29319">
        <ele>508.6</ele>
        <time>2024-08-11T09:28:58Z</time>
      </trkpt>
      <trkpt lat="45.68934" lon="3.29316">
        <ele>508.6</ele>
        <time>2024-08-11T09:28:59Z</time>
      </trkpt>
      <trkpt lat="45.68933" lon="3.29313">
        <ele>508.6</ele>
        <time>2024-08-11T09:29:00Z</time>
      </trkpt>
      <trkpt lat="45.68931" lon="3.29311">
        <ele>508.6</ele>
        <time>2024-08-11T09:29:01Z</time>
      </trkpt>
      <trkpt lat="45.6893" lon="3.29308">
        <ele>508.6</ele>
        <time>2024-08-11T09:29:02Z</time>
      </trkpt>
      <trkpt lat="45.68928" lon="3.29305">
        <ele>508.6</ele>
        <time>2024-08-11T09:29:03Z</time>
      </trkpt>
      <trkpt lat="45.68926" lon="3.29302">
        <ele>508.6</ele>
        <time>2024-08-11T09:29:04Z</time>
      </trkpt>
      <trkpt lat="45.68925" lon="3.293">
        <ele>508.6</ele>
        <time>2024-08-11T09:29:05Z</time>
      </trkpt>
      <trkpt lat="45.68923" lon="3.29297">
        <ele>508.6</ele>
        <time>2024-08-11T09:29:06Z</time>
      </trkpt>
      <trkpt lat="45.68922" lon="3.29294">
        <ele>508.6</ele>
        <time>2024-08-11T09:29:07Z</time>
      </trkpt>
      <trkpt lat="45.6892" lon="3.29291">
        <ele>508.6</ele>
        <time>2024-08-11T09:29:08Z</time>
      </trkpt>
      <trkpt lat="45.68918" lon="3.29289">
        <ele>508.6</ele>
        <time>2024-08-11T09:29:09Z</time>
      </trkpt>
      <trkpt lat="45.68917" lon="3.29286">
        <ele>508.6</ele>
        <time>2024-08-11T09:29:10Z</time>
      </trkpt>
      <trkpt lat="45.68915" lon="3.29283">
        <ele>508.6</ele>
        <time>2024-08-11T09:29:11Z</time>
      </trkpt>
      <trkpt lat="45.68913" lon="3.2928">
        <ele>508.6</ele>
        <time>2024-08-11T09:29:12Z</time>
      </trkpt>
      <trkpt lat="45.68912" lon="3.29277">
        <ele>508.6</ele>
        <time>2024-08-11T09:29:13Z</time>
      </trkpt>
      <trkpt lat="45.6891" lon="3.29273">
        <ele>508.4</ele>
        <time>2024-08-11T09:29:14Z</time>
      </trkpt>
      <trkpt lat="45.68909" lon="3.29269">
        <ele>509</ele>
        <time>2024-08-11T09:29:15Z</time>
      </trkpt>
      <trkpt lat="45.68907" lon="3.29266">
        <ele>508.8</ele>
        <time>2024-08-11T09:29:16Z</time>
      </trkpt>
      <trkpt lat="45.68906" lon="3.29263">
        <ele>508.4</ele>
        <time>2024-08-11T09:29:17Z</time>
      </trkpt>
      <trkpt lat="45.68905" lon="3.2926">
        <ele>508</ele>
        <time>2024-08-11T09:29:18Z</time>
      </trkpt>
      <trkpt lat="45.68904" lon="3.29257">
        <ele>508</ele>
        <time>2024-08-11T09:29:19Z</time>
      </trkpt>
      <trkpt lat="45.68902" lon="3.29254">
        <ele>508.2</ele>
        <time>2024-08-11T09:29:20Z</time>
      </trkpt>
      <trkpt lat="45.68901" lon="3.29251">
        <ele>508.2</ele>
        <time>2024-08-11T09:29:21Z</time>
      </trkpt>
      <trkpt lat="45.689" lon="3.29248">
        <ele>508.2</ele>
        <time>2024-08-11T09:29:22Z</time>
      </trkpt>
      <trkpt lat="45.68899" lon="3.29244">
        <ele>508.2</ele>
        <time>2024-08-11T09:29:23Z</time>
      </trkpt>
      <trkpt lat="45.68897" lon="3.29241">
        <ele>508.2</ele>
        <time>2024-08-11T09:29:24Z</time>
      </trkpt>
      <trkpt lat="45.68896" lon="3.29238">
        <ele>508.2</ele>
        <time>2024-08-11T09:29:25Z</time>
      </trkpt>
      <trkpt lat="45.68895" lon="3.29235">
        <ele>508.2</ele>
        <time>2024-08-11T09:29:26Z</time>
      </trkpt>
      <trkpt lat="45.68894" lon="3.29232">
        <ele>508.2</ele>
        <time>2024-08-11T09:29:27Z</time>
      </trkpt>
      <trkpt lat="45.68892" lon="3.29229">
        <ele>508.2</ele>
        <time>2024-08-11T09:29:28Z</time>
      </trkpt>
      <trkpt lat="45.68891" lon="3.29225">
        <ele>508.2</ele>
        <time>2024-08-11T09:29:29Z</time>
      </trkpt>
      <trkpt lat="45.6889" lon="3.29222">
        <ele>508.2</ele>
        <time>2024-08-11T09:29:30Z</time>
      </trkpt>
      <trkpt lat="45.68888" lon="3.29219">
        <ele>508.8</ele>
        <time>2024-08-11T09:29:31Z</time>
      </trkpt>
      <trkpt lat="45.68887" lon="3.29215">
        <ele>508.6</ele>
        <time>2024-08-11T09:29:32Z</time>
      </trkpt>
      <trkpt lat="45.68886" lon="3.29212">
        <ele>508.6</ele>
        <time>2024-08-11T09:29:33Z</time>
      </trkpt>
      <trkpt lat="45.68885" lon="3.29209">
        <ele>508.8</ele>
        <time>2024-08-11T09:29:34Z</time>
      </trkpt>
      <trkpt lat="45.68883" lon="3.29206">
        <ele>508.8</ele>
        <time>2024-08-11T09:29:35Z</time>
      </trkpt>
      <trkpt lat="45.68882" lon="3.29202">
        <ele>508.8</ele>
        <time>2024-08-11T09:29:36Z</time>
      </trkpt>
      <trkpt lat="45.68881" lon="3.29199">
        <ele>509</ele>
        <time>2024-08-11T09:29:37Z</time>
      </trkpt>
      <trkpt lat="45.68879" lon="3.29196">
        <ele>509</ele>
        <time>2024-08-11T09:29:38Z</time>
      </trkpt>
      <trkpt lat="45.68878" lon="3.29192">
        <ele>509</ele>
        <time>2024-08-11T09:29:39Z</time>
      </trkpt>
      <trkpt lat="45.68877" lon="3.29188">
        <ele>509.2</ele>
        <time>2024-08-11T09:29:40Z</time>
      </trkpt>
      <trkpt lat="45.68877" lon="3.29185">
        <ele>509.4</ele>
        <time>2024-08-11T09:29:41Z</time>
      </trkpt>
      <trkpt lat="45.68876" lon="3.29181">
        <ele>509.6</ele>
        <time>2024-08-11T09:29:42Z</time>
      </trkpt>
      <trkpt lat="45.68875" lon="3.29178">
        <ele>509.8</ele>
        <time>2024-08-11T09:29:43Z</time>
      </trkpt>
      <trkpt lat="45.68874" lon="3.29175">
        <ele>510</ele>
        <time>2024-08-11T09:29:44Z</time>
      </trkpt>
      <trkpt lat="45.68873" lon="3.29171">
        <ele>510.2</ele>
        <time>2024-08-11T09:29:45Z</time>
      </trkpt>
      <trkpt lat="45.68872" lon="3.29168">
        <ele>510.4</ele>
        <time>2024-08-11T09:29:46Z</time>
      </trkpt>
      <trkpt lat="45.68871" lon="3.29164">
        <ele>510.6</ele>
        <time>2024-08-11T09:29:47Z</time>
      </trkpt>
      <trkpt lat="45.6887" lon="3.29161">
        <ele>510.8</ele>
        <time>2024-08-11T09:29:48Z</time>
      </trkpt>
      <trkpt lat="45.68869" lon="3.29157">
        <ele>511</ele>
        <time>2024-08-11T09:29:49Z</time>
      </trkpt>
      <trkpt lat="45.68868" lon="3.29154">
        <ele>511.2</ele>
        <time>2024-08-11T09:29:50Z</time>
      </trkpt>
      <trkpt lat="45.68868" lon="3.2915">
        <ele>511.4</ele>
        <time>2024-08-11T09:29:51Z</time>
      </trkpt>
      <trkpt lat="45.68867" lon="3.29147">
        <ele>511.6</ele>
        <time>2024-08-11T09:29:52Z</time>
      </trkpt>
      <trkpt lat="45.68866" lon="3.29143">
        <ele>511.6</ele>
        <time>2024-08-11T09:29:53Z</time>
      </trkpt>
      <trkpt lat="45.68865" lon="3.29139">
        <ele>511.8</ele>
        <time>2024-08-11T09:29:54Z</time>
      </trkpt>
      <trkpt lat="45.68864" lon="3.29136">
        <ele>512</ele>
        <time>2024-08-11T09:29:55Z</time>
      </trkpt>
      <trkpt lat="45.68863" lon="3.29132">
        <ele>512.2</ele>
        <time>2024-08-11T09:29:56Z</time>
      </trkpt>
      <trkpt lat="45.68862" lon="3.29129">
        <ele>512.4</ele>
        <time>2024-08-11T09:29:57Z</time>
      </trkpt>
      <trkpt lat="45.68861" lon="3.29125">
        <ele>512.6</ele>
        <time>2024-08-11T09:29:58Z</time>
      </trkpt>
      <trkpt lat="45.6886" lon="3.29121">
        <ele>512.8</ele>
        <time>2024-08-11T09:29:59Z</time>
      </trkpt>
      <trkpt lat="45.68859" lon="3.29118">
        <ele>513</ele>
        <time>2024-08-11T09:30:00Z</time>
      </trkpt>
      <trkpt lat="45.68858" lon="3.29114">
        <ele>513.2</ele>
        <time>2024-08-11T09:30:01Z</time>
      </trkpt>
      <trkpt lat="45.68857" lon="3.2911">
        <ele>513.4</ele>
        <time>2024-08-11T09:30:02Z</time>
      </trkpt>
      <trkpt lat="45.68856" lon="3.29107">
        <ele>513.6</ele>
        <time>2024-08-11T09:30:03Z</time>
      </trkpt>
      <trkpt lat="45.68855" lon="3.29103">
        <ele>513.6</ele>
        <time>2024-08-11T09:30:04Z</time>
      </trkpt>
      <trkpt lat="45.68854" lon="3.291">
        <ele>513.8</ele>
        <time>2024-08-11T09:30:05Z</time>
      </trkpt>
      <trkpt lat="45.68853" lon="3.29096">
        <ele>514.2</ele>
        <time>2024-08-11T09:30:06Z</time>
      </trkpt>
      <trkpt lat="45.68853" lon="3.29092">
        <ele>514.4</ele>
        <time>2024-08-11T09:30:07Z</time>
      </trkpt>
      <trkpt lat="45.68852" lon="3.29089">
        <ele>514.6</ele>
        <time>2024-08-11T09:30:08Z</time>
      </trkpt>
      <trkpt lat="45.68851" lon="3.29085">
        <ele>514.6</ele>
        <time>2024-08-11T09:30:09Z</time>
      </trkpt>
      <trkpt lat="45.6885" lon="3.29081">
        <ele>514.8</ele>
        <time>2024-08-11T09:30:10Z</time>
      </trkpt>
      <trkpt lat="45.68849" lon="3.29077">
        <ele>515.2</ele>
        <time>2024-08-11T09:30:11Z</time>
      </trkpt>
      <trkpt lat="45.68848" lon="3.29073">
        <ele>515.4</ele>
        <time>2024-08-11T09:30:12Z</time>
      </trkpt>
      <trkpt lat="45.68847" lon="3.2907">
        <ele>515.6</ele>
        <time>2024-08-11T09:30:13Z</time>
      </trkpt>
      <trkpt lat="45.68846" lon="3.29066">
        <ele>515.8</ele>
        <time>2024-08-11T09:30:14Z</time>
      </trkpt>
      <trkpt lat="45.68845" lon="3.29062">
        <ele>516</ele>
        <time>2024-08-11T09:30:15Z</time>
      </trkpt>
      <trkpt lat="45.68844" lon="3.29058">
        <ele>516.2</ele>
        <time>2024-08-11T09:30:16Z</time>
      </trkpt>
      <trkpt lat="45.68843" lon="3.29054">
        <ele>516.4</ele>
        <time>2024-08-11T09:30:17Z</time>
      </trkpt>
      <trkpt lat="45.68841" lon="3.2905">
        <ele>516.6</ele>
        <time>2024-08-11T09:30:18Z</time>
      </trkpt>
      <trkpt lat="45.6884" lon="3.29046">
        <ele>517</ele>
        <time>2024-08-11T09:30:19Z</time>
      </trkpt>
      <trkpt lat="45.68839" lon="3.29042">
        <ele>517.2</ele>
        <time>2024-08-11T09:30:20Z</time>
      </trkpt>
      <trkpt lat="45.68838" lon="3.29039">
        <ele>517.4</ele>
        <time>2024-08-11T09:30:21Z</time>
      </trkpt>
      <trkpt lat="45.68837" lon="3.29035">
        <ele>517.6</ele>
        <time>2024-08-11T09:30:22Z</time>
      </trkpt>
      <trkpt lat="45.68836" lon="3.29031">
        <ele>517.8</ele>
        <time>2024-08-11T09:30:23Z</time>
      </trkpt>
      <trkpt lat="45.68835" lon="3.29027">
        <ele>518</ele>
        <time>2024-08-11T09:30:24Z</time>
      </trkpt>
      <trkpt lat="45.68834" lon="3.29023">
        <ele>518.2</ele>
        <time>2024-08-11T09:30:25Z</time>
      </trkpt>
      <trkpt lat="45.68833" lon="3.29019">
        <ele>518.4</ele>
        <time>2024-08-11T09:30:26Z</time>
      </trkpt>
      <trkpt lat="45.68832" lon="3.29015">
        <ele>518.6</ele>
        <time>2024-08-11T09:30:27Z</time>
      </trkpt>
      <trkpt lat="45.68831" lon="3.29011">
        <ele>518.8</ele>
        <time>2024-08-11T09:30:28Z</time>
      </trkpt>
      <trkpt lat="45.6883" lon="3.29008">
        <ele>519</ele>
        <time>2024-08-11T09:30:29Z</time>
      </trkpt>
      <trkpt lat="45.68829" lon="3.29004">
        <ele>519.2</ele>
        <time>2024-08-11T09:30:30Z</time>
      </trkpt>
      <trkpt lat="45.68828" lon="3.29">
        <ele>519.4</ele>
        <time>2024-08-11T09:30:31Z</time>
      </trkpt>
      <trkpt lat="45.68827" lon="3.28997">
        <ele>519.6</ele>
        <time>2024-08-11T09:30:32Z</time>
      </trkpt>
      <trkpt lat="45.68826" lon="3.28993">
        <ele>519.8</ele>
        <time>2024-08-11T09:30:33Z</time>
      </trkpt>
      <trkpt lat="45.68825" lon="3.28989">
        <ele>520</ele>
        <time>2024-08-11T09:30:34Z</time>
      </trkpt>
      <trkpt lat="45.68824" lon="3.28986">
        <ele>520.2</ele>
        <time>2024-08-11T09:30:35Z</time>
      </trkpt>
      <trkpt lat="45.68823" lon="3.28982">
        <ele>520.4</ele>
        <time>2024-08-11T09:30:36Z</time>
      </trkpt>
      <trkpt lat="45.68822" lon="3.28979">
        <ele>520.6</ele>
        <time>2024-08-11T09:30:37Z</time>
      </trkpt>
      <trkpt lat="45.68821" lon="3.28975">
        <ele>520.8</ele>
        <time>2024-08-11T09:30:38Z</time>
      </trkpt>
      <trkpt lat="45.6882" lon="3.28972">
        <ele>521</ele>
        <time>2024-08-11T09:30:39Z</time>
      </trkpt>
      <trkpt lat="45.68819" lon="3.28968">
        <ele>521.2</ele>
        <time>2024-08-11T09:30:40Z</time>
      </trkpt>
      <trkpt lat="45.68818" lon="3.28964">
        <ele>521.4</ele>
        <time>2024-08-11T09:30:41Z</time>
      </trkpt>
      <trkpt lat="45.68817" lon="3.28961">
        <ele>521.6</ele>
        <time>2024-08-11T09:30:42Z</time>
      </trkpt>
      <trkpt lat="45.68816" lon="3.28957">
        <ele>521.8</ele>
        <time>2024-08-11T09:30:43Z</time>
      </trkpt>
      <trkpt lat="45.68815" lon="3.28954">
        <ele>522</ele>
        <time>2024-08-11T09:30:44Z</time>
      </trkpt>
      <trkpt lat="45.68815" lon="3.2895">
        <ele>522.2</ele>
        <time>2024-08-11T09:30:45Z</time>
      </trkpt>
      <trkpt lat="45.68814" lon="3.28947">
        <ele>522.6</ele>
        <time>2024-08-11T09:30:46Z</time>
      </trkpt>
      <trkpt lat="45.68813" lon="3.28943">
        <ele>522.8</ele>
        <time>2024-08-11T09:30:47Z</time>
      </trkpt>
      <trkpt lat="45.68812" lon="3.2894">
        <ele>523</ele>
        <time>2024-08-11T09:30:48Z</time>
      </trkpt>
      <trkpt lat="45.68811" lon="3.28936">
        <ele>523.2</ele>
        <time>2024-08-11T09:30:49Z</time>
      </trkpt>
      <trkpt lat="45.6881" lon="3.28933">
        <ele>523.6</ele>
        <time>2024-08-11T09:30:50Z</time>
      </trkpt>
      <trkpt lat="45.68809" lon="3.28929">
        <ele>523.8</ele>
        <time>2024-08-11T09:30:51Z</time>
      </trkpt>
      <trkpt lat="45.68808" lon="3.28926">
        <ele>524</ele>
        <time>2024-08-11T09:30:52Z</time>
      </trkpt>
      <trkpt lat="45.68807" lon="3.28923">
        <ele>524.4</ele>
        <time>2024-08-11T09:30:53Z</time>
      </trkpt>
      <trkpt lat="45.68806" lon="3.28919">
        <ele>524.6</ele>
        <time>2024-08-11T09:30:54Z</time>
      </trkpt>
      <trkpt lat="45.68805" lon="3.28916">
        <ele>524.8</ele>
        <time>2024-08-11T09:30:55Z</time>
      </trkpt>
      <trkpt lat="45.68804" lon="3.28912">
        <ele>525.2</ele>
        <time>2024-08-11T09:30:56Z</time>
      </trkpt>
      <trkpt lat="45.68803" lon="3.28909">
        <ele>525.4</ele>
        <time>2024-08-11T09:30:57Z</time>
      </trkpt>
      <trkpt lat="45.68802" lon="3.28905">
        <ele>525.6</ele>
        <time>2024-08-11T09:30:58Z</time>
      </trkpt>
      <trkpt lat="45.68801" lon="3.28902">
        <ele>525.8</ele>
        <time>2024-08-11T09:30:59Z</time>
      </trkpt>
      <trkpt lat="45.688" lon="3.28898">
        <ele>526.2</ele>
        <time>2024-08-11T09:31:00Z</time>
      </trkpt>
      <trkpt lat="45.688" lon="3.28895">
        <ele>526.4</ele>
        <time>2024-08-11T09:31:01Z</time>
      </trkpt>
      <trkpt lat="45.68799" lon="3.28891">
        <ele>526.6</ele>
        <time>2024-08-11T09:31:02Z</time>
      </trkpt>
      <trkpt lat="45.68798" lon="3.28888">
        <ele>527</ele>
        <time>2024-08-11T09:31:03Z</time>
      </trkpt>
      <trkpt lat="45.68797" lon="3.28884">
        <ele>527.2</ele>
        <time>2024-08-11T09:31:04Z</time>
      </trkpt>
      <trkpt lat="45.68796" lon="3.28881">
        <ele>527.4</ele>
        <time>2024-08-11T09:31:05Z</time>
      </trkpt>
      <trkpt lat="45.68795" lon="3.28877">
        <ele>527.6</ele>
        <time>2024-08-11T09:31:06Z</time>
      </trkpt>
      <trkpt lat="45.68794" lon="3.28874">
        <ele>528</ele>
        <time>2024-08-11T09:31:07Z</time>
      </trkpt>
      <trkpt lat="45.68793" lon="3.28871">
        <ele>528.2</ele>
        <time>2024-08-11T09:31:08Z</time>
      </trkpt>
      <trkpt lat="45.68792" lon="3.28867">
        <ele>528.4</ele>
        <time>2024-08-11T09:31:09Z</time>
      </trkpt>
      <trkpt lat="45.68791" lon="3.28864">
        <ele>528.6</ele>
        <time>2024-08-11T09:31:10Z</time>
      </trkpt>
      <trkpt lat="45.6879" lon="3.2886">
        <ele>528.8</ele>
        <time>2024-08-11T09:31:11Z</time>
      </trkpt>
      <trkpt lat="45.68789" lon="3.28857">
        <ele>529</ele>
        <time>2024-08-11T09:31:12Z</time>
      </trkpt>
      <trkpt lat="45.68788" lon="3.28853">
        <ele>529.2</ele>
        <time>2024-08-11T09:31:13Z</time>
      </trkpt>
      <trkpt lat="45.68787" lon="3.28849">
        <ele>529.4</ele>
        <time>2024-08-11T09:31:14Z</time>
      </trkpt>
      <trkpt lat="45.68786" lon="3.28846">
        <ele>529.6</ele>
        <time>2024-08-11T09:31:15Z</time>
      </trkpt>
      <trkpt lat="45.68785" lon="3.28843">
        <ele>529.8</ele>
        <time>2024-08-11T09:31:16Z</time>
      </trkpt>
      <trkpt lat="45.68784" lon="3.28839">
        <ele>530.2</ele>
        <time>2024-08-11T09:31:17Z</time>
      </trkpt>
      <trkpt lat="45.68783" lon="3.28835">
        <ele>530.4</ele>
        <time>2024-08-11T09:31:18Z</time>
      </trkpt>
      <trkpt lat="45.68782" lon="3.2883">
        <ele>530.6</ele>
        <time>2024-08-11T09:31:19Z</time>
      </trkpt>
      <trkpt lat="45.68781" lon="3.28826">
        <ele>530.8</ele>
        <time>2024-08-11T09:31:20Z</time>
      </trkpt>
      <trkpt lat="45.6878" lon="3.28822">
        <ele>531</ele>
        <time>2024-08-11T09:31:21Z</time>
      </trkpt>
      <trkpt lat="45.68779" lon="3.28817">
        <ele>531.2</ele>
        <time>2024-08-11T09:31:22Z</time>
      </trkpt>
      <trkpt lat="45.68777" lon="3.28813">
        <ele>531.6</ele>
        <time>2024-08-11T09:31:23Z</time>
      </trkpt>
      <trkpt lat="45.68776" lon="3.28808">
        <ele>531.8</ele>
        <time>2024-08-11T09:31:24Z</time>
      </trkpt>
      <trkpt lat="45.68775" lon="3.28804">
        <ele>532</ele>
        <time>2024-08-11T09:31:25Z</time>
      </trkpt>
      <trkpt lat="45.68774" lon="3.288">
        <ele>532.2</ele>
        <time>2024-08-11T09:31:26Z</time>
      </trkpt>
      <trkpt lat="45.68773" lon="3.28796">
        <ele>532.4</ele>
        <time>2024-08-11T09:31:27Z</time>
      </trkpt>
      <trkpt lat="45.68772" lon="3.28793">
        <ele>532.6</ele>
        <time>2024-08-11T09:31:28Z</time>
      </trkpt>
      <trkpt lat="45.68771" lon="3.28789">
        <ele>532.8</ele>
        <time>2024-08-11T09:31:29Z</time>
      </trkpt>
      <trkpt lat="45.6877" lon="3.28785">
        <ele>533</ele>
        <time>2024-08-11T09:31:30Z</time>
      </trkpt>
      <trkpt lat="45.68769" lon="3.28781">
        <ele>533.2</ele>
        <time>2024-08-11T09:31:31Z</time>
      </trkpt>
      <trkpt lat="45.68768" lon="3.28777">
        <ele>533.4</ele>
        <time>2024-08-11T09:31:32Z</time>
      </trkpt>
      <trkpt lat="45.68767" lon="3.28773">
        <ele>533.6</ele>
        <time>2024-08-11T09:31:33Z</time>
      </trkpt>
      <trkpt lat="45.68766" lon="3.2877">
        <ele>533.8</ele>
        <time>2024-08-11T09:31:34Z</time>
      </trkpt>
      <trkpt lat="45.68765" lon="3.28766">
        <ele>534</ele>
        <time>2024-08-11T09:31:35Z</time>
      </trkpt>
      <trkpt lat="45.68764" lon="3.28762">
        <ele>534.2</ele>
        <time>2024-08-11T09:31:36Z</time>
      </trkpt>
      <trkpt lat="45.68763" lon="3.28758">
        <ele>534.4</ele>
        <time>2024-08-11T09:31:37Z</time>
      </trkpt>
      <trkpt lat="45.68762" lon="3.28755">
        <ele>534.6</ele>
        <time>2024-08-11T09:31:38Z</time>
      </trkpt>
      <trkpt lat="45.68761" lon="3.28751">
        <ele>534.8</ele>
        <time>2024-08-11T09:31:39Z</time>
      </trkpt>
      <trkpt lat="45.6876" lon="3.28748">
        <ele>535</ele>
        <time>2024-08-11T09:31:40Z</time>
      </trkpt>
      <trkpt lat="45.68759" lon="3.28744">
        <ele>535.2</ele>
        <time>2024-08-11T09:31:41Z</time>
      </trkpt>
      <trkpt lat="45.68758" lon="3.28741">
        <ele>535.4</ele>
        <time>2024-08-11T09:31:42Z</time>
      </trkpt>
      <trkpt lat="45.68757" lon="3.28737">
        <ele>535.6</ele>
        <time>2024-08-11T09:31:43Z</time>
      </trkpt>
      <trkpt lat="45.68756" lon="3.28733">
        <ele>535.8</ele>
        <time>2024-08-11T09:31:44Z</time>
      </trkpt>
      <trkpt lat="45.68755" lon="3.2873">
        <ele>536</ele>
        <time>2024-08-11T09:31:45Z</time>
      </trkpt>
      <trkpt lat="45.68754" lon="3.28726">
        <ele>536.4</ele>
        <time>2024-08-11T09:31:46Z</time>
      </trkpt>
      <trkpt lat="45.68753" lon="3.28722">
        <ele>536.4</ele>
        <time>2024-08-11T09:31:47Z</time>
      </trkpt>
      <trkpt lat="45.68752" lon="3.28719">
        <ele>536.6</ele>
        <time>2024-08-11T09:31:48Z</time>
      </trkpt>
      <trkpt lat="45.68751" lon="3.28715">
        <ele>536.8</ele>
        <time>2024-08-11T09:31:49Z</time>
      </trkpt>
      <trkpt lat="45.6875" lon="3.28712">
        <ele>537</ele>
        <time>2024-08-11T09:31:50Z</time>
      </trkpt>
      <trkpt lat="45.68749" lon="3.28708">
        <ele>537.2</ele>
        <time>2024-08-11T09:31:51Z</time>
      </trkpt>
      <trkpt lat="45.68748" lon="3.28704">
        <ele>537.4</ele>
        <time>2024-08-11T09:31:52Z</time>
      </trkpt>
      <trkpt lat="45.68747" lon="3.28701">
        <ele>537.6</ele>
        <time>2024-08-11T09:31:53Z</time>
      </trkpt>
      <trkpt lat="45.68746" lon="3.28697">
        <ele>537.8</ele>
        <time>2024-08-11T09:31:54Z</time>
      </trkpt>
      <trkpt lat="45.68745" lon="3.28693">
        <ele>538</ele>
        <time>2024-08-11T09:31:55Z</time>
      </trkpt>
      <trkpt lat="45.68744" lon="3.2869">
        <ele>538.2</ele>
        <time>2024-08-11T09:31:56Z</time>
      </trkpt>
      <trkpt lat="45.68743" lon="3.28686">
        <ele>538.2</ele>
        <time>2024-08-11T09:31:57Z</time>
      </trkpt>
      <trkpt lat="45.68742" lon="3.28682">
        <ele>538.4</ele>
        <time>2024-08-11T09:31:58Z</time>
      </trkpt>
      <trkpt lat="45.68741" lon="3.28678">
        <ele>538.6</ele>
        <time>2024-08-11T09:31:59Z</time>
      </trkpt>
      <trkpt lat="45.6874" lon="3.28674">
        <ele>538.8</ele>
        <time>2024-08-11T09:32:00Z</time>
      </trkpt>
      <trkpt lat="45.68739" lon="3.2867">
        <ele>539</ele>
        <time>2024-08-11T09:32:01Z</time>
      </trkpt>
      <trkpt lat="45.68738" lon="3.28666">
        <ele>539.2</ele>
        <time>2024-08-11T09:32:02Z</time>
      </trkpt>
      <trkpt lat="45.68737" lon="3.28662">
        <ele>539.4</ele>
        <time>2024-08-11T09:32:03Z</time>
      </trkpt>
      <trkpt lat="45.68736" lon="3.28659">
        <ele>539.6</ele>
        <time>2024-08-11T09:32:04Z</time>
      </trkpt>
      <trkpt lat="45.68735" lon="3.28655">
        <ele>539.8</ele>
        <time>2024-08-11T09:32:05Z</time>
      </trkpt>
      <trkpt lat="45.68734" lon="3.28651">
        <ele>540</ele>
        <time>2024-08-11T09:32:06Z</time>
      </trkpt>
      <trkpt lat="45.68733" lon="3.28647">
        <ele>540</ele>
        <time>2024-08-11T09:32:07Z</time>
      </trkpt>
      <trkpt lat="45.68732" lon="3.28643">
        <ele>540.2</ele>
        <time>2024-08-11T09:32:08Z</time>
      </trkpt>
      <trkpt lat="45.68731" lon="3.2864">
        <ele>540.4</ele>
        <time>2024-08-11T09:32:09Z</time>
      </trkpt>
      <trkpt lat="45.6873" lon="3.28636">
        <ele>540.6</ele>
        <time>2024-08-11T09:32:10Z</time>
      </trkpt>
      <trkpt lat="45.68728" lon="3.28632">
        <ele>540.8</ele>
        <time>2024-08-11T09:32:11Z</time>
      </trkpt>
      <trkpt lat="45.68727" lon="3.28628">
        <ele>541</ele>
        <time>2024-08-11T09:32:12Z</time>
      </trkpt>
      <trkpt lat="45.68725" lon="3.28625">
        <ele>541</ele>
        <time>2024-08-11T09:32:13Z</time>
      </trkpt>
      <trkpt lat="45.68724" lon="3.28622">
        <ele>541.2</ele>
        <time>2024-08-11T09:32:14Z</time>
      </trkpt>
      <trkpt lat="45.68722" lon="3.28619">
        <ele>541.4</ele>
        <time>2024-08-11T09:32:15Z</time>
      </trkpt>
      <trkpt lat="45.6872" lon="3.28616">
        <ele>541.6</ele>
        <time>2024-08-11T09:32:16Z</time>
      </trkpt>
      <trkpt lat="45.68719" lon="3.28613">
        <ele>541.8</ele>
        <time>2024-08-11T09:32:17Z</time>
      </trkpt>
      <trkpt lat="45.68717" lon="3.2861">
        <ele>541.8</ele>
        <time>2024-08-11T09:32:18Z</time>
      </trkpt>
      <trkpt lat="45.68716" lon="3.28606">
        <ele>542</ele>
        <time>2024-08-11T09:32:19Z</time>
      </trkpt>
      <trkpt lat="45.68714" lon="3.28603">
        <ele>542.2</ele>
        <time>2024-08-11T09:32:20Z</time>
      </trkpt>
      <trkpt lat="45.68712" lon="3.286">
        <ele>542.2</ele>
        <time>2024-08-11T09:32:21Z</time>
      </trkpt>
      <trkpt lat="45.68711" lon="3.28596">
        <ele>542.4</ele>
        <time>2024-08-11T09:32:22Z</time>
      </trkpt>
      <trkpt lat="45.68709" lon="3.28593">
        <ele>542.6</ele>
        <time>2024-08-11T09:32:23Z</time>
      </trkpt>
      <trkpt lat="45.68708" lon="3.2859">
        <ele>542.8</ele>
        <time>2024-08-11T09:32:24Z</time>
      </trkpt>
      <trkpt lat="45.68706" lon="3.28587">
        <ele>543</ele>
        <time>2024-08-11T09:32:25Z</time>
      </trkpt>
      <trkpt lat="45.68705" lon="3.28584">
        <ele>543</ele>
        <time>2024-08-11T09:32:26Z</time>
      </trkpt>
      <trkpt lat="45.68703" lon="3.28581">
        <ele>543.2</ele>
        <time>2024-08-11T09:32:27Z</time>
      </trkpt>
      <trkpt lat="45.68701" lon="3.28578">
        <ele>543.4</ele>
        <time>2024-08-11T09:32:28Z</time>
      </trkpt>
      <trkpt lat="45.687" lon="3.28575">
        <ele>543.6</ele>
        <time>2024-08-11T09:32:29Z</time>
      </trkpt>
      <trkpt lat="45.68698" lon="3.28571">
        <ele>543.6</ele>
        <time>2024-08-11T09:32:30Z</time>
      </trkpt>
      <trkpt lat="45.68697" lon="3.28568">
        <ele>543.8</ele>
        <time>2024-08-11T09:32:31Z</time>
      </trkpt>
      <trkpt lat="45.68695" lon="3.28566">
        <ele>544</ele>
        <time>2024-08-11T09:32:32Z</time>
      </trkpt>
      <trkpt lat="45.68693" lon="3.28563">
        <ele>544.2</ele>
        <time>2024-08-11T09:32:33Z</time>
      </trkpt>
      <trkpt lat="45.68691" lon="3.2856">
        <ele>544.4</ele>
        <time>2024-08-11T09:32:34Z</time>
      </trkpt>
      <trkpt lat="45.68689" lon="3.28558">
        <ele>544.6</ele>
        <time>2024-08-11T09:32:35Z</time>
      </trkpt>
      <trkpt lat="45.68687" lon="3.28555">
        <ele>544.8</ele>
        <time>2024-08-11T09:32:36Z</time>
      </trkpt>
      <trkpt lat="45.68686" lon="3.28553">
        <ele>545</ele>
        <time>2024-08-11T09:32:37Z</time>
      </trkpt>
      <trkpt lat="45.68684" lon="3.2855">
        <ele>545</ele>
        <time>2024-08-11T09:32:38Z</time>
      </trkpt>
      <trkpt lat="45.68682" lon="3.28548">
        <ele>545.2</ele>
        <time>2024-08-11T09:32:39Z</time>
      </trkpt>
      <trkpt lat="45.6868" lon="3.28545">
        <ele>545.4</ele>
        <time>2024-08-11T09:32:40Z</time>
      </trkpt>
      <trkpt lat="45.68678" lon="3.28543">
        <ele>545.6</ele>
        <time>2024-08-11T09:32:41Z</time>
      </trkpt>
      <trkpt lat="45.68677" lon="3.2854">
        <ele>545.8</ele>
        <time>2024-08-11T09:32:42Z</time>
      </trkpt>
      <trkpt lat="45.68674" lon="3.28538">
        <ele>546</ele>
        <time>2024-08-11T09:32:43Z</time>
      </trkpt>
      <trkpt lat="45.68672" lon="3.28536">
        <ele>546</ele>
        <time>2024-08-11T09:32:44Z</time>
      </trkpt>
      <trkpt lat="45.6867" lon="3.28534">
        <ele>546.2</ele>
        <time>2024-08-11T09:32:45Z</time>
      </trkpt>
      <trkpt lat="45.68668" lon="3.28532">
        <ele>546.4</ele>
        <time>2024-08-11T09:32:46Z</time>
      </trkpt>
      <trkpt lat="45.68666" lon="3.2853">
        <ele>546.6</ele>
        <time>2024-08-11T09:32:47Z</time>
      </trkpt>
      <trkpt lat="45.68664" lon="3.28528">
        <ele>546.6</ele>
        <time>2024-08-11T09:32:48Z</time>
      </trkpt>
      <trkpt lat="45.68662" lon="3.28526">
        <ele>546.8</ele>
        <time>2024-08-11T09:32:49Z</time>
      </trkpt>
      <trkpt lat="45.6866" lon="3.28525">
        <ele>547</ele>
        <time>2024-08-11T09:32:50Z</time>
      </trkpt>
      <trkpt lat="45.68658" lon="3.28523">
        <ele>547.2</ele>
        <time>2024-08-11T09:32:51Z</time>
      </trkpt>
      <trkpt lat="45.68656" lon="3.28521">
        <ele>547.2</ele>
        <time>2024-08-11T09:32:52Z</time>
      </trkpt>
      <trkpt lat="45.68654" lon="3.28519">
        <ele>547.2</ele>
        <time>2024-08-11T09:32:53Z</time>
      </trkpt>
      <trkpt lat="45.68652" lon="3.28517">
        <ele>547.4</ele>
        <time>2024-08-11T09:32:54Z</time>
      </trkpt>
      <trkpt lat="45.6865" lon="3.28516">
        <ele>547.6</ele>
        <time>2024-08-11T09:32:55Z</time>
      </trkpt>
      <trkpt lat="45.68648" lon="3.28514">
        <ele>547.6</ele>
        <time>2024-08-11T09:32:56Z</time>
      </trkpt>
      <trkpt lat="45.68646" lon="3.28512">
        <ele>547.8</ele>
        <time>2024-08-11T09:32:57Z</time>
      </trkpt>
      <trkpt lat="45.68643" lon="3.2851">
        <ele>547.8</ele>
        <time>2024-08-11T09:32:58Z</time>
      </trkpt>
      <trkpt lat="45.68641" lon="3.28508">
        <ele>548</ele>
        <time>2024-08-11T09:32:59Z</time>
      </trkpt>
      <trkpt lat="45.68639" lon="3.28506">
        <ele>548</ele>
        <time>2024-08-11T09:33:00Z</time>
      </trkpt>
      <trkpt lat="45.68637" lon="3.28504">
        <ele>548.2</ele>
        <time>2024-08-11T09:33:01Z</time>
      </trkpt>
      <trkpt lat="45.68635" lon="3.28502">
        <ele>548.2</ele>
        <time>2024-08-11T09:33:02Z</time>
      </trkpt>
      <trkpt lat="45.68632" lon="3.285">
        <ele>548.4</ele>
        <time>2024-08-11T09:33:03Z</time>
      </trkpt>
      <trkpt lat="45.6863" lon="3.28498">
        <ele>548.4</ele>
        <time>2024-08-11T09:33:04Z</time>
      </trkpt>
      <trkpt lat="45.68628" lon="3.28496">
        <ele>548.6</ele>
        <time>2024-08-11T09:33:05Z</time>
      </trkpt>
      <trkpt lat="45.68625" lon="3.28494">
        <ele>548.8</ele>
        <time>2024-08-11T09:33:06Z</time>
      </trkpt>
      <trkpt lat="45.68623" lon="3.28491">
        <ele>548.8</ele>
        <time>2024-08-11T09:33:07Z</time>
      </trkpt>
      <trkpt lat="45.6862" lon="3.28489">
        <ele>549</ele>
        <time>2024-08-11T09:33:08Z</time>
      </trkpt>
      <trkpt lat="45.68618" lon="3.28487">
        <ele>549</ele>
        <time>2024-08-11T09:33:09Z</time>
      </trkpt>
      <trkpt lat="45.68616" lon="3.28485">
        <ele>549.2</ele>
        <time>2024-08-11T09:33:10Z</time>
      </trkpt>
      <trkpt lat="45.68613" lon="3.28483">
        <ele>549.2</ele>
        <time>2024-08-11T09:33:11Z</time>
      </trkpt>
      <trkpt lat="45.6861" lon="3.28481">
        <ele>549.4</ele>
        <time>2024-08-11T09:33:12Z</time>
      </trkpt>
      <trkpt lat="45.68608" lon="3.28478">
        <ele>549.4</ele>
        <time>2024-08-11T09:33:13Z</time>
      </trkpt>
      <trkpt lat="45.68606" lon="3.28476">
        <ele>549.4</ele>
        <time>2024-08-11T09:33:14Z</time>
      </trkpt>
      <trkpt lat="45.68603" lon="3.28474">
        <ele>549.6</ele>
        <time>2024-08-11T09:33:15Z</time>
      </trkpt>
      <trkpt lat="45.68601" lon="3.28472">
        <ele>549.6</ele>
        <time>2024-08-11T09:33:16Z</time>
      </trkpt>
      <trkpt lat="45.68599" lon="3.2847">
        <ele>549.6</ele>
        <time>2024-08-11T09:33:17Z</time>
      </trkpt>
      <trkpt lat="45.68596" lon="3.28468">
        <ele>549.8</ele>
        <time>2024-08-11T09:33:18Z</time>
      </trkpt>
      <trkpt lat="45.68594" lon="3.28467">
        <ele>549.8</ele>
        <time>2024-08-11T09:33:19Z</time>
      </trkpt>
      <trkpt lat="45.68593" lon="3.28465">
        <ele>550</ele>
        <time>2024-08-11T09:33:20Z</time>
      </trkpt>
      <trkpt lat="45.6859" lon="3.28463">
        <ele>550</ele>
        <time>2024-08-11T09:33:21Z</time>
      </trkpt>
      <trkpt lat="45.68588" lon="3.28462">
        <ele>550.2</ele>
        <time>2024-08-11T09:33:22Z</time>
      </trkpt>
      <trkpt lat="45.68586" lon="3.2846">
        <ele>550.2</ele>
        <time>2024-08-11T09:33:23Z</time>
      </trkpt>
      <trkpt lat="45.68583" lon="3.28458">
        <ele>550.4</ele>
        <time>2024-08-11T09:33:24Z</time>
      </trkpt>
      <trkpt lat="45.6858" lon="3.28456">
        <ele>550.6</ele>
        <time>2024-08-11T09:33:25Z</time>
      </trkpt>
      <trkpt lat="45.68577" lon="3.28454">
        <ele>550.6</ele>
        <time>2024-08-11T09:33:26Z</time>
      </trkpt>
      <trkpt lat="45.68575" lon="3.28452">
        <ele>550.8</ele>
        <time>2024-08-11T09:33:27Z</time>
      </trkpt>
      <trkpt lat="45.68572" lon="3.28449">
        <ele>551</ele>
        <time>2024-08-11T09:33:28Z</time>
      </trkpt>
      <trkpt lat="45.68569" lon="3.28447">
        <ele>551</ele>
        <time>2024-08-11T09:33:29Z</time>
      </trkpt>
      <trkpt lat="45.68566" lon="3.28445">
        <ele>551.2</ele>
        <time>2024-08-11T09:33:30Z</time>
      </trkpt>
      <trkpt lat="45.68564" lon="3.28443">
        <ele>551.2</ele>
        <time>2024-08-11T09:33:31Z</time>
      </trkpt>
      <trkpt lat="45.68561" lon="3.28442">
        <ele>551.4</ele>
        <time>2024-08-11T09:33:32Z</time>
      </trkpt>
      <trkpt lat="45.68558" lon="3.2844">
        <ele>551.6</ele>
        <time>2024-08-11T09:33:33Z</time>
      </trkpt>
      <trkpt lat="45.68556" lon="3.28437">
        <ele>551.6</ele>
        <time>2024-08-11T09:33:34Z</time>
      </trkpt>
      <trkpt lat="45.68553" lon="3.28436">
        <ele>551.8</ele>
        <time>2024-08-11T09:33:35Z</time>
      </trkpt>
      <trkpt lat="45.68551" lon="3.28434">
        <ele>552</ele>
        <time>2024-08-11T09:33:36Z</time>
      </trkpt>
      <trkpt lat="45.68548" lon="3.28432">
        <ele>552.2</ele>
        <time>2024-08-11T09:33:37Z</time>
      </trkpt>
      <trkpt lat="45.68546" lon="3.2843">
        <ele>552.4</ele>
        <time>2024-08-11T09:33:38Z</time>
      </trkpt>
      <trkpt lat="45.68543" lon="3.28428">
        <ele>552.6</ele>
        <time>2024-08-11T09:33:39Z</time>
      </trkpt>
      <trkpt lat="45.68541" lon="3.28426">
        <ele>552.6</ele>
        <time>2024-08-11T09:33:40Z</time>
      </trkpt>
      <trkpt lat="45.68539" lon="3.28425">
        <ele>552.8</ele>
        <time>2024-08-11T09:33:41Z</time>
      </trkpt>
      <trkpt lat="45.68536" lon="3.28423">
        <ele>553</ele>
        <time>2024-08-11T09:33:42Z</time>
      </trkpt>
      <trkpt lat="45.68534" lon="3.28421">
        <ele>553.2</ele>
        <time>2024-08-11T09:33:43Z</time>
      </trkpt>
      <trkpt lat="45.68531" lon="3.28419">
        <ele>553.4</ele>
        <time>2024-08-11T09:33:44Z</time>
      </trkpt>
      <trkpt lat="45.68529" lon="3.28417">
        <ele>553.4</ele>
        <time>2024-08-11T09:33:45Z</time>
      </trkpt>
      <trkpt lat="45.68526" lon="3.28415">
        <ele>553.6</ele>
        <time>2024-08-11T09:33:46Z</time>
      </trkpt>
      <trkpt lat="45.68524" lon="3.28413">
        <ele>553.8</ele>
        <time>2024-08-11T09:33:47Z</time>
      </trkpt>
      <trkpt lat="45.68521" lon="3.28412">
        <ele>553.8</ele>
        <time>2024-08-11T09:33:48Z</time>
      </trkpt>
      <trkpt lat="45.68519" lon="3.2841">
        <ele>554</ele>
        <time>2024-08-11T09:33:49Z</time>
      </trkpt>
      <trkpt lat="45.68516" lon="3.28408">
        <ele>554.2</ele>
        <time>2024-08-11T09:33:50Z</time>
      </trkpt>
      <trkpt lat="45.68514" lon="3.28406">
        <ele>554.4</ele>
        <time>2024-08-11T09:33:51Z</time>
      </trkpt>
      <trkpt lat="45.68512" lon="3.28404">
        <ele>554.4</ele>
        <time>2024-08-11T09:33:52Z</time>
      </trkpt>
      <trkpt lat="45.68509" lon="3.28403">
        <ele>554.6</ele>
        <time>2024-08-11T09:33:53Z</time>
      </trkpt>
      <trkpt lat="45.68507" lon="3.28401">
        <ele>554.8</ele>
        <time>2024-08-11T09:33:54Z</time>
      </trkpt>
      <trkpt lat="45.68504" lon="3.28399">
        <ele>555</ele>
        <time>2024-08-11T09:33:55Z</time>
      </trkpt>
      <trkpt lat="45.68502" lon="3.28397">
        <ele>555</ele>
        <time>2024-08-11T09:33:56Z</time>
      </trkpt>
      <trkpt lat="45.685" lon="3.28395">
        <ele>555.2</ele>
        <time>2024-08-11T09:33:57Z</time>
      </trkpt>
      <trkpt lat="45.68497" lon="3.28394">
        <ele>555.4</ele>
        <time>2024-08-11T09:33:58Z</time>
      </trkpt>
      <trkpt lat="45.68495" lon="3.28392">
        <ele>555.6</ele>
        <time>2024-08-11T09:33:59Z</time>
      </trkpt>
      <trkpt lat="45.68492" lon="3.2839">
        <ele>555.6</ele>
        <time>2024-08-11T09:34:00Z</time>
      </trkpt>
      <trkpt lat="45.6849" lon="3.28388">
        <ele>555.8</ele>
        <time>2024-08-11T09:34:01Z</time>
      </trkpt>
      <trkpt lat="45.68488" lon="3.28387">
        <ele>556</ele>
        <time>2024-08-11T09:34:02Z</time>
      </trkpt>
      <trkpt lat="45.68486" lon="3.28385">
        <ele>556.2</ele>
        <time>2024-08-11T09:34:03Z</time>
      </trkpt>
      <trkpt lat="45.68483" lon="3.28383">
        <ele>556.2</ele>
        <time>2024-08-11T09:34:04Z</time>
      </trkpt>
      <trkpt lat="45.68481" lon="3.28382">
        <ele>556.4</ele>
        <time>2024-08-11T09:34:05Z</time>
      </trkpt>
      <trkpt lat="45.68479" lon="3.2838">
        <ele>556.6</ele>
        <time>2024-08-11T09:34:06Z</time>
      </trkpt>
      <trkpt lat="45.68477" lon="3.28378">
        <ele>556.6</ele>
        <time>2024-08-11T09:34:07Z</time>
      </trkpt>
      <trkpt lat="45.68474" lon="3.28377">
        <ele>556.8</ele>
        <time>2024-08-11T09:34:08Z</time>
      </trkpt>
      <trkpt lat="45.68472" lon="3.28375">
        <ele>557</ele>
        <time>2024-08-11T09:34:09Z</time>
      </trkpt>
      <trkpt lat="45.68469" lon="3.28374">
        <ele>557.2</ele>
        <time>2024-08-11T09:34:10Z</time>
      </trkpt>
      <trkpt lat="45.68467" lon="3.28372">
        <ele>557.4</ele>
        <time>2024-08-11T09:34:11Z</time>
      </trkpt>
      <trkpt lat="45.68464" lon="3.28371">
        <ele>557.6</ele>
        <time>2024-08-11T09:34:12Z</time>
      </trkpt>
      <trkpt lat="45.68462" lon="3.2837">
        <ele>557.6</ele>
        <time>2024-08-11T09:34:13Z</time>
      </trkpt>
      <trkpt lat="45.68459" lon="3.28368">
        <ele>557.8</ele>
        <time>2024-08-11T09:34:14Z</time>
      </trkpt>
      <trkpt lat="45.68457" lon="3.28367">
        <ele>558</ele>
        <time>2024-08-11T09:34:15Z</time>
      </trkpt>
      <trkpt lat="45.68454" lon="3.28365">
        <ele>558.2</ele>
        <time>2024-08-11T09:34:16Z</time>
      </trkpt>
      <trkpt lat="45.68452" lon="3.28364">
        <ele>558.2</ele>
        <time>2024-08-11T09:34:17Z</time>
      </trkpt>
      <trkpt lat="45.68449" lon="3.28363">
        <ele>558.4</ele>
        <time>2024-08-11T09:34:18Z</time>
      </trkpt>
      <trkpt lat="45.68447" lon="3.28361">
        <ele>558.6</ele>
        <time>2024-08-11T09:34:19Z</time>
      </trkpt>
      <trkpt lat="45.68444" lon="3.2836">
        <ele>558.6</ele>
        <time>2024-08-11T09:34:20Z</time>
      </trkpt>
      <trkpt lat="45.68442" lon="3.28358">
        <ele>558.8</ele>
        <time>2024-08-11T09:34:21Z</time>
      </trkpt>
      <trkpt lat="45.68439" lon="3.28358">
        <ele>559</ele>
        <time>2024-08-11T09:34:22Z</time>
      </trkpt>
      <trkpt lat="45.68437" lon="3.28357">
        <ele>559.2</ele>
        <time>2024-08-11T09:34:23Z</time>
      </trkpt>
      <trkpt lat="45.68434" lon="3.28356">
        <ele>559.4</ele>
        <time>2024-08-11T09:34:24Z</time>
      </trkpt>
      <trkpt lat="45.68431" lon="3.28355">
        <ele>559.6</ele>
        <time>2024-08-11T09:34:25Z</time>
      </trkpt>
      <trkpt lat="45.68429" lon="3.28355">
        <ele>559.6</ele>
        <time>2024-08-11T09:34:26Z</time>
      </trkpt>
      <trkpt lat="45.68426" lon="3.28354">
        <ele>559.8</ele>
        <time>2024-08-11T09:34:27Z</time>
      </trkpt>
      <trkpt lat="45.68423" lon="3.28353">
        <ele>560</ele>
        <time>2024-08-11T09:34:28Z</time>
      </trkpt>
      <trkpt lat="45.6842" lon="3.28353">
        <ele>560.2</ele>
        <time>2024-08-11T09:34:29Z</time>
      </trkpt>
      <trkpt lat="45.68418" lon="3.28352">
        <ele>560.4</ele>
        <time>2024-08-11T09:34:30Z</time>
      </trkpt>
      <trkpt lat="45.68415" lon="3.28351">
        <ele>560.6</ele>
        <time>2024-08-11T09:34:31Z</time>
      </trkpt>
      <trkpt lat="45.68413" lon="3.28351">
        <ele>560.8</ele>
        <time>2024-08-11T09:34:32Z</time>
      </trkpt>
      <trkpt lat="45.68411" lon="3.2835">
        <ele>561</ele>
        <time>2024-08-11T09:34:33Z</time>
      </trkpt>
      <trkpt lat="45.68408" lon="3.2835">
        <ele>561.2</ele>
        <time>2024-08-11T09:34:34Z</time>
      </trkpt>
      <trkpt lat="45.68406" lon="3.2835">
        <ele>561.4</ele>
        <time>2024-08-11T09:34:35Z</time>
      </trkpt>
      <trkpt lat="45.68403" lon="3.2835">
        <ele>561.6</ele>
        <time>2024-08-11T09:34:36Z</time>
      </trkpt>
      <trkpt lat="45.68401" lon="3.28351">
        <ele>561.8</ele>
        <time>2024-08-11T09:34:37Z</time>
      </trkpt>
      <trkpt lat="45.68401" lon="3.28351">
        <ele>561.8</ele>
        <time>2024-08-11T09:34:38Z</time>
      </trkpt>
      <trkpt lat="45.68401" lon="3.28351">
        <ele>562</ele>
        <time>2024-08-11T09:34:39Z</time>
      </trkpt>
      <trkpt lat="45.68394" lon="3.28351">
        <ele>562.2</ele>
        <time>2024-08-11T09:34:40Z</time>
      </trkpt>
      <trkpt lat="45.68392" lon="3.28352">
        <ele>562.4</ele>
        <time>2024-08-11T09:34:41Z</time>
      </trkpt>
      <trkpt lat="45.6839" lon="3.28352">
        <ele>562.6</ele>
        <time>2024-08-11T09:34:42Z</time>
      </trkpt>
      <trkpt lat="45.68387" lon="3.28353">
        <ele>562.6</ele>
        <time>2024-08-11T09:34:43Z</time>
      </trkpt>
      <trkpt lat="45.68385" lon="3.28354">
        <ele>562.8</ele>
        <time>2024-08-11T09:34:44Z</time>
      </trkpt>
      <trkpt lat="45.68383" lon="3.28356">
        <ele>563</ele>
        <time>2024-08-11T09:34:45Z</time>
      </trkpt>
      <trkpt lat="45.68381" lon="3.28357">
        <ele>563.2</ele>
        <time>2024-08-11T09:34:46Z</time>
      </trkpt>
      <trkpt lat="45.68378" lon="3.28358">
        <ele>563.4</ele>
        <time>2024-08-11T09:34:47Z</time>
      </trkpt>
      <trkpt lat="45.68376" lon="3.28359">
        <ele>563.4</ele>
        <time>2024-08-11T09:34:48Z</time>
      </trkpt>
      <trkpt lat="45.68374" lon="3.28361">
        <ele>563.6</ele>
        <time>2024-08-11T09:34:49Z</time>
      </trkpt>
      <trkpt lat="45.68372" lon="3.28362">
        <ele>563.8</ele>
        <time>2024-08-11T09:34:50Z</time>
      </trkpt>
      <trkpt lat="45.68369" lon="3.28363">
        <ele>564</ele>
        <time>2024-08-11T09:34:51Z</time>
      </trkpt>
      <trkpt lat="45.68366" lon="3.28365">
        <ele>564.2</ele>
        <time>2024-08-11T09:34:52Z</time>
      </trkpt>
      <trkpt lat="45.68364" lon="3.28366">
        <ele>564.4</ele>
        <time>2024-08-11T09:34:53Z</time>
      </trkpt>
      <trkpt lat="45.68361" lon="3.28368">
        <ele>564.6</ele>
        <time>2024-08-11T09:34:54Z</time>
      </trkpt>
      <trkpt lat="45.68358" lon="3.28369">
        <ele>564.8</ele>
        <time>2024-08-11T09:34:55Z</time>
      </trkpt>
      <trkpt lat="45.68356" lon="3.28371">
        <ele>565</ele>
        <time>2024-08-11T09:34:56Z</time>
      </trkpt>
      <trkpt lat="45.68353" lon="3.28372">
        <ele>565.2</ele>
        <time>2024-08-11T09:34:57Z</time>
      </trkpt>
      <trkpt lat="45.68351" lon="3.28373">
        <ele>565.4</ele>
        <time>2024-08-11T09:34:58Z</time>
      </trkpt>
      <trkpt lat="45.68348" lon="3.28375">
        <ele>565.6</ele>
        <time>2024-08-11T09:34:59Z</time>
      </trkpt>
      <trkpt lat="45.68346" lon="3.28376">
        <ele>565.8</ele>
        <time>2024-08-11T09:35:00Z</time>
      </trkpt>
      <trkpt lat="45.68343" lon="3.28378">
        <ele>566</ele>
        <time>2024-08-11T09:35:01Z</time>
      </trkpt>
      <trkpt lat="45.68341" lon="3.28379">
        <ele>566.2</ele>
        <time>2024-08-11T09:35:02Z</time>
      </trkpt>
      <trkpt lat="45.68338" lon="3.28381">
        <ele>566.4</ele>
        <time>2024-08-11T09:35:03Z</time>
      </trkpt>
      <trkpt lat="45.68335" lon="3.28382">
        <ele>566.6</ele>
        <time>2024-08-11T09:35:04Z</time>
      </trkpt>
      <trkpt lat="45.68333" lon="3.28383">
        <ele>566.8</ele>
        <time>2024-08-11T09:35:05Z</time>
      </trkpt>
      <trkpt lat="45.6833" lon="3.28385">
        <ele>567</ele>
        <time>2024-08-11T09:35:06Z</time>
      </trkpt>
      <trkpt lat="45.68328" lon="3.28386">
        <ele>567.2</ele>
        <time>2024-08-11T09:35:07Z</time>
      </trkpt>
      <trkpt lat="45.68325" lon="3.28388">
        <ele>567.4</ele>
        <time>2024-08-11T09:35:08Z</time>
      </trkpt>
      <trkpt lat="45.68322" lon="3.28389">
        <ele>567.4</ele>
        <time>2024-08-11T09:35:09Z</time>
      </trkpt>
      <trkpt lat="45.68319" lon="3.28391">
        <ele>567.6</ele>
        <time>2024-08-11T09:35:10Z</time>
      </trkpt>
      <trkpt lat="45.68317" lon="3.28392">
        <ele>567.8</ele>
        <time>2024-08-11T09:35:11Z</time>
      </trkpt>
      <trkpt lat="45.68314" lon="3.28394">
        <ele>568</ele>
        <time>2024-08-11T09:35:12Z</time>
      </trkpt>
      <trkpt lat="45.68312" lon="3.28395">
        <ele>568.2</ele>
        <time>2024-08-11T09:35:13Z</time>
      </trkpt>
      <trkpt lat="45.6831" lon="3.28396">
        <ele>568.4</ele>
        <time>2024-08-11T09:35:14Z</time>
      </trkpt>
      <trkpt lat="45.68307" lon="3.28397">
        <ele>568.6</ele>
        <time>2024-08-11T09:35:15Z</time>
      </trkpt>
      <trkpt lat="45.68304" lon="3.28398">
        <ele>568.8</ele>
        <time>2024-08-11T09:35:16Z</time>
      </trkpt>
      <trkpt lat="45.68302" lon="3.28399">
        <ele>569</ele>
        <time>2024-08-11T09:35:17Z</time>
      </trkpt>
      <trkpt lat="45.68299" lon="3.284">
        <ele>569</ele>
        <time>2024-08-11T09:35:18Z</time>
      </trkpt>
      <trkpt lat="45.68296" lon="3.28401">
        <ele>569.2</ele>
        <time>2024-08-11T09:35:19Z</time>
      </trkpt>
      <trkpt lat="45.68293" lon="3.28402">
        <ele>569.6</ele>
        <time>2024-08-11T09:35:20Z</time>
      </trkpt>
      <trkpt lat="45.68291" lon="3.28403">
        <ele>569.8</ele>
        <time>2024-08-11T09:35:21Z</time>
      </trkpt>
      <trkpt lat="45.68289" lon="3.28404">
        <ele>570</ele>
        <time>2024-08-11T09:35:22Z</time>
      </trkpt>
      <trkpt lat="45.68286" lon="3.28405">
        <ele>570</ele>
        <time>2024-08-11T09:35:23Z</time>
      </trkpt>
      <trkpt lat="45.68283" lon="3.28405">
        <ele>570.4</ele>
        <time>2024-08-11T09:35:24Z</time>
      </trkpt>
      <trkpt lat="45.6828" lon="3.28406">
        <ele>570.4</ele>
        <time>2024-08-11T09:35:25Z</time>
      </trkpt>
      <trkpt lat="45.68277" lon="3.28406">
        <ele>570.6</ele>
        <time>2024-08-11T09:35:26Z</time>
      </trkpt>
      <trkpt lat="45.68274" lon="3.28406">
        <ele>570.8</ele>
        <time>2024-08-11T09:35:27Z</time>
      </trkpt>
      <trkpt lat="45.68271" lon="3.28407">
        <ele>571</ele>
        <time>2024-08-11T09:35:28Z</time>
      </trkpt>
      <trkpt lat="45.68268" lon="3.28407">
        <ele>571.2</ele>
        <time>2024-08-11T09:35:29Z</time>
      </trkpt>
      <trkpt lat="45.68265" lon="3.28407">
        <ele>571.2</ele>
        <time>2024-08-11T09:35:30Z</time>
      </trkpt>
      <trkpt lat="45.68262" lon="3.28407">
        <ele>571.6</ele>
        <time>2024-08-11T09:35:31Z</time>
      </trkpt>
      <trkpt lat="45.68259" lon="3.28407">
        <ele>571.6</ele>
        <time>2024-08-11T09:35:32Z</time>
      </trkpt>
      <trkpt lat="45.68256" lon="3.28406">
        <ele>571.8</ele>
        <time>2024-08-11T09:35:33Z</time>
      </trkpt>
      <trkpt lat="45.68254" lon="3.28406">
        <ele>572</ele>
        <time>2024-08-11T09:35:34Z</time>
      </trkpt>
      <trkpt lat="45.68251" lon="3.28405">
        <ele>572.2</ele>
        <time>2024-08-11T09:35:35Z</time>
      </trkpt>
      <trkpt lat="45.68248" lon="3.28404">
        <ele>572.2</ele>
        <time>2024-08-11T09:35:36Z</time>
      </trkpt>
      <trkpt lat="45.68245" lon="3.28404">
        <ele>572.4</ele>
        <time>2024-08-11T09:35:37Z</time>
      </trkpt>
      <trkpt lat="45.68242" lon="3.28403">
        <ele>572.6</ele>
        <time>2024-08-11T09:35:38Z</time>
      </trkpt>
      <trkpt lat="45.6824" lon="3.28402">
        <ele>572.8</ele>
        <time>2024-08-11T09:35:39Z</time>
      </trkpt>
      <trkpt lat="45.68237" lon="3.28401">
        <ele>572.8</ele>
        <time>2024-08-11T09:35:40Z</time>
      </trkpt>
      <trkpt lat="45.68234" lon="3.284">
        <ele>573</ele>
        <time>2024-08-11T09:35:41Z</time>
      </trkpt>
      <trkpt lat="45.68231" lon="3.28398">
        <ele>573.2</ele>
        <time>2024-08-11T09:35:42Z</time>
      </trkpt>
      <trkpt lat="45.68228" lon="3.28396">
        <ele>573.4</ele>
        <time>2024-08-11T09:35:43Z</time>
      </trkpt>
      <trkpt lat="45.68226" lon="3.28395">
        <ele>573.6</ele>
        <time>2024-08-11T09:35:44Z</time>
      </trkpt>
      <trkpt lat="45.68223" lon="3.28393">
        <ele>573.8</ele>
        <time>2024-08-11T09:35:45Z</time>
      </trkpt>
      <trkpt lat="45.68221" lon="3.28391">
        <ele>574</ele>
        <time>2024-08-11T09:35:46Z</time>
      </trkpt>
      <trkpt lat="45.68218" lon="3.28389">
        <ele>574.2</ele>
        <time>2024-08-11T09:35:47Z</time>
      </trkpt>
      <trkpt lat="45.68215" lon="3.28388">
        <ele>574.4</ele>
        <time>2024-08-11T09:35:48Z</time>
      </trkpt>
      <trkpt lat="45.68213" lon="3.28386">
        <ele>574.8</ele>
        <time>2024-08-11T09:35:49Z</time>
      </trkpt>
      <trkpt lat="45.6821" lon="3.28384">
        <ele>575</ele>
        <time>2024-08-11T09:35:50Z</time>
      </trkpt>
      <trkpt lat="45.68207" lon="3.28381">
        <ele>575.2</ele>
        <time>2024-08-11T09:35:51Z</time>
      </trkpt>
      <trkpt lat="45.68205" lon="3.28379">
        <ele>575.4</ele>
        <time>2024-08-11T09:35:52Z</time>
      </trkpt>
      <trkpt lat="45.68202" lon="3.28376">
        <ele>575.6</ele>
        <time>2024-08-11T09:35:53Z</time>
      </trkpt>
      <trkpt lat="45.682" lon="3.28373">
        <ele>575.6</ele>
        <time>2024-08-11T09:35:54Z</time>
      </trkpt>
      <trkpt lat="45.68197" lon="3.28371">
        <ele>575.8</ele>
        <time>2024-08-11T09:35:55Z</time>
      </trkpt>
      <trkpt lat="45.68195" lon="3.28368">
        <ele>576</ele>
        <time>2024-08-11T09:35:56Z</time>
      </trkpt>
      <trkpt lat="45.68192" lon="3.28365">
        <ele>576.2</ele>
        <time>2024-08-11T09:35:57Z</time>
      </trkpt>
      <trkpt lat="45.68189" lon="3.28362">
        <ele>576.4</ele>
        <time>2024-08-11T09:35:58Z</time>
      </trkpt>
      <trkpt lat="45.68186" lon="3.28359">
        <ele>576.6</ele>
        <time>2024-08-11T09:35:59Z</time>
      </trkpt>
      <trkpt lat="45.68183" lon="3.28356">
        <ele>576.6</ele>
        <time>2024-08-11T09:36:00Z</time>
      </trkpt>
      <trkpt lat="45.6818" lon="3.28353">
        <ele>576.8</ele>
        <time>2024-08-11T09:36:01Z</time>
      </trkpt>
      <trkpt lat="45.68177" lon="3.28349">
        <ele>577</ele>
        <time>2024-08-11T09:36:02Z</time>
      </trkpt>
      <trkpt lat="45.68174" lon="3.28346">
        <ele>577</ele>
        <time>2024-08-11T09:36:03Z</time>
      </trkpt>
      <trkpt lat="45.68171" lon="3.28343">
        <ele>577.2</ele>
        <time>2024-08-11T09:36:04Z</time>
      </trkpt>
      <trkpt lat="45.68168" lon="3.2834">
        <ele>577.2</ele>
        <time>2024-08-11T09:36:05Z</time>
      </trkpt>
      <trkpt lat="45.68165" lon="3.28336">
        <ele>577.4</ele>
        <time>2024-08-11T09:36:06Z</time>
      </trkpt>
      <trkpt lat="45.68161" lon="3.28333">
        <ele>577.6</ele>
        <time>2024-08-11T09:36:07Z</time>
      </trkpt>
      <trkpt lat="45.68158" lon="3.2833">
        <ele>577.8</ele>
        <time>2024-08-11T09:36:08Z</time>
      </trkpt>
      <trkpt lat="45.68155" lon="3.28326">
        <ele>577.8</ele>
        <time>2024-08-11T09:36:09Z</time>
      </trkpt>
      <trkpt lat="45.68152" lon="3.28323">
        <ele>578</ele>
        <time>2024-08-11T09:36:10Z</time>
      </trkpt>
      <trkpt lat="45.68148" lon="3.28319">
        <ele>578</ele>
        <time>2024-08-11T09:36:11Z</time>
      </trkpt>
      <trkpt lat="45.68146" lon="3.28316">
        <ele>578.2</ele>
        <time>2024-08-11T09:36:12Z</time>
      </trkpt>
      <trkpt lat="45.68143" lon="3.28313">
        <ele>578.2</ele>
        <time>2024-08-11T09:36:13Z</time>
      </trkpt>
      <trkpt lat="45.68149" lon="3.28293">
        <ele>578.4</ele>
        <time>2024-08-11T09:36:14Z</time>
      </trkpt>
      <trkpt lat="45.68146" lon="3.2829">
        <ele>578.4</ele>
        <time>2024-08-11T09:36:15Z</time>
      </trkpt>
      <trkpt lat="45.68143" lon="3.28288">
        <ele>578.4</ele>
        <time>2024-08-11T09:36:16Z</time>
      </trkpt>
      <trkpt lat="45.68143" lon="3.28287">
        <ele>578.6</ele>
        <time>2024-08-11T09:36:17Z</time>
      </trkpt>
      <trkpt lat="45.68143" lon="3.28287">
        <ele>578.8</ele>
        <time>2024-08-11T09:36:18Z</time>
      </trkpt>
      <trkpt lat="45.68143" lon="3.28287">
        <ele>579</ele>
        <time>2024-08-11T09:36:19Z</time>
      </trkpt>
      <trkpt lat="45.68143" lon="3.28287">
        <ele>579</ele>
        <time>2024-08-11T09:36:20Z</time>
      </trkpt>
      <trkpt lat="45.6814" lon="3.28292">
        <ele>585.8</ele>
        <time>2024-08-11T09:38:40Z</time>
      </trkpt>
      <trkpt lat="45.68138" lon="3.28294">
        <ele>585.8</ele>
        <time>2024-08-11T09:38:41Z</time>
      </trkpt>
      <trkpt lat="45.68137" lon="3.28297">
        <ele>585.8</ele>
        <time>2024-08-11T09:38:42Z</time>
      </trkpt>
      <trkpt lat="45.68127" lon="3.28296">
        <ele>585.8</ele>
        <time>2024-08-11T09:38:43Z</time>
      </trkpt>
      <trkpt lat="45.68124" lon="3.28293">
        <ele>585.8</ele>
        <time>2024-08-11T09:38:44Z</time>
      </trkpt>
      <trkpt lat="45.68121" lon="3.2829">
        <ele>585.8</ele>
        <time>2024-08-11T09:38:45Z</time>
      </trkpt>
      <trkpt lat="45.68118" lon="3.28286">
        <ele>585.8</ele>
        <time>2024-08-11T09:38:46Z</time>
      </trkpt>
      <trkpt lat="45.68115" lon="3.28282">
        <ele>585.8</ele>
        <time>2024-08-11T09:38:47Z</time>
      </trkpt>
      <trkpt lat="45.68112" lon="3.28279">
        <ele>585.8</ele>
        <time>2024-08-11T09:38:48Z</time>
      </trkpt>
      <trkpt lat="45.68108" lon="3.28274">
        <ele>585.6</ele>
        <time>2024-08-11T09:38:49Z</time>
      </trkpt>
      <trkpt lat="45.68104" lon="3.2827">
        <ele>585.6</ele>
        <time>2024-08-11T09:38:50Z</time>
      </trkpt>
      <trkpt lat="45.681" lon="3.28265">
        <ele>585.6</ele>
        <time>2024-08-11T09:38:51Z</time>
      </trkpt>
      <trkpt lat="45.68095" lon="3.2826">
        <ele>585.4</ele>
        <time>2024-08-11T09:38:52Z</time>
      </trkpt>
      <trkpt lat="45.6809" lon="3.28254">
        <ele>585.4</ele>
        <time>2024-08-11T09:38:53Z</time>
      </trkpt>
      <trkpt lat="45.68085" lon="3.28248">
        <ele>585.4</ele>
        <time>2024-08-11T09:38:54Z</time>
      </trkpt>
      <trkpt lat="45.68079" lon="3.28241">
        <ele>585.2</ele>
        <time>2024-08-11T09:38:55Z</time>
      </trkpt>
      <trkpt lat="45.68073" lon="3.28234">
        <ele>585</ele>
        <time>2024-08-11T09:38:56Z</time>
      </trkpt>
      <trkpt lat="45.68067" lon="3.28227">
        <ele>584.8</ele>
        <time>2024-08-11T09:38:57Z</time>
      </trkpt>
      <trkpt lat="45.6806" lon="3.2822">
        <ele>584.6</ele>
        <time>2024-08-11T09:38:58Z</time>
      </trkpt>
      <trkpt lat="45.68053" lon="3.28212">
        <ele>584.4</ele>
        <time>2024-08-11T09:38:59Z</time>
      </trkpt>
      <trkpt lat="45.68046" lon="3.28203">
        <ele>584.2</ele>
        <time>2024-08-11T09:39:00Z</time>
      </trkpt>
      <trkpt lat="45.68039" lon="3.28195">
        <ele>584</ele>
        <time>2024-08-11T09:39:01Z</time>
      </trkpt>
      <trkpt lat="45.68031" lon="3.28186">
        <ele>583.8</ele>
        <time>2024-08-11T09:39:02Z</time>
      </trkpt>
      <trkpt lat="45.68023" lon="3.28177">
        <ele>583.6</ele>
        <time>2024-08-11T09:39:03Z</time>
      </trkpt>
      <trkpt lat="45.68014" lon="3.28167">
        <ele>583.4</ele>
        <time>2024-08-11T09:39:04Z</time>
      </trkpt>
      <trkpt lat="45.68005" lon="3.28157">
        <ele>583</ele>
        <time>2024-08-11T09:39:05Z</time>
      </trkpt>
      <trkpt lat="45.67996" lon="3.28147">
        <ele>582.8</ele>
        <time>2024-08-11T09:39:06Z</time>
      </trkpt>
      <trkpt lat="45.67987" lon="3.28136">
        <ele>582.6</ele>
        <time>2024-08-11T09:39:07Z</time>
      </trkpt>
      <trkpt lat="45.67979" lon="3.28124">
        <ele>582.2</ele>
        <time>2024-08-11T09:39:08Z</time>
      </trkpt>
      <trkpt lat="45.6797" lon="3.28111">
        <ele>581.8</ele>
        <time>2024-08-11T09:39:09Z</time>
      </trkpt>
      <trkpt lat="45.67962" lon="3.28098">
        <ele>581.4</ele>
        <time>2024-08-11T09:39:10Z</time>
      </trkpt>
      <trkpt lat="45.67953" lon="3.28084">
        <ele>581.2</ele>
        <time>2024-08-11T09:39:11Z</time>
      </trkpt>
      <trkpt lat="45.67944" lon="3.2807">
        <ele>580.8</ele>
        <time>2024-08-11T09:39:12Z</time>
      </trkpt>
      <trkpt lat="45.67935" lon="3.28057">
        <ele>580.4</ele>
        <time>2024-08-11T09:39:13Z</time>
      </trkpt>
      <trkpt lat="45.67926" lon="3.28043">
        <ele>580</ele>
        <time>2024-08-11T09:39:14Z</time>
      </trkpt>
      <trkpt lat="45.67917" lon="3.28029">
        <ele>579.6</ele>
        <time>2024-08-11T09:39:15Z</time>
      </trkpt>
      <trkpt lat="45.67908" lon="3.28015">
        <ele>579.2</ele>
        <time>2024-08-11T09:39:16Z</time>
      </trkpt>
      <trkpt lat="45.679" lon="3.28001">
        <ele>578.8</ele>
        <time>2024-08-11T09:39:17Z</time>
      </trkpt>
      <trkpt lat="45.67891" lon="3.27988">
        <ele>578.4</ele>
        <time>2024-08-11T09:39:18Z</time>
      </trkpt>
      <trkpt lat="45.67882" lon="3.27974">
        <ele>577.8</ele>
        <time>2024-08-11T09:39:19Z</time>
      </trkpt>
      <trkpt lat="45.67873" lon="3.2796">
        <ele>577.4</ele>
        <time>2024-08-11T09:39:20Z</time>
      </trkpt>
      <trkpt lat="45.67864" lon="3.27946">
        <ele>577</ele>
        <time>2024-08-11T09:39:21Z</time>
      </trkpt>
      <trkpt lat="45.67855" lon="3.27932">
        <ele>576.4</ele>
        <time>2024-08-11T09:39:22Z</time>
      </trkpt>
      <trkpt lat="45.67845" lon="3.27917">
        <ele>576</ele>
        <time>2024-08-11T09:39:23Z</time>
      </trkpt>
      <trkpt lat="45.67835" lon="3.27903">
        <ele>575.6</ele>
        <time>2024-08-11T09:39:24Z</time>
      </trkpt>
      <trkpt lat="45.67825" lon="3.2789">
        <ele>575</ele>
        <time>2024-08-11T09:39:25Z</time>
      </trkpt>
      <trkpt lat="45.67813" lon="3.27879">
        <ele>574.4</ele>
        <time>2024-08-11T09:39:26Z</time>
      </trkpt>
      <trkpt lat="45.67801" lon="3.27869">
        <ele>574</ele>
        <time>2024-08-11T09:39:27Z</time>
      </trkpt>
      <trkpt lat="45.67788" lon="3.27858">
        <ele>573.2</ele>
        <time>2024-08-11T09:39:28Z</time>
      </trkpt>
      <trkpt lat="45.67776" lon="3.27847">
        <ele>572.6</ele>
        <time>2024-08-11T09:39:29Z</time>
      </trkpt>
      <trkpt lat="45.67762" lon="3.2784">
        <ele>572</ele>
        <time>2024-08-11T09:39:30Z</time>
      </trkpt>
      <trkpt lat="45.67748" lon="3.27833">
        <ele>571.4</ele>
        <time>2024-08-11T09:39:31Z</time>
      </trkpt>
      <trkpt lat="45.67734" lon="3.27826">
        <ele>570.8</ele>
        <time>2024-08-11T09:39:32Z</time>
      </trkpt>
      <trkpt lat="45.67719" lon="3.27819">
        <ele>570.2</ele>
        <time>2024-08-11T09:39:33Z</time>
      </trkpt>
      <trkpt lat="45.67705" lon="3.27812">
        <ele>569.6</ele>
        <time>2024-08-11T09:39:34Z</time>
      </trkpt>
      <trkpt lat="45.67691" lon="3.27804">
        <ele>569.2</ele>
        <time>2024-08-11T09:39:35Z</time>
      </trkpt>
      <trkpt lat="45.67678" lon="3.27795">
        <ele>568.6</ele>
        <time>2024-08-11T09:39:36Z</time>
      </trkpt>
      <trkpt lat="45.67665" lon="3.27785">
        <ele>568</ele>
        <time>2024-08-11T09:39:37Z</time>
      </trkpt>
      <trkpt lat="45.67653" lon="3.27774">
        <ele>567.6</ele>
        <time>2024-08-11T09:39:38Z</time>
      </trkpt>
      <trkpt lat="45.67641" lon="3.27762">
        <ele>567.2</ele>
        <time>2024-08-11T09:39:39Z</time>
      </trkpt>
      <trkpt lat="45.67631" lon="3.27749">
        <ele>566.6</ele>
        <time>2024-08-11T09:39:40Z</time>
      </trkpt>
      <trkpt lat="45.67621" lon="3.27736">
        <ele>566.2</ele>
        <time>2024-08-11T09:39:41Z</time>
      </trkpt>
      <trkpt lat="45.67612" lon="3.27723">
        <ele>565.6</ele>
        <time>2024-08-11T09:39:42Z</time>
      </trkpt>
      <trkpt lat="45.67603" lon="3.27711">
        <ele>565.2</ele>
        <time>2024-08-11T09:39:43Z</time>
      </trkpt>
      <trkpt lat="45.67586" lon="3.27687">
        <ele>564.8</ele>
        <time>2024-08-11T09:39:44Z</time>
      </trkpt>
      <trkpt lat="45.67586" lon="3.27687">
        <ele>564.4</ele>
        <time>2024-08-11T09:39:45Z</time>
      </trkpt>
      <trkpt lat="45.67578" lon="3.27676">
        <ele>564</ele>
        <time>2024-08-11T09:39:46Z</time>
      </trkpt>
      <trkpt lat="45.6757" lon="3.27664">
        <ele>563.4</ele>
        <time>2024-08-11T09:39:47Z</time>
      </trkpt>
      <trkpt lat="45.67562" lon="3.27653">
        <ele>563.2</ele>
        <time>2024-08-11T09:39:48Z</time>
      </trkpt>
      <trkpt lat="45.67554" lon="3.27643">
        <ele>562.8</ele>
        <time>2024-08-11T09:39:49Z</time>
      </trkpt>
      <trkpt lat="45.67547" lon="3.27632">
        <ele>562.4</ele>
        <time>2024-08-11T09:39:50Z</time>
      </trkpt>
      <trkpt lat="45.67539" lon="3.27622">
        <ele>562</ele>
        <time>2024-08-11T09:39:51Z</time>
      </trkpt>
      <trkpt lat="45.67532" lon="3.27612">
        <ele>561.6</ele>
        <time>2024-08-11T09:39:52Z</time>
      </trkpt>
      <trkpt lat="45.67525" lon="3.27602">
        <ele>561.2</ele>
        <time>2024-08-11T09:39:53Z</time>
      </trkpt>
      <trkpt lat="45.67517" lon="3.27592">
        <ele>560.8</ele>
        <time>2024-08-11T09:39:54Z</time>
      </trkpt>
      <trkpt lat="45.67511" lon="3.27582">
        <ele>560.4</ele>
        <time>2024-08-11T09:39:55Z</time>
      </trkpt>
      <trkpt lat="45.67504" lon="3.27572">
        <ele>560.2</ele>
        <time>2024-08-11T09:39:56Z</time>
      </trkpt>
      <trkpt lat="45.67496" lon="3.27563">
        <ele>559.6</ele>
        <time>2024-08-11T09:39:57Z</time>
      </trkpt>
      <trkpt lat="45.67489" lon="3.27553">
        <ele>559.4</ele>
        <time>2024-08-11T09:39:58Z</time>
      </trkpt>
      <trkpt lat="45.67482" lon="3.27543">
        <ele>559</ele>
        <time>2024-08-11T09:39:59Z</time>
      </trkpt>
      <trkpt lat="45.67476" lon="3.27533">
        <ele>558.6</ele>
        <time>2024-08-11T09:40:00Z</time>
      </trkpt>
      <trkpt lat="45.67469" lon="3.27523">
        <ele>558.2</ele>
        <time>2024-08-11T09:40:01Z</time>
      </trkpt>
      <trkpt lat="45.67462" lon="3.27514">
        <ele>557.8</ele>
        <time>2024-08-11T09:40:02Z</time>
      </trkpt>
      <trkpt lat="45.67455" lon="3.27504">
        <ele>557.6</ele>
        <time>2024-08-11T09:40:03Z</time>
      </trkpt>
      <trkpt lat="45.67448" lon="3.27494">
        <ele>557</ele>
        <time>2024-08-11T09:40:04Z</time>
      </trkpt>
      <trkpt lat="45.67441" lon="3.27484">
        <ele>556.6</ele>
        <time>2024-08-11T09:40:05Z</time>
      </trkpt>
      <trkpt lat="45.67434" lon="3.27474">
        <ele>556.2</ele>
        <time>2024-08-11T09:40:06Z</time>
      </trkpt>
      <trkpt lat="45.67427" lon="3.27465">
        <ele>556</ele>
        <time>2024-08-11T09:40:07Z</time>
      </trkpt>
      <trkpt lat="45.6742" lon="3.27455">
        <ele>555.6</ele>
        <time>2024-08-11T09:40:08Z</time>
      </trkpt>
      <trkpt lat="45.67413" lon="3.27445">
        <ele>555</ele>
        <time>2024-08-11T09:40:09Z</time>
      </trkpt>
      <trkpt lat="45.67406" lon="3.27435">
        <ele>554.6</ele>
        <time>2024-08-11T09:40:10Z</time>
      </trkpt>
      <trkpt lat="45.67399" lon="3.27424">
        <ele>554.2</ele>
        <time>2024-08-11T09:40:11Z</time>
      </trkpt>
      <trkpt lat="45.67392" lon="3.27414">
        <ele>553.8</ele>
        <time>2024-08-11T09:40:12Z</time>
      </trkpt>
      <trkpt lat="45.67385" lon="3.27404">
        <ele>553.4</ele>
        <time>2024-08-11T09:40:13Z</time>
      </trkpt>
      <trkpt lat="45.67378" lon="3.27394">
        <ele>553</ele>
        <time>2024-08-11T09:40:14Z</time>
      </trkpt>
      <trkpt lat="45.67371" lon="3.27384">
        <ele>552.6</ele>
        <time>2024-08-11T09:40:15Z</time>
      </trkpt>
      <trkpt lat="45.67364" lon="3.27373">
        <ele>552.2</ele>
        <time>2024-08-11T09:40:16Z</time>
      </trkpt>
      <trkpt lat="45.67358" lon="3.27362">
        <ele>551.8</ele>
        <time>2024-08-11T09:40:17Z</time>
      </trkpt>
      <trkpt lat="45.67351" lon="3.2735">
        <ele>551.2</ele>
        <time>2024-08-11T09:40:18Z</time>
      </trkpt>
      <trkpt lat="45.67345" lon="3.27338">
        <ele>551</ele>
        <time>2024-08-11T09:40:19Z</time>
      </trkpt>
      <trkpt lat="45.67338" lon="3.27326">
        <ele>550.4</ele>
        <time>2024-08-11T09:40:20Z</time>
      </trkpt>
      <trkpt lat="45.67331" lon="3.27314">
        <ele>550</ele>
        <time>2024-08-11T09:40:21Z</time>
      </trkpt>
      <trkpt lat="45.67325" lon="3.27302">
        <ele>549.6</ele>
        <time>2024-08-11T09:40:22Z</time>
      </trkpt>
      <trkpt lat="45.67318" lon="3.2729">
        <ele>549.2</ele>
        <time>2024-08-11T09:40:23Z</time>
      </trkpt>
      <trkpt lat="45.67311" lon="3.27278">
        <ele>548.6</ele>
        <time>2024-08-11T09:40:24Z</time>
      </trkpt>
      <trkpt lat="45.67304" lon="3.27266">
        <ele>548.2</ele>
        <time>2024-08-11T09:40:25Z</time>
      </trkpt>
      <trkpt lat="45.67298" lon="3.27253">
        <ele>547.8</ele>
        <time>2024-08-11T09:40:26Z</time>
      </trkpt>
      <trkpt lat="45.67293" lon="3.27239">
        <ele>547.4</ele>
        <time>2024-08-11T09:40:27Z</time>
      </trkpt>
      <trkpt lat="45.67288" lon="3.27225">
        <ele>546.8</ele>
        <time>2024-08-11T09:40:28Z</time>
      </trkpt>
      <trkpt lat="45.67282" lon="3.27211">
        <ele>546.4</ele>
        <time>2024-08-11T09:40:29Z</time>
      </trkpt>
      <trkpt lat="45.67278" lon="3.27196">
        <ele>545.8</ele>
        <time>2024-08-11T09:40:30Z</time>
      </trkpt>
      <trkpt lat="45.67274" lon="3.27182">
        <ele>545.4</ele>
        <time>2024-08-11T09:40:31Z</time>
      </trkpt>
      <trkpt lat="45.67271" lon="3.27167">
        <ele>545</ele>
        <time>2024-08-11T09:40:32Z</time>
      </trkpt>
      <trkpt lat="45.67267" lon="3.27152">
        <ele>544.4</ele>
        <time>2024-08-11T09:40:33Z</time>
      </trkpt>
      <trkpt lat="45.67263" lon="3.27138">
        <ele>544</ele>
        <time>2024-08-11T09:40:34Z</time>
      </trkpt>
      <trkpt lat="45.6726" lon="3.27121">
        <ele>543.4</ele>
        <time>2024-08-11T09:40:35Z</time>
      </trkpt>
      <trkpt lat="45.67259" lon="3.27105">
        <ele>543</ele>
        <time>2024-08-11T09:40:36Z</time>
      </trkpt>
      <trkpt lat="45.67257" lon="3.27089">
        <ele>542.4</ele>
        <time>2024-08-11T09:40:37Z</time>
      </trkpt>
      <trkpt lat="45.67256" lon="3.27073">
        <ele>542</ele>
        <time>2024-08-11T09:40:38Z</time>
      </trkpt>
      <trkpt lat="45.67255" lon="3.27056">
        <ele>541.4</ele>
        <time>2024-08-11T09:40:39Z</time>
      </trkpt>
      <trkpt lat="45.67253" lon="3.2704">
        <ele>541</ele>
        <time>2024-08-11T09:40:40Z</time>
      </trkpt>
      <trkpt lat="45.67252" lon="3.27024">
        <ele>540.4</ele>
        <time>2024-08-11T09:40:41Z</time>
      </trkpt>
      <trkpt lat="45.6725" lon="3.27007">
        <ele>540</ele>
        <time>2024-08-11T09:40:42Z</time>
      </trkpt>
      <trkpt lat="45.67251" lon="3.2699">
        <ele>539.4</ele>
        <time>2024-08-11T09:40:43Z</time>
      </trkpt>
      <trkpt lat="45.67252" lon="3.26974">
        <ele>539</ele>
        <time>2024-08-11T09:40:44Z</time>
      </trkpt>
      <trkpt lat="45.67253" lon="3.26957">
        <ele>538.4</ele>
        <time>2024-08-11T09:40:45Z</time>
      </trkpt>
      <trkpt lat="45.67253" lon="3.26941">
        <ele>538</ele>
        <time>2024-08-11T09:40:46Z</time>
      </trkpt>
      <trkpt lat="45.67254" lon="3.26925">
        <ele>537.4</ele>
        <time>2024-08-11T09:40:47Z</time>
      </trkpt>
      <trkpt lat="45.67255" lon="3.26908">
        <ele>537</ele>
        <time>2024-08-11T09:40:48Z</time>
      </trkpt>
      <trkpt lat="45.67256" lon="3.26892">
        <ele>536.4</ele>
        <time>2024-08-11T09:40:49Z</time>
      </trkpt>
      <trkpt lat="45.67256" lon="3.26876">
        <ele>536</ele>
        <time>2024-08-11T09:40:50Z</time>
      </trkpt>
      <trkpt lat="45.67257" lon="3.2686">
        <ele>535.4</ele>
        <time>2024-08-11T09:40:51Z</time>
      </trkpt>
      <trkpt lat="45.67258" lon="3.26844">
        <ele>535</ele>
        <time>2024-08-11T09:40:52Z</time>
      </trkpt>
      <trkpt lat="45.67259" lon="3.26828">
        <ele>534.6</ele>
        <time>2024-08-11T09:40:53Z</time>
      </trkpt>
      <trkpt lat="45.67259" lon="3.26812">
        <ele>534</ele>
        <time>2024-08-11T09:40:54Z</time>
      </trkpt>
      <trkpt lat="45.6726" lon="3.26796">
        <ele>533.4</ele>
        <time>2024-08-11T09:40:55Z</time>
      </trkpt>
      <trkpt lat="45.67261" lon="3.26781">
        <ele>533</ele>
        <time>2024-08-11T09:40:56Z</time>
      </trkpt>
      <trkpt lat="45.67261" lon="3.26765">
        <ele>532.4</ele>
        <time>2024-08-11T09:40:57Z</time>
      </trkpt>
      <trkpt lat="45.67262" lon="3.26749">
        <ele>532</ele>
        <time>2024-08-11T09:40:58Z</time>
      </trkpt>
      <trkpt lat="45.67263" lon="3.26733">
        <ele>531.4</ele>
        <time>2024-08-11T09:40:59Z</time>
      </trkpt>
      <trkpt lat="45.67264" lon="3.26718">
        <ele>531</ele>
        <time>2024-08-11T09:41:00Z</time>
      </trkpt>
      <trkpt lat="45.67264" lon="3.26702">
        <ele>530.4</ele>
        <time>2024-08-11T09:41:01Z</time>
      </trkpt>
      <trkpt lat="45.67265" lon="3.26687">
        <ele>530</ele>
        <time>2024-08-11T09:41:02Z</time>
      </trkpt>
      <trkpt lat="45.67266" lon="3.26671">
        <ele>529.6</ele>
        <time>2024-08-11T09:41:03Z</time>
      </trkpt>
      <trkpt lat="45.67267" lon="3.26655">
        <ele>529</ele>
        <time>2024-08-11T09:41:04Z</time>
      </trkpt>
      <trkpt lat="45.67267" lon="3.26639">
        <ele>528.6</ele>
        <time>2024-08-11T09:41:05Z</time>
      </trkpt>
      <trkpt lat="45.67268" lon="3.26623">
        <ele>528.2</ele>
        <time>2024-08-11T09:41:06Z</time>
      </trkpt>
      <trkpt lat="45.67269" lon="3.26607">
        <ele>527.6</ele>
        <time>2024-08-11T09:41:07Z</time>
      </trkpt>
      <trkpt lat="45.6727" lon="3.26591">
        <ele>527.2</ele>
        <time>2024-08-11T09:41:08Z</time>
      </trkpt>
      <trkpt lat="45.67269" lon="3.26575">
        <ele>526.8</ele>
        <time>2024-08-11T09:41:09Z</time>
      </trkpt>
      <trkpt lat="45.67267" lon="3.26559">
        <ele>526.4</ele>
        <time>2024-08-11T09:41:10Z</time>
      </trkpt>
      <trkpt lat="45.67265" lon="3.26544">
        <ele>525.8</ele>
        <time>2024-08-11T09:41:11Z</time>
      </trkpt>
      <trkpt lat="45.67263" lon="3.26528">
        <ele>525.2</ele>
        <time>2024-08-11T09:41:12Z</time>
      </trkpt>
      <trkpt lat="45.67261" lon="3.26512">
        <ele>524.8</ele>
        <time>2024-08-11T09:41:13Z</time>
      </trkpt>
      <trkpt lat="45.67259" lon="3.26496">
        <ele>524.2</ele>
        <time>2024-08-11T09:41:14Z</time>
      </trkpt>
      <trkpt lat="45.67257" lon="3.26481">
        <ele>523.8</ele>
        <time>2024-08-11T09:41:15Z</time>
      </trkpt>
      <trkpt lat="45.67253" lon="3.26465">
        <ele>523.4</ele>
        <time>2024-08-11T09:41:16Z</time>
      </trkpt>
      <trkpt lat="45.6725" lon="3.2645">
        <ele>523</ele>
        <time>2024-08-11T09:41:17Z</time>
      </trkpt>
      <trkpt lat="45.67247" lon="3.26435">
        <ele>522.6</ele>
        <time>2024-08-11T09:41:18Z</time>
      </trkpt>
      <trkpt lat="45.67243" lon="3.2642">
        <ele>522</ele>
        <time>2024-08-11T09:41:19Z</time>
      </trkpt>
      <trkpt lat="45.67239" lon="3.26404">
        <ele>521.6</ele>
        <time>2024-08-11T09:41:20Z</time>
      </trkpt>
      <trkpt lat="45.67236" lon="3.26389">
        <ele>521.2</ele>
        <time>2024-08-11T09:41:21Z</time>
      </trkpt>
      <trkpt lat="45.67232" lon="3.26373">
        <ele>520.8</ele>
        <time>2024-08-11T09:41:22Z</time>
      </trkpt>
      <trkpt lat="45.67229" lon="3.26358">
        <ele>520.2</ele>
        <time>2024-08-11T09:41:23Z</time>
      </trkpt>
      <trkpt lat="45.67225" lon="3.26342">
        <ele>519.8</ele>
        <time>2024-08-11T09:41:24Z</time>
      </trkpt>
      <trkpt lat="45.67222" lon="3.26327">
        <ele>519.4</ele>
        <time>2024-08-11T09:41:25Z</time>
      </trkpt>
      <trkpt lat="45.67218" lon="3.26312">
        <ele>519</ele>
        <time>2024-08-11T09:41:26Z</time>
      </trkpt>
      <trkpt lat="45.67215" lon="3.26297">
        <ele>518.6</ele>
        <time>2024-08-11T09:41:27Z</time>
      </trkpt>
      <trkpt lat="45.67211" lon="3.26282">
        <ele>518.2</ele>
        <time>2024-08-11T09:41:28Z</time>
      </trkpt>
      <trkpt lat="45.67207" lon="3.26267">
        <ele>517.8</ele>
        <time>2024-08-11T09:41:29Z</time>
      </trkpt>
      <trkpt lat="45.67201" lon="3.26252">
        <ele>517.4</ele>
        <time>2024-08-11T09:41:30Z</time>
      </trkpt>
      <trkpt lat="45.67196" lon="3.26238">
        <ele>517</ele>
        <time>2024-08-11T09:41:31Z</time>
      </trkpt>
      <trkpt lat="45.6719" lon="3.26223">
        <ele>516.6</ele>
        <time>2024-08-11T09:41:32Z</time>
      </trkpt>
      <trkpt lat="45.67184" lon="3.2621">
        <ele>516.2</ele>
        <time>2024-08-11T09:41:33Z</time>
      </trkpt>
      <trkpt lat="45.67177" lon="3.26198">
        <ele>515.6</ele>
        <time>2024-08-11T09:41:34Z</time>
      </trkpt>
      <trkpt lat="45.6717" lon="3.26186">
        <ele>515.2</ele>
        <time>2024-08-11T09:41:35Z</time>
      </trkpt>
      <trkpt lat="45.67162" lon="3.26174">
        <ele>514.8</ele>
        <time>2024-08-11T09:41:36Z</time>
      </trkpt>
      <trkpt lat="45.67155" lon="3.26162">
        <ele>514.2</ele>
        <time>2024-08-11T09:41:37Z</time>
      </trkpt>
      <trkpt lat="45.67147" lon="3.2615">
        <ele>513.8</ele>
        <time>2024-08-11T09:41:38Z</time>
      </trkpt>
      <trkpt lat="45.67138" lon="3.26139">
        <ele>513.4</ele>
        <time>2024-08-11T09:41:39Z</time>
      </trkpt>
      <trkpt lat="45.67129" lon="3.2613">
        <ele>512.8</ele>
        <time>2024-08-11T09:41:40Z</time>
      </trkpt>
      <trkpt lat="45.6712" lon="3.2612">
        <ele>512.4</ele>
        <time>2024-08-11T09:41:41Z</time>
      </trkpt>
      <trkpt lat="45.67111" lon="3.26111">
        <ele>511.8</ele>
        <time>2024-08-11T09:41:42Z</time>
      </trkpt>
      <trkpt lat="45.67101" lon="3.26101">
        <ele>511.4</ele>
        <time>2024-08-11T09:41:43Z</time>
      </trkpt>
      <trkpt lat="45.67092" lon="3.26092">
        <ele>511</ele>
        <time>2024-08-11T09:41:44Z</time>
      </trkpt>
      <trkpt lat="45.67083" lon="3.26083">
        <ele>510.4</ele>
        <time>2024-08-11T09:41:45Z</time>
      </trkpt>
      <trkpt lat="45.67074" lon="3.26073">
        <ele>509.8</ele>
        <time>2024-08-11T09:41:46Z</time>
      </trkpt>
      <trkpt lat="45.67066" lon="3.26064">
        <ele>509.4</ele>
        <time>2024-08-11T09:41:47Z</time>
      </trkpt>
      <trkpt lat="45.67057" lon="3.26055">
        <ele>508.8</ele>
        <time>2024-08-11T09:41:48Z</time>
      </trkpt>
      <trkpt lat="45.67048" lon="3.26047">
        <ele>508.2</ele>
        <time>2024-08-11T09:41:49Z</time>
      </trkpt>
      <trkpt lat="45.67039" lon="3.26038">
        <ele>507.8</ele>
        <time>2024-08-11T09:41:50Z</time>
      </trkpt>
      <trkpt lat="45.67031" lon="3.26029">
        <ele>507.2</ele>
        <time>2024-08-11T09:41:51Z</time>
      </trkpt>
      <trkpt lat="45.67022" lon="3.26021">
        <ele>506.8</ele>
        <time>2024-08-11T09:41:52Z</time>
      </trkpt>
      <trkpt lat="45.67012" lon="3.26013">
        <ele>506.2</ele>
        <time>2024-08-11T09:41:53Z</time>
      </trkpt>
      <trkpt lat="45.67003" lon="3.26004">
        <ele>505.8</ele>
        <time>2024-08-11T09:41:54Z</time>
      </trkpt>
      <trkpt lat="45.66995" lon="3.25995">
        <ele>505.2</ele>
        <time>2024-08-11T09:41:55Z</time>
      </trkpt>
      <trkpt lat="45.66985" lon="3.25986">
        <ele>504.8</ele>
        <time>2024-08-11T09:41:56Z</time>
      </trkpt>
      <trkpt lat="45.66976" lon="3.25977">
        <ele>504.2</ele>
        <time>2024-08-11T09:41:57Z</time>
      </trkpt>
      <trkpt lat="45.66967" lon="3.25968">
        <ele>503.6</ele>
        <time>2024-08-11T09:41:58Z</time>
      </trkpt>
      <trkpt lat="45.66957" lon="3.2596">
        <ele>503.2</ele>
        <time>2024-08-11T09:41:59Z</time>
      </trkpt>
      <trkpt lat="45.66947" lon="3.25953">
        <ele>502.6</ele>
        <time>2024-08-11T09:42:00Z</time>
      </trkpt>
      <trkpt lat="45.66938" lon="3.25945">
        <ele>502.2</ele>
        <time>2024-08-11T09:42:01Z</time>
      </trkpt>
      <trkpt lat="45.66927" lon="3.25938">
        <ele>501.6</ele>
        <time>2024-08-11T09:42:02Z</time>
      </trkpt>
      <trkpt lat="45.66916" lon="3.25934">
        <ele>501.2</ele>
        <time>2024-08-11T09:42:03Z</time>
      </trkpt>
      <trkpt lat="45.66905" lon="3.2593">
        <ele>500.6</ele>
        <time>2024-08-11T09:42:04Z</time>
      </trkpt>
      <trkpt lat="45.66894" lon="3.25925">
        <ele>500</ele>
        <time>2024-08-11T09:42:05Z</time>
      </trkpt>
      <trkpt lat="45.66883" lon="3.2592">
        <ele>499.4</ele>
        <time>2024-08-11T09:42:06Z</time>
      </trkpt>
      <trkpt lat="45.66871" lon="3.25916">
        <ele>499</ele>
        <time>2024-08-11T09:42:07Z</time>
      </trkpt>
      <trkpt lat="45.6686" lon="3.2591">
        <ele>498.4</ele>
        <time>2024-08-11T09:42:08Z</time>
      </trkpt>
      <trkpt lat="45.66849" lon="3.25902">
        <ele>497.8</ele>
        <time>2024-08-11T09:42:09Z</time>
      </trkpt>
      <trkpt lat="45.66839" lon="3.25894">
        <ele>497.4</ele>
        <time>2024-08-11T09:42:10Z</time>
      </trkpt>
      <trkpt lat="45.66828" lon="3.25886">
        <ele>496.8</ele>
        <time>2024-08-11T09:42:11Z</time>
      </trkpt>
      <trkpt lat="45.66817" lon="3.25878">
        <ele>496.2</ele>
        <time>2024-08-11T09:42:12Z</time>
      </trkpt>
      <trkpt lat="45.66807" lon="3.2587">
        <ele>495.6</ele>
        <time>2024-08-11T09:42:13Z</time>
      </trkpt>
      <trkpt lat="45.66796" lon="3.25864">
        <ele>495.2</ele>
        <time>2024-08-11T09:42:14Z</time>
      </trkpt>
      <trkpt lat="45.66785" lon="3.25858">
        <ele>494.6</ele>
        <time>2024-08-11T09:42:15Z</time>
      </trkpt>
      <trkpt lat="45.66774" lon="3.25852">
        <ele>494.2</ele>
        <time>2024-08-11T09:42:16Z</time>
      </trkpt>
      <trkpt lat="45.66764" lon="3.25847">
        <ele>493.8</ele>
        <time>2024-08-11T09:42:17Z</time>
      </trkpt>
      <trkpt lat="45.66753" lon="3.25843">
        <ele>493.2</ele>
        <time>2024-08-11T09:42:18Z</time>
      </trkpt>
      <trkpt lat="45.66743" lon="3.25844">
        <ele>492.8</ele>
        <time>2024-08-11T09:42:19Z</time>
      </trkpt>
      <trkpt lat="45.66733" lon="3.25844">
        <ele>492.4</ele>
        <time>2024-08-11T09:42:20Z</time>
      </trkpt>
      <trkpt lat="45.66724" lon="3.25845">
        <ele>492</ele>
        <time>2024-08-11T09:42:21Z</time>
      </trkpt>
      <trkpt lat="45.66715" lon="3.25845">
        <ele>491.4</ele>
        <time>2024-08-11T09:42:22Z</time>
      </trkpt>
      <trkpt lat="45.66708" lon="3.25845">
        <ele>491</ele>
        <time>2024-08-11T09:42:23Z</time>
      </trkpt>
      <trkpt lat="45.66702" lon="3.25845">
        <ele>490.6</ele>
        <time>2024-08-11T09:42:24Z</time>
      </trkpt>
      <trkpt lat="45.66697" lon="3.25844">
        <ele>490.2</ele>
        <time>2024-08-11T09:42:25Z</time>
      </trkpt>
      <trkpt lat="45.66693" lon="3.25843">
        <ele>489.6</ele>
        <time>2024-08-11T09:42:26Z</time>
      </trkpt>
      <trkpt lat="45.66689" lon="3.25842">
        <ele>489.2</ele>
        <time>2024-08-11T09:42:27Z</time>
      </trkpt>
      <trkpt lat="45.66684" lon="3.25841">
        <ele>488.8</ele>
        <time>2024-08-11T09:42:28Z</time>
      </trkpt>
      <trkpt lat="45.66679" lon="3.25841">
        <ele>488.2</ele>
        <time>2024-08-11T09:42:29Z</time>
      </trkpt>
      <trkpt lat="45.66674" lon="3.25839">
        <ele>487.8</ele>
        <time>2024-08-11T09:42:30Z</time>
      </trkpt>
      <trkpt lat="45.66668" lon="3.25838">
        <ele>487.4</ele>
        <time>2024-08-11T09:42:31Z</time>
      </trkpt>
      <trkpt lat="45.66662" lon="3.25837">
        <ele>486.8</ele>
        <time>2024-08-11T09:42:32Z</time>
      </trkpt>
      <trkpt lat="45.66656" lon="3.25834">
        <ele>486.4</ele>
        <time>2024-08-11T09:42:33Z</time>
      </trkpt>
      <trkpt lat="45.6665" lon="3.25831">
        <ele>485.8</ele>
        <time>2024-08-11T09:42:34Z</time>
      </trkpt>
      <trkpt lat="45.66644" lon="3.25828">
        <ele>485.4</ele>
        <time>2024-08-11T09:42:35Z</time>
      </trkpt>
      <trkpt lat="45.66638" lon="3.25824">
        <ele>485</ele>
        <time>2024-08-11T09:42:36Z</time>
      </trkpt>
      <trkpt lat="45.66632" lon="3.25821">
        <ele>484.4</ele>
        <time>2024-08-11T09:42:37Z</time>
      </trkpt>
      <trkpt lat="45.66626" lon="3.25818">
        <ele>484</ele>
        <time>2024-08-11T09:42:38Z</time>
      </trkpt>
      <trkpt lat="45.66619" lon="3.25814">
        <ele>483.6</ele>
        <time>2024-08-11T09:42:39Z</time>
      </trkpt>
      <trkpt lat="45.66613" lon="3.25811">
        <ele>483.2</ele>
        <time>2024-08-11T09:42:40Z</time>
      </trkpt>
      <trkpt lat="45.66607" lon="3.25807">
        <ele>482.8</ele>
        <time>2024-08-11T09:42:41Z</time>
      </trkpt>
      <trkpt lat="45.66601" lon="3.25804">
        <ele>482.4</ele>
        <time>2024-08-11T09:42:42Z</time>
      </trkpt>
      <trkpt lat="45.66594" lon="3.25801">
        <ele>482</ele>
        <time>2024-08-11T09:42:43Z</time>
      </trkpt>
      <trkpt lat="45.66587" lon="3.25798">
        <ele>481.6</ele>
        <time>2024-08-11T09:42:44Z</time>
      </trkpt>
      <trkpt lat="45.6658" lon="3.25795">
        <ele>481.2</ele>
        <time>2024-08-11T09:42:45Z</time>
      </trkpt>
      <trkpt lat="45.66573" lon="3.25792">
        <ele>480.8</ele>
        <time>2024-08-11T09:42:46Z</time>
      </trkpt>
      <trkpt lat="45.66566" lon="3.25789">
        <ele>480.4</ele>
        <time>2024-08-11T09:42:47Z</time>
      </trkpt>
      <trkpt lat="45.66559" lon="3.25786">
        <ele>480.2</ele>
        <time>2024-08-11T09:42:48Z</time>
      </trkpt>
      <trkpt lat="45.66552" lon="3.25782">
        <ele>479.8</ele>
        <time>2024-08-11T09:42:49Z</time>
      </trkpt>
      <trkpt lat="45.66544" lon="3.25779">
        <ele>479.4</ele>
        <time>2024-08-11T09:42:50Z</time>
      </trkpt>
      <trkpt lat="45.66537" lon="3.25776">
        <ele>479.2</ele>
        <time>2024-08-11T09:42:51Z</time>
      </trkpt>
      <trkpt lat="45.66529" lon="3.25772">
        <ele>478.8</ele>
        <time>2024-08-11T09:42:52Z</time>
      </trkpt>
      <trkpt lat="45.66522" lon="3.25769">
        <ele>478.4</ele>
        <time>2024-08-11T09:42:53Z</time>
      </trkpt>
      <trkpt lat="45.66515" lon="3.25765">
        <ele>478.2</ele>
        <time>2024-08-11T09:42:54Z</time>
      </trkpt>
      <trkpt lat="45.66508" lon="3.2576">
        <ele>477.8</ele>
        <time>2024-08-11T09:42:55Z</time>
      </trkpt>
      <trkpt lat="45.66501" lon="3.25756">
        <ele>477.6</ele>
        <time>2024-08-11T09:42:56Z</time>
      </trkpt>
      <trkpt lat="45.66495" lon="3.25753">
        <ele>477.4</ele>
        <time>2024-08-11T09:42:57Z</time>
      </trkpt>
      <trkpt lat="45.66489" lon="3.25749">
        <ele>477.2</ele>
        <time>2024-08-11T09:42:58Z</time>
      </trkpt>
      <trkpt lat="45.66483" lon="3.25744">
        <ele>477</ele>
        <time>2024-08-11T09:42:59Z</time>
      </trkpt>
      <trkpt lat="45.66478" lon="3.25739">
        <ele>476.6</ele>
        <time>2024-08-11T09:43:00Z</time>
      </trkpt>
      <trkpt lat="45.66472" lon="3.25734">
        <ele>476.4</ele>
        <time>2024-08-11T09:43:01Z</time>
      </trkpt>
      <trkpt lat="45.66467" lon="3.2573">
        <ele>476.2</ele>
        <time>2024-08-11T09:43:02Z</time>
      </trkpt>
      <trkpt lat="45.66462" lon="3.25725">
        <ele>475.8</ele>
        <time>2024-08-11T09:43:03Z</time>
      </trkpt>
      <trkpt lat="45.66457" lon="3.25721">
        <ele>475.6</ele>
        <time>2024-08-11T09:43:04Z</time>
      </trkpt>
      <trkpt lat="45.66452" lon="3.25717">
        <ele>475.4</ele>
        <time>2024-08-11T09:43:05Z</time>
      </trkpt>
      <trkpt lat="45.66447" lon="3.25712">
        <ele>475.2</ele>
        <time>2024-08-11T09:43:06Z</time>
      </trkpt>
      <trkpt lat="45.66443" lon="3.25708">
        <ele>475</ele>
        <time>2024-08-11T09:43:07Z</time>
      </trkpt>
      <trkpt lat="45.66438" lon="3.25704">
        <ele>474.8</ele>
        <time>2024-08-11T09:43:08Z</time>
      </trkpt>
      <trkpt lat="45.66434" lon="3.257">
        <ele>474.6</ele>
        <time>2024-08-11T09:43:09Z</time>
      </trkpt>
      <trkpt lat="45.66429" lon="3.25697">
        <ele>474.2</ele>
        <time>2024-08-11T09:43:10Z</time>
      </trkpt>
      <trkpt lat="45.66425" lon="3.25693">
        <ele>474.2</ele>
        <time>2024-08-11T09:43:11Z</time>
      </trkpt>
      <trkpt lat="45.66421" lon="3.25689">
        <ele>474</ele>
        <time>2024-08-11T09:43:12Z</time>
      </trkpt>
      <trkpt lat="45.66416" lon="3.25685">
        <ele>473.8</ele>
        <time>2024-08-11T09:43:13Z</time>
      </trkpt>
      <trkpt lat="45.66412" lon="3.25681">
        <ele>473.6</ele>
        <time>2024-08-11T09:43:14Z</time>
      </trkpt>
      <trkpt lat="45.66408" lon="3.25678">
        <ele>473.2</ele>
        <time>2024-08-11T09:43:15Z</time>
      </trkpt>
      <trkpt lat="45.66404" lon="3.25674">
        <ele>473.2</ele>
        <time>2024-08-11T09:43:16Z</time>
      </trkpt>
      <trkpt lat="45.664" lon="3.2567">
        <ele>472.8</ele>
        <time>2024-08-11T09:43:17Z</time>
      </trkpt>
      <trkpt lat="45.66396" lon="3.25667">
        <ele>472.6</ele>
        <time>2024-08-11T09:43:18Z</time>
      </trkpt>
      <trkpt lat="45.66392" lon="3.25663">
        <ele>472.6</ele>
        <time>2024-08-11T09:43:19Z</time>
      </trkpt>
      <trkpt lat="45.66387" lon="3.25659">
        <ele>472.4</ele>
        <time>2024-08-11T09:43:20Z</time>
      </trkpt>
      <trkpt lat="45.66383" lon="3.25656">
        <ele>472.2</ele>
        <time>2024-08-11T09:43:21Z</time>
      </trkpt>
      <trkpt lat="45.66379" lon="3.25652">
        <ele>472</ele>
        <time>2024-08-11T09:43:22Z</time>
      </trkpt>
      <trkpt lat="45.66375" lon="3.25648">
        <ele>471.8</ele>
        <time>2024-08-11T09:43:23Z</time>
      </trkpt>
      <trkpt lat="45.66371" lon="3.25645">
        <ele>471.6</ele>
        <time>2024-08-11T09:43:24Z</time>
      </trkpt>
      <trkpt lat="45.66367" lon="3.25641">
        <ele>471.4</ele>
        <time>2024-08-11T09:43:25Z</time>
      </trkpt>
      <trkpt lat="45.66363" lon="3.25638">
        <ele>471.2</ele>
        <time>2024-08-11T09:43:26Z</time>
      </trkpt>
      <trkpt lat="45.66359" lon="3.25634">
        <ele>471</ele>
        <time>2024-08-11T09:43:27Z</time>
      </trkpt>
      <trkpt lat="45.66355" lon="3.25631">
        <ele>471</ele>
        <time>2024-08-11T09:43:28Z</time>
      </trkpt>
      <trkpt lat="45.66351" lon="3.25627">
        <ele>470.8</ele>
        <time>2024-08-11T09:43:29Z</time>
      </trkpt>
      <trkpt lat="45.66347" lon="3.25624">
        <ele>470.6</ele>
        <time>2024-08-11T09:43:30Z</time>
      </trkpt>
      <trkpt lat="45.66343" lon="3.2562">
        <ele>470.4</ele>
        <time>2024-08-11T09:43:31Z</time>
      </trkpt>
      <trkpt lat="45.66339" lon="3.25617">
        <ele>470.2</ele>
        <time>2024-08-11T09:43:32Z</time>
      </trkpt>
      <trkpt lat="45.66335" lon="3.25614">
        <ele>470</ele>
        <time>2024-08-11T09:43:33Z</time>
      </trkpt>
      <trkpt lat="45.66331" lon="3.25611">
        <ele>470</ele>
        <time>2024-08-11T09:43:34Z</time>
      </trkpt>
      <trkpt lat="45.66327" lon="3.25607">
        <ele>470</ele>
        <time>2024-08-11T09:43:35Z</time>
      </trkpt>
      <trkpt lat="45.66323" lon="3.25604">
        <ele>470</ele>
        <time>2024-08-11T09:43:36Z</time>
      </trkpt>
      <trkpt lat="45.66319" lon="3.25601">
        <ele>469.8</ele>
        <time>2024-08-11T09:43:37Z</time>
      </trkpt>
      <trkpt lat="45.66314" lon="3.25597">
        <ele>470</ele>
        <time>2024-08-11T09:43:38Z</time>
      </trkpt>
      <trkpt lat="45.6631" lon="3.25593">
        <ele>470</ele>
        <time>2024-08-11T09:43:39Z</time>
      </trkpt>
      <trkpt lat="45.66306" lon="3.2559">
        <ele>470</ele>
        <time>2024-08-11T09:43:40Z</time>
      </trkpt>
      <trkpt lat="45.66301" lon="3.25586">
        <ele>470</ele>
        <time>2024-08-11T09:43:41Z</time>
      </trkpt>
      <trkpt lat="45.66297" lon="3.25583">
        <ele>470</ele>
        <time>2024-08-11T09:43:42Z</time>
      </trkpt>
      <trkpt lat="45.66293" lon="3.2558">
        <ele>470.2</ele>
        <time>2024-08-11T09:43:43Z</time>
      </trkpt>
      <trkpt lat="45.66289" lon="3.25576">
        <ele>470</ele>
        <time>2024-08-11T09:43:44Z</time>
      </trkpt>
      <trkpt lat="45.66285" lon="3.25573">
        <ele>470</ele>
        <time>2024-08-11T09:43:45Z</time>
      </trkpt>
      <trkpt lat="45.66281" lon="3.2557">
        <ele>470</ele>
        <time>2024-08-11T09:43:46Z</time>
      </trkpt>
      <trkpt lat="45.66277" lon="3.25567">
        <ele>470</ele>
        <time>2024-08-11T09:43:47Z</time>
      </trkpt>
      <trkpt lat="45.66273" lon="3.25563">
        <ele>470</ele>
        <time>2024-08-11T09:43:48Z</time>
      </trkpt>
      <trkpt lat="45.6627" lon="3.2556">
        <ele>470</ele>
        <time>2024-08-11T09:43:49Z</time>
      </trkpt>
      <trkpt lat="45.66266" lon="3.25557">
        <ele>470</ele>
        <time>2024-08-11T09:43:50Z</time>
      </trkpt>
      <trkpt lat="45.66262" lon="3.25554">
        <ele>470</ele>
        <time>2024-08-11T09:43:51Z</time>
      </trkpt>
      <trkpt lat="45.66258" lon="3.25551">
        <ele>470</ele>
        <time>2024-08-11T09:43:52Z</time>
      </trkpt>
      <trkpt lat="45.66254" lon="3.25547">
        <ele>469.8</ele>
        <time>2024-08-11T09:43:53Z</time>
      </trkpt>
      <trkpt lat="45.6625" lon="3.25544">
        <ele>469.8</ele>
        <time>2024-08-11T09:43:54Z</time>
      </trkpt>
      <trkpt lat="45.66245" lon="3.25541">
        <ele>469.8</ele>
        <time>2024-08-11T09:43:55Z</time>
      </trkpt>
      <trkpt lat="45.66241" lon="3.25538">
        <ele>469.8</ele>
        <time>2024-08-11T09:43:56Z</time>
      </trkpt>
      <trkpt lat="45.66236" lon="3.25536">
        <ele>469.6</ele>
        <time>2024-08-11T09:43:57Z</time>
      </trkpt>
      <trkpt lat="45.66231" lon="3.25533">
        <ele>469.6</ele>
        <time>2024-08-11T09:43:58Z</time>
      </trkpt>
      <trkpt lat="45.66226" lon="3.2553">
        <ele>469.6</ele>
        <time>2024-08-11T09:43:59Z</time>
      </trkpt>
      <trkpt lat="45.66221" lon="3.25527">
        <ele>469.6</ele>
        <time>2024-08-11T09:44:00Z</time>
      </trkpt>
      <trkpt lat="45.66216" lon="3.25525">
        <ele>469.4</ele>
        <time>2024-08-11T09:44:01Z</time>
      </trkpt>
      <trkpt lat="45.66211" lon="3.25522">
        <ele>469.4</ele>
        <time>2024-08-11T09:44:02Z</time>
      </trkpt>
      <trkpt lat="45.66206" lon="3.25519">
        <ele>469.4</ele>
        <time>2024-08-11T09:44:03Z</time>
      </trkpt>
      <trkpt lat="45.66202" lon="3.25516">
        <ele>469.4</ele>
        <time>2024-08-11T09:44:04Z</time>
      </trkpt>
      <trkpt lat="45.66197" lon="3.25513">
        <ele>469.2</ele>
        <time>2024-08-11T09:44:05Z</time>
      </trkpt>
      <trkpt lat="45.66192" lon="3.25511">
        <ele>469.2</ele>
        <time>2024-08-11T09:44:06Z</time>
      </trkpt>
      <trkpt lat="45.66187" lon="3.25508">
        <ele>469.2</ele>
        <time>2024-08-11T09:44:07Z</time>
      </trkpt>
      <trkpt lat="45.66182" lon="3.25505">
        <ele>469.2</ele>
        <time>2024-08-11T09:44:08Z</time>
      </trkpt>
      <trkpt lat="45.66177" lon="3.25502">
        <ele>469.2</ele>
        <time>2024-08-11T09:44:09Z</time>
      </trkpt>
      <trkpt lat="45.66172" lon="3.255">
        <ele>469.2</ele>
        <time>2024-08-11T09:44:10Z</time>
      </trkpt>
      <trkpt lat="45.66167" lon="3.25497">
        <ele>469.2</ele>
        <time>2024-08-11T09:44:11Z</time>
      </trkpt>
      <trkpt lat="45.66162" lon="3.25495">
        <ele>469.2</ele>
        <time>2024-08-11T09:44:12Z</time>
      </trkpt>
      <trkpt lat="45.66157" lon="3.25493">
        <ele>469.2</ele>
        <time>2024-08-11T09:44:13Z</time>
      </trkpt>
      <trkpt lat="45.66151" lon="3.25491">
        <ele>469</ele>
        <time>2024-08-11T09:44:14Z</time>
      </trkpt>
      <trkpt lat="45.66146" lon="3.25489">
        <ele>469</ele>
        <time>2024-08-11T09:44:15Z</time>
      </trkpt>
      <trkpt lat="45.66141" lon="3.25486">
        <ele>469</ele>
        <time>2024-08-11T09:44:16Z</time>
      </trkpt>
      <trkpt lat="45.66135" lon="3.25484">
        <ele>469</ele>
        <time>2024-08-11T09:44:17Z</time>
      </trkpt>
      <trkpt lat="45.66129" lon="3.25482">
        <ele>469</ele>
        <time>2024-08-11T09:44:18Z</time>
      </trkpt>
      <trkpt lat="45.66124" lon="3.25479">
        <ele>469</ele>
        <time>2024-08-11T09:44:19Z</time>
      </trkpt>
      <trkpt lat="45.66117" lon="3.25477">
        <ele>468.8</ele>
        <time>2024-08-11T09:44:20Z</time>
      </trkpt>
      <trkpt lat="45.66111" lon="3.25474">
        <ele>468.8</ele>
        <time>2024-08-11T09:44:21Z</time>
      </trkpt>
      <trkpt lat="45.66105" lon="3.25473">
        <ele>468.8</ele>
        <time>2024-08-11T09:44:22Z</time>
      </trkpt>
      <trkpt lat="45.66098" lon="3.25471">
        <ele>468.8</ele>
        <time>2024-08-11T09:44:23Z</time>
      </trkpt>
      <trkpt lat="45.66092" lon="3.25469">
        <ele>468.6</ele>
        <time>2024-08-11T09:44:24Z</time>
      </trkpt>
      <trkpt lat="45.66085" lon="3.25468">
        <ele>468.6</ele>
        <time>2024-08-11T09:44:25Z</time>
      </trkpt>
      <trkpt lat="45.66078" lon="3.25466">
        <ele>468.6</ele>
        <time>2024-08-11T09:44:26Z</time>
      </trkpt>
      <trkpt lat="45.66072" lon="3.25464">
        <ele>468.4</ele>
        <time>2024-08-11T09:44:27Z</time>
      </trkpt>
      <trkpt lat="45.66065" lon="3.25463">
        <ele>468.4</ele>
        <time>2024-08-11T09:44:28Z</time>
      </trkpt>
      <trkpt lat="45.66058" lon="3.25461">
        <ele>468.2</ele>
        <time>2024-08-11T09:44:29Z</time>
      </trkpt>
      <trkpt lat="45.66051" lon="3.25459">
        <ele>468.2</ele>
        <time>2024-08-11T09:44:30Z</time>
      </trkpt>
      <trkpt lat="45.66044" lon="3.25457">
        <ele>468.2</ele>
        <time>2024-08-11T09:44:31Z</time>
      </trkpt>
      <trkpt lat="45.66037" lon="3.25456">
        <ele>468.2</ele>
        <time>2024-08-11T09:44:32Z</time>
      </trkpt>
      <trkpt lat="45.6603" lon="3.25454">
        <ele>468</ele>
        <time>2024-08-11T09:44:33Z</time>
      </trkpt>
      <trkpt lat="45.66022" lon="3.25452">
        <ele>468</ele>
        <time>2024-08-11T09:44:34Z</time>
      </trkpt>
      <trkpt lat="45.66014" lon="3.2545">
        <ele>468</ele>
        <time>2024-08-11T09:44:35Z</time>
      </trkpt>
      <trkpt lat="45.66006" lon="3.25449">
        <ele>467.8</ele>
        <time>2024-08-11T09:44:36Z</time>
      </trkpt>
      <trkpt lat="45.65998" lon="3.25448">
        <ele>467.8</ele>
        <time>2024-08-11T09:44:37Z</time>
      </trkpt>
      <trkpt lat="45.6599" lon="3.25448">
        <ele>467.6</ele>
        <time>2024-08-11T09:44:38Z</time>
      </trkpt>
      <trkpt lat="45.65982" lon="3.25447">
        <ele>467.6</ele>
        <time>2024-08-11T09:44:39Z</time>
      </trkpt>
      <trkpt lat="45.65973" lon="3.25446">
        <ele>467.4</ele>
        <time>2024-08-11T09:44:40Z</time>
      </trkpt>
      <trkpt lat="45.65964" lon="3.25446">
        <ele>467.4</ele>
        <time>2024-08-11T09:44:41Z</time>
      </trkpt>
      <trkpt lat="45.65955" lon="3.25445">
        <ele>467.2</ele>
        <time>2024-08-11T09:44:42Z</time>
      </trkpt>
      <trkpt lat="45.65946" lon="3.25444">
        <ele>467.2</ele>
        <time>2024-08-11T09:44:43Z</time>
      </trkpt>
      <trkpt lat="45.65937" lon="3.25443">
        <ele>467</ele>
        <time>2024-08-11T09:44:44Z</time>
      </trkpt>
      <trkpt lat="45.65927" lon="3.25442">
        <ele>466.8</ele>
        <time>2024-08-11T09:44:45Z</time>
      </trkpt>
      <trkpt lat="45.65917" lon="3.25442">
        <ele>466.6</ele>
        <time>2024-08-11T09:44:46Z</time>
      </trkpt>
      <trkpt lat="45.65907" lon="3.25441">
        <ele>466.4</ele>
        <time>2024-08-11T09:44:47Z</time>
      </trkpt>
      <trkpt lat="45.65896" lon="3.2544">
        <ele>466.4</ele>
        <time>2024-08-11T09:44:48Z</time>
      </trkpt>
      <trkpt lat="45.65886" lon="3.25439">
        <ele>466.2</ele>
        <time>2024-08-11T09:44:49Z</time>
      </trkpt>
      <trkpt lat="45.65875" lon="3.25438">
        <ele>465.8</ele>
        <time>2024-08-11T09:44:50Z</time>
      </trkpt>
      <trkpt lat="45.65864" lon="3.25437">
        <ele>465.6</ele>
        <time>2024-08-11T09:44:51Z</time>
      </trkpt>
      <trkpt lat="45.65853" lon="3.25436">
        <ele>465.4</ele>
        <time>2024-08-11T09:44:52Z</time>
      </trkpt>
      <trkpt lat="45.65842" lon="3.25434">
        <ele>465</ele>
        <time>2024-08-11T09:44:53Z</time>
      </trkpt>
      <trkpt lat="45.6583" lon="3.25433">
        <ele>464.8</ele>
        <time>2024-08-11T09:44:54Z</time>
      </trkpt>
      <trkpt lat="45.65819" lon="3.25432">
        <ele>464.4</ele>
        <time>2024-08-11T09:44:55Z</time>
      </trkpt>
      <trkpt lat="45.65808" lon="3.25431">
        <ele>464.2</ele>
        <time>2024-08-11T09:44:56Z</time>
      </trkpt>
      <trkpt lat="45.65796" lon="3.25429">
        <ele>463.8</ele>
        <time>2024-08-11T09:44:57Z</time>
      </trkpt>
      <trkpt lat="45.65784" lon="3.25428">
        <ele>463.4</ele>
        <time>2024-08-11T09:44:58Z</time>
      </trkpt>
      <trkpt lat="45.65772" lon="3.25427">
        <ele>463.2</ele>
        <time>2024-08-11T09:44:59Z</time>
      </trkpt>
      <trkpt lat="45.6576" lon="3.25426">
        <ele>462.8</ele>
        <time>2024-08-11T09:45:00Z</time>
      </trkpt>
      <trkpt lat="45.65748" lon="3.25426">
        <ele>462.6</ele>
        <time>2024-08-11T09:45:01Z</time>
      </trkpt>
      <trkpt lat="45.65737" lon="3.25425">
        <ele>462.2</ele>
        <time>2024-08-11T09:45:02Z</time>
      </trkpt>
      <trkpt lat="45.65725" lon="3.25425">
        <ele>461.8</ele>
        <time>2024-08-11T09:45:03Z</time>
      </trkpt>
      <trkpt lat="45.65714" lon="3.25424">
        <ele>461.4</ele>
        <time>2024-08-11T09:45:04Z</time>
      </trkpt>
      <trkpt lat="45.65702" lon="3.25423">
        <ele>461.2</ele>
        <time>2024-08-11T09:45:05Z</time>
      </trkpt>
      <trkpt lat="45.65691" lon="3.25423">
        <ele>461</ele>
        <time>2024-08-11T09:45:06Z</time>
      </trkpt>
      <trkpt lat="45.6568" lon="3.25422">
        <ele>460.6</ele>
        <time>2024-08-11T09:45:07Z</time>
      </trkpt>
      <trkpt lat="45.65669" lon="3.25422">
        <ele>460.6</ele>
        <time>2024-08-11T09:45:08Z</time>
      </trkpt>
      <trkpt lat="45.65659" lon="3.25421">
        <ele>460.4</ele>
        <time>2024-08-11T09:45:09Z</time>
      </trkpt>
      <trkpt lat="45.65648" lon="3.25421">
        <ele>460.4</ele>
        <time>2024-08-11T09:45:10Z</time>
      </trkpt>
      <trkpt lat="45.65638" lon="3.2542">
        <ele>460.2</ele>
        <time>2024-08-11T09:45:11Z</time>
      </trkpt>
      <trkpt lat="45.65629" lon="3.2542">
        <ele>460</ele>
        <time>2024-08-11T09:45:12Z</time>
      </trkpt>
      <trkpt lat="45.65619" lon="3.25419">
        <ele>460</ele>
        <time>2024-08-11T09:45:13Z</time>
      </trkpt>
      <trkpt lat="45.6561" lon="3.25418">
        <ele>459.8</ele>
        <time>2024-08-11T09:45:14Z</time>
      </trkpt>
      <trkpt lat="45.65602" lon="3.25418">
        <ele>459.8</ele>
        <time>2024-08-11T09:45:15Z</time>
      </trkpt>
      <trkpt lat="45.65594" lon="3.25417">
        <ele>459.6</ele>
        <time>2024-08-11T09:45:16Z</time>
      </trkpt>
      <trkpt lat="45.65586" lon="3.25417">
        <ele>459.4</ele>
        <time>2024-08-11T09:45:17Z</time>
      </trkpt>
      <trkpt lat="45.65579" lon="3.25416">
        <ele>459.2</ele>
        <time>2024-08-11T09:45:18Z</time>
      </trkpt>
      <trkpt lat="45.65571" lon="3.25416">
        <ele>459.2</ele>
        <time>2024-08-11T09:45:19Z</time>
      </trkpt>
      <trkpt lat="45.65564" lon="3.25415">
        <ele>459</ele>
        <time>2024-08-11T09:45:20Z</time>
      </trkpt>
      <trkpt lat="45.65556" lon="3.25415">
        <ele>458.8</ele>
        <time>2024-08-11T09:45:21Z</time>
      </trkpt>
      <trkpt lat="45.65549" lon="3.25414">
        <ele>458.8</ele>
        <time>2024-08-11T09:45:22Z</time>
      </trkpt>
      <trkpt lat="45.65542" lon="3.25414">
        <ele>458.6</ele>
        <time>2024-08-11T09:45:23Z</time>
      </trkpt>
      <trkpt lat="45.65535" lon="3.25413">
        <ele>458.4</ele>
        <time>2024-08-11T09:45:24Z</time>
      </trkpt>
      <trkpt lat="45.65528" lon="3.25413">
        <ele>458.2</ele>
        <time>2024-08-11T09:45:25Z</time>
      </trkpt>
      <trkpt lat="45.65521" lon="3.25413">
        <ele>458</ele>
        <time>2024-08-11T09:45:26Z</time>
      </trkpt>
      <trkpt lat="45.65514" lon="3.25412">
        <ele>458</ele>
        <time>2024-08-11T09:45:27Z</time>
      </trkpt>
      <trkpt lat="45.65507" lon="3.25412">
        <ele>457.8</ele>
        <time>2024-08-11T09:45:28Z</time>
      </trkpt>
      <trkpt lat="45.655" lon="3.25411">
        <ele>457.6</ele>
        <time>2024-08-11T09:45:29Z</time>
      </trkpt>
      <trkpt lat="45.65494" lon="3.25411">
        <ele>457.6</ele>
        <time>2024-08-11T09:45:30Z</time>
      </trkpt>
      <trkpt lat="45.65487" lon="3.2541">
        <ele>457.6</ele>
        <time>2024-08-11T09:45:31Z</time>
      </trkpt>
      <trkpt lat="45.6548" lon="3.2541">
        <ele>457.4</ele>
        <time>2024-08-11T09:45:32Z</time>
      </trkpt>
      <trkpt lat="45.65473" lon="3.25409">
        <ele>457.2</ele>
        <time>2024-08-11T09:45:33Z</time>
      </trkpt>
      <trkpt lat="45.65467" lon="3.25409">
        <ele>457</ele>
        <time>2024-08-11T09:45:34Z</time>
      </trkpt>
      <trkpt lat="45.6546" lon="3.25409">
        <ele>456.8</ele>
        <time>2024-08-11T09:45:35Z</time>
      </trkpt>
      <trkpt lat="45.65453" lon="3.25408">
        <ele>456.8</ele>
        <time>2024-08-11T09:45:36Z</time>
      </trkpt>
      <trkpt lat="45.65447" lon="3.25408">
        <ele>456.6</ele>
        <time>2024-08-11T09:45:37Z</time>
      </trkpt>
      <trkpt lat="45.6544" lon="3.2541">
        <ele>456.4</ele>
        <time>2024-08-11T09:45:38Z</time>
      </trkpt>
      <trkpt lat="45.65433" lon="3.25412">
        <ele>456.4</ele>
        <time>2024-08-11T09:45:39Z</time>
      </trkpt>
      <trkpt lat="45.65426" lon="3.25413">
        <ele>456.2</ele>
        <time>2024-08-11T09:45:40Z</time>
      </trkpt>
      <trkpt lat="45.65419" lon="3.25415">
        <ele>456.2</ele>
        <time>2024-08-11T09:45:41Z</time>
      </trkpt>
      <trkpt lat="45.65412" lon="3.25417">
        <ele>456</ele>
        <time>2024-08-11T09:45:42Z</time>
      </trkpt>
      <trkpt lat="45.65405" lon="3.25419">
        <ele>455.8</ele>
        <time>2024-08-11T09:45:43Z</time>
      </trkpt>
      <trkpt lat="45.65398" lon="3.2542">
        <ele>455.6</ele>
        <time>2024-08-11T09:45:44Z</time>
      </trkpt>
      <trkpt lat="45.6539" lon="3.25423">
        <ele>455.6</ele>
        <time>2024-08-11T09:45:45Z</time>
      </trkpt>
      <trkpt lat="45.65383" lon="3.25426">
        <ele>455.4</ele>
        <time>2024-08-11T09:45:46Z</time>
      </trkpt>
      <trkpt lat="45.65376" lon="3.25429">
        <ele>455.2</ele>
        <time>2024-08-11T09:45:47Z</time>
      </trkpt>
      <trkpt lat="45.65369" lon="3.25432">
        <ele>455</ele>
        <time>2024-08-11T09:45:48Z</time>
      </trkpt>
      <trkpt lat="45.65362" lon="3.25435">
        <ele>455</ele>
        <time>2024-08-11T09:45:49Z</time>
      </trkpt>
      <trkpt lat="45.65355" lon="3.25438">
        <ele>454.8</ele>
        <time>2024-08-11T09:45:50Z</time>
      </trkpt>
      <trkpt lat="45.65348" lon="3.2544">
        <ele>454.6</ele>
        <time>2024-08-11T09:45:51Z</time>
      </trkpt>
      <trkpt lat="45.65341" lon="3.25443">
        <ele>454.4</ele>
        <time>2024-08-11T09:45:52Z</time>
      </trkpt>
      <trkpt lat="45.65334" lon="3.25446">
        <ele>454.4</ele>
        <time>2024-08-11T09:45:53Z</time>
      </trkpt>
      <trkpt lat="45.65327" lon="3.25449">
        <ele>454.2</ele>
        <time>2024-08-11T09:45:54Z</time>
      </trkpt>
      <trkpt lat="45.65321" lon="3.25452">
        <ele>454</ele>
        <time>2024-08-11T09:45:55Z</time>
      </trkpt>
      <trkpt lat="45.65315" lon="3.25454">
        <ele>453.8</ele>
        <time>2024-08-11T09:45:56Z</time>
      </trkpt>
      <trkpt lat="45.65309" lon="3.25455">
        <ele>453.8</ele>
        <time>2024-08-11T09:45:57Z</time>
      </trkpt>
      <trkpt lat="45.65302" lon="3.25456">
        <ele>453.8</ele>
        <time>2024-08-11T09:45:58Z</time>
      </trkpt>
      <trkpt lat="45.65296" lon="3.25456">
        <ele>453.6</ele>
        <time>2024-08-11T09:45:59Z</time>
      </trkpt>
      <trkpt lat="45.6529" lon="3.25457">
        <ele>453.6</ele>
        <time>2024-08-11T09:46:00Z</time>
      </trkpt>
      <trkpt lat="45.65285" lon="3.25457">
        <ele>453.4</ele>
        <time>2024-08-11T09:46:01Z</time>
      </trkpt>
      <trkpt lat="45.65279" lon="3.25458">
        <ele>453.2</ele>
        <time>2024-08-11T09:46:02Z</time>
      </trkpt>
      <trkpt lat="45.65273" lon="3.25458">
        <ele>453.2</ele>
        <time>2024-08-11T09:46:03Z</time>
      </trkpt>
      <trkpt lat="45.65268" lon="3.25458">
        <ele>453</ele>
        <time>2024-08-11T09:46:04Z</time>
      </trkpt>
      <trkpt lat="45.65262" lon="3.25459">
        <ele>453</ele>
        <time>2024-08-11T09:46:05Z</time>
      </trkpt>
      <trkpt lat="45.65257" lon="3.25459">
        <ele>453</ele>
        <time>2024-08-11T09:46:06Z</time>
      </trkpt>
      <trkpt lat="45.65252" lon="3.25458">
        <ele>452.8</ele>
        <time>2024-08-11T09:46:07Z</time>
      </trkpt>
      <trkpt lat="45.65248" lon="3.25457">
        <ele>452.6</ele>
        <time>2024-08-11T09:46:08Z</time>
      </trkpt>
      <trkpt lat="45.65243" lon="3.25455">
        <ele>452.6</ele>
        <time>2024-08-11T09:46:09Z</time>
      </trkpt>
      <trkpt lat="45.65239" lon="3.25454">
        <ele>452.6</ele>
        <time>2024-08-11T09:46:10Z</time>
      </trkpt>
      <trkpt lat="45.65234" lon="3.25453">
        <ele>452.4</ele>
        <time>2024-08-11T09:46:11Z</time>
      </trkpt>
      <trkpt lat="45.6523" lon="3.25451">
        <ele>452.4</ele>
        <time>2024-08-11T09:46:12Z</time>
      </trkpt>
      <trkpt lat="45.65225" lon="3.2545">
        <ele>452.4</ele>
        <time>2024-08-11T09:46:13Z</time>
      </trkpt>
      <trkpt lat="45.65221" lon="3.25449">
        <ele>452.2</ele>
        <time>2024-08-11T09:46:14Z</time>
      </trkpt>
      <trkpt lat="45.65217" lon="3.25448">
        <ele>452.2</ele>
        <time>2024-08-11T09:46:15Z</time>
      </trkpt>
      <trkpt lat="45.65213" lon="3.25447">
        <ele>452.2</ele>
        <time>2024-08-11T09:46:16Z</time>
      </trkpt>
      <trkpt lat="45.65209" lon="3.25444">
        <ele>452.2</ele>
        <time>2024-08-11T09:46:17Z</time>
      </trkpt>
      <trkpt lat="45.65205" lon="3.25442">
        <ele>452.2</ele>
        <time>2024-08-11T09:46:18Z</time>
      </trkpt>
      <trkpt lat="45.65202" lon="3.25439">
        <ele>452.2</ele>
        <time>2024-08-11T09:46:19Z</time>
      </trkpt>
      <trkpt lat="45.65198" lon="3.25437">
        <ele>452.2</ele>
        <time>2024-08-11T09:46:20Z</time>
      </trkpt>
      <trkpt lat="45.65195" lon="3.25435">
        <ele>452</ele>
        <time>2024-08-11T09:46:21Z</time>
      </trkpt>
      <trkpt lat="45.65191" lon="3.25432">
        <ele>452</ele>
        <time>2024-08-11T09:46:22Z</time>
      </trkpt>
      <trkpt lat="45.65187" lon="3.2543">
        <ele>452</ele>
        <time>2024-08-11T09:46:23Z</time>
      </trkpt>
      <trkpt lat="45.65183" lon="3.25427">
        <ele>452</ele>
        <time>2024-08-11T09:46:24Z</time>
      </trkpt>
      <trkpt lat="45.65179" lon="3.25425">
        <ele>452</ele>
        <time>2024-08-11T09:46:25Z</time>
      </trkpt>
      <trkpt lat="45.65175" lon="3.25422">
        <ele>452</ele>
        <time>2024-08-11T09:46:26Z</time>
      </trkpt>
      <trkpt lat="45.65172" lon="3.25419">
        <ele>452</ele>
        <time>2024-08-11T09:46:27Z</time>
      </trkpt>
      <trkpt lat="45.65168" lon="3.25417">
        <ele>452.2</ele>
        <time>2024-08-11T09:46:28Z</time>
      </trkpt>
      <trkpt lat="45.65164" lon="3.25415">
        <ele>452.2</ele>
        <time>2024-08-11T09:46:29Z</time>
      </trkpt>
      <trkpt lat="45.65161" lon="3.25412">
        <ele>452.2</ele>
        <time>2024-08-11T09:46:30Z</time>
      </trkpt>
      <trkpt lat="45.65158" lon="3.2541">
        <ele>451.6</ele>
        <time>2024-08-11T09:46:31Z</time>
      </trkpt>
      <trkpt lat="45.65155" lon="3.25408">
        <ele>452</ele>
        <time>2024-08-11T09:46:32Z</time>
      </trkpt>
      <trkpt lat="45.65152" lon="3.25405">
        <ele>452.2</ele>
        <time>2024-08-11T09:46:33Z</time>
      </trkpt>
      <trkpt lat="45.65149" lon="3.25402">
        <ele>452.8</ele>
        <time>2024-08-11T09:46:34Z</time>
      </trkpt>
      <trkpt lat="45.65147" lon="3.25399">
        <ele>453.2</ele>
        <time>2024-08-11T09:46:35Z</time>
      </trkpt>
      <trkpt lat="45.65144" lon="3.25396">
        <ele>452.6</ele>
        <time>2024-08-11T09:46:36Z</time>
      </trkpt>
      <trkpt lat="45.65142" lon="3.25393">
        <ele>452.6</ele>
        <time>2024-08-11T09:46:37Z</time>
      </trkpt>
      <trkpt lat="45.65139" lon="3.2539">
        <ele>452.8</ele>
        <time>2024-08-11T09:46:38Z</time>
      </trkpt>
      <trkpt lat="45.65137" lon="3.25387">
        <ele>452.8</ele>
        <time>2024-08-11T09:46:39Z</time>
      </trkpt>
      <trkpt lat="45.65135" lon="3.25384">
        <ele>452.8</ele>
        <time>2024-08-11T09:46:40Z</time>
      </trkpt>
      <trkpt lat="45.65132" lon="3.25382">
        <ele>452.8</ele>
        <time>2024-08-11T09:46:41Z</time>
      </trkpt>
      <trkpt lat="45.6513" lon="3.25379">
        <ele>452.8</ele>
        <time>2024-08-11T09:46:42Z</time>
      </trkpt>
      <trkpt lat="45.65127" lon="3.25376">
        <ele>453</ele>
        <time>2024-08-11T09:46:43Z</time>
      </trkpt>
      <trkpt lat="45.65125" lon="3.25373">
        <ele>453</ele>
        <time>2024-08-11T09:46:44Z</time>
      </trkpt>
      <trkpt lat="45.65123" lon="3.2537">
        <ele>453</ele>
        <time>2024-08-11T09:46:45Z</time>
      </trkpt>
      <trkpt lat="45.6512" lon="3.25367">
        <ele>453.2</ele>
        <time>2024-08-11T09:46:46Z</time>
      </trkpt>
      <trkpt lat="45.65118" lon="3.25365">
        <ele>453.2</ele>
        <time>2024-08-11T09:46:47Z</time>
      </trkpt>
      <trkpt lat="45.65116" lon="3.25362">
        <ele>453.2</ele>
        <time>2024-08-11T09:46:48Z</time>
      </trkpt>
      <trkpt lat="45.65113" lon="3.25359">
        <ele>453.2</ele>
        <time>2024-08-11T09:46:49Z</time>
      </trkpt>
      <trkpt lat="45.65111" lon="3.25356">
        <ele>453.4</ele>
        <time>2024-08-11T09:46:50Z</time>
      </trkpt>
      <trkpt lat="45.65109" lon="3.25353">
        <ele>453.4</ele>
        <time>2024-08-11T09:46:51Z</time>
      </trkpt>
      <trkpt lat="45.65107" lon="3.25351">
        <ele>453.4</ele>
        <time>2024-08-11T09:46:52Z</time>
      </trkpt>
      <trkpt lat="45.65104" lon="3.25348">
        <ele>453.6</ele>
        <time>2024-08-11T09:46:53Z</time>
      </trkpt>
      <trkpt lat="45.65102" lon="3.25346">
        <ele>453.6</ele>
        <time>2024-08-11T09:46:54Z</time>
      </trkpt>
      <trkpt lat="45.651" lon="3.25343">
        <ele>453.6</ele>
        <time>2024-08-11T09:46:55Z</time>
      </trkpt>
      <trkpt lat="45.65098" lon="3.2534">
        <ele>453.8</ele>
        <time>2024-08-11T09:46:56Z</time>
      </trkpt>
      <trkpt lat="45.65096" lon="3.25338">
        <ele>453.8</ele>
        <time>2024-08-11T09:46:57Z</time>
      </trkpt>
      <trkpt lat="45.65093" lon="3.25335">
        <ele>454</ele>
        <time>2024-08-11T09:46:58Z</time>
      </trkpt>
      <trkpt lat="45.65091" lon="3.25332">
        <ele>454</ele>
        <time>2024-08-11T09:46:59Z</time>
      </trkpt>
      <trkpt lat="45.65089" lon="3.2533">
        <ele>454</ele>
        <time>2024-08-11T09:47:00Z</time>
      </trkpt>
      <trkpt lat="45.65087" lon="3.25327">
        <ele>454.2</ele>
        <time>2024-08-11T09:47:01Z</time>
      </trkpt>
      <trkpt lat="45.65085" lon="3.25325">
        <ele>454.4</ele>
        <time>2024-08-11T09:47:02Z</time>
      </trkpt>
      <trkpt lat="45.65082" lon="3.25322">
        <ele>454.4</ele>
        <time>2024-08-11T09:47:03Z</time>
      </trkpt>
      <trkpt lat="45.6508" lon="3.25319">
        <ele>454.6</ele>
        <time>2024-08-11T09:47:04Z</time>
      </trkpt>
      <trkpt lat="45.65077" lon="3.25316">
        <ele>454.6</ele>
        <time>2024-08-11T09:47:05Z</time>
      </trkpt>
      <trkpt lat="45.65077" lon="3.25316">
        <ele>454.6</ele>
        <time>2024-08-11T09:47:06Z</time>
      </trkpt>
      <trkpt lat="45.65073" lon="3.25311">
        <ele>454.8</ele>
        <time>2024-08-11T09:47:07Z</time>
      </trkpt>
      <trkpt lat="45.65071" lon="3.25308">
        <ele>455</ele>
        <time>2024-08-11T09:47:08Z</time>
      </trkpt>
      <trkpt lat="45.65069" lon="3.25305">
        <ele>455.2</ele>
        <time>2024-08-11T09:47:09Z</time>
      </trkpt>
      <trkpt lat="45.65066" lon="3.25303">
        <ele>455.2</ele>
        <time>2024-08-11T09:47:10Z</time>
      </trkpt>
      <trkpt lat="45.65064" lon="3.253">
        <ele>455.2</ele>
        <time>2024-08-11T09:47:11Z</time>
      </trkpt>
      <trkpt lat="45.65062" lon="3.25298">
        <ele>455.4</ele>
        <time>2024-08-11T09:47:12Z</time>
      </trkpt>
      <trkpt lat="45.6506" lon="3.25296">
        <ele>455.4</ele>
        <time>2024-08-11T09:47:13Z</time>
      </trkpt>
      <trkpt lat="45.65058" lon="3.25293">
        <ele>455.6</ele>
        <time>2024-08-11T09:47:14Z</time>
      </trkpt>
      <trkpt lat="45.65056" lon="3.25291">
        <ele>455.6</ele>
        <time>2024-08-11T09:47:15Z</time>
      </trkpt>
      <trkpt lat="45.65054" lon="3.25288">
        <ele>455.8</ele>
        <time>2024-08-11T09:47:16Z</time>
      </trkpt>
      <trkpt lat="45.65052" lon="3.25286">
        <ele>455.8</ele>
        <time>2024-08-11T09:47:17Z</time>
      </trkpt>
      <trkpt lat="45.6505" lon="3.25284">
        <ele>456</ele>
        <time>2024-08-11T09:47:18Z</time>
      </trkpt>
      <trkpt lat="45.65048" lon="3.25281">
        <ele>456</ele>
        <time>2024-08-11T09:47:19Z</time>
      </trkpt>
      <trkpt lat="45.65046" lon="3.25278">
        <ele>456.2</ele>
        <time>2024-08-11T09:47:20Z</time>
      </trkpt>
      <trkpt lat="45.65044" lon="3.25276">
        <ele>456.2</ele>
        <time>2024-08-11T09:47:21Z</time>
      </trkpt>
      <trkpt lat="45.65042" lon="3.25273">
        <ele>456.4</ele>
        <time>2024-08-11T09:47:22Z</time>
      </trkpt>
      <trkpt lat="45.6504" lon="3.25271">
        <ele>456.4</ele>
        <time>2024-08-11T09:47:23Z</time>
      </trkpt>
      <trkpt lat="45.65038" lon="3.25268">
        <ele>456.6</ele>
        <time>2024-08-11T09:47:24Z</time>
      </trkpt>
      <trkpt lat="45.65035" lon="3.25266">
        <ele>456.6</ele>
        <time>2024-08-11T09:47:25Z</time>
      </trkpt>
      <trkpt lat="45.65033" lon="3.25263">
        <ele>456.8</ele>
        <time>2024-08-11T09:47:26Z</time>
      </trkpt>
      <trkpt lat="45.65031" lon="3.25261">
        <ele>457</ele>
        <time>2024-08-11T09:47:27Z</time>
      </trkpt>
      <trkpt lat="45.65029" lon="3.25258">
        <ele>457</ele>
        <time>2024-08-11T09:47:28Z</time>
      </trkpt>
      <trkpt lat="45.65027" lon="3.25255">
        <ele>457.2</ele>
        <time>2024-08-11T09:47:29Z</time>
      </trkpt>
      <trkpt lat="45.65024" lon="3.25253">
        <ele>457.2</ele>
        <time>2024-08-11T09:47:30Z</time>
      </trkpt>
      <trkpt lat="45.65022" lon="3.2525">
        <ele>457.4</ele>
        <time>2024-08-11T09:47:31Z</time>
      </trkpt>
      <trkpt lat="45.6502" lon="3.25247">
        <ele>457.6</ele>
        <time>2024-08-11T09:47:32Z</time>
      </trkpt>
      <trkpt lat="45.65018" lon="3.25245">
        <ele>457.6</ele>
        <time>2024-08-11T09:47:33Z</time>
      </trkpt>
      <trkpt lat="45.65016" lon="3.25242">
        <ele>457.8</ele>
        <time>2024-08-11T09:47:34Z</time>
      </trkpt>
      <trkpt lat="45.65013" lon="3.25239">
        <ele>457.8</ele>
        <time>2024-08-11T09:47:35Z</time>
      </trkpt>
      <trkpt lat="45.65011" lon="3.25237">
        <ele>458</ele>
        <time>2024-08-11T09:47:36Z</time>
      </trkpt>
      <trkpt lat="45.65009" lon="3.25234">
        <ele>458.2</ele>
        <time>2024-08-11T09:47:37Z</time>
      </trkpt>
      <trkpt lat="45.65007" lon="3.25232">
        <ele>458.2</ele>
        <time>2024-08-11T09:47:38Z</time>
      </trkpt>
      <trkpt lat="45.65005" lon="3.25229">
        <ele>458.2</ele>
        <time>2024-08-11T09:47:39Z</time>
      </trkpt>
      <trkpt lat="45.65003" lon="3.25227">
        <ele>458.4</ele>
        <time>2024-08-11T09:47:40Z</time>
      </trkpt>
      <trkpt lat="45.65001" lon="3.25224">
        <ele>458.4</ele>
        <time>2024-08-11T09:47:41Z</time>
      </trkpt>
      <trkpt lat="45.64999" lon="3.25221">
        <ele>458.6</ele>
        <time>2024-08-11T09:47:42Z</time>
      </trkpt>
      <trkpt lat="45.64997" lon="3.25219">
        <ele>458.8</ele>
        <time>2024-08-11T09:47:43Z</time>
      </trkpt>
      <trkpt lat="45.64994" lon="3.25216">
        <ele>458.8</ele>
        <time>2024-08-11T09:47:44Z</time>
      </trkpt>
      <trkpt lat="45.64992" lon="3.25214">
        <ele>459</ele>
        <time>2024-08-11T09:47:45Z</time>
      </trkpt>
      <trkpt lat="45.6499" lon="3.25211">
        <ele>459</ele>
        <time>2024-08-11T09:47:46Z</time>
      </trkpt>
      <trkpt lat="45.64987" lon="3.25208">
        <ele>459.2</ele>
        <time>2024-08-11T09:47:47Z</time>
      </trkpt>
      <trkpt lat="45.64985" lon="3.25206">
        <ele>459.2</ele>
        <time>2024-08-11T09:47:48Z</time>
      </trkpt>
      <trkpt lat="45.64983" lon="3.25203">
        <ele>459.4</ele>
        <time>2024-08-11T09:47:49Z</time>
      </trkpt>
      <trkpt lat="45.64981" lon="3.252">
        <ele>459.6</ele>
        <time>2024-08-11T09:47:50Z</time>
      </trkpt>
      <trkpt lat="45.64979" lon="3.25198">
        <ele>459.6</ele>
        <time>2024-08-11T09:47:51Z</time>
      </trkpt>
      <trkpt lat="45.64976" lon="3.25195">
        <ele>459.6</ele>
        <time>2024-08-11T09:47:52Z</time>
      </trkpt>
      <trkpt lat="45.64974" lon="3.25193">
        <ele>459.8</ele>
        <time>2024-08-11T09:47:53Z</time>
      </trkpt>
      <trkpt lat="45.64972" lon="3.2519">
        <ele>459.8</ele>
        <time>2024-08-11T09:47:54Z</time>
      </trkpt>
      <trkpt lat="45.6497" lon="3.25187">
        <ele>460</ele>
        <time>2024-08-11T09:47:55Z</time>
      </trkpt>
      <trkpt lat="45.64968" lon="3.25185">
        <ele>460</ele>
        <time>2024-08-11T09:47:56Z</time>
      </trkpt>
      <trkpt lat="45.64965" lon="3.25182">
        <ele>460.2</ele>
        <time>2024-08-11T09:47:57Z</time>
      </trkpt>
      <trkpt lat="45.64963" lon="3.25179">
        <ele>460.2</ele>
        <time>2024-08-11T09:47:58Z</time>
      </trkpt>
      <trkpt lat="45.64961" lon="3.25177">
        <ele>460.4</ele>
        <time>2024-08-11T09:47:59Z</time>
      </trkpt>
      <trkpt lat="45.64959" lon="3.25174">
        <ele>460.6</ele>
        <time>2024-08-11T09:48:00Z</time>
      </trkpt>
      <trkpt lat="45.64956" lon="3.25172">
        <ele>460.6</ele>
        <time>2024-08-11T09:48:01Z</time>
      </trkpt>
      <trkpt lat="45.64954" lon="3.25169">
        <ele>460.8</ele>
        <time>2024-08-11T09:48:02Z</time>
      </trkpt>
      <trkpt lat="45.64952" lon="3.25167">
        <ele>461</ele>
        <time>2024-08-11T09:48:03Z</time>
      </trkpt>
      <trkpt lat="45.6495" lon="3.25164">
        <ele>461</ele>
        <time>2024-08-11T09:48:04Z</time>
      </trkpt>
      <trkpt lat="45.64948" lon="3.25162">
        <ele>461.2</ele>
        <time>2024-08-11T09:48:05Z</time>
      </trkpt>
      <trkpt lat="45.64946" lon="3.25159">
        <ele>461.2</ele>
        <time>2024-08-11T09:48:06Z</time>
      </trkpt>
      <trkpt lat="45.64944" lon="3.25157">
        <ele>461.4</ele>
        <time>2024-08-11T09:48:07Z</time>
      </trkpt>
      <trkpt lat="45.64941" lon="3.25154">
        <ele>461.6</ele>
        <time>2024-08-11T09:48:08Z</time>
      </trkpt>
      <trkpt lat="45.64939" lon="3.25151">
        <ele>461.6</ele>
        <time>2024-08-11T09:48:09Z</time>
      </trkpt>
      <trkpt lat="45.64937" lon="3.25148">
        <ele>461.8</ele>
        <time>2024-08-11T09:48:10Z</time>
      </trkpt>
      <trkpt lat="45.64934" lon="3.25146">
        <ele>461.8</ele>
        <time>2024-08-11T09:48:11Z</time>
      </trkpt>
      <trkpt lat="45.64932" lon="3.25143">
        <ele>462</ele>
        <time>2024-08-11T09:48:12Z</time>
      </trkpt>
      <trkpt lat="45.6493" lon="3.2514">
        <ele>462</ele>
        <time>2024-08-11T09:48:13Z</time>
      </trkpt>
      <trkpt lat="45.64928" lon="3.25138">
        <ele>462.2</ele>
        <time>2024-08-11T09:48:14Z</time>
      </trkpt>
      <trkpt lat="45.64925" lon="3.25135">
        <ele>462.2</ele>
        <time>2024-08-11T09:48:15Z</time>
      </trkpt>
      <trkpt lat="45.64923" lon="3.25132">
        <ele>462.4</ele>
        <time>2024-08-11T09:48:16Z</time>
      </trkpt>
      <trkpt lat="45.64921" lon="3.2513">
        <ele>462.4</ele>
        <time>2024-08-11T09:48:17Z</time>
      </trkpt>
      <trkpt lat="45.64919" lon="3.25127">
        <ele>462.6</ele>
        <time>2024-08-11T09:48:18Z</time>
      </trkpt>
      <trkpt lat="45.64917" lon="3.25125">
        <ele>462.6</ele>
        <time>2024-08-11T09:48:19Z</time>
      </trkpt>
      <trkpt lat="45.64914" lon="3.25122">
        <ele>462.8</ele>
        <time>2024-08-11T09:48:20Z</time>
      </trkpt>
      <trkpt lat="45.64912" lon="3.25119">
        <ele>463</ele>
        <time>2024-08-11T09:48:21Z</time>
      </trkpt>
      <trkpt lat="45.64909" lon="3.25116">
        <ele>463</ele>
        <time>2024-08-11T09:48:22Z</time>
      </trkpt>
      <trkpt lat="45.64907" lon="3.25114">
        <ele>463.2</ele>
        <time>2024-08-11T09:48:23Z</time>
      </trkpt>
      <trkpt lat="45.64905" lon="3.25111">
        <ele>463.2</ele>
        <time>2024-08-11T09:48:24Z</time>
      </trkpt>
      <trkpt lat="45.64903" lon="3.25108">
        <ele>463.4</ele>
        <time>2024-08-11T09:48:25Z</time>
      </trkpt>
      <trkpt lat="45.649" lon="3.25105">
        <ele>463.4</ele>
        <time>2024-08-11T09:48:26Z</time>
      </trkpt>
      <trkpt lat="45.64898" lon="3.25102">
        <ele>463.6</ele>
        <time>2024-08-11T09:48:27Z</time>
      </trkpt>
      <trkpt lat="45.64896" lon="3.25099">
        <ele>463.8</ele>
        <time>2024-08-11T09:48:28Z</time>
      </trkpt>
      <trkpt lat="45.64894" lon="3.25096">
        <ele>463.8</ele>
        <time>2024-08-11T09:48:29Z</time>
      </trkpt>
      <trkpt lat="45.64892" lon="3.25093">
        <ele>464</ele>
        <time>2024-08-11T09:48:30Z</time>
      </trkpt>
      <trkpt lat="45.6489" lon="3.25091">
        <ele>464.2</ele>
        <time>2024-08-11T09:48:31Z</time>
      </trkpt>
      <trkpt lat="45.64887" lon="3.25088">
        <ele>464.2</ele>
        <time>2024-08-11T09:48:32Z</time>
      </trkpt>
      <trkpt lat="45.64885" lon="3.25085">
        <ele>464.4</ele>
        <time>2024-08-11T09:48:33Z</time>
      </trkpt>
      <trkpt lat="45.64883" lon="3.25082">
        <ele>464.4</ele>
        <time>2024-08-11T09:48:34Z</time>
      </trkpt>
      <trkpt lat="45.64881" lon="3.25079">
        <ele>464.6</ele>
        <time>2024-08-11T09:48:35Z</time>
      </trkpt>
      <trkpt lat="45.64878" lon="3.25077">
        <ele>464.6</ele>
        <time>2024-08-11T09:48:36Z</time>
      </trkpt>
      <trkpt lat="45.64876" lon="3.25074">
        <ele>464.8</ele>
        <time>2024-08-11T09:48:37Z</time>
      </trkpt>
      <trkpt lat="45.64874" lon="3.25071">
        <ele>465</ele>
        <time>2024-08-11T09:48:38Z</time>
      </trkpt>
      <trkpt lat="45.64872" lon="3.25068">
        <ele>465</ele>
        <time>2024-08-11T09:48:39Z</time>
      </trkpt>
      <trkpt lat="45.64869" lon="3.25066">
        <ele>465</ele>
        <time>2024-08-11T09:48:40Z</time>
      </trkpt>
      <trkpt lat="45.64867" lon="3.25063">
        <ele>465.2</ele>
        <time>2024-08-11T09:48:41Z</time>
      </trkpt>
      <trkpt lat="45.64862" lon="3.25066">
        <ele>465.4</ele>
        <time>2024-08-11T09:48:42Z</time>
      </trkpt>
      <trkpt lat="45.6486" lon="3.25063">
        <ele>465.4</ele>
        <time>2024-08-11T09:48:43Z</time>
      </trkpt>
      <trkpt lat="45.64857" lon="3.25061">
        <ele>465.4</ele>
        <time>2024-08-11T09:48:44Z</time>
      </trkpt>
      <trkpt lat="45.64854" lon="3.2506">
        <ele>465.6</ele>
        <time>2024-08-11T09:48:45Z</time>
      </trkpt>
      <trkpt lat="45.64851" lon="3.25059">
        <ele>465.8</ele>
        <time>2024-08-11T09:48:46Z</time>
      </trkpt>
      <trkpt lat="45.64848" lon="3.25059">
        <ele>465.8</ele>
        <time>2024-08-11T09:48:47Z</time>
      </trkpt>
      <trkpt lat="45.64845" lon="3.25058">
        <ele>466</ele>
        <time>2024-08-11T09:48:48Z</time>
      </trkpt>
      <trkpt lat="45.64842" lon="3.25057">
        <ele>466</ele>
        <time>2024-08-11T09:48:49Z</time>
      </trkpt>
      <trkpt lat="45.64839" lon="3.25057">
        <ele>466.2</ele>
        <time>2024-08-11T09:48:50Z</time>
      </trkpt>
      <trkpt lat="45.64835" lon="3.25056">
        <ele>466.2</ele>
        <time>2024-08-11T09:48:51Z</time>
      </trkpt>
      <trkpt lat="45.64833" lon="3.25056">
        <ele>466.4</ele>
        <time>2024-08-11T09:48:52Z</time>
      </trkpt>
      <trkpt lat="45.6483" lon="3.25056">
        <ele>466.6</ele>
        <time>2024-08-11T09:48:53Z</time>
      </trkpt>
      <trkpt lat="45.64827" lon="3.25056">
        <ele>466.6</ele>
        <time>2024-08-11T09:48:54Z</time>
      </trkpt>
      <trkpt lat="45.64824" lon="3.25056">
        <ele>466.8</ele>
        <time>2024-08-11T09:48:55Z</time>
      </trkpt>
      <trkpt lat="45.6482" lon="3.25057">
        <ele>467</ele>
        <time>2024-08-11T09:48:56Z</time>
      </trkpt>
      <trkpt lat="45.64817" lon="3.25057">
        <ele>467</ele>
        <time>2024-08-11T09:48:57Z</time>
      </trkpt>
      <trkpt lat="45.64815" lon="3.25058">
        <ele>467.2</ele>
        <time>2024-08-11T09:48:58Z</time>
      </trkpt>
      <trkpt lat="45.64812" lon="3.25058">
        <ele>467.2</ele>
        <time>2024-08-11T09:48:59Z</time>
      </trkpt>
      <trkpt lat="45.64808" lon="3.25059">
        <ele>467.4</ele>
        <time>2024-08-11T09:49:00Z</time>
      </trkpt>
      <trkpt lat="45.64805" lon="3.2506">
        <ele>467.4</ele>
        <time>2024-08-11T09:49:01Z</time>
      </trkpt>
      <trkpt lat="45.64802" lon="3.2506">
        <ele>467.6</ele>
        <time>2024-08-11T09:49:02Z</time>
      </trkpt>
      <trkpt lat="45.648" lon="3.25062">
        <ele>467.8</ele>
        <time>2024-08-11T09:49:03Z</time>
      </trkpt>
      <trkpt lat="45.64797" lon="3.25064">
        <ele>468</ele>
        <time>2024-08-11T09:49:04Z</time>
      </trkpt>
      <trkpt lat="45.64794" lon="3.25065">
        <ele>468.2</ele>
        <time>2024-08-11T09:49:05Z</time>
      </trkpt>
      <trkpt lat="45.64791" lon="3.25067">
        <ele>468.2</ele>
        <time>2024-08-11T09:49:06Z</time>
      </trkpt>
      <trkpt lat="45.64788" lon="3.25069">
        <ele>468.4</ele>
        <time>2024-08-11T09:49:07Z</time>
      </trkpt>
      <trkpt lat="45.64785" lon="3.25071">
        <ele>468.4</ele>
        <time>2024-08-11T09:49:08Z</time>
      </trkpt>
      <trkpt lat="45.64782" lon="3.25073">
        <ele>468.6</ele>
        <time>2024-08-11T09:49:09Z</time>
      </trkpt>
      <trkpt lat="45.64779" lon="3.25075">
        <ele>468.6</ele>
        <time>2024-08-11T09:49:10Z</time>
      </trkpt>
      <trkpt lat="45.64776" lon="3.25078">
        <ele>468.8</ele>
        <time>2024-08-11T09:49:11Z</time>
      </trkpt>
      <trkpt lat="45.64774" lon="3.25081">
        <ele>468.8</ele>
        <time>2024-08-11T09:49:12Z</time>
      </trkpt>
      <trkpt lat="45.64772" lon="3.25084">
        <ele>469</ele>
        <time>2024-08-11T09:49:13Z</time>
      </trkpt>
      <trkpt lat="45.6477" lon="3.25087">
        <ele>469.2</ele>
        <time>2024-08-11T09:49:14Z</time>
      </trkpt>
      <trkpt lat="45.64767" lon="3.2509">
        <ele>469.2</ele>
        <time>2024-08-11T09:49:15Z</time>
      </trkpt>
      <trkpt lat="45.64765" lon="3.25093">
        <ele>469.4</ele>
        <time>2024-08-11T09:49:16Z</time>
      </trkpt>
      <trkpt lat="45.64762" lon="3.25096">
        <ele>469.6</ele>
        <time>2024-08-11T09:49:17Z</time>
      </trkpt>
      <trkpt lat="45.6476" lon="3.25099">
        <ele>469.6</ele>
        <time>2024-08-11T09:49:18Z</time>
      </trkpt>
      <trkpt lat="45.64758" lon="3.25102">
        <ele>469.8</ele>
        <time>2024-08-11T09:49:19Z</time>
      </trkpt>
      <trkpt lat="45.64756" lon="3.25106">
        <ele>469.8</ele>
        <time>2024-08-11T09:49:20Z</time>
      </trkpt>
      <trkpt lat="45.64754" lon="3.25109">
        <ele>470</ele>
        <time>2024-08-11T09:49:21Z</time>
      </trkpt>
      <trkpt lat="45.64752" lon="3.25112">
        <ele>470</ele>
        <time>2024-08-11T09:49:22Z</time>
      </trkpt>
      <trkpt lat="45.64751" lon="3.25115">
        <ele>470.2</ele>
        <time>2024-08-11T09:49:23Z</time>
      </trkpt>
      <trkpt lat="45.64749" lon="3.25119">
        <ele>470.2</ele>
        <time>2024-08-11T09:49:24Z</time>
      </trkpt>
      <trkpt lat="45.64747" lon="3.25122">
        <ele>470.4</ele>
        <time>2024-08-11T09:49:25Z</time>
      </trkpt>
      <trkpt lat="45.64745" lon="3.25125">
        <ele>470.6</ele>
        <time>2024-08-11T09:49:26Z</time>
      </trkpt>
      <trkpt lat="45.64743" lon="3.25129">
        <ele>470.6</ele>
        <time>2024-08-11T09:49:27Z</time>
      </trkpt>
      <trkpt lat="45.64742" lon="3.25132">
        <ele>470.8</ele>
        <time>2024-08-11T09:49:28Z</time>
      </trkpt>
      <trkpt lat="45.6474" lon="3.25136">
        <ele>470.8</ele>
        <time>2024-08-11T09:49:29Z</time>
      </trkpt>
      <trkpt lat="45.64738" lon="3.25139">
        <ele>471</ele>
        <time>2024-08-11T09:49:30Z</time>
      </trkpt>
      <trkpt lat="45.64736" lon="3.25142">
        <ele>471.2</ele>
        <time>2024-08-11T09:49:31Z</time>
      </trkpt>
      <trkpt lat="45.64735" lon="3.25145">
        <ele>471.2</ele>
        <time>2024-08-11T09:49:32Z</time>
      </trkpt>
      <trkpt lat="45.64733" lon="3.25148">
        <ele>471.4</ele>
        <time>2024-08-11T09:49:33Z</time>
      </trkpt>
      <trkpt lat="45.64731" lon="3.25152">
        <ele>471.4</ele>
        <time>2024-08-11T09:49:34Z</time>
      </trkpt>
      <trkpt lat="45.64729" lon="3.25155">
        <ele>471.6</ele>
        <time>2024-08-11T09:49:35Z</time>
      </trkpt>
      <trkpt lat="45.64728" lon="3.25158">
        <ele>471.8</ele>
        <time>2024-08-11T09:49:36Z</time>
      </trkpt>
      <trkpt lat="45.64726" lon="3.25161">
        <ele>471.8</ele>
        <time>2024-08-11T09:49:37Z</time>
      </trkpt>
      <trkpt lat="45.64724" lon="3.25165">
        <ele>472</ele>
        <time>2024-08-11T09:49:38Z</time>
      </trkpt>
      <trkpt lat="45.64722" lon="3.25168">
        <ele>472</ele>
        <time>2024-08-11T09:49:39Z</time>
      </trkpt>
      <trkpt lat="45.64721" lon="3.25171">
        <ele>472.2</ele>
        <time>2024-08-11T09:49:40Z</time>
      </trkpt>
      <trkpt lat="45.64719" lon="3.25175">
        <ele>472.4</ele>
        <time>2024-08-11T09:49:41Z</time>
      </trkpt>
      <trkpt lat="45.64717" lon="3.25178">
        <ele>472.4</ele>
        <time>2024-08-11T09:49:42Z</time>
      </trkpt>
      <trkpt lat="45.64715" lon="3.25181">
        <ele>472.6</ele>
        <time>2024-08-11T09:49:43Z</time>
      </trkpt>
      <trkpt lat="45.64714" lon="3.25184">
        <ele>472.6</ele>
        <time>2024-08-11T09:49:44Z</time>
      </trkpt>
      <trkpt lat="45.64712" lon="3.25187">
        <ele>472.8</ele>
        <time>2024-08-11T09:49:45Z</time>
      </trkpt>
      <trkpt lat="45.6471" lon="3.2519">
        <ele>473</ele>
        <time>2024-08-11T09:49:46Z</time>
      </trkpt>
      <trkpt lat="45.64708" lon="3.25194">
        <ele>473</ele>
        <time>2024-08-11T09:49:47Z</time>
      </trkpt>
      <trkpt lat="45.64706" lon="3.25197">
        <ele>473.2</ele>
        <time>2024-08-11T09:49:48Z</time>
      </trkpt>
      <trkpt lat="45.64704" lon="3.252">
        <ele>473.2</ele>
        <time>2024-08-11T09:49:49Z</time>
      </trkpt>
      <trkpt lat="45.64703" lon="3.25203">
        <ele>473.2</ele>
        <time>2024-08-11T09:49:50Z</time>
      </trkpt>
      <trkpt lat="45.64701" lon="3.25206">
        <ele>473.4</ele>
        <time>2024-08-11T09:49:51Z</time>
      </trkpt>
      <trkpt lat="45.64699" lon="3.2521">
        <ele>473.6</ele>
        <time>2024-08-11T09:49:52Z</time>
      </trkpt>
      <trkpt lat="45.64697" lon="3.25213">
        <ele>473.8</ele>
        <time>2024-08-11T09:49:53Z</time>
      </trkpt>
      <trkpt lat="45.64695" lon="3.25216">
        <ele>473.8</ele>
        <time>2024-08-11T09:49:54Z</time>
      </trkpt>
      <trkpt lat="45.64693" lon="3.25219">
        <ele>474</ele>
        <time>2024-08-11T09:49:55Z</time>
      </trkpt>
      <trkpt lat="45.64691" lon="3.25223">
        <ele>474</ele>
        <time>2024-08-11T09:49:56Z</time>
      </trkpt>
      <trkpt lat="45.64689" lon="3.25226">
        <ele>474.2</ele>
        <time>2024-08-11T09:49:57Z</time>
      </trkpt>
      <trkpt lat="45.64687" lon="3.25229">
        <ele>474.2</ele>
        <time>2024-08-11T09:49:58Z</time>
      </trkpt>
      <trkpt lat="45.64685" lon="3.25233">
        <ele>474.4</ele>
        <time>2024-08-11T09:49:59Z</time>
      </trkpt>
      <trkpt lat="45.64683" lon="3.25236">
        <ele>474.6</ele>
        <time>2024-08-11T09:50:00Z</time>
      </trkpt>
      <trkpt lat="45.64681" lon="3.2524">
        <ele>474.8</ele>
        <time>2024-08-11T09:50:01Z</time>
      </trkpt>
      <trkpt lat="45.64679" lon="3.25243">
        <ele>474.8</ele>
        <time>2024-08-11T09:50:02Z</time>
      </trkpt>
      <trkpt lat="45.64677" lon="3.25246">
        <ele>474.8</ele>
        <time>2024-08-11T09:50:03Z</time>
      </trkpt>
      <trkpt lat="45.64675" lon="3.2525">
        <ele>475</ele>
        <time>2024-08-11T09:50:04Z</time>
      </trkpt>
      <trkpt lat="45.64673" lon="3.25253">
        <ele>475</ele>
        <time>2024-08-11T09:50:05Z</time>
      </trkpt>
      <trkpt lat="45.64671" lon="3.25256">
        <ele>475.2</ele>
        <time>2024-08-11T09:50:06Z</time>
      </trkpt>
      <trkpt lat="45.64669" lon="3.2526">
        <ele>475.2</ele>
        <time>2024-08-11T09:50:07Z</time>
      </trkpt>
      <trkpt lat="45.64667" lon="3.25263">
        <ele>475.2</ele>
        <time>2024-08-11T09:50:08Z</time>
      </trkpt>
      <trkpt lat="45.64665" lon="3.25267">
        <ele>475.4</ele>
        <time>2024-08-11T09:50:09Z</time>
      </trkpt>
      <trkpt lat="45.64663" lon="3.2527">
        <ele>475.6</ele>
        <time>2024-08-11T09:50:10Z</time>
      </trkpt>
      <trkpt lat="45.64661" lon="3.25273">
        <ele>475.6</ele>
        <time>2024-08-11T09:50:11Z</time>
      </trkpt>
      <trkpt lat="45.64659" lon="3.25277">
        <ele>475.8</ele>
        <time>2024-08-11T09:50:12Z</time>
      </trkpt>
      <trkpt lat="45.64657" lon="3.2528">
        <ele>475.8</ele>
        <time>2024-08-11T09:50:13Z</time>
      </trkpt>
      <trkpt lat="45.64654" lon="3.25283">
        <ele>476</ele>
        <time>2024-08-11T09:50:14Z</time>
      </trkpt>
      <trkpt lat="45.64652" lon="3.25287">
        <ele>476</ele>
        <time>2024-08-11T09:50:15Z</time>
      </trkpt>
      <trkpt lat="45.64649" lon="3.2529">
        <ele>476.2</ele>
        <time>2024-08-11T09:50:16Z</time>
      </trkpt>
      <trkpt lat="45.64647" lon="3.25292">
        <ele>476.4</ele>
        <time>2024-08-11T09:50:17Z</time>
      </trkpt>
      <trkpt lat="45.64644" lon="3.25294">
        <ele>476.4</ele>
        <time>2024-08-11T09:50:18Z</time>
      </trkpt>
      <trkpt lat="45.64642" lon="3.25297">
        <ele>476.6</ele>
        <time>2024-08-11T09:50:19Z</time>
      </trkpt>
      <trkpt lat="45.64639" lon="3.25299">
        <ele>476.6</ele>
        <time>2024-08-11T09:50:20Z</time>
      </trkpt>
      <trkpt lat="45.64636" lon="3.25301">
        <ele>476.8</ele>
        <time>2024-08-11T09:50:21Z</time>
      </trkpt>
      <trkpt lat="45.64634" lon="3.25304">
        <ele>476.8</ele>
        <time>2024-08-11T09:50:22Z</time>
      </trkpt>
      <trkpt lat="45.64631" lon="3.25306">
        <ele>477</ele>
        <time>2024-08-11T09:50:23Z</time>
      </trkpt>
      <trkpt lat="45.64628" lon="3.25308">
        <ele>477</ele>
        <time>2024-08-11T09:50:24Z</time>
      </trkpt>
      <trkpt lat="45.64626" lon="3.2531">
        <ele>477.2</ele>
        <time>2024-08-11T09:50:25Z</time>
      </trkpt>
      <trkpt lat="45.64624" lon="3.25312">
        <ele>477.2</ele>
        <time>2024-08-11T09:50:26Z</time>
      </trkpt>
      <trkpt lat="45.64621" lon="3.25314">
        <ele>477.4</ele>
        <time>2024-08-11T09:50:27Z</time>
      </trkpt>
      <trkpt lat="45.64618" lon="3.25316">
        <ele>477.4</ele>
        <time>2024-08-11T09:50:28Z</time>
      </trkpt>
      <trkpt lat="45.64615" lon="3.25316">
        <ele>477.6</ele>
        <time>2024-08-11T09:50:29Z</time>
      </trkpt>
      <trkpt lat="45.64613" lon="3.25317">
        <ele>477.8</ele>
        <time>2024-08-11T09:50:30Z</time>
      </trkpt>
      <trkpt lat="45.6461" lon="3.25317">
        <ele>477.8</ele>
        <time>2024-08-11T09:50:31Z</time>
      </trkpt>
      <trkpt lat="45.64607" lon="3.25318">
        <ele>478</ele>
        <time>2024-08-11T09:50:32Z</time>
      </trkpt>
      <trkpt lat="45.64604" lon="3.25319">
        <ele>478.2</ele>
        <time>2024-08-11T09:50:33Z</time>
      </trkpt>
      <trkpt lat="45.64598" lon="3.25318">
        <ele>478.2</ele>
        <time>2024-08-11T09:50:34Z</time>
      </trkpt>
      <trkpt lat="45.64597" lon="3.25317">
        <ele>478.4</ele>
        <time>2024-08-11T09:50:35Z</time>
      </trkpt>
      <trkpt lat="45.64594" lon="3.25316">
        <ele>478.4</ele>
        <time>2024-08-11T09:50:36Z</time>
      </trkpt>
      <trkpt lat="45.64591" lon="3.25315">
        <ele>478.6</ele>
        <time>2024-08-11T09:50:37Z</time>
      </trkpt>
      <trkpt lat="45.64588" lon="3.25314">
        <ele>478.6</ele>
        <time>2024-08-11T09:50:38Z</time>
      </trkpt>
      <trkpt lat="45.64585" lon="3.25316">
        <ele>478.8</ele>
        <time>2024-08-11T09:50:39Z</time>
      </trkpt>
      <trkpt lat="45.64583" lon="3.25318">
        <ele>479</ele>
        <time>2024-08-11T09:50:40Z</time>
      </trkpt>
      <trkpt lat="45.64581" lon="3.25321">
        <ele>479</ele>
        <time>2024-08-11T09:50:41Z</time>
      </trkpt>
      <trkpt lat="45.64579" lon="3.25324">
        <ele>479</ele>
        <time>2024-08-11T09:50:42Z</time>
      </trkpt>
      <trkpt lat="45.64577" lon="3.25326">
        <ele>479</ele>
        <time>2024-08-11T09:50:43Z</time>
      </trkpt>
      <trkpt lat="45.64577" lon="3.25326">
        <ele>479.2</ele>
        <time>2024-08-11T09:50:44Z</time>
      </trkpt>
      <trkpt lat="45.64573" lon="3.25333">
        <ele>479.2</ele>
        <time>2024-08-11T09:50:45Z</time>
      </trkpt>
      <trkpt lat="45.6457" lon="3.25335">
        <ele>479.4</ele>
        <time>2024-08-11T09:50:46Z</time>
      </trkpt>
      <trkpt lat="45.64567" lon="3.25337">
        <ele>479.4</ele>
        <time>2024-08-11T09:50:47Z</time>
      </trkpt>
      <trkpt lat="45.64565" lon="3.25339">
        <ele>479.6</ele>
        <time>2024-08-11T09:50:48Z</time>
      </trkpt>
      <trkpt lat="45.64562" lon="3.25341">
        <ele>479.8</ele>
        <time>2024-08-11T09:50:49Z</time>
      </trkpt>
      <trkpt lat="45.64558" lon="3.25342">
        <ele>479.8</ele>
        <time>2024-08-11T09:50:50Z</time>
      </trkpt>
      <trkpt lat="45.64555" lon="3.25343">
        <ele>480</ele>
        <time>2024-08-11T09:50:51Z</time>
      </trkpt>
      <trkpt lat="45.64552" lon="3.25344">
        <ele>480</ele>
        <time>2024-08-11T09:50:52Z</time>
      </trkpt>
      <trkpt lat="45.64548" lon="3.25344">
        <ele>480.2</ele>
        <time>2024-08-11T09:50:53Z</time>
      </trkpt>
      <trkpt lat="45.64545" lon="3.25345">
        <ele>480.2</ele>
        <time>2024-08-11T09:50:54Z</time>
      </trkpt>
      <trkpt lat="45.64542" lon="3.25346">
        <ele>480.4</ele>
        <time>2024-08-11T09:50:55Z</time>
      </trkpt>
      <trkpt lat="45.64539" lon="3.25346">
        <ele>480.4</ele>
        <time>2024-08-11T09:50:56Z</time>
      </trkpt>
      <trkpt lat="45.64536" lon="3.25347">
        <ele>480.6</ele>
        <time>2024-08-11T09:50:57Z</time>
      </trkpt>
      <trkpt lat="45.64533" lon="3.25348">
        <ele>480.6</ele>
        <time>2024-08-11T09:50:58Z</time>
      </trkpt>
      <trkpt lat="45.6453" lon="3.25347">
        <ele>480.6</ele>
        <time>2024-08-11T09:50:59Z</time>
      </trkpt>
      <trkpt lat="45.64527" lon="3.25347">
        <ele>480.8</ele>
        <time>2024-08-11T09:51:00Z</time>
      </trkpt>
      <trkpt lat="45.64524" lon="3.25347">
        <ele>481</ele>
        <time>2024-08-11T09:51:01Z</time>
      </trkpt>
      <trkpt lat="45.64521" lon="3.25347">
        <ele>481</ele>
        <time>2024-08-11T09:51:02Z</time>
      </trkpt>
      <trkpt lat="45.64518" lon="3.25346">
        <ele>481</ele>
        <time>2024-08-11T09:51:03Z</time>
      </trkpt>
      <trkpt lat="45.64515" lon="3.25346">
        <ele>481.2</ele>
        <time>2024-08-11T09:51:04Z</time>
      </trkpt>
      <trkpt lat="45.64512" lon="3.25346">
        <ele>481.2</ele>
        <time>2024-08-11T09:51:05Z</time>
      </trkpt>
      <trkpt lat="45.64509" lon="3.25345">
        <ele>481.4</ele>
        <time>2024-08-11T09:51:06Z</time>
      </trkpt>
      <trkpt lat="45.64506" lon="3.25345">
        <ele>481.4</ele>
        <time>2024-08-11T09:51:07Z</time>
      </trkpt>
      <trkpt lat="45.64503" lon="3.25345">
        <ele>481.6</ele>
        <time>2024-08-11T09:51:08Z</time>
      </trkpt>
      <trkpt lat="45.645" lon="3.25345">
        <ele>481.8</ele>
        <time>2024-08-11T09:51:09Z</time>
      </trkpt>
      <trkpt lat="45.64497" lon="3.25344">
        <ele>481.8</ele>
        <time>2024-08-11T09:51:10Z</time>
      </trkpt>
      <trkpt lat="45.64494" lon="3.25344">
        <ele>482</ele>
        <time>2024-08-11T09:51:11Z</time>
      </trkpt>
      <trkpt lat="45.64491" lon="3.25344">
        <ele>482</ele>
        <time>2024-08-11T09:51:12Z</time>
      </trkpt>
      <trkpt lat="45.64488" lon="3.25344">
        <ele>482.2</ele>
        <time>2024-08-11T09:51:13Z</time>
      </trkpt>
      <trkpt lat="45.64485" lon="3.25343">
        <ele>482.4</ele>
        <time>2024-08-11T09:51:14Z</time>
      </trkpt>
      <trkpt lat="45.64482" lon="3.25343">
        <ele>482.4</ele>
        <time>2024-08-11T09:51:15Z</time>
      </trkpt>
      <trkpt lat="45.64479" lon="3.25343">
        <ele>482.6</ele>
        <time>2024-08-11T09:51:16Z</time>
      </trkpt>
      <trkpt lat="45.64475" lon="3.25343">
        <ele>482.8</ele>
        <time>2024-08-11T09:51:17Z</time>
      </trkpt>
      <trkpt lat="45.64472" lon="3.25342">
        <ele>483</ele>
        <time>2024-08-11T09:51:18Z</time>
      </trkpt>
      <trkpt lat="45.64469" lon="3.25342">
        <ele>483</ele>
        <time>2024-08-11T09:51:19Z</time>
      </trkpt>
      <trkpt lat="45.64466" lon="3.25342">
        <ele>483.2</ele>
        <time>2024-08-11T09:51:20Z</time>
      </trkpt>
      <trkpt lat="45.64463" lon="3.25341">
        <ele>483.2</ele>
        <time>2024-08-11T09:51:21Z</time>
      </trkpt>
      <trkpt lat="45.6446" lon="3.25341">
        <ele>483.4</ele>
        <time>2024-08-11T09:51:22Z</time>
      </trkpt>
      <trkpt lat="45.64457" lon="3.25341">
        <ele>483.6</ele>
        <time>2024-08-11T09:51:23Z</time>
      </trkpt>
      <trkpt lat="45.64454" lon="3.25341">
        <ele>483.6</ele>
        <time>2024-08-11T09:51:24Z</time>
      </trkpt>
      <trkpt lat="45.64452" lon="3.2534">
        <ele>483.8</ele>
        <time>2024-08-11T09:51:25Z</time>
      </trkpt>
      <trkpt lat="45.64449" lon="3.2534">
        <ele>484</ele>
        <time>2024-08-11T09:51:26Z</time>
      </trkpt>
      <trkpt lat="45.64446" lon="3.2534">
        <ele>484</ele>
        <time>2024-08-11T09:51:27Z</time>
      </trkpt>
      <trkpt lat="45.64443" lon="3.2534">
        <ele>484</ele>
        <time>2024-08-11T09:51:28Z</time>
      </trkpt>
      <trkpt lat="45.6444" lon="3.25339">
        <ele>484.2</ele>
        <time>2024-08-11T09:51:29Z</time>
      </trkpt>
      <trkpt lat="45.64437" lon="3.25339">
        <ele>484.2</ele>
        <time>2024-08-11T09:51:30Z</time>
      </trkpt>
      <trkpt lat="45.64434" lon="3.25339">
        <ele>484.4</ele>
        <time>2024-08-11T09:51:31Z</time>
      </trkpt>
      <trkpt lat="45.64431" lon="3.25339">
        <ele>484.4</ele>
        <time>2024-08-11T09:51:32Z</time>
      </trkpt>
      <trkpt lat="45.64428" lon="3.25338">
        <ele>484.6</ele>
        <time>2024-08-11T09:51:33Z</time>
      </trkpt>
      <trkpt lat="45.64422" lon="3.25338">
        <ele>484.8</ele>
        <time>2024-08-11T09:51:34Z</time>
      </trkpt>
      <trkpt lat="45.64419" lon="3.25338">
        <ele>485</ele>
        <time>2024-08-11T09:51:35Z</time>
      </trkpt>
      <trkpt lat="45.64419" lon="3.25338">
        <ele>485</ele>
        <time>2024-08-11T09:51:36Z</time>
      </trkpt>
      <trkpt lat="45.64416" lon="3.25337">
        <ele>485.2</ele>
        <time>2024-08-11T09:51:37Z</time>
      </trkpt>
      <trkpt lat="45.64413" lon="3.25337">
        <ele>485.2</ele>
        <time>2024-08-11T09:51:38Z</time>
      </trkpt>
      <trkpt lat="45.6441" lon="3.25337">
        <ele>485.4</ele>
        <time>2024-08-11T09:51:39Z</time>
      </trkpt>
      <trkpt lat="45.64407" lon="3.25337">
        <ele>485.6</ele>
        <time>2024-08-11T09:51:40Z</time>
      </trkpt>
      <trkpt lat="45.64404" lon="3.25336">
        <ele>485.8</ele>
        <time>2024-08-11T09:51:41Z</time>
      </trkpt>
      <trkpt lat="45.64401" lon="3.25336">
        <ele>485.8</ele>
        <time>2024-08-11T09:51:42Z</time>
      </trkpt>
      <trkpt lat="45.64398" lon="3.25336">
        <ele>486</ele>
        <time>2024-08-11T09:51:43Z</time>
      </trkpt>
      <trkpt lat="45.64395" lon="3.25335">
        <ele>486</ele>
        <time>2024-08-11T09:51:44Z</time>
      </trkpt>
      <trkpt lat="45.64392" lon="3.25335">
        <ele>486.2</ele>
        <time>2024-08-11T09:51:45Z</time>
      </trkpt>
      <trkpt lat="45.64389" lon="3.25335">
        <ele>486.4</ele>
        <time>2024-08-11T09:51:46Z</time>
      </trkpt>
      <trkpt lat="45.64386" lon="3.25335">
        <ele>486.4</ele>
        <time>2024-08-11T09:51:47Z</time>
      </trkpt>
      <trkpt lat="45.64382" lon="3.25334">
        <ele>486.6</ele>
        <time>2024-08-11T09:51:48Z</time>
      </trkpt>
      <trkpt lat="45.64379" lon="3.25334">
        <ele>486.8</ele>
        <time>2024-08-11T09:51:49Z</time>
      </trkpt>
      <trkpt lat="45.64376" lon="3.25334">
        <ele>486.8</ele>
        <time>2024-08-11T09:51:50Z</time>
      </trkpt>
      <trkpt lat="45.64373" lon="3.25334">
        <ele>487</ele>
        <time>2024-08-11T09:51:51Z</time>
      </trkpt>
      <trkpt lat="45.64369" lon="3.25333">
        <ele>487.2</ele>
        <time>2024-08-11T09:51:52Z</time>
      </trkpt>
      <trkpt lat="45.64366" lon="3.25333">
        <ele>487.2</ele>
        <time>2024-08-11T09:51:53Z</time>
      </trkpt>
      <trkpt lat="45.64363" lon="3.25333">
        <ele>487.4</ele>
        <time>2024-08-11T09:51:54Z</time>
      </trkpt>
      <trkpt lat="45.6436" lon="3.25332">
        <ele>487.4</ele>
        <time>2024-08-11T09:51:55Z</time>
      </trkpt>
      <trkpt lat="45.64356" lon="3.25332">
        <ele>487.6</ele>
        <time>2024-08-11T09:51:56Z</time>
      </trkpt>
      <trkpt lat="45.64353" lon="3.25332">
        <ele>487.8</ele>
        <time>2024-08-11T09:51:57Z</time>
      </trkpt>
      <trkpt lat="45.64349" lon="3.25331">
        <ele>487.8</ele>
        <time>2024-08-11T09:51:58Z</time>
      </trkpt>
      <trkpt lat="45.64345" lon="3.25331">
        <ele>488</ele>
        <time>2024-08-11T09:51:59Z</time>
      </trkpt>
      <trkpt lat="45.64341" lon="3.25331">
        <ele>488</ele>
        <time>2024-08-11T09:52:00Z</time>
      </trkpt>
      <trkpt lat="45.64337" lon="3.2533">
        <ele>488.2</ele>
        <time>2024-08-11T09:52:01Z</time>
      </trkpt>
      <trkpt lat="45.64333" lon="3.2533">
        <ele>488.2</ele>
        <time>2024-08-11T09:52:02Z</time>
      </trkpt>
      <trkpt lat="45.64329" lon="3.2533">
        <ele>488.2</ele>
        <time>2024-08-11T09:52:03Z</time>
      </trkpt>
      <trkpt lat="45.64325" lon="3.25329">
        <ele>488.2</ele>
        <time>2024-08-11T09:52:04Z</time>
      </trkpt>
      <trkpt lat="45.64321" lon="3.25329">
        <ele>488.4</ele>
        <time>2024-08-11T09:52:05Z</time>
      </trkpt>
      <trkpt lat="45.64317" lon="3.25329">
        <ele>488.4</ele>
        <time>2024-08-11T09:52:06Z</time>
      </trkpt>
      <trkpt lat="45.64313" lon="3.25328">
        <ele>488.4</ele>
        <time>2024-08-11T09:52:07Z</time>
      </trkpt>
      <trkpt lat="45.64309" lon="3.25328">
        <ele>488.4</ele>
        <time>2024-08-11T09:52:08Z</time>
      </trkpt>
      <trkpt lat="45.64305" lon="3.25328">
        <ele>488.4</ele>
        <time>2024-08-11T09:52:09Z</time>
      </trkpt>
      <trkpt lat="45.643" lon="3.25327">
        <ele>488.4</ele>
        <time>2024-08-11T09:52:10Z</time>
      </trkpt>
      <trkpt lat="45.64296" lon="3.25327">
        <ele>488.4</ele>
        <time>2024-08-11T09:52:11Z</time>
      </trkpt>
      <trkpt lat="45.64292" lon="3.25326">
        <ele>488.6</ele>
        <time>2024-08-11T09:52:12Z</time>
      </trkpt>
      <trkpt lat="45.64287" lon="3.25326">
        <ele>488.6</ele>
        <time>2024-08-11T09:52:13Z</time>
      </trkpt>
      <trkpt lat="45.64283" lon="3.25326">
        <ele>488.6</ele>
        <time>2024-08-11T09:52:14Z</time>
      </trkpt>
      <trkpt lat="45.64278" lon="3.25325">
        <ele>488.6</ele>
        <time>2024-08-11T09:52:15Z</time>
      </trkpt>
      <trkpt lat="45.64273" lon="3.25325">
        <ele>488.8</ele>
        <time>2024-08-11T09:52:16Z</time>
      </trkpt>
      <trkpt lat="45.64268" lon="3.25325">
        <ele>488.8</ele>
        <time>2024-08-11T09:52:17Z</time>
      </trkpt>
      <trkpt lat="45.64263" lon="3.25324">
        <ele>488.8</ele>
        <time>2024-08-11T09:52:18Z</time>
      </trkpt>
      <trkpt lat="45.64259" lon="3.25324">
        <ele>488.8</ele>
        <time>2024-08-11T09:52:19Z</time>
      </trkpt>
      <trkpt lat="45.64255" lon="3.25324">
        <ele>488.8</ele>
        <time>2024-08-11T09:52:20Z</time>
      </trkpt>
      <trkpt lat="45.6425" lon="3.25323">
        <ele>488.8</ele>
        <time>2024-08-11T09:52:21Z</time>
      </trkpt>
      <trkpt lat="45.64245" lon="3.25323">
        <ele>488.8</ele>
        <time>2024-08-11T09:52:22Z</time>
      </trkpt>
      <trkpt lat="45.64241" lon="3.25323">
        <ele>488.8</ele>
        <time>2024-08-11T09:52:23Z</time>
      </trkpt>
      <trkpt lat="45.64235" lon="3.25322">
        <ele>489</ele>
        <time>2024-08-11T09:52:24Z</time>
      </trkpt>
      <trkpt lat="45.6423" lon="3.25322">
        <ele>489.2</ele>
        <time>2024-08-11T09:52:25Z</time>
      </trkpt>
      <trkpt lat="45.64225" lon="3.25321">
        <ele>489.2</ele>
        <time>2024-08-11T09:52:26Z</time>
      </trkpt>
      <trkpt lat="45.6422" lon="3.2532">
        <ele>489.2</ele>
        <time>2024-08-11T09:52:27Z</time>
      </trkpt>
      <trkpt lat="45.64215" lon="3.25319">
        <ele>489.4</ele>
        <time>2024-08-11T09:52:28Z</time>
      </trkpt>
      <trkpt lat="45.6421" lon="3.25318">
        <ele>489.4</ele>
        <time>2024-08-11T09:52:29Z</time>
      </trkpt>
      <trkpt lat="45.64204" lon="3.25316">
        <ele>489.4</ele>
        <time>2024-08-11T09:52:30Z</time>
      </trkpt>
      <trkpt lat="45.64199" lon="3.25315">
        <ele>489.4</ele>
        <time>2024-08-11T09:52:31Z</time>
      </trkpt>
      <trkpt lat="45.64194" lon="3.25314">
        <ele>489.4</ele>
        <time>2024-08-11T09:52:32Z</time>
      </trkpt>
      <trkpt lat="45.64189" lon="3.25313">
        <ele>489.6</ele>
        <time>2024-08-11T09:52:33Z</time>
      </trkpt>
      <trkpt lat="45.64184" lon="3.25311">
        <ele>489.6</ele>
        <time>2024-08-11T09:52:34Z</time>
      </trkpt>
      <trkpt lat="45.64178" lon="3.2531">
        <ele>489.6</ele>
        <time>2024-08-11T09:52:35Z</time>
      </trkpt>
      <trkpt lat="45.64173" lon="3.25309">
        <ele>489.8</ele>
        <time>2024-08-11T09:52:36Z</time>
      </trkpt>
      <trkpt lat="45.64167" lon="3.25307">
        <ele>489.6</ele>
        <time>2024-08-11T09:52:37Z</time>
      </trkpt>
      <trkpt lat="45.64161" lon="3.25305">
        <ele>489.6</ele>
        <time>2024-08-11T09:52:38Z</time>
      </trkpt>
      <trkpt lat="45.64156" lon="3.25301">
        <ele>489.6</ele>
        <time>2024-08-11T09:52:39Z</time>
      </trkpt>
      <trkpt lat="45.64151" lon="3.25297">
        <ele>489.6</ele>
        <time>2024-08-11T09:52:40Z</time>
      </trkpt>
      <trkpt lat="45.64145" lon="3.25293">
        <ele>489.6</ele>
        <time>2024-08-11T09:52:41Z</time>
      </trkpt>
      <trkpt lat="45.64139" lon="3.25289">
        <ele>489.8</ele>
        <time>2024-08-11T09:52:42Z</time>
      </trkpt>
      <trkpt lat="45.64133" lon="3.25285">
        <ele>489.8</ele>
        <time>2024-08-11T09:52:43Z</time>
      </trkpt>
      <trkpt lat="45.64127" lon="3.25281">
        <ele>489.8</ele>
        <time>2024-08-11T09:52:44Z</time>
      </trkpt>
      <trkpt lat="45.64121" lon="3.25277">
        <ele>489.6</ele>
        <time>2024-08-11T09:52:45Z</time>
      </trkpt>
      <trkpt lat="45.64115" lon="3.25273">
        <ele>489.6</ele>
        <time>2024-08-11T09:52:46Z</time>
      </trkpt>
      <trkpt lat="45.64109" lon="3.25268">
        <ele>489.6</ele>
        <time>2024-08-11T09:52:47Z</time>
      </trkpt>
      <trkpt lat="45.64103" lon="3.25261">
        <ele>489.6</ele>
        <time>2024-08-11T09:52:48Z</time>
      </trkpt>
      <trkpt lat="45.64098" lon="3.25254">
        <ele>489.6</ele>
        <time>2024-08-11T09:52:49Z</time>
      </trkpt>
      <trkpt lat="45.64092" lon="3.25248">
        <ele>489.6</ele>
        <time>2024-08-11T09:52:50Z</time>
      </trkpt>
      <trkpt lat="45.64086" lon="3.25241">
        <ele>489.6</ele>
        <time>2024-08-11T09:52:51Z</time>
      </trkpt>
      <trkpt lat="45.6408" lon="3.25234">
        <ele>490</ele>
        <time>2024-08-11T09:52:52Z</time>
      </trkpt>
      <trkpt lat="45.64074" lon="3.25226">
        <ele>489.8</ele>
        <time>2024-08-11T09:52:53Z</time>
      </trkpt>
      <trkpt lat="45.64068" lon="3.25218">
        <ele>489.6</ele>
        <time>2024-08-11T09:52:54Z</time>
      </trkpt>
      <trkpt lat="45.64063" lon="3.25209">
        <ele>489.4</ele>
        <time>2024-08-11T09:52:55Z</time>
      </trkpt>
      <trkpt lat="45.64058" lon="3.252">
        <ele>489.4</ele>
        <time>2024-08-11T09:52:56Z</time>
      </trkpt>
      <trkpt lat="45.64052" lon="3.25191">
        <ele>489.2</ele>
        <time>2024-08-11T09:52:57Z</time>
      </trkpt>
      <trkpt lat="45.64047" lon="3.25181">
        <ele>489.4</ele>
        <time>2024-08-11T09:52:58Z</time>
      </trkpt>
      <trkpt lat="45.64042" lon="3.25171">
        <ele>489.2</ele>
        <time>2024-08-11T09:52:59Z</time>
      </trkpt>
      <trkpt lat="45.64036" lon="3.25162">
        <ele>489.2</ele>
        <time>2024-08-11T09:53:00Z</time>
      </trkpt>
      <trkpt lat="45.64031" lon="3.25152">
        <ele>489.2</ele>
        <time>2024-08-11T09:53:01Z</time>
      </trkpt>
      <trkpt lat="45.64025" lon="3.25142">
        <ele>489</ele>
        <time>2024-08-11T09:53:02Z</time>
      </trkpt>
      <trkpt lat="45.6402" lon="3.25132">
        <ele>489</ele>
        <time>2024-08-11T09:53:03Z</time>
      </trkpt>
      <trkpt lat="45.64014" lon="3.25123">
        <ele>489</ele>
        <time>2024-08-11T09:53:04Z</time>
      </trkpt>
      <trkpt lat="45.64009" lon="3.25113">
        <ele>488.8</ele>
        <time>2024-08-11T09:53:05Z</time>
      </trkpt>
      <trkpt lat="45.64003" lon="3.25103">
        <ele>488.8</ele>
        <time>2024-08-11T09:53:06Z</time>
      </trkpt>
      <trkpt lat="45.63998" lon="3.25094">
        <ele>488.8</ele>
        <time>2024-08-11T09:53:07Z</time>
      </trkpt>
      <trkpt lat="45.63993" lon="3.25084">
        <ele>488.8</ele>
        <time>2024-08-11T09:53:08Z</time>
      </trkpt>
      <trkpt lat="45.63987" lon="3.25074">
        <ele>488.8</ele>
        <time>2024-08-11T09:53:09Z</time>
      </trkpt>
      <trkpt lat="45.63982" lon="3.25065">
        <ele>488.6</ele>
        <time>2024-08-11T09:53:10Z</time>
      </trkpt>
      <trkpt lat="45.63977" lon="3.25056">
        <ele>488.6</ele>
        <time>2024-08-11T09:53:11Z</time>
      </trkpt>
      <trkpt lat="45.63972" lon="3.25047">
        <ele>488.6</ele>
        <time>2024-08-11T09:53:12Z</time>
      </trkpt>
      <trkpt lat="45.63967" lon="3.25038">
        <ele>488.4</ele>
        <time>2024-08-11T09:53:13Z</time>
      </trkpt>
      <trkpt lat="45.63962" lon="3.25029">
        <ele>488.4</ele>
        <time>2024-08-11T09:53:14Z</time>
      </trkpt>
      <trkpt lat="45.63957" lon="3.25019">
        <ele>488.4</ele>
        <time>2024-08-11T09:53:15Z</time>
      </trkpt>
      <trkpt lat="45.63952" lon="3.25011">
        <ele>488.2</ele>
        <time>2024-08-11T09:53:16Z</time>
      </trkpt>
      <trkpt lat="45.63947" lon="3.25002">
        <ele>488.2</ele>
        <time>2024-08-11T09:53:17Z</time>
      </trkpt>
      <trkpt lat="45.63942" lon="3.24993">
        <ele>488.2</ele>
        <time>2024-08-11T09:53:18Z</time>
      </trkpt>
      <trkpt lat="45.63937" lon="3.24984">
        <ele>488</ele>
        <time>2024-08-11T09:53:19Z</time>
      </trkpt>
      <trkpt lat="45.63933" lon="3.24976">
        <ele>488</ele>
        <time>2024-08-11T09:53:20Z</time>
      </trkpt>
      <trkpt lat="45.63928" lon="3.24967">
        <ele>488</ele>
        <time>2024-08-11T09:53:21Z</time>
      </trkpt>
      <trkpt lat="45.63923" lon="3.24958">
        <ele>488</ele>
        <time>2024-08-11T09:53:22Z</time>
      </trkpt>
      <trkpt lat="45.63918" lon="3.2495">
        <ele>487.8</ele>
        <time>2024-08-11T09:53:23Z</time>
      </trkpt>
      <trkpt lat="45.63913" lon="3.24942">
        <ele>487.8</ele>
        <time>2024-08-11T09:53:24Z</time>
      </trkpt>
      <trkpt lat="45.63909" lon="3.24933">
        <ele>487.6</ele>
        <time>2024-08-11T09:53:25Z</time>
      </trkpt>
      <trkpt lat="45.63904" lon="3.24925">
        <ele>487.6</ele>
        <time>2024-08-11T09:53:26Z</time>
      </trkpt>
      <trkpt lat="45.63899" lon="3.24916">
        <ele>487.6</ele>
        <time>2024-08-11T09:53:27Z</time>
      </trkpt>
      <trkpt lat="45.63895" lon="3.24908">
        <ele>487.4</ele>
        <time>2024-08-11T09:53:28Z</time>
      </trkpt>
      <trkpt lat="45.6389" lon="3.24899">
        <ele>487.2</ele>
        <time>2024-08-11T09:53:29Z</time>
      </trkpt>
      <trkpt lat="45.63886" lon="3.2489">
        <ele>487.2</ele>
        <time>2024-08-11T09:53:30Z</time>
      </trkpt>
      <trkpt lat="45.63882" lon="3.24882">
        <ele>487</ele>
        <time>2024-08-11T09:53:31Z</time>
      </trkpt>
      <trkpt lat="45.63877" lon="3.24873">
        <ele>487</ele>
        <time>2024-08-11T09:53:32Z</time>
      </trkpt>
      <trkpt lat="45.63873" lon="3.24864">
        <ele>486.8</ele>
        <time>2024-08-11T09:53:33Z</time>
      </trkpt>
      <trkpt lat="45.63869" lon="3.24855">
        <ele>486.8</ele>
        <time>2024-08-11T09:53:34Z</time>
      </trkpt>
      <trkpt lat="45.63864" lon="3.24846">
        <ele>486.8</ele>
        <time>2024-08-11T09:53:35Z</time>
      </trkpt>
      <trkpt lat="45.63861" lon="3.24836">
        <ele>486.6</ele>
        <time>2024-08-11T09:53:36Z</time>
      </trkpt>
      <trkpt lat="45.63858" lon="3.24825">
        <ele>486.6</ele>
        <time>2024-08-11T09:53:37Z</time>
      </trkpt>
      <trkpt lat="45.63855" lon="3.24815">
        <ele>486.4</ele>
        <time>2024-08-11T09:53:38Z</time>
      </trkpt>
      <trkpt lat="45.63852" lon="3.24805">
        <ele>486.2</ele>
        <time>2024-08-11T09:53:39Z</time>
      </trkpt>
      <trkpt lat="45.63849" lon="3.24794">
        <ele>486.2</ele>
        <time>2024-08-11T09:53:40Z</time>
      </trkpt>
      <trkpt lat="45.63846" lon="3.24784">
        <ele>486.2</ele>
        <time>2024-08-11T09:53:41Z</time>
      </trkpt>
      <trkpt lat="45.63844" lon="3.24772">
        <ele>486</ele>
        <time>2024-08-11T09:53:42Z</time>
      </trkpt>
      <trkpt lat="45.63843" lon="3.2476">
        <ele>485.8</ele>
        <time>2024-08-11T09:53:43Z</time>
      </trkpt>
      <trkpt lat="45.63841" lon="3.24748">
        <ele>485.8</ele>
        <time>2024-08-11T09:53:44Z</time>
      </trkpt>
      <trkpt lat="45.6384" lon="3.24737">
        <ele>485.6</ele>
        <time>2024-08-11T09:53:45Z</time>
      </trkpt>
      <trkpt lat="45.63838" lon="3.24726">
        <ele>485.4</ele>
        <time>2024-08-11T09:53:46Z</time>
      </trkpt>
      <trkpt lat="45.63837" lon="3.24714">
        <ele>485.4</ele>
        <time>2024-08-11T09:53:47Z</time>
      </trkpt>
      <trkpt lat="45.63837" lon="3.24702">
        <ele>485.2</ele>
        <time>2024-08-11T09:53:48Z</time>
      </trkpt>
      <trkpt lat="45.63837" lon="3.24691">
        <ele>485.2</ele>
        <time>2024-08-11T09:53:49Z</time>
      </trkpt>
      <trkpt lat="45.63837" lon="3.2468">
        <ele>485</ele>
        <time>2024-08-11T09:53:50Z</time>
      </trkpt>
      <trkpt lat="45.63837" lon="3.24669">
        <ele>485</ele>
        <time>2024-08-11T09:53:51Z</time>
      </trkpt>
      <trkpt lat="45.63837" lon="3.24658">
        <ele>485</ele>
        <time>2024-08-11T09:53:52Z</time>
      </trkpt>
      <trkpt lat="45.63837" lon="3.24647">
        <ele>485</ele>
        <time>2024-08-11T09:53:53Z</time>
      </trkpt>
      <trkpt lat="45.63838" lon="3.24637">
        <ele>484.8</ele>
        <time>2024-08-11T09:53:54Z</time>
      </trkpt>
      <trkpt lat="45.63839" lon="3.24627">
        <ele>484.8</ele>
        <time>2024-08-11T09:53:55Z</time>
      </trkpt>
      <trkpt lat="45.6384" lon="3.24618">
        <ele>484.8</ele>
        <time>2024-08-11T09:53:56Z</time>
      </trkpt>
      <trkpt lat="45.63841" lon="3.24609">
        <ele>484.6</ele>
        <time>2024-08-11T09:53:57Z</time>
      </trkpt>
      <trkpt lat="45.63842" lon="3.246">
        <ele>484.6</ele>
        <time>2024-08-11T09:53:58Z</time>
      </trkpt>
      <trkpt lat="45.63843" lon="3.24592">
        <ele>484.6</ele>
        <time>2024-08-11T09:53:59Z</time>
      </trkpt>
      <trkpt lat="45.63844" lon="3.24583">
        <ele>484.6</ele>
        <time>2024-08-11T09:54:00Z</time>
      </trkpt>
      <trkpt lat="45.63845" lon="3.24574">
        <ele>484.6</ele>
        <time>2024-08-11T09:54:01Z</time>
      </trkpt>
      <trkpt lat="45.63846" lon="3.24566">
        <ele>484.6</ele>
        <time>2024-08-11T09:54:02Z</time>
      </trkpt>
      <trkpt lat="45.63847" lon="3.24557">
        <ele>484.6</ele>
        <time>2024-08-11T09:54:03Z</time>
      </trkpt>
      <trkpt lat="45.63847" lon="3.24548">
        <ele>484.4</ele>
        <time>2024-08-11T09:54:04Z</time>
      </trkpt>
      <trkpt lat="45.63848" lon="3.24539">
        <ele>484.4</ele>
        <time>2024-08-11T09:54:05Z</time>
      </trkpt>
      <trkpt lat="45.63849" lon="3.24531">
        <ele>484.2</ele>
        <time>2024-08-11T09:54:06Z</time>
      </trkpt>
      <trkpt lat="45.6385" lon="3.24522">
        <ele>484.2</ele>
        <time>2024-08-11T09:54:07Z</time>
      </trkpt>
      <trkpt lat="45.63851" lon="3.24513">
        <ele>484.2</ele>
        <time>2024-08-11T09:54:08Z</time>
      </trkpt>
      <trkpt lat="45.63852" lon="3.24505">
        <ele>484.2</ele>
        <time>2024-08-11T09:54:09Z</time>
      </trkpt>
      <trkpt lat="45.63853" lon="3.24496">
        <ele>484.2</ele>
        <time>2024-08-11T09:54:10Z</time>
      </trkpt>
      <trkpt lat="45.63854" lon="3.24487">
        <ele>484</ele>
        <time>2024-08-11T09:54:11Z</time>
      </trkpt>
      <trkpt lat="45.63855" lon="3.24478">
        <ele>484</ele>
        <time>2024-08-11T09:54:12Z</time>
      </trkpt>
      <trkpt lat="45.63856" lon="3.24469">
        <ele>484</ele>
        <time>2024-08-11T09:54:13Z</time>
      </trkpt>
      <trkpt lat="45.63857" lon="3.2446">
        <ele>484</ele>
        <time>2024-08-11T09:54:14Z</time>
      </trkpt>
      <trkpt lat="45.63858" lon="3.24451">
        <ele>483.8</ele>
        <time>2024-08-11T09:54:15Z</time>
      </trkpt>
      <trkpt lat="45.63858" lon="3.24443">
        <ele>483.8</ele>
        <time>2024-08-11T09:54:16Z</time>
      </trkpt>
      <trkpt lat="45.63859" lon="3.24434">
        <ele>483.8</ele>
        <time>2024-08-11T09:54:17Z</time>
      </trkpt>
      <trkpt lat="45.6386" lon="3.24425">
        <ele>483.8</ele>
        <time>2024-08-11T09:54:18Z</time>
      </trkpt>
      <trkpt lat="45.63861" lon="3.24416">
        <ele>483.8</ele>
        <time>2024-08-11T09:54:19Z</time>
      </trkpt>
      <trkpt lat="45.63862" lon="3.24408">
        <ele>483.8</ele>
        <time>2024-08-11T09:54:20Z</time>
      </trkpt>
      <trkpt lat="45.63865" lon="3.24399">
        <ele>483.8</ele>
        <time>2024-08-11T09:54:21Z</time>
      </trkpt>
      <trkpt lat="45.63867" lon="3.24391">
        <ele>483.6</ele>
        <time>2024-08-11T09:54:22Z</time>
      </trkpt>
      <trkpt lat="45.6387" lon="3.24383">
        <ele>483.6</ele>
        <time>2024-08-11T09:54:23Z</time>
      </trkpt>
      <trkpt lat="45.63873" lon="3.24376">
        <ele>483.6</ele>
        <time>2024-08-11T09:54:24Z</time>
      </trkpt>
      <trkpt lat="45.63875" lon="3.24368">
        <ele>483.6</ele>
        <time>2024-08-11T09:54:25Z</time>
      </trkpt>
      <trkpt lat="45.63878" lon="3.2436">
        <ele>483.6</ele>
        <time>2024-08-11T09:54:26Z</time>
      </trkpt>
      <trkpt lat="45.63881" lon="3.24352">
        <ele>483.4</ele>
        <time>2024-08-11T09:54:27Z</time>
      </trkpt>
      <trkpt lat="45.63883" lon="3.24344">
        <ele>483.4</ele>
        <time>2024-08-11T09:54:28Z</time>
      </trkpt>
      <trkpt lat="45.63887" lon="3.24337">
        <ele>483.4</ele>
        <time>2024-08-11T09:54:29Z</time>
      </trkpt>
      <trkpt lat="45.63891" lon="3.2433">
        <ele>483.4</ele>
        <time>2024-08-11T09:54:30Z</time>
      </trkpt>
      <trkpt lat="45.63894" lon="3.24323">
        <ele>483.4</ele>
        <time>2024-08-11T09:54:31Z</time>
      </trkpt>
      <trkpt lat="45.63898" lon="3.24316">
        <ele>483.4</ele>
        <time>2024-08-11T09:54:32Z</time>
      </trkpt>
      <trkpt lat="45.63901" lon="3.2431">
        <ele>483.4</ele>
        <time>2024-08-11T09:54:33Z</time>
      </trkpt>
      <trkpt lat="45.63905" lon="3.24303">
        <ele>483.2</ele>
        <time>2024-08-11T09:54:34Z</time>
      </trkpt>
      <trkpt lat="45.63908" lon="3.24296">
        <ele>483.2</ele>
        <time>2024-08-11T09:54:35Z</time>
      </trkpt>
      <trkpt lat="45.63912" lon="3.24288">
        <ele>483.2</ele>
        <time>2024-08-11T09:54:36Z</time>
      </trkpt>
      <trkpt lat="45.63916" lon="3.24281">
        <ele>483.2</ele>
        <time>2024-08-11T09:54:37Z</time>
      </trkpt>
      <trkpt lat="45.6392" lon="3.24274">
        <ele>483.2</ele>
        <time>2024-08-11T09:54:38Z</time>
      </trkpt>
      <trkpt lat="45.63925" lon="3.24269">
        <ele>483.2</ele>
        <time>2024-08-11T09:54:39Z</time>
      </trkpt>
      <trkpt lat="45.6393" lon="3.24264">
        <ele>483.2</ele>
        <time>2024-08-11T09:54:40Z</time>
      </trkpt>
      <trkpt lat="45.63934" lon="3.24258">
        <ele>483.2</ele>
        <time>2024-08-11T09:54:41Z</time>
      </trkpt>
      <trkpt lat="45.63939" lon="3.24253">
        <ele>483.2</ele>
        <time>2024-08-11T09:54:42Z</time>
      </trkpt>
      <trkpt lat="45.63944" lon="3.24247">
        <ele>483.2</ele>
        <time>2024-08-11T09:54:43Z</time>
      </trkpt>
      <trkpt lat="45.63949" lon="3.24241">
        <ele>483.2</ele>
        <time>2024-08-11T09:54:44Z</time>
      </trkpt>
      <trkpt lat="45.63953" lon="3.24236">
        <ele>483.2</ele>
        <time>2024-08-11T09:54:45Z</time>
      </trkpt>
      <trkpt lat="45.63959" lon="3.2423">
        <ele>483.2</ele>
        <time>2024-08-11T09:54:46Z</time>
      </trkpt>
      <trkpt lat="45.63963" lon="3.24224">
        <ele>483.2</ele>
        <time>2024-08-11T09:54:47Z</time>
      </trkpt>
      <trkpt lat="45.63968" lon="3.24218">
        <ele>483.2</ele>
        <time>2024-08-11T09:54:48Z</time>
      </trkpt>
      <trkpt lat="45.63973" lon="3.24212">
        <ele>483.2</ele>
        <time>2024-08-11T09:54:49Z</time>
      </trkpt>
      <trkpt lat="45.63978" lon="3.24207">
        <ele>483.4</ele>
        <time>2024-08-11T09:54:50Z</time>
      </trkpt>
      <trkpt lat="45.63984" lon="3.242">
        <ele>483.2</ele>
        <time>2024-08-11T09:54:51Z</time>
      </trkpt>
      <trkpt lat="45.63989" lon="3.24195">
        <ele>483.2</ele>
        <time>2024-08-11T09:54:52Z</time>
      </trkpt>
      <trkpt lat="45.63994" lon="3.24189">
        <ele>483.2</ele>
        <time>2024-08-11T09:54:53Z</time>
      </trkpt>
      <trkpt lat="45.63999" lon="3.24182">
        <ele>483</ele>
        <time>2024-08-11T09:54:54Z</time>
      </trkpt>
      <trkpt lat="45.64004" lon="3.24176">
        <ele>483.2</ele>
        <time>2024-08-11T09:54:55Z</time>
      </trkpt>
      <trkpt lat="45.64009" lon="3.2417">
        <ele>483</ele>
        <time>2024-08-11T09:54:56Z</time>
      </trkpt>
      <trkpt lat="45.64014" lon="3.24164">
        <ele>483</ele>
        <time>2024-08-11T09:54:57Z</time>
      </trkpt>
      <trkpt lat="45.6402" lon="3.24157">
        <ele>483</ele>
        <time>2024-08-11T09:54:58Z</time>
      </trkpt>
      <trkpt lat="45.64025" lon="3.24151">
        <ele>482.8</ele>
        <time>2024-08-11T09:54:59Z</time>
      </trkpt>
      <trkpt lat="45.6403" lon="3.24144">
        <ele>482.8</ele>
        <time>2024-08-11T09:55:00Z</time>
      </trkpt>
      <trkpt lat="45.64035" lon="3.24137">
        <ele>482.6</ele>
        <time>2024-08-11T09:55:01Z</time>
      </trkpt>
      <trkpt lat="45.64041" lon="3.2413">
        <ele>482.6</ele>
        <time>2024-08-11T09:55:02Z</time>
      </trkpt>
      <trkpt lat="45.64046" lon="3.24123">
        <ele>482.4</ele>
        <time>2024-08-11T09:55:03Z</time>
      </trkpt>
      <trkpt lat="45.64051" lon="3.24116">
        <ele>482.4</ele>
        <time>2024-08-11T09:55:04Z</time>
      </trkpt>
      <trkpt lat="45.64057" lon="3.24108">
        <ele>482.2</ele>
        <time>2024-08-11T09:55:05Z</time>
      </trkpt>
      <trkpt lat="45.64063" lon="3.24101">
        <ele>482</ele>
        <time>2024-08-11T09:55:06Z</time>
      </trkpt>
      <trkpt lat="45.64067" lon="3.24092">
        <ele>482</ele>
        <time>2024-08-11T09:55:07Z</time>
      </trkpt>
      <trkpt lat="45.64072" lon="3.24083">
        <ele>481.8</ele>
        <time>2024-08-11T09:55:08Z</time>
      </trkpt>
      <trkpt lat="45.64076" lon="3.24074">
        <ele>481.8</ele>
        <time>2024-08-11T09:55:09Z</time>
      </trkpt>
      <trkpt lat="45.64081" lon="3.24065">
        <ele>481.6</ele>
        <time>2024-08-11T09:55:10Z</time>
      </trkpt>
      <trkpt lat="45.64085" lon="3.24055">
        <ele>481.6</ele>
        <time>2024-08-11T09:55:11Z</time>
      </trkpt>
      <trkpt lat="45.64089" lon="3.24044">
        <ele>481.4</ele>
        <time>2024-08-11T09:55:12Z</time>
      </trkpt>
      <trkpt lat="45.64093" lon="3.24034">
        <ele>481.2</ele>
        <time>2024-08-11T09:55:13Z</time>
      </trkpt>
      <trkpt lat="45.64096" lon="3.24023">
        <ele>481.2</ele>
        <time>2024-08-11T09:55:14Z</time>
      </trkpt>
      <trkpt lat="45.641" lon="3.24012">
        <ele>481</ele>
        <time>2024-08-11T09:55:15Z</time>
      </trkpt>
      <trkpt lat="45.64102" lon="3.24">
        <ele>480.8</ele>
        <time>2024-08-11T09:55:16Z</time>
      </trkpt>
      <trkpt lat="45.64105" lon="3.23988">
        <ele>480.6</ele>
        <time>2024-08-11T09:55:17Z</time>
      </trkpt>
      <trkpt lat="45.64107" lon="3.23976">
        <ele>480.6</ele>
        <time>2024-08-11T09:55:18Z</time>
      </trkpt>
      <trkpt lat="45.64109" lon="3.23963">
        <ele>480.4</ele>
        <time>2024-08-11T09:55:19Z</time>
      </trkpt>
      <trkpt lat="45.64111" lon="3.23951">
        <ele>480.2</ele>
        <time>2024-08-11T09:55:20Z</time>
      </trkpt>
      <trkpt lat="45.64113" lon="3.23938">
        <ele>480</ele>
        <time>2024-08-11T09:55:21Z</time>
      </trkpt>
      <trkpt lat="45.64115" lon="3.23925">
        <ele>480</ele>
        <time>2024-08-11T09:55:22Z</time>
      </trkpt>
      <trkpt lat="45.64117" lon="3.23912">
        <ele>479.8</ele>
        <time>2024-08-11T09:55:23Z</time>
      </trkpt>
      <trkpt lat="45.64119" lon="3.239">
        <ele>479.8</ele>
        <time>2024-08-11T09:55:24Z</time>
      </trkpt>
      <trkpt lat="45.64121" lon="3.23887">
        <ele>479.6</ele>
        <time>2024-08-11T09:55:25Z</time>
      </trkpt>
      <trkpt lat="45.64122" lon="3.23874">
        <ele>479.6</ele>
        <time>2024-08-11T09:55:26Z</time>
      </trkpt>
      <trkpt lat="45.64124" lon="3.23861">
        <ele>479.4</ele>
        <time>2024-08-11T09:55:27Z</time>
      </trkpt>
      <trkpt lat="45.64126" lon="3.23849">
        <ele>479.2</ele>
        <time>2024-08-11T09:55:28Z</time>
      </trkpt>
      <trkpt lat="45.64128" lon="3.23836">
        <ele>479</ele>
        <time>2024-08-11T09:55:29Z</time>
      </trkpt>
      <trkpt lat="45.6413" lon="3.23823">
        <ele>479</ele>
        <time>2024-08-11T09:55:30Z</time>
      </trkpt>
      <trkpt lat="45.64132" lon="3.23811">
        <ele>478.8</ele>
        <time>2024-08-11T09:55:31Z</time>
      </trkpt>
      <trkpt lat="45.64134" lon="3.23799">
        <ele>478.6</ele>
        <time>2024-08-11T09:55:32Z</time>
      </trkpt>
      <trkpt lat="45.64136" lon="3.23787">
        <ele>478.6</ele>
        <time>2024-08-11T09:55:33Z</time>
      </trkpt>
      <trkpt lat="45.64138" lon="3.23774">
        <ele>478.6</ele>
        <time>2024-08-11T09:55:34Z</time>
      </trkpt>
      <trkpt lat="45.64139" lon="3.23762">
        <ele>478.4</ele>
        <time>2024-08-11T09:55:35Z</time>
      </trkpt>
      <trkpt lat="45.6414" lon="3.2375">
        <ele>478.2</ele>
        <time>2024-08-11T09:55:36Z</time>
      </trkpt>
      <trkpt lat="45.64141" lon="3.23738">
        <ele>478.2</ele>
        <time>2024-08-11T09:55:37Z</time>
      </trkpt>
      <trkpt lat="45.64141" lon="3.23725">
        <ele>478</ele>
        <time>2024-08-11T09:55:38Z</time>
      </trkpt>
      <trkpt lat="45.64142" lon="3.23713">
        <ele>478</ele>
        <time>2024-08-11T09:55:39Z</time>
      </trkpt>
      <trkpt lat="45.64143" lon="3.23701">
        <ele>477.8</ele>
        <time>2024-08-11T09:55:40Z</time>
      </trkpt>
      <trkpt lat="45.64144" lon="3.23689">
        <ele>477.8</ele>
        <time>2024-08-11T09:55:41Z</time>
      </trkpt>
      <trkpt lat="45.64146" lon="3.23678">
        <ele>477.6</ele>
        <time>2024-08-11T09:55:42Z</time>
      </trkpt>
      <trkpt lat="45.64148" lon="3.23669">
        <ele>477.6</ele>
        <time>2024-08-11T09:55:43Z</time>
      </trkpt>
      <trkpt lat="45.6415" lon="3.23661">
        <ele>477.4</ele>
        <time>2024-08-11T09:55:44Z</time>
      </trkpt>
      <trkpt lat="45.64155" lon="3.23658">
        <ele>477.2</ele>
        <time>2024-08-11T09:55:45Z</time>
      </trkpt>
      <trkpt lat="45.6416" lon="3.23655">
        <ele>477</ele>
        <time>2024-08-11T09:55:46Z</time>
      </trkpt>
      <trkpt lat="45.64166" lon="3.23651">
        <ele>477</ele>
        <time>2024-08-11T09:55:47Z</time>
      </trkpt>
      <trkpt lat="45.64169" lon="3.23639">
        <ele>476.8</ele>
        <time>2024-08-11T09:55:48Z</time>
      </trkpt>
      <trkpt lat="45.64173" lon="3.2363">
        <ele>476.6</ele>
        <time>2024-08-11T09:55:49Z</time>
      </trkpt>
      <trkpt lat="45.64176" lon="3.23621">
        <ele>476.4</ele>
        <time>2024-08-11T09:55:50Z</time>
      </trkpt>
      <trkpt lat="45.6418" lon="3.23612">
        <ele>476.4</ele>
        <time>2024-08-11T09:55:51Z</time>
      </trkpt>
      <trkpt lat="45.64183" lon="3.23604">
        <ele>476.2</ele>
        <time>2024-08-11T09:55:52Z</time>
      </trkpt>
      <trkpt lat="45.64186" lon="3.23595">
        <ele>476</ele>
        <time>2024-08-11T09:55:53Z</time>
      </trkpt>
      <trkpt lat="45.6419" lon="3.23585">
        <ele>475.8</ele>
        <time>2024-08-11T09:55:54Z</time>
      </trkpt>
      <trkpt lat="45.64194" lon="3.23575">
        <ele>475.6</ele>
        <time>2024-08-11T09:55:55Z</time>
      </trkpt>
      <trkpt lat="45.64198" lon="3.23564">
        <ele>475.4</ele>
        <time>2024-08-11T09:55:56Z</time>
      </trkpt>
      <trkpt lat="45.64203" lon="3.23554">
        <ele>475.2</ele>
        <time>2024-08-11T09:55:57Z</time>
      </trkpt>
      <trkpt lat="45.64208" lon="3.23543">
        <ele>475</ele>
        <time>2024-08-11T09:55:58Z</time>
      </trkpt>
      <trkpt lat="45.64213" lon="3.23531">
        <ele>474.6</ele>
        <time>2024-08-11T09:55:59Z</time>
      </trkpt>
      <trkpt lat="45.64218" lon="3.2352">
        <ele>474.4</ele>
        <time>2024-08-11T09:56:00Z</time>
      </trkpt>
      <trkpt lat="45.64223" lon="3.23508">
        <ele>474.2</ele>
        <time>2024-08-11T09:56:01Z</time>
      </trkpt>
      <trkpt lat="45.64228" lon="3.23496">
        <ele>474</ele>
        <time>2024-08-11T09:56:02Z</time>
      </trkpt>
      <trkpt lat="45.64235" lon="3.23485">
        <ele>473.6</ele>
        <time>2024-08-11T09:56:03Z</time>
      </trkpt>
      <trkpt lat="45.64241" lon="3.23473">
        <ele>473.4</ele>
        <time>2024-08-11T09:56:04Z</time>
      </trkpt>
      <trkpt lat="45.64247" lon="3.23462">
        <ele>473.2</ele>
        <time>2024-08-11T09:56:05Z</time>
      </trkpt>
      <trkpt lat="45.64254" lon="3.2345">
        <ele>472.8</ele>
        <time>2024-08-11T09:56:06Z</time>
      </trkpt>
      <trkpt lat="45.64261" lon="3.23439">
        <ele>472.6</ele>
        <time>2024-08-11T09:56:07Z</time>
      </trkpt>
      <trkpt lat="45.64269" lon="3.23429">
        <ele>472.4</ele>
        <time>2024-08-11T09:56:08Z</time>
      </trkpt>
      <trkpt lat="45.64277" lon="3.2342">
        <ele>472.2</ele>
        <time>2024-08-11T09:56:09Z</time>
      </trkpt>
      <trkpt lat="45.64284" lon="3.2341">
        <ele>472.2</ele>
        <time>2024-08-11T09:56:10Z</time>
      </trkpt>
      <trkpt lat="45.64292" lon="3.23401">
        <ele>472</ele>
        <time>2024-08-11T09:56:11Z</time>
      </trkpt>
      <trkpt lat="45.64299" lon="3.23391">
        <ele>471.8</ele>
        <time>2024-08-11T09:56:12Z</time>
      </trkpt>
      <trkpt lat="45.64306" lon="3.23382">
        <ele>471.6</ele>
        <time>2024-08-11T09:56:13Z</time>
      </trkpt>
      <trkpt lat="45.64313" lon="3.23373">
        <ele>471.6</ele>
        <time>2024-08-11T09:56:14Z</time>
      </trkpt>
      <trkpt lat="45.6432" lon="3.23364">
        <ele>471.4</ele>
        <time>2024-08-11T09:56:15Z</time>
      </trkpt>
      <trkpt lat="45.64327" lon="3.23355">
        <ele>471.2</ele>
        <time>2024-08-11T09:56:16Z</time>
      </trkpt>
      <trkpt lat="45.64334" lon="3.23346">
        <ele>471.2</ele>
        <time>2024-08-11T09:56:17Z</time>
      </trkpt>
      <trkpt lat="45.6434" lon="3.23336">
        <ele>471</ele>
        <time>2024-08-11T09:56:18Z</time>
      </trkpt>
      <trkpt lat="45.64345" lon="3.23326">
        <ele>471</ele>
        <time>2024-08-11T09:56:19Z</time>
      </trkpt>
      <trkpt lat="45.64349" lon="3.23315">
        <ele>470.8</ele>
        <time>2024-08-11T09:56:20Z</time>
      </trkpt>
      <trkpt lat="45.64354" lon="3.23304">
        <ele>470.6</ele>
        <time>2024-08-11T09:56:21Z</time>
      </trkpt>
      <trkpt lat="45.64359" lon="3.23294">
        <ele>470.6</ele>
        <time>2024-08-11T09:56:22Z</time>
      </trkpt>
      <trkpt lat="45.64363" lon="3.23284">
        <ele>470.4</ele>
        <time>2024-08-11T09:56:23Z</time>
      </trkpt>
      <trkpt lat="45.64368" lon="3.23273">
        <ele>470.2</ele>
        <time>2024-08-11T09:56:24Z</time>
      </trkpt>
      <trkpt lat="45.64372" lon="3.23264">
        <ele>470</ele>
        <time>2024-08-11T09:56:25Z</time>
      </trkpt>
      <trkpt lat="45.64377" lon="3.23254">
        <ele>469.8</ele>
        <time>2024-08-11T09:56:26Z</time>
      </trkpt>
      <trkpt lat="45.64381" lon="3.23245">
        <ele>469.6</ele>
        <time>2024-08-11T09:56:27Z</time>
      </trkpt>
      <trkpt lat="45.64385" lon="3.23234">
        <ele>469.4</ele>
        <time>2024-08-11T09:56:28Z</time>
      </trkpt>
      <trkpt lat="45.6439" lon="3.23225">
        <ele>469.2</ele>
        <time>2024-08-11T09:56:29Z</time>
      </trkpt>
      <trkpt lat="45.64394" lon="3.23215">
        <ele>469</ele>
        <time>2024-08-11T09:56:30Z</time>
      </trkpt>
      <trkpt lat="45.64399" lon="3.23205">
        <ele>468.8</ele>
        <time>2024-08-11T09:56:31Z</time>
      </trkpt>
      <trkpt lat="45.64403" lon="3.23195">
        <ele>468.6</ele>
        <time>2024-08-11T09:56:32Z</time>
      </trkpt>
      <trkpt lat="45.64407" lon="3.23186">
        <ele>468.4</ele>
        <time>2024-08-11T09:56:33Z</time>
      </trkpt>
      <trkpt lat="45.64412" lon="3.23176">
        <ele>468.2</ele>
        <time>2024-08-11T09:56:34Z</time>
      </trkpt>
      <trkpt lat="45.64415" lon="3.23166">
        <ele>468</ele>
        <time>2024-08-11T09:56:35Z</time>
      </trkpt>
      <trkpt lat="45.64418" lon="3.23156">
        <ele>467.8</ele>
        <time>2024-08-11T09:56:36Z</time>
      </trkpt>
      <trkpt lat="45.64419" lon="3.23145">
        <ele>467.6</ele>
        <time>2024-08-11T09:56:37Z</time>
      </trkpt>
      <trkpt lat="45.64419" lon="3.23134">
        <ele>467.6</ele>
        <time>2024-08-11T09:56:38Z</time>
      </trkpt>
      <trkpt lat="45.6442" lon="3.23123">
        <ele>467.4</ele>
        <time>2024-08-11T09:56:39Z</time>
      </trkpt>
      <trkpt lat="45.6442" lon="3.23114">
        <ele>467.2</ele>
        <time>2024-08-11T09:56:40Z</time>
      </trkpt>
      <trkpt lat="45.64426" lon="3.23108">
        <ele>467</ele>
        <time>2024-08-11T09:56:41Z</time>
      </trkpt>
      <trkpt lat="45.64431" lon="3.23103">
        <ele>466.8</ele>
        <time>2024-08-11T09:56:42Z</time>
      </trkpt>
      <trkpt lat="45.64435" lon="3.23101">
        <ele>466.6</ele>
        <time>2024-08-11T09:56:43Z</time>
      </trkpt>
      <trkpt lat="45.6444" lon="3.231">
        <ele>466.4</ele>
        <time>2024-08-11T09:56:44Z</time>
      </trkpt>
      <trkpt lat="45.64444" lon="3.23099">
        <ele>466.2</ele>
        <time>2024-08-11T09:56:45Z</time>
      </trkpt>
      <trkpt lat="45.6445" lon="3.23108">
        <ele>466</ele>
        <time>2024-08-11T09:56:46Z</time>
      </trkpt>
      <trkpt lat="45.64458" lon="3.23109">
        <ele>465.8</ele>
        <time>2024-08-11T09:56:47Z</time>
      </trkpt>
      <trkpt lat="45.64464" lon="3.23105">
        <ele>465.6</ele>
        <time>2024-08-11T09:56:48Z</time>
      </trkpt>
      <trkpt lat="45.64471" lon="3.23098">
        <ele>465.4</ele>
        <time>2024-08-11T09:56:49Z</time>
      </trkpt>
      <trkpt lat="45.64472" lon="3.23085">
        <ele>465.2</ele>
        <time>2024-08-11T09:56:50Z</time>
      </trkpt>
      <trkpt lat="45.64472" lon="3.23077">
        <ele>465</ele>
        <time>2024-08-11T09:56:51Z</time>
      </trkpt>
      <trkpt lat="45.64469" lon="3.23066">
        <ele>464.8</ele>
        <time>2024-08-11T09:56:52Z</time>
      </trkpt>
      <trkpt lat="45.64468" lon="3.23056">
        <ele>464.6</ele>
        <time>2024-08-11T09:56:53Z</time>
      </trkpt>
      <trkpt lat="45.64468" lon="3.23047">
        <ele>464.6</ele>
        <time>2024-08-11T09:56:54Z</time>
      </trkpt>
      <trkpt lat="45.64471" lon="3.23038">
        <ele>464.4</ele>
        <time>2024-08-11T09:56:55Z</time>
      </trkpt>
      <trkpt lat="45.64473" lon="3.2303">
        <ele>464.4</ele>
        <time>2024-08-11T09:56:56Z</time>
      </trkpt>
      <trkpt lat="45.64476" lon="3.23021">
        <ele>464.2</ele>
        <time>2024-08-11T09:56:57Z</time>
      </trkpt>
      <trkpt lat="45.64479" lon="3.23012">
        <ele>463.8</ele>
        <time>2024-08-11T09:56:58Z</time>
      </trkpt>
      <trkpt lat="45.64482" lon="3.23002">
        <ele>463.6</ele>
        <time>2024-08-11T09:56:59Z</time>
      </trkpt>
      <trkpt lat="45.64485" lon="3.22992">
        <ele>463.4</ele>
        <time>2024-08-11T09:57:00Z</time>
      </trkpt>
      <trkpt lat="45.64489" lon="3.22982">
        <ele>463.2</ele>
        <time>2024-08-11T09:57:01Z</time>
      </trkpt>
      <trkpt lat="45.64492" lon="3.22971">
        <ele>463</ele>
        <time>2024-08-11T09:57:02Z</time>
      </trkpt>
      <trkpt lat="45.64495" lon="3.22961">
        <ele>462.8</ele>
        <time>2024-08-11T09:57:03Z</time>
      </trkpt>
      <trkpt lat="45.64499" lon="3.2295">
        <ele>462.6</ele>
        <time>2024-08-11T09:57:04Z</time>
      </trkpt>
      <trkpt lat="45.64502" lon="3.22939">
        <ele>462.4</ele>
        <time>2024-08-11T09:57:05Z</time>
      </trkpt>
      <trkpt lat="45.64506" lon="3.22928">
        <ele>462.2</ele>
        <time>2024-08-11T09:57:06Z</time>
      </trkpt>
      <trkpt lat="45.6451" lon="3.22917">
        <ele>462</ele>
        <time>2024-08-11T09:57:07Z</time>
      </trkpt>
      <trkpt lat="45.64513" lon="3.22906">
        <ele>461.6</ele>
        <time>2024-08-11T09:57:08Z</time>
      </trkpt>
      <trkpt lat="45.64517" lon="3.22893">
        <ele>461.4</ele>
        <time>2024-08-11T09:57:09Z</time>
      </trkpt>
      <trkpt lat="45.64521" lon="3.22881">
        <ele>461.2</ele>
        <time>2024-08-11T09:57:10Z</time>
      </trkpt>
      <trkpt lat="45.64525" lon="3.22869">
        <ele>461</ele>
        <time>2024-08-11T09:57:11Z</time>
      </trkpt>
      <trkpt lat="45.64529" lon="3.22857">
        <ele>460.8</ele>
        <time>2024-08-11T09:57:12Z</time>
      </trkpt>
      <trkpt lat="45.64533" lon="3.22845">
        <ele>460.6</ele>
        <time>2024-08-11T09:57:13Z</time>
      </trkpt>
      <trkpt lat="45.64538" lon="3.22832">
        <ele>460.2</ele>
        <time>2024-08-11T09:57:14Z</time>
      </trkpt>
      <trkpt lat="45.64542" lon="3.2282">
        <ele>460</ele>
        <time>2024-08-11T09:57:15Z</time>
      </trkpt>
      <trkpt lat="45.64547" lon="3.22807">
        <ele>459.8</ele>
        <time>2024-08-11T09:57:16Z</time>
      </trkpt>
      <trkpt lat="45.64551" lon="3.22795">
        <ele>459.4</ele>
        <time>2024-08-11T09:57:17Z</time>
      </trkpt>
      <trkpt lat="45.64556" lon="3.22782">
        <ele>459.2</ele>
        <time>2024-08-11T09:57:18Z</time>
      </trkpt>
      <trkpt lat="45.6456" lon="3.2277">
        <ele>459</ele>
        <time>2024-08-11T09:57:19Z</time>
      </trkpt>
      <trkpt lat="45.64565" lon="3.22758">
        <ele>458.6</ele>
        <time>2024-08-11T09:57:20Z</time>
      </trkpt>
      <trkpt lat="45.64569" lon="3.22745">
        <ele>458.4</ele>
        <time>2024-08-11T09:57:21Z</time>
      </trkpt>
      <trkpt lat="45.64574" lon="3.22733">
        <ele>458.2</ele>
        <time>2024-08-11T09:57:22Z</time>
      </trkpt>
      <trkpt lat="45.64578" lon="3.2272">
        <ele>457.8</ele>
        <time>2024-08-11T09:57:23Z</time>
      </trkpt>
      <trkpt lat="45.64583" lon="3.22707">
        <ele>457.6</ele>
        <time>2024-08-11T09:57:24Z</time>
      </trkpt>
      <trkpt lat="45.64588" lon="3.22695">
        <ele>457.4</ele>
        <time>2024-08-11T09:57:25Z</time>
      </trkpt>
      <trkpt lat="45.64592" lon="3.22682">
        <ele>457.2</ele>
        <time>2024-08-11T09:57:26Z</time>
      </trkpt>
      <trkpt lat="45.64597" lon="3.22669">
        <ele>457</ele>
        <time>2024-08-11T09:57:27Z</time>
      </trkpt>
      <trkpt lat="45.64601" lon="3.22656">
        <ele>456.6</ele>
        <time>2024-08-11T09:57:28Z</time>
      </trkpt>
      <trkpt lat="45.64606" lon="3.22644">
        <ele>456.4</ele>
        <time>2024-08-11T09:57:29Z</time>
      </trkpt>
      <trkpt lat="45.6461" lon="3.22633">
        <ele>456.2</ele>
        <time>2024-08-11T09:57:30Z</time>
      </trkpt>
      <trkpt lat="45.64615" lon="3.22622">
        <ele>456</ele>
        <time>2024-08-11T09:57:31Z</time>
      </trkpt>
      <trkpt lat="45.64619" lon="3.22611">
        <ele>455.6</ele>
        <time>2024-08-11T09:57:32Z</time>
      </trkpt>
      <trkpt lat="45.64624" lon="3.226">
        <ele>455.4</ele>
        <time>2024-08-11T09:57:33Z</time>
      </trkpt>
      <trkpt lat="45.64629" lon="3.22589">
        <ele>455.2</ele>
        <time>2024-08-11T09:57:34Z</time>
      </trkpt>
      <trkpt lat="45.64634" lon="3.22578">
        <ele>455</ele>
        <time>2024-08-11T09:57:35Z</time>
      </trkpt>
      <trkpt lat="45.64638" lon="3.22567">
        <ele>454.6</ele>
        <time>2024-08-11T09:57:36Z</time>
      </trkpt>
      <trkpt lat="45.64643" lon="3.22556">
        <ele>454.4</ele>
        <time>2024-08-11T09:57:37Z</time>
      </trkpt>
      <trkpt lat="45.64648" lon="3.22545">
        <ele>454.2</ele>
        <time>2024-08-11T09:57:38Z</time>
      </trkpt>
      <trkpt lat="45.64652" lon="3.22534">
        <ele>454</ele>
        <time>2024-08-11T09:57:39Z</time>
      </trkpt>
      <trkpt lat="45.64657" lon="3.22523">
        <ele>453.8</ele>
        <time>2024-08-11T09:57:40Z</time>
      </trkpt>
      <trkpt lat="45.64662" lon="3.22512">
        <ele>453.6</ele>
        <time>2024-08-11T09:57:41Z</time>
      </trkpt>
      <trkpt lat="45.64667" lon="3.22501">
        <ele>453.2</ele>
        <time>2024-08-11T09:57:42Z</time>
      </trkpt>
      <trkpt lat="45.64671" lon="3.2249">
        <ele>453</ele>
        <time>2024-08-11T09:57:43Z</time>
      </trkpt>
      <trkpt lat="45.64676" lon="3.22479">
        <ele>452.8</ele>
        <time>2024-08-11T09:57:44Z</time>
      </trkpt>
      <trkpt lat="45.64681" lon="3.22469">
        <ele>452.4</ele>
        <time>2024-08-11T09:57:45Z</time>
      </trkpt>
      <trkpt lat="45.64686" lon="3.22458">
        <ele>452.2</ele>
        <time>2024-08-11T09:57:46Z</time>
      </trkpt>
      <trkpt lat="45.64692" lon="3.22447">
        <ele>452</ele>
        <time>2024-08-11T09:57:47Z</time>
      </trkpt>
      <trkpt lat="45.64696" lon="3.22437">
        <ele>451.8</ele>
        <time>2024-08-11T09:57:48Z</time>
      </trkpt>
      <trkpt lat="45.64702" lon="3.22426">
        <ele>451.6</ele>
        <time>2024-08-11T09:57:49Z</time>
      </trkpt>
      <trkpt lat="45.64707" lon="3.22416">
        <ele>451.2</ele>
        <time>2024-08-11T09:57:50Z</time>
      </trkpt>
      <trkpt lat="45.64711" lon="3.22406">
        <ele>451</ele>
        <time>2024-08-11T09:57:51Z</time>
      </trkpt>
      <trkpt lat="45.64717" lon="3.22395">
        <ele>450.8</ele>
        <time>2024-08-11T09:57:52Z</time>
      </trkpt>
      <trkpt lat="45.64722" lon="3.22384">
        <ele>450.4</ele>
        <time>2024-08-11T09:57:53Z</time>
      </trkpt>
      <trkpt lat="45.64727" lon="3.22374">
        <ele>450.2</ele>
        <time>2024-08-11T09:57:54Z</time>
      </trkpt>
      <trkpt lat="45.64732" lon="3.22363">
        <ele>450</ele>
        <time>2024-08-11T09:57:55Z</time>
      </trkpt>
      <trkpt lat="45.64737" lon="3.22353">
        <ele>449.8</ele>
        <time>2024-08-11T09:57:56Z</time>
      </trkpt>
      <trkpt lat="45.64742" lon="3.22343">
        <ele>449.4</ele>
        <time>2024-08-11T09:57:57Z</time>
      </trkpt>
      <trkpt lat="45.64747" lon="3.22333">
        <ele>449.2</ele>
        <time>2024-08-11T09:57:58Z</time>
      </trkpt>
      <trkpt lat="45.64752" lon="3.22322">
        <ele>449</ele>
        <time>2024-08-11T09:57:59Z</time>
      </trkpt>
      <trkpt lat="45.64757" lon="3.22312">
        <ele>448.8</ele>
        <time>2024-08-11T09:58:00Z</time>
      </trkpt>
      <trkpt lat="45.64763" lon="3.22302">
        <ele>448.6</ele>
        <time>2024-08-11T09:58:01Z</time>
      </trkpt>
      <trkpt lat="45.64768" lon="3.22292">
        <ele>448.4</ele>
        <time>2024-08-11T09:58:02Z</time>
      </trkpt>
      <trkpt lat="45.64773" lon="3.22282">
        <ele>448</ele>
        <time>2024-08-11T09:58:03Z</time>
      </trkpt>
      <trkpt lat="45.64779" lon="3.22272">
        <ele>447.8</ele>
        <time>2024-08-11T09:58:04Z</time>
      </trkpt>
      <trkpt lat="45.64784" lon="3.22261">
        <ele>447.6</ele>
        <time>2024-08-11T09:58:05Z</time>
      </trkpt>
      <trkpt lat="45.64789" lon="3.22251">
        <ele>447.2</ele>
        <time>2024-08-11T09:58:06Z</time>
      </trkpt>
      <trkpt lat="45.64795" lon="3.22241">
        <ele>447</ele>
        <time>2024-08-11T09:58:07Z</time>
      </trkpt>
      <trkpt lat="45.648" lon="3.2223">
        <ele>446.8</ele>
        <time>2024-08-11T09:58:08Z</time>
      </trkpt>
      <trkpt lat="45.64806" lon="3.2222">
        <ele>446.6</ele>
        <time>2024-08-11T09:58:09Z</time>
      </trkpt>
      <trkpt lat="45.64811" lon="3.2221">
        <ele>446.2</ele>
        <time>2024-08-11T09:58:10Z</time>
      </trkpt>
      <trkpt lat="45.64817" lon="3.22199">
        <ele>446.2</ele>
        <time>2024-08-11T09:58:11Z</time>
      </trkpt>
      <trkpt lat="45.64822" lon="3.22189">
        <ele>446</ele>
        <time>2024-08-11T09:58:12Z</time>
      </trkpt>
      <trkpt lat="45.64828" lon="3.22179">
        <ele>445.6</ele>
        <time>2024-08-11T09:58:13Z</time>
      </trkpt>
      <trkpt lat="45.64833" lon="3.22169">
        <ele>445.4</ele>
        <time>2024-08-11T09:58:14Z</time>
      </trkpt>
      <trkpt lat="45.64839" lon="3.22159">
        <ele>445</ele>
        <time>2024-08-11T09:58:15Z</time>
      </trkpt>
      <trkpt lat="45.64844" lon="3.22149">
        <ele>444.8</ele>
        <time>2024-08-11T09:58:16Z</time>
      </trkpt>
      <trkpt lat="45.6485" lon="3.22138">
        <ele>444.6</ele>
        <time>2024-08-11T09:58:17Z</time>
      </trkpt>
      <trkpt lat="45.64856" lon="3.22128">
        <ele>444.4</ele>
        <time>2024-08-11T09:58:18Z</time>
      </trkpt>
      <trkpt lat="45.64862" lon="3.22117">
        <ele>444</ele>
        <time>2024-08-11T09:58:19Z</time>
      </trkpt>
      <trkpt lat="45.64868" lon="3.22107">
        <ele>443.8</ele>
        <time>2024-08-11T09:58:20Z</time>
      </trkpt>
      <trkpt lat="45.64873" lon="3.22095">
        <ele>443.4</ele>
        <time>2024-08-11T09:58:21Z</time>
      </trkpt>
      <trkpt lat="45.64878" lon="3.22083">
        <ele>443.2</ele>
        <time>2024-08-11T09:58:22Z</time>
      </trkpt>
      <trkpt lat="45.64883" lon="3.2207">
        <ele>442.8</ele>
        <time>2024-08-11T09:58:23Z</time>
      </trkpt>
      <trkpt lat="45.64888" lon="3.22058">
        <ele>442.4</ele>
        <time>2024-08-11T09:58:24Z</time>
      </trkpt>
      <trkpt lat="45.64893" lon="3.22045">
        <ele>442</ele>
        <time>2024-08-11T09:58:25Z</time>
      </trkpt>
      <trkpt lat="45.64899" lon="3.22031">
        <ele>441.6</ele>
        <time>2024-08-11T09:58:26Z</time>
      </trkpt>
      <trkpt lat="45.64904" lon="3.22017">
        <ele>441.4</ele>
        <time>2024-08-11T09:58:27Z</time>
      </trkpt>
      <trkpt lat="45.64909" lon="3.22003">
        <ele>441</ele>
        <time>2024-08-11T09:58:28Z</time>
      </trkpt>
      <trkpt lat="45.64915" lon="3.21988">
        <ele>440.6</ele>
        <time>2024-08-11T09:58:29Z</time>
      </trkpt>
      <trkpt lat="45.6492" lon="3.21975">
        <ele>440.2</ele>
        <time>2024-08-11T09:58:30Z</time>
      </trkpt>
      <trkpt lat="45.64925" lon="3.21961">
        <ele>439.8</ele>
        <time>2024-08-11T09:58:31Z</time>
      </trkpt>
      <trkpt lat="45.6493" lon="3.21947">
        <ele>439.4</ele>
        <time>2024-08-11T09:58:32Z</time>
      </trkpt>
      <trkpt lat="45.64936" lon="3.21933">
        <ele>439</ele>
        <time>2024-08-11T09:58:33Z</time>
      </trkpt>
      <trkpt lat="45.64941" lon="3.21919">
        <ele>438.6</ele>
        <time>2024-08-11T09:58:34Z</time>
      </trkpt>
      <trkpt lat="45.64946" lon="3.21905">
        <ele>438.2</ele>
        <time>2024-08-11T09:58:35Z</time>
      </trkpt>
      <trkpt lat="45.64951" lon="3.21892">
        <ele>437.8</ele>
        <time>2024-08-11T09:58:36Z</time>
      </trkpt>
      <trkpt lat="45.64957" lon="3.21877">
        <ele>437.4</ele>
        <time>2024-08-11T09:58:37Z</time>
      </trkpt>
      <trkpt lat="45.64962" lon="3.21862">
        <ele>437</ele>
        <time>2024-08-11T09:58:38Z</time>
      </trkpt>
      <trkpt lat="45.64969" lon="3.21848">
        <ele>436.6</ele>
        <time>2024-08-11T09:58:39Z</time>
      </trkpt>
      <trkpt lat="45.64975" lon="3.21834">
        <ele>436.2</ele>
        <time>2024-08-11T09:58:40Z</time>
      </trkpt>
      <trkpt lat="45.64982" lon="3.21819">
        <ele>435.8</ele>
        <time>2024-08-11T09:58:41Z</time>
      </trkpt>
      <trkpt lat="45.64988" lon="3.21805">
        <ele>435.2</ele>
        <time>2024-08-11T09:58:42Z</time>
      </trkpt>
      <trkpt lat="45.64995" lon="3.2179">
        <ele>434.8</ele>
        <time>2024-08-11T09:58:43Z</time>
      </trkpt>
      <trkpt lat="45.65002" lon="3.21776">
        <ele>434.4</ele>
        <time>2024-08-11T09:58:44Z</time>
      </trkpt>
      <trkpt lat="45.65009" lon="3.21762">
        <ele>434</ele>
        <time>2024-08-11T09:58:45Z</time>
      </trkpt>
      <trkpt lat="45.65016" lon="3.21749">
        <ele>433.4</ele>
        <time>2024-08-11T09:58:46Z</time>
      </trkpt>
      <trkpt lat="45.65023" lon="3.21735">
        <ele>433</ele>
        <time>2024-08-11T09:58:47Z</time>
      </trkpt>
      <trkpt lat="45.6503" lon="3.21723">
        <ele>432.6</ele>
        <time>2024-08-11T09:58:48Z</time>
      </trkpt>
      <trkpt lat="45.65037" lon="3.2171">
        <ele>432.2</ele>
        <time>2024-08-11T09:58:49Z</time>
      </trkpt>
      <trkpt lat="45.65044" lon="3.21697">
        <ele>431.6</ele>
        <time>2024-08-11T09:58:50Z</time>
      </trkpt>
      <trkpt lat="45.6505" lon="3.21686">
        <ele>431.2</ele>
        <time>2024-08-11T09:58:51Z</time>
      </trkpt>
      <trkpt lat="45.65056" lon="3.21675">
        <ele>430.8</ele>
        <time>2024-08-11T09:58:52Z</time>
      </trkpt>
      <trkpt lat="45.65061" lon="3.21665">
        <ele>430.2</ele>
        <time>2024-08-11T09:58:53Z</time>
      </trkpt>
      <trkpt lat="45.65067" lon="3.21654">
        <ele>429.8</ele>
        <time>2024-08-11T09:58:54Z</time>
      </trkpt>
      <trkpt lat="45.65073" lon="3.21643">
        <ele>429.2</ele>
        <time>2024-08-11T09:58:55Z</time>
      </trkpt>
      <trkpt lat="45.6508" lon="3.21632">
        <ele>428.8</ele>
        <time>2024-08-11T09:58:56Z</time>
      </trkpt>
      <trkpt lat="45.65086" lon="3.2162">
        <ele>428.2</ele>
        <time>2024-08-11T09:58:57Z</time>
      </trkpt>
      <trkpt lat="45.65093" lon="3.21608">
        <ele>427.8</ele>
        <time>2024-08-11T09:58:58Z</time>
      </trkpt>
      <trkpt lat="45.65099" lon="3.21595">
        <ele>427.2</ele>
        <time>2024-08-11T09:58:59Z</time>
      </trkpt>
      <trkpt lat="45.65106" lon="3.21583">
        <ele>426.8</ele>
        <time>2024-08-11T09:59:00Z</time>
      </trkpt>
      <trkpt lat="45.65113" lon="3.21571">
        <ele>426.2</ele>
        <time>2024-08-11T09:59:01Z</time>
      </trkpt>
      <trkpt lat="45.65121" lon="3.21558">
        <ele>425.8</ele>
        <time>2024-08-11T09:59:02Z</time>
      </trkpt>
      <trkpt lat="45.65128" lon="3.21545">
        <ele>425.2</ele>
        <time>2024-08-11T09:59:03Z</time>
      </trkpt>
      <trkpt lat="45.65136" lon="3.21532">
        <ele>424.6</ele>
        <time>2024-08-11T09:59:04Z</time>
      </trkpt>
      <trkpt lat="45.65143" lon="3.21519">
        <ele>424.2</ele>
        <time>2024-08-11T09:59:05Z</time>
      </trkpt>
      <trkpt lat="45.65151" lon="3.21505">
        <ele>423.6</ele>
        <time>2024-08-11T09:59:06Z</time>
      </trkpt>
      <trkpt lat="45.65159" lon="3.21491">
        <ele>423</ele>
        <time>2024-08-11T09:59:07Z</time>
      </trkpt>
      <trkpt lat="45.65167" lon="3.21477">
        <ele>422.6</ele>
        <time>2024-08-11T09:59:08Z</time>
      </trkpt>
      <trkpt lat="45.65176" lon="3.21465">
        <ele>422</ele>
        <time>2024-08-11T09:59:09Z</time>
      </trkpt>
      <trkpt lat="45.65185" lon="3.21453">
        <ele>421.4</ele>
        <time>2024-08-11T09:59:10Z</time>
      </trkpt>
      <trkpt lat="45.65194" lon="3.21441">
        <ele>421</ele>
        <time>2024-08-11T09:59:11Z</time>
      </trkpt>
      <trkpt lat="45.65203" lon="3.21429">
        <ele>420.4</ele>
        <time>2024-08-11T09:59:12Z</time>
      </trkpt>
      <trkpt lat="45.65213" lon="3.21417">
        <ele>420</ele>
        <time>2024-08-11T09:59:13Z</time>
      </trkpt>
      <trkpt lat="45.65222" lon="3.21405">
        <ele>419.4</ele>
        <time>2024-08-11T09:59:14Z</time>
      </trkpt>
      <trkpt lat="45.65231" lon="3.21393">
        <ele>419</ele>
        <time>2024-08-11T09:59:15Z</time>
      </trkpt>
      <trkpt lat="45.6524" lon="3.21381">
        <ele>418.4</ele>
        <time>2024-08-11T09:59:16Z</time>
      </trkpt>
      <trkpt lat="45.65249" lon="3.21369">
        <ele>418</ele>
        <time>2024-08-11T09:59:17Z</time>
      </trkpt>
      <trkpt lat="45.65257" lon="3.21356">
        <ele>417.6</ele>
        <time>2024-08-11T09:59:18Z</time>
      </trkpt>
      <trkpt lat="45.65266" lon="3.21345">
        <ele>417</ele>
        <time>2024-08-11T09:59:19Z</time>
      </trkpt>
      <trkpt lat="45.65274" lon="3.21334">
        <ele>416.6</ele>
        <time>2024-08-11T09:59:20Z</time>
      </trkpt>
      <trkpt lat="45.65282" lon="3.21323">
        <ele>416.2</ele>
        <time>2024-08-11T09:59:21Z</time>
      </trkpt>
      <trkpt lat="45.6529" lon="3.21314">
        <ele>415.8</ele>
        <time>2024-08-11T09:59:22Z</time>
      </trkpt>
      <trkpt lat="45.65296" lon="3.21305">
        <ele>415.2</ele>
        <time>2024-08-11T09:59:23Z</time>
      </trkpt>
      <trkpt lat="45.65308" lon="3.213">
        <ele>414.8</ele>
        <time>2024-08-11T09:59:24Z</time>
      </trkpt>
      <trkpt lat="45.65317" lon="3.21297">
        <ele>414.4</ele>
        <time>2024-08-11T09:59:25Z</time>
      </trkpt>
      <trkpt lat="45.65325" lon="3.21294">
        <ele>414</ele>
        <time>2024-08-11T09:59:26Z</time>
      </trkpt>
      <trkpt lat="45.65332" lon="3.21292">
        <ele>413.6</ele>
        <time>2024-08-11T09:59:27Z</time>
      </trkpt>
      <trkpt lat="45.65337" lon="3.21291">
        <ele>413.2</ele>
        <time>2024-08-11T09:59:28Z</time>
      </trkpt>
      <trkpt lat="45.6534" lon="3.21289">
        <ele>412.8</ele>
        <time>2024-08-11T09:59:29Z</time>
      </trkpt>
      <trkpt lat="45.65342" lon="3.21287">
        <ele>412.4</ele>
        <time>2024-08-11T09:59:30Z</time>
      </trkpt>
      <trkpt lat="45.65347" lon="3.21277">
        <ele>412</ele>
        <time>2024-08-11T09:59:31Z</time>
      </trkpt>
      <trkpt lat="45.65345" lon="3.21274">
        <ele>411.6</ele>
        <time>2024-08-11T09:59:32Z</time>
      </trkpt>
      <trkpt lat="45.65343" lon="3.2127">
        <ele>411.2</ele>
        <time>2024-08-11T09:59:33Z</time>
      </trkpt>
      <trkpt lat="45.6534" lon="3.21265">
        <ele>410.8</ele>
        <time>2024-08-11T09:59:34Z</time>
      </trkpt>
      <trkpt lat="45.65338" lon="3.2126">
        <ele>410.6</ele>
        <time>2024-08-11T09:59:35Z</time>
      </trkpt>
      <trkpt lat="45.65339" lon="3.21247">
        <ele>410.2</ele>
        <time>2024-08-11T09:59:36Z</time>
      </trkpt>
      <trkpt lat="45.65343" lon="3.21242">
        <ele>409.8</ele>
        <time>2024-08-11T09:59:37Z</time>
      </trkpt>
      <trkpt lat="45.65348" lon="3.21236">
        <ele>409.4</ele>
        <time>2024-08-11T09:59:38Z</time>
      </trkpt>
      <trkpt lat="45.65352" lon="3.21229">
        <ele>409.2</ele>
        <time>2024-08-11T09:59:39Z</time>
      </trkpt>
      <trkpt lat="45.65357" lon="3.21222">
        <ele>408.8</ele>
        <time>2024-08-11T09:59:40Z</time>
      </trkpt>
      <trkpt lat="45.65363" lon="3.21215">
        <ele>408.4</ele>
        <time>2024-08-11T09:59:41Z</time>
      </trkpt>
      <trkpt lat="45.65369" lon="3.21207">
        <ele>408</ele>
        <time>2024-08-11T09:59:42Z</time>
      </trkpt>
      <trkpt lat="45.65374" lon="3.212">
        <ele>407.6</ele>
        <time>2024-08-11T09:59:43Z</time>
      </trkpt>
      <trkpt lat="45.6538" lon="3.21191">
        <ele>407.2</ele>
        <time>2024-08-11T09:59:44Z</time>
      </trkpt>
      <trkpt lat="45.65386" lon="3.21183">
        <ele>406.8</ele>
        <time>2024-08-11T09:59:45Z</time>
      </trkpt>
      <trkpt lat="45.65392" lon="3.21175">
        <ele>406.4</ele>
        <time>2024-08-11T09:59:46Z</time>
      </trkpt>
      <trkpt lat="45.65398" lon="3.21167">
        <ele>406</ele>
        <time>2024-08-11T09:59:47Z</time>
      </trkpt>
      <trkpt lat="45.65404" lon="3.21159">
        <ele>405.6</ele>
        <time>2024-08-11T09:59:48Z</time>
      </trkpt>
      <trkpt lat="45.6541" lon="3.21151">
        <ele>405.2</ele>
        <time>2024-08-11T09:59:49Z</time>
      </trkpt>
      <trkpt lat="45.65417" lon="3.21142">
        <ele>404.8</ele>
        <time>2024-08-11T09:59:50Z</time>
      </trkpt>
      <trkpt lat="45.65423" lon="3.21134">
        <ele>404.4</ele>
        <time>2024-08-11T09:59:51Z</time>
      </trkpt>
      <trkpt lat="45.65429" lon="3.21125">
        <ele>404</ele>
        <time>2024-08-11T09:59:52Z</time>
      </trkpt>
      <trkpt lat="45.65436" lon="3.21116">
        <ele>403.6</ele>
        <time>2024-08-11T09:59:53Z</time>
      </trkpt>
      <trkpt lat="45.65443" lon="3.21107">
        <ele>403</ele>
        <time>2024-08-11T09:59:54Z</time>
      </trkpt>
      <trkpt lat="45.65449" lon="3.21098">
        <ele>402.6</ele>
        <time>2024-08-11T09:59:55Z</time>
      </trkpt>
      <trkpt lat="45.65456" lon="3.21089">
        <ele>402.4</ele>
        <time>2024-08-11T09:59:56Z</time>
      </trkpt>
      <trkpt lat="45.65463" lon="3.21079">
        <ele>402</ele>
        <time>2024-08-11T09:59:57Z</time>
      </trkpt>
      <trkpt lat="45.6547" lon="3.2107">
        <ele>401.6</ele>
        <time>2024-08-11T09:59:58Z</time>
      </trkpt>
      <trkpt lat="45.65477" lon="3.2106">
        <ele>401.2</ele>
        <time>2024-08-11T09:59:59Z</time>
      </trkpt>
      <trkpt lat="45.65484" lon="3.2105">
        <ele>400.8</ele>
        <time>2024-08-11T10:00:00Z</time>
      </trkpt>
      <trkpt lat="45.65492" lon="3.21041">
        <ele>400.4</ele>
        <time>2024-08-11T10:00:01Z</time>
      </trkpt>
      <trkpt lat="45.65499" lon="3.21031">
        <ele>400</ele>
        <time>2024-08-11T10:00:02Z</time>
      </trkpt>
      <trkpt lat="45.65507" lon="3.21021">
        <ele>399.6</ele>
        <time>2024-08-11T10:00:03Z</time>
      </trkpt>
      <trkpt lat="45.65514" lon="3.21011">
        <ele>399.2</ele>
        <time>2024-08-11T10:00:04Z</time>
      </trkpt>
      <trkpt lat="45.65522" lon="3.21">
        <ele>398.8</ele>
        <time>2024-08-11T10:00:05Z</time>
      </trkpt>
      <trkpt lat="45.65529" lon="3.2099">
        <ele>398.4</ele>
        <time>2024-08-11T10:00:06Z</time>
      </trkpt>
      <trkpt lat="45.65537" lon="3.2098">
        <ele>398</ele>
        <time>2024-08-11T10:00:07Z</time>
      </trkpt>
      <trkpt lat="45.65545" lon="3.20969">
        <ele>397.6</ele>
        <time>2024-08-11T10:00:08Z</time>
      </trkpt>
      <trkpt lat="45.65553" lon="3.20959">
        <ele>397.2</ele>
        <time>2024-08-11T10:00:09Z</time>
      </trkpt>
      <trkpt lat="45.65561" lon="3.20949">
        <ele>396.8</ele>
        <time>2024-08-11T10:00:10Z</time>
      </trkpt>
      <trkpt lat="45.65568" lon="3.20939">
        <ele>396.4</ele>
        <time>2024-08-11T10:00:11Z</time>
      </trkpt>
      <trkpt lat="45.65577" lon="3.2093">
        <ele>396</ele>
        <time>2024-08-11T10:00:12Z</time>
      </trkpt>
      <trkpt lat="45.65586" lon="3.20922">
        <ele>395.6</ele>
        <time>2024-08-11T10:00:13Z</time>
      </trkpt>
      <trkpt lat="45.65595" lon="3.20914">
        <ele>395.2</ele>
        <time>2024-08-11T10:00:14Z</time>
      </trkpt>
      <trkpt lat="45.65605" lon="3.20906">
        <ele>394.8</ele>
        <time>2024-08-11T10:00:15Z</time>
      </trkpt>
      <trkpt lat="45.65614" lon="3.20897">
        <ele>394.4</ele>
        <time>2024-08-11T10:00:16Z</time>
      </trkpt>
      <trkpt lat="45.65623" lon="3.20889">
        <ele>394</ele>
        <time>2024-08-11T10:00:17Z</time>
      </trkpt>
      <trkpt lat="45.65633" lon="3.20881">
        <ele>393.6</ele>
        <time>2024-08-11T10:00:18Z</time>
      </trkpt>
      <trkpt lat="45.65642" lon="3.20873">
        <ele>393.2</ele>
        <time>2024-08-11T10:00:19Z</time>
      </trkpt>
      <trkpt lat="45.65652" lon="3.20867">
        <ele>392.8</ele>
        <time>2024-08-11T10:00:20Z</time>
      </trkpt>
      <trkpt lat="45.65662" lon="3.2086">
        <ele>392.2</ele>
        <time>2024-08-11T10:00:21Z</time>
      </trkpt>
      <trkpt lat="45.65673" lon="3.20853">
        <ele>391.8</ele>
        <time>2024-08-11T10:00:22Z</time>
      </trkpt>
      <trkpt lat="45.65683" lon="3.20846">
        <ele>391.4</ele>
        <time>2024-08-11T10:00:23Z</time>
      </trkpt>
      <trkpt lat="45.65694" lon="3.2084">
        <ele>391</ele>
        <time>2024-08-11T10:00:24Z</time>
      </trkpt>
      <trkpt lat="45.65704" lon="3.20833">
        <ele>390.6</ele>
        <time>2024-08-11T10:00:25Z</time>
      </trkpt>
      <trkpt lat="45.65714" lon="3.20826">
        <ele>390.2</ele>
        <time>2024-08-11T10:00:26Z</time>
      </trkpt>
      <trkpt lat="45.65725" lon="3.20821">
        <ele>389.8</ele>
        <time>2024-08-11T10:00:27Z</time>
      </trkpt>
      <trkpt lat="45.65736" lon="3.20817">
        <ele>389.4</ele>
        <time>2024-08-11T10:00:28Z</time>
      </trkpt>
      <trkpt lat="45.65747" lon="3.20813">
        <ele>389</ele>
        <time>2024-08-11T10:00:29Z</time>
      </trkpt>
      <trkpt lat="45.65758" lon="3.20809">
        <ele>388.4</ele>
        <time>2024-08-11T10:00:30Z</time>
      </trkpt>
      <trkpt lat="45.65769" lon="3.20805">
        <ele>388</ele>
        <time>2024-08-11T10:00:31Z</time>
      </trkpt>
      <trkpt lat="45.6578" lon="3.20801">
        <ele>387.6</ele>
        <time>2024-08-11T10:00:32Z</time>
      </trkpt>
      <trkpt lat="45.65791" lon="3.20797">
        <ele>387.2</ele>
        <time>2024-08-11T10:00:33Z</time>
      </trkpt>
      <trkpt lat="45.65802" lon="3.20794">
        <ele>386.8</ele>
        <time>2024-08-11T10:00:34Z</time>
      </trkpt>
      <trkpt lat="45.65814" lon="3.20792">
        <ele>386.4</ele>
        <time>2024-08-11T10:00:35Z</time>
      </trkpt>
      <trkpt lat="45.65826" lon="3.20792">
        <ele>386</ele>
        <time>2024-08-11T10:00:36Z</time>
      </trkpt>
      <trkpt lat="45.65837" lon="3.20791">
        <ele>385.6</ele>
        <time>2024-08-11T10:00:37Z</time>
      </trkpt>
      <trkpt lat="45.65848" lon="3.2079">
        <ele>385.2</ele>
        <time>2024-08-11T10:00:38Z</time>
      </trkpt>
      <trkpt lat="45.65859" lon="3.2079">
        <ele>384.8</ele>
        <time>2024-08-11T10:00:39Z</time>
      </trkpt>
      <trkpt lat="45.65869" lon="3.20789">
        <ele>384.4</ele>
        <time>2024-08-11T10:00:40Z</time>
      </trkpt>
      <trkpt lat="45.6588" lon="3.20789">
        <ele>384.2</ele>
        <time>2024-08-11T10:00:41Z</time>
      </trkpt>
      <trkpt lat="45.6589" lon="3.20788">
        <ele>383.8</ele>
        <time>2024-08-11T10:00:42Z</time>
      </trkpt>
      <trkpt lat="45.659" lon="3.20788">
        <ele>383.6</ele>
        <time>2024-08-11T10:00:43Z</time>
      </trkpt>
      <trkpt lat="45.6591" lon="3.20788">
        <ele>383.2</ele>
        <time>2024-08-11T10:00:44Z</time>
      </trkpt>
      <trkpt lat="45.6592" lon="3.20789">
        <ele>382.8</ele>
        <time>2024-08-11T10:00:45Z</time>
      </trkpt>
      <trkpt lat="45.65929" lon="3.20789">
        <ele>382.6</ele>
        <time>2024-08-11T10:00:46Z</time>
      </trkpt>
      <trkpt lat="45.65939" lon="3.20789">
        <ele>382.2</ele>
        <time>2024-08-11T10:00:47Z</time>
      </trkpt>
      <trkpt lat="45.65949" lon="3.2079">
        <ele>381.8</ele>
        <time>2024-08-11T10:00:48Z</time>
      </trkpt>
      <trkpt lat="45.65958" lon="3.2079">
        <ele>381.6</ele>
        <time>2024-08-11T10:00:49Z</time>
      </trkpt>
      <trkpt lat="45.65967" lon="3.2079">
        <ele>381.2</ele>
        <time>2024-08-11T10:00:50Z</time>
      </trkpt>
      <trkpt lat="45.65976" lon="3.2079">
        <ele>381</ele>
        <time>2024-08-11T10:00:51Z</time>
      </trkpt>
      <trkpt lat="45.65985" lon="3.20791">
        <ele>380.6</ele>
        <time>2024-08-11T10:00:52Z</time>
      </trkpt>
      <trkpt lat="45.65994" lon="3.20791">
        <ele>380.2</ele>
        <time>2024-08-11T10:00:53Z</time>
      </trkpt>
      <trkpt lat="45.66003" lon="3.20791">
        <ele>380</ele>
        <time>2024-08-11T10:00:54Z</time>
      </trkpt>
      <trkpt lat="45.66012" lon="3.20792">
        <ele>379.6</ele>
        <time>2024-08-11T10:00:55Z</time>
      </trkpt>
      <trkpt lat="45.66021" lon="3.20792">
        <ele>379.4</ele>
        <time>2024-08-11T10:00:56Z</time>
      </trkpt>
      <trkpt lat="45.6603" lon="3.20792">
        <ele>379.2</ele>
        <time>2024-08-11T10:00:57Z</time>
      </trkpt>
      <trkpt lat="45.66039" lon="3.20792">
        <ele>378.8</ele>
        <time>2024-08-11T10:00:58Z</time>
      </trkpt>
      <trkpt lat="45.66048" lon="3.20793">
        <ele>378.6</ele>
        <time>2024-08-11T10:00:59Z</time>
      </trkpt>
      <trkpt lat="45.66056" lon="3.20793">
        <ele>378.4</ele>
        <time>2024-08-11T10:01:00Z</time>
      </trkpt>
      <trkpt lat="45.66065" lon="3.20793">
        <ele>378.2</ele>
        <time>2024-08-11T10:01:01Z</time>
      </trkpt>
      <trkpt lat="45.66074" lon="3.20793">
        <ele>377.8</ele>
        <time>2024-08-11T10:01:02Z</time>
      </trkpt>
      <trkpt lat="45.66082" lon="3.20794">
        <ele>377.6</ele>
        <time>2024-08-11T10:01:03Z</time>
      </trkpt>
      <trkpt lat="45.66091" lon="3.20794">
        <ele>377.4</ele>
        <time>2024-08-11T10:01:04Z</time>
      </trkpt>
      <trkpt lat="45.66099" lon="3.20794">
        <ele>377.2</ele>
        <time>2024-08-11T10:01:05Z</time>
      </trkpt>
      <trkpt lat="45.66108" lon="3.20794">
        <ele>376.8</ele>
        <time>2024-08-11T10:01:06Z</time>
      </trkpt>
      <trkpt lat="45.66116" lon="3.20794">
        <ele>376.6</ele>
        <time>2024-08-11T10:01:07Z</time>
      </trkpt>
      <trkpt lat="45.66124" lon="3.20795">
        <ele>376.4</ele>
        <time>2024-08-11T10:01:08Z</time>
      </trkpt>
      <trkpt lat="45.66132" lon="3.20795">
        <ele>376.2</ele>
        <time>2024-08-11T10:01:09Z</time>
      </trkpt>
      <trkpt lat="45.66141" lon="3.20795">
        <ele>376</ele>
        <time>2024-08-11T10:01:10Z</time>
      </trkpt>
      <trkpt lat="45.66149" lon="3.20795">
        <ele>375.8</ele>
        <time>2024-08-11T10:01:11Z</time>
      </trkpt>
      <trkpt lat="45.66157" lon="3.20795">
        <ele>375.6</ele>
        <time>2024-08-11T10:01:12Z</time>
      </trkpt>
      <trkpt lat="45.66165" lon="3.20796">
        <ele>375.4</ele>
        <time>2024-08-11T10:01:13Z</time>
      </trkpt>
      <trkpt lat="45.66181" lon="3.20796">
        <ele>375</ele>
        <time>2024-08-11T10:01:14Z</time>
      </trkpt>
      <trkpt lat="45.66181" lon="3.20796">
        <ele>374.8</ele>
        <time>2024-08-11T10:01:15Z</time>
      </trkpt>
      <trkpt lat="45.66188" lon="3.20796">
        <ele>374.6</ele>
        <time>2024-08-11T10:01:16Z</time>
      </trkpt>
      <trkpt lat="45.66196" lon="3.20796">
        <ele>374.4</ele>
        <time>2024-08-11T10:01:17Z</time>
      </trkpt>
      <trkpt lat="45.66204" lon="3.20796">
        <ele>374.2</ele>
        <time>2024-08-11T10:01:18Z</time>
      </trkpt>
      <trkpt lat="45.66212" lon="3.20796">
        <ele>373.8</ele>
        <time>2024-08-11T10:01:19Z</time>
      </trkpt>
      <trkpt lat="45.6622" lon="3.20796">
        <ele>373.6</ele>
        <time>2024-08-11T10:01:20Z</time>
      </trkpt>
      <trkpt lat="45.66227" lon="3.20796">
        <ele>373.4</ele>
        <time>2024-08-11T10:01:21Z</time>
      </trkpt>
      <trkpt lat="45.66235" lon="3.20796">
        <ele>373.2</ele>
        <time>2024-08-11T10:01:22Z</time>
      </trkpt>
      <trkpt lat="45.66242" lon="3.20796">
        <ele>373</ele>
        <time>2024-08-11T10:01:23Z</time>
      </trkpt>
      <trkpt lat="45.6625" lon="3.20796">
        <ele>372.8</ele>
        <time>2024-08-11T10:01:24Z</time>
      </trkpt>
      <trkpt lat="45.66257" lon="3.20796">
        <ele>372.6</ele>
        <time>2024-08-11T10:01:25Z</time>
      </trkpt>
      <trkpt lat="45.66266" lon="3.20796">
        <ele>372.4</ele>
        <time>2024-08-11T10:01:26Z</time>
      </trkpt>
      <trkpt lat="45.66273" lon="3.20796">
        <ele>372.2</ele>
        <time>2024-08-11T10:01:27Z</time>
      </trkpt>
      <trkpt lat="45.6628" lon="3.20796">
        <ele>372</ele>
        <time>2024-08-11T10:01:28Z</time>
      </trkpt>
      <trkpt lat="45.66287" lon="3.20796">
        <ele>371.8</ele>
        <time>2024-08-11T10:01:29Z</time>
      </trkpt>
      <trkpt lat="45.66293" lon="3.208">
        <ele>371.4</ele>
        <time>2024-08-11T10:01:30Z</time>
      </trkpt>
      <trkpt lat="45.66301" lon="3.20805">
        <ele>371.2</ele>
        <time>2024-08-11T10:01:31Z</time>
      </trkpt>
      <trkpt lat="45.66308" lon="3.20799">
        <ele>371</ele>
        <time>2024-08-11T10:01:32Z</time>
      </trkpt>
      <trkpt lat="45.66314" lon="3.20799">
        <ele>370.8</ele>
        <time>2024-08-11T10:01:33Z</time>
      </trkpt>
      <trkpt lat="45.66321" lon="3.20799">
        <ele>370.8</ele>
        <time>2024-08-11T10:01:34Z</time>
      </trkpt>
      <trkpt lat="45.66329" lon="3.20799">
        <ele>370.6</ele>
        <time>2024-08-11T10:01:35Z</time>
      </trkpt>
      <trkpt lat="45.66337" lon="3.20799">
        <ele>370.6</ele>
        <time>2024-08-11T10:01:36Z</time>
      </trkpt>
      <trkpt lat="45.66344" lon="3.20799">
        <ele>370.4</ele>
        <time>2024-08-11T10:01:37Z</time>
      </trkpt>
      <trkpt lat="45.66352" lon="3.20799">
        <ele>370.2</ele>
        <time>2024-08-11T10:01:38Z</time>
      </trkpt>
      <trkpt lat="45.6636" lon="3.20799">
        <ele>370.2</ele>
        <time>2024-08-11T10:01:39Z</time>
      </trkpt>
      <trkpt lat="45.66368" lon="3.20799">
        <ele>370</ele>
        <time>2024-08-11T10:01:40Z</time>
      </trkpt>
      <trkpt lat="45.66376" lon="3.20799">
        <ele>369.8</ele>
        <time>2024-08-11T10:01:41Z</time>
      </trkpt>
      <trkpt lat="45.66384" lon="3.20799">
        <ele>369.6</ele>
        <time>2024-08-11T10:01:42Z</time>
      </trkpt>
      <trkpt lat="45.66392" lon="3.20799">
        <ele>369.4</ele>
        <time>2024-08-11T10:01:43Z</time>
      </trkpt>
      <trkpt lat="45.66401" lon="3.20799">
        <ele>369.4</ele>
        <time>2024-08-11T10:01:44Z</time>
      </trkpt>
      <trkpt lat="45.66409" lon="3.208">
        <ele>369.2</ele>
        <time>2024-08-11T10:01:45Z</time>
      </trkpt>
      <trkpt lat="45.66417" lon="3.20802">
        <ele>369</ele>
        <time>2024-08-11T10:01:46Z</time>
      </trkpt>
      <trkpt lat="45.66425" lon="3.20803">
        <ele>368.8</ele>
        <time>2024-08-11T10:01:47Z</time>
      </trkpt>
      <trkpt lat="45.66433" lon="3.20805">
        <ele>368.8</ele>
        <time>2024-08-11T10:01:48Z</time>
      </trkpt>
      <trkpt lat="45.66441" lon="3.20807">
        <ele>368.6</ele>
        <time>2024-08-11T10:01:49Z</time>
      </trkpt>
      <trkpt lat="45.6645" lon="3.20809">
        <ele>368.4</ele>
        <time>2024-08-11T10:01:50Z</time>
      </trkpt>
      <trkpt lat="45.66459" lon="3.20811">
        <ele>368.2</ele>
        <time>2024-08-11T10:01:51Z</time>
      </trkpt>
      <trkpt lat="45.66467" lon="3.20813">
        <ele>368.2</ele>
        <time>2024-08-11T10:01:52Z</time>
      </trkpt>
      <trkpt lat="45.66476" lon="3.20815">
        <ele>368</ele>
        <time>2024-08-11T10:01:53Z</time>
      </trkpt>
      <trkpt lat="45.66484" lon="3.20817">
        <ele>367.8</ele>
        <time>2024-08-11T10:01:54Z</time>
      </trkpt>
      <trkpt lat="45.66493" lon="3.2082">
        <ele>367.6</ele>
        <time>2024-08-11T10:01:55Z</time>
      </trkpt>
      <trkpt lat="45.66501" lon="3.20823">
        <ele>367.4</ele>
        <time>2024-08-11T10:01:56Z</time>
      </trkpt>
      <trkpt lat="45.6651" lon="3.20826">
        <ele>367.2</ele>
        <time>2024-08-11T10:01:57Z</time>
      </trkpt>
      <trkpt lat="45.66517" lon="3.20828">
        <ele>367</ele>
        <time>2024-08-11T10:01:58Z</time>
      </trkpt>
      <trkpt lat="45.66525" lon="3.20831">
        <ele>366.6</ele>
        <time>2024-08-11T10:01:59Z</time>
      </trkpt>
      <trkpt lat="45.66533" lon="3.20834">
        <ele>366.4</ele>
        <time>2024-08-11T10:02:00Z</time>
      </trkpt>
      <trkpt lat="45.66541" lon="3.20838">
        <ele>366.2</ele>
        <time>2024-08-11T10:02:01Z</time>
      </trkpt>
      <trkpt lat="45.66549" lon="3.20841">
        <ele>366</ele>
        <time>2024-08-11T10:02:02Z</time>
      </trkpt>
      <trkpt lat="45.66556" lon="3.20846">
        <ele>365.8</ele>
        <time>2024-08-11T10:02:03Z</time>
      </trkpt>
      <trkpt lat="45.66563" lon="3.2085">
        <ele>365.4</ele>
        <time>2024-08-11T10:02:04Z</time>
      </trkpt>
      <trkpt lat="45.6657" lon="3.20854">
        <ele>365.4</ele>
        <time>2024-08-11T10:02:05Z</time>
      </trkpt>
      <trkpt lat="45.66578" lon="3.20858">
        <ele>365.2</ele>
        <time>2024-08-11T10:02:06Z</time>
      </trkpt>
      <trkpt lat="45.66586" lon="3.20863">
        <ele>365</ele>
        <time>2024-08-11T10:02:07Z</time>
      </trkpt>
      <trkpt lat="45.66593" lon="3.20867">
        <ele>364.8</ele>
        <time>2024-08-11T10:02:08Z</time>
      </trkpt>
      <trkpt lat="45.66601" lon="3.20872">
        <ele>364.6</ele>
        <time>2024-08-11T10:02:09Z</time>
      </trkpt>
      <trkpt lat="45.66609" lon="3.20876">
        <ele>364.4</ele>
        <time>2024-08-11T10:02:10Z</time>
      </trkpt>
      <trkpt lat="45.66617" lon="3.20881">
        <ele>364.2</ele>
        <time>2024-08-11T10:02:11Z</time>
      </trkpt>
      <trkpt lat="45.66625" lon="3.20886">
        <ele>364</ele>
        <time>2024-08-11T10:02:12Z</time>
      </trkpt>
      <trkpt lat="45.66633" lon="3.2089">
        <ele>363.8</ele>
        <time>2024-08-11T10:02:13Z</time>
      </trkpt>
      <trkpt lat="45.66641" lon="3.20895">
        <ele>363.8</ele>
        <time>2024-08-11T10:02:14Z</time>
      </trkpt>
      <trkpt lat="45.66649" lon="3.20899">
        <ele>363.6</ele>
        <time>2024-08-11T10:02:15Z</time>
      </trkpt>
      <trkpt lat="45.66657" lon="3.20904">
        <ele>363.4</ele>
        <time>2024-08-11T10:02:16Z</time>
      </trkpt>
      <trkpt lat="45.66665" lon="3.20909">
        <ele>363.2</ele>
        <time>2024-08-11T10:02:17Z</time>
      </trkpt>
      <trkpt lat="45.66672" lon="3.20913">
        <ele>363.2</ele>
        <time>2024-08-11T10:02:18Z</time>
      </trkpt>
      <trkpt lat="45.6668" lon="3.20917">
        <ele>363</ele>
        <time>2024-08-11T10:02:19Z</time>
      </trkpt>
      <trkpt lat="45.66687" lon="3.20922">
        <ele>362.8</ele>
        <time>2024-08-11T10:02:20Z</time>
      </trkpt>
      <trkpt lat="45.66694" lon="3.20926">
        <ele>362.8</ele>
        <time>2024-08-11T10:02:21Z</time>
      </trkpt>
      <trkpt lat="45.66701" lon="3.2093">
        <ele>362.8</ele>
        <time>2024-08-11T10:02:22Z</time>
      </trkpt>
      <trkpt lat="45.66708" lon="3.20933">
        <ele>362.8</ele>
        <time>2024-08-11T10:02:23Z</time>
      </trkpt>
      <trkpt lat="45.66715" lon="3.20937">
        <ele>362.6</ele>
        <time>2024-08-11T10:02:24Z</time>
      </trkpt>
      <trkpt lat="45.66722" lon="3.2094">
        <ele>362.6</ele>
        <time>2024-08-11T10:02:25Z</time>
      </trkpt>
      <trkpt lat="45.66728" lon="3.20944">
        <ele>362.6</ele>
        <time>2024-08-11T10:02:26Z</time>
      </trkpt>
      <trkpt lat="45.66735" lon="3.20947">
        <ele>362.4</ele>
        <time>2024-08-11T10:02:27Z</time>
      </trkpt>
      <trkpt lat="45.66741" lon="3.2095">
        <ele>362.4</ele>
        <time>2024-08-11T10:02:28Z</time>
      </trkpt>
      <trkpt lat="45.66747" lon="3.20953">
        <ele>362.2</ele>
        <time>2024-08-11T10:02:29Z</time>
      </trkpt>
      <trkpt lat="45.66753" lon="3.20956">
        <ele>362.2</ele>
        <time>2024-08-11T10:02:30Z</time>
      </trkpt>
      <trkpt lat="45.66759" lon="3.2096">
        <ele>362</ele>
        <time>2024-08-11T10:02:31Z</time>
      </trkpt>
      <trkpt lat="45.66765" lon="3.20964">
        <ele>362</ele>
        <time>2024-08-11T10:02:32Z</time>
      </trkpt>
      <trkpt lat="45.66771" lon="3.20967">
        <ele>361.8</ele>
        <time>2024-08-11T10:02:33Z</time>
      </trkpt>
      <trkpt lat="45.66776" lon="3.20971">
        <ele>361.8</ele>
        <time>2024-08-11T10:02:34Z</time>
      </trkpt>
      <trkpt lat="45.66781" lon="3.20974">
        <ele>361.8</ele>
        <time>2024-08-11T10:02:35Z</time>
      </trkpt>
      <trkpt lat="45.66787" lon="3.20977">
        <ele>361.8</ele>
        <time>2024-08-11T10:02:36Z</time>
      </trkpt>
      <trkpt lat="45.66792" lon="3.2098">
        <ele>361.6</ele>
        <time>2024-08-11T10:02:37Z</time>
      </trkpt>
      <trkpt lat="45.66797" lon="3.20984">
        <ele>361.6</ele>
        <time>2024-08-11T10:02:38Z</time>
      </trkpt>
      <trkpt lat="45.66802" lon="3.20987">
        <ele>361.6</ele>
        <time>2024-08-11T10:02:39Z</time>
      </trkpt>
      <trkpt lat="45.66807" lon="3.2099">
        <ele>361.4</ele>
        <time>2024-08-11T10:02:40Z</time>
      </trkpt>
      <trkpt lat="45.66812" lon="3.20993">
        <ele>361.4</ele>
        <time>2024-08-11T10:02:41Z</time>
      </trkpt>
      <trkpt lat="45.66817" lon="3.20996">
        <ele>361.4</ele>
        <time>2024-08-11T10:02:42Z</time>
      </trkpt>
      <trkpt lat="45.66821" lon="3.20999">
        <ele>361.2</ele>
        <time>2024-08-11T10:02:43Z</time>
      </trkpt>
      <trkpt lat="45.66826" lon="3.21002">
        <ele>361.2</ele>
        <time>2024-08-11T10:02:44Z</time>
      </trkpt>
      <trkpt lat="45.66831" lon="3.21005">
        <ele>361.2</ele>
        <time>2024-08-11T10:02:45Z</time>
      </trkpt>
      <trkpt lat="45.66836" lon="3.21008">
        <ele>361.2</ele>
        <time>2024-08-11T10:02:46Z</time>
      </trkpt>
      <trkpt lat="45.66842" lon="3.21012">
        <ele>361.2</ele>
        <time>2024-08-11T10:02:47Z</time>
      </trkpt>
      <trkpt lat="45.66848" lon="3.21016">
        <ele>361.2</ele>
        <time>2024-08-11T10:02:48Z</time>
      </trkpt>
      <trkpt lat="45.66853" lon="3.21019">
        <ele>361.2</ele>
        <time>2024-08-11T10:02:49Z</time>
      </trkpt>
      <trkpt lat="45.66858" lon="3.21022">
        <ele>361.2</ele>
        <time>2024-08-11T10:02:50Z</time>
      </trkpt>
      <trkpt lat="45.66864" lon="3.21025">
        <ele>361.2</ele>
        <time>2024-08-11T10:02:51Z</time>
      </trkpt>
      <trkpt lat="45.66869" lon="3.21029">
        <ele>361.2</ele>
        <time>2024-08-11T10:02:52Z</time>
      </trkpt>
      <trkpt lat="45.66874" lon="3.21032">
        <ele>361.2</ele>
        <time>2024-08-11T10:02:53Z</time>
      </trkpt>
      <trkpt lat="45.66879" lon="3.21035">
        <ele>361</ele>
        <time>2024-08-11T10:02:54Z</time>
      </trkpt>
      <trkpt lat="45.66884" lon="3.21038">
        <ele>361.2</ele>
        <time>2024-08-11T10:02:55Z</time>
      </trkpt>
      <trkpt lat="45.66889" lon="3.21041">
        <ele>361.2</ele>
        <time>2024-08-11T10:02:56Z</time>
      </trkpt>
      <trkpt lat="45.66893" lon="3.21044">
        <ele>361.2</ele>
        <time>2024-08-11T10:02:57Z</time>
      </trkpt>
      <trkpt lat="45.66899" lon="3.21047">
        <ele>361.2</ele>
        <time>2024-08-11T10:02:58Z</time>
      </trkpt>
      <trkpt lat="45.66903" lon="3.2105">
        <ele>361.2</ele>
        <time>2024-08-11T10:02:59Z</time>
      </trkpt>
      <trkpt lat="45.66908" lon="3.21053">
        <ele>361.2</ele>
        <time>2024-08-11T10:03:00Z</time>
      </trkpt>
      <trkpt lat="45.66913" lon="3.21057">
        <ele>361.2</ele>
        <time>2024-08-11T10:03:01Z</time>
      </trkpt>
      <trkpt lat="45.66918" lon="3.21059">
        <ele>361.2</ele>
        <time>2024-08-11T10:03:02Z</time>
      </trkpt>
      <trkpt lat="45.66922" lon="3.21061">
        <ele>361</ele>
        <time>2024-08-11T10:03:03Z</time>
      </trkpt>
      <trkpt lat="45.66927" lon="3.21064">
        <ele>361</ele>
        <time>2024-08-11T10:03:04Z</time>
      </trkpt>
      <trkpt lat="45.66931" lon="3.21066">
        <ele>361</ele>
        <time>2024-08-11T10:03:05Z</time>
      </trkpt>
      <trkpt lat="45.66935" lon="3.21068">
        <ele>361</ele>
        <time>2024-08-11T10:03:06Z</time>
      </trkpt>
      <trkpt lat="45.6694" lon="3.2107">
        <ele>361</ele>
        <time>2024-08-11T10:03:07Z</time>
      </trkpt>
      <trkpt lat="45.66944" lon="3.21072">
        <ele>361</ele>
        <time>2024-08-11T10:03:08Z</time>
      </trkpt>
      <trkpt lat="45.66949" lon="3.21074">
        <ele>361</ele>
        <time>2024-08-11T10:03:09Z</time>
      </trkpt>
      <trkpt lat="45.66953" lon="3.21076">
        <ele>361</ele>
        <time>2024-08-11T10:03:10Z</time>
      </trkpt>
      <trkpt lat="45.66958" lon="3.21078">
        <ele>361</ele>
        <time>2024-08-11T10:03:11Z</time>
      </trkpt>
      <trkpt lat="45.66962" lon="3.2108">
        <ele>361</ele>
        <time>2024-08-11T10:03:12Z</time>
      </trkpt>
      <trkpt lat="45.66967" lon="3.21082">
        <ele>361</ele>
        <time>2024-08-11T10:03:13Z</time>
      </trkpt>
      <trkpt lat="45.66971" lon="3.21081">
        <ele>361</ele>
        <time>2024-08-11T10:03:14Z</time>
      </trkpt>
      <trkpt lat="45.66976" lon="3.21081">
        <ele>361</ele>
        <time>2024-08-11T10:03:15Z</time>
      </trkpt>
      <trkpt lat="45.6698" lon="3.21081">
        <ele>361.2</ele>
        <time>2024-08-11T10:03:16Z</time>
      </trkpt>
      <trkpt lat="45.66985" lon="3.2108">
        <ele>361.2</ele>
        <time>2024-08-11T10:03:17Z</time>
      </trkpt>
      <trkpt lat="45.66989" lon="3.2108">
        <ele>361.2</ele>
        <time>2024-08-11T10:03:18Z</time>
      </trkpt>
      <trkpt lat="45.66994" lon="3.2108">
        <ele>361.2</ele>
        <time>2024-08-11T10:03:19Z</time>
      </trkpt>
      <trkpt lat="45.66998" lon="3.21079">
        <ele>361.2</ele>
        <time>2024-08-11T10:03:20Z</time>
      </trkpt>
      <trkpt lat="45.67003" lon="3.21079">
        <ele>361.2</ele>
        <time>2024-08-11T10:03:21Z</time>
      </trkpt>
      <trkpt lat="45.67007" lon="3.21079">
        <ele>361.4</ele>
        <time>2024-08-11T10:03:22Z</time>
      </trkpt>
      <trkpt lat="45.67012" lon="3.21079">
        <ele>361.4</ele>
        <time>2024-08-11T10:03:23Z</time>
      </trkpt>
      <trkpt lat="45.67016" lon="3.21078">
        <ele>361.4</ele>
        <time>2024-08-11T10:03:24Z</time>
      </trkpt>
      <trkpt lat="45.67021" lon="3.21078">
        <ele>361.4</ele>
        <time>2024-08-11T10:03:25Z</time>
      </trkpt>
      <trkpt lat="45.67026" lon="3.21077">
        <ele>361.4</ele>
        <time>2024-08-11T10:03:26Z</time>
      </trkpt>
      <trkpt lat="45.6703" lon="3.21075">
        <ele>361.4</ele>
        <time>2024-08-11T10:03:27Z</time>
      </trkpt>
      <trkpt lat="45.67035" lon="3.21073">
        <ele>361.4</ele>
        <time>2024-08-11T10:03:28Z</time>
      </trkpt>
      <trkpt lat="45.67039" lon="3.2107">
        <ele>361.4</ele>
        <time>2024-08-11T10:03:29Z</time>
      </trkpt>
      <trkpt lat="45.67044" lon="3.21068">
        <ele>361.4</ele>
        <time>2024-08-11T10:03:30Z</time>
      </trkpt>
      <trkpt lat="45.67049" lon="3.21066">
        <ele>361.4</ele>
        <time>2024-08-11T10:03:31Z</time>
      </trkpt>
      <trkpt lat="45.67053" lon="3.21063">
        <ele>361.4</ele>
        <time>2024-08-11T10:03:32Z</time>
      </trkpt>
      <trkpt lat="45.67058" lon="3.21061">
        <ele>361.4</ele>
        <time>2024-08-11T10:03:33Z</time>
      </trkpt>
      <trkpt lat="45.67063" lon="3.21059">
        <ele>361.6</ele>
        <time>2024-08-11T10:03:34Z</time>
      </trkpt>
      <trkpt lat="45.67068" lon="3.21056">
        <ele>361.6</ele>
        <time>2024-08-11T10:03:35Z</time>
      </trkpt>
      <trkpt lat="45.67072" lon="3.21054">
        <ele>361.6</ele>
        <time>2024-08-11T10:03:36Z</time>
      </trkpt>
      <trkpt lat="45.67077" lon="3.21052">
        <ele>361.6</ele>
        <time>2024-08-11T10:03:37Z</time>
      </trkpt>
      <trkpt lat="45.67081" lon="3.21048">
        <ele>361.6</ele>
        <time>2024-08-11T10:03:38Z</time>
      </trkpt>
      <trkpt lat="45.67085" lon="3.21044">
        <ele>361.6</ele>
        <time>2024-08-11T10:03:39Z</time>
      </trkpt>
      <trkpt lat="45.67089" lon="3.2104">
        <ele>361.6</ele>
        <time>2024-08-11T10:03:40Z</time>
      </trkpt>
      <trkpt lat="45.67093" lon="3.21036">
        <ele>361.6</ele>
        <time>2024-08-11T10:03:41Z</time>
      </trkpt>
      <trkpt lat="45.67097" lon="3.21032">
        <ele>361.6</ele>
        <time>2024-08-11T10:03:42Z</time>
      </trkpt>
      <trkpt lat="45.67101" lon="3.21027">
        <ele>361.6</ele>
        <time>2024-08-11T10:03:43Z</time>
      </trkpt>
      <trkpt lat="45.67105" lon="3.21023">
        <ele>361.8</ele>
        <time>2024-08-11T10:03:44Z</time>
      </trkpt>
      <trkpt lat="45.6711" lon="3.21019">
        <ele>361.6</ele>
        <time>2024-08-11T10:03:45Z</time>
      </trkpt>
      <trkpt lat="45.67114" lon="3.21015">
        <ele>361.6</ele>
        <time>2024-08-11T10:03:46Z</time>
      </trkpt>
      <trkpt lat="45.67117" lon="3.21009">
        <ele>361.6</ele>
        <time>2024-08-11T10:03:47Z</time>
      </trkpt>
      <trkpt lat="45.67121" lon="3.21003">
        <ele>361.8</ele>
        <time>2024-08-11T10:03:48Z</time>
      </trkpt>
      <trkpt lat="45.67125" lon="3.20997">
        <ele>361.8</ele>
        <time>2024-08-11T10:03:49Z</time>
      </trkpt>
      <trkpt lat="45.67129" lon="3.20991">
        <ele>361.8</ele>
        <time>2024-08-11T10:03:50Z</time>
      </trkpt>
      <trkpt lat="45.67134" lon="3.20984">
        <ele>361.8</ele>
        <time>2024-08-11T10:03:51Z</time>
      </trkpt>
      <trkpt lat="45.67138" lon="3.20978">
        <ele>361.8</ele>
        <time>2024-08-11T10:03:52Z</time>
      </trkpt>
      <trkpt lat="45.67142" lon="3.20972">
        <ele>361.8</ele>
        <time>2024-08-11T10:03:53Z</time>
      </trkpt>
      <trkpt lat="45.67146" lon="3.20966">
        <ele>361.8</ele>
        <time>2024-08-11T10:03:54Z</time>
      </trkpt>
      <trkpt lat="45.6715" lon="3.2096">
        <ele>361.8</ele>
        <time>2024-08-11T10:03:55Z</time>
      </trkpt>
      <trkpt lat="45.67155" lon="3.20954">
        <ele>361.8</ele>
        <time>2024-08-11T10:03:56Z</time>
      </trkpt>
      <trkpt lat="45.67159" lon="3.20948">
        <ele>361.8</ele>
        <time>2024-08-11T10:03:57Z</time>
      </trkpt>
      <trkpt lat="45.67163" lon="3.20941">
        <ele>361.8</ele>
        <time>2024-08-11T10:03:58Z</time>
      </trkpt>
      <trkpt lat="45.67167" lon="3.20935">
        <ele>361.8</ele>
        <time>2024-08-11T10:03:59Z</time>
      </trkpt>
      <trkpt lat="45.67171" lon="3.20929">
        <ele>361.8</ele>
        <time>2024-08-11T10:04:00Z</time>
      </trkpt>
      <trkpt lat="45.67175" lon="3.20923">
        <ele>361.8</ele>
        <time>2024-08-11T10:04:01Z</time>
      </trkpt>
      <trkpt lat="45.67179" lon="3.20917">
        <ele>361.8</ele>
        <time>2024-08-11T10:04:02Z</time>
      </trkpt>
      <trkpt lat="45.67183" lon="3.20911">
        <ele>361.8</ele>
        <time>2024-08-11T10:04:03Z</time>
      </trkpt>
      <trkpt lat="45.67187" lon="3.20905">
        <ele>362</ele>
        <time>2024-08-11T10:04:04Z</time>
      </trkpt>
      <trkpt lat="45.67191" lon="3.209">
        <ele>362</ele>
        <time>2024-08-11T10:04:05Z</time>
      </trkpt>
      <trkpt lat="45.67195" lon="3.20894">
        <ele>361.8</ele>
        <time>2024-08-11T10:04:06Z</time>
      </trkpt>
      <trkpt lat="45.67199" lon="3.20888">
        <ele>362</ele>
        <time>2024-08-11T10:04:07Z</time>
      </trkpt>
      <trkpt lat="45.67203" lon="3.20882">
        <ele>362</ele>
        <time>2024-08-11T10:04:08Z</time>
      </trkpt>
      <trkpt lat="45.67207" lon="3.20876">
        <ele>362</ele>
        <time>2024-08-11T10:04:09Z</time>
      </trkpt>
      <trkpt lat="45.67211" lon="3.2087">
        <ele>362</ele>
        <time>2024-08-11T10:04:10Z</time>
      </trkpt>
      <trkpt lat="45.67216" lon="3.20864">
        <ele>362</ele>
        <time>2024-08-11T10:04:11Z</time>
      </trkpt>
      <trkpt lat="45.6722" lon="3.20858">
        <ele>362</ele>
        <time>2024-08-11T10:04:12Z</time>
      </trkpt>
      <trkpt lat="45.67224" lon="3.20852">
        <ele>362</ele>
        <time>2024-08-11T10:04:13Z</time>
      </trkpt>
      <trkpt lat="45.67228" lon="3.20846">
        <ele>362</ele>
        <time>2024-08-11T10:04:14Z</time>
      </trkpt>
      <trkpt lat="45.67232" lon="3.20839">
        <ele>362</ele>
        <time>2024-08-11T10:04:15Z</time>
      </trkpt>
      <trkpt lat="45.67236" lon="3.20833">
        <ele>362</ele>
        <time>2024-08-11T10:04:16Z</time>
      </trkpt>
      <trkpt lat="45.6724" lon="3.20827">
        <ele>362</ele>
        <time>2024-08-11T10:04:17Z</time>
      </trkpt>
      <trkpt lat="45.67244" lon="3.20821">
        <ele>362</ele>
        <time>2024-08-11T10:04:18Z</time>
      </trkpt>
      <trkpt lat="45.67248" lon="3.20815">
        <ele>362</ele>
        <time>2024-08-11T10:04:19Z</time>
      </trkpt>
      <trkpt lat="45.67252" lon="3.2081">
        <ele>362</ele>
        <time>2024-08-11T10:04:20Z</time>
      </trkpt>
      <trkpt lat="45.67256" lon="3.20803">
        <ele>362</ele>
        <time>2024-08-11T10:04:21Z</time>
      </trkpt>
      <trkpt lat="45.67261" lon="3.20797">
        <ele>362</ele>
        <time>2024-08-11T10:04:22Z</time>
      </trkpt>
      <trkpt lat="45.67265" lon="3.20791">
        <ele>362</ele>
        <time>2024-08-11T10:04:23Z</time>
      </trkpt>
      <trkpt lat="45.67269" lon="3.20785">
        <ele>362.2</ele>
        <time>2024-08-11T10:04:24Z</time>
      </trkpt>
      <trkpt lat="45.67273" lon="3.20779">
        <ele>362</ele>
        <time>2024-08-11T10:04:25Z</time>
      </trkpt>
      <trkpt lat="45.67277" lon="3.20773">
        <ele>362</ele>
        <time>2024-08-11T10:04:26Z</time>
      </trkpt>
      <trkpt lat="45.67281" lon="3.20767">
        <ele>362.2</ele>
        <time>2024-08-11T10:04:27Z</time>
      </trkpt>
      <trkpt lat="45.67285" lon="3.20761">
        <ele>362</ele>
        <time>2024-08-11T10:04:28Z</time>
      </trkpt>
      <trkpt lat="45.6729" lon="3.20755">
        <ele>362</ele>
        <time>2024-08-11T10:04:29Z</time>
      </trkpt>
      <trkpt lat="45.67294" lon="3.20749">
        <ele>362.2</ele>
        <time>2024-08-11T10:04:30Z</time>
      </trkpt>
      <trkpt lat="45.67298" lon="3.20743">
        <ele>362.2</ele>
        <time>2024-08-11T10:04:31Z</time>
      </trkpt>
      <trkpt lat="45.67302" lon="3.20737">
        <ele>362.2</ele>
        <time>2024-08-11T10:04:32Z</time>
      </trkpt>
      <trkpt lat="45.67306" lon="3.20731">
        <ele>362.2</ele>
        <time>2024-08-11T10:04:33Z</time>
      </trkpt>
      <trkpt lat="45.6731" lon="3.20725">
        <ele>362.2</ele>
        <time>2024-08-11T10:04:34Z</time>
      </trkpt>
      <trkpt lat="45.67315" lon="3.20719">
        <ele>362.2</ele>
        <time>2024-08-11T10:04:35Z</time>
      </trkpt>
      <trkpt lat="45.67319" lon="3.20713">
        <ele>362.4</ele>
        <time>2024-08-11T10:04:36Z</time>
      </trkpt>
      <trkpt lat="45.67323" lon="3.20707">
        <ele>362.4</ele>
        <time>2024-08-11T10:04:37Z</time>
      </trkpt>
      <trkpt lat="45.67327" lon="3.20701">
        <ele>362.4</ele>
        <time>2024-08-11T10:04:38Z</time>
      </trkpt>
      <trkpt lat="45.67331" lon="3.20695">
        <ele>362.4</ele>
        <time>2024-08-11T10:04:39Z</time>
      </trkpt>
      <trkpt lat="45.67335" lon="3.20689">
        <ele>362.4</ele>
        <time>2024-08-11T10:04:40Z</time>
      </trkpt>
      <trkpt lat="45.67339" lon="3.20683">
        <ele>362.4</ele>
        <time>2024-08-11T10:04:41Z</time>
      </trkpt>
      <trkpt lat="45.67343" lon="3.20678">
        <ele>362.4</ele>
        <time>2024-08-11T10:04:42Z</time>
      </trkpt>
      <trkpt lat="45.67347" lon="3.20672">
        <ele>362.4</ele>
        <time>2024-08-11T10:04:43Z</time>
      </trkpt>
      <trkpt lat="45.67351" lon="3.20666">
        <ele>362.4</ele>
        <time>2024-08-11T10:04:44Z</time>
      </trkpt>
      <trkpt lat="45.67355" lon="3.2066">
        <ele>362.4</ele>
        <time>2024-08-11T10:04:45Z</time>
      </trkpt>
      <trkpt lat="45.67359" lon="3.20655">
        <ele>362.4</ele>
        <time>2024-08-11T10:04:46Z</time>
      </trkpt>
      <trkpt lat="45.67363" lon="3.20649">
        <ele>362.4</ele>
        <time>2024-08-11T10:04:47Z</time>
      </trkpt>
      <trkpt lat="45.67367" lon="3.20643">
        <ele>362.6</ele>
        <time>2024-08-11T10:04:48Z</time>
      </trkpt>
      <trkpt lat="45.6737" lon="3.20638">
        <ele>362.6</ele>
        <time>2024-08-11T10:04:49Z</time>
      </trkpt>
      <trkpt lat="45.67374" lon="3.20632">
        <ele>362.6</ele>
        <time>2024-08-11T10:04:50Z</time>
      </trkpt>
      <trkpt lat="45.67378" lon="3.20627">
        <ele>362.6</ele>
        <time>2024-08-11T10:04:51Z</time>
      </trkpt>
      <trkpt lat="45.67382" lon="3.20621">
        <ele>362.6</ele>
        <time>2024-08-11T10:04:52Z</time>
      </trkpt>
      <trkpt lat="45.67385" lon="3.20616">
        <ele>362.6</ele>
        <time>2024-08-11T10:04:53Z</time>
      </trkpt>
      <trkpt lat="45.67389" lon="3.20611">
        <ele>362.6</ele>
        <time>2024-08-11T10:04:54Z</time>
      </trkpt>
      <trkpt lat="45.67393" lon="3.20606">
        <ele>362.8</ele>
        <time>2024-08-11T10:04:55Z</time>
      </trkpt>
      <trkpt lat="45.67396" lon="3.20601">
        <ele>362.8</ele>
        <time>2024-08-11T10:04:56Z</time>
      </trkpt>
      <trkpt lat="45.674" lon="3.20595">
        <ele>362.8</ele>
        <time>2024-08-11T10:04:57Z</time>
      </trkpt>
      <trkpt lat="45.67403" lon="3.2059">
        <ele>362.8</ele>
        <time>2024-08-11T10:04:58Z</time>
      </trkpt>
      <trkpt lat="45.67407" lon="3.20585">
        <ele>362.8</ele>
        <time>2024-08-11T10:04:59Z</time>
      </trkpt>
      <trkpt lat="45.67411" lon="3.2058">
        <ele>363</ele>
        <time>2024-08-11T10:05:00Z</time>
      </trkpt>
      <trkpt lat="45.67414" lon="3.20575">
        <ele>363</ele>
        <time>2024-08-11T10:05:01Z</time>
      </trkpt>
      <trkpt lat="45.67418" lon="3.20569">
        <ele>363</ele>
        <time>2024-08-11T10:05:02Z</time>
      </trkpt>
      <trkpt lat="45.67421" lon="3.20564">
        <ele>363</ele>
        <time>2024-08-11T10:05:03Z</time>
      </trkpt>
      <trkpt lat="45.67425" lon="3.20559">
        <ele>363</ele>
        <time>2024-08-11T10:05:04Z</time>
      </trkpt>
      <trkpt lat="45.67428" lon="3.20554">
        <ele>363.2</ele>
        <time>2024-08-11T10:05:05Z</time>
      </trkpt>
      <trkpt lat="45.67431" lon="3.20549">
        <ele>363.2</ele>
        <time>2024-08-11T10:05:06Z</time>
      </trkpt>
      <trkpt lat="45.67435" lon="3.20545">
        <ele>363.2</ele>
        <time>2024-08-11T10:05:07Z</time>
      </trkpt>
      <trkpt lat="45.67438" lon="3.2054">
        <ele>363.2</ele>
        <time>2024-08-11T10:05:08Z</time>
      </trkpt>
      <trkpt lat="45.67442" lon="3.20535">
        <ele>363.2</ele>
        <time>2024-08-11T10:05:09Z</time>
      </trkpt>
      <trkpt lat="45.67445" lon="3.2053">
        <ele>363.4</ele>
        <time>2024-08-11T10:05:10Z</time>
      </trkpt>
      <trkpt lat="45.67449" lon="3.20524">
        <ele>363.4</ele>
        <time>2024-08-11T10:05:11Z</time>
      </trkpt>
      <trkpt lat="45.67452" lon="3.2052">
        <ele>363.4</ele>
        <time>2024-08-11T10:05:12Z</time>
      </trkpt>
      <trkpt lat="45.67455" lon="3.20514">
        <ele>363.4</ele>
        <time>2024-08-11T10:05:13Z</time>
      </trkpt>
      <trkpt lat="45.67459" lon="3.2051">
        <ele>363.4</ele>
        <time>2024-08-11T10:05:14Z</time>
      </trkpt>
      <trkpt lat="45.67462" lon="3.20504">
        <ele>363.6</ele>
        <time>2024-08-11T10:05:15Z</time>
      </trkpt>
      <trkpt lat="45.67466" lon="3.20499">
        <ele>363.6</ele>
        <time>2024-08-11T10:05:16Z</time>
      </trkpt>
      <trkpt lat="45.67469" lon="3.20495">
        <ele>363.6</ele>
        <time>2024-08-11T10:05:17Z</time>
      </trkpt>
      <trkpt lat="45.67473" lon="3.20489">
        <ele>363.8</ele>
        <time>2024-08-11T10:05:18Z</time>
      </trkpt>
      <trkpt lat="45.67476" lon="3.20484">
        <ele>363.8</ele>
        <time>2024-08-11T10:05:19Z</time>
      </trkpt>
      <trkpt lat="45.6748" lon="3.20479">
        <ele>363.8</ele>
        <time>2024-08-11T10:05:20Z</time>
      </trkpt>
      <trkpt lat="45.67483" lon="3.20474">
        <ele>363.8</ele>
        <time>2024-08-11T10:05:21Z</time>
      </trkpt>
      <trkpt lat="45.67487" lon="3.20469">
        <ele>364</ele>
        <time>2024-08-11T10:05:22Z</time>
      </trkpt>
      <trkpt lat="45.6749" lon="3.20464">
        <ele>364</ele>
        <time>2024-08-11T10:05:23Z</time>
      </trkpt>
      <trkpt lat="45.67493" lon="3.20459">
        <ele>364.2</ele>
        <time>2024-08-11T10:05:24Z</time>
      </trkpt>
      <trkpt lat="45.67497" lon="3.20454">
        <ele>364.2</ele>
        <time>2024-08-11T10:05:25Z</time>
      </trkpt>
      <trkpt lat="45.675" lon="3.20449">
        <ele>364.2</ele>
        <time>2024-08-11T10:05:26Z</time>
      </trkpt>
      <trkpt lat="45.67504" lon="3.20444">
        <ele>364.2</ele>
        <time>2024-08-11T10:05:27Z</time>
      </trkpt>
      <trkpt lat="45.67507" lon="3.20439">
        <ele>364.4</ele>
        <time>2024-08-11T10:05:28Z</time>
      </trkpt>
      <trkpt lat="45.6751" lon="3.20435">
        <ele>364.4</ele>
        <time>2024-08-11T10:05:29Z</time>
      </trkpt>
      <trkpt lat="45.67514" lon="3.2043">
        <ele>364.4</ele>
        <time>2024-08-11T10:05:30Z</time>
      </trkpt>
      <trkpt lat="45.67517" lon="3.20425">
        <ele>364.6</ele>
        <time>2024-08-11T10:05:31Z</time>
      </trkpt>
      <trkpt lat="45.6752" lon="3.2042">
        <ele>364.6</ele>
        <time>2024-08-11T10:05:32Z</time>
      </trkpt>
      <trkpt lat="45.67524" lon="3.20415">
        <ele>364.8</ele>
        <time>2024-08-11T10:05:33Z</time>
      </trkpt>
      <trkpt lat="45.67527" lon="3.2041">
        <ele>364.8</ele>
        <time>2024-08-11T10:05:34Z</time>
      </trkpt>
      <trkpt lat="45.67531" lon="3.20405">
        <ele>365</ele>
        <time>2024-08-11T10:05:35Z</time>
      </trkpt>
      <trkpt lat="45.67534" lon="3.204">
        <ele>365</ele>
        <time>2024-08-11T10:05:36Z</time>
      </trkpt>
      <trkpt lat="45.67537" lon="3.20395">
        <ele>365</ele>
        <time>2024-08-11T10:05:37Z</time>
      </trkpt>
      <trkpt lat="45.67541" lon="3.20391">
        <ele>365</ele>
        <time>2024-08-11T10:05:38Z</time>
      </trkpt>
      <trkpt lat="45.67544" lon="3.20386">
        <ele>365.2</ele>
        <time>2024-08-11T10:05:39Z</time>
      </trkpt>
      <trkpt lat="45.67547" lon="3.20381">
        <ele>365.2</ele>
        <time>2024-08-11T10:05:40Z</time>
      </trkpt>
      <trkpt lat="45.67551" lon="3.20376">
        <ele>365.2</ele>
        <time>2024-08-11T10:05:41Z</time>
      </trkpt>
      <trkpt lat="45.67554" lon="3.20371">
        <ele>365.4</ele>
        <time>2024-08-11T10:05:42Z</time>
      </trkpt>
      <trkpt lat="45.67558" lon="3.20366">
        <ele>365.4</ele>
        <time>2024-08-11T10:05:43Z</time>
      </trkpt>
      <trkpt lat="45.67561" lon="3.20362">
        <ele>365.6</ele>
        <time>2024-08-11T10:05:44Z</time>
      </trkpt>
      <trkpt lat="45.67564" lon="3.20357">
        <ele>365.6</ele>
        <time>2024-08-11T10:05:45Z</time>
      </trkpt>
      <trkpt lat="45.67568" lon="3.20352">
        <ele>365.6</ele>
        <time>2024-08-11T10:05:46Z</time>
      </trkpt>
      <trkpt lat="45.67571" lon="3.20346">
        <ele>365.8</ele>
        <time>2024-08-11T10:05:47Z</time>
      </trkpt>
      <trkpt lat="45.67574" lon="3.20341">
        <ele>365.8</ele>
        <time>2024-08-11T10:05:48Z</time>
      </trkpt>
      <trkpt lat="45.67577" lon="3.20335">
        <ele>365.8</ele>
        <time>2024-08-11T10:05:49Z</time>
      </trkpt>
      <trkpt lat="45.67579" lon="3.2033">
        <ele>366</ele>
        <time>2024-08-11T10:05:50Z</time>
      </trkpt>
      <trkpt lat="45.67582" lon="3.20324">
        <ele>366</ele>
        <time>2024-08-11T10:05:51Z</time>
      </trkpt>
      <trkpt lat="45.67585" lon="3.20318">
        <ele>366.2</ele>
        <time>2024-08-11T10:05:52Z</time>
      </trkpt>
      <trkpt lat="45.67588" lon="3.20313">
        <ele>366.2</ele>
        <time>2024-08-11T10:05:53Z</time>
      </trkpt>
      <trkpt lat="45.67591" lon="3.20307">
        <ele>366.4</ele>
        <time>2024-08-11T10:05:54Z</time>
      </trkpt>
      <trkpt lat="45.67594" lon="3.20301">
        <ele>366.4</ele>
        <time>2024-08-11T10:05:55Z</time>
      </trkpt>
      <trkpt lat="45.67597" lon="3.20295">
        <ele>366.4</ele>
        <time>2024-08-11T10:05:56Z</time>
      </trkpt>
      <trkpt lat="45.67599" lon="3.2029">
        <ele>366.6</ele>
        <time>2024-08-11T10:05:57Z</time>
      </trkpt>
      <trkpt lat="45.67602" lon="3.20284">
        <ele>366.6</ele>
        <time>2024-08-11T10:05:58Z</time>
      </trkpt>
      <trkpt lat="45.67605" lon="3.20278">
        <ele>366.6</ele>
        <time>2024-08-11T10:05:59Z</time>
      </trkpt>
      <trkpt lat="45.67608" lon="3.20272">
        <ele>366.8</ele>
        <time>2024-08-11T10:06:00Z</time>
      </trkpt>
      <trkpt lat="45.67611" lon="3.20267">
        <ele>367</ele>
        <time>2024-08-11T10:06:01Z</time>
      </trkpt>
      <trkpt lat="45.67614" lon="3.20261">
        <ele>367</ele>
        <time>2024-08-11T10:06:02Z</time>
      </trkpt>
      <trkpt lat="45.67616" lon="3.20256">
        <ele>367.2</ele>
        <time>2024-08-11T10:06:03Z</time>
      </trkpt>
      <trkpt lat="45.67619" lon="3.2025">
        <ele>367.2</ele>
        <time>2024-08-11T10:06:04Z</time>
      </trkpt>
      <trkpt lat="45.67622" lon="3.20244">
        <ele>367.2</ele>
        <time>2024-08-11T10:06:05Z</time>
      </trkpt>
      <trkpt lat="45.67625" lon="3.20238">
        <ele>367.2</ele>
        <time>2024-08-11T10:06:06Z</time>
      </trkpt>
      <trkpt lat="45.67628" lon="3.20233">
        <ele>367.4</ele>
        <time>2024-08-11T10:06:07Z</time>
      </trkpt>
      <trkpt lat="45.6763" lon="3.20227">
        <ele>367.4</ele>
        <time>2024-08-11T10:06:08Z</time>
      </trkpt>
      <trkpt lat="45.67633" lon="3.20221">
        <ele>367.6</ele>
        <time>2024-08-11T10:06:09Z</time>
      </trkpt>
      <trkpt lat="45.67636" lon="3.20215">
        <ele>367.6</ele>
        <time>2024-08-11T10:06:10Z</time>
      </trkpt>
      <trkpt lat="45.67638" lon="3.20209">
        <ele>367.6</ele>
        <time>2024-08-11T10:06:11Z</time>
      </trkpt>
      <trkpt lat="45.67641" lon="3.20203">
        <ele>367.8</ele>
        <time>2024-08-11T10:06:12Z</time>
      </trkpt>
      <trkpt lat="45.67643" lon="3.20197">
        <ele>367.8</ele>
        <time>2024-08-11T10:06:13Z</time>
      </trkpt>
      <trkpt lat="45.67646" lon="3.20191">
        <ele>368</ele>
        <time>2024-08-11T10:06:14Z</time>
      </trkpt>
      <trkpt lat="45.67649" lon="3.20185">
        <ele>368</ele>
        <time>2024-08-11T10:06:15Z</time>
      </trkpt>
      <trkpt lat="45.67651" lon="3.20179">
        <ele>368.2</ele>
        <time>2024-08-11T10:06:16Z</time>
      </trkpt>
      <trkpt lat="45.67653" lon="3.20172">
        <ele>368.2</ele>
        <time>2024-08-11T10:06:17Z</time>
      </trkpt>
      <trkpt lat="45.67656" lon="3.20166">
        <ele>368.2</ele>
        <time>2024-08-11T10:06:18Z</time>
      </trkpt>
      <trkpt lat="45.67658" lon="3.2016">
        <ele>368.4</ele>
        <time>2024-08-11T10:06:19Z</time>
      </trkpt>
      <trkpt lat="45.6766" lon="3.20153">
        <ele>368.4</ele>
        <time>2024-08-11T10:06:20Z</time>
      </trkpt>
      <trkpt lat="45.67662" lon="3.20147">
        <ele>368.4</ele>
        <time>2024-08-11T10:06:21Z</time>
      </trkpt>
      <trkpt lat="45.67665" lon="3.2014">
        <ele>368.6</ele>
        <time>2024-08-11T10:06:22Z</time>
      </trkpt>
      <trkpt lat="45.67667" lon="3.20134">
        <ele>368.6</ele>
        <time>2024-08-11T10:06:23Z</time>
      </trkpt>
      <trkpt lat="45.67669" lon="3.20127">
        <ele>368.6</ele>
        <time>2024-08-11T10:06:24Z</time>
      </trkpt>
      <trkpt lat="45.67672" lon="3.2012">
        <ele>368.8</ele>
        <time>2024-08-11T10:06:25Z</time>
      </trkpt>
      <trkpt lat="45.67674" lon="3.20114">
        <ele>368.8</ele>
        <time>2024-08-11T10:06:26Z</time>
      </trkpt>
      <trkpt lat="45.67676" lon="3.20108">
        <ele>369</ele>
        <time>2024-08-11T10:06:27Z</time>
      </trkpt>
      <trkpt lat="45.67679" lon="3.20101">
        <ele>369</ele>
        <time>2024-08-11T10:06:28Z</time>
      </trkpt>
      <trkpt lat="45.67681" lon="3.20095">
        <ele>369.2</ele>
        <time>2024-08-11T10:06:29Z</time>
      </trkpt>
      <trkpt lat="45.67683" lon="3.20089">
        <ele>369.2</ele>
        <time>2024-08-11T10:06:30Z</time>
      </trkpt>
      <trkpt lat="45.67685" lon="3.20083">
        <ele>369.2</ele>
        <time>2024-08-11T10:06:31Z</time>
      </trkpt>
      <trkpt lat="45.67687" lon="3.20077">
        <ele>369.4</ele>
        <time>2024-08-11T10:06:32Z</time>
      </trkpt>
      <trkpt lat="45.6769" lon="3.20071">
        <ele>369.4</ele>
        <time>2024-08-11T10:06:33Z</time>
      </trkpt>
      <trkpt lat="45.67692" lon="3.20064">
        <ele>369.6</ele>
        <time>2024-08-11T10:06:34Z</time>
      </trkpt>
      <trkpt lat="45.67694" lon="3.20058">
        <ele>369.6</ele>
        <time>2024-08-11T10:06:35Z</time>
      </trkpt>
      <trkpt lat="45.67696" lon="3.20052">
        <ele>369.8</ele>
        <time>2024-08-11T10:06:36Z</time>
      </trkpt>
      <trkpt lat="45.67699" lon="3.20046">
        <ele>369.8</ele>
        <time>2024-08-11T10:06:37Z</time>
      </trkpt>
      <trkpt lat="45.67701" lon="3.20039">
        <ele>370</ele>
        <time>2024-08-11T10:06:38Z</time>
      </trkpt>
      <trkpt lat="45.67703" lon="3.20033">
        <ele>370</ele>
        <time>2024-08-11T10:06:39Z</time>
      </trkpt>
      <trkpt lat="45.67706" lon="3.20026">
        <ele>370</ele>
        <time>2024-08-11T10:06:40Z</time>
      </trkpt>
      <trkpt lat="45.67708" lon="3.20019">
        <ele>370.2</ele>
        <time>2024-08-11T10:06:41Z</time>
      </trkpt>
      <trkpt lat="45.67711" lon="3.20013">
        <ele>370.2</ele>
        <time>2024-08-11T10:06:42Z</time>
      </trkpt>
      <trkpt lat="45.67714" lon="3.20006">
        <ele>370.2</ele>
        <time>2024-08-11T10:06:43Z</time>
      </trkpt>
      <trkpt lat="45.67716" lon="3.19999">
        <ele>370.4</ele>
        <time>2024-08-11T10:06:44Z</time>
      </trkpt>
      <trkpt lat="45.67719" lon="3.19993">
        <ele>370.4</ele>
        <time>2024-08-11T10:06:45Z</time>
      </trkpt>
      <trkpt lat="45.67721" lon="3.19986">
        <ele>370.4</ele>
        <time>2024-08-11T10:06:46Z</time>
      </trkpt>
      <trkpt lat="45.67724" lon="3.19979">
        <ele>370.6</ele>
        <time>2024-08-11T10:06:47Z</time>
      </trkpt>
      <trkpt lat="45.67727" lon="3.19972">
        <ele>370.6</ele>
        <time>2024-08-11T10:06:48Z</time>
      </trkpt>
      <trkpt lat="45.6773" lon="3.19964">
        <ele>370.6</ele>
        <time>2024-08-11T10:06:49Z</time>
      </trkpt>
      <trkpt lat="45.67733" lon="3.19957">
        <ele>370.8</ele>
        <time>2024-08-11T10:06:50Z</time>
      </trkpt>
      <trkpt lat="45.67735" lon="3.1995">
        <ele>370.8</ele>
        <time>2024-08-11T10:06:51Z</time>
      </trkpt>
      <trkpt lat="45.67739" lon="3.19943">
        <ele>370.8</ele>
        <time>2024-08-11T10:06:52Z</time>
      </trkpt>
      <trkpt lat="45.67743" lon="3.19937">
        <ele>370.8</ele>
        <time>2024-08-11T10:06:53Z</time>
      </trkpt>
      <trkpt lat="45.67747" lon="3.19931">
        <ele>371</ele>
        <time>2024-08-11T10:06:54Z</time>
      </trkpt>
      <trkpt lat="45.67752" lon="3.19924">
        <ele>371</ele>
        <time>2024-08-11T10:06:55Z</time>
      </trkpt>
      <trkpt lat="45.67757" lon="3.19918">
        <ele>371</ele>
        <time>2024-08-11T10:06:56Z</time>
      </trkpt>
      <trkpt lat="45.67762" lon="3.19911">
        <ele>371</ele>
        <time>2024-08-11T10:06:57Z</time>
      </trkpt>
      <trkpt lat="45.67767" lon="3.19904">
        <ele>371</ele>
        <time>2024-08-11T10:06:58Z</time>
      </trkpt>
      <trkpt lat="45.67773" lon="3.19896">
        <ele>371</ele>
        <time>2024-08-11T10:06:59Z</time>
      </trkpt>
      <trkpt lat="45.67778" lon="3.19889">
        <ele>371</ele>
        <time>2024-08-11T10:07:00Z</time>
      </trkpt>
      <trkpt lat="45.67784" lon="3.19881">
        <ele>371</ele>
        <time>2024-08-11T10:07:01Z</time>
      </trkpt>
      <trkpt lat="45.67791" lon="3.19875">
        <ele>371</ele>
        <time>2024-08-11T10:07:02Z</time>
      </trkpt>
      <trkpt lat="45.67798" lon="3.19868">
        <ele>371</ele>
        <time>2024-08-11T10:07:03Z</time>
      </trkpt>
      <trkpt lat="45.67806" lon="3.19861">
        <ele>370.8</ele>
        <time>2024-08-11T10:07:04Z</time>
      </trkpt>
      <trkpt lat="45.67813" lon="3.19854">
        <ele>370.8</ele>
        <time>2024-08-11T10:07:05Z</time>
      </trkpt>
      <trkpt lat="45.67821" lon="3.19847">
        <ele>370.8</ele>
        <time>2024-08-11T10:07:06Z</time>
      </trkpt>
      <trkpt lat="45.67829" lon="3.1984">
        <ele>370.8</ele>
        <time>2024-08-11T10:07:07Z</time>
      </trkpt>
      <trkpt lat="45.67837" lon="3.19832">
        <ele>370.8</ele>
        <time>2024-08-11T10:07:08Z</time>
      </trkpt>
      <trkpt lat="45.67844" lon="3.19823">
        <ele>371.4</ele>
        <time>2024-08-11T10:07:09Z</time>
      </trkpt>
      <trkpt lat="45.67852" lon="3.19814">
        <ele>370.8</ele>
        <time>2024-08-11T10:07:10Z</time>
      </trkpt>
      <trkpt lat="45.67859" lon="3.19804">
        <ele>370.4</ele>
        <time>2024-08-11T10:07:11Z</time>
      </trkpt>
      <trkpt lat="45.67867" lon="3.19793">
        <ele>370.4</ele>
        <time>2024-08-11T10:07:12Z</time>
      </trkpt>
      <trkpt lat="45.67873" lon="3.19783">
        <ele>370.2</ele>
        <time>2024-08-11T10:07:13Z</time>
      </trkpt>
      <trkpt lat="45.67879" lon="3.1977">
        <ele>370</ele>
        <time>2024-08-11T10:07:14Z</time>
      </trkpt>
      <trkpt lat="45.67884" lon="3.19758">
        <ele>369.8</ele>
        <time>2024-08-11T10:07:15Z</time>
      </trkpt>
      <trkpt lat="45.6789" lon="3.19746">
        <ele>369.6</ele>
        <time>2024-08-11T10:07:16Z</time>
      </trkpt>
      <trkpt lat="45.67895" lon="3.19734">
        <ele>369.4</ele>
        <time>2024-08-11T10:07:17Z</time>
      </trkpt>
      <trkpt lat="45.67901" lon="3.19721">
        <ele>369.2</ele>
        <time>2024-08-11T10:07:18Z</time>
      </trkpt>
      <trkpt lat="45.67907" lon="3.19708">
        <ele>369</ele>
        <time>2024-08-11T10:07:19Z</time>
      </trkpt>
      <trkpt lat="45.67913" lon="3.19695">
        <ele>368.8</ele>
        <time>2024-08-11T10:07:20Z</time>
      </trkpt>
      <trkpt lat="45.67918" lon="3.19682">
        <ele>368.6</ele>
        <time>2024-08-11T10:07:21Z</time>
      </trkpt>
      <trkpt lat="45.67924" lon="3.19669">
        <ele>368.4</ele>
        <time>2024-08-11T10:07:22Z</time>
      </trkpt>
      <trkpt lat="45.67929" lon="3.19655">
        <ele>368.2</ele>
        <time>2024-08-11T10:07:23Z</time>
      </trkpt>
      <trkpt lat="45.67935" lon="3.19642">
        <ele>368</ele>
        <time>2024-08-11T10:07:24Z</time>
      </trkpt>
      <trkpt lat="45.67941" lon="3.19629">
        <ele>367.8</ele>
        <time>2024-08-11T10:07:25Z</time>
      </trkpt>
      <trkpt lat="45.67946" lon="3.19616">
        <ele>367.6</ele>
        <time>2024-08-11T10:07:26Z</time>
      </trkpt>
      <trkpt lat="45.67951" lon="3.19604">
        <ele>367.4</ele>
        <time>2024-08-11T10:07:27Z</time>
      </trkpt>
      <trkpt lat="45.67957" lon="3.19591">
        <ele>367.2</ele>
        <time>2024-08-11T10:07:28Z</time>
      </trkpt>
      <trkpt lat="45.67962" lon="3.19578">
        <ele>367</ele>
        <time>2024-08-11T10:07:29Z</time>
      </trkpt>
      <trkpt lat="45.67966" lon="3.19564">
        <ele>366.8</ele>
        <time>2024-08-11T10:07:30Z</time>
      </trkpt>
      <trkpt lat="45.67971" lon="3.19551">
        <ele>366.6</ele>
        <time>2024-08-11T10:07:31Z</time>
      </trkpt>
      <trkpt lat="45.67976" lon="3.19538">
        <ele>366.4</ele>
        <time>2024-08-11T10:07:32Z</time>
      </trkpt>
      <trkpt lat="45.67981" lon="3.19525">
        <ele>366.2</ele>
        <time>2024-08-11T10:07:33Z</time>
      </trkpt>
      <trkpt lat="45.67986" lon="3.19511">
        <ele>366.2</ele>
        <time>2024-08-11T10:07:34Z</time>
      </trkpt>
      <trkpt lat="45.67991" lon="3.19498">
        <ele>366</ele>
        <time>2024-08-11T10:07:35Z</time>
      </trkpt>
      <trkpt lat="45.67996" lon="3.19485">
        <ele>365.8</ele>
        <time>2024-08-11T10:07:36Z</time>
      </trkpt>
      <trkpt lat="45.68" lon="3.19472">
        <ele>365.6</ele>
        <time>2024-08-11T10:07:37Z</time>
      </trkpt>
      <trkpt lat="45.68004" lon="3.19458">
        <ele>365.4</ele>
        <time>2024-08-11T10:07:38Z</time>
      </trkpt>
      <trkpt lat="45.68008" lon="3.19445">
        <ele>365.2</ele>
        <time>2024-08-11T10:07:39Z</time>
      </trkpt>
      <trkpt lat="45.68012" lon="3.19433">
        <ele>365.2</ele>
        <time>2024-08-11T10:07:40Z</time>
      </trkpt>
      <trkpt lat="45.68016" lon="3.19421">
        <ele>365</ele>
        <time>2024-08-11T10:07:41Z</time>
      </trkpt>
      <trkpt lat="45.68019" lon="3.19409">
        <ele>364.8</ele>
        <time>2024-08-11T10:07:42Z</time>
      </trkpt>
      <trkpt lat="45.68023" lon="3.19397">
        <ele>364.6</ele>
        <time>2024-08-11T10:07:43Z</time>
      </trkpt>
      <trkpt lat="45.68026" lon="3.19385">
        <ele>364.4</ele>
        <time>2024-08-11T10:07:44Z</time>
      </trkpt>
      <trkpt lat="45.68029" lon="3.19373">
        <ele>364.2</ele>
        <time>2024-08-11T10:07:45Z</time>
      </trkpt>
      <trkpt lat="45.68033" lon="3.19361">
        <ele>364.2</ele>
        <time>2024-08-11T10:07:46Z</time>
      </trkpt>
      <trkpt lat="45.68036" lon="3.1935">
        <ele>364</ele>
        <time>2024-08-11T10:07:47Z</time>
      </trkpt>
      <trkpt lat="45.68039" lon="3.19339">
        <ele>363.8</ele>
        <time>2024-08-11T10:07:48Z</time>
      </trkpt>
      <trkpt lat="45.68042" lon="3.19327">
        <ele>363.8</ele>
        <time>2024-08-11T10:07:49Z</time>
      </trkpt>
      <trkpt lat="45.68045" lon="3.19316">
        <ele>363.6</ele>
        <time>2024-08-11T10:07:50Z</time>
      </trkpt>
      <trkpt lat="45.68048" lon="3.19305">
        <ele>363.4</ele>
        <time>2024-08-11T10:07:51Z</time>
      </trkpt>
      <trkpt lat="45.68051" lon="3.19295">
        <ele>363.2</ele>
        <time>2024-08-11T10:07:52Z</time>
      </trkpt>
      <trkpt lat="45.68054" lon="3.19284">
        <ele>363</ele>
        <time>2024-08-11T10:07:53Z</time>
      </trkpt>
      <trkpt lat="45.68057" lon="3.19274">
        <ele>362.8</ele>
        <time>2024-08-11T10:07:54Z</time>
      </trkpt>
      <trkpt lat="45.6806" lon="3.19264">
        <ele>362.6</ele>
        <time>2024-08-11T10:07:55Z</time>
      </trkpt>
      <trkpt lat="45.68064" lon="3.19253">
        <ele>362.6</ele>
        <time>2024-08-11T10:07:56Z</time>
      </trkpt>
      <trkpt lat="45.68067" lon="3.19244">
        <ele>362.4</ele>
        <time>2024-08-11T10:07:57Z</time>
      </trkpt>
      <trkpt lat="45.68069" lon="3.19237">
        <ele>362.2</ele>
        <time>2024-08-11T10:07:58Z</time>
      </trkpt>
      <trkpt lat="45.68071" lon="3.1923">
        <ele>362</ele>
        <time>2024-08-11T10:07:59Z</time>
      </trkpt>
      <trkpt lat="45.68073" lon="3.19224">
        <ele>361.8</ele>
        <time>2024-08-11T10:08:00Z</time>
      </trkpt>
      <trkpt lat="45.68075" lon="3.19219">
        <ele>361.6</ele>
        <time>2024-08-11T10:08:01Z</time>
      </trkpt>
      <trkpt lat="45.68076" lon="3.19215">
        <ele>361.4</ele>
        <time>2024-08-11T10:08:02Z</time>
      </trkpt>
      <trkpt lat="45.68077" lon="3.19211">
        <ele>361.4</ele>
        <time>2024-08-11T10:08:03Z</time>
      </trkpt>
      <trkpt lat="45.68078" lon="3.19208">
        <ele>361.2</ele>
        <time>2024-08-11T10:08:04Z</time>
      </trkpt>
      <trkpt lat="45.68078" lon="3.19208">
        <ele>361</ele>
        <time>2024-08-11T10:08:05Z</time>
      </trkpt>
      <trkpt lat="45.6808" lon="3.19204">
        <ele>358.6</ele>
        <time>2024-08-11T10:08:29Z</time>
      </trkpt>
      <trkpt lat="45.68081" lon="3.19201">
        <ele>358.6</ele>
        <time>2024-08-11T10:08:30Z</time>
      </trkpt>
      <trkpt lat="45.68082" lon="3.19198">
        <ele>358.6</ele>
        <time>2024-08-11T10:08:31Z</time>
      </trkpt>
      <trkpt lat="45.68083" lon="3.19193">
        <ele>358.4</ele>
        <time>2024-08-11T10:08:32Z</time>
      </trkpt>
      <trkpt lat="45.68084" lon="3.19188">
        <ele>358.4</ele>
        <time>2024-08-11T10:08:33Z</time>
      </trkpt>
      <trkpt lat="45.68086" lon="3.19181">
        <ele>358.4</ele>
        <time>2024-08-11T10:08:34Z</time>
      </trkpt>
      <trkpt lat="45.68088" lon="3.19175">
        <ele>358.4</ele>
        <time>2024-08-11T10:08:35Z</time>
      </trkpt>
      <trkpt lat="45.6809" lon="3.19168">
        <ele>358.4</ele>
        <time>2024-08-11T10:08:36Z</time>
      </trkpt>
      <trkpt lat="45.68091" lon="3.1916">
        <ele>358.4</ele>
        <time>2024-08-11T10:08:37Z</time>
      </trkpt>
      <trkpt lat="45.68093" lon="3.19152">
        <ele>358.2</ele>
        <time>2024-08-11T10:08:38Z</time>
      </trkpt>
      <trkpt lat="45.68096" lon="3.19144">
        <ele>358.2</ele>
        <time>2024-08-11T10:08:39Z</time>
      </trkpt>
      <trkpt lat="45.68098" lon="3.19135">
        <ele>358</ele>
        <time>2024-08-11T10:08:40Z</time>
      </trkpt>
      <trkpt lat="45.681" lon="3.19127">
        <ele>358</ele>
        <time>2024-08-11T10:08:41Z</time>
      </trkpt>
      <trkpt lat="45.68102" lon="3.19118">
        <ele>357.8</ele>
        <time>2024-08-11T10:08:42Z</time>
      </trkpt>
      <trkpt lat="45.68105" lon="3.1911">
        <ele>357.8</ele>
        <time>2024-08-11T10:08:43Z</time>
      </trkpt>
      <trkpt lat="45.68107" lon="3.19102">
        <ele>357.6</ele>
        <time>2024-08-11T10:08:44Z</time>
      </trkpt>
      <trkpt lat="45.68109" lon="3.19093">
        <ele>357.4</ele>
        <time>2024-08-11T10:08:45Z</time>
      </trkpt>
      <trkpt lat="45.68111" lon="3.19084">
        <ele>357.4</ele>
        <time>2024-08-11T10:08:46Z</time>
      </trkpt>
      <trkpt lat="45.68113" lon="3.19075">
        <ele>357.2</ele>
        <time>2024-08-11T10:08:47Z</time>
      </trkpt>
      <trkpt lat="45.68115" lon="3.19066">
        <ele>357.2</ele>
        <time>2024-08-11T10:08:48Z</time>
      </trkpt>
      <trkpt lat="45.68117" lon="3.19058">
        <ele>357</ele>
        <time>2024-08-11T10:08:49Z</time>
      </trkpt>
      <trkpt lat="45.68119" lon="3.19048">
        <ele>356.8</ele>
        <time>2024-08-11T10:08:50Z</time>
      </trkpt>
      <trkpt lat="45.68121" lon="3.1904">
        <ele>356.8</ele>
        <time>2024-08-11T10:08:51Z</time>
      </trkpt>
      <trkpt lat="45.68124" lon="3.19031">
        <ele>356.6</ele>
        <time>2024-08-11T10:08:52Z</time>
      </trkpt>
      <trkpt lat="45.68126" lon="3.19022">
        <ele>356.6</ele>
        <time>2024-08-11T10:08:53Z</time>
      </trkpt>
      <trkpt lat="45.68129" lon="3.19014">
        <ele>356.4</ele>
        <time>2024-08-11T10:08:54Z</time>
      </trkpt>
      <trkpt lat="45.68131" lon="3.19005">
        <ele>356.4</ele>
        <time>2024-08-11T10:08:55Z</time>
      </trkpt>
      <trkpt lat="45.68133" lon="3.18997">
        <ele>356.2</ele>
        <time>2024-08-11T10:08:56Z</time>
      </trkpt>
      <trkpt lat="45.68136" lon="3.18988">
        <ele>356.2</ele>
        <time>2024-08-11T10:08:57Z</time>
      </trkpt>
      <trkpt lat="45.68138" lon="3.1898">
        <ele>356.2</ele>
        <time>2024-08-11T10:08:58Z</time>
      </trkpt>
      <trkpt lat="45.6814" lon="3.18972">
        <ele>356</ele>
        <time>2024-08-11T10:08:59Z</time>
      </trkpt>
      <trkpt lat="45.68143" lon="3.18963">
        <ele>356</ele>
        <time>2024-08-11T10:09:00Z</time>
      </trkpt>
      <trkpt lat="45.68145" lon="3.18954">
        <ele>355.8</ele>
        <time>2024-08-11T10:09:01Z</time>
      </trkpt>
      <trkpt lat="45.68148" lon="3.18946">
        <ele>355.6</ele>
        <time>2024-08-11T10:09:02Z</time>
      </trkpt>
      <trkpt lat="45.6815" lon="3.18937">
        <ele>355.6</ele>
        <time>2024-08-11T10:09:03Z</time>
      </trkpt>
      <trkpt lat="45.68152" lon="3.18928">
        <ele>355.6</ele>
        <time>2024-08-11T10:09:04Z</time>
      </trkpt>
      <trkpt lat="45.68155" lon="3.1892">
        <ele>355.4</ele>
        <time>2024-08-11T10:09:05Z</time>
      </trkpt>
      <trkpt lat="45.68157" lon="3.18911">
        <ele>355.4</ele>
        <time>2024-08-11T10:09:06Z</time>
      </trkpt>
      <trkpt lat="45.6816" lon="3.18902">
        <ele>355.2</ele>
        <time>2024-08-11T10:09:07Z</time>
      </trkpt>
      <trkpt lat="45.68162" lon="3.18893">
        <ele>355</ele>
        <time>2024-08-11T10:09:08Z</time>
      </trkpt>
      <trkpt lat="45.68165" lon="3.18884">
        <ele>355</ele>
        <time>2024-08-11T10:09:09Z</time>
      </trkpt>
      <trkpt lat="45.68168" lon="3.18876">
        <ele>354.8</ele>
        <time>2024-08-11T10:09:10Z</time>
      </trkpt>
      <trkpt lat="45.68171" lon="3.18867">
        <ele>354.8</ele>
        <time>2024-08-11T10:09:11Z</time>
      </trkpt>
      <trkpt lat="45.68175" lon="3.18859">
        <ele>354.6</ele>
        <time>2024-08-11T10:09:12Z</time>
      </trkpt>
      <trkpt lat="45.68178" lon="3.18851">
        <ele>354.6</ele>
        <time>2024-08-11T10:09:13Z</time>
      </trkpt>
      <trkpt lat="45.68181" lon="3.18842">
        <ele>354.4</ele>
        <time>2024-08-11T10:09:14Z</time>
      </trkpt>
      <trkpt lat="45.68184" lon="3.18834">
        <ele>354.2</ele>
        <time>2024-08-11T10:09:15Z</time>
      </trkpt>
      <trkpt lat="45.68188" lon="3.18826">
        <ele>354.2</ele>
        <time>2024-08-11T10:09:16Z</time>
      </trkpt>
      <trkpt lat="45.68191" lon="3.18818">
        <ele>354</ele>
        <time>2024-08-11T10:09:17Z</time>
      </trkpt>
      <trkpt lat="45.68194" lon="3.1881">
        <ele>354</ele>
        <time>2024-08-11T10:09:18Z</time>
      </trkpt>
      <trkpt lat="45.68197" lon="3.18802">
        <ele>353.8</ele>
        <time>2024-08-11T10:09:19Z</time>
      </trkpt>
      <trkpt lat="45.682" lon="3.18794">
        <ele>353.8</ele>
        <time>2024-08-11T10:09:20Z</time>
      </trkpt>
      <trkpt lat="45.68203" lon="3.18786">
        <ele>353.6</ele>
        <time>2024-08-11T10:09:21Z</time>
      </trkpt>
      <trkpt lat="45.68206" lon="3.18778">
        <ele>353.4</ele>
        <time>2024-08-11T10:09:22Z</time>
      </trkpt>
      <trkpt lat="45.68209" lon="3.1877">
        <ele>353.4</ele>
        <time>2024-08-11T10:09:23Z</time>
      </trkpt>
      <trkpt lat="45.68212" lon="3.18762">
        <ele>353.4</ele>
        <time>2024-08-11T10:09:24Z</time>
      </trkpt>
      <trkpt lat="45.68215" lon="3.18754">
        <ele>353.2</ele>
        <time>2024-08-11T10:09:25Z</time>
      </trkpt>
      <trkpt lat="45.68218" lon="3.18747">
        <ele>353.2</ele>
        <time>2024-08-11T10:09:26Z</time>
      </trkpt>
      <trkpt lat="45.68221" lon="3.18739">
        <ele>353</ele>
        <time>2024-08-11T10:09:27Z</time>
      </trkpt>
      <trkpt lat="45.68225" lon="3.18731">
        <ele>353</ele>
        <time>2024-08-11T10:09:28Z</time>
      </trkpt>
      <trkpt lat="45.68228" lon="3.18723">
        <ele>353</ele>
        <time>2024-08-11T10:09:29Z</time>
      </trkpt>
      <trkpt lat="45.68231" lon="3.18715">
        <ele>352.8</ele>
        <time>2024-08-11T10:09:30Z</time>
      </trkpt>
      <trkpt lat="45.68234" lon="3.18707">
        <ele>352.8</ele>
        <time>2024-08-11T10:09:31Z</time>
      </trkpt>
      <trkpt lat="45.68237" lon="3.18699">
        <ele>352.6</ele>
        <time>2024-08-11T10:09:32Z</time>
      </trkpt>
      <trkpt lat="45.68241" lon="3.18692">
        <ele>352.6</ele>
        <time>2024-08-11T10:09:33Z</time>
      </trkpt>
      <trkpt lat="45.68244" lon="3.18684">
        <ele>352.6</ele>
        <time>2024-08-11T10:09:34Z</time>
      </trkpt>
      <trkpt lat="45.68248" lon="3.18677">
        <ele>352.4</ele>
        <time>2024-08-11T10:09:35Z</time>
      </trkpt>
      <trkpt lat="45.68251" lon="3.18669">
        <ele>352.4</ele>
        <time>2024-08-11T10:09:36Z</time>
      </trkpt>
      <trkpt lat="45.68254" lon="3.18662">
        <ele>352.4</ele>
        <time>2024-08-11T10:09:37Z</time>
      </trkpt>
      <trkpt lat="45.68257" lon="3.18655">
        <ele>352.4</ele>
        <time>2024-08-11T10:09:38Z</time>
      </trkpt>
      <trkpt lat="45.68259" lon="3.18648">
        <ele>352.4</ele>
        <time>2024-08-11T10:09:39Z</time>
      </trkpt>
      <trkpt lat="45.68261" lon="3.1864">
        <ele>352.4</ele>
        <time>2024-08-11T10:09:40Z</time>
      </trkpt>
      <trkpt lat="45.68262" lon="3.18632">
        <ele>352.2</ele>
        <time>2024-08-11T10:09:41Z</time>
      </trkpt>
      <trkpt lat="45.68263" lon="3.18625">
        <ele>352.2</ele>
        <time>2024-08-11T10:09:42Z</time>
      </trkpt>
      <trkpt lat="45.68263" lon="3.18618">
        <ele>352.2</ele>
        <time>2024-08-11T10:09:43Z</time>
      </trkpt>
      <trkpt lat="45.68264" lon="3.18611">
        <ele>352.2</ele>
        <time>2024-08-11T10:09:44Z</time>
      </trkpt>
      <trkpt lat="45.68265" lon="3.18603">
        <ele>352.2</ele>
        <time>2024-08-11T10:09:45Z</time>
      </trkpt>
      <trkpt lat="45.68265" lon="3.18596">
        <ele>352.2</ele>
        <time>2024-08-11T10:09:46Z</time>
      </trkpt>
      <trkpt lat="45.68265" lon="3.18588">
        <ele>352.2</ele>
        <time>2024-08-11T10:09:47Z</time>
      </trkpt>
      <trkpt lat="45.68265" lon="3.18581">
        <ele>352.2</ele>
        <time>2024-08-11T10:09:48Z</time>
      </trkpt>
      <trkpt lat="45.68264" lon="3.18573">
        <ele>352.2</ele>
        <time>2024-08-11T10:09:49Z</time>
      </trkpt>
      <trkpt lat="45.68264" lon="3.18565">
        <ele>352.2</ele>
        <time>2024-08-11T10:09:50Z</time>
      </trkpt>
      <trkpt lat="45.68263" lon="3.18558">
        <ele>352.2</ele>
        <time>2024-08-11T10:09:51Z</time>
      </trkpt>
      <trkpt lat="45.68263" lon="3.1855">
        <ele>352.2</ele>
        <time>2024-08-11T10:09:52Z</time>
      </trkpt>
      <trkpt lat="45.68262" lon="3.18542">
        <ele>352.2</ele>
        <time>2024-08-11T10:09:53Z</time>
      </trkpt>
      <trkpt lat="45.68262" lon="3.18534">
        <ele>352.2</ele>
        <time>2024-08-11T10:09:54Z</time>
      </trkpt>
      <trkpt lat="45.68261" lon="3.18527">
        <ele>352.2</ele>
        <time>2024-08-11T10:09:55Z</time>
      </trkpt>
      <trkpt lat="45.68261" lon="3.18518">
        <ele>352.2</ele>
        <time>2024-08-11T10:09:56Z</time>
      </trkpt>
      <trkpt lat="45.68261" lon="3.18511">
        <ele>352.2</ele>
        <time>2024-08-11T10:09:57Z</time>
      </trkpt>
      <trkpt lat="45.6826" lon="3.18503">
        <ele>352.2</ele>
        <time>2024-08-11T10:09:58Z</time>
      </trkpt>
      <trkpt lat="45.6826" lon="3.18496">
        <ele>352.2</ele>
        <time>2024-08-11T10:09:59Z</time>
      </trkpt>
      <trkpt lat="45.68259" lon="3.18488">
        <ele>352</ele>
        <time>2024-08-11T10:10:00Z</time>
      </trkpt>
      <trkpt lat="45.68259" lon="3.1848">
        <ele>352.2</ele>
        <time>2024-08-11T10:10:01Z</time>
      </trkpt>
      <trkpt lat="45.68258" lon="3.18473">
        <ele>352.2</ele>
        <time>2024-08-11T10:10:02Z</time>
      </trkpt>
      <trkpt lat="45.68258" lon="3.18466">
        <ele>352.6</ele>
        <time>2024-08-11T10:10:03Z</time>
      </trkpt>
      <trkpt lat="45.68258" lon="3.18459">
        <ele>352.4</ele>
        <time>2024-08-11T10:10:04Z</time>
      </trkpt>
      <trkpt lat="45.68257" lon="3.18452">
        <ele>352.4</ele>
        <time>2024-08-11T10:10:05Z</time>
      </trkpt>
      <trkpt lat="45.68257" lon="3.18445">
        <ele>352.6</ele>
        <time>2024-08-11T10:10:06Z</time>
      </trkpt>
      <trkpt lat="45.68258" lon="3.18437">
        <ele>352.6</ele>
        <time>2024-08-11T10:10:07Z</time>
      </trkpt>
      <trkpt lat="45.6826" lon="3.18431">
        <ele>352.6</ele>
        <time>2024-08-11T10:10:08Z</time>
      </trkpt>
      <trkpt lat="45.68261" lon="3.18424">
        <ele>352.6</ele>
        <time>2024-08-11T10:10:09Z</time>
      </trkpt>
      <trkpt lat="45.68262" lon="3.18418">
        <ele>352.8</ele>
        <time>2024-08-11T10:10:10Z</time>
      </trkpt>
      <trkpt lat="45.68264" lon="3.18413">
        <ele>352.8</ele>
        <time>2024-08-11T10:10:11Z</time>
      </trkpt>
      <trkpt lat="45.68265" lon="3.18407">
        <ele>352.8</ele>
        <time>2024-08-11T10:10:12Z</time>
      </trkpt>
      <trkpt lat="45.68266" lon="3.18402">
        <ele>353</ele>
        <time>2024-08-11T10:10:13Z</time>
      </trkpt>
      <trkpt lat="45.68267" lon="3.18397">
        <ele>353</ele>
        <time>2024-08-11T10:10:14Z</time>
      </trkpt>
      <trkpt lat="45.68268" lon="3.18392">
        <ele>353.2</ele>
        <time>2024-08-11T10:10:15Z</time>
      </trkpt>
      <trkpt lat="45.68269" lon="3.18387">
        <ele>353.2</ele>
        <time>2024-08-11T10:10:16Z</time>
      </trkpt>
      <trkpt lat="45.6827" lon="3.18382">
        <ele>353.4</ele>
        <time>2024-08-11T10:10:17Z</time>
      </trkpt>
      <trkpt lat="45.68272" lon="3.18378">
        <ele>353.4</ele>
        <time>2024-08-11T10:10:18Z</time>
      </trkpt>
      <trkpt lat="45.68273" lon="3.18373">
        <ele>353.4</ele>
        <time>2024-08-11T10:10:19Z</time>
      </trkpt>
      <trkpt lat="45.68274" lon="3.18369">
        <ele>353.6</ele>
        <time>2024-08-11T10:10:20Z</time>
      </trkpt>
      <trkpt lat="45.68275" lon="3.18365">
        <ele>353.6</ele>
        <time>2024-08-11T10:10:21Z</time>
      </trkpt>
      <trkpt lat="45.68276" lon="3.18361">
        <ele>353.8</ele>
        <time>2024-08-11T10:10:22Z</time>
      </trkpt>
      <trkpt lat="45.68277" lon="3.18357">
        <ele>354</ele>
        <time>2024-08-11T10:10:23Z</time>
      </trkpt>
      <trkpt lat="45.68278" lon="3.18353">
        <ele>354</ele>
        <time>2024-08-11T10:10:24Z</time>
      </trkpt>
      <trkpt lat="45.68279" lon="3.18348">
        <ele>354.2</ele>
        <time>2024-08-11T10:10:25Z</time>
      </trkpt>
      <trkpt lat="45.6828" lon="3.18344">
        <ele>354.2</ele>
        <time>2024-08-11T10:10:26Z</time>
      </trkpt>
      <trkpt lat="45.68282" lon="3.18339">
        <ele>354.4</ele>
        <time>2024-08-11T10:10:27Z</time>
      </trkpt>
      <trkpt lat="45.68283" lon="3.18335">
        <ele>354.4</ele>
        <time>2024-08-11T10:10:28Z</time>
      </trkpt>
      <trkpt lat="45.68284" lon="3.18331">
        <ele>354.4</ele>
        <time>2024-08-11T10:10:29Z</time>
      </trkpt>
      <trkpt lat="45.68285" lon="3.18327">
        <ele>354.6</ele>
        <time>2024-08-11T10:10:30Z</time>
      </trkpt>
      <trkpt lat="45.68286" lon="3.18323">
        <ele>354.8</ele>
        <time>2024-08-11T10:10:31Z</time>
      </trkpt>
      <trkpt lat="45.68287" lon="3.1832">
        <ele>354.8</ele>
        <time>2024-08-11T10:10:32Z</time>
      </trkpt>
      <trkpt lat="45.68288" lon="3.18316">
        <ele>355</ele>
        <time>2024-08-11T10:10:33Z</time>
      </trkpt>
      <trkpt lat="45.68289" lon="3.18312">
        <ele>355</ele>
        <time>2024-08-11T10:10:34Z</time>
      </trkpt>
      <trkpt lat="45.6829" lon="3.18307">
        <ele>355.2</ele>
        <time>2024-08-11T10:10:35Z</time>
      </trkpt>
      <trkpt lat="45.68291" lon="3.18303">
        <ele>355.2</ele>
        <time>2024-08-11T10:10:36Z</time>
      </trkpt>
      <trkpt lat="45.68292" lon="3.18299">
        <ele>355.4</ele>
        <time>2024-08-11T10:10:37Z</time>
      </trkpt>
      <trkpt lat="45.68293" lon="3.18295">
        <ele>355.4</ele>
        <time>2024-08-11T10:10:38Z</time>
      </trkpt>
      <trkpt lat="45.68294" lon="3.18291">
        <ele>355.6</ele>
        <time>2024-08-11T10:10:39Z</time>
      </trkpt>
      <trkpt lat="45.68295" lon="3.18286">
        <ele>355.6</ele>
        <time>2024-08-11T10:10:40Z</time>
      </trkpt>
      <trkpt lat="45.68296" lon="3.18282">
        <ele>355.8</ele>
        <time>2024-08-11T10:10:41Z</time>
      </trkpt>
      <trkpt lat="45.68298" lon="3.18278">
        <ele>356</ele>
        <time>2024-08-11T10:10:42Z</time>
      </trkpt>
      <trkpt lat="45.68298" lon="3.18274">
        <ele>356</ele>
        <time>2024-08-11T10:10:43Z</time>
      </trkpt>
      <trkpt lat="45.68299" lon="3.18271">
        <ele>356.2</ele>
        <time>2024-08-11T10:10:44Z</time>
      </trkpt>
      <trkpt lat="45.683" lon="3.18267">
        <ele>356.4</ele>
        <time>2024-08-11T10:10:45Z</time>
      </trkpt>
      <trkpt lat="45.68301" lon="3.18264">
        <ele>356.4</ele>
        <time>2024-08-11T10:10:46Z</time>
      </trkpt>
      <trkpt lat="45.68302" lon="3.18261">
        <ele>356.6</ele>
        <time>2024-08-11T10:10:47Z</time>
      </trkpt>
      <trkpt lat="45.68303" lon="3.18257">
        <ele>356.6</ele>
        <time>2024-08-11T10:10:48Z</time>
      </trkpt>
      <trkpt lat="45.68304" lon="3.18254">
        <ele>356.8</ele>
        <time>2024-08-11T10:10:49Z</time>
      </trkpt>
      <trkpt lat="45.68305" lon="3.18251">
        <ele>356.8</ele>
        <time>2024-08-11T10:10:50Z</time>
      </trkpt>
      <trkpt lat="45.68306" lon="3.18247">
        <ele>357</ele>
        <time>2024-08-11T10:10:51Z</time>
      </trkpt>
      <trkpt lat="45.68306" lon="3.18244">
        <ele>357.2</ele>
        <time>2024-08-11T10:10:52Z</time>
      </trkpt>
      <trkpt lat="45.68307" lon="3.1824">
        <ele>357.4</ele>
        <time>2024-08-11T10:10:53Z</time>
      </trkpt>
      <trkpt lat="45.68308" lon="3.18237">
        <ele>357.4</ele>
        <time>2024-08-11T10:10:54Z</time>
      </trkpt>
      <trkpt lat="45.68309" lon="3.18234">
        <ele>357.6</ele>
        <time>2024-08-11T10:10:55Z</time>
      </trkpt>
      <trkpt lat="45.6831" lon="3.18231">
        <ele>357.6</ele>
        <time>2024-08-11T10:10:56Z</time>
      </trkpt>
      <trkpt lat="45.6831" lon="3.18228">
        <ele>357.8</ele>
        <time>2024-08-11T10:10:57Z</time>
      </trkpt>
      <trkpt lat="45.68311" lon="3.18225">
        <ele>358</ele>
        <time>2024-08-11T10:10:58Z</time>
      </trkpt>
      <trkpt lat="45.68312" lon="3.18222">
        <ele>358.2</ele>
        <time>2024-08-11T10:10:59Z</time>
      </trkpt>
      <trkpt lat="45.68313" lon="3.18219">
        <ele>358.4</ele>
        <time>2024-08-11T10:11:00Z</time>
      </trkpt>
      <trkpt lat="45.68314" lon="3.18216">
        <ele>358.4</ele>
        <time>2024-08-11T10:11:01Z</time>
      </trkpt>
      <trkpt lat="45.68314" lon="3.18213">
        <ele>358.6</ele>
        <time>2024-08-11T10:11:02Z</time>
      </trkpt>
      <trkpt lat="45.68315" lon="3.1821">
        <ele>358.8</ele>
        <time>2024-08-11T10:11:03Z</time>
      </trkpt>
      <trkpt lat="45.68316" lon="3.18207">
        <ele>359</ele>
        <time>2024-08-11T10:11:04Z</time>
      </trkpt>
      <trkpt lat="45.68317" lon="3.18204">
        <ele>359.2</ele>
        <time>2024-08-11T10:11:05Z</time>
      </trkpt>
      <trkpt lat="45.68318" lon="3.182">
        <ele>359.2</ele>
        <time>2024-08-11T10:11:06Z</time>
      </trkpt>
      <trkpt lat="45.68318" lon="3.18197">
        <ele>359.4</ele>
        <time>2024-08-11T10:11:07Z</time>
      </trkpt>
      <trkpt lat="45.68319" lon="3.18194">
        <ele>359.6</ele>
        <time>2024-08-11T10:11:08Z</time>
      </trkpt>
      <trkpt lat="45.6832" lon="3.18191">
        <ele>359.6</ele>
        <time>2024-08-11T10:11:09Z</time>
      </trkpt>
      <trkpt lat="45.68321" lon="3.18188">
        <ele>359.8</ele>
        <time>2024-08-11T10:11:10Z</time>
      </trkpt>
      <trkpt lat="45.68322" lon="3.18185">
        <ele>360</ele>
        <time>2024-08-11T10:11:11Z</time>
      </trkpt>
      <trkpt lat="45.68322" lon="3.18182">
        <ele>360.2</ele>
        <time>2024-08-11T10:11:12Z</time>
      </trkpt>
      <trkpt lat="45.68323" lon="3.1818">
        <ele>360.4</ele>
        <time>2024-08-11T10:11:13Z</time>
      </trkpt>
      <trkpt lat="45.68324" lon="3.18177">
        <ele>360.4</ele>
        <time>2024-08-11T10:11:14Z</time>
      </trkpt>
      <trkpt lat="45.68324" lon="3.18174">
        <ele>360.6</ele>
        <time>2024-08-11T10:11:15Z</time>
      </trkpt>
      <trkpt lat="45.68325" lon="3.18171">
        <ele>360.8</ele>
        <time>2024-08-11T10:11:16Z</time>
      </trkpt>
      <trkpt lat="45.68326" lon="3.18168">
        <ele>360.8</ele>
        <time>2024-08-11T10:11:17Z</time>
      </trkpt>
      <trkpt lat="45.68327" lon="3.18165">
        <ele>361</ele>
        <time>2024-08-11T10:11:18Z</time>
      </trkpt>
      <trkpt lat="45.68328" lon="3.18162">
        <ele>361.2</ele>
        <time>2024-08-11T10:11:19Z</time>
      </trkpt>
      <trkpt lat="45.68328" lon="3.18159">
        <ele>361.2</ele>
        <time>2024-08-11T10:11:20Z</time>
      </trkpt>
      <trkpt lat="45.68329" lon="3.18157">
        <ele>361.4</ele>
        <time>2024-08-11T10:11:21Z</time>
      </trkpt>
      <trkpt lat="45.6833" lon="3.18154">
        <ele>361.4</ele>
        <time>2024-08-11T10:11:22Z</time>
      </trkpt>
      <trkpt lat="45.6833" lon="3.18151">
        <ele>361.6</ele>
        <time>2024-08-11T10:11:23Z</time>
      </trkpt>
      <trkpt lat="45.68331" lon="3.18148">
        <ele>361.6</ele>
        <time>2024-08-11T10:11:24Z</time>
      </trkpt>
      <trkpt lat="45.68332" lon="3.18146">
        <ele>361.8</ele>
        <time>2024-08-11T10:11:25Z</time>
      </trkpt>
      <trkpt lat="45.68333" lon="3.18143">
        <ele>362</ele>
        <time>2024-08-11T10:11:26Z</time>
      </trkpt>
      <trkpt lat="45.68333" lon="3.1814">
        <ele>362.2</ele>
        <time>2024-08-11T10:11:27Z</time>
      </trkpt>
      <trkpt lat="45.68334" lon="3.18137">
        <ele>362.2</ele>
        <time>2024-08-11T10:11:28Z</time>
      </trkpt>
      <trkpt lat="45.68335" lon="3.18135">
        <ele>362.4</ele>
        <time>2024-08-11T10:11:29Z</time>
      </trkpt>
      <trkpt lat="45.68335" lon="3.18132">
        <ele>362.6</ele>
        <time>2024-08-11T10:11:30Z</time>
      </trkpt>
      <trkpt lat="45.68336" lon="3.1813">
        <ele>362.8</ele>
        <time>2024-08-11T10:11:31Z</time>
      </trkpt>
      <trkpt lat="45.68337" lon="3.18127">
        <ele>363</ele>
        <time>2024-08-11T10:11:32Z</time>
      </trkpt>
      <trkpt lat="45.68337" lon="3.18124">
        <ele>363.2</ele>
        <time>2024-08-11T10:11:33Z</time>
      </trkpt>
      <trkpt lat="45.68338" lon="3.18121">
        <ele>363.4</ele>
        <time>2024-08-11T10:11:34Z</time>
      </trkpt>
      <trkpt lat="45.68339" lon="3.18118">
        <ele>363.6</ele>
        <time>2024-08-11T10:11:35Z</time>
      </trkpt>
      <trkpt lat="45.6834" lon="3.18116">
        <ele>363.8</ele>
        <time>2024-08-11T10:11:36Z</time>
      </trkpt>
      <trkpt lat="45.6834" lon="3.18113">
        <ele>364</ele>
        <time>2024-08-11T10:11:37Z</time>
      </trkpt>
      <trkpt lat="45.68341" lon="3.1811">
        <ele>364</ele>
        <time>2024-08-11T10:11:38Z</time>
      </trkpt>
      <trkpt lat="45.68342" lon="3.18108">
        <ele>364.2</ele>
        <time>2024-08-11T10:11:39Z</time>
      </trkpt>
      <trkpt lat="45.68342" lon="3.18105">
        <ele>364.4</ele>
        <time>2024-08-11T10:11:40Z</time>
      </trkpt>
      <trkpt lat="45.68343" lon="3.18102">
        <ele>364.6</ele>
        <time>2024-08-11T10:11:41Z</time>
      </trkpt>
      <trkpt lat="45.68344" lon="3.181">
        <ele>364.6</ele>
        <time>2024-08-11T10:11:42Z</time>
      </trkpt>
      <trkpt lat="45.68344" lon="3.18097">
        <ele>364.8</ele>
        <time>2024-08-11T10:11:43Z</time>
      </trkpt>
      <trkpt lat="45.68345" lon="3.18095">
        <ele>365</ele>
        <time>2024-08-11T10:11:44Z</time>
      </trkpt>
      <trkpt lat="45.68346" lon="3.18092">
        <ele>365.2</ele>
        <time>2024-08-11T10:11:45Z</time>
      </trkpt>
      <trkpt lat="45.68346" lon="3.18089">
        <ele>365.2</ele>
        <time>2024-08-11T10:11:46Z</time>
      </trkpt>
      <trkpt lat="45.68347" lon="3.18087">
        <ele>365.4</ele>
        <time>2024-08-11T10:11:47Z</time>
      </trkpt>
      <trkpt lat="45.68348" lon="3.18084">
        <ele>365.6</ele>
        <time>2024-08-11T10:11:48Z</time>
      </trkpt>
      <trkpt lat="45.68349" lon="3.18081">
        <ele>365.8</ele>
        <time>2024-08-11T10:11:49Z</time>
      </trkpt>
      <trkpt lat="45.68349" lon="3.18078">
        <ele>366</ele>
        <time>2024-08-11T10:11:50Z</time>
      </trkpt>
      <trkpt lat="45.6835" lon="3.18076">
        <ele>366.2</ele>
        <time>2024-08-11T10:11:51Z</time>
      </trkpt>
      <trkpt lat="45.68351" lon="3.18073">
        <ele>366.2</ele>
        <time>2024-08-11T10:11:52Z</time>
      </trkpt>
      <trkpt lat="45.68351" lon="3.1807">
        <ele>366.4</ele>
        <time>2024-08-11T10:11:53Z</time>
      </trkpt>
      <trkpt lat="45.68352" lon="3.18067">
        <ele>366.6</ele>
        <time>2024-08-11T10:11:54Z</time>
      </trkpt>
      <trkpt lat="45.68353" lon="3.18065">
        <ele>366.8</ele>
        <time>2024-08-11T10:11:55Z</time>
      </trkpt>
      <trkpt lat="45.68354" lon="3.18062">
        <ele>367</ele>
        <time>2024-08-11T10:11:56Z</time>
      </trkpt>
      <trkpt lat="45.68354" lon="3.18059">
        <ele>367</ele>
        <time>2024-08-11T10:11:57Z</time>
      </trkpt>
      <trkpt lat="45.68355" lon="3.18057">
        <ele>367.2</ele>
        <time>2024-08-11T10:11:58Z</time>
      </trkpt>
      <trkpt lat="45.68355" lon="3.18054">
        <ele>367.4</ele>
        <time>2024-08-11T10:11:59Z</time>
      </trkpt>
      <trkpt lat="45.68356" lon="3.18052">
        <ele>367.6</ele>
        <time>2024-08-11T10:12:00Z</time>
      </trkpt>
      <trkpt lat="45.68357" lon="3.18049">
        <ele>367.6</ele>
        <time>2024-08-11T10:12:01Z</time>
      </trkpt>
      <trkpt lat="45.68358" lon="3.18046">
        <ele>367.8</ele>
        <time>2024-08-11T10:12:02Z</time>
      </trkpt>
      <trkpt lat="45.68358" lon="3.18044">
        <ele>368</ele>
        <time>2024-08-11T10:12:03Z</time>
      </trkpt>
      <trkpt lat="45.68359" lon="3.18041">
        <ele>368.2</ele>
        <time>2024-08-11T10:12:04Z</time>
      </trkpt>
      <trkpt lat="45.6836" lon="3.18038">
        <ele>368.4</ele>
        <time>2024-08-11T10:12:05Z</time>
      </trkpt>
      <trkpt lat="45.6836" lon="3.18036">
        <ele>368.6</ele>
        <time>2024-08-11T10:12:06Z</time>
      </trkpt>
      <trkpt lat="45.68361" lon="3.18033">
        <ele>368.8</ele>
        <time>2024-08-11T10:12:07Z</time>
      </trkpt>
      <trkpt lat="45.68362" lon="3.18031">
        <ele>368.8</ele>
        <time>2024-08-11T10:12:08Z</time>
      </trkpt>
      <trkpt lat="45.68362" lon="3.18028">
        <ele>369</ele>
        <time>2024-08-11T10:12:09Z</time>
      </trkpt>
      <trkpt lat="45.68363" lon="3.18026">
        <ele>369.2</ele>
        <time>2024-08-11T10:12:10Z</time>
      </trkpt>
      <trkpt lat="45.68364" lon="3.18023">
        <ele>369.4</ele>
        <time>2024-08-11T10:12:11Z</time>
      </trkpt>
      <trkpt lat="45.68364" lon="3.1802">
        <ele>369.4</ele>
        <time>2024-08-11T10:12:12Z</time>
      </trkpt>
      <trkpt lat="45.68365" lon="3.18017">
        <ele>369.6</ele>
        <time>2024-08-11T10:12:13Z</time>
      </trkpt>
      <trkpt lat="45.68366" lon="3.18015">
        <ele>369.8</ele>
        <time>2024-08-11T10:12:14Z</time>
      </trkpt>
      <trkpt lat="45.68367" lon="3.18012">
        <ele>370</ele>
        <time>2024-08-11T10:12:15Z</time>
      </trkpt>
      <trkpt lat="45.68367" lon="3.18009">
        <ele>370.2</ele>
        <time>2024-08-11T10:12:16Z</time>
      </trkpt>
      <trkpt lat="45.68368" lon="3.18006">
        <ele>370.4</ele>
        <time>2024-08-11T10:12:17Z</time>
      </trkpt>
      <trkpt lat="45.68369" lon="3.18003">
        <ele>370.6</ele>
        <time>2024-08-11T10:12:18Z</time>
      </trkpt>
      <trkpt lat="45.6837" lon="3.18">
        <ele>370.6</ele>
        <time>2024-08-11T10:12:19Z</time>
      </trkpt>
      <trkpt lat="45.6837" lon="3.17997">
        <ele>370.8</ele>
        <time>2024-08-11T10:12:20Z</time>
      </trkpt>
      <trkpt lat="45.68371" lon="3.17994">
        <ele>371</ele>
        <time>2024-08-11T10:12:21Z</time>
      </trkpt>
      <trkpt lat="45.68372" lon="3.17991">
        <ele>371.2</ele>
        <time>2024-08-11T10:12:22Z</time>
      </trkpt>
      <trkpt lat="45.68373" lon="3.17988">
        <ele>371.4</ele>
        <time>2024-08-11T10:12:23Z</time>
      </trkpt>
      <trkpt lat="45.68374" lon="3.17985">
        <ele>371.6</ele>
        <time>2024-08-11T10:12:24Z</time>
      </trkpt>
      <trkpt lat="45.68375" lon="3.17982">
        <ele>371.8</ele>
        <time>2024-08-11T10:12:25Z</time>
      </trkpt>
      <trkpt lat="45.68376" lon="3.17979">
        <ele>372</ele>
        <time>2024-08-11T10:12:26Z</time>
      </trkpt>
      <trkpt lat="45.68377" lon="3.17976">
        <ele>372.2</ele>
        <time>2024-08-11T10:12:27Z</time>
      </trkpt>
      <trkpt lat="45.68377" lon="3.17973">
        <ele>372.4</ele>
        <time>2024-08-11T10:12:28Z</time>
      </trkpt>
      <trkpt lat="45.68378" lon="3.1797">
        <ele>372.4</ele>
        <time>2024-08-11T10:12:29Z</time>
      </trkpt>
      <trkpt lat="45.68379" lon="3.17967">
        <ele>372.6</ele>
        <time>2024-08-11T10:12:30Z</time>
      </trkpt>
      <trkpt lat="45.6838" lon="3.17965">
        <ele>372.8</ele>
        <time>2024-08-11T10:12:31Z</time>
      </trkpt>
      <trkpt lat="45.68381" lon="3.17961">
        <ele>373</ele>
        <time>2024-08-11T10:12:32Z</time>
      </trkpt>
      <trkpt lat="45.68382" lon="3.17959">
        <ele>373.2</ele>
        <time>2024-08-11T10:12:33Z</time>
      </trkpt>
      <trkpt lat="45.68382" lon="3.17956">
        <ele>373.2</ele>
        <time>2024-08-11T10:12:34Z</time>
      </trkpt>
      <trkpt lat="45.68383" lon="3.17953">
        <ele>373.4</ele>
        <time>2024-08-11T10:12:35Z</time>
      </trkpt>
      <trkpt lat="45.68388" lon="3.17952">
        <ele>373.6</ele>
        <time>2024-08-11T10:12:36Z</time>
      </trkpt>
      <trkpt lat="45.6839" lon="3.17951">
        <ele>373.8</ele>
        <time>2024-08-11T10:12:37Z</time>
      </trkpt>
      <trkpt lat="45.68392" lon="3.17948">
        <ele>374</ele>
        <time>2024-08-11T10:12:38Z</time>
      </trkpt>
      <trkpt lat="45.68393" lon="3.17947">
        <ele>374.2</ele>
        <time>2024-08-11T10:12:39Z</time>
      </trkpt>
      <trkpt lat="45.68395" lon="3.17945">
        <ele>374.4</ele>
        <time>2024-08-11T10:12:40Z</time>
      </trkpt>
      <trkpt lat="45.68397" lon="3.17943">
        <ele>374.6</ele>
        <time>2024-08-11T10:12:41Z</time>
      </trkpt>
      <trkpt lat="45.68399" lon="3.17941">
        <ele>374.8</ele>
        <time>2024-08-11T10:12:42Z</time>
      </trkpt>
      <trkpt lat="45.684" lon="3.17939">
        <ele>375</ele>
        <time>2024-08-11T10:12:43Z</time>
      </trkpt>
      <trkpt lat="45.68402" lon="3.17938">
        <ele>375</ele>
        <time>2024-08-11T10:12:44Z</time>
      </trkpt>
      <trkpt lat="45.68403" lon="3.17936">
        <ele>375.2</ele>
        <time>2024-08-11T10:12:45Z</time>
      </trkpt>
      <trkpt lat="45.68405" lon="3.17934">
        <ele>375.4</ele>
        <time>2024-08-11T10:12:46Z</time>
      </trkpt>
      <trkpt lat="45.68407" lon="3.17933">
        <ele>375.6</ele>
        <time>2024-08-11T10:12:47Z</time>
      </trkpt>
      <trkpt lat="45.68408" lon="3.17932">
        <ele>375.6</ele>
        <time>2024-08-11T10:12:48Z</time>
      </trkpt>
      <trkpt lat="45.6841" lon="3.17931">
        <ele>375.8</ele>
        <time>2024-08-11T10:12:49Z</time>
      </trkpt>
      <trkpt lat="45.68412" lon="3.17929">
        <ele>376</ele>
        <time>2024-08-11T10:12:50Z</time>
      </trkpt>
      <trkpt lat="45.68414" lon="3.17928">
        <ele>376.2</ele>
        <time>2024-08-11T10:12:51Z</time>
      </trkpt>
      <trkpt lat="45.68416" lon="3.17927">
        <ele>376.4</ele>
        <time>2024-08-11T10:12:52Z</time>
      </trkpt>
      <trkpt lat="45.68418" lon="3.17926">
        <ele>376.6</ele>
        <time>2024-08-11T10:12:53Z</time>
      </trkpt>
      <trkpt lat="45.6842" lon="3.17924">
        <ele>376.8</ele>
        <time>2024-08-11T10:12:54Z</time>
      </trkpt>
      <trkpt lat="45.68422" lon="3.17923">
        <ele>377</ele>
        <time>2024-08-11T10:12:55Z</time>
      </trkpt>
      <trkpt lat="45.68423" lon="3.17922">
        <ele>377.2</ele>
        <time>2024-08-11T10:12:56Z</time>
      </trkpt>
      <trkpt lat="45.68425" lon="3.17921">
        <ele>377.4</ele>
        <time>2024-08-11T10:12:57Z</time>
      </trkpt>
      <trkpt lat="45.68427" lon="3.1792">
        <ele>377.6</ele>
        <time>2024-08-11T10:12:58Z</time>
      </trkpt>
      <trkpt lat="45.68429" lon="3.17918">
        <ele>377.8</ele>
        <time>2024-08-11T10:12:59Z</time>
      </trkpt>
      <trkpt lat="45.68431" lon="3.17917">
        <ele>378</ele>
        <time>2024-08-11T10:13:00Z</time>
      </trkpt>
      <trkpt lat="45.68433" lon="3.17916">
        <ele>378.2</ele>
        <time>2024-08-11T10:13:01Z</time>
      </trkpt>
      <trkpt lat="45.68435" lon="3.17914">
        <ele>378.4</ele>
        <time>2024-08-11T10:13:02Z</time>
      </trkpt>
      <trkpt lat="45.68437" lon="3.17913">
        <ele>378.4</ele>
        <time>2024-08-11T10:13:03Z</time>
      </trkpt>
      <trkpt lat="45.68439" lon="3.17912">
        <ele>378.6</ele>
        <time>2024-08-11T10:13:04Z</time>
      </trkpt>
      <trkpt lat="45.6844" lon="3.17911">
        <ele>378.8</ele>
        <time>2024-08-11T10:13:05Z</time>
      </trkpt>
      <trkpt lat="45.68442" lon="3.1791">
        <ele>379</ele>
        <time>2024-08-11T10:13:06Z</time>
      </trkpt>
      <trkpt lat="45.68444" lon="3.17908">
        <ele>379.2</ele>
        <time>2024-08-11T10:13:07Z</time>
      </trkpt>
      <trkpt lat="45.68446" lon="3.17907">
        <ele>379.4</ele>
        <time>2024-08-11T10:13:08Z</time>
      </trkpt>
      <trkpt lat="45.68448" lon="3.17906">
        <ele>379.6</ele>
        <time>2024-08-11T10:13:09Z</time>
      </trkpt>
      <trkpt lat="45.68449" lon="3.17905">
        <ele>379.8</ele>
        <time>2024-08-11T10:13:10Z</time>
      </trkpt>
      <trkpt lat="45.68451" lon="3.17904">
        <ele>379.8</ele>
        <time>2024-08-11T10:13:11Z</time>
      </trkpt>
      <trkpt lat="45.68453" lon="3.17902">
        <ele>380</ele>
        <time>2024-08-11T10:13:12Z</time>
      </trkpt>
      <trkpt lat="45.68455" lon="3.17901">
        <ele>380.2</ele>
        <time>2024-08-11T10:13:13Z</time>
      </trkpt>
      <trkpt lat="45.68457" lon="3.179">
        <ele>380.4</ele>
        <time>2024-08-11T10:13:14Z</time>
      </trkpt>
      <trkpt lat="45.68458" lon="3.17899">
        <ele>380.6</ele>
        <time>2024-08-11T10:13:15Z</time>
      </trkpt>
      <trkpt lat="45.6846" lon="3.17898">
        <ele>380.8</ele>
        <time>2024-08-11T10:13:16Z</time>
      </trkpt>
      <trkpt lat="45.68462" lon="3.17896">
        <ele>381</ele>
        <time>2024-08-11T10:13:17Z</time>
      </trkpt>
      <trkpt lat="45.68464" lon="3.17895">
        <ele>381.2</ele>
        <time>2024-08-11T10:13:18Z</time>
      </trkpt>
      <trkpt lat="45.68466" lon="3.17894">
        <ele>381.2</ele>
        <time>2024-08-11T10:13:19Z</time>
      </trkpt>
      <trkpt lat="45.68468" lon="3.17892">
        <ele>381.4</ele>
        <time>2024-08-11T10:13:20Z</time>
      </trkpt>
      <trkpt lat="45.6847" lon="3.1789">
        <ele>381.6</ele>
        <time>2024-08-11T10:13:21Z</time>
      </trkpt>
      <trkpt lat="45.68471" lon="3.17888">
        <ele>381.8</ele>
        <time>2024-08-11T10:13:22Z</time>
      </trkpt>
      <trkpt lat="45.68473" lon="3.17886">
        <ele>382</ele>
        <time>2024-08-11T10:13:23Z</time>
      </trkpt>
      <trkpt lat="45.68475" lon="3.17883">
        <ele>382.2</ele>
        <time>2024-08-11T10:13:24Z</time>
      </trkpt>
      <trkpt lat="45.68476" lon="3.17881">
        <ele>382.4</ele>
        <time>2024-08-11T10:13:25Z</time>
      </trkpt>
      <trkpt lat="45.68478" lon="3.17879">
        <ele>382.6</ele>
        <time>2024-08-11T10:13:26Z</time>
      </trkpt>
      <trkpt lat="45.68479" lon="3.17877">
        <ele>382.8</ele>
        <time>2024-08-11T10:13:27Z</time>
      </trkpt>
      <trkpt lat="45.68481" lon="3.17875">
        <ele>383</ele>
        <time>2024-08-11T10:13:28Z</time>
      </trkpt>
      <trkpt lat="45.68483" lon="3.17873">
        <ele>383.2</ele>
        <time>2024-08-11T10:13:29Z</time>
      </trkpt>
      <trkpt lat="45.68484" lon="3.17871">
        <ele>383.2</ele>
        <time>2024-08-11T10:13:30Z</time>
      </trkpt>
      <trkpt lat="45.68486" lon="3.17869">
        <ele>383.6</ele>
        <time>2024-08-11T10:13:31Z</time>
      </trkpt>
      <trkpt lat="45.68487" lon="3.17867">
        <ele>383.8</ele>
        <time>2024-08-11T10:13:32Z</time>
      </trkpt>
      <trkpt lat="45.68489" lon="3.17865">
        <ele>384</ele>
        <time>2024-08-11T10:13:33Z</time>
      </trkpt>
      <trkpt lat="45.6849" lon="3.17863">
        <ele>384.2</ele>
        <time>2024-08-11T10:13:34Z</time>
      </trkpt>
      <trkpt lat="45.68491" lon="3.1786">
        <ele>384.4</ele>
        <time>2024-08-11T10:13:35Z</time>
      </trkpt>
      <trkpt lat="45.68493" lon="3.17858">
        <ele>384.6</ele>
        <time>2024-08-11T10:13:36Z</time>
      </trkpt>
      <trkpt lat="45.68494" lon="3.17856">
        <ele>384.8</ele>
        <time>2024-08-11T10:13:37Z</time>
      </trkpt>
      <trkpt lat="45.68495" lon="3.17853">
        <ele>385</ele>
        <time>2024-08-11T10:13:38Z</time>
      </trkpt>
      <trkpt lat="45.68497" lon="3.17851">
        <ele>385.2</ele>
        <time>2024-08-11T10:13:39Z</time>
      </trkpt>
      <trkpt lat="45.68498" lon="3.17848">
        <ele>385.4</ele>
        <time>2024-08-11T10:13:40Z</time>
      </trkpt>
      <trkpt lat="45.68498" lon="3.17845">
        <ele>385.6</ele>
        <time>2024-08-11T10:13:41Z</time>
      </trkpt>
      <trkpt lat="45.68499" lon="3.17842">
        <ele>385.6</ele>
        <time>2024-08-11T10:13:42Z</time>
      </trkpt>
      <trkpt lat="45.68499" lon="3.17839">
        <ele>385.8</ele>
        <time>2024-08-11T10:13:43Z</time>
      </trkpt>
      <trkpt lat="45.685" lon="3.17836">
        <ele>386</ele>
        <time>2024-08-11T10:13:44Z</time>
      </trkpt>
      <trkpt lat="45.685" lon="3.17833">
        <ele>386.2</ele>
        <time>2024-08-11T10:13:45Z</time>
      </trkpt>
      <trkpt lat="45.68501" lon="3.17831">
        <ele>386.4</ele>
        <time>2024-08-11T10:13:46Z</time>
      </trkpt>
      <trkpt lat="45.68501" lon="3.17828">
        <ele>386.6</ele>
        <time>2024-08-11T10:13:47Z</time>
      </trkpt>
      <trkpt lat="45.68502" lon="3.17825">
        <ele>386.8</ele>
        <time>2024-08-11T10:13:48Z</time>
      </trkpt>
      <trkpt lat="45.68503" lon="3.17821">
        <ele>387</ele>
        <time>2024-08-11T10:13:49Z</time>
      </trkpt>
      <trkpt lat="45.68503" lon="3.17818">
        <ele>387.2</ele>
        <time>2024-08-11T10:13:50Z</time>
      </trkpt>
      <trkpt lat="45.68504" lon="3.17816">
        <ele>387.4</ele>
        <time>2024-08-11T10:13:51Z</time>
      </trkpt>
      <trkpt lat="45.68503" lon="3.17813">
        <ele>387.6</ele>
        <time>2024-08-11T10:13:52Z</time>
      </trkpt>
      <trkpt lat="45.68503" lon="3.1781">
        <ele>387.8</ele>
        <time>2024-08-11T10:13:53Z</time>
      </trkpt>
      <trkpt lat="45.68503" lon="3.17807">
        <ele>388</ele>
        <time>2024-08-11T10:13:54Z</time>
      </trkpt>
      <trkpt lat="45.68503" lon="3.17804">
        <ele>388.2</ele>
        <time>2024-08-11T10:13:55Z</time>
      </trkpt>
      <trkpt lat="45.68502" lon="3.178">
        <ele>388.4</ele>
        <time>2024-08-11T10:13:56Z</time>
      </trkpt>
      <trkpt lat="45.68502" lon="3.17797">
        <ele>388.6</ele>
        <time>2024-08-11T10:13:57Z</time>
      </trkpt>
      <trkpt lat="45.68502" lon="3.17793">
        <ele>388.8</ele>
        <time>2024-08-11T10:13:58Z</time>
      </trkpt>
      <trkpt lat="45.68502" lon="3.1779">
        <ele>389</ele>
        <time>2024-08-11T10:13:59Z</time>
      </trkpt>
      <trkpt lat="45.68502" lon="3.17787">
        <ele>389.2</ele>
        <time>2024-08-11T10:14:00Z</time>
      </trkpt>
      <trkpt lat="45.68501" lon="3.17784">
        <ele>389.4</ele>
        <time>2024-08-11T10:14:01Z</time>
      </trkpt>
      <trkpt lat="45.68501" lon="3.17781">
        <ele>389.6</ele>
        <time>2024-08-11T10:14:02Z</time>
      </trkpt>
      <trkpt lat="45.68501" lon="3.17778">
        <ele>389.8</ele>
        <time>2024-08-11T10:14:03Z</time>
      </trkpt>
      <trkpt lat="45.68501" lon="3.17775">
        <ele>390</ele>
        <time>2024-08-11T10:14:04Z</time>
      </trkpt>
      <trkpt lat="45.68501" lon="3.17772">
        <ele>390.2</ele>
        <time>2024-08-11T10:14:05Z</time>
      </trkpt>
      <trkpt lat="45.685" lon="3.1777">
        <ele>390.4</ele>
        <time>2024-08-11T10:14:06Z</time>
      </trkpt>
      <trkpt lat="45.685" lon="3.17767">
        <ele>390.6</ele>
        <time>2024-08-11T10:14:07Z</time>
      </trkpt>
      <trkpt lat="45.685" lon="3.17764">
        <ele>390.8</ele>
        <time>2024-08-11T10:14:08Z</time>
      </trkpt>
      <trkpt lat="45.685" lon="3.1776">
        <ele>391</ele>
        <time>2024-08-11T10:14:09Z</time>
      </trkpt>
      <trkpt lat="45.68499" lon="3.17757">
        <ele>391.2</ele>
        <time>2024-08-11T10:14:10Z</time>
      </trkpt>
      <trkpt lat="45.68499" lon="3.17754">
        <ele>391.4</ele>
        <time>2024-08-11T10:14:11Z</time>
      </trkpt>
      <trkpt lat="45.68498" lon="3.17751">
        <ele>391.6</ele>
        <time>2024-08-11T10:14:12Z</time>
      </trkpt>
      <trkpt lat="45.68497" lon="3.17748">
        <ele>391.8</ele>
        <time>2024-08-11T10:14:13Z</time>
      </trkpt>
      <trkpt lat="45.68496" lon="3.17745">
        <ele>392</ele>
        <time>2024-08-11T10:14:14Z</time>
      </trkpt>
      <trkpt lat="45.68495" lon="3.17742">
        <ele>392.2</ele>
        <time>2024-08-11T10:14:15Z</time>
      </trkpt>
      <trkpt lat="45.68494" lon="3.1774">
        <ele>392.4</ele>
        <time>2024-08-11T10:14:16Z</time>
      </trkpt>
      <trkpt lat="45.68494" lon="3.17737">
        <ele>392.6</ele>
        <time>2024-08-11T10:14:17Z</time>
      </trkpt>
      <trkpt lat="45.68493" lon="3.17734">
        <ele>392.8</ele>
        <time>2024-08-11T10:14:18Z</time>
      </trkpt>
      <trkpt lat="45.68492" lon="3.17732">
        <ele>393</ele>
        <time>2024-08-11T10:14:19Z</time>
      </trkpt>
      <trkpt lat="45.68491" lon="3.17729">
        <ele>393.2</ele>
        <time>2024-08-11T10:14:20Z</time>
      </trkpt>
      <trkpt lat="45.6849" lon="3.17726">
        <ele>393.6</ele>
        <time>2024-08-11T10:14:21Z</time>
      </trkpt>
      <trkpt lat="45.68489" lon="3.17723">
        <ele>393.6</ele>
        <time>2024-08-11T10:14:22Z</time>
      </trkpt>
      <trkpt lat="45.68488" lon="3.1772">
        <ele>393.8</ele>
        <time>2024-08-11T10:14:23Z</time>
      </trkpt>
      <trkpt lat="45.68488" lon="3.17718">
        <ele>394</ele>
        <time>2024-08-11T10:14:24Z</time>
      </trkpt>
      <trkpt lat="45.68487" lon="3.17715">
        <ele>394.2</ele>
        <time>2024-08-11T10:14:25Z</time>
      </trkpt>
      <trkpt lat="45.68486" lon="3.17712">
        <ele>394.4</ele>
        <time>2024-08-11T10:14:26Z</time>
      </trkpt>
      <trkpt lat="45.68485" lon="3.17709">
        <ele>394.6</ele>
        <time>2024-08-11T10:14:27Z</time>
      </trkpt>
      <trkpt lat="45.68484" lon="3.17706">
        <ele>394.8</ele>
        <time>2024-08-11T10:14:28Z</time>
      </trkpt>
      <trkpt lat="45.68483" lon="3.17703">
        <ele>395</ele>
        <time>2024-08-11T10:14:29Z</time>
      </trkpt>
      <trkpt lat="45.68482" lon="3.17701">
        <ele>395.2</ele>
        <time>2024-08-11T10:14:30Z</time>
      </trkpt>
      <trkpt lat="45.68482" lon="3.17698">
        <ele>395.4</ele>
        <time>2024-08-11T10:14:31Z</time>
      </trkpt>
      <trkpt lat="45.68481" lon="3.17695">
        <ele>395.6</ele>
        <time>2024-08-11T10:14:32Z</time>
      </trkpt>
      <trkpt lat="45.6848" lon="3.17692">
        <ele>395.8</ele>
        <time>2024-08-11T10:14:33Z</time>
      </trkpt>
      <trkpt lat="45.68479" lon="3.17689">
        <ele>396.2</ele>
        <time>2024-08-11T10:14:34Z</time>
      </trkpt>
      <trkpt lat="45.68478" lon="3.17687">
        <ele>396.2</ele>
        <time>2024-08-11T10:14:35Z</time>
      </trkpt>
      <trkpt lat="45.68477" lon="3.17684">
        <ele>396.4</ele>
        <time>2024-08-11T10:14:36Z</time>
      </trkpt>
      <trkpt lat="45.68476" lon="3.1768">
        <ele>396.6</ele>
        <time>2024-08-11T10:14:37Z</time>
      </trkpt>
      <trkpt lat="45.68476" lon="3.17677">
        <ele>396.8</ele>
        <time>2024-08-11T10:14:38Z</time>
      </trkpt>
      <trkpt lat="45.68475" lon="3.17674">
        <ele>397</ele>
        <time>2024-08-11T10:14:39Z</time>
      </trkpt>
      <trkpt lat="45.68475" lon="3.1767">
        <ele>397.2</ele>
        <time>2024-08-11T10:14:40Z</time>
      </trkpt>
      <trkpt lat="45.68474" lon="3.17667">
        <ele>397.4</ele>
        <time>2024-08-11T10:14:41Z</time>
      </trkpt>
      <trkpt lat="45.68474" lon="3.17664">
        <ele>397.6</ele>
        <time>2024-08-11T10:14:42Z</time>
      </trkpt>
      <trkpt lat="45.68473" lon="3.17661">
        <ele>397.8</ele>
        <time>2024-08-11T10:14:43Z</time>
      </trkpt>
      <trkpt lat="45.68473" lon="3.17657">
        <ele>398</ele>
        <time>2024-08-11T10:14:44Z</time>
      </trkpt>
      <trkpt lat="45.68473" lon="3.17653">
        <ele>398.2</ele>
        <time>2024-08-11T10:14:45Z</time>
      </trkpt>
      <trkpt lat="45.68472" lon="3.1765">
        <ele>398.4</ele>
        <time>2024-08-11T10:14:46Z</time>
      </trkpt>
      <trkpt lat="45.68472" lon="3.17646">
        <ele>398.6</ele>
        <time>2024-08-11T10:14:47Z</time>
      </trkpt>
      <trkpt lat="45.68471" lon="3.17643">
        <ele>398.8</ele>
        <time>2024-08-11T10:14:48Z</time>
      </trkpt>
      <trkpt lat="45.68471" lon="3.17639">
        <ele>399</ele>
        <time>2024-08-11T10:14:49Z</time>
      </trkpt>
      <trkpt lat="45.6847" lon="3.17635">
        <ele>399.2</ele>
        <time>2024-08-11T10:14:50Z</time>
      </trkpt>
      <trkpt lat="45.6847" lon="3.17632">
        <ele>399.4</ele>
        <time>2024-08-11T10:14:51Z</time>
      </trkpt>
      <trkpt lat="45.68469" lon="3.17629">
        <ele>399.6</ele>
        <time>2024-08-11T10:14:52Z</time>
      </trkpt>
      <trkpt lat="45.68469" lon="3.17625">
        <ele>399.8</ele>
        <time>2024-08-11T10:14:53Z</time>
      </trkpt>
      <trkpt lat="45.68469" lon="3.17621">
        <ele>399.8</ele>
        <time>2024-08-11T10:14:54Z</time>
      </trkpt>
      <trkpt lat="45.68468" lon="3.17618">
        <ele>400</ele>
        <time>2024-08-11T10:14:55Z</time>
      </trkpt>
      <trkpt lat="45.68468" lon="3.17614">
        <ele>400.2</ele>
        <time>2024-08-11T10:14:56Z</time>
      </trkpt>
      <trkpt lat="45.68467" lon="3.17611">
        <ele>400.4</ele>
        <time>2024-08-11T10:14:57Z</time>
      </trkpt>
      <trkpt lat="45.68467" lon="3.17607">
        <ele>400.6</ele>
        <time>2024-08-11T10:14:58Z</time>
      </trkpt>
      <trkpt lat="45.68466" lon="3.17604">
        <ele>400.8</ele>
        <time>2024-08-11T10:14:59Z</time>
      </trkpt>
      <trkpt lat="45.68466" lon="3.176">
        <ele>401</ele>
        <time>2024-08-11T10:15:00Z</time>
      </trkpt>
      <trkpt lat="45.68465" lon="3.17597">
        <ele>401.4</ele>
        <time>2024-08-11T10:15:01Z</time>
      </trkpt>
      <trkpt lat="45.68465" lon="3.17593">
        <ele>401.4</ele>
        <time>2024-08-11T10:15:02Z</time>
      </trkpt>
      <trkpt lat="45.68465" lon="3.1759">
        <ele>401.6</ele>
        <time>2024-08-11T10:15:03Z</time>
      </trkpt>
      <trkpt lat="45.68464" lon="3.17587">
        <ele>402</ele>
        <time>2024-08-11T10:15:04Z</time>
      </trkpt>
      <trkpt lat="45.68464" lon="3.17584">
        <ele>402.2</ele>
        <time>2024-08-11T10:15:05Z</time>
      </trkpt>
      <trkpt lat="45.68463" lon="3.1758">
        <ele>402.2</ele>
        <time>2024-08-11T10:15:06Z</time>
      </trkpt>
      <trkpt lat="45.68463" lon="3.17576">
        <ele>402.4</ele>
        <time>2024-08-11T10:15:07Z</time>
      </trkpt>
      <trkpt lat="45.68462" lon="3.17573">
        <ele>402.6</ele>
        <time>2024-08-11T10:15:08Z</time>
      </trkpt>
      <trkpt lat="45.68462" lon="3.17569">
        <ele>402.8</ele>
        <time>2024-08-11T10:15:09Z</time>
      </trkpt>
      <trkpt lat="45.68462" lon="3.17565">
        <ele>402.8</ele>
        <time>2024-08-11T10:15:10Z</time>
      </trkpt>
      <trkpt lat="45.68461" lon="3.17562">
        <ele>403</ele>
        <time>2024-08-11T10:15:11Z</time>
      </trkpt>
      <trkpt lat="45.68461" lon="3.17558">
        <ele>403.2</ele>
        <time>2024-08-11T10:15:12Z</time>
      </trkpt>
      <trkpt lat="45.6846" lon="3.17554">
        <ele>403.4</ele>
        <time>2024-08-11T10:15:13Z</time>
      </trkpt>
      <trkpt lat="45.6846" lon="3.1755">
        <ele>403.6</ele>
        <time>2024-08-11T10:15:14Z</time>
      </trkpt>
      <trkpt lat="45.68459" lon="3.17546">
        <ele>403.6</ele>
        <time>2024-08-11T10:15:15Z</time>
      </trkpt>
      <trkpt lat="45.68459" lon="3.17541">
        <ele>403.8</ele>
        <time>2024-08-11T10:15:16Z</time>
      </trkpt>
      <trkpt lat="45.68458" lon="3.17537">
        <ele>404</ele>
        <time>2024-08-11T10:15:17Z</time>
      </trkpt>
      <trkpt lat="45.68458" lon="3.17533">
        <ele>404.2</ele>
        <time>2024-08-11T10:15:18Z</time>
      </trkpt>
      <trkpt lat="45.68457" lon="3.17529">
        <ele>404.2</ele>
        <time>2024-08-11T10:15:19Z</time>
      </trkpt>
      <trkpt lat="45.68456" lon="3.17524">
        <ele>404.4</ele>
        <time>2024-08-11T10:15:20Z</time>
      </trkpt>
      <trkpt lat="45.68456" lon="3.1752">
        <ele>404.6</ele>
        <time>2024-08-11T10:15:21Z</time>
      </trkpt>
      <trkpt lat="45.68455" lon="3.17515">
        <ele>404.6</ele>
        <time>2024-08-11T10:15:22Z</time>
      </trkpt>
      <trkpt lat="45.68455" lon="3.1751">
        <ele>404.8</ele>
        <time>2024-08-11T10:15:23Z</time>
      </trkpt>
      <trkpt lat="45.68454" lon="3.17505">
        <ele>405</ele>
        <time>2024-08-11T10:15:24Z</time>
      </trkpt>
      <trkpt lat="45.68454" lon="3.17501">
        <ele>405.2</ele>
        <time>2024-08-11T10:15:25Z</time>
      </trkpt>
      <trkpt lat="45.68453" lon="3.17496">
        <ele>405.2</ele>
        <time>2024-08-11T10:15:26Z</time>
      </trkpt>
      <trkpt lat="45.68453" lon="3.17491">
        <ele>405.4</ele>
        <time>2024-08-11T10:15:27Z</time>
      </trkpt>
      <trkpt lat="45.68453" lon="3.17486">
        <ele>405.6</ele>
        <time>2024-08-11T10:15:28Z</time>
      </trkpt>
      <trkpt lat="45.68452" lon="3.1748">
        <ele>405.6</ele>
        <time>2024-08-11T10:15:29Z</time>
      </trkpt>
      <trkpt lat="45.68452" lon="3.17475">
        <ele>405.8</ele>
        <time>2024-08-11T10:15:30Z</time>
      </trkpt>
      <trkpt lat="45.68451" lon="3.17469">
        <ele>406</ele>
        <time>2024-08-11T10:15:31Z</time>
      </trkpt>
      <trkpt lat="45.68451" lon="3.17464">
        <ele>406.2</ele>
        <time>2024-08-11T10:15:32Z</time>
      </trkpt>
      <trkpt lat="45.68451" lon="3.17459">
        <ele>406.4</ele>
        <time>2024-08-11T10:15:33Z</time>
      </trkpt>
      <trkpt lat="45.6845" lon="3.17454">
        <ele>406.6</ele>
        <time>2024-08-11T10:15:34Z</time>
      </trkpt>
      <trkpt lat="45.68453" lon="3.17447">
        <ele>406.8</ele>
        <time>2024-08-11T10:15:35Z</time>
      </trkpt>
      <trkpt lat="45.68457" lon="3.17445">
        <ele>406.8</ele>
        <time>2024-08-11T10:15:36Z</time>
      </trkpt>
      <trkpt lat="45.68461" lon="3.17443">
        <ele>406.8</ele>
        <time>2024-08-11T10:15:37Z</time>
      </trkpt>
      <trkpt lat="45.68465" lon="3.17441">
        <ele>407.2</ele>
        <time>2024-08-11T10:15:38Z</time>
      </trkpt>
      <trkpt lat="45.68469" lon="3.17438">
        <ele>407.2</ele>
        <time>2024-08-11T10:15:39Z</time>
      </trkpt>
      <trkpt lat="45.68473" lon="3.17436">
        <ele>407.2</ele>
        <time>2024-08-11T10:15:40Z</time>
      </trkpt>
      <trkpt lat="45.68477" lon="3.17434">
        <ele>407.4</ele>
        <time>2024-08-11T10:15:41Z</time>
      </trkpt>
      <trkpt lat="45.68482" lon="3.17431">
        <ele>407.4</ele>
        <time>2024-08-11T10:15:42Z</time>
      </trkpt>
      <trkpt lat="45.68487" lon="3.17428">
        <ele>407.6</ele>
        <time>2024-08-11T10:15:43Z</time>
      </trkpt>
      <trkpt lat="45.68492" lon="3.17425">
        <ele>407.6</ele>
        <time>2024-08-11T10:15:44Z</time>
      </trkpt>
      <trkpt lat="45.68497" lon="3.17423">
        <ele>407.6</ele>
        <time>2024-08-11T10:15:45Z</time>
      </trkpt>
      <trkpt lat="45.68502" lon="3.17419">
        <ele>407.8</ele>
        <time>2024-08-11T10:15:46Z</time>
      </trkpt>
      <trkpt lat="45.68507" lon="3.17414">
        <ele>407.8</ele>
        <time>2024-08-11T10:15:47Z</time>
      </trkpt>
      <trkpt lat="45.68512" lon="3.17409">
        <ele>407.8</ele>
        <time>2024-08-11T10:15:48Z</time>
      </trkpt>
      <trkpt lat="45.68517" lon="3.17405">
        <ele>408</ele>
        <time>2024-08-11T10:15:49Z</time>
      </trkpt>
      <trkpt lat="45.68522" lon="3.174">
        <ele>408</ele>
        <time>2024-08-11T10:15:50Z</time>
      </trkpt>
      <trkpt lat="45.68527" lon="3.17395">
        <ele>408</ele>
        <time>2024-08-11T10:15:51Z</time>
      </trkpt>
      <trkpt lat="45.68532" lon="3.1739">
        <ele>408.2</ele>
        <time>2024-08-11T10:15:52Z</time>
      </trkpt>
      <trkpt lat="45.68538" lon="3.17385">
        <ele>408.2</ele>
        <time>2024-08-11T10:15:53Z</time>
      </trkpt>
      <trkpt lat="45.68543" lon="3.17379">
        <ele>408.2</ele>
        <time>2024-08-11T10:15:54Z</time>
      </trkpt>
      <trkpt lat="45.68549" lon="3.17374">
        <ele>408.2</ele>
        <time>2024-08-11T10:15:55Z</time>
      </trkpt>
      <trkpt lat="45.68555" lon="3.17369">
        <ele>408.4</ele>
        <time>2024-08-11T10:15:56Z</time>
      </trkpt>
      <trkpt lat="45.6856" lon="3.17364">
        <ele>408.4</ele>
        <time>2024-08-11T10:15:57Z</time>
      </trkpt>
      <trkpt lat="45.68566" lon="3.1736">
        <ele>408.4</ele>
        <time>2024-08-11T10:15:58Z</time>
      </trkpt>
      <trkpt lat="45.68572" lon="3.17354">
        <ele>408.4</ele>
        <time>2024-08-11T10:15:59Z</time>
      </trkpt>
      <trkpt lat="45.68578" lon="3.17349">
        <ele>408.4</ele>
        <time>2024-08-11T10:16:00Z</time>
      </trkpt>
      <trkpt lat="45.68584" lon="3.17344">
        <ele>408.6</ele>
        <time>2024-08-11T10:16:01Z</time>
      </trkpt>
      <trkpt lat="45.6859" lon="3.17339">
        <ele>408.6</ele>
        <time>2024-08-11T10:16:02Z</time>
      </trkpt>
      <trkpt lat="45.68596" lon="3.17333">
        <ele>408.6</ele>
        <time>2024-08-11T10:16:03Z</time>
      </trkpt>
      <trkpt lat="45.68602" lon="3.17328">
        <ele>408.6</ele>
        <time>2024-08-11T10:16:04Z</time>
      </trkpt>
      <trkpt lat="45.68608" lon="3.17323">
        <ele>408.6</ele>
        <time>2024-08-11T10:16:05Z</time>
      </trkpt>
      <trkpt lat="45.68614" lon="3.17317">
        <ele>408.8</ele>
        <time>2024-08-11T10:16:06Z</time>
      </trkpt>
      <trkpt lat="45.6862" lon="3.17311">
        <ele>408.8</ele>
        <time>2024-08-11T10:16:07Z</time>
      </trkpt>
      <trkpt lat="45.68626" lon="3.17305">
        <ele>408.8</ele>
        <time>2024-08-11T10:16:08Z</time>
      </trkpt>
      <trkpt lat="45.68633" lon="3.173">
        <ele>408.8</ele>
        <time>2024-08-11T10:16:09Z</time>
      </trkpt>
      <trkpt lat="45.68639" lon="3.17295">
        <ele>408.8</ele>
        <time>2024-08-11T10:16:10Z</time>
      </trkpt>
      <trkpt lat="45.68646" lon="3.1729">
        <ele>408.8</ele>
        <time>2024-08-11T10:16:11Z</time>
      </trkpt>
      <trkpt lat="45.68652" lon="3.17284">
        <ele>408.8</ele>
        <time>2024-08-11T10:16:12Z</time>
      </trkpt>
      <trkpt lat="45.68659" lon="3.17278">
        <ele>408.8</ele>
        <time>2024-08-11T10:16:13Z</time>
      </trkpt>
      <trkpt lat="45.68666" lon="3.17272">
        <ele>409</ele>
        <time>2024-08-11T10:16:14Z</time>
      </trkpt>
      <trkpt lat="45.68673" lon="3.17266">
        <ele>409</ele>
        <time>2024-08-11T10:16:15Z</time>
      </trkpt>
      <trkpt lat="45.6868" lon="3.1726">
        <ele>409</ele>
        <time>2024-08-11T10:16:16Z</time>
      </trkpt>
      <trkpt lat="45.68687" lon="3.17254">
        <ele>409</ele>
        <time>2024-08-11T10:16:17Z</time>
      </trkpt>
      <trkpt lat="45.68694" lon="3.17248">
        <ele>409</ele>
        <time>2024-08-11T10:16:18Z</time>
      </trkpt>
      <trkpt lat="45.68701" lon="3.17242">
        <ele>409</ele>
        <time>2024-08-11T10:16:19Z</time>
      </trkpt>
      <trkpt lat="45.68707" lon="3.17236">
        <ele>409</ele>
        <time>2024-08-11T10:16:20Z</time>
      </trkpt>
      <trkpt lat="45.68714" lon="3.1723">
        <ele>409</ele>
        <time>2024-08-11T10:16:21Z</time>
      </trkpt>
      <trkpt lat="45.68722" lon="3.17224">
        <ele>409</ele>
        <time>2024-08-11T10:16:22Z</time>
      </trkpt>
      <trkpt lat="45.68729" lon="3.17217">
        <ele>409</ele>
        <time>2024-08-11T10:16:23Z</time>
      </trkpt>
      <trkpt lat="45.68736" lon="3.17211">
        <ele>408.8</ele>
        <time>2024-08-11T10:16:24Z</time>
      </trkpt>
      <trkpt lat="45.68743" lon="3.17205">
        <ele>408.8</ele>
        <time>2024-08-11T10:16:25Z</time>
      </trkpt>
      <trkpt lat="45.68751" lon="3.17198">
        <ele>408.8</ele>
        <time>2024-08-11T10:16:26Z</time>
      </trkpt>
      <trkpt lat="45.68758" lon="3.17192">
        <ele>408.8</ele>
        <time>2024-08-11T10:16:27Z</time>
      </trkpt>
      <trkpt lat="45.68766" lon="3.17185">
        <ele>408.8</ele>
        <time>2024-08-11T10:16:28Z</time>
      </trkpt>
      <trkpt lat="45.68773" lon="3.17179">
        <ele>408.8</ele>
        <time>2024-08-11T10:16:29Z</time>
      </trkpt>
      <trkpt lat="45.68781" lon="3.17172">
        <ele>408.6</ele>
        <time>2024-08-11T10:16:30Z</time>
      </trkpt>
      <trkpt lat="45.68789" lon="3.17165">
        <ele>408.6</ele>
        <time>2024-08-11T10:16:31Z</time>
      </trkpt>
      <trkpt lat="45.68797" lon="3.17158">
        <ele>408.4</ele>
        <time>2024-08-11T10:16:32Z</time>
      </trkpt>
      <trkpt lat="45.68806" lon="3.1715">
        <ele>408.4</ele>
        <time>2024-08-11T10:16:33Z</time>
      </trkpt>
      <trkpt lat="45.68814" lon="3.17142">
        <ele>408.4</ele>
        <time>2024-08-11T10:16:34Z</time>
      </trkpt>
      <trkpt lat="45.68823" lon="3.17134">
        <ele>408.2</ele>
        <time>2024-08-11T10:16:35Z</time>
      </trkpt>
      <trkpt lat="45.68832" lon="3.17127">
        <ele>408.2</ele>
        <time>2024-08-11T10:16:36Z</time>
      </trkpt>
      <trkpt lat="45.6884" lon="3.17119">
        <ele>408</ele>
        <time>2024-08-11T10:16:37Z</time>
      </trkpt>
      <trkpt lat="45.68849" lon="3.17111">
        <ele>408</ele>
        <time>2024-08-11T10:16:38Z</time>
      </trkpt>
      <trkpt lat="45.68858" lon="3.17103">
        <ele>407.8</ele>
        <time>2024-08-11T10:16:39Z</time>
      </trkpt>
      <trkpt lat="45.68867" lon="3.17094">
        <ele>407.6</ele>
        <time>2024-08-11T10:16:40Z</time>
      </trkpt>
      <trkpt lat="45.68876" lon="3.17086">
        <ele>407.6</ele>
        <time>2024-08-11T10:16:41Z</time>
      </trkpt>
      <trkpt lat="45.68885" lon="3.17078">
        <ele>407.4</ele>
        <time>2024-08-11T10:16:42Z</time>
      </trkpt>
      <trkpt lat="45.68894" lon="3.1707">
        <ele>407.4</ele>
        <time>2024-08-11T10:16:43Z</time>
      </trkpt>
      <trkpt lat="45.68903" lon="3.17061">
        <ele>407.2</ele>
        <time>2024-08-11T10:16:44Z</time>
      </trkpt>
      <trkpt lat="45.68913" lon="3.17053">
        <ele>407</ele>
        <time>2024-08-11T10:16:45Z</time>
      </trkpt>
      <trkpt lat="45.68922" lon="3.17045">
        <ele>406.8</ele>
        <time>2024-08-11T10:16:46Z</time>
      </trkpt>
      <trkpt lat="45.68931" lon="3.17036">
        <ele>406.8</ele>
        <time>2024-08-11T10:16:47Z</time>
      </trkpt>
      <trkpt lat="45.6894" lon="3.17028">
        <ele>406.6</ele>
        <time>2024-08-11T10:16:48Z</time>
      </trkpt>
      <trkpt lat="45.6895" lon="3.17019">
        <ele>406.4</ele>
        <time>2024-08-11T10:16:49Z</time>
      </trkpt>
      <trkpt lat="45.68959" lon="3.17011">
        <ele>406.4</ele>
        <time>2024-08-11T10:16:50Z</time>
      </trkpt>
      <trkpt lat="45.68968" lon="3.17003">
        <ele>406.2</ele>
        <time>2024-08-11T10:16:51Z</time>
      </trkpt>
      <trkpt lat="45.68977" lon="3.16994">
        <ele>406</ele>
        <time>2024-08-11T10:16:52Z</time>
      </trkpt>
      <trkpt lat="45.68986" lon="3.16986">
        <ele>405.8</ele>
        <time>2024-08-11T10:16:53Z</time>
      </trkpt>
      <trkpt lat="45.68995" lon="3.16978">
        <ele>405.8</ele>
        <time>2024-08-11T10:16:54Z</time>
      </trkpt>
      <trkpt lat="45.69004" lon="3.1697">
        <ele>405.6</ele>
        <time>2024-08-11T10:16:55Z</time>
      </trkpt>
      <trkpt lat="45.69013" lon="3.16962">
        <ele>405.6</ele>
        <time>2024-08-11T10:16:56Z</time>
      </trkpt>
      <trkpt lat="45.69022" lon="3.16954">
        <ele>405.4</ele>
        <time>2024-08-11T10:16:57Z</time>
      </trkpt>
      <trkpt lat="45.6903" lon="3.16947">
        <ele>405.4</ele>
        <time>2024-08-11T10:16:58Z</time>
      </trkpt>
      <trkpt lat="45.69038" lon="3.16939">
        <ele>405.2</ele>
        <time>2024-08-11T10:16:59Z</time>
      </trkpt>
      <trkpt lat="45.69046" lon="3.16932">
        <ele>405.2</ele>
        <time>2024-08-11T10:17:00Z</time>
      </trkpt>
      <trkpt lat="45.69054" lon="3.16924">
        <ele>405</ele>
        <time>2024-08-11T10:17:01Z</time>
      </trkpt>
      <trkpt lat="45.69062" lon="3.16917">
        <ele>405</ele>
        <time>2024-08-11T10:17:02Z</time>
      </trkpt>
      <trkpt lat="45.6907" lon="3.1691">
        <ele>404.8</ele>
        <time>2024-08-11T10:17:03Z</time>
      </trkpt>
      <trkpt lat="45.69078" lon="3.16903">
        <ele>404.8</ele>
        <time>2024-08-11T10:17:04Z</time>
      </trkpt>
      <trkpt lat="45.69086" lon="3.16896">
        <ele>404.6</ele>
        <time>2024-08-11T10:17:05Z</time>
      </trkpt>
      <trkpt lat="45.69093" lon="3.16889">
        <ele>404.6</ele>
        <time>2024-08-11T10:17:06Z</time>
      </trkpt>
      <trkpt lat="45.69101" lon="3.16882">
        <ele>404.4</ele>
        <time>2024-08-11T10:17:07Z</time>
      </trkpt>
      <trkpt lat="45.69108" lon="3.16876">
        <ele>404.4</ele>
        <time>2024-08-11T10:17:08Z</time>
      </trkpt>
      <trkpt lat="45.69116" lon="3.16869">
        <ele>404.2</ele>
        <time>2024-08-11T10:17:09Z</time>
      </trkpt>
      <trkpt lat="45.69124" lon="3.16862">
        <ele>404</ele>
        <time>2024-08-11T10:17:10Z</time>
      </trkpt>
      <trkpt lat="45.69131" lon="3.16856">
        <ele>404</ele>
        <time>2024-08-11T10:17:11Z</time>
      </trkpt>
      <trkpt lat="45.69138" lon="3.16849">
        <ele>404</ele>
        <time>2024-08-11T10:17:12Z</time>
      </trkpt>
      <trkpt lat="45.69145" lon="3.16843">
        <ele>403.8</ele>
        <time>2024-08-11T10:17:13Z</time>
      </trkpt>
      <trkpt lat="45.69152" lon="3.16837">
        <ele>403.6</ele>
        <time>2024-08-11T10:17:14Z</time>
      </trkpt>
      <trkpt lat="45.69159" lon="3.16831">
        <ele>403.6</ele>
        <time>2024-08-11T10:17:15Z</time>
      </trkpt>
      <trkpt lat="45.69166" lon="3.16824">
        <ele>403.4</ele>
        <time>2024-08-11T10:17:16Z</time>
      </trkpt>
      <trkpt lat="45.69173" lon="3.16818">
        <ele>403.4</ele>
        <time>2024-08-11T10:17:17Z</time>
      </trkpt>
      <trkpt lat="45.6918" lon="3.16812">
        <ele>403.2</ele>
        <time>2024-08-11T10:17:18Z</time>
      </trkpt>
      <trkpt lat="45.69187" lon="3.16806">
        <ele>403</ele>
        <time>2024-08-11T10:17:19Z</time>
      </trkpt>
      <trkpt lat="45.69193" lon="3.168">
        <ele>403</ele>
        <time>2024-08-11T10:17:20Z</time>
      </trkpt>
      <trkpt lat="45.692" lon="3.16794">
        <ele>402.8</ele>
        <time>2024-08-11T10:17:21Z</time>
      </trkpt>
      <trkpt lat="45.69207" lon="3.16788">
        <ele>402.8</ele>
        <time>2024-08-11T10:17:22Z</time>
      </trkpt>
      <trkpt lat="45.69214" lon="3.16782">
        <ele>402.8</ele>
        <time>2024-08-11T10:17:23Z</time>
      </trkpt>
      <trkpt lat="45.69221" lon="3.16776">
        <ele>402.6</ele>
        <time>2024-08-11T10:17:24Z</time>
      </trkpt>
      <trkpt lat="45.69228" lon="3.1677">
        <ele>402.4</ele>
        <time>2024-08-11T10:17:25Z</time>
      </trkpt>
      <trkpt lat="45.69235" lon="3.16764">
        <ele>402.4</ele>
        <time>2024-08-11T10:17:26Z</time>
      </trkpt>
      <trkpt lat="45.69242" lon="3.16757">
        <ele>402.2</ele>
        <time>2024-08-11T10:17:27Z</time>
      </trkpt>
      <trkpt lat="45.69249" lon="3.16751">
        <ele>402.2</ele>
        <time>2024-08-11T10:17:28Z</time>
      </trkpt>
      <trkpt lat="45.69256" lon="3.16745">
        <ele>402.2</ele>
        <time>2024-08-11T10:17:29Z</time>
      </trkpt>
      <trkpt lat="45.69263" lon="3.16739">
        <ele>402.2</ele>
        <time>2024-08-11T10:17:30Z</time>
      </trkpt>
      <trkpt lat="45.6927" lon="3.16733">
        <ele>402</ele>
        <time>2024-08-11T10:17:31Z</time>
      </trkpt>
      <trkpt lat="45.69276" lon="3.16728">
        <ele>402</ele>
        <time>2024-08-11T10:17:32Z</time>
      </trkpt>
      <trkpt lat="45.69282" lon="3.16722">
        <ele>401.8</ele>
        <time>2024-08-11T10:17:33Z</time>
      </trkpt>
      <trkpt lat="45.69289" lon="3.16716">
        <ele>401.6</ele>
        <time>2024-08-11T10:17:34Z</time>
      </trkpt>
      <trkpt lat="45.69296" lon="3.16711">
        <ele>401.4</ele>
        <time>2024-08-11T10:17:35Z</time>
      </trkpt>
      <trkpt lat="45.69302" lon="3.16705">
        <ele>401.4</ele>
        <time>2024-08-11T10:17:36Z</time>
      </trkpt>
      <trkpt lat="45.69309" lon="3.16699">
        <ele>401.2</ele>
        <time>2024-08-11T10:17:37Z</time>
      </trkpt>
      <trkpt lat="45.69316" lon="3.16693">
        <ele>401</ele>
        <time>2024-08-11T10:17:38Z</time>
      </trkpt>
      <trkpt lat="45.69323" lon="3.16687">
        <ele>401</ele>
        <time>2024-08-11T10:17:39Z</time>
      </trkpt>
      <trkpt lat="45.6933" lon="3.16681">
        <ele>400.8</ele>
        <time>2024-08-11T10:17:40Z</time>
      </trkpt>
      <trkpt lat="45.69337" lon="3.16674">
        <ele>400.6</ele>
        <time>2024-08-11T10:17:41Z</time>
      </trkpt>
      <trkpt lat="45.69344" lon="3.16668">
        <ele>400.6</ele>
        <time>2024-08-11T10:17:42Z</time>
      </trkpt>
      <trkpt lat="45.69351" lon="3.16661">
        <ele>400.4</ele>
        <time>2024-08-11T10:17:43Z</time>
      </trkpt>
      <trkpt lat="45.69359" lon="3.16655">
        <ele>400.2</ele>
        <time>2024-08-11T10:17:44Z</time>
      </trkpt>
      <trkpt lat="45.69367" lon="3.16648">
        <ele>400</ele>
        <time>2024-08-11T10:17:45Z</time>
      </trkpt>
      <trkpt lat="45.69375" lon="3.16641">
        <ele>399.8</ele>
        <time>2024-08-11T10:17:46Z</time>
      </trkpt>
      <trkpt lat="45.69383" lon="3.16634">
        <ele>399.6</ele>
        <time>2024-08-11T10:17:47Z</time>
      </trkpt>
      <trkpt lat="45.69392" lon="3.16626">
        <ele>399.4</ele>
        <time>2024-08-11T10:17:48Z</time>
      </trkpt>
      <trkpt lat="45.694" lon="3.16618">
        <ele>399.2</ele>
        <time>2024-08-11T10:17:49Z</time>
      </trkpt>
      <trkpt lat="45.69409" lon="3.1661">
        <ele>398.8</ele>
        <time>2024-08-11T10:17:50Z</time>
      </trkpt>
      <trkpt lat="45.69419" lon="3.16602">
        <ele>398.6</ele>
        <time>2024-08-11T10:17:51Z</time>
      </trkpt>
      <trkpt lat="45.69428" lon="3.16594">
        <ele>398.2</ele>
        <time>2024-08-11T10:17:52Z</time>
      </trkpt>
      <trkpt lat="45.69438" lon="3.16585">
        <ele>397.8</ele>
        <time>2024-08-11T10:17:53Z</time>
      </trkpt>
      <trkpt lat="45.69447" lon="3.16577">
        <ele>397.4</ele>
        <time>2024-08-11T10:17:54Z</time>
      </trkpt>
      <trkpt lat="45.69456" lon="3.16569">
        <ele>397</ele>
        <time>2024-08-11T10:17:55Z</time>
      </trkpt>
      <trkpt lat="45.69466" lon="3.16564">
        <ele>396.8</ele>
        <time>2024-08-11T10:17:56Z</time>
      </trkpt>
      <trkpt lat="45.69476" lon="3.1656">
        <ele>396.4</ele>
        <time>2024-08-11T10:17:57Z</time>
      </trkpt>
      <trkpt lat="45.69485" lon="3.16555">
        <ele>396</ele>
        <time>2024-08-11T10:17:58Z</time>
      </trkpt>
      <trkpt lat="45.69495" lon="3.16551">
        <ele>395.6</ele>
        <time>2024-08-11T10:17:59Z</time>
      </trkpt>
      <trkpt lat="45.69504" lon="3.16547">
        <ele>395.4</ele>
        <time>2024-08-11T10:18:00Z</time>
      </trkpt>
      <trkpt lat="45.69513" lon="3.16544">
        <ele>395.2</ele>
        <time>2024-08-11T10:18:01Z</time>
      </trkpt>
      <trkpt lat="45.69522" lon="3.16546">
        <ele>394.8</ele>
        <time>2024-08-11T10:18:02Z</time>
      </trkpt>
      <trkpt lat="45.69535" lon="3.16544">
        <ele>394.6</ele>
        <time>2024-08-11T10:18:03Z</time>
      </trkpt>
      <trkpt lat="45.69541" lon="3.16536">
        <ele>394.4</ele>
        <time>2024-08-11T10:18:04Z</time>
      </trkpt>
      <trkpt lat="45.69548" lon="3.16527">
        <ele>394</ele>
        <time>2024-08-11T10:18:05Z</time>
      </trkpt>
      <trkpt lat="45.6955" lon="3.16512">
        <ele>393.8</ele>
        <time>2024-08-11T10:18:06Z</time>
      </trkpt>
      <trkpt lat="45.69554" lon="3.16499">
        <ele>393.4</ele>
        <time>2024-08-11T10:18:07Z</time>
      </trkpt>
      <trkpt lat="45.69561" lon="3.1649">
        <ele>393.2</ele>
        <time>2024-08-11T10:18:08Z</time>
      </trkpt>
      <trkpt lat="45.69567" lon="3.16481">
        <ele>392.8</ele>
        <time>2024-08-11T10:18:09Z</time>
      </trkpt>
      <trkpt lat="45.69574" lon="3.16472">
        <ele>392.6</ele>
        <time>2024-08-11T10:18:10Z</time>
      </trkpt>
      <trkpt lat="45.69582" lon="3.16463">
        <ele>392.2</ele>
        <time>2024-08-11T10:18:11Z</time>
      </trkpt>
      <trkpt lat="45.69589" lon="3.16453">
        <ele>391.8</ele>
        <time>2024-08-11T10:18:12Z</time>
      </trkpt>
      <trkpt lat="45.69598" lon="3.16443">
        <ele>391.6</ele>
        <time>2024-08-11T10:18:13Z</time>
      </trkpt>
      <trkpt lat="45.69607" lon="3.16435">
        <ele>391.2</ele>
        <time>2024-08-11T10:18:14Z</time>
      </trkpt>
      <trkpt lat="45.69616" lon="3.16428">
        <ele>390.8</ele>
        <time>2024-08-11T10:18:15Z</time>
      </trkpt>
      <trkpt lat="45.69625" lon="3.1642">
        <ele>390.6</ele>
        <time>2024-08-11T10:18:16Z</time>
      </trkpt>
      <trkpt lat="45.69634" lon="3.16412">
        <ele>390.2</ele>
        <time>2024-08-11T10:18:17Z</time>
      </trkpt>
      <trkpt lat="45.69643" lon="3.16404">
        <ele>389.8</ele>
        <time>2024-08-11T10:18:18Z</time>
      </trkpt>
      <trkpt lat="45.69652" lon="3.16396">
        <ele>389.6</ele>
        <time>2024-08-11T10:18:19Z</time>
      </trkpt>
      <trkpt lat="45.69661" lon="3.16388">
        <ele>389.2</ele>
        <time>2024-08-11T10:18:20Z</time>
      </trkpt>
      <trkpt lat="45.6967" lon="3.16381">
        <ele>388.8</ele>
        <time>2024-08-11T10:18:21Z</time>
      </trkpt>
      <trkpt lat="45.69679" lon="3.16373">
        <ele>388.6</ele>
        <time>2024-08-11T10:18:22Z</time>
      </trkpt>
      <trkpt lat="45.69687" lon="3.16366">
        <ele>388.4</ele>
        <time>2024-08-11T10:18:23Z</time>
      </trkpt>
      <trkpt lat="45.69695" lon="3.16358">
        <ele>388</ele>
        <time>2024-08-11T10:18:24Z</time>
      </trkpt>
      <trkpt lat="45.69703" lon="3.16351">
        <ele>387.8</ele>
        <time>2024-08-11T10:18:25Z</time>
      </trkpt>
      <trkpt lat="45.69711" lon="3.16345">
        <ele>387.6</ele>
        <time>2024-08-11T10:18:26Z</time>
      </trkpt>
      <trkpt lat="45.69719" lon="3.16338">
        <ele>387.2</ele>
        <time>2024-08-11T10:18:27Z</time>
      </trkpt>
      <trkpt lat="45.69726" lon="3.16332">
        <ele>387</ele>
        <time>2024-08-11T10:18:28Z</time>
      </trkpt>
      <trkpt lat="45.69733" lon="3.16325">
        <ele>386.8</ele>
        <time>2024-08-11T10:18:29Z</time>
      </trkpt>
      <trkpt lat="45.69741" lon="3.16319">
        <ele>386.4</ele>
        <time>2024-08-11T10:18:30Z</time>
      </trkpt>
      <trkpt lat="45.69748" lon="3.16312">
        <ele>386.2</ele>
        <time>2024-08-11T10:18:31Z</time>
      </trkpt>
      <trkpt lat="45.69756" lon="3.16306">
        <ele>386</ele>
        <time>2024-08-11T10:18:32Z</time>
      </trkpt>
      <trkpt lat="45.69763" lon="3.163">
        <ele>385.8</ele>
        <time>2024-08-11T10:18:33Z</time>
      </trkpt>
      <trkpt lat="45.69769" lon="3.16294">
        <ele>385.6</ele>
        <time>2024-08-11T10:18:34Z</time>
      </trkpt>
      <trkpt lat="45.69776" lon="3.16288">
        <ele>385.4</ele>
        <time>2024-08-11T10:18:35Z</time>
      </trkpt>
      <trkpt lat="45.69783" lon="3.16282">
        <ele>385</ele>
        <time>2024-08-11T10:18:36Z</time>
      </trkpt>
      <trkpt lat="45.69789" lon="3.16276">
        <ele>384.8</ele>
        <time>2024-08-11T10:18:37Z</time>
      </trkpt>
      <trkpt lat="45.69796" lon="3.1627">
        <ele>384.6</ele>
        <time>2024-08-11T10:18:38Z</time>
      </trkpt>
      <trkpt lat="45.69802" lon="3.16265">
        <ele>384.4</ele>
        <time>2024-08-11T10:18:39Z</time>
      </trkpt>
      <trkpt lat="45.69809" lon="3.16259">
        <ele>384.2</ele>
        <time>2024-08-11T10:18:40Z</time>
      </trkpt>
      <trkpt lat="45.69816" lon="3.16253">
        <ele>384</ele>
        <time>2024-08-11T10:18:41Z</time>
      </trkpt>
      <trkpt lat="45.69822" lon="3.16247">
        <ele>384</ele>
        <time>2024-08-11T10:18:42Z</time>
      </trkpt>
      <trkpt lat="45.69829" lon="3.16242">
        <ele>383.8</ele>
        <time>2024-08-11T10:18:43Z</time>
      </trkpt>
      <trkpt lat="45.69835" lon="3.16236">
        <ele>383.6</ele>
        <time>2024-08-11T10:18:44Z</time>
      </trkpt>
      <trkpt lat="45.69841" lon="3.16231">
        <ele>383.6</ele>
        <time>2024-08-11T10:18:45Z</time>
      </trkpt>
      <trkpt lat="45.69847" lon="3.16226">
        <ele>383.6</ele>
        <time>2024-08-11T10:18:46Z</time>
      </trkpt>
      <trkpt lat="45.69853" lon="3.16221">
        <ele>383.4</ele>
        <time>2024-08-11T10:18:47Z</time>
      </trkpt>
      <trkpt lat="45.69858" lon="3.16216">
        <ele>383.4</ele>
        <time>2024-08-11T10:18:48Z</time>
      </trkpt>
      <trkpt lat="45.69863" lon="3.16211">
        <ele>383.2</ele>
        <time>2024-08-11T10:18:49Z</time>
      </trkpt>
      <trkpt lat="45.69868" lon="3.16207">
        <ele>383.2</ele>
        <time>2024-08-11T10:18:50Z</time>
      </trkpt>
      <trkpt lat="45.69874" lon="3.16202">
        <ele>383</ele>
        <time>2024-08-11T10:18:51Z</time>
      </trkpt>
      <trkpt lat="45.69879" lon="3.16198">
        <ele>383</ele>
        <time>2024-08-11T10:18:52Z</time>
      </trkpt>
      <trkpt lat="45.69884" lon="3.16194">
        <ele>383</ele>
        <time>2024-08-11T10:18:53Z</time>
      </trkpt>
      <trkpt lat="45.69889" lon="3.16189">
        <ele>383</ele>
        <time>2024-08-11T10:18:54Z</time>
      </trkpt>
      <trkpt lat="45.69893" lon="3.16185">
        <ele>383</ele>
        <time>2024-08-11T10:18:55Z</time>
      </trkpt>
      <trkpt lat="45.69898" lon="3.16181">
        <ele>383</ele>
        <time>2024-08-11T10:18:56Z</time>
      </trkpt>
      <trkpt lat="45.69903" lon="3.16177">
        <ele>383</ele>
        <time>2024-08-11T10:18:57Z</time>
      </trkpt>
      <trkpt lat="45.69908" lon="3.16172">
        <ele>383</ele>
        <time>2024-08-11T10:18:58Z</time>
      </trkpt>
      <trkpt lat="45.69913" lon="3.16168">
        <ele>383</ele>
        <time>2024-08-11T10:18:59Z</time>
      </trkpt>
      <trkpt lat="45.69918" lon="3.16164">
        <ele>383</ele>
        <time>2024-08-11T10:19:00Z</time>
      </trkpt>
      <trkpt lat="45.69922" lon="3.16159">
        <ele>383</ele>
        <time>2024-08-11T10:19:01Z</time>
      </trkpt>
      <trkpt lat="45.69927" lon="3.16155">
        <ele>383</ele>
        <time>2024-08-11T10:19:02Z</time>
      </trkpt>
      <trkpt lat="45.69932" lon="3.16151">
        <ele>383</ele>
        <time>2024-08-11T10:19:03Z</time>
      </trkpt>
      <trkpt lat="45.69937" lon="3.16147">
        <ele>383</ele>
        <time>2024-08-11T10:19:04Z</time>
      </trkpt>
      <trkpt lat="45.69941" lon="3.16143">
        <ele>383</ele>
        <time>2024-08-11T10:19:05Z</time>
      </trkpt>
      <trkpt lat="45.69946" lon="3.16139">
        <ele>383</ele>
        <time>2024-08-11T10:19:06Z</time>
      </trkpt>
      <trkpt lat="45.6995" lon="3.16135">
        <ele>383</ele>
        <time>2024-08-11T10:19:07Z</time>
      </trkpt>
      <trkpt lat="45.69954" lon="3.16131">
        <ele>383</ele>
        <time>2024-08-11T10:19:08Z</time>
      </trkpt>
      <trkpt lat="45.69958" lon="3.16128">
        <ele>383</ele>
        <time>2024-08-11T10:19:09Z</time>
      </trkpt>
      <trkpt lat="45.69962" lon="3.16125">
        <ele>382.2</ele>
        <time>2024-08-11T10:19:10Z</time>
      </trkpt>
      <trkpt lat="45.69966" lon="3.16121">
        <ele>382.6</ele>
        <time>2024-08-11T10:19:11Z</time>
      </trkpt>
      <trkpt lat="45.6997" lon="3.16118">
        <ele>382.6</ele>
        <time>2024-08-11T10:19:12Z</time>
      </trkpt>
      <trkpt lat="45.69974" lon="3.16114">
        <ele>382.8</ele>
        <time>2024-08-11T10:19:13Z</time>
      </trkpt>
      <trkpt lat="45.69978" lon="3.16111">
        <ele>383.2</ele>
        <time>2024-08-11T10:19:14Z</time>
      </trkpt>
      <trkpt lat="45.69982" lon="3.16107">
        <ele>383.6</ele>
        <time>2024-08-11T10:19:15Z</time>
      </trkpt>
      <trkpt lat="45.69985" lon="3.16104">
        <ele>383.4</ele>
        <time>2024-08-11T10:19:16Z</time>
      </trkpt>
      <trkpt lat="45.69989" lon="3.16101">
        <ele>383.4</ele>
        <time>2024-08-11T10:19:17Z</time>
      </trkpt>
      <trkpt lat="45.69993" lon="3.16098">
        <ele>383.4</ele>
        <time>2024-08-11T10:19:18Z</time>
      </trkpt>
      <trkpt lat="45.69996" lon="3.16095">
        <ele>383.4</ele>
        <time>2024-08-11T10:19:19Z</time>
      </trkpt>
      <trkpt lat="45.7" lon="3.16092">
        <ele>383.4</ele>
        <time>2024-08-11T10:19:20Z</time>
      </trkpt>
      <trkpt lat="45.70003" lon="3.16089">
        <ele>383.6</ele>
        <time>2024-08-11T10:19:21Z</time>
      </trkpt>
      <trkpt lat="45.70007" lon="3.16085">
        <ele>383.6</ele>
        <time>2024-08-11T10:19:22Z</time>
      </trkpt>
      <trkpt lat="45.7001" lon="3.16083">
        <ele>383.6</ele>
        <time>2024-08-11T10:19:23Z</time>
      </trkpt>
      <trkpt lat="45.70014" lon="3.1608">
        <ele>383.8</ele>
        <time>2024-08-11T10:19:24Z</time>
      </trkpt>
      <trkpt lat="45.70017" lon="3.16077">
        <ele>383.8</ele>
        <time>2024-08-11T10:19:25Z</time>
      </trkpt>
      <trkpt lat="45.70023" lon="3.16072">
        <ele>383.8</ele>
        <time>2024-08-11T10:19:26Z</time>
      </trkpt>
      <trkpt lat="45.70025" lon="3.1607">
        <ele>383.8</ele>
        <time>2024-08-11T10:19:27Z</time>
      </trkpt>
      <trkpt lat="45.70028" lon="3.16067">
        <ele>384</ele>
        <time>2024-08-11T10:19:28Z</time>
      </trkpt>
      <trkpt lat="45.70032" lon="3.16065">
        <ele>384</ele>
        <time>2024-08-11T10:19:29Z</time>
      </trkpt>
      <trkpt lat="45.70036" lon="3.16062">
        <ele>384.2</ele>
        <time>2024-08-11T10:19:30Z</time>
      </trkpt>
      <trkpt lat="45.7004" lon="3.16059">
        <ele>384.2</ele>
        <time>2024-08-11T10:19:31Z</time>
      </trkpt>
      <trkpt lat="45.70044" lon="3.16056">
        <ele>384.2</ele>
        <time>2024-08-11T10:19:32Z</time>
      </trkpt>
      <trkpt lat="45.70048" lon="3.16053">
        <ele>384.2</ele>
        <time>2024-08-11T10:19:33Z</time>
      </trkpt>
      <trkpt lat="45.70052" lon="3.1605">
        <ele>384.2</ele>
        <time>2024-08-11T10:19:34Z</time>
      </trkpt>
      <trkpt lat="45.70056" lon="3.16047">
        <ele>384.4</ele>
        <time>2024-08-11T10:19:35Z</time>
      </trkpt>
      <trkpt lat="45.7006" lon="3.16044">
        <ele>384.4</ele>
        <time>2024-08-11T10:19:36Z</time>
      </trkpt>
      <trkpt lat="45.70063" lon="3.16041">
        <ele>384.4</ele>
        <time>2024-08-11T10:19:37Z</time>
      </trkpt>
      <trkpt lat="45.70068" lon="3.16038">
        <ele>384.4</ele>
        <time>2024-08-11T10:19:38Z</time>
      </trkpt>
      <trkpt lat="45.70072" lon="3.16035">
        <ele>384.4</ele>
        <time>2024-08-11T10:19:39Z</time>
      </trkpt>
      <trkpt lat="45.70076" lon="3.16032">
        <ele>384.6</ele>
        <time>2024-08-11T10:19:40Z</time>
      </trkpt>
      <trkpt lat="45.70078" lon="3.16024">
        <ele>384.6</ele>
        <time>2024-08-11T10:19:41Z</time>
      </trkpt>
      <trkpt lat="45.70082" lon="3.16021">
        <ele>384.8</ele>
        <time>2024-08-11T10:19:42Z</time>
      </trkpt>
      <trkpt lat="45.70086" lon="3.16017">
        <ele>384.8</ele>
        <time>2024-08-11T10:19:43Z</time>
      </trkpt>
      <trkpt lat="45.7009" lon="3.16013">
        <ele>384.8</ele>
        <time>2024-08-11T10:19:44Z</time>
      </trkpt>
      <trkpt lat="45.70094" lon="3.1601">
        <ele>384.8</ele>
        <time>2024-08-11T10:19:45Z</time>
      </trkpt>
      <trkpt lat="45.70099" lon="3.16006">
        <ele>385</ele>
        <time>2024-08-11T10:19:46Z</time>
      </trkpt>
      <trkpt lat="45.70103" lon="3.16002">
        <ele>385</ele>
        <time>2024-08-11T10:19:47Z</time>
      </trkpt>
      <trkpt lat="45.70108" lon="3.15998">
        <ele>385</ele>
        <time>2024-08-11T10:19:48Z</time>
      </trkpt>
      <trkpt lat="45.70112" lon="3.15994">
        <ele>385</ele>
        <time>2024-08-11T10:19:49Z</time>
      </trkpt>
      <trkpt lat="45.70116" lon="3.1599">
        <ele>385</ele>
        <time>2024-08-11T10:19:50Z</time>
      </trkpt>
      <trkpt lat="45.70121" lon="3.15985">
        <ele>385</ele>
        <time>2024-08-11T10:19:51Z</time>
      </trkpt>
      <trkpt lat="45.70126" lon="3.15981">
        <ele>385</ele>
        <time>2024-08-11T10:19:52Z</time>
      </trkpt>
      <trkpt lat="45.70131" lon="3.15977">
        <ele>385</ele>
        <time>2024-08-11T10:19:53Z</time>
      </trkpt>
      <trkpt lat="45.70136" lon="3.15972">
        <ele>385.2</ele>
        <time>2024-08-11T10:19:54Z</time>
      </trkpt>
      <trkpt lat="45.7014" lon="3.15968">
        <ele>385.2</ele>
        <time>2024-08-11T10:19:55Z</time>
      </trkpt>
      <trkpt lat="45.70145" lon="3.15964">
        <ele>385.2</ele>
        <time>2024-08-11T10:19:56Z</time>
      </trkpt>
      <trkpt lat="45.70151" lon="3.15959">
        <ele>385.2</ele>
        <time>2024-08-11T10:19:57Z</time>
      </trkpt>
      <trkpt lat="45.70156" lon="3.15954">
        <ele>385.2</ele>
        <time>2024-08-11T10:19:58Z</time>
      </trkpt>
      <trkpt lat="45.70162" lon="3.15949">
        <ele>385.2</ele>
        <time>2024-08-11T10:19:59Z</time>
      </trkpt>
      <trkpt lat="45.70168" lon="3.15944">
        <ele>385.2</ele>
        <time>2024-08-11T10:20:00Z</time>
      </trkpt>
      <trkpt lat="45.70173" lon="3.15938">
        <ele>385.2</ele>
        <time>2024-08-11T10:20:01Z</time>
      </trkpt>
      <trkpt lat="45.7018" lon="3.15933">
        <ele>385</ele>
        <time>2024-08-11T10:20:02Z</time>
      </trkpt>
      <trkpt lat="45.70186" lon="3.15927">
        <ele>385</ele>
        <time>2024-08-11T10:20:03Z</time>
      </trkpt>
      <trkpt lat="45.70192" lon="3.15922">
        <ele>385.4</ele>
        <time>2024-08-11T10:20:04Z</time>
      </trkpt>
      <trkpt lat="45.70199" lon="3.15916">
        <ele>384.8</ele>
        <time>2024-08-11T10:20:05Z</time>
      </trkpt>
      <trkpt lat="45.70206" lon="3.15911">
        <ele>384.6</ele>
        <time>2024-08-11T10:20:06Z</time>
      </trkpt>
      <trkpt lat="45.70213" lon="3.15905">
        <ele>384.2</ele>
        <time>2024-08-11T10:20:07Z</time>
      </trkpt>
      <trkpt lat="45.7022" lon="3.15899">
        <ele>384.6</ele>
        <time>2024-08-11T10:20:08Z</time>
      </trkpt>
      <trkpt lat="45.70227" lon="3.15893">
        <ele>384.4</ele>
        <time>2024-08-11T10:20:09Z</time>
      </trkpt>
      <trkpt lat="45.70234" lon="3.15886">
        <ele>384.4</ele>
        <time>2024-08-11T10:20:10Z</time>
      </trkpt>
      <trkpt lat="45.70242" lon="3.1588">
        <ele>384.2</ele>
        <time>2024-08-11T10:20:11Z</time>
      </trkpt>
      <trkpt lat="45.70249" lon="3.15873">
        <ele>384.2</ele>
        <time>2024-08-11T10:20:12Z</time>
      </trkpt>
      <trkpt lat="45.70256" lon="3.15867">
        <ele>384</ele>
        <time>2024-08-11T10:20:13Z</time>
      </trkpt>
      <trkpt lat="45.70264" lon="3.1586">
        <ele>384</ele>
        <time>2024-08-11T10:20:14Z</time>
      </trkpt>
      <trkpt lat="45.70271" lon="3.15853">
        <ele>383.8</ele>
        <time>2024-08-11T10:20:15Z</time>
      </trkpt>
      <trkpt lat="45.70279" lon="3.15846">
        <ele>383.8</ele>
        <time>2024-08-11T10:20:16Z</time>
      </trkpt>
      <trkpt lat="45.70287" lon="3.15839">
        <ele>383.6</ele>
        <time>2024-08-11T10:20:17Z</time>
      </trkpt>
      <trkpt lat="45.70295" lon="3.15834">
        <ele>383.6</ele>
        <time>2024-08-11T10:20:18Z</time>
      </trkpt>
      <trkpt lat="45.70303" lon="3.15828">
        <ele>383.4</ele>
        <time>2024-08-11T10:20:19Z</time>
      </trkpt>
      <trkpt lat="45.70311" lon="3.15823">
        <ele>383.4</ele>
        <time>2024-08-11T10:20:20Z</time>
      </trkpt>
      <trkpt lat="45.70319" lon="3.15818">
        <ele>383.4</ele>
        <time>2024-08-11T10:20:21Z</time>
      </trkpt>
      <trkpt lat="45.70327" lon="3.15813">
        <ele>383.4</ele>
        <time>2024-08-11T10:20:22Z</time>
      </trkpt>
      <trkpt lat="45.70335" lon="3.15808">
        <ele>383.4</ele>
        <time>2024-08-11T10:20:23Z</time>
      </trkpt>
      <trkpt lat="45.70343" lon="3.15803">
        <ele>383.4</ele>
        <time>2024-08-11T10:20:24Z</time>
      </trkpt>
      <trkpt lat="45.7035" lon="3.15798">
        <ele>383.4</ele>
        <time>2024-08-11T10:20:25Z</time>
      </trkpt>
      <trkpt lat="45.70357" lon="3.15794">
        <ele>383.4</ele>
        <time>2024-08-11T10:20:26Z</time>
      </trkpt>
      <trkpt lat="45.70365" lon="3.15791">
        <ele>383.4</ele>
        <time>2024-08-11T10:20:27Z</time>
      </trkpt>
      <trkpt lat="45.70373" lon="3.15787">
        <ele>383.4</ele>
        <time>2024-08-11T10:20:28Z</time>
      </trkpt>
      <trkpt lat="45.7038" lon="3.15784">
        <ele>383.4</ele>
        <time>2024-08-11T10:20:29Z</time>
      </trkpt>
      <trkpt lat="45.70387" lon="3.15782">
        <ele>383.4</ele>
        <time>2024-08-11T10:20:30Z</time>
      </trkpt>
      <trkpt lat="45.70394" lon="3.15779">
        <ele>383.4</ele>
        <time>2024-08-11T10:20:31Z</time>
      </trkpt>
      <trkpt lat="45.704" lon="3.15776">
        <ele>383.6</ele>
        <time>2024-08-11T10:20:32Z</time>
      </trkpt>
      <trkpt lat="45.70406" lon="3.15774">
        <ele>383.6</ele>
        <time>2024-08-11T10:20:33Z</time>
      </trkpt>
      <trkpt lat="45.70412" lon="3.15771">
        <ele>383.6</ele>
        <time>2024-08-11T10:20:34Z</time>
      </trkpt>
      <trkpt lat="45.70418" lon="3.15769">
        <ele>383.6</ele>
        <time>2024-08-11T10:20:35Z</time>
      </trkpt>
      <trkpt lat="45.70423" lon="3.15767">
        <ele>383.6</ele>
        <time>2024-08-11T10:20:36Z</time>
      </trkpt>
      <trkpt lat="45.70428" lon="3.15765">
        <ele>383</ele>
        <time>2024-08-11T10:20:37Z</time>
      </trkpt>
      <trkpt lat="45.70432" lon="3.15763">
        <ele>383.4</ele>
        <time>2024-08-11T10:20:38Z</time>
      </trkpt>
      <trkpt lat="45.70437" lon="3.15761">
        <ele>383.6</ele>
        <time>2024-08-11T10:20:39Z</time>
      </trkpt>
      <trkpt lat="45.70441" lon="3.15759">
        <ele>383.6</ele>
        <time>2024-08-11T10:20:40Z</time>
      </trkpt>
      <trkpt lat="45.70446" lon="3.15758">
        <ele>383.4</ele>
        <time>2024-08-11T10:20:41Z</time>
      </trkpt>
      <trkpt lat="45.7045" lon="3.15756">
        <ele>383.6</ele>
        <time>2024-08-11T10:20:42Z</time>
      </trkpt>
      <trkpt lat="45.70455" lon="3.15755">
        <ele>383.4</ele>
        <time>2024-08-11T10:20:43Z</time>
      </trkpt>
      <trkpt lat="45.70459" lon="3.15754">
        <ele>383.4</ele>
        <time>2024-08-11T10:20:44Z</time>
      </trkpt>
      <trkpt lat="45.70463" lon="3.15753">
        <ele>383.2</ele>
        <time>2024-08-11T10:20:45Z</time>
      </trkpt>
      <trkpt lat="45.70467" lon="3.15752">
        <ele>383.4</ele>
        <time>2024-08-11T10:20:46Z</time>
      </trkpt>
      <trkpt lat="45.70471" lon="3.15751">
        <ele>383.4</ele>
        <time>2024-08-11T10:20:47Z</time>
      </trkpt>
      <trkpt lat="45.70475" lon="3.1575">
        <ele>383.2</ele>
        <time>2024-08-11T10:20:48Z</time>
      </trkpt>
      <trkpt lat="45.70479" lon="3.15749">
        <ele>383.2</ele>
        <time>2024-08-11T10:20:49Z</time>
      </trkpt>
      <trkpt lat="45.70482" lon="3.15748">
        <ele>383.2</ele>
        <time>2024-08-11T10:20:50Z</time>
      </trkpt>
      <trkpt lat="45.70485" lon="3.15747">
        <ele>383.2</ele>
        <time>2024-08-11T10:20:51Z</time>
      </trkpt>
      <trkpt lat="45.70489" lon="3.15747">
        <ele>383.2</ele>
        <time>2024-08-11T10:20:52Z</time>
      </trkpt>
      <trkpt lat="45.70492" lon="3.15746">
        <ele>383.2</ele>
        <time>2024-08-11T10:20:53Z</time>
      </trkpt>
      <trkpt lat="45.70496" lon="3.15745">
        <ele>383.2</ele>
        <time>2024-08-11T10:20:54Z</time>
      </trkpt>
      <trkpt lat="45.705" lon="3.15744">
        <ele>383</ele>
        <time>2024-08-11T10:20:55Z</time>
      </trkpt>
      <trkpt lat="45.70504" lon="3.15743">
        <ele>383.2</ele>
        <time>2024-08-11T10:20:56Z</time>
      </trkpt>
      <trkpt lat="45.70507" lon="3.15742">
        <ele>383</ele>
        <time>2024-08-11T10:20:57Z</time>
      </trkpt>
      <trkpt lat="45.70511" lon="3.15741">
        <ele>383.2</ele>
        <time>2024-08-11T10:20:58Z</time>
      </trkpt>
      <trkpt lat="45.70514" lon="3.1574">
        <ele>383.2</ele>
        <time>2024-08-11T10:20:59Z</time>
      </trkpt>
      <trkpt lat="45.70516" lon="3.15739">
        <ele>383.2</ele>
        <time>2024-08-11T10:21:00Z</time>
      </trkpt>
      <trkpt lat="45.70519" lon="3.15739">
        <ele>383.4</ele>
        <time>2024-08-11T10:21:01Z</time>
      </trkpt>
      <trkpt lat="45.70523" lon="3.15738">
        <ele>383.6</ele>
        <time>2024-08-11T10:21:02Z</time>
      </trkpt>
      <trkpt lat="45.70526" lon="3.15737">
        <ele>383.6</ele>
        <time>2024-08-11T10:21:03Z</time>
      </trkpt>
      <trkpt lat="45.70529" lon="3.15736">
        <ele>383.8</ele>
        <time>2024-08-11T10:21:04Z</time>
      </trkpt>
      <trkpt lat="45.70532" lon="3.15735">
        <ele>384</ele>
        <time>2024-08-11T10:21:05Z</time>
      </trkpt>
      <trkpt lat="45.70535" lon="3.15735">
        <ele>384</ele>
        <time>2024-08-11T10:21:06Z</time>
      </trkpt>
      <trkpt lat="45.70538" lon="3.15734">
        <ele>384</ele>
        <time>2024-08-11T10:21:07Z</time>
      </trkpt>
      <trkpt lat="45.70541" lon="3.15733">
        <ele>384.2</ele>
        <time>2024-08-11T10:21:08Z</time>
      </trkpt>
      <trkpt lat="45.70544" lon="3.15732">
        <ele>384.2</ele>
        <time>2024-08-11T10:21:09Z</time>
      </trkpt>
      <trkpt lat="45.70546" lon="3.15732">
        <ele>384.4</ele>
        <time>2024-08-11T10:21:10Z</time>
      </trkpt>
      <trkpt lat="45.70549" lon="3.15731">
        <ele>384.4</ele>
        <time>2024-08-11T10:21:11Z</time>
      </trkpt>
      <trkpt lat="45.70552" lon="3.1573">
        <ele>384.4</ele>
        <time>2024-08-11T10:21:12Z</time>
      </trkpt>
      <trkpt lat="45.70554" lon="3.1573">
        <ele>384.6</ele>
        <time>2024-08-11T10:21:13Z</time>
      </trkpt>
      <trkpt lat="45.70557" lon="3.15729">
        <ele>384.6</ele>
        <time>2024-08-11T10:21:14Z</time>
      </trkpt>
      <trkpt lat="45.7056" lon="3.15728">
        <ele>384.6</ele>
        <time>2024-08-11T10:21:15Z</time>
      </trkpt>
      <trkpt lat="45.70563" lon="3.15727">
        <ele>384.8</ele>
        <time>2024-08-11T10:21:16Z</time>
      </trkpt>
      <trkpt lat="45.70565" lon="3.15727">
        <ele>384.8</ele>
        <time>2024-08-11T10:21:17Z</time>
      </trkpt>
      <trkpt lat="45.70568" lon="3.15726">
        <ele>385</ele>
        <time>2024-08-11T10:21:18Z</time>
      </trkpt>
      <trkpt lat="45.70571" lon="3.15725">
        <ele>385</ele>
        <time>2024-08-11T10:21:19Z</time>
      </trkpt>
      <trkpt lat="45.70573" lon="3.15725">
        <ele>385.2</ele>
        <time>2024-08-11T10:21:20Z</time>
      </trkpt>
      <trkpt lat="45.70576" lon="3.15724">
        <ele>385.2</ele>
        <time>2024-08-11T10:21:21Z</time>
      </trkpt>
      <trkpt lat="45.70579" lon="3.15723">
        <ele>385.4</ele>
        <time>2024-08-11T10:21:22Z</time>
      </trkpt>
      <trkpt lat="45.70582" lon="3.15723">
        <ele>385.4</ele>
        <time>2024-08-11T10:21:23Z</time>
      </trkpt>
      <trkpt lat="45.70585" lon="3.15722">
        <ele>385.6</ele>
        <time>2024-08-11T10:21:24Z</time>
      </trkpt>
      <trkpt lat="45.70587" lon="3.15721">
        <ele>385.6</ele>
        <time>2024-08-11T10:21:25Z</time>
      </trkpt>
      <trkpt lat="45.7059" lon="3.1572">
        <ele>385.6</ele>
        <time>2024-08-11T10:21:26Z</time>
      </trkpt>
      <trkpt lat="45.70594" lon="3.15719">
        <ele>385.8</ele>
        <time>2024-08-11T10:21:27Z</time>
      </trkpt>
      <trkpt lat="45.70596" lon="3.15719">
        <ele>386</ele>
        <time>2024-08-11T10:21:28Z</time>
      </trkpt>
      <trkpt lat="45.70599" lon="3.15718">
        <ele>386.2</ele>
        <time>2024-08-11T10:21:29Z</time>
      </trkpt>
      <trkpt lat="45.70603" lon="3.15717">
        <ele>386.4</ele>
        <time>2024-08-11T10:21:30Z</time>
      </trkpt>
      <trkpt lat="45.70606" lon="3.15716">
        <ele>386.4</ele>
        <time>2024-08-11T10:21:31Z</time>
      </trkpt>
      <trkpt lat="45.7061" lon="3.15715">
        <ele>386.6</ele>
        <time>2024-08-11T10:21:32Z</time>
      </trkpt>
      <trkpt lat="45.70613" lon="3.15715">
        <ele>386.8</ele>
        <time>2024-08-11T10:21:33Z</time>
      </trkpt>
      <trkpt lat="45.70616" lon="3.15714">
        <ele>386.8</ele>
        <time>2024-08-11T10:21:34Z</time>
      </trkpt>
      <trkpt lat="45.70619" lon="3.15713">
        <ele>387</ele>
        <time>2024-08-11T10:21:35Z</time>
      </trkpt>
      <trkpt lat="45.70623" lon="3.15712">
        <ele>387</ele>
        <time>2024-08-11T10:21:36Z</time>
      </trkpt>
      <trkpt lat="45.70626" lon="3.15711">
        <ele>387.2</ele>
        <time>2024-08-11T10:21:37Z</time>
      </trkpt>
      <trkpt lat="45.70629" lon="3.1571">
        <ele>387.2</ele>
        <time>2024-08-11T10:21:38Z</time>
      </trkpt>
      <trkpt lat="45.70632" lon="3.1571">
        <ele>387.4</ele>
        <time>2024-08-11T10:21:39Z</time>
      </trkpt>
      <trkpt lat="45.70635" lon="3.15709">
        <ele>387.4</ele>
        <time>2024-08-11T10:21:40Z</time>
      </trkpt>
      <trkpt lat="45.70645" lon="3.15718">
        <ele>387.6</ele>
        <time>2024-08-11T10:21:41Z</time>
      </trkpt>
      <trkpt lat="45.70646" lon="3.15722">
        <ele>387.8</ele>
        <time>2024-08-11T10:21:42Z</time>
      </trkpt>
      <trkpt lat="45.70647" lon="3.15727">
        <ele>387.8</ele>
        <time>2024-08-11T10:21:43Z</time>
      </trkpt>
      <trkpt lat="45.70648" lon="3.15731">
        <ele>388</ele>
        <time>2024-08-11T10:21:44Z</time>
      </trkpt>
      <trkpt lat="45.70649" lon="3.15736">
        <ele>388</ele>
        <time>2024-08-11T10:21:45Z</time>
      </trkpt>
      <trkpt lat="45.7065" lon="3.15742">
        <ele>388.2</ele>
        <time>2024-08-11T10:21:46Z</time>
      </trkpt>
      <trkpt lat="45.70652" lon="3.15747">
        <ele>388.2</ele>
        <time>2024-08-11T10:21:47Z</time>
      </trkpt>
      <trkpt lat="45.70653" lon="3.15753">
        <ele>388.2</ele>
        <time>2024-08-11T10:21:48Z</time>
      </trkpt>
      <trkpt lat="45.70654" lon="3.15759">
        <ele>388.4</ele>
        <time>2024-08-11T10:21:49Z</time>
      </trkpt>
      <trkpt lat="45.70656" lon="3.15766">
        <ele>388.4</ele>
        <time>2024-08-11T10:21:50Z</time>
      </trkpt>
      <trkpt lat="45.70657" lon="3.15772">
        <ele>388.6</ele>
        <time>2024-08-11T10:21:51Z</time>
      </trkpt>
      <trkpt lat="45.70659" lon="3.1578">
        <ele>388.6</ele>
        <time>2024-08-11T10:21:52Z</time>
      </trkpt>
      <trkpt lat="45.7066" lon="3.15786">
        <ele>388.6</ele>
        <time>2024-08-11T10:21:53Z</time>
      </trkpt>
      <trkpt lat="45.70663" lon="3.15793">
        <ele>388.8</ele>
        <time>2024-08-11T10:21:54Z</time>
      </trkpt>
      <trkpt lat="45.70665" lon="3.158">
        <ele>388.8</ele>
        <time>2024-08-11T10:21:55Z</time>
      </trkpt>
      <trkpt lat="45.70667" lon="3.15807">
        <ele>389</ele>
        <time>2024-08-11T10:21:56Z</time>
      </trkpt>
      <trkpt lat="45.7067" lon="3.15814">
        <ele>389</ele>
        <time>2024-08-11T10:21:57Z</time>
      </trkpt>
      <trkpt lat="45.70672" lon="3.15821">
        <ele>389.2</ele>
        <time>2024-08-11T10:21:58Z</time>
      </trkpt>
      <trkpt lat="45.70674" lon="3.15828">
        <ele>389.2</ele>
        <time>2024-08-11T10:21:59Z</time>
      </trkpt>
      <trkpt lat="45.70677" lon="3.15835">
        <ele>389.4</ele>
        <time>2024-08-11T10:22:00Z</time>
      </trkpt>
      <trkpt lat="45.7068" lon="3.15843">
        <ele>389.6</ele>
        <time>2024-08-11T10:22:01Z</time>
      </trkpt>
      <trkpt lat="45.70682" lon="3.15851">
        <ele>389.6</ele>
        <time>2024-08-11T10:22:02Z</time>
      </trkpt>
      <trkpt lat="45.70685" lon="3.15858">
        <ele>389.8</ele>
        <time>2024-08-11T10:22:03Z</time>
      </trkpt>
      <trkpt lat="45.70687" lon="3.15866">
        <ele>389.8</ele>
        <time>2024-08-11T10:22:04Z</time>
      </trkpt>
      <trkpt lat="45.7069" lon="3.15874">
        <ele>390</ele>
        <time>2024-08-11T10:22:05Z</time>
      </trkpt>
      <trkpt lat="45.70693" lon="3.15881">
        <ele>390</ele>
        <time>2024-08-11T10:22:06Z</time>
      </trkpt>
      <trkpt lat="45.70696" lon="3.15889">
        <ele>390</ele>
        <time>2024-08-11T10:22:07Z</time>
      </trkpt>
      <trkpt lat="45.70699" lon="3.15897">
        <ele>390</ele>
        <time>2024-08-11T10:22:08Z</time>
      </trkpt>
      <trkpt lat="45.70702" lon="3.15904">
        <ele>390.2</ele>
        <time>2024-08-11T10:22:09Z</time>
      </trkpt>
      <trkpt lat="45.70705" lon="3.15912">
        <ele>390.2</ele>
        <time>2024-08-11T10:22:10Z</time>
      </trkpt>
      <trkpt lat="45.70707" lon="3.1592">
        <ele>390.2</ele>
        <time>2024-08-11T10:22:11Z</time>
      </trkpt>
      <trkpt lat="45.7071" lon="3.15928">
        <ele>390.2</ele>
        <time>2024-08-11T10:22:12Z</time>
      </trkpt>
      <trkpt lat="45.70713" lon="3.15936">
        <ele>390.4</ele>
        <time>2024-08-11T10:22:13Z</time>
      </trkpt>
      <trkpt lat="45.70716" lon="3.15944">
        <ele>390.4</ele>
        <time>2024-08-11T10:22:14Z</time>
      </trkpt>
      <trkpt lat="45.70719" lon="3.15951">
        <ele>390.4</ele>
        <time>2024-08-11T10:22:15Z</time>
      </trkpt>
      <trkpt lat="45.70722" lon="3.15959">
        <ele>390.4</ele>
        <time>2024-08-11T10:22:16Z</time>
      </trkpt>
      <trkpt lat="45.70725" lon="3.15967">
        <ele>390.6</ele>
        <time>2024-08-11T10:22:17Z</time>
      </trkpt>
      <trkpt lat="45.70727" lon="3.15975">
        <ele>390.6</ele>
        <time>2024-08-11T10:22:18Z</time>
      </trkpt>
      <trkpt lat="45.7073" lon="3.15983">
        <ele>390.6</ele>
        <time>2024-08-11T10:22:19Z</time>
      </trkpt>
      <trkpt lat="45.70733" lon="3.15991">
        <ele>390.6</ele>
        <time>2024-08-11T10:22:20Z</time>
      </trkpt>
      <trkpt lat="45.70736" lon="3.15998">
        <ele>390.6</ele>
        <time>2024-08-11T10:22:21Z</time>
      </trkpt>
      <trkpt lat="45.70739" lon="3.16006">
        <ele>390.6</ele>
        <time>2024-08-11T10:22:22Z</time>
      </trkpt>
      <trkpt lat="45.70741" lon="3.16014">
        <ele>390.8</ele>
        <time>2024-08-11T10:22:23Z</time>
      </trkpt>
      <trkpt lat="45.70744" lon="3.16022">
        <ele>390.8</ele>
        <time>2024-08-11T10:22:24Z</time>
      </trkpt>
      <trkpt lat="45.70747" lon="3.1603">
        <ele>390.8</ele>
        <time>2024-08-11T10:22:25Z</time>
      </trkpt>
      <trkpt lat="45.7075" lon="3.16038">
        <ele>391</ele>
        <time>2024-08-11T10:22:26Z</time>
      </trkpt>
      <trkpt lat="45.70752" lon="3.16046">
        <ele>391</ele>
        <time>2024-08-11T10:22:27Z</time>
      </trkpt>
      <trkpt lat="45.70755" lon="3.16053">
        <ele>391</ele>
        <time>2024-08-11T10:22:28Z</time>
      </trkpt>
      <trkpt lat="45.70758" lon="3.16061">
        <ele>391</ele>
        <time>2024-08-11T10:22:29Z</time>
      </trkpt>
      <trkpt lat="45.70761" lon="3.16069">
        <ele>391</ele>
        <time>2024-08-11T10:22:30Z</time>
      </trkpt>
      <trkpt lat="45.70763" lon="3.16077">
        <ele>391.2</ele>
        <time>2024-08-11T10:22:31Z</time>
      </trkpt>
      <trkpt lat="45.70766" lon="3.16085">
        <ele>391.2</ele>
        <time>2024-08-11T10:22:32Z</time>
      </trkpt>
      <trkpt lat="45.70769" lon="3.16093">
        <ele>391.2</ele>
        <time>2024-08-11T10:22:33Z</time>
      </trkpt>
      <trkpt lat="45.70771" lon="3.16101">
        <ele>391.2</ele>
        <time>2024-08-11T10:22:34Z</time>
      </trkpt>
      <trkpt lat="45.70774" lon="3.16109">
        <ele>391.2</ele>
        <time>2024-08-11T10:22:35Z</time>
      </trkpt>
      <trkpt lat="45.70776" lon="3.16117">
        <ele>391.4</ele>
        <time>2024-08-11T10:22:36Z</time>
      </trkpt>
      <trkpt lat="45.70779" lon="3.16126">
        <ele>391.4</ele>
        <time>2024-08-11T10:22:37Z</time>
      </trkpt>
      <trkpt lat="45.70782" lon="3.16134">
        <ele>391.4</ele>
        <time>2024-08-11T10:22:38Z</time>
      </trkpt>
      <trkpt lat="45.70785" lon="3.16141">
        <ele>391.6</ele>
        <time>2024-08-11T10:22:39Z</time>
      </trkpt>
      <trkpt lat="45.70787" lon="3.16149">
        <ele>391.6</ele>
        <time>2024-08-11T10:22:40Z</time>
      </trkpt>
      <trkpt lat="45.7079" lon="3.16158">
        <ele>391.6</ele>
        <time>2024-08-11T10:22:41Z</time>
      </trkpt>
      <trkpt lat="45.70793" lon="3.16166">
        <ele>391.6</ele>
        <time>2024-08-11T10:22:42Z</time>
      </trkpt>
      <trkpt lat="45.70796" lon="3.16174">
        <ele>391.6</ele>
        <time>2024-08-11T10:22:43Z</time>
      </trkpt>
      <trkpt lat="45.70799" lon="3.16182">
        <ele>391.6</ele>
        <time>2024-08-11T10:22:44Z</time>
      </trkpt>
      <trkpt lat="45.70802" lon="3.1619">
        <ele>391.6</ele>
        <time>2024-08-11T10:22:45Z</time>
      </trkpt>
      <trkpt lat="45.70805" lon="3.16198">
        <ele>391.6</ele>
        <time>2024-08-11T10:22:46Z</time>
      </trkpt>
      <trkpt lat="45.70807" lon="3.16206">
        <ele>391.6</ele>
        <time>2024-08-11T10:22:47Z</time>
      </trkpt>
      <trkpt lat="45.7081" lon="3.16214">
        <ele>391.6</ele>
        <time>2024-08-11T10:22:48Z</time>
      </trkpt>
      <trkpt lat="45.70813" lon="3.16222">
        <ele>391.8</ele>
        <time>2024-08-11T10:22:49Z</time>
      </trkpt>
      <trkpt lat="45.70816" lon="3.1623">
        <ele>391.8</ele>
        <time>2024-08-11T10:22:50Z</time>
      </trkpt>
      <trkpt lat="45.70819" lon="3.16238">
        <ele>391.8</ele>
        <time>2024-08-11T10:22:51Z</time>
      </trkpt>
      <trkpt lat="45.70822" lon="3.16246">
        <ele>391.8</ele>
        <time>2024-08-11T10:22:52Z</time>
      </trkpt>
      <trkpt lat="45.70825" lon="3.16254">
        <ele>391.8</ele>
        <time>2024-08-11T10:22:53Z</time>
      </trkpt>
      <trkpt lat="45.70827" lon="3.16262">
        <ele>391.8</ele>
        <time>2024-08-11T10:22:54Z</time>
      </trkpt>
      <trkpt lat="45.7083" lon="3.16269">
        <ele>391.6</ele>
        <time>2024-08-11T10:22:55Z</time>
      </trkpt>
      <trkpt lat="45.70833" lon="3.16276">
        <ele>391.6</ele>
        <time>2024-08-11T10:22:56Z</time>
      </trkpt>
      <trkpt lat="45.70836" lon="3.16285">
        <ele>391.6</ele>
        <time>2024-08-11T10:22:57Z</time>
      </trkpt>
      <trkpt lat="45.70838" lon="3.16292">
        <ele>391.6</ele>
        <time>2024-08-11T10:22:58Z</time>
      </trkpt>
      <trkpt lat="45.70841" lon="3.163">
        <ele>391.6</ele>
        <time>2024-08-11T10:22:59Z</time>
      </trkpt>
      <trkpt lat="45.70844" lon="3.16307">
        <ele>391.6</ele>
        <time>2024-08-11T10:23:00Z</time>
      </trkpt>
      <trkpt lat="45.70847" lon="3.16315">
        <ele>391.6</ele>
        <time>2024-08-11T10:23:01Z</time>
      </trkpt>
      <trkpt lat="45.70849" lon="3.16322">
        <ele>391.6</ele>
        <time>2024-08-11T10:23:02Z</time>
      </trkpt>
      <trkpt lat="45.70852" lon="3.1633">
        <ele>391.6</ele>
        <time>2024-08-11T10:23:03Z</time>
      </trkpt>
      <trkpt lat="45.70855" lon="3.16338">
        <ele>391.6</ele>
        <time>2024-08-11T10:23:04Z</time>
      </trkpt>
      <trkpt lat="45.70857" lon="3.16345">
        <ele>391.6</ele>
        <time>2024-08-11T10:23:05Z</time>
      </trkpt>
      <trkpt lat="45.7086" lon="3.16353">
        <ele>391.6</ele>
        <time>2024-08-11T10:23:06Z</time>
      </trkpt>
      <trkpt lat="45.70863" lon="3.1636">
        <ele>391.6</ele>
        <time>2024-08-11T10:23:07Z</time>
      </trkpt>
      <trkpt lat="45.70866" lon="3.16368">
        <ele>391.8</ele>
        <time>2024-08-11T10:23:08Z</time>
      </trkpt>
      <trkpt lat="45.70869" lon="3.16376">
        <ele>391.8</ele>
        <time>2024-08-11T10:23:09Z</time>
      </trkpt>
      <trkpt lat="45.70871" lon="3.16384">
        <ele>391.8</ele>
        <time>2024-08-11T10:23:10Z</time>
      </trkpt>
      <trkpt lat="45.70874" lon="3.16392">
        <ele>391.8</ele>
        <time>2024-08-11T10:23:11Z</time>
      </trkpt>
      <trkpt lat="45.70877" lon="3.164">
        <ele>391.8</ele>
        <time>2024-08-11T10:23:12Z</time>
      </trkpt>
      <trkpt lat="45.7088" lon="3.16408">
        <ele>391.8</ele>
        <time>2024-08-11T10:23:13Z</time>
      </trkpt>
      <trkpt lat="45.70883" lon="3.16415">
        <ele>391.8</ele>
        <time>2024-08-11T10:23:14Z</time>
      </trkpt>
      <trkpt lat="45.70885" lon="3.16423">
        <ele>391.8</ele>
        <time>2024-08-11T10:23:15Z</time>
      </trkpt>
      <trkpt lat="45.70888" lon="3.1643">
        <ele>391.8</ele>
        <time>2024-08-11T10:23:16Z</time>
      </trkpt>
      <trkpt lat="45.7089" lon="3.16437">
        <ele>391.6</ele>
        <time>2024-08-11T10:23:17Z</time>
      </trkpt>
      <trkpt lat="45.70893" lon="3.16445">
        <ele>391.6</ele>
        <time>2024-08-11T10:23:18Z</time>
      </trkpt>
      <trkpt lat="45.70896" lon="3.16453">
        <ele>391.6</ele>
        <time>2024-08-11T10:23:19Z</time>
      </trkpt>
      <trkpt lat="45.70899" lon="3.16461">
        <ele>391.6</ele>
        <time>2024-08-11T10:23:20Z</time>
      </trkpt>
      <trkpt lat="45.70902" lon="3.16469">
        <ele>391.6</ele>
        <time>2024-08-11T10:23:21Z</time>
      </trkpt>
      <trkpt lat="45.70905" lon="3.16478">
        <ele>391.6</ele>
        <time>2024-08-11T10:23:22Z</time>
      </trkpt>
      <trkpt lat="45.70907" lon="3.16486">
        <ele>391.6</ele>
        <time>2024-08-11T10:23:23Z</time>
      </trkpt>
      <trkpt lat="45.70909" lon="3.16495">
        <ele>391.6</ele>
        <time>2024-08-11T10:23:24Z</time>
      </trkpt>
      <trkpt lat="45.70912" lon="3.16504">
        <ele>391.6</ele>
        <time>2024-08-11T10:23:25Z</time>
      </trkpt>
      <trkpt lat="45.70914" lon="3.16512">
        <ele>391.6</ele>
        <time>2024-08-11T10:23:26Z</time>
      </trkpt>
      <trkpt lat="45.70916" lon="3.1652">
        <ele>391.6</ele>
        <time>2024-08-11T10:23:27Z</time>
      </trkpt>
      <trkpt lat="45.70918" lon="3.16529">
        <ele>391.6</ele>
        <time>2024-08-11T10:23:28Z</time>
      </trkpt>
      <trkpt lat="45.7092" lon="3.16537">
        <ele>391.6</ele>
        <time>2024-08-11T10:23:29Z</time>
      </trkpt>
      <trkpt lat="45.70922" lon="3.16546">
        <ele>391.6</ele>
        <time>2024-08-11T10:23:30Z</time>
      </trkpt>
      <trkpt lat="45.70925" lon="3.16555">
        <ele>391.6</ele>
        <time>2024-08-11T10:23:31Z</time>
      </trkpt>
      <trkpt lat="45.70926" lon="3.16564">
        <ele>391.6</ele>
        <time>2024-08-11T10:23:32Z</time>
      </trkpt>
      <trkpt lat="45.70928" lon="3.16574">
        <ele>391.6</ele>
        <time>2024-08-11T10:23:33Z</time>
      </trkpt>
      <trkpt lat="45.70928" lon="3.16574">
        <ele>391.6</ele>
        <time>2024-08-11T10:23:34Z</time>
      </trkpt>
      <trkpt lat="45.70928" lon="3.16574">
        <ele>391.6</ele>
        <time>2024-08-11T10:23:35Z</time>
      </trkpt>
      <trkpt lat="45.70935" lon="3.16611">
        <ele>391.6</ele>
        <time>2024-08-11T10:23:36Z</time>
      </trkpt>
      <trkpt lat="45.70935" lon="3.16611">
        <ele>391.6</ele>
        <time>2024-08-11T10:23:37Z</time>
      </trkpt>
      <trkpt lat="45.70936" lon="3.1662">
        <ele>391.6</ele>
        <time>2024-08-11T10:23:38Z</time>
      </trkpt>
      <trkpt lat="45.70938" lon="3.1663">
        <ele>391.6</ele>
        <time>2024-08-11T10:23:39Z</time>
      </trkpt>
      <trkpt lat="45.70939" lon="3.16638">
        <ele>391.6</ele>
        <time>2024-08-11T10:23:40Z</time>
      </trkpt>
      <trkpt lat="45.70941" lon="3.16648">
        <ele>391.6</ele>
        <time>2024-08-11T10:23:41Z</time>
      </trkpt>
      <trkpt lat="45.70942" lon="3.16657">
        <ele>391.4</ele>
        <time>2024-08-11T10:23:42Z</time>
      </trkpt>
      <trkpt lat="45.70944" lon="3.16666">
        <ele>391.4</ele>
        <time>2024-08-11T10:23:43Z</time>
      </trkpt>
      <trkpt lat="45.70945" lon="3.16675">
        <ele>391.4</ele>
        <time>2024-08-11T10:23:44Z</time>
      </trkpt>
      <trkpt lat="45.70947" lon="3.16684">
        <ele>391.4</ele>
        <time>2024-08-11T10:23:45Z</time>
      </trkpt>
      <trkpt lat="45.70949" lon="3.16694">
        <ele>391.2</ele>
        <time>2024-08-11T10:23:46Z</time>
      </trkpt>
      <trkpt lat="45.70951" lon="3.16703">
        <ele>391.2</ele>
        <time>2024-08-11T10:23:47Z</time>
      </trkpt>
      <trkpt lat="45.70953" lon="3.16713">
        <ele>391</ele>
        <time>2024-08-11T10:23:48Z</time>
      </trkpt>
      <trkpt lat="45.70955" lon="3.16722">
        <ele>391</ele>
        <time>2024-08-11T10:23:49Z</time>
      </trkpt>
      <trkpt lat="45.70956" lon="3.16732">
        <ele>391</ele>
        <time>2024-08-11T10:23:50Z</time>
      </trkpt>
      <trkpt lat="45.70958" lon="3.16742">
        <ele>391</ele>
        <time>2024-08-11T10:23:51Z</time>
      </trkpt>
      <trkpt lat="45.7096" lon="3.16751">
        <ele>391</ele>
        <time>2024-08-11T10:23:52Z</time>
      </trkpt>
      <trkpt lat="45.70962" lon="3.16761">
        <ele>391</ele>
        <time>2024-08-11T10:23:53Z</time>
      </trkpt>
      <trkpt lat="45.70964" lon="3.16772">
        <ele>390.8</ele>
        <time>2024-08-11T10:23:54Z</time>
      </trkpt>
      <trkpt lat="45.70966" lon="3.16782">
        <ele>390.8</ele>
        <time>2024-08-11T10:23:55Z</time>
      </trkpt>
      <trkpt lat="45.70967" lon="3.16792">
        <ele>390.6</ele>
        <time>2024-08-11T10:23:56Z</time>
      </trkpt>
      <trkpt lat="45.70969" lon="3.16802">
        <ele>390.6</ele>
        <time>2024-08-11T10:23:57Z</time>
      </trkpt>
      <trkpt lat="45.70971" lon="3.16813">
        <ele>390.4</ele>
        <time>2024-08-11T10:23:58Z</time>
      </trkpt>
      <trkpt lat="45.70973" lon="3.16824">
        <ele>390.4</ele>
        <time>2024-08-11T10:23:59Z</time>
      </trkpt>
      <trkpt lat="45.70975" lon="3.16835">
        <ele>390.4</ele>
        <time>2024-08-11T10:24:00Z</time>
      </trkpt>
      <trkpt lat="45.70976" lon="3.16845">
        <ele>390.2</ele>
        <time>2024-08-11T10:24:01Z</time>
      </trkpt>
      <trkpt lat="45.70978" lon="3.16855">
        <ele>390.2</ele>
        <time>2024-08-11T10:24:02Z</time>
      </trkpt>
      <trkpt lat="45.7098" lon="3.16865">
        <ele>390</ele>
        <time>2024-08-11T10:24:03Z</time>
      </trkpt>
      <trkpt lat="45.70981" lon="3.16874">
        <ele>390</ele>
        <time>2024-08-11T10:24:04Z</time>
      </trkpt>
      <trkpt lat="45.70984" lon="3.16882">
        <ele>389.8</ele>
        <time>2024-08-11T10:24:05Z</time>
      </trkpt>
      <trkpt lat="45.70987" lon="3.16892">
        <ele>389.8</ele>
        <time>2024-08-11T10:24:06Z</time>
      </trkpt>
      <trkpt lat="45.70989" lon="3.16902">
        <ele>389.8</ele>
        <time>2024-08-11T10:24:07Z</time>
      </trkpt>
      <trkpt lat="45.7099" lon="3.16912">
        <ele>389.6</ele>
        <time>2024-08-11T10:24:08Z</time>
      </trkpt>
      <trkpt lat="45.70992" lon="3.16922">
        <ele>389.6</ele>
        <time>2024-08-11T10:24:09Z</time>
      </trkpt>
      <trkpt lat="45.70994" lon="3.16932">
        <ele>389.4</ele>
        <time>2024-08-11T10:24:10Z</time>
      </trkpt>
      <trkpt lat="45.70995" lon="3.16942">
        <ele>389.4</ele>
        <time>2024-08-11T10:24:11Z</time>
      </trkpt>
      <trkpt lat="45.70994" lon="3.16954">
        <ele>389.2</ele>
        <time>2024-08-11T10:24:12Z</time>
      </trkpt>
      <trkpt lat="45.70994" lon="3.16965">
        <ele>389</ele>
        <time>2024-08-11T10:24:13Z</time>
      </trkpt>
      <trkpt lat="45.70994" lon="3.16976">
        <ele>389</ele>
        <time>2024-08-11T10:24:14Z</time>
      </trkpt>
      <trkpt lat="45.70993" lon="3.16988">
        <ele>388.8</ele>
        <time>2024-08-11T10:24:15Z</time>
      </trkpt>
      <trkpt lat="45.70993" lon="3.16999">
        <ele>388.6</ele>
        <time>2024-08-11T10:24:16Z</time>
      </trkpt>
      <trkpt lat="45.70993" lon="3.17011">
        <ele>388.4</ele>
        <time>2024-08-11T10:24:17Z</time>
      </trkpt>
      <trkpt lat="45.70992" lon="3.17023">
        <ele>388.4</ele>
        <time>2024-08-11T10:24:18Z</time>
      </trkpt>
      <trkpt lat="45.70992" lon="3.17036">
        <ele>388.2</ele>
        <time>2024-08-11T10:24:19Z</time>
      </trkpt>
      <trkpt lat="45.70992" lon="3.17049">
        <ele>388</ele>
        <time>2024-08-11T10:24:20Z</time>
      </trkpt>
      <trkpt lat="45.70992" lon="3.17061">
        <ele>387.8</ele>
        <time>2024-08-11T10:24:21Z</time>
      </trkpt>
      <trkpt lat="45.70992" lon="3.17073">
        <ele>387.6</ele>
        <time>2024-08-11T10:24:22Z</time>
      </trkpt>
      <trkpt lat="45.70992" lon="3.17086">
        <ele>387.6</ele>
        <time>2024-08-11T10:24:23Z</time>
      </trkpt>
      <trkpt lat="45.70991" lon="3.17099">
        <ele>387.4</ele>
        <time>2024-08-11T10:24:24Z</time>
      </trkpt>
      <trkpt lat="45.70991" lon="3.17111">
        <ele>387.2</ele>
        <time>2024-08-11T10:24:25Z</time>
      </trkpt>
      <trkpt lat="45.70991" lon="3.17124">
        <ele>387</ele>
        <time>2024-08-11T10:24:26Z</time>
      </trkpt>
      <trkpt lat="45.70991" lon="3.17136">
        <ele>386.8</ele>
        <time>2024-08-11T10:24:27Z</time>
      </trkpt>
      <trkpt lat="45.70991" lon="3.17149">
        <ele>386.6</ele>
        <time>2024-08-11T10:24:28Z</time>
      </trkpt>
      <trkpt lat="45.7099" lon="3.17161">
        <ele>386.6</ele>
        <time>2024-08-11T10:24:29Z</time>
      </trkpt>
      <trkpt lat="45.7099" lon="3.17174">
        <ele>386.4</ele>
        <time>2024-08-11T10:24:30Z</time>
      </trkpt>
      <trkpt lat="45.7099" lon="3.17186">
        <ele>386.2</ele>
        <time>2024-08-11T10:24:31Z</time>
      </trkpt>
      <trkpt lat="45.7099" lon="3.17199">
        <ele>386</ele>
        <time>2024-08-11T10:24:32Z</time>
      </trkpt>
      <trkpt lat="45.7099" lon="3.17211">
        <ele>385.8</ele>
        <time>2024-08-11T10:24:33Z</time>
      </trkpt>
      <trkpt lat="45.70989" lon="3.17224">
        <ele>385.6</ele>
        <time>2024-08-11T10:24:34Z</time>
      </trkpt>
      <trkpt lat="45.70989" lon="3.17236">
        <ele>385.4</ele>
        <time>2024-08-11T10:24:35Z</time>
      </trkpt>
      <trkpt lat="45.70989" lon="3.17247">
        <ele>385.2</ele>
        <time>2024-08-11T10:24:36Z</time>
      </trkpt>
      <trkpt lat="45.70989" lon="3.17259">
        <ele>385</ele>
        <time>2024-08-11T10:24:37Z</time>
      </trkpt>
      <trkpt lat="45.70989" lon="3.17271">
        <ele>385</ele>
        <time>2024-08-11T10:24:38Z</time>
      </trkpt>
      <trkpt lat="45.70989" lon="3.17282">
        <ele>384.8</ele>
        <time>2024-08-11T10:24:39Z</time>
      </trkpt>
      <trkpt lat="45.70988" lon="3.17294">
        <ele>384.6</ele>
        <time>2024-08-11T10:24:40Z</time>
      </trkpt>
      <trkpt lat="45.70988" lon="3.17305">
        <ele>384.4</ele>
        <time>2024-08-11T10:24:41Z</time>
      </trkpt>
      <trkpt lat="45.70988" lon="3.17316">
        <ele>384.4</ele>
        <time>2024-08-11T10:24:42Z</time>
      </trkpt>
      <trkpt lat="45.70988" lon="3.17327">
        <ele>384.2</ele>
        <time>2024-08-11T10:24:43Z</time>
      </trkpt>
      <trkpt lat="45.70988" lon="3.17338">
        <ele>384</ele>
        <time>2024-08-11T10:24:44Z</time>
      </trkpt>
      <trkpt lat="45.70988" lon="3.17349">
        <ele>383.8</ele>
        <time>2024-08-11T10:24:45Z</time>
      </trkpt>
      <trkpt lat="45.70987" lon="3.1736">
        <ele>383.8</ele>
        <time>2024-08-11T10:24:46Z</time>
      </trkpt>
      <trkpt lat="45.70987" lon="3.17371">
        <ele>383.6</ele>
        <time>2024-08-11T10:24:47Z</time>
      </trkpt>
      <trkpt lat="45.70987" lon="3.17382">
        <ele>383.4</ele>
        <time>2024-08-11T10:24:48Z</time>
      </trkpt>
      <trkpt lat="45.70987" lon="3.17393">
        <ele>383.4</ele>
        <time>2024-08-11T10:24:49Z</time>
      </trkpt>
      <trkpt lat="45.70987" lon="3.17404">
        <ele>383.2</ele>
        <time>2024-08-11T10:24:50Z</time>
      </trkpt>
      <trkpt lat="45.70987" lon="3.17414">
        <ele>383</ele>
        <time>2024-08-11T10:24:51Z</time>
      </trkpt>
      <trkpt lat="45.70986" lon="3.17425">
        <ele>383</ele>
        <time>2024-08-11T10:24:52Z</time>
      </trkpt>
      <trkpt lat="45.70987" lon="3.17437">
        <ele>382.8</ele>
        <time>2024-08-11T10:24:53Z</time>
      </trkpt>
      <trkpt lat="45.70988" lon="3.17448">
        <ele>382.6</ele>
        <time>2024-08-11T10:24:54Z</time>
      </trkpt>
      <trkpt lat="45.70989" lon="3.17459">
        <ele>382.6</ele>
        <time>2024-08-11T10:24:55Z</time>
      </trkpt>
      <trkpt lat="45.7099" lon="3.1747">
        <ele>382.4</ele>
        <time>2024-08-11T10:24:56Z</time>
      </trkpt>
      <trkpt lat="45.70991" lon="3.17481">
        <ele>382.2</ele>
        <time>2024-08-11T10:24:57Z</time>
      </trkpt>
      <trkpt lat="45.70993" lon="3.17493">
        <ele>382</ele>
        <time>2024-08-11T10:24:58Z</time>
      </trkpt>
      <trkpt lat="45.70994" lon="3.17503">
        <ele>381.8</ele>
        <time>2024-08-11T10:24:59Z</time>
      </trkpt>
      <trkpt lat="45.70995" lon="3.17514">
        <ele>381.6</ele>
        <time>2024-08-11T10:25:00Z</time>
      </trkpt>
      <trkpt lat="45.70996" lon="3.17525">
        <ele>381.4</ele>
        <time>2024-08-11T10:25:01Z</time>
      </trkpt>
      <trkpt lat="45.70997" lon="3.17536">
        <ele>381.2</ele>
        <time>2024-08-11T10:25:02Z</time>
      </trkpt>
      <trkpt lat="45.70998" lon="3.17547">
        <ele>381</ele>
        <time>2024-08-11T10:25:03Z</time>
      </trkpt>
      <trkpt lat="45.70999" lon="3.17557">
        <ele>380.8</ele>
        <time>2024-08-11T10:25:04Z</time>
      </trkpt>
      <trkpt lat="45.71001" lon="3.17568">
        <ele>380.8</ele>
        <time>2024-08-11T10:25:05Z</time>
      </trkpt>
      <trkpt lat="45.71002" lon="3.17578">
        <ele>380.6</ele>
        <time>2024-08-11T10:25:06Z</time>
      </trkpt>
      <trkpt lat="45.71003" lon="3.17588">
        <ele>380.4</ele>
        <time>2024-08-11T10:25:07Z</time>
      </trkpt>
      <trkpt lat="45.71004" lon="3.17598">
        <ele>380.2</ele>
        <time>2024-08-11T10:25:08Z</time>
      </trkpt>
      <trkpt lat="45.71005" lon="3.17608">
        <ele>380.2</ele>
        <time>2024-08-11T10:25:09Z</time>
      </trkpt>
      <trkpt lat="45.71006" lon="3.17619">
        <ele>380</ele>
        <time>2024-08-11T10:25:10Z</time>
      </trkpt>
      <trkpt lat="45.71007" lon="3.17629">
        <ele>379.8</ele>
        <time>2024-08-11T10:25:11Z</time>
      </trkpt>
      <trkpt lat="45.71008" lon="3.17639">
        <ele>379.8</ele>
        <time>2024-08-11T10:25:12Z</time>
      </trkpt>
      <trkpt lat="45.71009" lon="3.17648">
        <ele>379.6</ele>
        <time>2024-08-11T10:25:13Z</time>
      </trkpt>
      <trkpt lat="45.7101" lon="3.17658">
        <ele>379.4</ele>
        <time>2024-08-11T10:25:14Z</time>
      </trkpt>
      <trkpt lat="45.71011" lon="3.17668">
        <ele>379.4</ele>
        <time>2024-08-11T10:25:15Z</time>
      </trkpt>
      <trkpt lat="45.71013" lon="3.17678">
        <ele>379.2</ele>
        <time>2024-08-11T10:25:16Z</time>
      </trkpt>
      <trkpt lat="45.71015" lon="3.17687">
        <ele>379</ele>
        <time>2024-08-11T10:25:17Z</time>
      </trkpt>
      <trkpt lat="45.71018" lon="3.17697">
        <ele>379</ele>
        <time>2024-08-11T10:25:18Z</time>
      </trkpt>
      <trkpt lat="45.7102" lon="3.17707">
        <ele>378.8</ele>
        <time>2024-08-11T10:25:19Z</time>
      </trkpt>
      <trkpt lat="45.71023" lon="3.17716">
        <ele>378.6</ele>
        <time>2024-08-11T10:25:20Z</time>
      </trkpt>
      <trkpt lat="45.71025" lon="3.17726">
        <ele>378.4</ele>
        <time>2024-08-11T10:25:21Z</time>
      </trkpt>
      <trkpt lat="45.71028" lon="3.17736">
        <ele>378.4</ele>
        <time>2024-08-11T10:25:22Z</time>
      </trkpt>
      <trkpt lat="45.7103" lon="3.17746">
        <ele>378.2</ele>
        <time>2024-08-11T10:25:23Z</time>
      </trkpt>
      <trkpt lat="45.71033" lon="3.17755">
        <ele>378</ele>
        <time>2024-08-11T10:25:24Z</time>
      </trkpt>
      <trkpt lat="45.71035" lon="3.17765">
        <ele>377.8</ele>
        <time>2024-08-11T10:25:25Z</time>
      </trkpt>
      <trkpt lat="45.71038" lon="3.17775">
        <ele>377.6</ele>
        <time>2024-08-11T10:25:26Z</time>
      </trkpt>
      <trkpt lat="45.7104" lon="3.17785">
        <ele>377.4</ele>
        <time>2024-08-11T10:25:27Z</time>
      </trkpt>
      <trkpt lat="45.71044" lon="3.17795">
        <ele>377.2</ele>
        <time>2024-08-11T10:25:28Z</time>
      </trkpt>
      <trkpt lat="45.71047" lon="3.17804">
        <ele>377</ele>
        <time>2024-08-11T10:25:29Z</time>
      </trkpt>
      <trkpt lat="45.7105" lon="3.17814">
        <ele>376.8</ele>
        <time>2024-08-11T10:25:30Z</time>
      </trkpt>
      <trkpt lat="45.71054" lon="3.17823">
        <ele>376.8</ele>
        <time>2024-08-11T10:25:31Z</time>
      </trkpt>
      <trkpt lat="45.71057" lon="3.17833">
        <ele>376.6</ele>
        <time>2024-08-11T10:25:32Z</time>
      </trkpt>
      <trkpt lat="45.7106" lon="3.17843">
        <ele>376.2</ele>
        <time>2024-08-11T10:25:33Z</time>
      </trkpt>
      <trkpt lat="45.71064" lon="3.17853">
        <ele>376.2</ele>
        <time>2024-08-11T10:25:34Z</time>
      </trkpt>
      <trkpt lat="45.71067" lon="3.17863">
        <ele>376</ele>
        <time>2024-08-11T10:25:35Z</time>
      </trkpt>
      <trkpt lat="45.71071" lon="3.17873">
        <ele>375.6</ele>
        <time>2024-08-11T10:25:36Z</time>
      </trkpt>
      <trkpt lat="45.71074" lon="3.17883">
        <ele>375.6</ele>
        <time>2024-08-11T10:25:37Z</time>
      </trkpt>
      <trkpt lat="45.71078" lon="3.17893">
        <ele>375.2</ele>
        <time>2024-08-11T10:25:38Z</time>
      </trkpt>
      <trkpt lat="45.71082" lon="3.17903">
        <ele>375</ele>
        <time>2024-08-11T10:25:39Z</time>
      </trkpt>
      <trkpt lat="45.71086" lon="3.17912">
        <ele>374.8</ele>
        <time>2024-08-11T10:25:40Z</time>
      </trkpt>
      <trkpt lat="45.71089" lon="3.17923">
        <ele>374.6</ele>
        <time>2024-08-11T10:25:41Z</time>
      </trkpt>
      <trkpt lat="45.71092" lon="3.17933">
        <ele>374.4</ele>
        <time>2024-08-11T10:25:42Z</time>
      </trkpt>
      <trkpt lat="45.71095" lon="3.17944">
        <ele>374.2</ele>
        <time>2024-08-11T10:25:43Z</time>
      </trkpt>
      <trkpt lat="45.71098" lon="3.17955">
        <ele>374</ele>
        <time>2024-08-11T10:25:44Z</time>
      </trkpt>
      <trkpt lat="45.71101" lon="3.17965">
        <ele>373.8</ele>
        <time>2024-08-11T10:25:45Z</time>
      </trkpt>
      <trkpt lat="45.71104" lon="3.17976">
        <ele>373.6</ele>
        <time>2024-08-11T10:25:46Z</time>
      </trkpt>
      <trkpt lat="45.71106" lon="3.17986">
        <ele>373.4</ele>
        <time>2024-08-11T10:25:47Z</time>
      </trkpt>
      <trkpt lat="45.711" lon="3.18001">
        <ele>373.2</ele>
        <time>2024-08-11T10:25:48Z</time>
      </trkpt>
      <trkpt lat="45.711" lon="3.18008">
        <ele>373.2</ele>
        <time>2024-08-11T10:25:49Z</time>
      </trkpt>
      <trkpt lat="45.711" lon="3.18018">
        <ele>373</ele>
        <time>2024-08-11T10:25:50Z</time>
      </trkpt>
      <trkpt lat="45.711" lon="3.18029">
        <ele>372.8</ele>
        <time>2024-08-11T10:25:51Z</time>
      </trkpt>
      <trkpt lat="45.71104" lon="3.1804">
        <ele>372.6</ele>
        <time>2024-08-11T10:25:52Z</time>
      </trkpt>
      <trkpt lat="45.71109" lon="3.18049">
        <ele>372.4</ele>
        <time>2024-08-11T10:25:53Z</time>
      </trkpt>
      <trkpt lat="45.71114" lon="3.18057">
        <ele>372.2</ele>
        <time>2024-08-11T10:25:54Z</time>
      </trkpt>
      <trkpt lat="45.71118" lon="3.18068">
        <ele>372</ele>
        <time>2024-08-11T10:25:55Z</time>
      </trkpt>
      <trkpt lat="45.71119" lon="3.18079">
        <ele>372</ele>
        <time>2024-08-11T10:25:56Z</time>
      </trkpt>
      <trkpt lat="45.71119" lon="3.1809">
        <ele>371.8</ele>
        <time>2024-08-11T10:25:57Z</time>
      </trkpt>
      <trkpt lat="45.71119" lon="3.18101">
        <ele>371.6</ele>
        <time>2024-08-11T10:25:58Z</time>
      </trkpt>
      <trkpt lat="45.71119" lon="3.18111">
        <ele>371.6</ele>
        <time>2024-08-11T10:25:59Z</time>
      </trkpt>
      <trkpt lat="45.71118" lon="3.18122">
        <ele>371.4</ele>
        <time>2024-08-11T10:26:00Z</time>
      </trkpt>
      <trkpt lat="45.71118" lon="3.18132">
        <ele>371.4</ele>
        <time>2024-08-11T10:26:01Z</time>
      </trkpt>
      <trkpt lat="45.71118" lon="3.18142">
        <ele>371.2</ele>
        <time>2024-08-11T10:26:02Z</time>
      </trkpt>
      <trkpt lat="45.71118" lon="3.18152">
        <ele>371.2</ele>
        <time>2024-08-11T10:26:03Z</time>
      </trkpt>
      <trkpt lat="45.71118" lon="3.18161">
        <ele>371</ele>
        <time>2024-08-11T10:26:04Z</time>
      </trkpt>
      <trkpt lat="45.71118" lon="3.18171">
        <ele>370.8</ele>
        <time>2024-08-11T10:26:05Z</time>
      </trkpt>
      <trkpt lat="45.71117" lon="3.18181">
        <ele>370.8</ele>
        <time>2024-08-11T10:26:06Z</time>
      </trkpt>
      <trkpt lat="45.71117" lon="3.1819">
        <ele>370.8</ele>
        <time>2024-08-11T10:26:07Z</time>
      </trkpt>
      <trkpt lat="45.71116" lon="3.182">
        <ele>370.6</ele>
        <time>2024-08-11T10:26:08Z</time>
      </trkpt>
      <trkpt lat="45.71115" lon="3.18209">
        <ele>370.4</ele>
        <time>2024-08-11T10:26:09Z</time>
      </trkpt>
      <trkpt lat="45.71114" lon="3.18218">
        <ele>370.4</ele>
        <time>2024-08-11T10:26:10Z</time>
      </trkpt>
      <trkpt lat="45.71113" lon="3.18227">
        <ele>370.4</ele>
        <time>2024-08-11T10:26:11Z</time>
      </trkpt>
      <trkpt lat="45.71112" lon="3.18236">
        <ele>370.2</ele>
        <time>2024-08-11T10:26:12Z</time>
      </trkpt>
      <trkpt lat="45.71111" lon="3.18245">
        <ele>370</ele>
        <time>2024-08-11T10:26:13Z</time>
      </trkpt>
      <trkpt lat="45.7111" lon="3.18253">
        <ele>370</ele>
        <time>2024-08-11T10:26:14Z</time>
      </trkpt>
      <trkpt lat="45.7111" lon="3.18263">
        <ele>370</ele>
        <time>2024-08-11T10:26:15Z</time>
      </trkpt>
      <trkpt lat="45.71109" lon="3.18271">
        <ele>369.8</ele>
        <time>2024-08-11T10:26:16Z</time>
      </trkpt>
      <trkpt lat="45.71109" lon="3.1828">
        <ele>369.6</ele>
        <time>2024-08-11T10:26:17Z</time>
      </trkpt>
      <trkpt lat="45.71108" lon="3.18289">
        <ele>369.6</ele>
        <time>2024-08-11T10:26:18Z</time>
      </trkpt>
      <trkpt lat="45.71107" lon="3.18298">
        <ele>369.6</ele>
        <time>2024-08-11T10:26:19Z</time>
      </trkpt>
      <trkpt lat="45.71106" lon="3.18307">
        <ele>369.4</ele>
        <time>2024-08-11T10:26:20Z</time>
      </trkpt>
      <trkpt lat="45.71105" lon="3.18316">
        <ele>369.2</ele>
        <time>2024-08-11T10:26:21Z</time>
      </trkpt>
      <trkpt lat="45.71104" lon="3.18325">
        <ele>369.2</ele>
        <time>2024-08-11T10:26:22Z</time>
      </trkpt>
      <trkpt lat="45.71104" lon="3.18333">
        <ele>369.2</ele>
        <time>2024-08-11T10:26:23Z</time>
      </trkpt>
      <trkpt lat="45.71103" lon="3.18341">
        <ele>369.2</ele>
        <time>2024-08-11T10:26:24Z</time>
      </trkpt>
      <trkpt lat="45.71102" lon="3.18349">
        <ele>369</ele>
        <time>2024-08-11T10:26:25Z</time>
      </trkpt>
      <trkpt lat="45.71101" lon="3.18357">
        <ele>369</ele>
        <time>2024-08-11T10:26:26Z</time>
      </trkpt>
      <trkpt lat="45.711" lon="3.18365">
        <ele>369</ele>
        <time>2024-08-11T10:26:27Z</time>
      </trkpt>
      <trkpt lat="45.71099" lon="3.18374">
        <ele>368.8</ele>
        <time>2024-08-11T10:26:28Z</time>
      </trkpt>
      <trkpt lat="45.71099" lon="3.18382">
        <ele>368.8</ele>
        <time>2024-08-11T10:26:29Z</time>
      </trkpt>
      <trkpt lat="45.71098" lon="3.1839">
        <ele>368.8</ele>
        <time>2024-08-11T10:26:30Z</time>
      </trkpt>
      <trkpt lat="45.71097" lon="3.18398">
        <ele>368.6</ele>
        <time>2024-08-11T10:26:31Z</time>
      </trkpt>
      <trkpt lat="45.71096" lon="3.18405">
        <ele>368.6</ele>
        <time>2024-08-11T10:26:32Z</time>
      </trkpt>
      <trkpt lat="45.71095" lon="3.18413">
        <ele>368.6</ele>
        <time>2024-08-11T10:26:33Z</time>
      </trkpt>
      <trkpt lat="45.71095" lon="3.18421">
        <ele>368.4</ele>
        <time>2024-08-11T10:26:34Z</time>
      </trkpt>
      <trkpt lat="45.71094" lon="3.18429">
        <ele>368.4</ele>
        <time>2024-08-11T10:26:35Z</time>
      </trkpt>
      <trkpt lat="45.71093" lon="3.18437">
        <ele>368.4</ele>
        <time>2024-08-11T10:26:36Z</time>
      </trkpt>
      <trkpt lat="45.71092" lon="3.18444">
        <ele>368.4</ele>
        <time>2024-08-11T10:26:37Z</time>
      </trkpt>
      <trkpt lat="45.71091" lon="3.18452">
        <ele>368.2</ele>
        <time>2024-08-11T10:26:38Z</time>
      </trkpt>
      <trkpt lat="45.71091" lon="3.18459">
        <ele>368.2</ele>
        <time>2024-08-11T10:26:39Z</time>
      </trkpt>
      <trkpt lat="45.7109" lon="3.18467">
        <ele>368.2</ele>
        <time>2024-08-11T10:26:40Z</time>
      </trkpt>
      <trkpt lat="45.71089" lon="3.18474">
        <ele>368</ele>
        <time>2024-08-11T10:26:41Z</time>
      </trkpt>
      <trkpt lat="45.71088" lon="3.18482">
        <ele>368</ele>
        <time>2024-08-11T10:26:42Z</time>
      </trkpt>
      <trkpt lat="45.71088" lon="3.18489">
        <ele>368</ele>
        <time>2024-08-11T10:26:43Z</time>
      </trkpt>
      <trkpt lat="45.71087" lon="3.18496">
        <ele>368</ele>
        <time>2024-08-11T10:26:44Z</time>
      </trkpt>
      <trkpt lat="45.71086" lon="3.18503">
        <ele>368</ele>
        <time>2024-08-11T10:26:45Z</time>
      </trkpt>
      <trkpt lat="45.71085" lon="3.1851">
        <ele>367.8</ele>
        <time>2024-08-11T10:26:46Z</time>
      </trkpt>
      <trkpt lat="45.71085" lon="3.18517">
        <ele>367.8</ele>
        <time>2024-08-11T10:26:47Z</time>
      </trkpt>
      <trkpt lat="45.71084" lon="3.18524">
        <ele>367.8</ele>
        <time>2024-08-11T10:26:48Z</time>
      </trkpt>
      <trkpt lat="45.71083" lon="3.18531">
        <ele>367.8</ele>
        <time>2024-08-11T10:26:49Z</time>
      </trkpt>
      <trkpt lat="45.71083" lon="3.18537">
        <ele>367.8</ele>
        <time>2024-08-11T10:26:50Z</time>
      </trkpt>
      <trkpt lat="45.71082" lon="3.18544">
        <ele>367.8</ele>
        <time>2024-08-11T10:26:51Z</time>
      </trkpt>
      <trkpt lat="45.71081" lon="3.1855">
        <ele>367.8</ele>
        <time>2024-08-11T10:26:52Z</time>
      </trkpt>
      <trkpt lat="45.71081" lon="3.18556">
        <ele>367.8</ele>
        <time>2024-08-11T10:26:53Z</time>
      </trkpt>
      <trkpt lat="45.7108" lon="3.18562">
        <ele>367.8</ele>
        <time>2024-08-11T10:26:54Z</time>
      </trkpt>
      <trkpt lat="45.7108" lon="3.18568">
        <ele>367.8</ele>
        <time>2024-08-11T10:26:55Z</time>
      </trkpt>
      <trkpt lat="45.71079" lon="3.18573">
        <ele>367.8</ele>
        <time>2024-08-11T10:26:56Z</time>
      </trkpt>
      <trkpt lat="45.71078" lon="3.18579">
        <ele>367.8</ele>
        <time>2024-08-11T10:26:57Z</time>
      </trkpt>
      <trkpt lat="45.71078" lon="3.18584">
        <ele>367.8</ele>
        <time>2024-08-11T10:26:58Z</time>
      </trkpt>
      <trkpt lat="45.71077" lon="3.1859">
        <ele>367.8</ele>
        <time>2024-08-11T10:26:59Z</time>
      </trkpt>
      <trkpt lat="45.71077" lon="3.18595">
        <ele>367.8</ele>
        <time>2024-08-11T10:27:00Z</time>
      </trkpt>
      <trkpt lat="45.71076" lon="3.186">
        <ele>367.8</ele>
        <time>2024-08-11T10:27:01Z</time>
      </trkpt>
      <trkpt lat="45.71076" lon="3.18605">
        <ele>368</ele>
        <time>2024-08-11T10:27:02Z</time>
      </trkpt>
      <trkpt lat="45.71075" lon="3.1861">
        <ele>367.4</ele>
        <time>2024-08-11T10:27:03Z</time>
      </trkpt>
      <trkpt lat="45.71075" lon="3.18615">
        <ele>367.6</ele>
        <time>2024-08-11T10:27:04Z</time>
      </trkpt>
      <trkpt lat="45.71074" lon="3.1862">
        <ele>367.8</ele>
        <time>2024-08-11T10:27:05Z</time>
      </trkpt>
      <trkpt lat="45.71074" lon="3.18625">
        <ele>368.2</ele>
        <time>2024-08-11T10:27:06Z</time>
      </trkpt>
      <trkpt lat="45.71073" lon="3.18631">
        <ele>368.2</ele>
        <time>2024-08-11T10:27:07Z</time>
      </trkpt>
      <trkpt lat="45.71073" lon="3.18636">
        <ele>368.4</ele>
        <time>2024-08-11T10:27:08Z</time>
      </trkpt>
      <trkpt lat="45.71072" lon="3.18641">
        <ele>368.2</ele>
        <time>2024-08-11T10:27:09Z</time>
      </trkpt>
      <trkpt lat="45.71072" lon="3.18647">
        <ele>368.2</ele>
        <time>2024-08-11T10:27:10Z</time>
      </trkpt>
      <trkpt lat="45.71071" lon="3.18652">
        <ele>368.2</ele>
        <time>2024-08-11T10:27:11Z</time>
      </trkpt>
      <trkpt lat="45.7107" lon="3.18657">
        <ele>368.2</ele>
        <time>2024-08-11T10:27:12Z</time>
      </trkpt>
      <trkpt lat="45.7107" lon="3.18662">
        <ele>368.2</ele>
        <time>2024-08-11T10:27:13Z</time>
      </trkpt>
      <trkpt lat="45.71069" lon="3.18667">
        <ele>368.4</ele>
        <time>2024-08-11T10:27:14Z</time>
      </trkpt>
      <trkpt lat="45.71069" lon="3.18672">
        <ele>368.4</ele>
        <time>2024-08-11T10:27:15Z</time>
      </trkpt>
      <trkpt lat="45.71068" lon="3.18677">
        <ele>368.4</ele>
        <time>2024-08-11T10:27:16Z</time>
      </trkpt>
      <trkpt lat="45.71068" lon="3.18682">
        <ele>368.4</ele>
        <time>2024-08-11T10:27:17Z</time>
      </trkpt>
      <trkpt lat="45.71067" lon="3.18687">
        <ele>368.4</ele>
        <time>2024-08-11T10:27:18Z</time>
      </trkpt>
      <trkpt lat="45.71067" lon="3.18692">
        <ele>368.4</ele>
        <time>2024-08-11T10:27:19Z</time>
      </trkpt>
      <trkpt lat="45.71066" lon="3.18697">
        <ele>368.6</ele>
        <time>2024-08-11T10:27:20Z</time>
      </trkpt>
      <trkpt lat="45.71066" lon="3.18702">
        <ele>368.6</ele>
        <time>2024-08-11T10:27:21Z</time>
      </trkpt>
      <trkpt lat="45.71065" lon="3.18707">
        <ele>368.6</ele>
        <time>2024-08-11T10:27:22Z</time>
      </trkpt>
      <trkpt lat="45.71065" lon="3.18712">
        <ele>368.6</ele>
        <time>2024-08-11T10:27:23Z</time>
      </trkpt>
      <trkpt lat="45.71065" lon="3.18717">
        <ele>368.8</ele>
        <time>2024-08-11T10:27:24Z</time>
      </trkpt>
      <trkpt lat="45.71065" lon="3.18723">
        <ele>368.8</ele>
        <time>2024-08-11T10:27:25Z</time>
      </trkpt>
      <trkpt lat="45.71064" lon="3.18728">
        <ele>368.8</ele>
        <time>2024-08-11T10:27:26Z</time>
      </trkpt>
      <trkpt lat="45.71064" lon="3.18733">
        <ele>368.8</ele>
        <time>2024-08-11T10:27:27Z</time>
      </trkpt>
      <trkpt lat="45.71064" lon="3.18738">
        <ele>369</ele>
        <time>2024-08-11T10:27:28Z</time>
      </trkpt>
      <trkpt lat="45.71064" lon="3.18743">
        <ele>369</ele>
        <time>2024-08-11T10:27:29Z</time>
      </trkpt>
      <trkpt lat="45.71063" lon="3.18748">
        <ele>369</ele>
        <time>2024-08-11T10:27:30Z</time>
      </trkpt>
      <trkpt lat="45.71063" lon="3.18754">
        <ele>369</ele>
        <time>2024-08-11T10:27:31Z</time>
      </trkpt>
      <trkpt lat="45.71063" lon="3.18759">
        <ele>369.2</ele>
        <time>2024-08-11T10:27:32Z</time>
      </trkpt>
      <trkpt lat="45.71063" lon="3.18764">
        <ele>369.2</ele>
        <time>2024-08-11T10:27:33Z</time>
      </trkpt>
      <trkpt lat="45.71062" lon="3.18769">
        <ele>369.2</ele>
        <time>2024-08-11T10:27:34Z</time>
      </trkpt>
      <trkpt lat="45.71062" lon="3.18775">
        <ele>369.2</ele>
        <time>2024-08-11T10:27:35Z</time>
      </trkpt>
      <trkpt lat="45.71062" lon="3.1878">
        <ele>369.4</ele>
        <time>2024-08-11T10:27:36Z</time>
      </trkpt>
      <trkpt lat="45.71062" lon="3.18785">
        <ele>369.4</ele>
        <time>2024-08-11T10:27:37Z</time>
      </trkpt>
      <trkpt lat="45.71061" lon="3.1879">
        <ele>369.4</ele>
        <time>2024-08-11T10:27:38Z</time>
      </trkpt>
      <trkpt lat="45.71061" lon="3.18796">
        <ele>369.6</ele>
        <time>2024-08-11T10:27:39Z</time>
      </trkpt>
      <trkpt lat="45.71061" lon="3.18801">
        <ele>369.6</ele>
        <time>2024-08-11T10:27:40Z</time>
      </trkpt>
      <trkpt lat="45.71061" lon="3.18806">
        <ele>369.6</ele>
        <time>2024-08-11T10:27:41Z</time>
      </trkpt>
      <trkpt lat="45.7106" lon="3.18811">
        <ele>369.6</ele>
        <time>2024-08-11T10:27:42Z</time>
      </trkpt>
      <trkpt lat="45.7106" lon="3.18816">
        <ele>369.8</ele>
        <time>2024-08-11T10:27:43Z</time>
      </trkpt>
      <trkpt lat="45.7106" lon="3.18822">
        <ele>369.8</ele>
        <time>2024-08-11T10:27:44Z</time>
      </trkpt>
      <trkpt lat="45.7106" lon="3.18827">
        <ele>369.8</ele>
        <time>2024-08-11T10:27:45Z</time>
      </trkpt>
      <trkpt lat="45.71059" lon="3.18832">
        <ele>370</ele>
        <time>2024-08-11T10:27:46Z</time>
      </trkpt>
      <trkpt lat="45.71059" lon="3.18837">
        <ele>370</ele>
        <time>2024-08-11T10:27:47Z</time>
      </trkpt>
      <trkpt lat="45.7106" lon="3.18842">
        <ele>370</ele>
        <time>2024-08-11T10:27:48Z</time>
      </trkpt>
      <trkpt lat="45.7106" lon="3.18847">
        <ele>370.2</ele>
        <time>2024-08-11T10:27:49Z</time>
      </trkpt>
      <trkpt lat="45.7106" lon="3.18852">
        <ele>370.2</ele>
        <time>2024-08-11T10:27:50Z</time>
      </trkpt>
      <trkpt lat="45.7106" lon="3.18858">
        <ele>370.2</ele>
        <time>2024-08-11T10:27:51Z</time>
      </trkpt>
      <trkpt lat="45.7106" lon="3.18863">
        <ele>370.4</ele>
        <time>2024-08-11T10:27:52Z</time>
      </trkpt>
      <trkpt lat="45.71061" lon="3.18868">
        <ele>370.4</ele>
        <time>2024-08-11T10:27:53Z</time>
      </trkpt>
      <trkpt lat="45.71061" lon="3.18874">
        <ele>370.6</ele>
        <time>2024-08-11T10:27:54Z</time>
      </trkpt>
      <trkpt lat="45.71061" lon="3.18879">
        <ele>370.6</ele>
        <time>2024-08-11T10:27:55Z</time>
      </trkpt>
      <trkpt lat="45.71061" lon="3.18884">
        <ele>370.6</ele>
        <time>2024-08-11T10:27:56Z</time>
      </trkpt>
      <trkpt lat="45.71061" lon="3.18889">
        <ele>370.8</ele>
        <time>2024-08-11T10:27:57Z</time>
      </trkpt>
      <trkpt lat="45.71062" lon="3.18895">
        <ele>370.8</ele>
        <time>2024-08-11T10:27:58Z</time>
      </trkpt>
      <trkpt lat="45.71062" lon="3.189">
        <ele>370.8</ele>
        <time>2024-08-11T10:27:59Z</time>
      </trkpt>
      <trkpt lat="45.71062" lon="3.18906">
        <ele>371</ele>
        <time>2024-08-11T10:28:00Z</time>
      </trkpt>
      <trkpt lat="45.71062" lon="3.18912">
        <ele>371</ele>
        <time>2024-08-11T10:28:01Z</time>
      </trkpt>
      <trkpt lat="45.71063" lon="3.18917">
        <ele>371</ele>
        <time>2024-08-11T10:28:02Z</time>
      </trkpt>
      <trkpt lat="45.71063" lon="3.18923">
        <ele>371</ele>
        <time>2024-08-11T10:28:03Z</time>
      </trkpt>
      <trkpt lat="45.71063" lon="3.18928">
        <ele>371.2</ele>
        <time>2024-08-11T10:28:04Z</time>
      </trkpt>
      <trkpt lat="45.71063" lon="3.18934">
        <ele>371.2</ele>
        <time>2024-08-11T10:28:05Z</time>
      </trkpt>
      <trkpt lat="45.71063" lon="3.1894">
        <ele>371.2</ele>
        <time>2024-08-11T10:28:06Z</time>
      </trkpt>
      <trkpt lat="45.71064" lon="3.18946">
        <ele>371.4</ele>
        <time>2024-08-11T10:28:07Z</time>
      </trkpt>
      <trkpt lat="45.71065" lon="3.18952">
        <ele>371.4</ele>
        <time>2024-08-11T10:28:08Z</time>
      </trkpt>
      <trkpt lat="45.71066" lon="3.18958">
        <ele>371.6</ele>
        <time>2024-08-11T10:28:09Z</time>
      </trkpt>
      <trkpt lat="45.71066" lon="3.18964">
        <ele>371.6</ele>
        <time>2024-08-11T10:28:10Z</time>
      </trkpt>
      <trkpt lat="45.71067" lon="3.1897">
        <ele>371.8</ele>
        <time>2024-08-11T10:28:11Z</time>
      </trkpt>
      <trkpt lat="45.71068" lon="3.18976">
        <ele>371.8</ele>
        <time>2024-08-11T10:28:12Z</time>
      </trkpt>
      <trkpt lat="45.71069" lon="3.18982">
        <ele>372</ele>
        <time>2024-08-11T10:28:13Z</time>
      </trkpt>
      <trkpt lat="45.71069" lon="3.18988">
        <ele>372</ele>
        <time>2024-08-11T10:28:14Z</time>
      </trkpt>
      <trkpt lat="45.7107" lon="3.18995">
        <ele>372</ele>
        <time>2024-08-11T10:28:15Z</time>
      </trkpt>
      <trkpt lat="45.71071" lon="3.19">
        <ele>372.2</ele>
        <time>2024-08-11T10:28:16Z</time>
      </trkpt>
      <trkpt lat="45.71072" lon="3.19007">
        <ele>372.2</ele>
        <time>2024-08-11T10:28:17Z</time>
      </trkpt>
      <trkpt lat="45.71073" lon="3.19013">
        <ele>372.2</ele>
        <time>2024-08-11T10:28:18Z</time>
      </trkpt>
      <trkpt lat="45.71074" lon="3.1902">
        <ele>372.4</ele>
        <time>2024-08-11T10:28:19Z</time>
      </trkpt>
      <trkpt lat="45.71074" lon="3.19026">
        <ele>372.4</ele>
        <time>2024-08-11T10:28:20Z</time>
      </trkpt>
      <trkpt lat="45.71075" lon="3.19032">
        <ele>372.4</ele>
        <time>2024-08-11T10:28:21Z</time>
      </trkpt>
      <trkpt lat="45.71076" lon="3.1904">
        <ele>372.4</ele>
        <time>2024-08-11T10:28:22Z</time>
      </trkpt>
      <trkpt lat="45.71077" lon="3.19047">
        <ele>372.6</ele>
        <time>2024-08-11T10:28:23Z</time>
      </trkpt>
      <trkpt lat="45.71078" lon="3.19054">
        <ele>372.6</ele>
        <time>2024-08-11T10:28:24Z</time>
      </trkpt>
      <trkpt lat="45.71079" lon="3.19061">
        <ele>372.6</ele>
        <time>2024-08-11T10:28:25Z</time>
      </trkpt>
      <trkpt lat="45.71081" lon="3.19068">
        <ele>372.6</ele>
        <time>2024-08-11T10:28:26Z</time>
      </trkpt>
      <trkpt lat="45.71082" lon="3.19075">
        <ele>372.6</ele>
        <time>2024-08-11T10:28:27Z</time>
      </trkpt>
      <trkpt lat="45.71085" lon="3.1909">
        <ele>372.8</ele>
        <time>2024-08-11T10:28:28Z</time>
      </trkpt>
      <trkpt lat="45.71085" lon="3.1909">
        <ele>372.8</ele>
        <time>2024-08-11T10:28:29Z</time>
      </trkpt>
      <trkpt lat="45.71087" lon="3.19098">
        <ele>372.8</ele>
        <time>2024-08-11T10:28:30Z</time>
      </trkpt>
      <trkpt lat="45.71088" lon="3.19106">
        <ele>372.8</ele>
        <time>2024-08-11T10:28:31Z</time>
      </trkpt>
      <trkpt lat="45.7109" lon="3.19113">
        <ele>372.8</ele>
        <time>2024-08-11T10:28:32Z</time>
      </trkpt>
      <trkpt lat="45.71092" lon="3.19121">
        <ele>372.8</ele>
        <time>2024-08-11T10:28:33Z</time>
      </trkpt>
      <trkpt lat="45.71093" lon="3.19129">
        <ele>372.8</ele>
        <time>2024-08-11T10:28:34Z</time>
      </trkpt>
      <trkpt lat="45.71095" lon="3.19137">
        <ele>372.8</ele>
        <time>2024-08-11T10:28:35Z</time>
      </trkpt>
      <trkpt lat="45.71097" lon="3.19145">
        <ele>372.8</ele>
        <time>2024-08-11T10:28:36Z</time>
      </trkpt>
      <trkpt lat="45.711" lon="3.19154">
        <ele>372.8</ele>
        <time>2024-08-11T10:28:37Z</time>
      </trkpt>
      <trkpt lat="45.71103" lon="3.19162">
        <ele>372.8</ele>
        <time>2024-08-11T10:28:38Z</time>
      </trkpt>
      <trkpt lat="45.71105" lon="3.1917">
        <ele>372.8</ele>
        <time>2024-08-11T10:28:39Z</time>
      </trkpt>
      <trkpt lat="45.71108" lon="3.19179">
        <ele>372.8</ele>
        <time>2024-08-11T10:28:40Z</time>
      </trkpt>
      <trkpt lat="45.7111" lon="3.19187">
        <ele>372.8</ele>
        <time>2024-08-11T10:28:41Z</time>
      </trkpt>
      <trkpt lat="45.71113" lon="3.19195">
        <ele>372.8</ele>
        <time>2024-08-11T10:28:42Z</time>
      </trkpt>
      <trkpt lat="45.71116" lon="3.19204">
        <ele>372.8</ele>
        <time>2024-08-11T10:28:43Z</time>
      </trkpt>
      <trkpt lat="45.71119" lon="3.19212">
        <ele>372.8</ele>
        <time>2024-08-11T10:28:44Z</time>
      </trkpt>
      <trkpt lat="45.71122" lon="3.1922">
        <ele>372.8</ele>
        <time>2024-08-11T10:28:45Z</time>
      </trkpt>
      <trkpt lat="45.71125" lon="3.19229">
        <ele>372.8</ele>
        <time>2024-08-11T10:28:46Z</time>
      </trkpt>
      <trkpt lat="45.71129" lon="3.19238">
        <ele>372.6</ele>
        <time>2024-08-11T10:28:47Z</time>
      </trkpt>
      <trkpt lat="45.71132" lon="3.19246">
        <ele>372.8</ele>
        <time>2024-08-11T10:28:48Z</time>
      </trkpt>
      <trkpt lat="45.71135" lon="3.19255">
        <ele>372.8</ele>
        <time>2024-08-11T10:28:49Z</time>
      </trkpt>
      <trkpt lat="45.71139" lon="3.19264">
        <ele>372.6</ele>
        <time>2024-08-11T10:28:50Z</time>
      </trkpt>
      <trkpt lat="45.71142" lon="3.19273">
        <ele>372.4</ele>
        <time>2024-08-11T10:28:51Z</time>
      </trkpt>
      <trkpt lat="45.71146" lon="3.19282">
        <ele>372.6</ele>
        <time>2024-08-11T10:28:52Z</time>
      </trkpt>
      <trkpt lat="45.71149" lon="3.19291">
        <ele>372.6</ele>
        <time>2024-08-11T10:28:53Z</time>
      </trkpt>
      <trkpt lat="45.71153" lon="3.193">
        <ele>372.4</ele>
        <time>2024-08-11T10:28:54Z</time>
      </trkpt>
      <trkpt lat="45.71157" lon="3.19308">
        <ele>372.4</ele>
        <time>2024-08-11T10:28:55Z</time>
      </trkpt>
      <trkpt lat="45.71162" lon="3.19317">
        <ele>372.4</ele>
        <time>2024-08-11T10:28:56Z</time>
      </trkpt>
      <trkpt lat="45.71166" lon="3.19325">
        <ele>372.2</ele>
        <time>2024-08-11T10:28:57Z</time>
      </trkpt>
      <trkpt lat="45.71171" lon="3.19334">
        <ele>372.2</ele>
        <time>2024-08-11T10:28:58Z</time>
      </trkpt>
      <trkpt lat="45.71175" lon="3.19342">
        <ele>372.2</ele>
        <time>2024-08-11T10:28:59Z</time>
      </trkpt>
      <trkpt lat="45.7118" lon="3.19351">
        <ele>372.2</ele>
        <time>2024-08-11T10:29:00Z</time>
      </trkpt>
      <trkpt lat="45.71184" lon="3.1936">
        <ele>372</ele>
        <time>2024-08-11T10:29:01Z</time>
      </trkpt>
      <trkpt lat="45.71188" lon="3.19369">
        <ele>372</ele>
        <time>2024-08-11T10:29:02Z</time>
      </trkpt>
      <trkpt lat="45.71193" lon="3.19377">
        <ele>372</ele>
        <time>2024-08-11T10:29:03Z</time>
      </trkpt>
      <trkpt lat="45.71197" lon="3.19386">
        <ele>371.8</ele>
        <time>2024-08-11T10:29:04Z</time>
      </trkpt>
      <trkpt lat="45.71202" lon="3.19394">
        <ele>371.8</ele>
        <time>2024-08-11T10:29:05Z</time>
      </trkpt>
      <trkpt lat="45.71206" lon="3.19403">
        <ele>371.8</ele>
        <time>2024-08-11T10:29:06Z</time>
      </trkpt>
      <trkpt lat="45.7121" lon="3.19411">
        <ele>371.6</ele>
        <time>2024-08-11T10:29:07Z</time>
      </trkpt>
      <trkpt lat="45.71214" lon="3.19419">
        <ele>371.6</ele>
        <time>2024-08-11T10:29:08Z</time>
      </trkpt>
      <trkpt lat="45.71219" lon="3.19428">
        <ele>371.6</ele>
        <time>2024-08-11T10:29:09Z</time>
      </trkpt>
      <trkpt lat="45.71223" lon="3.19436">
        <ele>371.4</ele>
        <time>2024-08-11T10:29:10Z</time>
      </trkpt>
      <trkpt lat="45.71227" lon="3.19444">
        <ele>371.4</ele>
        <time>2024-08-11T10:29:11Z</time>
      </trkpt>
      <trkpt lat="45.71231" lon="3.19452">
        <ele>371.2</ele>
        <time>2024-08-11T10:29:12Z</time>
      </trkpt>
      <trkpt lat="45.71236" lon="3.19461">
        <ele>371.2</ele>
        <time>2024-08-11T10:29:13Z</time>
      </trkpt>
      <trkpt lat="45.71239" lon="3.1947">
        <ele>371.2</ele>
        <time>2024-08-11T10:29:14Z</time>
      </trkpt>
      <trkpt lat="45.71243" lon="3.19478">
        <ele>371</ele>
        <time>2024-08-11T10:29:15Z</time>
      </trkpt>
      <trkpt lat="45.71246" lon="3.19487">
        <ele>371</ele>
        <time>2024-08-11T10:29:16Z</time>
      </trkpt>
      <trkpt lat="45.7125" lon="3.19497">
        <ele>371</ele>
        <time>2024-08-11T10:29:17Z</time>
      </trkpt>
      <trkpt lat="45.71253" lon="3.19506">
        <ele>371</ele>
        <time>2024-08-11T10:29:18Z</time>
      </trkpt>
      <trkpt lat="45.71257" lon="3.19515">
        <ele>370.8</ele>
        <time>2024-08-11T10:29:19Z</time>
      </trkpt>
      <trkpt lat="45.71261" lon="3.19525">
        <ele>370.8</ele>
        <time>2024-08-11T10:29:20Z</time>
      </trkpt>
      <trkpt lat="45.71265" lon="3.19534">
        <ele>370.6</ele>
        <time>2024-08-11T10:29:21Z</time>
      </trkpt>
      <trkpt lat="45.71268" lon="3.19543">
        <ele>370.4</ele>
        <time>2024-08-11T10:29:22Z</time>
      </trkpt>
      <trkpt lat="45.71271" lon="3.19553">
        <ele>370.4</ele>
        <time>2024-08-11T10:29:23Z</time>
      </trkpt>
      <trkpt lat="45.7127" lon="3.19562">
        <ele>370.4</ele>
        <time>2024-08-11T10:29:24Z</time>
      </trkpt>
      <trkpt lat="45.71268" lon="3.19587">
        <ele>370.2</ele>
        <time>2024-08-11T10:29:25Z</time>
      </trkpt>
      <trkpt lat="45.71268" lon="3.19587">
        <ele>370.2</ele>
        <time>2024-08-11T10:29:26Z</time>
      </trkpt>
      <trkpt lat="45.7127" lon="3.19597">
        <ele>370</ele>
        <time>2024-08-11T10:29:27Z</time>
      </trkpt>
      <trkpt lat="45.71279" lon="3.19617">
        <ele>369.8</ele>
        <time>2024-08-11T10:29:28Z</time>
      </trkpt>
      <trkpt lat="45.71279" lon="3.19617">
        <ele>369.8</ele>
        <time>2024-08-11T10:29:29Z</time>
      </trkpt>
      <trkpt lat="45.71288" lon="3.19621">
        <ele>369.8</ele>
        <time>2024-08-11T10:29:30Z</time>
      </trkpt>
      <trkpt lat="45.71302" lon="3.19622">
        <ele>369.6</ele>
        <time>2024-08-11T10:29:31Z</time>
      </trkpt>
      <trkpt lat="45.71302" lon="3.19622">
        <ele>369.6</ele>
        <time>2024-08-11T10:29:32Z</time>
      </trkpt>
      <trkpt lat="45.71309" lon="3.19619">
        <ele>369.6</ele>
        <time>2024-08-11T10:29:33Z</time>
      </trkpt>
      <trkpt lat="45.71319" lon="3.19608">
        <ele>369.6</ele>
        <time>2024-08-11T10:29:34Z</time>
      </trkpt>
      <trkpt lat="45.71319" lon="3.19608">
        <ele>369.6</ele>
        <time>2024-08-11T10:29:35Z</time>
      </trkpt>
      <trkpt lat="45.71322" lon="3.19598">
        <ele>369.6</ele>
        <time>2024-08-11T10:29:36Z</time>
      </trkpt>
      <trkpt lat="45.71327" lon="3.19581">
        <ele>369.6</ele>
        <time>2024-08-11T10:29:37Z</time>
      </trkpt>
      <trkpt lat="45.71327" lon="3.19581">
        <ele>369.4</ele>
        <time>2024-08-11T10:29:38Z</time>
      </trkpt>
      <trkpt lat="45.71325" lon="3.19572">
        <ele>369.4</ele>
        <time>2024-08-11T10:29:39Z</time>
      </trkpt>
      <trkpt lat="45.71323" lon="3.19563">
        <ele>369.4</ele>
        <time>2024-08-11T10:29:40Z</time>
      </trkpt>
      <trkpt lat="45.71321" lon="3.19552">
        <ele>369.4</ele>
        <time>2024-08-11T10:29:41Z</time>
      </trkpt>
      <trkpt lat="45.71321" lon="3.19543">
        <ele>369.4</ele>
        <time>2024-08-11T10:29:42Z</time>
      </trkpt>
      <trkpt lat="45.71321" lon="3.19533">
        <ele>369.4</ele>
        <time>2024-08-11T10:29:43Z</time>
      </trkpt>
      <trkpt lat="45.71324" lon="3.19525">
        <ele>369.4</ele>
        <time>2024-08-11T10:29:44Z</time>
      </trkpt>
      <trkpt lat="45.71326" lon="3.19516">
        <ele>369.4</ele>
        <time>2024-08-11T10:29:45Z</time>
      </trkpt>
      <trkpt lat="45.71328" lon="3.19508">
        <ele>369.4</ele>
        <time>2024-08-11T10:29:46Z</time>
      </trkpt>
      <trkpt lat="45.71331" lon="3.195">
        <ele>369.2</ele>
        <time>2024-08-11T10:29:47Z</time>
      </trkpt>
      <trkpt lat="45.71333" lon="3.19492">
        <ele>369.2</ele>
        <time>2024-08-11T10:29:48Z</time>
      </trkpt>
      <trkpt lat="45.71335" lon="3.19483">
        <ele>369.2</ele>
        <time>2024-08-11T10:29:49Z</time>
      </trkpt>
      <trkpt lat="45.71337" lon="3.19475">
        <ele>369.2</ele>
        <time>2024-08-11T10:29:50Z</time>
      </trkpt>
      <trkpt lat="45.7134" lon="3.19466">
        <ele>369.2</ele>
        <time>2024-08-11T10:29:51Z</time>
      </trkpt>
      <trkpt lat="45.71344" lon="3.19458">
        <ele>369</ele>
        <time>2024-08-11T10:29:52Z</time>
      </trkpt>
      <trkpt lat="45.71348" lon="3.19451">
        <ele>369</ele>
        <time>2024-08-11T10:29:53Z</time>
      </trkpt>
      <trkpt lat="45.71352" lon="3.19444">
        <ele>369</ele>
        <time>2024-08-11T10:29:54Z</time>
      </trkpt>
      <trkpt lat="45.71356" lon="3.19437">
        <ele>369.2</ele>
        <time>2024-08-11T10:29:55Z</time>
      </trkpt>
      <trkpt lat="45.71359" lon="3.1943">
        <ele>369.2</ele>
        <time>2024-08-11T10:29:56Z</time>
      </trkpt>
      <trkpt lat="45.71363" lon="3.19424">
        <ele>369.2</ele>
        <time>2024-08-11T10:29:57Z</time>
      </trkpt>
      <trkpt lat="45.71367" lon="3.19418">
        <ele>369.2</ele>
        <time>2024-08-11T10:29:58Z</time>
      </trkpt>
      <trkpt lat="45.71373" lon="3.19412">
        <ele>369</ele>
        <time>2024-08-11T10:29:59Z</time>
      </trkpt>
      <trkpt lat="45.71378" lon="3.19407">
        <ele>369</ele>
        <time>2024-08-11T10:30:00Z</time>
      </trkpt>
      <trkpt lat="45.71383" lon="3.19402">
        <ele>369.2</ele>
        <time>2024-08-11T10:30:01Z</time>
      </trkpt>
      <trkpt lat="45.71387" lon="3.19397">
        <ele>369.2</ele>
        <time>2024-08-11T10:30:02Z</time>
      </trkpt>
      <trkpt lat="45.71392" lon="3.19392">
        <ele>369</ele>
        <time>2024-08-11T10:30:03Z</time>
      </trkpt>
      <trkpt lat="45.71397" lon="3.19387">
        <ele>369.2</ele>
        <time>2024-08-11T10:30:04Z</time>
      </trkpt>
      <trkpt lat="45.71403" lon="3.19382">
        <ele>369.2</ele>
        <time>2024-08-11T10:30:05Z</time>
      </trkpt>
      <trkpt lat="45.71408" lon="3.19376">
        <ele>369.2</ele>
        <time>2024-08-11T10:30:06Z</time>
      </trkpt>
      <trkpt lat="45.71414" lon="3.19371">
        <ele>369</ele>
        <time>2024-08-11T10:30:07Z</time>
      </trkpt>
      <trkpt lat="45.71419" lon="3.19365">
        <ele>368.8</ele>
        <time>2024-08-11T10:30:08Z</time>
      </trkpt>
      <trkpt lat="45.71425" lon="3.19359">
        <ele>368.8</ele>
        <time>2024-08-11T10:30:09Z</time>
      </trkpt>
      <trkpt lat="45.71432" lon="3.19353">
        <ele>368.8</ele>
        <time>2024-08-11T10:30:10Z</time>
      </trkpt>
      <trkpt lat="45.71438" lon="3.19346">
        <ele>368.6</ele>
        <time>2024-08-11T10:30:11Z</time>
      </trkpt>
      <trkpt lat="45.71445" lon="3.19339">
        <ele>368.6</ele>
        <time>2024-08-11T10:30:12Z</time>
      </trkpt>
      <trkpt lat="45.71451" lon="3.19333">
        <ele>368.6</ele>
        <time>2024-08-11T10:30:13Z</time>
      </trkpt>
      <trkpt lat="45.71456" lon="3.19328">
        <ele>368.6</ele>
        <time>2024-08-11T10:30:14Z</time>
      </trkpt>
      <trkpt lat="45.71462" lon="3.19322">
        <ele>368.6</ele>
        <time>2024-08-11T10:30:15Z</time>
      </trkpt>
      <trkpt lat="45.71468" lon="3.19316">
        <ele>368.6</ele>
        <time>2024-08-11T10:30:16Z</time>
      </trkpt>
      <trkpt lat="45.71474" lon="3.1931">
        <ele>368.6</ele>
        <time>2024-08-11T10:30:17Z</time>
      </trkpt>
      <trkpt lat="45.7148" lon="3.19304">
        <ele>368.6</ele>
        <time>2024-08-11T10:30:18Z</time>
      </trkpt>
      <trkpt lat="45.71485" lon="3.19298">
        <ele>368.6</ele>
        <time>2024-08-11T10:30:19Z</time>
      </trkpt>
      <trkpt lat="45.71492" lon="3.19292">
        <ele>368.6</ele>
        <time>2024-08-11T10:30:20Z</time>
      </trkpt>
      <trkpt lat="45.71498" lon="3.19286">
        <ele>368.6</ele>
        <time>2024-08-11T10:30:21Z</time>
      </trkpt>
      <trkpt lat="45.71504" lon="3.19279">
        <ele>368.6</ele>
        <time>2024-08-11T10:30:22Z</time>
      </trkpt>
      <trkpt lat="45.7151" lon="3.19273">
        <ele>368.6</ele>
        <time>2024-08-11T10:30:23Z</time>
      </trkpt>
      <trkpt lat="45.71517" lon="3.19267">
        <ele>368.4</ele>
        <time>2024-08-11T10:30:24Z</time>
      </trkpt>
      <trkpt lat="45.71523" lon="3.19261">
        <ele>368.4</ele>
        <time>2024-08-11T10:30:25Z</time>
      </trkpt>
      <trkpt lat="45.71529" lon="3.19254">
        <ele>368.4</ele>
        <time>2024-08-11T10:30:26Z</time>
      </trkpt>
      <trkpt lat="45.71535" lon="3.19249">
        <ele>368.4</ele>
        <time>2024-08-11T10:30:27Z</time>
      </trkpt>
      <trkpt lat="45.7154" lon="3.19243">
        <ele>368.4</ele>
        <time>2024-08-11T10:30:28Z</time>
      </trkpt>
      <trkpt lat="45.71546" lon="3.19237">
        <ele>368.4</ele>
        <time>2024-08-11T10:30:29Z</time>
      </trkpt>
      <trkpt lat="45.71551" lon="3.19232">
        <ele>368.4</ele>
        <time>2024-08-11T10:30:30Z</time>
      </trkpt>
      <trkpt lat="45.71557" lon="3.19226">
        <ele>368.2</ele>
        <time>2024-08-11T10:30:31Z</time>
      </trkpt>
      <trkpt lat="45.71563" lon="3.1922">
        <ele>368.2</ele>
        <time>2024-08-11T10:30:32Z</time>
      </trkpt>
      <trkpt lat="45.71568" lon="3.19215">
        <ele>368</ele>
        <time>2024-08-11T10:30:33Z</time>
      </trkpt>
      <trkpt lat="45.71574" lon="3.19209">
        <ele>368</ele>
        <time>2024-08-11T10:30:34Z</time>
      </trkpt>
      <trkpt lat="45.71579" lon="3.19204">
        <ele>368</ele>
        <time>2024-08-11T10:30:35Z</time>
      </trkpt>
      <trkpt lat="45.71585" lon="3.19198">
        <ele>367.8</ele>
        <time>2024-08-11T10:30:36Z</time>
      </trkpt>
      <trkpt lat="45.7159" lon="3.19193">
        <ele>367.8</ele>
        <time>2024-08-11T10:30:37Z</time>
      </trkpt>
      <trkpt lat="45.71595" lon="3.19188">
        <ele>367.8</ele>
        <time>2024-08-11T10:30:38Z</time>
      </trkpt>
      <trkpt lat="45.71601" lon="3.19182">
        <ele>367.6</ele>
        <time>2024-08-11T10:30:39Z</time>
      </trkpt>
      <trkpt lat="45.71606" lon="3.19177">
        <ele>367.6</ele>
        <time>2024-08-11T10:30:40Z</time>
      </trkpt>
      <trkpt lat="45.71612" lon="3.19171">
        <ele>367.6</ele>
        <time>2024-08-11T10:30:41Z</time>
      </trkpt>
      <trkpt lat="45.71617" lon="3.19165">
        <ele>367.6</ele>
        <time>2024-08-11T10:30:42Z</time>
      </trkpt>
      <trkpt lat="45.71623" lon="3.19159">
        <ele>367.6</ele>
        <time>2024-08-11T10:30:43Z</time>
      </trkpt>
      <trkpt lat="45.71629" lon="3.19154">
        <ele>367.6</ele>
        <time>2024-08-11T10:30:44Z</time>
      </trkpt>
      <trkpt lat="45.71635" lon="3.19148">
        <ele>367.6</ele>
        <time>2024-08-11T10:30:45Z</time>
      </trkpt>
      <trkpt lat="45.71641" lon="3.19142">
        <ele>367.6</ele>
        <time>2024-08-11T10:30:46Z</time>
      </trkpt>
      <trkpt lat="45.71646" lon="3.19136">
        <ele>367.6</ele>
        <time>2024-08-11T10:30:47Z</time>
      </trkpt>
      <trkpt lat="45.71652" lon="3.19132">
        <ele>367.6</ele>
        <time>2024-08-11T10:30:48Z</time>
      </trkpt>
      <trkpt lat="45.71658" lon="3.19127">
        <ele>367.6</ele>
        <time>2024-08-11T10:30:49Z</time>
      </trkpt>
      <trkpt lat="45.71664" lon="3.19123">
        <ele>367.6</ele>
        <time>2024-08-11T10:30:50Z</time>
      </trkpt>
      <trkpt lat="45.7167" lon="3.19119">
        <ele>367.8</ele>
        <time>2024-08-11T10:30:51Z</time>
      </trkpt>
      <trkpt lat="45.71676" lon="3.19114">
        <ele>367.8</ele>
        <time>2024-08-11T10:30:52Z</time>
      </trkpt>
      <trkpt lat="45.71682" lon="3.1911">
        <ele>367.8</ele>
        <time>2024-08-11T10:30:53Z</time>
      </trkpt>
      <trkpt lat="45.71688" lon="3.19106">
        <ele>367.8</ele>
        <time>2024-08-11T10:30:54Z</time>
      </trkpt>
      <trkpt lat="45.71694" lon="3.19101">
        <ele>367.8</ele>
        <time>2024-08-11T10:30:55Z</time>
      </trkpt>
      <trkpt lat="45.717" lon="3.19097">
        <ele>367.8</ele>
        <time>2024-08-11T10:30:56Z</time>
      </trkpt>
      <trkpt lat="45.71706" lon="3.19092">
        <ele>367.6</ele>
        <time>2024-08-11T10:30:57Z</time>
      </trkpt>
      <trkpt lat="45.71712" lon="3.19088">
        <ele>367.6</ele>
        <time>2024-08-11T10:30:58Z</time>
      </trkpt>
      <trkpt lat="45.71718" lon="3.19083">
        <ele>367.4</ele>
        <time>2024-08-11T10:30:59Z</time>
      </trkpt>
      <trkpt lat="45.71725" lon="3.19079">
        <ele>367.4</ele>
        <time>2024-08-11T10:31:00Z</time>
      </trkpt>
      <trkpt lat="45.71731" lon="3.19075">
        <ele>367.4</ele>
        <time>2024-08-11T10:31:01Z</time>
      </trkpt>
      <trkpt lat="45.71737" lon="3.19072">
        <ele>367.4</ele>
        <time>2024-08-11T10:31:02Z</time>
      </trkpt>
      <trkpt lat="45.71744" lon="3.19068">
        <ele>367.4</ele>
        <time>2024-08-11T10:31:03Z</time>
      </trkpt>
      <trkpt lat="45.7175" lon="3.19064">
        <ele>367.2</ele>
        <time>2024-08-11T10:31:04Z</time>
      </trkpt>
      <trkpt lat="45.71756" lon="3.19062">
        <ele>367.2</ele>
        <time>2024-08-11T10:31:05Z</time>
      </trkpt>
      <trkpt lat="45.71763" lon="3.19061">
        <ele>367</ele>
        <time>2024-08-11T10:31:06Z</time>
      </trkpt>
      <trkpt lat="45.71767" lon="3.19061">
        <ele>367</ele>
        <time>2024-08-11T10:31:07Z</time>
      </trkpt>
      <trkpt lat="45.71778" lon="3.19067">
        <ele>367</ele>
        <time>2024-08-11T10:31:08Z</time>
      </trkpt>
      <trkpt lat="45.71782" lon="3.19061">
        <ele>367</ele>
        <time>2024-08-11T10:31:09Z</time>
      </trkpt>
      <trkpt lat="45.71783" lon="3.19047">
        <ele>367</ele>
        <time>2024-08-11T10:31:10Z</time>
      </trkpt>
      <trkpt lat="45.71788" lon="3.1904">
        <ele>367</ele>
        <time>2024-08-11T10:31:11Z</time>
      </trkpt>
      <trkpt lat="45.71795" lon="3.19033">
        <ele>367</ele>
        <time>2024-08-11T10:31:12Z</time>
      </trkpt>
      <trkpt lat="45.71801" lon="3.19028">
        <ele>367</ele>
        <time>2024-08-11T10:31:13Z</time>
      </trkpt>
      <trkpt lat="45.71807" lon="3.19022">
        <ele>366.8</ele>
        <time>2024-08-11T10:31:14Z</time>
      </trkpt>
      <trkpt lat="45.71813" lon="3.19016">
        <ele>366.8</ele>
        <time>2024-08-11T10:31:15Z</time>
      </trkpt>
      <trkpt lat="45.7182" lon="3.1901">
        <ele>366.8</ele>
        <time>2024-08-11T10:31:16Z</time>
      </trkpt>
      <trkpt lat="45.71826" lon="3.19003">
        <ele>366.6</ele>
        <time>2024-08-11T10:31:17Z</time>
      </trkpt>
      <trkpt lat="45.71831" lon="3.18995">
        <ele>366.6</ele>
        <time>2024-08-11T10:31:18Z</time>
      </trkpt>
      <trkpt lat="45.71837" lon="3.18988">
        <ele>366.4</ele>
        <time>2024-08-11T10:31:19Z</time>
      </trkpt>
      <trkpt lat="45.71842" lon="3.1898">
        <ele>366.4</ele>
        <time>2024-08-11T10:31:20Z</time>
      </trkpt>
      <trkpt lat="45.71848" lon="3.18972">
        <ele>366.2</ele>
        <time>2024-08-11T10:31:21Z</time>
      </trkpt>
      <trkpt lat="45.71854" lon="3.18965">
        <ele>366.2</ele>
        <time>2024-08-11T10:31:22Z</time>
      </trkpt>
      <trkpt lat="45.71859" lon="3.18957">
        <ele>366</ele>
        <time>2024-08-11T10:31:23Z</time>
      </trkpt>
      <trkpt lat="45.71865" lon="3.18949">
        <ele>365.8</ele>
        <time>2024-08-11T10:31:24Z</time>
      </trkpt>
      <trkpt lat="45.71871" lon="3.18941">
        <ele>365.8</ele>
        <time>2024-08-11T10:31:25Z</time>
      </trkpt>
      <trkpt lat="45.71876" lon="3.18933">
        <ele>365.6</ele>
        <time>2024-08-11T10:31:26Z</time>
      </trkpt>
      <trkpt lat="45.71882" lon="3.18925">
        <ele>365.6</ele>
        <time>2024-08-11T10:31:27Z</time>
      </trkpt>
      <trkpt lat="45.71888" lon="3.18917">
        <ele>365.4</ele>
        <time>2024-08-11T10:31:28Z</time>
      </trkpt>
      <trkpt lat="45.71894" lon="3.18909">
        <ele>365.2</ele>
        <time>2024-08-11T10:31:29Z</time>
      </trkpt>
      <trkpt lat="45.719" lon="3.189">
        <ele>365</ele>
        <time>2024-08-11T10:31:30Z</time>
      </trkpt>
      <trkpt lat="45.71906" lon="3.18892">
        <ele>364.8</ele>
        <time>2024-08-11T10:31:31Z</time>
      </trkpt>
      <trkpt lat="45.71912" lon="3.18883">
        <ele>364.6</ele>
        <time>2024-08-11T10:31:32Z</time>
      </trkpt>
      <trkpt lat="45.71919" lon="3.18874">
        <ele>364.4</ele>
        <time>2024-08-11T10:31:33Z</time>
      </trkpt>
      <trkpt lat="45.71926" lon="3.18867">
        <ele>364.4</ele>
        <time>2024-08-11T10:31:34Z</time>
      </trkpt>
      <trkpt lat="45.71934" lon="3.1886">
        <ele>364.2</ele>
        <time>2024-08-11T10:31:35Z</time>
      </trkpt>
      <trkpt lat="45.71942" lon="3.18852">
        <ele>364</ele>
        <time>2024-08-11T10:31:36Z</time>
      </trkpt>
      <trkpt lat="45.7195" lon="3.18844">
        <ele>363.8</ele>
        <time>2024-08-11T10:31:37Z</time>
      </trkpt>
      <trkpt lat="45.71958" lon="3.18836">
        <ele>363.6</ele>
        <time>2024-08-11T10:31:38Z</time>
      </trkpt>
      <trkpt lat="45.71966" lon="3.18827">
        <ele>363.2</ele>
        <time>2024-08-11T10:31:39Z</time>
      </trkpt>
      <trkpt lat="45.71976" lon="3.18821">
        <ele>363</ele>
        <time>2024-08-11T10:31:40Z</time>
      </trkpt>
      <trkpt lat="45.71985" lon="3.18815">
        <ele>362.8</ele>
        <time>2024-08-11T10:31:41Z</time>
      </trkpt>
      <trkpt lat="45.71994" lon="3.1881">
        <ele>362.6</ele>
        <time>2024-08-11T10:31:42Z</time>
      </trkpt>
      <trkpt lat="45.72003" lon="3.18804">
        <ele>362.4</ele>
        <time>2024-08-11T10:31:43Z</time>
      </trkpt>
      <trkpt lat="45.72012" lon="3.18799">
        <ele>362.2</ele>
        <time>2024-08-11T10:31:44Z</time>
      </trkpt>
      <trkpt lat="45.72022" lon="3.18793">
        <ele>361.8</ele>
        <time>2024-08-11T10:31:45Z</time>
      </trkpt>
      <trkpt lat="45.72031" lon="3.18788">
        <ele>361.6</ele>
        <time>2024-08-11T10:31:46Z</time>
      </trkpt>
      <trkpt lat="45.7204" lon="3.18784">
        <ele>361.4</ele>
        <time>2024-08-11T10:31:47Z</time>
      </trkpt>
      <trkpt lat="45.72049" lon="3.18781">
        <ele>361.2</ele>
        <time>2024-08-11T10:31:48Z</time>
      </trkpt>
      <trkpt lat="45.72059" lon="3.18778">
        <ele>360.8</ele>
        <time>2024-08-11T10:31:49Z</time>
      </trkpt>
      <trkpt lat="45.72068" lon="3.18776">
        <ele>360.6</ele>
        <time>2024-08-11T10:31:50Z</time>
      </trkpt>
      <trkpt lat="45.72074" lon="3.18774">
        <ele>360.4</ele>
        <time>2024-08-11T10:31:51Z</time>
      </trkpt>
      <trkpt lat="45.72082" lon="3.18777">
        <ele>360</ele>
        <time>2024-08-11T10:31:52Z</time>
      </trkpt>
      <trkpt lat="45.72088" lon="3.18784">
        <ele>359.8</ele>
        <time>2024-08-11T10:31:53Z</time>
      </trkpt>
      <trkpt lat="45.72094" lon="3.18791">
        <ele>359.6</ele>
        <time>2024-08-11T10:31:54Z</time>
      </trkpt>
      <trkpt lat="45.721" lon="3.18799">
        <ele>359.2</ele>
        <time>2024-08-11T10:31:55Z</time>
      </trkpt>
      <trkpt lat="45.72106" lon="3.18806">
        <ele>359</ele>
        <time>2024-08-11T10:31:56Z</time>
      </trkpt>
      <trkpt lat="45.72112" lon="3.18813">
        <ele>358.8</ele>
        <time>2024-08-11T10:31:57Z</time>
      </trkpt>
      <trkpt lat="45.72117" lon="3.18819">
        <ele>358.6</ele>
        <time>2024-08-11T10:31:58Z</time>
      </trkpt>
      <trkpt lat="45.72123" lon="3.18826">
        <ele>358.4</ele>
        <time>2024-08-11T10:31:59Z</time>
      </trkpt>
      <trkpt lat="45.72129" lon="3.18833">
        <ele>358.2</ele>
        <time>2024-08-11T10:32:00Z</time>
      </trkpt>
      <trkpt lat="45.72134" lon="3.18839">
        <ele>358</ele>
        <time>2024-08-11T10:32:01Z</time>
      </trkpt>
      <trkpt lat="45.72139" lon="3.18845">
        <ele>357.8</ele>
        <time>2024-08-11T10:32:02Z</time>
      </trkpt>
      <trkpt lat="45.72143" lon="3.18851">
        <ele>357.6</ele>
        <time>2024-08-11T10:32:03Z</time>
      </trkpt>
      <trkpt lat="45.72148" lon="3.18858">
        <ele>357.4</ele>
        <time>2024-08-11T10:32:04Z</time>
      </trkpt>
      <trkpt lat="45.72153" lon="3.18865">
        <ele>357.2</ele>
        <time>2024-08-11T10:32:05Z</time>
      </trkpt>
      <trkpt lat="45.72157" lon="3.18871">
        <ele>356.8</ele>
        <time>2024-08-11T10:32:06Z</time>
      </trkpt>
      <trkpt lat="45.72163" lon="3.18879">
        <ele>356.6</ele>
        <time>2024-08-11T10:32:07Z</time>
      </trkpt>
      <trkpt lat="45.72166" lon="3.18888">
        <ele>356.4</ele>
        <time>2024-08-11T10:32:08Z</time>
      </trkpt>
      <trkpt lat="45.7217" lon="3.18897">
        <ele>356.2</ele>
        <time>2024-08-11T10:32:09Z</time>
      </trkpt>
      <trkpt lat="45.72173" lon="3.18905">
        <ele>356</ele>
        <time>2024-08-11T10:32:10Z</time>
      </trkpt>
      <trkpt lat="45.72176" lon="3.18913">
        <ele>355.6</ele>
        <time>2024-08-11T10:32:11Z</time>
      </trkpt>
      <trkpt lat="45.72178" lon="3.18921">
        <ele>355.4</ele>
        <time>2024-08-11T10:32:12Z</time>
      </trkpt>
      <trkpt lat="45.72181" lon="3.18931">
        <ele>355.4</ele>
        <time>2024-08-11T10:32:13Z</time>
      </trkpt>
      <trkpt lat="45.72184" lon="3.1894">
        <ele>355.2</ele>
        <time>2024-08-11T10:32:14Z</time>
      </trkpt>
      <trkpt lat="45.72186" lon="3.18949">
        <ele>355</ele>
        <time>2024-08-11T10:32:15Z</time>
      </trkpt>
      <trkpt lat="45.72189" lon="3.18958">
        <ele>354.8</ele>
        <time>2024-08-11T10:32:16Z</time>
      </trkpt>
      <trkpt lat="45.72192" lon="3.18967">
        <ele>354.6</ele>
        <time>2024-08-11T10:32:17Z</time>
      </trkpt>
      <trkpt lat="45.72194" lon="3.18976">
        <ele>354.4</ele>
        <time>2024-08-11T10:32:18Z</time>
      </trkpt>
      <trkpt lat="45.72197" lon="3.18985">
        <ele>354.2</ele>
        <time>2024-08-11T10:32:19Z</time>
      </trkpt>
      <trkpt lat="45.72201" lon="3.18993">
        <ele>354</ele>
        <time>2024-08-11T10:32:20Z</time>
      </trkpt>
      <trkpt lat="45.72205" lon="3.19">
        <ele>353.8</ele>
        <time>2024-08-11T10:32:21Z</time>
      </trkpt>
      <trkpt lat="45.72209" lon="3.19007">
        <ele>353.6</ele>
        <time>2024-08-11T10:32:22Z</time>
      </trkpt>
      <trkpt lat="45.72214" lon="3.19014">
        <ele>353.4</ele>
        <time>2024-08-11T10:32:23Z</time>
      </trkpt>
      <trkpt lat="45.72218" lon="3.1902">
        <ele>353.2</ele>
        <time>2024-08-11T10:32:24Z</time>
      </trkpt>
      <trkpt lat="45.72222" lon="3.19027">
        <ele>353.2</ele>
        <time>2024-08-11T10:32:25Z</time>
      </trkpt>
      <trkpt lat="45.72227" lon="3.19035">
        <ele>353</ele>
        <time>2024-08-11T10:32:26Z</time>
      </trkpt>
      <trkpt lat="45.72231" lon="3.19042">
        <ele>352.8</ele>
        <time>2024-08-11T10:32:27Z</time>
      </trkpt>
      <trkpt lat="45.72235" lon="3.19049">
        <ele>352.6</ele>
        <time>2024-08-11T10:32:28Z</time>
      </trkpt>
      <trkpt lat="45.7224" lon="3.19056">
        <ele>352.4</ele>
        <time>2024-08-11T10:32:29Z</time>
      </trkpt>
      <trkpt lat="45.72244" lon="3.19063">
        <ele>352.4</ele>
        <time>2024-08-11T10:32:30Z</time>
      </trkpt>
      <trkpt lat="45.72247" lon="3.19068">
        <ele>352.2</ele>
        <time>2024-08-11T10:32:31Z</time>
      </trkpt>
      <trkpt lat="45.72251" lon="3.19074">
        <ele>352</ele>
        <time>2024-08-11T10:32:32Z</time>
      </trkpt>
      <trkpt lat="45.72255" lon="3.19081">
        <ele>352</ele>
        <time>2024-08-11T10:32:33Z</time>
      </trkpt>
      <trkpt lat="45.72259" lon="3.19087">
        <ele>351.8</ele>
        <time>2024-08-11T10:32:34Z</time>
      </trkpt>
      <trkpt lat="45.72264" lon="3.19095">
        <ele>351.8</ele>
        <time>2024-08-11T10:32:35Z</time>
      </trkpt>
      <trkpt lat="45.72268" lon="3.19102">
        <ele>351.6</ele>
        <time>2024-08-11T10:32:36Z</time>
      </trkpt>
      <trkpt lat="45.72272" lon="3.19108">
        <ele>351.6</ele>
        <time>2024-08-11T10:32:37Z</time>
      </trkpt>
      <trkpt lat="45.72275" lon="3.19111">
        <ele>351.6</ele>
        <time>2024-08-11T10:32:38Z</time>
      </trkpt>
      <trkpt lat="45.72279" lon="3.19115">
        <ele>351.6</ele>
        <time>2024-08-11T10:32:39Z</time>
      </trkpt>
      <trkpt lat="45.72283" lon="3.1912">
        <ele>351.4</ele>
        <time>2024-08-11T10:32:40Z</time>
      </trkpt>
      <trkpt lat="45.72288" lon="3.19124">
        <ele>351.4</ele>
        <time>2024-08-11T10:32:41Z</time>
      </trkpt>
      <trkpt lat="45.72292" lon="3.19128">
        <ele>351.2</ele>
        <time>2024-08-11T10:32:42Z</time>
      </trkpt>
      <trkpt lat="45.72297" lon="3.19133">
        <ele>351.2</ele>
        <time>2024-08-11T10:32:43Z</time>
      </trkpt>
      <trkpt lat="45.72302" lon="3.19136">
        <ele>351</ele>
        <time>2024-08-11T10:32:44Z</time>
      </trkpt>
      <trkpt lat="45.72308" lon="3.1914">
        <ele>350.8</ele>
        <time>2024-08-11T10:32:45Z</time>
      </trkpt>
      <trkpt lat="45.72314" lon="3.19143">
        <ele>350.6</ele>
        <time>2024-08-11T10:32:46Z</time>
      </trkpt>
      <trkpt lat="45.72319" lon="3.19147">
        <ele>350.6</ele>
        <time>2024-08-11T10:32:47Z</time>
      </trkpt>
      <trkpt lat="45.72325" lon="3.1915">
        <ele>350.4</ele>
        <time>2024-08-11T10:32:48Z</time>
      </trkpt>
      <trkpt lat="45.72331" lon="3.19153">
        <ele>350.4</ele>
        <time>2024-08-11T10:32:49Z</time>
      </trkpt>
      <trkpt lat="45.72336" lon="3.19156">
        <ele>350.2</ele>
        <time>2024-08-11T10:32:50Z</time>
      </trkpt>
      <trkpt lat="45.72342" lon="3.19159">
        <ele>350.2</ele>
        <time>2024-08-11T10:32:51Z</time>
      </trkpt>
      <trkpt lat="45.72348" lon="3.19162">
        <ele>350.2</ele>
        <time>2024-08-11T10:32:52Z</time>
      </trkpt>
      <trkpt lat="45.72354" lon="3.19165">
        <ele>350.2</ele>
        <time>2024-08-11T10:32:53Z</time>
      </trkpt>
      <trkpt lat="45.72359" lon="3.19168">
        <ele>350.2</ele>
        <time>2024-08-11T10:32:54Z</time>
      </trkpt>
      <trkpt lat="45.72364" lon="3.1917">
        <ele>350</ele>
        <time>2024-08-11T10:32:55Z</time>
      </trkpt>
      <trkpt lat="45.72368" lon="3.19172">
        <ele>350.2</ele>
        <time>2024-08-11T10:32:56Z</time>
      </trkpt>
      <trkpt lat="45.72372" lon="3.19174">
        <ele>350.2</ele>
        <time>2024-08-11T10:32:57Z</time>
      </trkpt>
      <trkpt lat="45.72377" lon="3.19177">
        <ele>350.2</ele>
        <time>2024-08-11T10:32:58Z</time>
      </trkpt>
      <trkpt lat="45.72382" lon="3.19179">
        <ele>350.2</ele>
        <time>2024-08-11T10:32:59Z</time>
      </trkpt>
      <trkpt lat="45.72387" lon="3.19181">
        <ele>350.2</ele>
        <time>2024-08-11T10:33:00Z</time>
      </trkpt>
      <trkpt lat="45.72392" lon="3.19182">
        <ele>350.2</ele>
        <time>2024-08-11T10:33:01Z</time>
      </trkpt>
      <trkpt lat="45.72397" lon="3.19184">
        <ele>350.2</ele>
        <time>2024-08-11T10:33:02Z</time>
      </trkpt>
      <trkpt lat="45.72401" lon="3.19185">
        <ele>350.2</ele>
        <time>2024-08-11T10:33:03Z</time>
      </trkpt>
      <trkpt lat="45.72407" lon="3.19186">
        <ele>350.2</ele>
        <time>2024-08-11T10:33:04Z</time>
      </trkpt>
      <trkpt lat="45.72412" lon="3.19187">
        <ele>350.2</ele>
        <time>2024-08-11T10:33:05Z</time>
      </trkpt>
      <trkpt lat="45.72417" lon="3.19189">
        <ele>350.2</ele>
        <time>2024-08-11T10:33:06Z</time>
      </trkpt>
      <trkpt lat="45.72422" lon="3.1919">
        <ele>350.2</ele>
        <time>2024-08-11T10:33:07Z</time>
      </trkpt>
      <trkpt lat="45.72427" lon="3.19191">
        <ele>350.4</ele>
        <time>2024-08-11T10:33:08Z</time>
      </trkpt>
      <trkpt lat="45.72432" lon="3.19192">
        <ele>350.4</ele>
        <time>2024-08-11T10:33:09Z</time>
      </trkpt>
      <trkpt lat="45.7244" lon="3.19198">
        <ele>349.8</ele>
        <time>2024-08-11T10:33:10Z</time>
      </trkpt>
      <trkpt lat="45.72446" lon="3.19205">
        <ele>350</ele>
        <time>2024-08-11T10:33:11Z</time>
      </trkpt>
      <trkpt lat="45.72448" lon="3.1921">
        <ele>350.4</ele>
        <time>2024-08-11T10:33:12Z</time>
      </trkpt>
      <trkpt lat="45.7245" lon="3.19216">
        <ele>350.8</ele>
        <time>2024-08-11T10:33:13Z</time>
      </trkpt>
      <trkpt lat="45.72452" lon="3.19222">
        <ele>351.2</ele>
        <time>2024-08-11T10:33:14Z</time>
      </trkpt>
      <trkpt lat="45.72454" lon="3.19227">
        <ele>350.6</ele>
        <time>2024-08-11T10:33:15Z</time>
      </trkpt>
      <trkpt lat="45.72456" lon="3.19233">
        <ele>350.6</ele>
        <time>2024-08-11T10:33:16Z</time>
      </trkpt>
      <trkpt lat="45.72458" lon="3.19238">
        <ele>350.8</ele>
        <time>2024-08-11T10:33:17Z</time>
      </trkpt>
      <trkpt lat="45.7246" lon="3.19243">
        <ele>350.8</ele>
        <time>2024-08-11T10:33:18Z</time>
      </trkpt>
      <trkpt lat="45.72462" lon="3.19249">
        <ele>350.8</ele>
        <time>2024-08-11T10:33:19Z</time>
      </trkpt>
      <trkpt lat="45.72462" lon="3.19256">
        <ele>350.8</ele>
        <time>2024-08-11T10:33:20Z</time>
      </trkpt>
      <trkpt lat="45.72464" lon="3.19261">
        <ele>350.8</ele>
        <time>2024-08-11T10:33:21Z</time>
      </trkpt>
      <trkpt lat="45.72465" lon="3.19266">
        <ele>351</ele>
        <time>2024-08-11T10:33:22Z</time>
      </trkpt>
      <trkpt lat="45.72467" lon="3.19271">
        <ele>351</ele>
        <time>2024-08-11T10:33:23Z</time>
      </trkpt>
      <trkpt lat="45.72469" lon="3.19276">
        <ele>351</ele>
        <time>2024-08-11T10:33:24Z</time>
      </trkpt>
      <trkpt lat="45.7247" lon="3.19282">
        <ele>351.2</ele>
        <time>2024-08-11T10:33:25Z</time>
      </trkpt>
      <trkpt lat="45.72472" lon="3.19287">
        <ele>351.2</ele>
        <time>2024-08-11T10:33:26Z</time>
      </trkpt>
      <trkpt lat="45.72474" lon="3.19293">
        <ele>351.4</ele>
        <time>2024-08-11T10:33:27Z</time>
      </trkpt>
      <trkpt lat="45.72476" lon="3.19298">
        <ele>351.4</ele>
        <time>2024-08-11T10:33:28Z</time>
      </trkpt>
      <trkpt lat="45.72477" lon="3.19303">
        <ele>351.4</ele>
        <time>2024-08-11T10:33:29Z</time>
      </trkpt>
      <trkpt lat="45.72479" lon="3.19309">
        <ele>351.6</ele>
        <time>2024-08-11T10:33:30Z</time>
      </trkpt>
      <trkpt lat="45.72481" lon="3.19314">
        <ele>351.6</ele>
        <time>2024-08-11T10:33:31Z</time>
      </trkpt>
      <trkpt lat="45.72482" lon="3.19319">
        <ele>351.6</ele>
        <time>2024-08-11T10:33:32Z</time>
      </trkpt>
      <trkpt lat="45.72484" lon="3.19323">
        <ele>351.6</ele>
        <time>2024-08-11T10:33:33Z</time>
      </trkpt>
      <trkpt lat="45.72486" lon="3.19328">
        <ele>351.8</ele>
        <time>2024-08-11T10:33:34Z</time>
      </trkpt>
      <trkpt lat="45.72487" lon="3.19333">
        <ele>351.8</ele>
        <time>2024-08-11T10:33:35Z</time>
      </trkpt>
      <trkpt lat="45.72489" lon="3.19338">
        <ele>352</ele>
        <time>2024-08-11T10:33:36Z</time>
      </trkpt>
      <trkpt lat="45.7249" lon="3.19344">
        <ele>352</ele>
        <time>2024-08-11T10:33:37Z</time>
      </trkpt>
      <trkpt lat="45.72492" lon="3.19349">
        <ele>352.2</ele>
        <time>2024-08-11T10:33:38Z</time>
      </trkpt>
      <trkpt lat="45.72493" lon="3.19353">
        <ele>352.2</ele>
        <time>2024-08-11T10:33:39Z</time>
      </trkpt>
      <trkpt lat="45.72495" lon="3.19358">
        <ele>352.2</ele>
        <time>2024-08-11T10:33:40Z</time>
      </trkpt>
      <trkpt lat="45.72496" lon="3.19363">
        <ele>352.4</ele>
        <time>2024-08-11T10:33:41Z</time>
      </trkpt>
      <trkpt lat="45.72497" lon="3.19369">
        <ele>352.4</ele>
        <time>2024-08-11T10:33:42Z</time>
      </trkpt>
      <trkpt lat="45.72499" lon="3.19374">
        <ele>352.6</ele>
        <time>2024-08-11T10:33:43Z</time>
      </trkpt>
      <trkpt lat="45.725" lon="3.19379">
        <ele>352.6</ele>
        <time>2024-08-11T10:33:44Z</time>
      </trkpt>
      <trkpt lat="45.72502" lon="3.19384">
        <ele>352.8</ele>
        <time>2024-08-11T10:33:45Z</time>
      </trkpt>
      <trkpt lat="45.72503" lon="3.19389">
        <ele>352.8</ele>
        <time>2024-08-11T10:33:46Z</time>
      </trkpt>
      <trkpt lat="45.72504" lon="3.19394">
        <ele>352.8</ele>
        <time>2024-08-11T10:33:47Z</time>
      </trkpt>
      <trkpt lat="45.72506" lon="3.19399">
        <ele>353</ele>
        <time>2024-08-11T10:33:48Z</time>
      </trkpt>
      <trkpt lat="45.72507" lon="3.19404">
        <ele>353</ele>
        <time>2024-08-11T10:33:49Z</time>
      </trkpt>
      <trkpt lat="45.72509" lon="3.1941">
        <ele>353</ele>
        <time>2024-08-11T10:33:50Z</time>
      </trkpt>
      <trkpt lat="45.7251" lon="3.19415">
        <ele>353.2</ele>
        <time>2024-08-11T10:33:51Z</time>
      </trkpt>
      <trkpt lat="45.72512" lon="3.1942">
        <ele>353.2</ele>
        <time>2024-08-11T10:33:52Z</time>
      </trkpt>
      <trkpt lat="45.72513" lon="3.19425">
        <ele>353.2</ele>
        <time>2024-08-11T10:33:53Z</time>
      </trkpt>
      <trkpt lat="45.72513" lon="3.19431">
        <ele>353.4</ele>
        <time>2024-08-11T10:33:54Z</time>
      </trkpt>
      <trkpt lat="45.72514" lon="3.19436">
        <ele>353.4</ele>
        <time>2024-08-11T10:33:55Z</time>
      </trkpt>
      <trkpt lat="45.72515" lon="3.19441">
        <ele>353.4</ele>
        <time>2024-08-11T10:33:56Z</time>
      </trkpt>
      <trkpt lat="45.72516" lon="3.19447">
        <ele>353.4</ele>
        <time>2024-08-11T10:33:57Z</time>
      </trkpt>
      <trkpt lat="45.72517" lon="3.19453">
        <ele>353.6</ele>
        <time>2024-08-11T10:33:58Z</time>
      </trkpt>
      <trkpt lat="45.72518" lon="3.19458">
        <ele>353.6</ele>
        <time>2024-08-11T10:33:59Z</time>
      </trkpt>
      <trkpt lat="45.72518" lon="3.19464">
        <ele>353.8</ele>
        <time>2024-08-11T10:34:00Z</time>
      </trkpt>
      <trkpt lat="45.72519" lon="3.1947">
        <ele>353.8</ele>
        <time>2024-08-11T10:34:01Z</time>
      </trkpt>
      <trkpt lat="45.7252" lon="3.19475">
        <ele>353.8</ele>
        <time>2024-08-11T10:34:02Z</time>
      </trkpt>
      <trkpt lat="45.72521" lon="3.19481">
        <ele>354</ele>
        <time>2024-08-11T10:34:03Z</time>
      </trkpt>
      <trkpt lat="45.72522" lon="3.19486">
        <ele>354</ele>
        <time>2024-08-11T10:34:04Z</time>
      </trkpt>
      <trkpt lat="45.72523" lon="3.19492">
        <ele>354</ele>
        <time>2024-08-11T10:34:05Z</time>
      </trkpt>
      <trkpt lat="45.72523" lon="3.19498">
        <ele>354.2</ele>
        <time>2024-08-11T10:34:06Z</time>
      </trkpt>
      <trkpt lat="45.72524" lon="3.19503">
        <ele>354.2</ele>
        <time>2024-08-11T10:34:07Z</time>
      </trkpt>
      <trkpt lat="45.72525" lon="3.19509">
        <ele>354.4</ele>
        <time>2024-08-11T10:34:08Z</time>
      </trkpt>
      <trkpt lat="45.72526" lon="3.19515">
        <ele>354.4</ele>
        <time>2024-08-11T10:34:09Z</time>
      </trkpt>
      <trkpt lat="45.72527" lon="3.1952">
        <ele>354.4</ele>
        <time>2024-08-11T10:34:10Z</time>
      </trkpt>
      <trkpt lat="45.72528" lon="3.19526">
        <ele>354.6</ele>
        <time>2024-08-11T10:34:11Z</time>
      </trkpt>
      <trkpt lat="45.72528" lon="3.19532">
        <ele>354.6</ele>
        <time>2024-08-11T10:34:12Z</time>
      </trkpt>
      <trkpt lat="45.72529" lon="3.19537">
        <ele>354.6</ele>
        <time>2024-08-11T10:34:13Z</time>
      </trkpt>
      <trkpt lat="45.7253" lon="3.19543">
        <ele>354.8</ele>
        <time>2024-08-11T10:34:14Z</time>
      </trkpt>
      <trkpt lat="45.72531" lon="3.19549">
        <ele>354.8</ele>
        <time>2024-08-11T10:34:15Z</time>
      </trkpt>
      <trkpt lat="45.72531" lon="3.19556">
        <ele>354.8</ele>
        <time>2024-08-11T10:34:16Z</time>
      </trkpt>
      <trkpt lat="45.72531" lon="3.19562">
        <ele>355</ele>
        <time>2024-08-11T10:34:17Z</time>
      </trkpt>
      <trkpt lat="45.72531" lon="3.19568">
        <ele>355</ele>
        <time>2024-08-11T10:34:18Z</time>
      </trkpt>
      <trkpt lat="45.72531" lon="3.19574">
        <ele>355</ele>
        <time>2024-08-11T10:34:19Z</time>
      </trkpt>
      <trkpt lat="45.72533" lon="3.1958">
        <ele>355.2</ele>
        <time>2024-08-11T10:34:20Z</time>
      </trkpt>
      <trkpt lat="45.72533" lon="3.19587">
        <ele>355.2</ele>
        <time>2024-08-11T10:34:21Z</time>
      </trkpt>
      <trkpt lat="45.72533" lon="3.19593">
        <ele>355.2</ele>
        <time>2024-08-11T10:34:22Z</time>
      </trkpt>
      <trkpt lat="45.72533" lon="3.19599">
        <ele>355.4</ele>
        <time>2024-08-11T10:34:23Z</time>
      </trkpt>
      <trkpt lat="45.72533" lon="3.19606">
        <ele>355.4</ele>
        <time>2024-08-11T10:34:24Z</time>
      </trkpt>
      <trkpt lat="45.72533" lon="3.19612">
        <ele>355.4</ele>
        <time>2024-08-11T10:34:25Z</time>
      </trkpt>
      <trkpt lat="45.72533" lon="3.19619">
        <ele>355.6</ele>
        <time>2024-08-11T10:34:26Z</time>
      </trkpt>
      <trkpt lat="45.72533" lon="3.19626">
        <ele>355.6</ele>
        <time>2024-08-11T10:34:27Z</time>
      </trkpt>
      <trkpt lat="45.72533" lon="3.19632">
        <ele>355.6</ele>
        <time>2024-08-11T10:34:28Z</time>
      </trkpt>
      <trkpt lat="45.72533" lon="3.1964">
        <ele>355.8</ele>
        <time>2024-08-11T10:34:29Z</time>
      </trkpt>
      <trkpt lat="45.72533" lon="3.19647">
        <ele>355.8</ele>
        <time>2024-08-11T10:34:30Z</time>
      </trkpt>
      <trkpt lat="45.72533" lon="3.19654">
        <ele>355.8</ele>
        <time>2024-08-11T10:34:31Z</time>
      </trkpt>
      <trkpt lat="45.72533" lon="3.19661">
        <ele>356</ele>
        <time>2024-08-11T10:34:32Z</time>
      </trkpt>
      <trkpt lat="45.72533" lon="3.19668">
        <ele>356</ele>
        <time>2024-08-11T10:34:33Z</time>
      </trkpt>
      <trkpt lat="45.72533" lon="3.19675">
        <ele>356.2</ele>
        <time>2024-08-11T10:34:34Z</time>
      </trkpt>
      <trkpt lat="45.72533" lon="3.19682">
        <ele>356.2</ele>
        <time>2024-08-11T10:34:35Z</time>
      </trkpt>
      <trkpt lat="45.72533" lon="3.19689">
        <ele>356.2</ele>
        <time>2024-08-11T10:34:36Z</time>
      </trkpt>
      <trkpt lat="45.72533" lon="3.19696">
        <ele>356.2</ele>
        <time>2024-08-11T10:34:37Z</time>
      </trkpt>
      <trkpt lat="45.72533" lon="3.19703">
        <ele>356.2</ele>
        <time>2024-08-11T10:34:38Z</time>
      </trkpt>
      <trkpt lat="45.72533" lon="3.1971">
        <ele>356.4</ele>
        <time>2024-08-11T10:34:39Z</time>
      </trkpt>
      <trkpt lat="45.72533" lon="3.19717">
        <ele>356.4</ele>
        <time>2024-08-11T10:34:40Z</time>
      </trkpt>
      <trkpt lat="45.72533" lon="3.19724">
        <ele>356.4</ele>
        <time>2024-08-11T10:34:41Z</time>
      </trkpt>
      <trkpt lat="45.72533" lon="3.19732">
        <ele>356.4</ele>
        <time>2024-08-11T10:34:42Z</time>
      </trkpt>
      <trkpt lat="45.72533" lon="3.19739">
        <ele>356.4</ele>
        <time>2024-08-11T10:34:43Z</time>
      </trkpt>
      <trkpt lat="45.72533" lon="3.19746">
        <ele>356.6</ele>
        <time>2024-08-11T10:34:44Z</time>
      </trkpt>
      <trkpt lat="45.72533" lon="3.19753">
        <ele>356.6</ele>
        <time>2024-08-11T10:34:45Z</time>
      </trkpt>
      <trkpt lat="45.72534" lon="3.19759">
        <ele>356.8</ele>
        <time>2024-08-11T10:34:46Z</time>
      </trkpt>
      <trkpt lat="45.72534" lon="3.19766">
        <ele>356.8</ele>
        <time>2024-08-11T10:34:47Z</time>
      </trkpt>
      <trkpt lat="45.72534" lon="3.19773">
        <ele>356.8</ele>
        <time>2024-08-11T10:34:48Z</time>
      </trkpt>
      <trkpt lat="45.72534" lon="3.19779">
        <ele>357</ele>
        <time>2024-08-11T10:34:49Z</time>
      </trkpt>
      <trkpt lat="45.72535" lon="3.19786">
        <ele>357</ele>
        <time>2024-08-11T10:34:50Z</time>
      </trkpt>
      <trkpt lat="45.72535" lon="3.19793">
        <ele>357</ele>
        <time>2024-08-11T10:34:51Z</time>
      </trkpt>
      <trkpt lat="45.72535" lon="3.19799">
        <ele>357</ele>
        <time>2024-08-11T10:34:52Z</time>
      </trkpt>
      <trkpt lat="45.72535" lon="3.19806">
        <ele>357.2</ele>
        <time>2024-08-11T10:34:53Z</time>
      </trkpt>
      <trkpt lat="45.72536" lon="3.19814">
        <ele>357.2</ele>
        <time>2024-08-11T10:34:54Z</time>
      </trkpt>
      <trkpt lat="45.72536" lon="3.1982">
        <ele>357.2</ele>
        <time>2024-08-11T10:34:55Z</time>
      </trkpt>
      <trkpt lat="45.72537" lon="3.19827">
        <ele>357.4</ele>
        <time>2024-08-11T10:34:56Z</time>
      </trkpt>
      <trkpt lat="45.72537" lon="3.19833">
        <ele>357.4</ele>
        <time>2024-08-11T10:34:57Z</time>
      </trkpt>
      <trkpt lat="45.72538" lon="3.19839">
        <ele>357.4</ele>
        <time>2024-08-11T10:34:58Z</time>
      </trkpt>
      <trkpt lat="45.7254" lon="3.19846">
        <ele>357.4</ele>
        <time>2024-08-11T10:34:59Z</time>
      </trkpt>
      <trkpt lat="45.72541" lon="3.19853">
        <ele>357.6</ele>
        <time>2024-08-11T10:35:00Z</time>
      </trkpt>
      <trkpt lat="45.72543" lon="3.19859">
        <ele>357.6</ele>
        <time>2024-08-11T10:35:01Z</time>
      </trkpt>
      <trkpt lat="45.72544" lon="3.19866">
        <ele>357.6</ele>
        <time>2024-08-11T10:35:02Z</time>
      </trkpt>
      <trkpt lat="45.72546" lon="3.19873">
        <ele>357.8</ele>
        <time>2024-08-11T10:35:03Z</time>
      </trkpt>
      <trkpt lat="45.72547" lon="3.19879">
        <ele>357.8</ele>
        <time>2024-08-11T10:35:04Z</time>
      </trkpt>
      <trkpt lat="45.72549" lon="3.19886">
        <ele>357.8</ele>
        <time>2024-08-11T10:35:05Z</time>
      </trkpt>
      <trkpt lat="45.7255" lon="3.19893">
        <ele>357.8</ele>
        <time>2024-08-11T10:35:06Z</time>
      </trkpt>
      <trkpt lat="45.72552" lon="3.199">
        <ele>358</ele>
        <time>2024-08-11T10:35:07Z</time>
      </trkpt>
      <trkpt lat="45.72553" lon="3.19906">
        <ele>358</ele>
        <time>2024-08-11T10:35:08Z</time>
      </trkpt>
      <trkpt lat="45.72555" lon="3.19913">
        <ele>358</ele>
        <time>2024-08-11T10:35:09Z</time>
      </trkpt>
      <trkpt lat="45.72556" lon="3.1992">
        <ele>358</ele>
        <time>2024-08-11T10:35:10Z</time>
      </trkpt>
      <trkpt lat="45.72557" lon="3.19926">
        <ele>358</ele>
        <time>2024-08-11T10:35:11Z</time>
      </trkpt>
      <trkpt lat="45.72559" lon="3.19932">
        <ele>358</ele>
        <time>2024-08-11T10:35:12Z</time>
      </trkpt>
      <trkpt lat="45.7256" lon="3.19939">
        <ele>358</ele>
        <time>2024-08-11T10:35:13Z</time>
      </trkpt>
      <trkpt lat="45.72562" lon="3.19946">
        <ele>358.2</ele>
        <time>2024-08-11T10:35:14Z</time>
      </trkpt>
      <trkpt lat="45.72564" lon="3.19953">
        <ele>358.2</ele>
        <time>2024-08-11T10:35:15Z</time>
      </trkpt>
      <trkpt lat="45.72566" lon="3.19959">
        <ele>358.2</ele>
        <time>2024-08-11T10:35:16Z</time>
      </trkpt>
      <trkpt lat="45.72572" lon="3.19963">
        <ele>358.2</ele>
        <time>2024-08-11T10:35:17Z</time>
      </trkpt>
      <trkpt lat="45.72573" lon="3.19969">
        <ele>358.2</ele>
        <time>2024-08-11T10:35:18Z</time>
      </trkpt>
      <trkpt lat="45.72575" lon="3.19975">
        <ele>358.4</ele>
        <time>2024-08-11T10:35:19Z</time>
      </trkpt>
      <trkpt lat="45.72577" lon="3.1998">
        <ele>358.4</ele>
        <time>2024-08-11T10:35:20Z</time>
      </trkpt>
      <trkpt lat="45.72578" lon="3.19986">
        <ele>358.4</ele>
        <time>2024-08-11T10:35:21Z</time>
      </trkpt>
      <trkpt lat="45.7258" lon="3.19992">
        <ele>358.6</ele>
        <time>2024-08-11T10:35:22Z</time>
      </trkpt>
      <trkpt lat="45.72582" lon="3.19997">
        <ele>358.6</ele>
        <time>2024-08-11T10:35:23Z</time>
      </trkpt>
      <trkpt lat="45.72583" lon="3.20003">
        <ele>358.6</ele>
        <time>2024-08-11T10:35:24Z</time>
      </trkpt>
      <trkpt lat="45.72584" lon="3.20012">
        <ele>358.6</ele>
        <time>2024-08-11T10:35:25Z</time>
      </trkpt>
      <trkpt lat="45.72583" lon="3.20018">
        <ele>358.6</ele>
        <time>2024-08-11T10:35:26Z</time>
      </trkpt>
      <trkpt lat="45.72581" lon="3.20025">
        <ele>358.8</ele>
        <time>2024-08-11T10:35:27Z</time>
      </trkpt>
      <trkpt lat="45.7258" lon="3.20032">
        <ele>358.8</ele>
        <time>2024-08-11T10:35:28Z</time>
      </trkpt>
      <trkpt lat="45.72578" lon="3.20038">
        <ele>358.8</ele>
        <time>2024-08-11T10:35:29Z</time>
      </trkpt>
      <trkpt lat="45.72577" lon="3.20043">
        <ele>358.8</ele>
        <time>2024-08-11T10:35:30Z</time>
      </trkpt>
      <trkpt lat="45.72577" lon="3.20048">
        <ele>358.8</ele>
        <time>2024-08-11T10:35:31Z</time>
      </trkpt>
      <trkpt lat="45.72581" lon="3.20051">
        <ele>358.8</ele>
        <time>2024-08-11T10:35:32Z</time>
      </trkpt>
      <trkpt lat="45.72585" lon="3.20054">
        <ele>358.8</ele>
        <time>2024-08-11T10:35:33Z</time>
      </trkpt>
      <trkpt lat="45.72589" lon="3.20057">
        <ele>358.8</ele>
        <time>2024-08-11T10:35:34Z</time>
      </trkpt>
      <trkpt lat="45.72594" lon="3.20061">
        <ele>358.8</ele>
        <time>2024-08-11T10:35:35Z</time>
      </trkpt>
      <trkpt lat="45.72599" lon="3.20064">
        <ele>358.8</ele>
        <time>2024-08-11T10:35:36Z</time>
      </trkpt>
      <trkpt lat="45.72604" lon="3.20068">
        <ele>358.8</ele>
        <time>2024-08-11T10:35:37Z</time>
      </trkpt>
      <trkpt lat="45.72609" lon="3.20071">
        <ele>358.8</ele>
        <time>2024-08-11T10:35:38Z</time>
      </trkpt>
      <trkpt lat="45.72614" lon="3.20075">
        <ele>358.8</ele>
        <time>2024-08-11T10:35:39Z</time>
      </trkpt>
      <trkpt lat="45.72619" lon="3.20079">
        <ele>359</ele>
        <time>2024-08-11T10:35:40Z</time>
      </trkpt>
      <trkpt lat="45.72624" lon="3.20082">
        <ele>359</ele>
        <time>2024-08-11T10:35:41Z</time>
      </trkpt>
      <trkpt lat="45.72629" lon="3.20085">
        <ele>359</ele>
        <time>2024-08-11T10:35:42Z</time>
      </trkpt>
      <trkpt lat="45.72633" lon="3.2009">
        <ele>359</ele>
        <time>2024-08-11T10:35:43Z</time>
      </trkpt>
      <trkpt lat="45.72636" lon="3.20094">
        <ele>359</ele>
        <time>2024-08-11T10:35:44Z</time>
      </trkpt>
      <trkpt lat="45.72639" lon="3.20098">
        <ele>359</ele>
        <time>2024-08-11T10:35:45Z</time>
      </trkpt>
      <trkpt lat="45.72643" lon="3.20102">
        <ele>359</ele>
        <time>2024-08-11T10:35:46Z</time>
      </trkpt>
      <trkpt lat="45.72647" lon="3.20108">
        <ele>359</ele>
        <time>2024-08-11T10:35:47Z</time>
      </trkpt>
      <trkpt lat="45.72652" lon="3.20114">
        <ele>359.2</ele>
        <time>2024-08-11T10:35:48Z</time>
      </trkpt>
      <trkpt lat="45.72656" lon="3.20119">
        <ele>359.2</ele>
        <time>2024-08-11T10:35:49Z</time>
      </trkpt>
      <trkpt lat="45.72662" lon="3.20126">
        <ele>359.2</ele>
        <time>2024-08-11T10:35:50Z</time>
      </trkpt>
      <trkpt lat="45.72667" lon="3.20132">
        <ele>359.2</ele>
        <time>2024-08-11T10:35:51Z</time>
      </trkpt>
      <trkpt lat="45.72672" lon="3.20139">
        <ele>359.2</ele>
        <time>2024-08-11T10:35:52Z</time>
      </trkpt>
      <trkpt lat="45.72677" lon="3.20145">
        <ele>359.2</ele>
        <time>2024-08-11T10:35:53Z</time>
      </trkpt>
      <trkpt lat="45.72681" lon="3.20151">
        <ele>359.2</ele>
        <time>2024-08-11T10:35:54Z</time>
      </trkpt>
      <trkpt lat="45.72686" lon="3.20157">
        <ele>359.2</ele>
        <time>2024-08-11T10:35:55Z</time>
      </trkpt>
      <trkpt lat="45.72691" lon="3.20163">
        <ele>359.2</ele>
        <time>2024-08-11T10:35:56Z</time>
      </trkpt>
      <trkpt lat="45.72696" lon="3.20169">
        <ele>359.2</ele>
        <time>2024-08-11T10:35:57Z</time>
      </trkpt>
      <trkpt lat="45.72701" lon="3.20175">
        <ele>359.2</ele>
        <time>2024-08-11T10:35:58Z</time>
      </trkpt>
      <trkpt lat="45.72705" lon="3.2018">
        <ele>359.2</ele>
        <time>2024-08-11T10:35:59Z</time>
      </trkpt>
      <trkpt lat="45.72709" lon="3.20185">
        <ele>359.2</ele>
        <time>2024-08-11T10:36:00Z</time>
      </trkpt>
      <trkpt lat="45.72713" lon="3.2019">
        <ele>359</ele>
        <time>2024-08-11T10:36:01Z</time>
      </trkpt>
      <trkpt lat="45.72718" lon="3.20196">
        <ele>359.2</ele>
        <time>2024-08-11T10:36:02Z</time>
      </trkpt>
      <trkpt lat="45.72722" lon="3.20201">
        <ele>359</ele>
        <time>2024-08-11T10:36:03Z</time>
      </trkpt>
      <trkpt lat="45.72726" lon="3.20207">
        <ele>359</ele>
        <time>2024-08-11T10:36:04Z</time>
      </trkpt>
      <trkpt lat="45.72731" lon="3.20213">
        <ele>358.8</ele>
        <time>2024-08-11T10:36:05Z</time>
      </trkpt>
      <trkpt lat="45.72735" lon="3.20219">
        <ele>358.8</ele>
        <time>2024-08-11T10:36:06Z</time>
      </trkpt>
      <trkpt lat="45.72739" lon="3.20225">
        <ele>358.8</ele>
        <time>2024-08-11T10:36:07Z</time>
      </trkpt>
      <trkpt lat="45.72744" lon="3.20232">
        <ele>358.8</ele>
        <time>2024-08-11T10:36:08Z</time>
      </trkpt>
      <trkpt lat="45.72748" lon="3.20238">
        <ele>358.8</ele>
        <time>2024-08-11T10:36:09Z</time>
      </trkpt>
      <trkpt lat="45.72753" lon="3.20245">
        <ele>358.8</ele>
        <time>2024-08-11T10:36:10Z</time>
      </trkpt>
      <trkpt lat="45.72757" lon="3.20251">
        <ele>358.8</ele>
        <time>2024-08-11T10:36:11Z</time>
      </trkpt>
      <trkpt lat="45.72762" lon="3.20257">
        <ele>358.8</ele>
        <time>2024-08-11T10:36:12Z</time>
      </trkpt>
      <trkpt lat="45.72766" lon="3.20263">
        <ele>358.8</ele>
        <time>2024-08-11T10:36:13Z</time>
      </trkpt>
      <trkpt lat="45.72771" lon="3.2027">
        <ele>358.8</ele>
        <time>2024-08-11T10:36:14Z</time>
      </trkpt>
      <trkpt lat="45.72776" lon="3.20277">
        <ele>358.6</ele>
        <time>2024-08-11T10:36:15Z</time>
      </trkpt>
      <trkpt lat="45.7278" lon="3.20283">
        <ele>358.6</ele>
        <time>2024-08-11T10:36:16Z</time>
      </trkpt>
      <trkpt lat="45.72784" lon="3.20289">
        <ele>358.6</ele>
        <time>2024-08-11T10:36:17Z</time>
      </trkpt>
      <trkpt lat="45.72789" lon="3.20296">
        <ele>358.6</ele>
        <time>2024-08-11T10:36:18Z</time>
      </trkpt>
      <trkpt lat="45.72794" lon="3.20302">
        <ele>358.6</ele>
        <time>2024-08-11T10:36:19Z</time>
      </trkpt>
      <trkpt lat="45.72798" lon="3.20308">
        <ele>358.6</ele>
        <time>2024-08-11T10:36:20Z</time>
      </trkpt>
      <trkpt lat="45.72802" lon="3.20314">
        <ele>358.6</ele>
        <time>2024-08-11T10:36:21Z</time>
      </trkpt>
      <trkpt lat="45.72807" lon="3.2032">
        <ele>358.4</ele>
        <time>2024-08-11T10:36:22Z</time>
      </trkpt>
      <trkpt lat="45.72811" lon="3.20327">
        <ele>358.4</ele>
        <time>2024-08-11T10:36:23Z</time>
      </trkpt>
      <trkpt lat="45.72816" lon="3.20334">
        <ele>358.4</ele>
        <time>2024-08-11T10:36:24Z</time>
      </trkpt>
      <trkpt lat="45.72821" lon="3.20341">
        <ele>358.4</ele>
        <time>2024-08-11T10:36:25Z</time>
      </trkpt>
      <trkpt lat="45.72826" lon="3.20348">
        <ele>358.2</ele>
        <time>2024-08-11T10:36:26Z</time>
      </trkpt>
      <trkpt lat="45.72831" lon="3.20355">
        <ele>358.2</ele>
        <time>2024-08-11T10:36:27Z</time>
      </trkpt>
      <trkpt lat="45.72836" lon="3.20362">
        <ele>358.2</ele>
        <time>2024-08-11T10:36:28Z</time>
      </trkpt>
      <trkpt lat="45.72841" lon="3.20369">
        <ele>358.2</ele>
        <time>2024-08-11T10:36:29Z</time>
      </trkpt>
      <trkpt lat="45.72846" lon="3.20376">
        <ele>358.2</ele>
        <time>2024-08-11T10:36:30Z</time>
      </trkpt>
      <trkpt lat="45.72851" lon="3.20382">
        <ele>358.2</ele>
        <time>2024-08-11T10:36:31Z</time>
      </trkpt>
      <trkpt lat="45.72855" lon="3.20389">
        <ele>358.2</ele>
        <time>2024-08-11T10:36:32Z</time>
      </trkpt>
      <trkpt lat="45.72859" lon="3.20395">
        <ele>358.2</ele>
        <time>2024-08-11T10:36:33Z</time>
      </trkpt>
      <trkpt lat="45.72864" lon="3.20401">
        <ele>358.2</ele>
        <time>2024-08-11T10:36:34Z</time>
      </trkpt>
      <trkpt lat="45.72868" lon="3.20407">
        <ele>358</ele>
        <time>2024-08-11T10:36:35Z</time>
      </trkpt>
      <trkpt lat="45.72872" lon="3.20413">
        <ele>358</ele>
        <time>2024-08-11T10:36:36Z</time>
      </trkpt>
      <trkpt lat="45.72877" lon="3.20419">
        <ele>358</ele>
        <time>2024-08-11T10:36:37Z</time>
      </trkpt>
      <trkpt lat="45.72881" lon="3.20426">
        <ele>358</ele>
        <time>2024-08-11T10:36:38Z</time>
      </trkpt>
      <trkpt lat="45.72886" lon="3.20432">
        <ele>358</ele>
        <time>2024-08-11T10:36:39Z</time>
      </trkpt>
      <trkpt lat="45.7289" lon="3.20439">
        <ele>358</ele>
        <time>2024-08-11T10:36:40Z</time>
      </trkpt>
      <trkpt lat="45.72895" lon="3.20445">
        <ele>358</ele>
        <time>2024-08-11T10:36:41Z</time>
      </trkpt>
      <trkpt lat="45.72899" lon="3.20451">
        <ele>358</ele>
        <time>2024-08-11T10:36:42Z</time>
      </trkpt>
      <trkpt lat="45.72903" lon="3.20456">
        <ele>358</ele>
        <time>2024-08-11T10:36:43Z</time>
      </trkpt>
      <trkpt lat="45.72907" lon="3.20462">
        <ele>358</ele>
        <time>2024-08-11T10:36:44Z</time>
      </trkpt>
      <trkpt lat="45.72911" lon="3.20468">
        <ele>357.8</ele>
        <time>2024-08-11T10:36:45Z</time>
      </trkpt>
      <trkpt lat="45.72915" lon="3.20473">
        <ele>357.8</ele>
        <time>2024-08-11T10:36:46Z</time>
      </trkpt>
      <trkpt lat="45.72919" lon="3.20479">
        <ele>357.8</ele>
        <time>2024-08-11T10:36:47Z</time>
      </trkpt>
      <trkpt lat="45.72923" lon="3.20484">
        <ele>357.8</ele>
        <time>2024-08-11T10:36:48Z</time>
      </trkpt>
      <trkpt lat="45.72927" lon="3.2049">
        <ele>357.8</ele>
        <time>2024-08-11T10:36:49Z</time>
      </trkpt>
      <trkpt lat="45.72931" lon="3.20496">
        <ele>357.8</ele>
        <time>2024-08-11T10:36:50Z</time>
      </trkpt>
      <trkpt lat="45.72935" lon="3.20502">
        <ele>357.8</ele>
        <time>2024-08-11T10:36:51Z</time>
      </trkpt>
      <trkpt lat="45.7294" lon="3.20508">
        <ele>357.8</ele>
        <time>2024-08-11T10:36:52Z</time>
      </trkpt>
      <trkpt lat="45.72944" lon="3.20514">
        <ele>357.8</ele>
        <time>2024-08-11T10:36:53Z</time>
      </trkpt>
      <trkpt lat="45.72948" lon="3.2052">
        <ele>357.8</ele>
        <time>2024-08-11T10:36:54Z</time>
      </trkpt>
      <trkpt lat="45.72953" lon="3.20527">
        <ele>357.8</ele>
        <time>2024-08-11T10:36:55Z</time>
      </trkpt>
      <trkpt lat="45.72957" lon="3.20534">
        <ele>357.6</ele>
        <time>2024-08-11T10:36:56Z</time>
      </trkpt>
      <trkpt lat="45.7296" lon="3.20542">
        <ele>357.6</ele>
        <time>2024-08-11T10:36:57Z</time>
      </trkpt>
      <trkpt lat="45.72964" lon="3.2055">
        <ele>357.6</ele>
        <time>2024-08-11T10:36:58Z</time>
      </trkpt>
      <trkpt lat="45.72968" lon="3.20557">
        <ele>357.6</ele>
        <time>2024-08-11T10:36:59Z</time>
      </trkpt>
      <trkpt lat="45.72972" lon="3.20565">
        <ele>357.6</ele>
        <time>2024-08-11T10:37:00Z</time>
      </trkpt>
      <trkpt lat="45.72975" lon="3.20573">
        <ele>357.4</ele>
        <time>2024-08-11T10:37:01Z</time>
      </trkpt>
      <trkpt lat="45.7298" lon="3.20579">
        <ele>357.4</ele>
        <time>2024-08-11T10:37:02Z</time>
      </trkpt>
      <trkpt lat="45.72986" lon="3.20585">
        <ele>357.4</ele>
        <time>2024-08-11T10:37:03Z</time>
      </trkpt>
      <trkpt lat="45.72991" lon="3.20591">
        <ele>357.4</ele>
        <time>2024-08-11T10:37:04Z</time>
      </trkpt>
      <trkpt lat="45.72996" lon="3.20597">
        <ele>357.2</ele>
        <time>2024-08-11T10:37:05Z</time>
      </trkpt>
      <trkpt lat="45.73002" lon="3.20604">
        <ele>357.2</ele>
        <time>2024-08-11T10:37:06Z</time>
      </trkpt>
      <trkpt lat="45.73008" lon="3.20611">
        <ele>357</ele>
        <time>2024-08-11T10:37:07Z</time>
      </trkpt>
      <trkpt lat="45.73014" lon="3.20618">
        <ele>357</ele>
        <time>2024-08-11T10:37:08Z</time>
      </trkpt>
      <trkpt lat="45.7302" lon="3.20624">
        <ele>356.8</ele>
        <time>2024-08-11T10:37:09Z</time>
      </trkpt>
      <trkpt lat="45.73025" lon="3.20632">
        <ele>356.8</ele>
        <time>2024-08-11T10:37:10Z</time>
      </trkpt>
      <trkpt lat="45.73031" lon="3.2064">
        <ele>356.6</ele>
        <time>2024-08-11T10:37:11Z</time>
      </trkpt>
      <trkpt lat="45.73037" lon="3.20648">
        <ele>356.6</ele>
        <time>2024-08-11T10:37:12Z</time>
      </trkpt>
      <trkpt lat="45.73042" lon="3.20656">
        <ele>356.4</ele>
        <time>2024-08-11T10:37:13Z</time>
      </trkpt>
      <trkpt lat="45.73047" lon="3.20664">
        <ele>356.4</ele>
        <time>2024-08-11T10:37:14Z</time>
      </trkpt>
      <trkpt lat="45.73053" lon="3.20672">
        <ele>356.2</ele>
        <time>2024-08-11T10:37:15Z</time>
      </trkpt>
      <trkpt lat="45.73058" lon="3.20679">
        <ele>356.2</ele>
        <time>2024-08-11T10:37:16Z</time>
      </trkpt>
      <trkpt lat="45.73063" lon="3.20687">
        <ele>356</ele>
        <time>2024-08-11T10:37:17Z</time>
      </trkpt>
      <trkpt lat="45.73068" lon="3.20694">
        <ele>355.8</ele>
        <time>2024-08-11T10:37:18Z</time>
      </trkpt>
      <trkpt lat="45.73074" lon="3.20702">
        <ele>355.8</ele>
        <time>2024-08-11T10:37:19Z</time>
      </trkpt>
      <trkpt lat="45.73079" lon="3.2071">
        <ele>355.6</ele>
        <time>2024-08-11T10:37:20Z</time>
      </trkpt>
      <trkpt lat="45.73085" lon="3.20718">
        <ele>355.6</ele>
        <time>2024-08-11T10:37:21Z</time>
      </trkpt>
      <trkpt lat="45.73089" lon="3.20725">
        <ele>355.4</ele>
        <time>2024-08-11T10:37:22Z</time>
      </trkpt>
      <trkpt lat="45.73094" lon="3.20732">
        <ele>355.2</ele>
        <time>2024-08-11T10:37:23Z</time>
      </trkpt>
      <trkpt lat="45.73099" lon="3.20739">
        <ele>355.2</ele>
        <time>2024-08-11T10:37:24Z</time>
      </trkpt>
      <trkpt lat="45.73104" lon="3.20746">
        <ele>355</ele>
        <time>2024-08-11T10:37:25Z</time>
      </trkpt>
      <trkpt lat="45.73108" lon="3.20754">
        <ele>355</ele>
        <time>2024-08-11T10:37:26Z</time>
      </trkpt>
      <trkpt lat="45.73112" lon="3.20761">
        <ele>355</ele>
        <time>2024-08-11T10:37:27Z</time>
      </trkpt>
      <trkpt lat="45.73117" lon="3.20768">
        <ele>354.8</ele>
        <time>2024-08-11T10:37:28Z</time>
      </trkpt>
      <trkpt lat="45.73121" lon="3.20776">
        <ele>354.8</ele>
        <time>2024-08-11T10:37:29Z</time>
      </trkpt>
      <trkpt lat="45.73125" lon="3.20784">
        <ele>354.6</ele>
        <time>2024-08-11T10:37:30Z</time>
      </trkpt>
      <trkpt lat="45.73129" lon="3.20791">
        <ele>354.6</ele>
        <time>2024-08-11T10:37:31Z</time>
      </trkpt>
      <trkpt lat="45.73133" lon="3.20798">
        <ele>354.6</ele>
        <time>2024-08-11T10:37:32Z</time>
      </trkpt>
      <trkpt lat="45.73137" lon="3.20805">
        <ele>354.4</ele>
        <time>2024-08-11T10:37:33Z</time>
      </trkpt>
      <trkpt lat="45.73142" lon="3.20813">
        <ele>354.4</ele>
        <time>2024-08-11T10:37:34Z</time>
      </trkpt>
      <trkpt lat="45.73146" lon="3.2082">
        <ele>354.2</ele>
        <time>2024-08-11T10:37:35Z</time>
      </trkpt>
      <trkpt lat="45.73149" lon="3.20826">
        <ele>354.2</ele>
        <time>2024-08-11T10:37:36Z</time>
      </trkpt>
      <trkpt lat="45.73153" lon="3.20832">
        <ele>354.2</ele>
        <time>2024-08-11T10:37:37Z</time>
      </trkpt>
      <trkpt lat="45.73156" lon="3.20839">
        <ele>354</ele>
        <time>2024-08-11T10:37:38Z</time>
      </trkpt>
      <trkpt lat="45.7316" lon="3.20846">
        <ele>354</ele>
        <time>2024-08-11T10:37:39Z</time>
      </trkpt>
      <trkpt lat="45.73163" lon="3.20853">
        <ele>353.8</ele>
        <time>2024-08-11T10:37:40Z</time>
      </trkpt>
      <trkpt lat="45.73166" lon="3.2086">
        <ele>353.8</ele>
        <time>2024-08-11T10:37:41Z</time>
      </trkpt>
      <trkpt lat="45.7317" lon="3.20867">
        <ele>353.6</ele>
        <time>2024-08-11T10:37:42Z</time>
      </trkpt>
      <trkpt lat="45.73174" lon="3.20875">
        <ele>353.6</ele>
        <time>2024-08-11T10:37:43Z</time>
      </trkpt>
      <trkpt lat="45.73181" lon="3.20889">
        <ele>353.6</ele>
        <time>2024-08-11T10:37:44Z</time>
      </trkpt>
      <trkpt lat="45.73181" lon="3.20889">
        <ele>353.4</ele>
        <time>2024-08-11T10:37:45Z</time>
      </trkpt>
      <trkpt lat="45.73184" lon="3.20896">
        <ele>353.4</ele>
        <time>2024-08-11T10:37:46Z</time>
      </trkpt>
      <trkpt lat="45.73187" lon="3.20903">
        <ele>353.4</ele>
        <time>2024-08-11T10:37:47Z</time>
      </trkpt>
      <trkpt lat="45.73191" lon="3.2091">
        <ele>353.2</ele>
        <time>2024-08-11T10:37:48Z</time>
      </trkpt>
      <trkpt lat="45.73195" lon="3.20915">
        <ele>353.2</ele>
        <time>2024-08-11T10:37:49Z</time>
      </trkpt>
      <trkpt lat="45.73199" lon="3.20921">
        <ele>353</ele>
        <time>2024-08-11T10:37:50Z</time>
      </trkpt>
      <trkpt lat="45.73203" lon="3.20927">
        <ele>352.8</ele>
        <time>2024-08-11T10:37:51Z</time>
      </trkpt>
      <trkpt lat="45.73213" lon="3.20941">
        <ele>352.6</ele>
        <time>2024-08-11T10:37:52Z</time>
      </trkpt>
      <trkpt lat="45.73218" lon="3.20948">
        <ele>352.6</ele>
        <time>2024-08-11T10:37:53Z</time>
      </trkpt>
      <trkpt lat="45.73218" lon="3.20948">
        <ele>352.4</ele>
        <time>2024-08-11T10:37:54Z</time>
      </trkpt>
      <trkpt lat="45.73227" lon="3.20962">
        <ele>352.2</ele>
        <time>2024-08-11T10:37:55Z</time>
      </trkpt>
      <trkpt lat="45.73232" lon="3.20968">
        <ele>352.2</ele>
        <time>2024-08-11T10:37:56Z</time>
      </trkpt>
      <trkpt lat="45.73232" lon="3.20968">
        <ele>352</ele>
        <time>2024-08-11T10:37:57Z</time>
      </trkpt>
      <trkpt lat="45.73237" lon="3.20985">
        <ele>351.8</ele>
        <time>2024-08-11T10:37:58Z</time>
      </trkpt>
      <trkpt lat="45.73237" lon="3.20985">
        <ele>351.8</ele>
        <time>2024-08-11T10:37:59Z</time>
      </trkpt>
      <trkpt lat="45.73249" lon="3.20991">
        <ele>351.6</ele>
        <time>2024-08-11T10:38:00Z</time>
      </trkpt>
      <trkpt lat="45.73249" lon="3.20991">
        <ele>351.4</ele>
        <time>2024-08-11T10:38:01Z</time>
      </trkpt>
      <trkpt lat="45.73258" lon="3.20999">
        <ele>351.2</ele>
        <time>2024-08-11T10:38:02Z</time>
      </trkpt>
      <trkpt lat="45.73269" lon="3.21014">
        <ele>351</ele>
        <time>2024-08-11T10:38:03Z</time>
      </trkpt>
      <trkpt lat="45.73275" lon="3.21022">
        <ele>350.8</ele>
        <time>2024-08-11T10:38:04Z</time>
      </trkpt>
      <trkpt lat="45.73281" lon="3.21031">
        <ele>350.4</ele>
        <time>2024-08-11T10:38:05Z</time>
      </trkpt>
      <trkpt lat="45.73287" lon="3.2104">
        <ele>350.2</ele>
        <time>2024-08-11T10:38:06Z</time>
      </trkpt>
      <trkpt lat="45.73294" lon="3.2105">
        <ele>349.8</ele>
        <time>2024-08-11T10:38:07Z</time>
      </trkpt>
      <trkpt lat="45.73301" lon="3.21059">
        <ele>349.6</ele>
        <time>2024-08-11T10:38:08Z</time>
      </trkpt>
      <trkpt lat="45.73308" lon="3.21068">
        <ele>349.4</ele>
        <time>2024-08-11T10:38:09Z</time>
      </trkpt>
      <trkpt lat="45.73314" lon="3.21077">
        <ele>349.2</ele>
        <time>2024-08-11T10:38:10Z</time>
      </trkpt>
      <trkpt lat="45.7332" lon="3.21086">
        <ele>349</ele>
        <time>2024-08-11T10:38:11Z</time>
      </trkpt>
      <trkpt lat="45.73326" lon="3.21094">
        <ele>348.8</ele>
        <time>2024-08-11T10:38:12Z</time>
      </trkpt>
      <trkpt lat="45.7333" lon="3.211">
        <ele>348.8</ele>
        <time>2024-08-11T10:38:13Z</time>
      </trkpt>
      <trkpt lat="45.73335" lon="3.21106">
        <ele>348.6</ele>
        <time>2024-08-11T10:38:14Z</time>
      </trkpt>
      <trkpt lat="45.73339" lon="3.21111">
        <ele>348.4</ele>
        <time>2024-08-11T10:38:15Z</time>
      </trkpt>
      <trkpt lat="45.73342" lon="3.21116">
        <ele>348.2</ele>
        <time>2024-08-11T10:38:16Z</time>
      </trkpt>
      <trkpt lat="45.73346" lon="3.21121">
        <ele>348</ele>
        <time>2024-08-11T10:38:17Z</time>
      </trkpt>
      <trkpt lat="45.7335" lon="3.21128">
        <ele>347.8</ele>
        <time>2024-08-11T10:38:18Z</time>
      </trkpt>
      <trkpt lat="45.73353" lon="3.21133">
        <ele>347.6</ele>
        <time>2024-08-11T10:38:19Z</time>
      </trkpt>
      <trkpt lat="45.73357" lon="3.2114">
        <ele>347.6</ele>
        <time>2024-08-11T10:38:20Z</time>
      </trkpt>
      <trkpt lat="45.73361" lon="3.21146">
        <ele>347.4</ele>
        <time>2024-08-11T10:38:21Z</time>
      </trkpt>
      <trkpt lat="45.73365" lon="3.21153">
        <ele>347.2</ele>
        <time>2024-08-11T10:38:22Z</time>
      </trkpt>
      <trkpt lat="45.7337" lon="3.21161">
        <ele>347</ele>
        <time>2024-08-11T10:38:23Z</time>
      </trkpt>
      <trkpt lat="45.73375" lon="3.21168">
        <ele>346.8</ele>
        <time>2024-08-11T10:38:24Z</time>
      </trkpt>
      <trkpt lat="45.73379" lon="3.21176">
        <ele>346.6</ele>
        <time>2024-08-11T10:38:25Z</time>
      </trkpt>
      <trkpt lat="45.73384" lon="3.21184">
        <ele>346.4</ele>
        <time>2024-08-11T10:38:26Z</time>
      </trkpt>
      <trkpt lat="45.73389" lon="3.21192">
        <ele>346.2</ele>
        <time>2024-08-11T10:38:27Z</time>
      </trkpt>
      <trkpt lat="45.73394" lon="3.212">
        <ele>346</ele>
        <time>2024-08-11T10:38:28Z</time>
      </trkpt>
      <trkpt lat="45.73398" lon="3.21207">
        <ele>346</ele>
        <time>2024-08-11T10:38:29Z</time>
      </trkpt>
      <trkpt lat="45.73398" lon="3.21207">
        <ele>345.8</ele>
        <time>2024-08-11T10:38:30Z</time>
      </trkpt>
      <trkpt lat="45.73408" lon="3.21222">
        <ele>345.6</ele>
        <time>2024-08-11T10:38:31Z</time>
      </trkpt>
      <trkpt lat="45.73408" lon="3.21222">
        <ele>345.6</ele>
        <time>2024-08-11T10:38:32Z</time>
      </trkpt>
      <trkpt lat="45.73417" lon="3.21238">
        <ele>345.4</ele>
        <time>2024-08-11T10:38:33Z</time>
      </trkpt>
      <trkpt lat="45.73422" lon="3.21246">
        <ele>345.2</ele>
        <time>2024-08-11T10:38:34Z</time>
      </trkpt>
      <trkpt lat="45.73427" lon="3.21253">
        <ele>345.2</ele>
        <time>2024-08-11T10:38:35Z</time>
      </trkpt>
      <trkpt lat="45.73431" lon="3.21261">
        <ele>345</ele>
        <time>2024-08-11T10:38:36Z</time>
      </trkpt>
      <trkpt lat="45.73436" lon="3.21268">
        <ele>344.8</ele>
        <time>2024-08-11T10:38:37Z</time>
      </trkpt>
      <trkpt lat="45.7344" lon="3.21276">
        <ele>344.8</ele>
        <time>2024-08-11T10:38:38Z</time>
      </trkpt>
      <trkpt lat="45.73445" lon="3.21283">
        <ele>344.6</ele>
        <time>2024-08-11T10:38:39Z</time>
      </trkpt>
      <trkpt lat="45.73449" lon="3.2129">
        <ele>344.4</ele>
        <time>2024-08-11T10:38:40Z</time>
      </trkpt>
      <trkpt lat="45.73453" lon="3.21297">
        <ele>344.4</ele>
        <time>2024-08-11T10:38:41Z</time>
      </trkpt>
      <trkpt lat="45.73457" lon="3.21303">
        <ele>344.2</ele>
        <time>2024-08-11T10:38:42Z</time>
      </trkpt>
      <trkpt lat="45.73461" lon="3.2131">
        <ele>344</ele>
        <time>2024-08-11T10:38:43Z</time>
      </trkpt>
      <trkpt lat="45.73466" lon="3.21317">
        <ele>344</ele>
        <time>2024-08-11T10:38:44Z</time>
      </trkpt>
      <trkpt lat="45.7347" lon="3.21324">
        <ele>343.8</ele>
        <time>2024-08-11T10:38:45Z</time>
      </trkpt>
      <trkpt lat="45.73474" lon="3.21331">
        <ele>343.6</ele>
        <time>2024-08-11T10:38:46Z</time>
      </trkpt>
      <trkpt lat="45.73478" lon="3.21338">
        <ele>343.6</ele>
        <time>2024-08-11T10:38:47Z</time>
      </trkpt>
      <trkpt lat="45.73483" lon="3.21345">
        <ele>343.4</ele>
        <time>2024-08-11T10:38:48Z</time>
      </trkpt>
      <trkpt lat="45.73487" lon="3.21352">
        <ele>343.4</ele>
        <time>2024-08-11T10:38:49Z</time>
      </trkpt>
      <trkpt lat="45.73492" lon="3.21358">
        <ele>343.2</ele>
        <time>2024-08-11T10:38:50Z</time>
      </trkpt>
      <trkpt lat="45.73497" lon="3.21364">
        <ele>343</ele>
        <time>2024-08-11T10:38:51Z</time>
      </trkpt>
      <trkpt lat="45.73502" lon="3.21369">
        <ele>343</ele>
        <time>2024-08-11T10:38:52Z</time>
      </trkpt>
      <trkpt lat="45.73507" lon="3.21374">
        <ele>342.8</ele>
        <time>2024-08-11T10:38:53Z</time>
      </trkpt>
      <trkpt lat="45.73511" lon="3.21379">
        <ele>342.8</ele>
        <time>2024-08-11T10:38:54Z</time>
      </trkpt>
      <trkpt lat="45.73516" lon="3.21384">
        <ele>342.6</ele>
        <time>2024-08-11T10:38:55Z</time>
      </trkpt>
      <trkpt lat="45.73522" lon="3.2139">
        <ele>342.6</ele>
        <time>2024-08-11T10:38:56Z</time>
      </trkpt>
      <trkpt lat="45.73527" lon="3.21395">
        <ele>342.4</ele>
        <time>2024-08-11T10:38:57Z</time>
      </trkpt>
      <trkpt lat="45.73532" lon="3.21401">
        <ele>342.2</ele>
        <time>2024-08-11T10:38:58Z</time>
      </trkpt>
      <trkpt lat="45.73537" lon="3.21406">
        <ele>342.2</ele>
        <time>2024-08-11T10:38:59Z</time>
      </trkpt>
      <trkpt lat="45.73542" lon="3.21411">
        <ele>342</ele>
        <time>2024-08-11T10:39:00Z</time>
      </trkpt>
      <trkpt lat="45.73547" lon="3.21416">
        <ele>342</ele>
        <time>2024-08-11T10:39:01Z</time>
      </trkpt>
      <trkpt lat="45.73552" lon="3.21421">
        <ele>341.8</ele>
        <time>2024-08-11T10:39:02Z</time>
      </trkpt>
      <trkpt lat="45.73556" lon="3.21427">
        <ele>341.6</ele>
        <time>2024-08-11T10:39:03Z</time>
      </trkpt>
      <trkpt lat="45.73562" lon="3.21431">
        <ele>341.6</ele>
        <time>2024-08-11T10:39:04Z</time>
      </trkpt>
      <trkpt lat="45.73568" lon="3.21433">
        <ele>341.4</ele>
        <time>2024-08-11T10:39:05Z</time>
      </trkpt>
      <trkpt lat="45.73574" lon="3.21435">
        <ele>341.2</ele>
        <time>2024-08-11T10:39:06Z</time>
      </trkpt>
      <trkpt lat="45.7358" lon="3.21437">
        <ele>341.2</ele>
        <time>2024-08-11T10:39:07Z</time>
      </trkpt>
      <trkpt lat="45.73586" lon="3.2144">
        <ele>341</ele>
        <time>2024-08-11T10:39:08Z</time>
      </trkpt>
      <trkpt lat="45.73593" lon="3.21442">
        <ele>341</ele>
        <time>2024-08-11T10:39:09Z</time>
      </trkpt>
      <trkpt lat="45.73599" lon="3.21445">
        <ele>340.8</ele>
        <time>2024-08-11T10:39:10Z</time>
      </trkpt>
      <trkpt lat="45.73606" lon="3.21447">
        <ele>340.8</ele>
        <time>2024-08-11T10:39:11Z</time>
      </trkpt>
      <trkpt lat="45.73612" lon="3.2145">
        <ele>340.6</ele>
        <time>2024-08-11T10:39:12Z</time>
      </trkpt>
      <trkpt lat="45.73618" lon="3.21452">
        <ele>340.6</ele>
        <time>2024-08-11T10:39:13Z</time>
      </trkpt>
      <trkpt lat="45.73625" lon="3.21455">
        <ele>340.4</ele>
        <time>2024-08-11T10:39:14Z</time>
      </trkpt>
      <trkpt lat="45.73631" lon="3.21457">
        <ele>340.4</ele>
        <time>2024-08-11T10:39:15Z</time>
      </trkpt>
      <trkpt lat="45.73638" lon="3.21458">
        <ele>340.2</ele>
        <time>2024-08-11T10:39:16Z</time>
      </trkpt>
      <trkpt lat="45.73644" lon="3.21459">
        <ele>340.2</ele>
        <time>2024-08-11T10:39:17Z</time>
      </trkpt>
      <trkpt lat="45.73651" lon="3.2146">
        <ele>340</ele>
        <time>2024-08-11T10:39:18Z</time>
      </trkpt>
      <trkpt lat="45.73658" lon="3.21461">
        <ele>340</ele>
        <time>2024-08-11T10:39:19Z</time>
      </trkpt>
      <trkpt lat="45.73664" lon="3.21462">
        <ele>339.8</ele>
        <time>2024-08-11T10:39:20Z</time>
      </trkpt>
      <trkpt lat="45.73671" lon="3.21463">
        <ele>339.8</ele>
        <time>2024-08-11T10:39:21Z</time>
      </trkpt>
      <trkpt lat="45.73677" lon="3.21464">
        <ele>339.6</ele>
        <time>2024-08-11T10:39:22Z</time>
      </trkpt>
      <trkpt lat="45.73685" lon="3.21465">
        <ele>339.4</ele>
        <time>2024-08-11T10:39:23Z</time>
      </trkpt>
      <trkpt lat="45.73692" lon="3.21466">
        <ele>339.4</ele>
        <time>2024-08-11T10:39:24Z</time>
      </trkpt>
      <trkpt lat="45.73699" lon="3.21467">
        <ele>339.4</ele>
        <time>2024-08-11T10:39:25Z</time>
      </trkpt>
      <trkpt lat="45.73705" lon="3.21468">
        <ele>339.2</ele>
        <time>2024-08-11T10:39:26Z</time>
      </trkpt>
      <trkpt lat="45.73712" lon="3.21469">
        <ele>339.2</ele>
        <time>2024-08-11T10:39:27Z</time>
      </trkpt>
      <trkpt lat="45.73719" lon="3.2147">
        <ele>339</ele>
        <time>2024-08-11T10:39:28Z</time>
      </trkpt>
      <trkpt lat="45.73725" lon="3.21471">
        <ele>339</ele>
        <time>2024-08-11T10:39:29Z</time>
      </trkpt>
      <trkpt lat="45.73732" lon="3.21471">
        <ele>339</ele>
        <time>2024-08-11T10:39:30Z</time>
      </trkpt>
      <trkpt lat="45.73739" lon="3.21472">
        <ele>338.8</ele>
        <time>2024-08-11T10:39:31Z</time>
      </trkpt>
      <trkpt lat="45.73739" lon="3.21472">
        <ele>338.8</ele>
        <time>2024-08-11T10:39:32Z</time>
      </trkpt>
      <trkpt lat="45.73752" lon="3.21474">
        <ele>338.8</ele>
        <time>2024-08-11T10:39:33Z</time>
      </trkpt>
      <trkpt lat="45.73758" lon="3.21475">
        <ele>338.6</ele>
        <time>2024-08-11T10:39:34Z</time>
      </trkpt>
      <trkpt lat="45.73765" lon="3.21476">
        <ele>338.6</ele>
        <time>2024-08-11T10:39:35Z</time>
      </trkpt>
      <trkpt lat="45.73771" lon="3.21477">
        <ele>338.6</ele>
        <time>2024-08-11T10:39:36Z</time>
      </trkpt>
      <trkpt lat="45.73778" lon="3.21478">
        <ele>338.4</ele>
        <time>2024-08-11T10:39:37Z</time>
      </trkpt>
      <trkpt lat="45.73784" lon="3.21479">
        <ele>338.4</ele>
        <time>2024-08-11T10:39:38Z</time>
      </trkpt>
      <trkpt lat="45.7379" lon="3.2148">
        <ele>338.4</ele>
        <time>2024-08-11T10:39:39Z</time>
      </trkpt>
      <trkpt lat="45.73796" lon="3.2148">
        <ele>338.2</ele>
        <time>2024-08-11T10:39:40Z</time>
      </trkpt>
      <trkpt lat="45.73802" lon="3.21481">
        <ele>338.2</ele>
        <time>2024-08-11T10:39:41Z</time>
      </trkpt>
      <trkpt lat="45.73809" lon="3.21482">
        <ele>338.2</ele>
        <time>2024-08-11T10:39:42Z</time>
      </trkpt>
      <trkpt lat="45.73815" lon="3.21483">
        <ele>338.2</ele>
        <time>2024-08-11T10:39:43Z</time>
      </trkpt>
      <trkpt lat="45.73822" lon="3.21484">
        <ele>338</ele>
        <time>2024-08-11T10:39:44Z</time>
      </trkpt>
      <trkpt lat="45.73828" lon="3.21485">
        <ele>338</ele>
        <time>2024-08-11T10:39:45Z</time>
      </trkpt>
      <trkpt lat="45.73834" lon="3.21486">
        <ele>338</ele>
        <time>2024-08-11T10:39:46Z</time>
      </trkpt>
      <trkpt lat="45.73841" lon="3.21487">
        <ele>338</ele>
        <time>2024-08-11T10:39:47Z</time>
      </trkpt>
      <trkpt lat="45.73847" lon="3.21488">
        <ele>337.8</ele>
        <time>2024-08-11T10:39:48Z</time>
      </trkpt>
      <trkpt lat="45.73854" lon="3.21489">
        <ele>337.8</ele>
        <time>2024-08-11T10:39:49Z</time>
      </trkpt>
      <trkpt lat="45.7386" lon="3.21489">
        <ele>337.6</ele>
        <time>2024-08-11T10:39:50Z</time>
      </trkpt>
      <trkpt lat="45.73867" lon="3.2149">
        <ele>337.6</ele>
        <time>2024-08-11T10:39:51Z</time>
      </trkpt>
      <trkpt lat="45.73873" lon="3.21491">
        <ele>337.6</ele>
        <time>2024-08-11T10:39:52Z</time>
      </trkpt>
      <trkpt lat="45.73879" lon="3.21492">
        <ele>337.6</ele>
        <time>2024-08-11T10:39:53Z</time>
      </trkpt>
      <trkpt lat="45.73885" lon="3.21493">
        <ele>337.4</ele>
        <time>2024-08-11T10:39:54Z</time>
      </trkpt>
      <trkpt lat="45.73891" lon="3.21494">
        <ele>337.4</ele>
        <time>2024-08-11T10:39:55Z</time>
      </trkpt>
      <trkpt lat="45.73897" lon="3.21495">
        <ele>337.2</ele>
        <time>2024-08-11T10:39:56Z</time>
      </trkpt>
      <trkpt lat="45.73903" lon="3.21495">
        <ele>337.2</ele>
        <time>2024-08-11T10:39:57Z</time>
      </trkpt>
      <trkpt lat="45.73908" lon="3.21497">
        <ele>337.2</ele>
        <time>2024-08-11T10:39:58Z</time>
      </trkpt>
      <trkpt lat="45.73914" lon="3.21501">
        <ele>337</ele>
        <time>2024-08-11T10:39:59Z</time>
      </trkpt>
      <trkpt lat="45.7392" lon="3.21504">
        <ele>336.8</ele>
        <time>2024-08-11T10:40:00Z</time>
      </trkpt>
      <trkpt lat="45.73926" lon="3.21508">
        <ele>336.8</ele>
        <time>2024-08-11T10:40:01Z</time>
      </trkpt>
      <trkpt lat="45.73932" lon="3.21512">
        <ele>336.6</ele>
        <time>2024-08-11T10:40:02Z</time>
      </trkpt>
      <trkpt lat="45.73937" lon="3.21515">
        <ele>336.6</ele>
        <time>2024-08-11T10:40:03Z</time>
      </trkpt>
      <trkpt lat="45.73944" lon="3.21512">
        <ele>336.4</ele>
        <time>2024-08-11T10:40:04Z</time>
      </trkpt>
      <trkpt lat="45.73951" lon="3.21509">
        <ele>336.4</ele>
        <time>2024-08-11T10:40:05Z</time>
      </trkpt>
      <trkpt lat="45.73957" lon="3.21507">
        <ele>336.4</ele>
        <time>2024-08-11T10:40:06Z</time>
      </trkpt>
      <trkpt lat="45.73963" lon="3.21504">
        <ele>336.2</ele>
        <time>2024-08-11T10:40:07Z</time>
      </trkpt>
      <trkpt lat="45.73969" lon="3.21501">
        <ele>336.2</ele>
        <time>2024-08-11T10:40:08Z</time>
      </trkpt>
      <trkpt lat="45.73975" lon="3.215">
        <ele>336.2</ele>
        <time>2024-08-11T10:40:09Z</time>
      </trkpt>
      <trkpt lat="45.73981" lon="3.215">
        <ele>336.2</ele>
        <time>2024-08-11T10:40:10Z</time>
      </trkpt>
      <trkpt lat="45.73987" lon="3.215">
        <ele>336</ele>
        <time>2024-08-11T10:40:11Z</time>
      </trkpt>
      <trkpt lat="45.73993" lon="3.215">
        <ele>336</ele>
        <time>2024-08-11T10:40:12Z</time>
      </trkpt>
      <trkpt lat="45.74" lon="3.215">
        <ele>335.8</ele>
        <time>2024-08-11T10:40:13Z</time>
      </trkpt>
      <trkpt lat="45.74006" lon="3.215">
        <ele>335.8</ele>
        <time>2024-08-11T10:40:14Z</time>
      </trkpt>
      <trkpt lat="45.74013" lon="3.215">
        <ele>335.6</ele>
        <time>2024-08-11T10:40:15Z</time>
      </trkpt>
      <trkpt lat="45.74019" lon="3.215">
        <ele>335.6</ele>
        <time>2024-08-11T10:40:16Z</time>
      </trkpt>
      <trkpt lat="45.74026" lon="3.215">
        <ele>335.6</ele>
        <time>2024-08-11T10:40:17Z</time>
      </trkpt>
      <trkpt lat="45.74033" lon="3.215">
        <ele>335.4</ele>
        <time>2024-08-11T10:40:18Z</time>
      </trkpt>
      <trkpt lat="45.74039" lon="3.215">
        <ele>335.4</ele>
        <time>2024-08-11T10:40:19Z</time>
      </trkpt>
      <trkpt lat="45.74046" lon="3.215">
        <ele>335.2</ele>
        <time>2024-08-11T10:40:20Z</time>
      </trkpt>
      <trkpt lat="45.74052" lon="3.215">
        <ele>335.2</ele>
        <time>2024-08-11T10:40:21Z</time>
      </trkpt>
      <trkpt lat="45.74059" lon="3.215">
        <ele>335.2</ele>
        <time>2024-08-11T10:40:22Z</time>
      </trkpt>
      <trkpt lat="45.74066" lon="3.215">
        <ele>335</ele>
        <time>2024-08-11T10:40:23Z</time>
      </trkpt>
      <trkpt lat="45.74072" lon="3.215">
        <ele>335</ele>
        <time>2024-08-11T10:40:24Z</time>
      </trkpt>
      <trkpt lat="45.74079" lon="3.215">
        <ele>334.8</ele>
        <time>2024-08-11T10:40:25Z</time>
      </trkpt>
      <trkpt lat="45.74086" lon="3.215">
        <ele>334.8</ele>
        <time>2024-08-11T10:40:26Z</time>
      </trkpt>
      <trkpt lat="45.74093" lon="3.215">
        <ele>334.8</ele>
        <time>2024-08-11T10:40:27Z</time>
      </trkpt>
      <trkpt lat="45.74099" lon="3.215">
        <ele>334.6</ele>
        <time>2024-08-11T10:40:28Z</time>
      </trkpt>
      <trkpt lat="45.74106" lon="3.215">
        <ele>334.6</ele>
        <time>2024-08-11T10:40:29Z</time>
      </trkpt>
      <trkpt lat="45.74113" lon="3.215">
        <ele>334.6</ele>
        <time>2024-08-11T10:40:30Z</time>
      </trkpt>
      <trkpt lat="45.7412" lon="3.21499">
        <ele>334.6</ele>
        <time>2024-08-11T10:40:31Z</time>
      </trkpt>
      <trkpt lat="45.74126" lon="3.21498">
        <ele>334.4</ele>
        <time>2024-08-11T10:40:32Z</time>
      </trkpt>
      <trkpt lat="45.74133" lon="3.21496">
        <ele>334.4</ele>
        <time>2024-08-11T10:40:33Z</time>
      </trkpt>
      <trkpt lat="45.7414" lon="3.21495">
        <ele>334.4</ele>
        <time>2024-08-11T10:40:34Z</time>
      </trkpt>
      <trkpt lat="45.74147" lon="3.21493">
        <ele>334.2</ele>
        <time>2024-08-11T10:40:35Z</time>
      </trkpt>
      <trkpt lat="45.74154" lon="3.21492">
        <ele>334.2</ele>
        <time>2024-08-11T10:40:36Z</time>
      </trkpt>
      <trkpt lat="45.7416" lon="3.21491">
        <ele>334</ele>
        <time>2024-08-11T10:40:37Z</time>
      </trkpt>
      <trkpt lat="45.74167" lon="3.21489">
        <ele>334</ele>
        <time>2024-08-11T10:40:38Z</time>
      </trkpt>
      <trkpt lat="45.74174" lon="3.21488">
        <ele>333.8</ele>
        <time>2024-08-11T10:40:39Z</time>
      </trkpt>
      <trkpt lat="45.74181" lon="3.21486">
        <ele>333.8</ele>
        <time>2024-08-11T10:40:40Z</time>
      </trkpt>
      <trkpt lat="45.74188" lon="3.21485">
        <ele>333.6</ele>
        <time>2024-08-11T10:40:41Z</time>
      </trkpt>
      <trkpt lat="45.74195" lon="3.21484">
        <ele>333.6</ele>
        <time>2024-08-11T10:40:42Z</time>
      </trkpt>
      <trkpt lat="45.74201" lon="3.21482">
        <ele>333.6</ele>
        <time>2024-08-11T10:40:43Z</time>
      </trkpt>
      <trkpt lat="45.74208" lon="3.21481">
        <ele>333.6</ele>
        <time>2024-08-11T10:40:44Z</time>
      </trkpt>
      <trkpt lat="45.74215" lon="3.21479">
        <ele>333.6</ele>
        <time>2024-08-11T10:40:45Z</time>
      </trkpt>
      <trkpt lat="45.74222" lon="3.21478">
        <ele>333.4</ele>
        <time>2024-08-11T10:40:46Z</time>
      </trkpt>
      <trkpt lat="45.74229" lon="3.21477">
        <ele>333.4</ele>
        <time>2024-08-11T10:40:47Z</time>
      </trkpt>
      <trkpt lat="45.74236" lon="3.21475">
        <ele>333.4</ele>
        <time>2024-08-11T10:40:48Z</time>
      </trkpt>
      <trkpt lat="45.74243" lon="3.21473">
        <ele>333.2</ele>
        <time>2024-08-11T10:40:49Z</time>
      </trkpt>
      <trkpt lat="45.7425" lon="3.2147">
        <ele>333.2</ele>
        <time>2024-08-11T10:40:50Z</time>
      </trkpt>
      <trkpt lat="45.74257" lon="3.21467">
        <ele>333</ele>
        <time>2024-08-11T10:40:51Z</time>
      </trkpt>
      <trkpt lat="45.74263" lon="3.21465">
        <ele>333</ele>
        <time>2024-08-11T10:40:52Z</time>
      </trkpt>
      <trkpt lat="45.7427" lon="3.21462">
        <ele>332.8</ele>
        <time>2024-08-11T10:40:53Z</time>
      </trkpt>
      <trkpt lat="45.74277" lon="3.21459">
        <ele>332.8</ele>
        <time>2024-08-11T10:40:54Z</time>
      </trkpt>
      <trkpt lat="45.74283" lon="3.21456">
        <ele>332.8</ele>
        <time>2024-08-11T10:40:55Z</time>
      </trkpt>
      <trkpt lat="45.74289" lon="3.21454">
        <ele>332.8</ele>
        <time>2024-08-11T10:40:56Z</time>
      </trkpt>
      <trkpt lat="45.74296" lon="3.21451">
        <ele>332.8</ele>
        <time>2024-08-11T10:40:57Z</time>
      </trkpt>
      <trkpt lat="45.74302" lon="3.21448">
        <ele>332.8</ele>
        <time>2024-08-11T10:40:58Z</time>
      </trkpt>
      <trkpt lat="45.74308" lon="3.21446">
        <ele>332.6</ele>
        <time>2024-08-11T10:40:59Z</time>
      </trkpt>
      <trkpt lat="45.74315" lon="3.21443">
        <ele>332.6</ele>
        <time>2024-08-11T10:41:00Z</time>
      </trkpt>
      <trkpt lat="45.74321" lon="3.2144">
        <ele>332.6</ele>
        <time>2024-08-11T10:41:01Z</time>
      </trkpt>
      <trkpt lat="45.74327" lon="3.21438">
        <ele>332.6</ele>
        <time>2024-08-11T10:41:02Z</time>
      </trkpt>
      <trkpt lat="45.74333" lon="3.21435">
        <ele>332.4</ele>
        <time>2024-08-11T10:41:03Z</time>
      </trkpt>
      <trkpt lat="45.7434" lon="3.21433">
        <ele>332.4</ele>
        <time>2024-08-11T10:41:04Z</time>
      </trkpt>
      <trkpt lat="45.74346" lon="3.21429">
        <ele>332.4</ele>
        <time>2024-08-11T10:41:05Z</time>
      </trkpt>
      <trkpt lat="45.74352" lon="3.21425">
        <ele>332.4</ele>
        <time>2024-08-11T10:41:06Z</time>
      </trkpt>
      <trkpt lat="45.74358" lon="3.21422">
        <ele>332.2</ele>
        <time>2024-08-11T10:41:07Z</time>
      </trkpt>
      <trkpt lat="45.74364" lon="3.21418">
        <ele>332.2</ele>
        <time>2024-08-11T10:41:08Z</time>
      </trkpt>
      <trkpt lat="45.7437" lon="3.21414">
        <ele>332.2</ele>
        <time>2024-08-11T10:41:09Z</time>
      </trkpt>
      <trkpt lat="45.74375" lon="3.2141">
        <ele>332</ele>
        <time>2024-08-11T10:41:10Z</time>
      </trkpt>
      <trkpt lat="45.74381" lon="3.21406">
        <ele>332</ele>
        <time>2024-08-11T10:41:11Z</time>
      </trkpt>
      <trkpt lat="45.74387" lon="3.21403">
        <ele>332</ele>
        <time>2024-08-11T10:41:12Z</time>
      </trkpt>
      <trkpt lat="45.74393" lon="3.21399">
        <ele>331.8</ele>
        <time>2024-08-11T10:41:13Z</time>
      </trkpt>
      <trkpt lat="45.74399" lon="3.21395">
        <ele>331.8</ele>
        <time>2024-08-11T10:41:14Z</time>
      </trkpt>
      <trkpt lat="45.74405" lon="3.21391">
        <ele>331.8</ele>
        <time>2024-08-11T10:41:15Z</time>
      </trkpt>
      <trkpt lat="45.74411" lon="3.21387">
        <ele>331.8</ele>
        <time>2024-08-11T10:41:16Z</time>
      </trkpt>
      <trkpt lat="45.74416" lon="3.21384">
        <ele>331.8</ele>
        <time>2024-08-11T10:41:17Z</time>
      </trkpt>
      <trkpt lat="45.74422" lon="3.2138">
        <ele>331.6</ele>
        <time>2024-08-11T10:41:18Z</time>
      </trkpt>
      <trkpt lat="45.74428" lon="3.21376">
        <ele>331.6</ele>
        <time>2024-08-11T10:41:19Z</time>
      </trkpt>
      <trkpt lat="45.74433" lon="3.21373">
        <ele>331.6</ele>
        <time>2024-08-11T10:41:20Z</time>
      </trkpt>
      <trkpt lat="45.74439" lon="3.21369">
        <ele>331.6</ele>
        <time>2024-08-11T10:41:21Z</time>
      </trkpt>
      <trkpt lat="45.74445" lon="3.21365">
        <ele>331.6</ele>
        <time>2024-08-11T10:41:22Z</time>
      </trkpt>
      <trkpt lat="45.7445" lon="3.21361">
        <ele>331.6</ele>
        <time>2024-08-11T10:41:23Z</time>
      </trkpt>
      <trkpt lat="45.74456" lon="3.21356">
        <ele>331.4</ele>
        <time>2024-08-11T10:41:24Z</time>
      </trkpt>
      <trkpt lat="45.74461" lon="3.21352">
        <ele>331.4</ele>
        <time>2024-08-11T10:41:25Z</time>
      </trkpt>
      <trkpt lat="45.74466" lon="3.21347">
        <ele>331.4</ele>
        <time>2024-08-11T10:41:26Z</time>
      </trkpt>
      <trkpt lat="45.74472" lon="3.21343">
        <ele>331.4</ele>
        <time>2024-08-11T10:41:27Z</time>
      </trkpt>
      <trkpt lat="45.74477" lon="3.21338">
        <ele>331.2</ele>
        <time>2024-08-11T10:41:28Z</time>
      </trkpt>
      <trkpt lat="45.74482" lon="3.21334">
        <ele>331.2</ele>
        <time>2024-08-11T10:41:29Z</time>
      </trkpt>
      <trkpt lat="45.74488" lon="3.21329">
        <ele>331.2</ele>
        <time>2024-08-11T10:41:30Z</time>
      </trkpt>
      <trkpt lat="45.74493" lon="3.21325">
        <ele>331.2</ele>
        <time>2024-08-11T10:41:31Z</time>
      </trkpt>
      <trkpt lat="45.74498" lon="3.2132">
        <ele>331.2</ele>
        <time>2024-08-11T10:41:32Z</time>
      </trkpt>
      <trkpt lat="45.74503" lon="3.21316">
        <ele>331.2</ele>
        <time>2024-08-11T10:41:33Z</time>
      </trkpt>
      <trkpt lat="45.74509" lon="3.21311">
        <ele>331</ele>
        <time>2024-08-11T10:41:34Z</time>
      </trkpt>
      <trkpt lat="45.74514" lon="3.21307">
        <ele>331</ele>
        <time>2024-08-11T10:41:35Z</time>
      </trkpt>
      <trkpt lat="45.74519" lon="3.21302">
        <ele>331</ele>
        <time>2024-08-11T10:41:36Z</time>
      </trkpt>
      <trkpt lat="45.74525" lon="3.21298">
        <ele>331</ele>
        <time>2024-08-11T10:41:37Z</time>
      </trkpt>
      <trkpt lat="45.7453" lon="3.21294">
        <ele>331</ele>
        <time>2024-08-11T10:41:38Z</time>
      </trkpt>
      <trkpt lat="45.74535" lon="3.21289">
        <ele>331</ele>
        <time>2024-08-11T10:41:39Z</time>
      </trkpt>
      <trkpt lat="45.74541" lon="3.21285">
        <ele>331</ele>
        <time>2024-08-11T10:41:40Z</time>
      </trkpt>
      <trkpt lat="45.74546" lon="3.2128">
        <ele>330.8</ele>
        <time>2024-08-11T10:41:41Z</time>
      </trkpt>
      <trkpt lat="45.74551" lon="3.21276">
        <ele>330.8</ele>
        <time>2024-08-11T10:41:42Z</time>
      </trkpt>
      <trkpt lat="45.74556" lon="3.21271">
        <ele>330.8</ele>
        <time>2024-08-11T10:41:43Z</time>
      </trkpt>
      <trkpt lat="45.74562" lon="3.21267">
        <ele>330.8</ele>
        <time>2024-08-11T10:41:44Z</time>
      </trkpt>
      <trkpt lat="45.74567" lon="3.21262">
        <ele>330.8</ele>
        <time>2024-08-11T10:41:45Z</time>
      </trkpt>
      <trkpt lat="45.74573" lon="3.21259">
        <ele>330.8</ele>
        <time>2024-08-11T10:41:46Z</time>
      </trkpt>
      <trkpt lat="45.74579" lon="3.21257">
        <ele>330.8</ele>
        <time>2024-08-11T10:41:47Z</time>
      </trkpt>
      <trkpt lat="45.74585" lon="3.21254">
        <ele>330.8</ele>
        <time>2024-08-11T10:41:48Z</time>
      </trkpt>
      <trkpt lat="45.74591" lon="3.21252">
        <ele>330.8</ele>
        <time>2024-08-11T10:41:49Z</time>
      </trkpt>
      <trkpt lat="45.74597" lon="3.2125">
        <ele>330.8</ele>
        <time>2024-08-11T10:41:50Z</time>
      </trkpt>
      <trkpt lat="45.74597" lon="3.2125">
        <ele>330.8</ele>
        <time>2024-08-11T10:41:51Z</time>
      </trkpt>
      <trkpt lat="45.74608" lon="3.21246">
        <ele>330.8</ele>
        <time>2024-08-11T10:41:52Z</time>
      </trkpt>
      <trkpt lat="45.74608" lon="3.21246">
        <ele>330.8</ele>
        <time>2024-08-11T10:41:53Z</time>
      </trkpt>
      <trkpt lat="45.74621" lon="3.21241">
        <ele>330.8</ele>
        <time>2024-08-11T10:41:54Z</time>
      </trkpt>
      <trkpt lat="45.74624" lon="3.21241">
        <ele>330.8</ele>
        <time>2024-08-11T10:41:55Z</time>
      </trkpt>
      <trkpt lat="45.74628" lon="3.21241">
        <ele>330.6</ele>
        <time>2024-08-11T10:41:56Z</time>
      </trkpt>
      <trkpt lat="45.74632" lon="3.21241">
        <ele>330.6</ele>
        <time>2024-08-11T10:41:57Z</time>
      </trkpt>
      <trkpt lat="45.74632" lon="3.21241">
        <ele>330.6</ele>
        <time>2024-08-11T10:41:58Z</time>
      </trkpt>
      <trkpt lat="45.74634" lon="3.21238">
        <ele>330.6</ele>
        <time>2024-08-11T10:41:59Z</time>
      </trkpt>
      <trkpt lat="45.74637" lon="3.21236">
        <ele>330.4</ele>
        <time>2024-08-11T10:42:00Z</time>
      </trkpt>
      <trkpt lat="45.7464" lon="3.21234">
        <ele>330.4</ele>
        <time>2024-08-11T10:42:01Z</time>
      </trkpt>
      <trkpt lat="45.74643" lon="3.21231">
        <ele>330.4</ele>
        <time>2024-08-11T10:42:02Z</time>
      </trkpt>
      <trkpt lat="45.74647" lon="3.21228">
        <ele>330.2</ele>
        <time>2024-08-11T10:42:03Z</time>
      </trkpt>
      <trkpt lat="45.74647" lon="3.21228">
        <ele>330.2</ele>
        <time>2024-08-11T10:42:04Z</time>
      </trkpt>
      <trkpt lat="45.74647" lon="3.21226">
        <ele>330.2</ele>
        <time>2024-08-11T10:42:05Z</time>
      </trkpt>
      <trkpt lat="45.74648" lon="3.21219">
        <ele>330</ele>
        <time>2024-08-11T10:42:06Z</time>
      </trkpt>
      <trkpt lat="45.74649" lon="3.21212">
        <ele>329.8</ele>
        <time>2024-08-11T10:42:07Z</time>
      </trkpt>
      <trkpt lat="45.7466" lon="3.21207">
        <ele>329.8</ele>
        <time>2024-08-11T10:42:08Z</time>
      </trkpt>
      <trkpt lat="45.74662" lon="3.212">
        <ele>329.6</ele>
        <time>2024-08-11T10:42:09Z</time>
      </trkpt>
      <trkpt lat="45.74664" lon="3.21193">
        <ele>329.6</ele>
        <time>2024-08-11T10:42:10Z</time>
      </trkpt>
      <trkpt lat="45.74666" lon="3.21186">
        <ele>329.6</ele>
        <time>2024-08-11T10:42:11Z</time>
      </trkpt>
      <trkpt lat="45.74669" lon="3.21179">
        <ele>329.6</ele>
        <time>2024-08-11T10:42:12Z</time>
      </trkpt>
      <trkpt lat="45.74671" lon="3.21172">
        <ele>329.4</ele>
        <time>2024-08-11T10:42:13Z</time>
      </trkpt>
      <trkpt lat="45.74672" lon="3.21165">
        <ele>329.4</ele>
        <time>2024-08-11T10:42:14Z</time>
      </trkpt>
      <trkpt lat="45.74677" lon="3.21155">
        <ele>329.4</ele>
        <time>2024-08-11T10:42:15Z</time>
      </trkpt>
      <trkpt lat="45.74681" lon="3.21151">
        <ele>329.4</ele>
        <time>2024-08-11T10:42:16Z</time>
      </trkpt>
      <trkpt lat="45.74686" lon="3.21147">
        <ele>329.4</ele>
        <time>2024-08-11T10:42:17Z</time>
      </trkpt>
      <trkpt lat="45.7469" lon="3.21143">
        <ele>329.4</ele>
        <time>2024-08-11T10:42:18Z</time>
      </trkpt>
      <trkpt lat="45.74695" lon="3.21139">
        <ele>329.4</ele>
        <time>2024-08-11T10:42:19Z</time>
      </trkpt>
      <trkpt lat="45.74701" lon="3.21135">
        <ele>329.4</ele>
        <time>2024-08-11T10:42:20Z</time>
      </trkpt>
      <trkpt lat="45.74706" lon="3.21133">
        <ele>329.4</ele>
        <time>2024-08-11T10:42:21Z</time>
      </trkpt>
      <trkpt lat="45.74712" lon="3.21131">
        <ele>329.2</ele>
        <time>2024-08-11T10:42:22Z</time>
      </trkpt>
      <trkpt lat="45.74717" lon="3.21128">
        <ele>329.2</ele>
        <time>2024-08-11T10:42:23Z</time>
      </trkpt>
      <trkpt lat="45.74723" lon="3.21126">
        <ele>329.2</ele>
        <time>2024-08-11T10:42:24Z</time>
      </trkpt>
      <trkpt lat="45.74728" lon="3.21123">
        <ele>329.2</ele>
        <time>2024-08-11T10:42:25Z</time>
      </trkpt>
      <trkpt lat="45.74733" lon="3.21121">
        <ele>329.2</ele>
        <time>2024-08-11T10:42:26Z</time>
      </trkpt>
      <trkpt lat="45.74739" lon="3.21118">
        <ele>329.2</ele>
        <time>2024-08-11T10:42:27Z</time>
      </trkpt>
      <trkpt lat="45.74744" lon="3.21116">
        <ele>329.2</ele>
        <time>2024-08-11T10:42:28Z</time>
      </trkpt>
      <trkpt lat="45.74749" lon="3.21114">
        <ele>329.2</ele>
        <time>2024-08-11T10:42:29Z</time>
      </trkpt>
      <trkpt lat="45.74754" lon="3.21111">
        <ele>329</ele>
        <time>2024-08-11T10:42:30Z</time>
      </trkpt>
      <trkpt lat="45.74759" lon="3.21109">
        <ele>329</ele>
        <time>2024-08-11T10:42:31Z</time>
      </trkpt>
      <trkpt lat="45.74764" lon="3.21107">
        <ele>329.2</ele>
        <time>2024-08-11T10:42:32Z</time>
      </trkpt>
      <trkpt lat="45.74769" lon="3.21105">
        <ele>329.2</ele>
        <time>2024-08-11T10:42:33Z</time>
      </trkpt>
      <trkpt lat="45.74774" lon="3.21104">
        <ele>329.2</ele>
        <time>2024-08-11T10:42:34Z</time>
      </trkpt>
      <trkpt lat="45.74779" lon="3.21102">
        <ele>329.2</ele>
        <time>2024-08-11T10:42:35Z</time>
      </trkpt>
      <trkpt lat="45.74784" lon="3.21101">
        <ele>329.2</ele>
        <time>2024-08-11T10:42:36Z</time>
      </trkpt>
      <trkpt lat="45.74789" lon="3.211">
        <ele>329.2</ele>
        <time>2024-08-11T10:42:37Z</time>
      </trkpt>
      <trkpt lat="45.74794" lon="3.21098">
        <ele>329.2</ele>
        <time>2024-08-11T10:42:38Z</time>
      </trkpt>
      <trkpt lat="45.74799" lon="3.21097">
        <ele>329.2</ele>
        <time>2024-08-11T10:42:39Z</time>
      </trkpt>
      <trkpt lat="45.74804" lon="3.21097">
        <ele>329.2</ele>
        <time>2024-08-11T10:42:40Z</time>
      </trkpt>
      <trkpt lat="45.74808" lon="3.21097">
        <ele>329.2</ele>
        <time>2024-08-11T10:42:41Z</time>
      </trkpt>
      <trkpt lat="45.74813" lon="3.21097">
        <ele>329.2</ele>
        <time>2024-08-11T10:42:42Z</time>
      </trkpt>
      <trkpt lat="45.74818" lon="3.21097">
        <ele>329</ele>
        <time>2024-08-11T10:42:43Z</time>
      </trkpt>
      <trkpt lat="45.74822" lon="3.21098">
        <ele>329</ele>
        <time>2024-08-11T10:42:44Z</time>
      </trkpt>
      <trkpt lat="45.74827" lon="3.21098">
        <ele>328.8</ele>
        <time>2024-08-11T10:42:45Z</time>
      </trkpt>
      <trkpt lat="45.74831" lon="3.21098">
        <ele>328.8</ele>
        <time>2024-08-11T10:42:46Z</time>
      </trkpt>
      <trkpt lat="45.74835" lon="3.21098">
        <ele>328.6</ele>
        <time>2024-08-11T10:42:47Z</time>
      </trkpt>
      <trkpt lat="45.74839" lon="3.21098">
        <ele>328.6</ele>
        <time>2024-08-11T10:42:48Z</time>
      </trkpt>
      <trkpt lat="45.74844" lon="3.21098">
        <ele>328.4</ele>
        <time>2024-08-11T10:42:49Z</time>
      </trkpt>
      <trkpt lat="45.74849" lon="3.21098">
        <ele>328.2</ele>
        <time>2024-08-11T10:42:50Z</time>
      </trkpt>
      <trkpt lat="45.74854" lon="3.21099">
        <ele>328</ele>
        <time>2024-08-11T10:42:51Z</time>
      </trkpt>
      <trkpt lat="45.74858" lon="3.21099">
        <ele>328</ele>
        <time>2024-08-11T10:42:52Z</time>
      </trkpt>
      <trkpt lat="45.74863" lon="3.21099">
        <ele>327.8</ele>
        <time>2024-08-11T10:42:53Z</time>
      </trkpt>
      <trkpt lat="45.74867" lon="3.21099">
        <ele>327.8</ele>
        <time>2024-08-11T10:42:54Z</time>
      </trkpt>
      <trkpt lat="45.74871" lon="3.211">
        <ele>327.6</ele>
        <time>2024-08-11T10:42:55Z</time>
      </trkpt>
      <trkpt lat="45.74875" lon="3.21102">
        <ele>327.4</ele>
        <time>2024-08-11T10:42:56Z</time>
      </trkpt>
      <trkpt lat="45.74879" lon="3.21103">
        <ele>327.4</ele>
        <time>2024-08-11T10:42:57Z</time>
      </trkpt>
      <trkpt lat="45.74882" lon="3.21105">
        <ele>327.4</ele>
        <time>2024-08-11T10:42:58Z</time>
      </trkpt>
      <trkpt lat="45.74885" lon="3.21106">
        <ele>327.2</ele>
        <time>2024-08-11T10:42:59Z</time>
      </trkpt>
      <trkpt lat="45.74885" lon="3.21106">
        <ele>327.2</ele>
        <time>2024-08-11T10:43:00Z</time>
      </trkpt>
      <trkpt lat="45.74891" lon="3.21108">
        <ele>327</ele>
        <time>2024-08-11T10:43:01Z</time>
      </trkpt>
      <trkpt lat="45.74895" lon="3.2111">
        <ele>327</ele>
        <time>2024-08-11T10:43:02Z</time>
      </trkpt>
      <trkpt lat="45.74899" lon="3.21111">
        <ele>326.8</ele>
        <time>2024-08-11T10:43:03Z</time>
      </trkpt>
      <trkpt lat="45.74902" lon="3.21113">
        <ele>326.8</ele>
        <time>2024-08-11T10:43:04Z</time>
      </trkpt>
      <trkpt lat="45.74907" lon="3.21114">
        <ele>326.8</ele>
        <time>2024-08-11T10:43:05Z</time>
      </trkpt>
      <trkpt lat="45.74911" lon="3.21116">
        <ele>326.8</ele>
        <time>2024-08-11T10:43:06Z</time>
      </trkpt>
      <trkpt lat="45.74915" lon="3.21117">
        <ele>326.8</ele>
        <time>2024-08-11T10:43:07Z</time>
      </trkpt>
      <trkpt lat="45.74918" lon="3.21119">
        <ele>326.8</ele>
        <time>2024-08-11T10:43:08Z</time>
      </trkpt>
      <trkpt lat="45.74923" lon="3.21121">
        <ele>326.8</ele>
        <time>2024-08-11T10:43:09Z</time>
      </trkpt>
      <trkpt lat="45.74928" lon="3.21123">
        <ele>326.8</ele>
        <time>2024-08-11T10:43:10Z</time>
      </trkpt>
      <trkpt lat="45.74933" lon="3.21125">
        <ele>326.8</ele>
        <time>2024-08-11T10:43:11Z</time>
      </trkpt>
      <trkpt lat="45.74938" lon="3.21127">
        <ele>326.8</ele>
        <time>2024-08-11T10:43:12Z</time>
      </trkpt>
      <trkpt lat="45.74942" lon="3.21128">
        <ele>326.8</ele>
        <time>2024-08-11T10:43:13Z</time>
      </trkpt>
      <trkpt lat="45.74946" lon="3.2113">
        <ele>326.8</ele>
        <time>2024-08-11T10:43:14Z</time>
      </trkpt>
      <trkpt lat="45.74951" lon="3.21132">
        <ele>327</ele>
        <time>2024-08-11T10:43:15Z</time>
      </trkpt>
      <trkpt lat="45.74955" lon="3.21135">
        <ele>327</ele>
        <time>2024-08-11T10:43:16Z</time>
      </trkpt>
      <trkpt lat="45.74959" lon="3.21137">
        <ele>327</ele>
        <time>2024-08-11T10:43:17Z</time>
      </trkpt>
      <trkpt lat="45.74962" lon="3.21139">
        <ele>327</ele>
        <time>2024-08-11T10:43:18Z</time>
      </trkpt>
      <trkpt lat="45.74966" lon="3.21141">
        <ele>327</ele>
        <time>2024-08-11T10:43:19Z</time>
      </trkpt>
      <trkpt lat="45.7497" lon="3.21144">
        <ele>326.2</ele>
        <time>2024-08-11T10:43:20Z</time>
      </trkpt>
      <trkpt lat="45.74974" lon="3.21146">
        <ele>326.2</ele>
        <time>2024-08-11T10:43:21Z</time>
      </trkpt>
      <trkpt lat="45.74978" lon="3.21148">
        <ele>326.6</ele>
        <time>2024-08-11T10:43:22Z</time>
      </trkpt>
      <trkpt lat="45.74982" lon="3.2115">
        <ele>326.8</ele>
        <time>2024-08-11T10:43:23Z</time>
      </trkpt>
      <trkpt lat="45.74985" lon="3.21153">
        <ele>327.2</ele>
        <time>2024-08-11T10:43:24Z</time>
      </trkpt>
      <trkpt lat="45.74989" lon="3.21155">
        <ele>327.8</ele>
        <time>2024-08-11T10:43:25Z</time>
      </trkpt>
      <trkpt lat="45.74993" lon="3.21157">
        <ele>327.4</ele>
        <time>2024-08-11T10:43:26Z</time>
      </trkpt>
      <trkpt lat="45.74996" lon="3.21159">
        <ele>327.4</ele>
        <time>2024-08-11T10:43:27Z</time>
      </trkpt>
      <trkpt lat="45.74999" lon="3.21161">
        <ele>327.4</ele>
        <time>2024-08-11T10:43:28Z</time>
      </trkpt>
      <trkpt lat="45.75002" lon="3.21162">
        <ele>327.4</ele>
        <time>2024-08-11T10:43:29Z</time>
      </trkpt>
      <trkpt lat="45.75004" lon="3.21164">
        <ele>327.6</ele>
        <time>2024-08-11T10:43:30Z</time>
      </trkpt>
      <trkpt lat="45.75007" lon="3.21166">
        <ele>327.6</ele>
        <time>2024-08-11T10:43:31Z</time>
      </trkpt>
      <trkpt lat="45.75011" lon="3.21168">
        <ele>327.6</ele>
        <time>2024-08-11T10:43:32Z</time>
      </trkpt>
      <trkpt lat="45.75014" lon="3.2117">
        <ele>327.8</ele>
        <time>2024-08-11T10:43:33Z</time>
      </trkpt>
      <trkpt lat="45.75018" lon="3.21172">
        <ele>327.8</ele>
        <time>2024-08-11T10:43:34Z</time>
      </trkpt>
      <trkpt lat="45.75021" lon="3.21174">
        <ele>327.8</ele>
        <time>2024-08-11T10:43:35Z</time>
      </trkpt>
      <trkpt lat="45.75025" lon="3.21177">
        <ele>327.8</ele>
        <time>2024-08-11T10:43:36Z</time>
      </trkpt>
      <trkpt lat="45.75029" lon="3.21179">
        <ele>327.8</ele>
        <time>2024-08-11T10:43:37Z</time>
      </trkpt>
      <trkpt lat="45.75033" lon="3.21181">
        <ele>328</ele>
        <time>2024-08-11T10:43:38Z</time>
      </trkpt>
      <trkpt lat="45.75037" lon="3.21183">
        <ele>328</ele>
        <time>2024-08-11T10:43:39Z</time>
      </trkpt>
      <trkpt lat="45.75041" lon="3.21186">
        <ele>328.2</ele>
        <time>2024-08-11T10:43:40Z</time>
      </trkpt>
      <trkpt lat="45.75045" lon="3.21188">
        <ele>328.2</ele>
        <time>2024-08-11T10:43:41Z</time>
      </trkpt>
      <trkpt lat="45.75048" lon="3.21191">
        <ele>328.4</ele>
        <time>2024-08-11T10:43:42Z</time>
      </trkpt>
      <trkpt lat="45.75052" lon="3.21193">
        <ele>328.4</ele>
        <time>2024-08-11T10:43:43Z</time>
      </trkpt>
      <trkpt lat="45.75056" lon="3.21195">
        <ele>328.4</ele>
        <time>2024-08-11T10:43:44Z</time>
      </trkpt>
      <trkpt lat="45.7506" lon="3.21197">
        <ele>328.6</ele>
        <time>2024-08-11T10:43:45Z</time>
      </trkpt>
      <trkpt lat="45.75063" lon="3.212">
        <ele>328.6</ele>
        <time>2024-08-11T10:43:46Z</time>
      </trkpt>
      <trkpt lat="45.75067" lon="3.21202">
        <ele>328.8</ele>
        <time>2024-08-11T10:43:47Z</time>
      </trkpt>
      <trkpt lat="45.75071" lon="3.21204">
        <ele>328.8</ele>
        <time>2024-08-11T10:43:48Z</time>
      </trkpt>
      <trkpt lat="45.75074" lon="3.21206">
        <ele>329</ele>
        <time>2024-08-11T10:43:49Z</time>
      </trkpt>
      <trkpt lat="45.75078" lon="3.21208">
        <ele>329</ele>
        <time>2024-08-11T10:43:50Z</time>
      </trkpt>
      <trkpt lat="45.75081" lon="3.2121">
        <ele>329.2</ele>
        <time>2024-08-11T10:43:51Z</time>
      </trkpt>
      <trkpt lat="45.75085" lon="3.21212">
        <ele>329.2</ele>
        <time>2024-08-11T10:43:52Z</time>
      </trkpt>
      <trkpt lat="45.75088" lon="3.21214">
        <ele>329.4</ele>
        <time>2024-08-11T10:43:53Z</time>
      </trkpt>
      <trkpt lat="45.75092" lon="3.21216">
        <ele>329.4</ele>
        <time>2024-08-11T10:43:54Z</time>
      </trkpt>
      <trkpt lat="45.75095" lon="3.21219">
        <ele>329.6</ele>
        <time>2024-08-11T10:43:55Z</time>
      </trkpt>
      <trkpt lat="45.75098" lon="3.21221">
        <ele>329.8</ele>
        <time>2024-08-11T10:43:56Z</time>
      </trkpt>
      <trkpt lat="45.75102" lon="3.21222">
        <ele>330</ele>
        <time>2024-08-11T10:43:57Z</time>
      </trkpt>
      <trkpt lat="45.75105" lon="3.21224">
        <ele>330</ele>
        <time>2024-08-11T10:43:58Z</time>
      </trkpt>
      <trkpt lat="45.75108" lon="3.21226">
        <ele>330.2</ele>
        <time>2024-08-11T10:43:59Z</time>
      </trkpt>
      <trkpt lat="45.75111" lon="3.21228">
        <ele>330.4</ele>
        <time>2024-08-11T10:44:00Z</time>
      </trkpt>
      <trkpt lat="45.75114" lon="3.2123">
        <ele>330.4</ele>
        <time>2024-08-11T10:44:01Z</time>
      </trkpt>
      <trkpt lat="45.75118" lon="3.21232">
        <ele>330.6</ele>
        <time>2024-08-11T10:44:02Z</time>
      </trkpt>
      <trkpt lat="45.75121" lon="3.21234">
        <ele>330.8</ele>
        <time>2024-08-11T10:44:03Z</time>
      </trkpt>
      <trkpt lat="45.75124" lon="3.21236">
        <ele>331</ele>
        <time>2024-08-11T10:44:04Z</time>
      </trkpt>
      <trkpt lat="45.75127" lon="3.21238">
        <ele>331.2</ele>
        <time>2024-08-11T10:44:05Z</time>
      </trkpt>
      <trkpt lat="45.7513" lon="3.2124">
        <ele>331.4</ele>
        <time>2024-08-11T10:44:06Z</time>
      </trkpt>
      <trkpt lat="45.75134" lon="3.21242">
        <ele>331.4</ele>
        <time>2024-08-11T10:44:07Z</time>
      </trkpt>
      <trkpt lat="45.75137" lon="3.21244">
        <ele>331.6</ele>
        <time>2024-08-11T10:44:08Z</time>
      </trkpt>
      <trkpt lat="45.7514" lon="3.21246">
        <ele>331.8</ele>
        <time>2024-08-11T10:44:09Z</time>
      </trkpt>
      <trkpt lat="45.75144" lon="3.21247">
        <ele>331.8</ele>
        <time>2024-08-11T10:44:10Z</time>
      </trkpt>
      <trkpt lat="45.75147" lon="3.21248">
        <ele>332</ele>
        <time>2024-08-11T10:44:11Z</time>
      </trkpt>
      <trkpt lat="45.75151" lon="3.21249">
        <ele>332.2</ele>
        <time>2024-08-11T10:44:12Z</time>
      </trkpt>
      <trkpt lat="45.75154" lon="3.2125">
        <ele>332.4</ele>
        <time>2024-08-11T10:44:13Z</time>
      </trkpt>
      <trkpt lat="45.75157" lon="3.21251">
        <ele>332.6</ele>
        <time>2024-08-11T10:44:14Z</time>
      </trkpt>
      <trkpt lat="45.75161" lon="3.21252">
        <ele>332.8</ele>
        <time>2024-08-11T10:44:15Z</time>
      </trkpt>
      <trkpt lat="45.75164" lon="3.21252">
        <ele>333</ele>
        <time>2024-08-11T10:44:16Z</time>
      </trkpt>
      <trkpt lat="45.75167" lon="3.21253">
        <ele>333.2</ele>
        <time>2024-08-11T10:44:17Z</time>
      </trkpt>
      <trkpt lat="45.75171" lon="3.21254">
        <ele>333.4</ele>
        <time>2024-08-11T10:44:18Z</time>
      </trkpt>
      <trkpt lat="45.75174" lon="3.21255">
        <ele>333.6</ele>
        <time>2024-08-11T10:44:19Z</time>
      </trkpt>
      <trkpt lat="45.75177" lon="3.21256">
        <ele>333.6</ele>
        <time>2024-08-11T10:44:20Z</time>
      </trkpt>
      <trkpt lat="45.75181" lon="3.21257">
        <ele>333.8</ele>
        <time>2024-08-11T10:44:21Z</time>
      </trkpt>
      <trkpt lat="45.75184" lon="3.21258">
        <ele>334</ele>
        <time>2024-08-11T10:44:22Z</time>
      </trkpt>
      <trkpt lat="45.75188" lon="3.21258">
        <ele>334.2</ele>
        <time>2024-08-11T10:44:23Z</time>
      </trkpt>
      <trkpt lat="45.75191" lon="3.21259">
        <ele>334.4</ele>
        <time>2024-08-11T10:44:24Z</time>
      </trkpt>
      <trkpt lat="45.75195" lon="3.2126">
        <ele>334.6</ele>
        <time>2024-08-11T10:44:25Z</time>
      </trkpt>
      <trkpt lat="45.75198" lon="3.21261">
        <ele>334.8</ele>
        <time>2024-08-11T10:44:26Z</time>
      </trkpt>
      <trkpt lat="45.75202" lon="3.21262">
        <ele>335</ele>
        <time>2024-08-11T10:44:27Z</time>
      </trkpt>
      <trkpt lat="45.75206" lon="3.21262">
        <ele>335.2</ele>
        <time>2024-08-11T10:44:28Z</time>
      </trkpt>
      <trkpt lat="45.75209" lon="3.21263">
        <ele>335.4</ele>
        <time>2024-08-11T10:44:29Z</time>
      </trkpt>
      <trkpt lat="45.75213" lon="3.21263">
        <ele>335.6</ele>
        <time>2024-08-11T10:44:30Z</time>
      </trkpt>
      <trkpt lat="45.75217" lon="3.21263">
        <ele>335.6</ele>
        <time>2024-08-11T10:44:31Z</time>
      </trkpt>
      <trkpt lat="45.75221" lon="3.21263">
        <ele>335.8</ele>
        <time>2024-08-11T10:44:32Z</time>
      </trkpt>
      <trkpt lat="45.75225" lon="3.21264">
        <ele>336</ele>
        <time>2024-08-11T10:44:33Z</time>
      </trkpt>
      <trkpt lat="45.75229" lon="3.21264">
        <ele>336.2</ele>
        <time>2024-08-11T10:44:34Z</time>
      </trkpt>
      <trkpt lat="45.75233" lon="3.21264">
        <ele>336.4</ele>
        <time>2024-08-11T10:44:35Z</time>
      </trkpt>
      <trkpt lat="45.75236" lon="3.21265">
        <ele>336.6</ele>
        <time>2024-08-11T10:44:36Z</time>
      </trkpt>
      <trkpt lat="45.7524" lon="3.21265">
        <ele>336.6</ele>
        <time>2024-08-11T10:44:37Z</time>
      </trkpt>
      <trkpt lat="45.75244" lon="3.21265">
        <ele>336.8</ele>
        <time>2024-08-11T10:44:38Z</time>
      </trkpt>
      <trkpt lat="45.75248" lon="3.21265">
        <ele>337</ele>
        <time>2024-08-11T10:44:39Z</time>
      </trkpt>
      <trkpt lat="45.75251" lon="3.21266">
        <ele>337.2</ele>
        <time>2024-08-11T10:44:40Z</time>
      </trkpt>
      <trkpt lat="45.75255" lon="3.21266">
        <ele>337.4</ele>
        <time>2024-08-11T10:44:41Z</time>
      </trkpt>
      <trkpt lat="45.75259" lon="3.21266">
        <ele>337.6</ele>
        <time>2024-08-11T10:44:42Z</time>
      </trkpt>
      <trkpt lat="45.75263" lon="3.21266">
        <ele>337.8</ele>
        <time>2024-08-11T10:44:43Z</time>
      </trkpt>
      <trkpt lat="45.75266" lon="3.21266">
        <ele>338</ele>
        <time>2024-08-11T10:44:44Z</time>
      </trkpt>
      <trkpt lat="45.7527" lon="3.21265">
        <ele>338</ele>
        <time>2024-08-11T10:44:45Z</time>
      </trkpt>
      <trkpt lat="45.75274" lon="3.21264">
        <ele>338.2</ele>
        <time>2024-08-11T10:44:46Z</time>
      </trkpt>
      <trkpt lat="45.75278" lon="3.21264">
        <ele>338.4</ele>
        <time>2024-08-11T10:44:47Z</time>
      </trkpt>
      <trkpt lat="45.75281" lon="3.21263">
        <ele>338.6</ele>
        <time>2024-08-11T10:44:48Z</time>
      </trkpt>
      <trkpt lat="45.75285" lon="3.21263">
        <ele>338.6</ele>
        <time>2024-08-11T10:44:49Z</time>
      </trkpt>
      <trkpt lat="45.75289" lon="3.21262">
        <ele>338.8</ele>
        <time>2024-08-11T10:44:50Z</time>
      </trkpt>
      <trkpt lat="45.75292" lon="3.21262">
        <ele>339</ele>
        <time>2024-08-11T10:44:51Z</time>
      </trkpt>
      <trkpt lat="45.75296" lon="3.21261">
        <ele>339.2</ele>
        <time>2024-08-11T10:44:52Z</time>
      </trkpt>
      <trkpt lat="45.75299" lon="3.21261">
        <ele>339.4</ele>
        <time>2024-08-11T10:44:53Z</time>
      </trkpt>
      <trkpt lat="45.75303" lon="3.2126">
        <ele>339.4</ele>
        <time>2024-08-11T10:44:54Z</time>
      </trkpt>
      <trkpt lat="45.75307" lon="3.21259">
        <ele>339.6</ele>
        <time>2024-08-11T10:44:55Z</time>
      </trkpt>
      <trkpt lat="45.7531" lon="3.21257">
        <ele>339.8</ele>
        <time>2024-08-11T10:44:56Z</time>
      </trkpt>
      <trkpt lat="45.75314" lon="3.21256">
        <ele>340</ele>
        <time>2024-08-11T10:44:57Z</time>
      </trkpt>
      <trkpt lat="45.75317" lon="3.21254">
        <ele>340</ele>
        <time>2024-08-11T10:44:58Z</time>
      </trkpt>
      <trkpt lat="45.75321" lon="3.21253">
        <ele>340.2</ele>
        <time>2024-08-11T10:44:59Z</time>
      </trkpt>
      <trkpt lat="45.75325" lon="3.21251">
        <ele>340.4</ele>
        <time>2024-08-11T10:45:00Z</time>
      </trkpt>
      <trkpt lat="45.75328" lon="3.2125">
        <ele>340.4</ele>
        <time>2024-08-11T10:45:01Z</time>
      </trkpt>
      <trkpt lat="45.75332" lon="3.21249">
        <ele>340.6</ele>
        <time>2024-08-11T10:45:02Z</time>
      </trkpt>
      <trkpt lat="45.75335" lon="3.21247">
        <ele>340.8</ele>
        <time>2024-08-11T10:45:03Z</time>
      </trkpt>
      <trkpt lat="45.75339" lon="3.21246">
        <ele>340.8</ele>
        <time>2024-08-11T10:45:04Z</time>
      </trkpt>
      <trkpt lat="45.75342" lon="3.21244">
        <ele>341</ele>
        <time>2024-08-11T10:45:05Z</time>
      </trkpt>
      <trkpt lat="45.75346" lon="3.21243">
        <ele>341.2</ele>
        <time>2024-08-11T10:45:06Z</time>
      </trkpt>
      <trkpt lat="45.75349" lon="3.21242">
        <ele>341.2</ele>
        <time>2024-08-11T10:45:07Z</time>
      </trkpt>
      <trkpt lat="45.75352" lon="3.2124">
        <ele>341.4</ele>
        <time>2024-08-11T10:45:08Z</time>
      </trkpt>
      <trkpt lat="45.75355" lon="3.21239">
        <ele>341.4</ele>
        <time>2024-08-11T10:45:09Z</time>
      </trkpt>
      <trkpt lat="45.75359" lon="3.21237">
        <ele>341.6</ele>
        <time>2024-08-11T10:45:10Z</time>
      </trkpt>
      <trkpt lat="45.75362" lon="3.21236">
        <ele>341.8</ele>
        <time>2024-08-11T10:45:11Z</time>
      </trkpt>
      <trkpt lat="45.75366" lon="3.21234">
        <ele>341.8</ele>
        <time>2024-08-11T10:45:12Z</time>
      </trkpt>
      <trkpt lat="45.75369" lon="3.21233">
        <ele>342</ele>
        <time>2024-08-11T10:45:13Z</time>
      </trkpt>
      <trkpt lat="45.75373" lon="3.21232">
        <ele>342.2</ele>
        <time>2024-08-11T10:45:14Z</time>
      </trkpt>
      <trkpt lat="45.75376" lon="3.2123">
        <ele>342.4</ele>
        <time>2024-08-11T10:45:15Z</time>
      </trkpt>
      <trkpt lat="45.7538" lon="3.21229">
        <ele>342.4</ele>
        <time>2024-08-11T10:45:16Z</time>
      </trkpt>
      <trkpt lat="45.75384" lon="3.21227">
        <ele>342.6</ele>
        <time>2024-08-11T10:45:17Z</time>
      </trkpt>
      <trkpt lat="45.75387" lon="3.21226">
        <ele>342.8</ele>
        <time>2024-08-11T10:45:18Z</time>
      </trkpt>
      <trkpt lat="45.75391" lon="3.21224">
        <ele>342.8</ele>
        <time>2024-08-11T10:45:19Z</time>
      </trkpt>
      <trkpt lat="45.75394" lon="3.21223">
        <ele>343</ele>
        <time>2024-08-11T10:45:20Z</time>
      </trkpt>
      <trkpt lat="45.75398" lon="3.21222">
        <ele>343.2</ele>
        <time>2024-08-11T10:45:21Z</time>
      </trkpt>
      <trkpt lat="45.75401" lon="3.2122">
        <ele>343.2</ele>
        <time>2024-08-11T10:45:22Z</time>
      </trkpt>
      <trkpt lat="45.75404" lon="3.21219">
        <ele>343.4</ele>
        <time>2024-08-11T10:45:23Z</time>
      </trkpt>
      <trkpt lat="45.75408" lon="3.21217">
        <ele>343.6</ele>
        <time>2024-08-11T10:45:24Z</time>
      </trkpt>
      <trkpt lat="45.75411" lon="3.21216">
        <ele>343.8</ele>
        <time>2024-08-11T10:45:25Z</time>
      </trkpt>
      <trkpt lat="45.75414" lon="3.21215">
        <ele>343.8</ele>
        <time>2024-08-11T10:45:26Z</time>
      </trkpt>
      <trkpt lat="45.75418" lon="3.21213">
        <ele>344</ele>
        <time>2024-08-11T10:45:27Z</time>
      </trkpt>
      <trkpt lat="45.75422" lon="3.21212">
        <ele>344.2</ele>
        <time>2024-08-11T10:45:28Z</time>
      </trkpt>
      <trkpt lat="45.75425" lon="3.2121">
        <ele>344.4</ele>
        <time>2024-08-11T10:45:29Z</time>
      </trkpt>
      <trkpt lat="45.75429" lon="3.21209">
        <ele>344.6</ele>
        <time>2024-08-11T10:45:30Z</time>
      </trkpt>
      <trkpt lat="45.75432" lon="3.21208">
        <ele>344.6</ele>
        <time>2024-08-11T10:45:31Z</time>
      </trkpt>
      <trkpt lat="45.75435" lon="3.21206">
        <ele>344.8</ele>
        <time>2024-08-11T10:45:32Z</time>
      </trkpt>
      <trkpt lat="45.75439" lon="3.21205">
        <ele>345</ele>
        <time>2024-08-11T10:45:33Z</time>
      </trkpt>
      <trkpt lat="45.75443" lon="3.21203">
        <ele>345.2</ele>
        <time>2024-08-11T10:45:34Z</time>
      </trkpt>
      <trkpt lat="45.75446" lon="3.21202">
        <ele>345.2</ele>
        <time>2024-08-11T10:45:35Z</time>
      </trkpt>
      <trkpt lat="45.75449" lon="3.212">
        <ele>345.4</ele>
        <time>2024-08-11T10:45:36Z</time>
      </trkpt>
      <trkpt lat="45.75453" lon="3.21199">
        <ele>345.6</ele>
        <time>2024-08-11T10:45:37Z</time>
      </trkpt>
      <trkpt lat="45.75456" lon="3.21198">
        <ele>345.8</ele>
        <time>2024-08-11T10:45:38Z</time>
      </trkpt>
      <trkpt lat="45.7546" lon="3.21196">
        <ele>346</ele>
        <time>2024-08-11T10:45:39Z</time>
      </trkpt>
      <trkpt lat="45.75463" lon="3.21195">
        <ele>346</ele>
        <time>2024-08-11T10:45:40Z</time>
      </trkpt>
      <trkpt lat="45.75467" lon="3.21193">
        <ele>346.2</ele>
        <time>2024-08-11T10:45:41Z</time>
      </trkpt>
      <trkpt lat="45.7547" lon="3.21192">
        <ele>346.4</ele>
        <time>2024-08-11T10:45:42Z</time>
      </trkpt>
      <trkpt lat="45.75473" lon="3.21191">
        <ele>346.6</ele>
        <time>2024-08-11T10:45:43Z</time>
      </trkpt>
      <trkpt lat="45.75476" lon="3.21189">
        <ele>346.8</ele>
        <time>2024-08-11T10:45:44Z</time>
      </trkpt>
      <trkpt lat="45.7548" lon="3.21188">
        <ele>346.8</ele>
        <time>2024-08-11T10:45:45Z</time>
      </trkpt>
      <trkpt lat="45.75483" lon="3.21187">
        <ele>347</ele>
        <time>2024-08-11T10:45:46Z</time>
      </trkpt>
      <trkpt lat="45.75486" lon="3.21185">
        <ele>347.2</ele>
        <time>2024-08-11T10:45:47Z</time>
      </trkpt>
      <trkpt lat="45.75489" lon="3.21184">
        <ele>347.4</ele>
        <time>2024-08-11T10:45:48Z</time>
      </trkpt>
      <trkpt lat="45.75492" lon="3.21183">
        <ele>347.6</ele>
        <time>2024-08-11T10:45:49Z</time>
      </trkpt>
      <trkpt lat="45.75495" lon="3.21182">
        <ele>347.6</ele>
        <time>2024-08-11T10:45:50Z</time>
      </trkpt>
      <trkpt lat="45.75498" lon="3.2118">
        <ele>348</ele>
        <time>2024-08-11T10:45:51Z</time>
      </trkpt>
      <trkpt lat="45.75501" lon="3.21179">
        <ele>348</ele>
        <time>2024-08-11T10:45:52Z</time>
      </trkpt>
      <trkpt lat="45.75504" lon="3.21178">
        <ele>348.2</ele>
        <time>2024-08-11T10:45:53Z</time>
      </trkpt>
      <trkpt lat="45.75507" lon="3.21177">
        <ele>348.4</ele>
        <time>2024-08-11T10:45:54Z</time>
      </trkpt>
      <trkpt lat="45.75511" lon="3.21175">
        <ele>348.6</ele>
        <time>2024-08-11T10:45:55Z</time>
      </trkpt>
      <trkpt lat="45.75514" lon="3.21174">
        <ele>348.8</ele>
        <time>2024-08-11T10:45:56Z</time>
      </trkpt>
      <trkpt lat="45.75517" lon="3.21173">
        <ele>349</ele>
        <time>2024-08-11T10:45:57Z</time>
      </trkpt>
      <trkpt lat="45.7552" lon="3.21172">
        <ele>349.2</ele>
        <time>2024-08-11T10:45:58Z</time>
      </trkpt>
      <trkpt lat="45.75523" lon="3.2117">
        <ele>349.4</ele>
        <time>2024-08-11T10:45:59Z</time>
      </trkpt>
      <trkpt lat="45.75526" lon="3.21169">
        <ele>349.4</ele>
        <time>2024-08-11T10:46:00Z</time>
      </trkpt>
      <trkpt lat="45.75529" lon="3.21168">
        <ele>349.6</ele>
        <time>2024-08-11T10:46:01Z</time>
      </trkpt>
      <trkpt lat="45.75532" lon="3.21167">
        <ele>349.8</ele>
        <time>2024-08-11T10:46:02Z</time>
      </trkpt>
      <trkpt lat="45.75534" lon="3.21166">
        <ele>350</ele>
        <time>2024-08-11T10:46:03Z</time>
      </trkpt>
      <trkpt lat="45.75537" lon="3.21164">
        <ele>350.2</ele>
        <time>2024-08-11T10:46:04Z</time>
      </trkpt>
      <trkpt lat="45.7554" lon="3.21163">
        <ele>350.4</ele>
        <time>2024-08-11T10:46:05Z</time>
      </trkpt>
      <trkpt lat="45.75543" lon="3.21162">
        <ele>350.6</ele>
        <time>2024-08-11T10:46:06Z</time>
      </trkpt>
      <trkpt lat="45.75546" lon="3.21161">
        <ele>350.6</ele>
        <time>2024-08-11T10:46:07Z</time>
      </trkpt>
      <trkpt lat="45.75549" lon="3.2116">
        <ele>350.8</ele>
        <time>2024-08-11T10:46:08Z</time>
      </trkpt>
      <trkpt lat="45.75551" lon="3.21159">
        <ele>351</ele>
        <time>2024-08-11T10:46:09Z</time>
      </trkpt>
      <trkpt lat="45.75554" lon="3.21157">
        <ele>351.2</ele>
        <time>2024-08-11T10:46:10Z</time>
      </trkpt>
      <trkpt lat="45.75557" lon="3.21156">
        <ele>351.4</ele>
        <time>2024-08-11T10:46:11Z</time>
      </trkpt>
      <trkpt lat="45.7556" lon="3.21155">
        <ele>351.4</ele>
        <time>2024-08-11T10:46:12Z</time>
      </trkpt>
      <trkpt lat="45.75563" lon="3.21154">
        <ele>351.6</ele>
        <time>2024-08-11T10:46:13Z</time>
      </trkpt>
      <trkpt lat="45.75565" lon="3.21153">
        <ele>351.8</ele>
        <time>2024-08-11T10:46:14Z</time>
      </trkpt>
      <trkpt lat="45.75568" lon="3.21152">
        <ele>352</ele>
        <time>2024-08-11T10:46:15Z</time>
      </trkpt>
      <trkpt lat="45.75571" lon="3.21151">
        <ele>352.2</ele>
        <time>2024-08-11T10:46:16Z</time>
      </trkpt>
      <trkpt lat="45.75574" lon="3.21149">
        <ele>352.4</ele>
        <time>2024-08-11T10:46:17Z</time>
      </trkpt>
      <trkpt lat="45.75577" lon="3.21148">
        <ele>352.6</ele>
        <time>2024-08-11T10:46:18Z</time>
      </trkpt>
      <trkpt lat="45.7558" lon="3.21147">
        <ele>352.8</ele>
        <time>2024-08-11T10:46:19Z</time>
      </trkpt>
      <trkpt lat="45.75583" lon="3.21146">
        <ele>353</ele>
        <time>2024-08-11T10:46:20Z</time>
      </trkpt>
      <trkpt lat="45.75586" lon="3.21145">
        <ele>353</ele>
        <time>2024-08-11T10:46:21Z</time>
      </trkpt>
      <trkpt lat="45.75589" lon="3.21143">
        <ele>353.2</ele>
        <time>2024-08-11T10:46:22Z</time>
      </trkpt>
      <trkpt lat="45.75592" lon="3.21142">
        <ele>353.6</ele>
        <time>2024-08-11T10:46:23Z</time>
      </trkpt>
      <trkpt lat="45.75595" lon="3.21141">
        <ele>353.8</ele>
        <time>2024-08-11T10:46:24Z</time>
      </trkpt>
      <trkpt lat="45.75598" lon="3.2114">
        <ele>354</ele>
        <time>2024-08-11T10:46:25Z</time>
      </trkpt>
      <trkpt lat="45.75601" lon="3.21138">
        <ele>354</ele>
        <time>2024-08-11T10:46:26Z</time>
      </trkpt>
      <trkpt lat="45.75604" lon="3.21137">
        <ele>354.2</ele>
        <time>2024-08-11T10:46:27Z</time>
      </trkpt>
      <trkpt lat="45.75607" lon="3.21136">
        <ele>354.2</ele>
        <time>2024-08-11T10:46:28Z</time>
      </trkpt>
      <trkpt lat="45.7561" lon="3.21135">
        <ele>354.4</ele>
        <time>2024-08-11T10:46:29Z</time>
      </trkpt>
      <trkpt lat="45.75614" lon="3.21133">
        <ele>354.6</ele>
        <time>2024-08-11T10:46:30Z</time>
      </trkpt>
      <trkpt lat="45.75617" lon="3.21132">
        <ele>354.8</ele>
        <time>2024-08-11T10:46:31Z</time>
      </trkpt>
      <trkpt lat="45.7562" lon="3.21131">
        <ele>354.8</ele>
        <time>2024-08-11T10:46:32Z</time>
      </trkpt>
      <trkpt lat="45.75623" lon="3.2113">
        <ele>355</ele>
        <time>2024-08-11T10:46:33Z</time>
      </trkpt>
      <trkpt lat="45.75626" lon="3.21128">
        <ele>355.2</ele>
        <time>2024-08-11T10:46:34Z</time>
      </trkpt>
      <trkpt lat="45.75629" lon="3.21127">
        <ele>355.4</ele>
        <time>2024-08-11T10:46:35Z</time>
      </trkpt>
      <trkpt lat="45.75632" lon="3.21126">
        <ele>355.4</ele>
        <time>2024-08-11T10:46:36Z</time>
      </trkpt>
      <trkpt lat="45.75634" lon="3.21125">
        <ele>355.6</ele>
        <time>2024-08-11T10:46:37Z</time>
      </trkpt>
      <trkpt lat="45.75637" lon="3.21124">
        <ele>355.8</ele>
        <time>2024-08-11T10:46:38Z</time>
      </trkpt>
      <trkpt lat="45.7564" lon="3.21122">
        <ele>355.8</ele>
        <time>2024-08-11T10:46:39Z</time>
      </trkpt>
      <trkpt lat="45.75643" lon="3.21121">
        <ele>356</ele>
        <time>2024-08-11T10:46:40Z</time>
      </trkpt>
      <trkpt lat="45.75646" lon="3.2112">
        <ele>356.2</ele>
        <time>2024-08-11T10:46:41Z</time>
      </trkpt>
      <trkpt lat="45.75649" lon="3.21119">
        <ele>356.2</ele>
        <time>2024-08-11T10:46:42Z</time>
      </trkpt>
      <trkpt lat="45.75652" lon="3.21118">
        <ele>356.4</ele>
        <time>2024-08-11T10:46:43Z</time>
      </trkpt>
      <trkpt lat="45.75655" lon="3.21116">
        <ele>356.6</ele>
        <time>2024-08-11T10:46:44Z</time>
      </trkpt>
      <trkpt lat="45.75658" lon="3.21115">
        <ele>356.6</ele>
        <time>2024-08-11T10:46:45Z</time>
      </trkpt>
      <trkpt lat="45.75661" lon="3.21114">
        <ele>356.8</ele>
        <time>2024-08-11T10:46:46Z</time>
      </trkpt>
      <trkpt lat="45.75665" lon="3.21112">
        <ele>356.8</ele>
        <time>2024-08-11T10:46:47Z</time>
      </trkpt>
      <trkpt lat="45.75668" lon="3.21111">
        <ele>357</ele>
        <time>2024-08-11T10:46:48Z</time>
      </trkpt>
      <trkpt lat="45.75672" lon="3.21109">
        <ele>357.2</ele>
        <time>2024-08-11T10:46:49Z</time>
      </trkpt>
      <trkpt lat="45.75675" lon="3.21108">
        <ele>357.2</ele>
        <time>2024-08-11T10:46:50Z</time>
      </trkpt>
      <trkpt lat="45.75678" lon="3.21107">
        <ele>357.4</ele>
        <time>2024-08-11T10:46:51Z</time>
      </trkpt>
      <trkpt lat="45.75681" lon="3.21106">
        <ele>357.8</ele>
        <time>2024-08-11T10:46:52Z</time>
      </trkpt>
      <trkpt lat="45.75685" lon="3.21104">
        <ele>357.8</ele>
        <time>2024-08-11T10:46:53Z</time>
      </trkpt>
      <trkpt lat="45.75688" lon="3.21103">
        <ele>358</ele>
        <time>2024-08-11T10:46:54Z</time>
      </trkpt>
      <trkpt lat="45.75692" lon="3.21101">
        <ele>358.2</ele>
        <time>2024-08-11T10:46:55Z</time>
      </trkpt>
      <trkpt lat="45.75695" lon="3.211">
        <ele>358.4</ele>
        <time>2024-08-11T10:46:56Z</time>
      </trkpt>
      <trkpt lat="45.75698" lon="3.21099">
        <ele>358.6</ele>
        <time>2024-08-11T10:46:57Z</time>
      </trkpt>
      <trkpt lat="45.75702" lon="3.21097">
        <ele>358.6</ele>
        <time>2024-08-11T10:46:58Z</time>
      </trkpt>
      <trkpt lat="45.75705" lon="3.21096">
        <ele>358.8</ele>
        <time>2024-08-11T10:46:59Z</time>
      </trkpt>
      <trkpt lat="45.75709" lon="3.21094">
        <ele>359</ele>
        <time>2024-08-11T10:47:00Z</time>
      </trkpt>
      <trkpt lat="45.75712" lon="3.21092">
        <ele>359</ele>
        <time>2024-08-11T10:47:01Z</time>
      </trkpt>
      <trkpt lat="45.75716" lon="3.21091">
        <ele>359.2</ele>
        <time>2024-08-11T10:47:02Z</time>
      </trkpt>
      <trkpt lat="45.75719" lon="3.21089">
        <ele>359.4</ele>
        <time>2024-08-11T10:47:03Z</time>
      </trkpt>
      <trkpt lat="45.75723" lon="3.21087">
        <ele>359.6</ele>
        <time>2024-08-11T10:47:04Z</time>
      </trkpt>
      <trkpt lat="45.75727" lon="3.21085">
        <ele>359.6</ele>
        <time>2024-08-11T10:47:05Z</time>
      </trkpt>
      <trkpt lat="45.75731" lon="3.21083">
        <ele>359.8</ele>
        <time>2024-08-11T10:47:06Z</time>
      </trkpt>
      <trkpt lat="45.75731" lon="3.21083">
        <ele>360</ele>
        <time>2024-08-11T10:47:07Z</time>
      </trkpt>
      <trkpt lat="45.75731" lon="3.21083">
        <ele>360.2</ele>
        <time>2024-08-11T10:47:08Z</time>
      </trkpt>
      <trkpt lat="45.75742" lon="3.21078">
        <ele>360.4</ele>
        <time>2024-08-11T10:47:09Z</time>
      </trkpt>
      <trkpt lat="45.75746" lon="3.21076">
        <ele>360.6</ele>
        <time>2024-08-11T10:47:10Z</time>
      </trkpt>
      <trkpt lat="45.75749" lon="3.21074">
        <ele>360.6</ele>
        <time>2024-08-11T10:47:11Z</time>
      </trkpt>
      <trkpt lat="45.75753" lon="3.21072">
        <ele>360.8</ele>
        <time>2024-08-11T10:47:12Z</time>
      </trkpt>
      <trkpt lat="45.75757" lon="3.2107">
        <ele>361</ele>
        <time>2024-08-11T10:47:13Z</time>
      </trkpt>
      <trkpt lat="45.75761" lon="3.21069">
        <ele>361.2</ele>
        <time>2024-08-11T10:47:14Z</time>
      </trkpt>
      <trkpt lat="45.75764" lon="3.21067">
        <ele>361.2</ele>
        <time>2024-08-11T10:47:15Z</time>
      </trkpt>
      <trkpt lat="45.75768" lon="3.21065">
        <ele>361.4</ele>
        <time>2024-08-11T10:47:16Z</time>
      </trkpt>
      <trkpt lat="45.75771" lon="3.21063">
        <ele>361.6</ele>
        <time>2024-08-11T10:47:17Z</time>
      </trkpt>
      <trkpt lat="45.75775" lon="3.21062">
        <ele>361.8</ele>
        <time>2024-08-11T10:47:18Z</time>
      </trkpt>
      <trkpt lat="45.75778" lon="3.2106">
        <ele>361.8</ele>
        <time>2024-08-11T10:47:19Z</time>
      </trkpt>
      <trkpt lat="45.75782" lon="3.21058">
        <ele>362</ele>
        <time>2024-08-11T10:47:20Z</time>
      </trkpt>
      <trkpt lat="45.75785" lon="3.21057">
        <ele>362.2</ele>
        <time>2024-08-11T10:47:21Z</time>
      </trkpt>
      <trkpt lat="45.75789" lon="3.21055">
        <ele>362.4</ele>
        <time>2024-08-11T10:47:22Z</time>
      </trkpt>
      <trkpt lat="45.75792" lon="3.21053">
        <ele>362.6</ele>
        <time>2024-08-11T10:47:23Z</time>
      </trkpt>
      <trkpt lat="45.75796" lon="3.21051">
        <ele>362.8</ele>
        <time>2024-08-11T10:47:24Z</time>
      </trkpt>
      <trkpt lat="45.75799" lon="3.21048">
        <ele>363</ele>
        <time>2024-08-11T10:47:25Z</time>
      </trkpt>
      <trkpt lat="45.75802" lon="3.21046">
        <ele>363</ele>
        <time>2024-08-11T10:47:26Z</time>
      </trkpt>
      <trkpt lat="45.75805" lon="3.21044">
        <ele>363.2</ele>
        <time>2024-08-11T10:47:27Z</time>
      </trkpt>
      <trkpt lat="45.75808" lon="3.21042">
        <ele>363.4</ele>
        <time>2024-08-11T10:47:28Z</time>
      </trkpt>
      <trkpt lat="45.75812" lon="3.2104">
        <ele>363.4</ele>
        <time>2024-08-11T10:47:29Z</time>
      </trkpt>
      <trkpt lat="45.75815" lon="3.21038">
        <ele>363.6</ele>
        <time>2024-08-11T10:47:30Z</time>
      </trkpt>
      <trkpt lat="45.75818" lon="3.21035">
        <ele>363.8</ele>
        <time>2024-08-11T10:47:31Z</time>
      </trkpt>
      <trkpt lat="45.75821" lon="3.21033">
        <ele>364</ele>
        <time>2024-08-11T10:47:32Z</time>
      </trkpt>
      <trkpt lat="45.75824" lon="3.21031">
        <ele>364.2</ele>
        <time>2024-08-11T10:47:33Z</time>
      </trkpt>
      <trkpt lat="45.75827" lon="3.21029">
        <ele>364.2</ele>
        <time>2024-08-11T10:47:34Z</time>
      </trkpt>
      <trkpt lat="45.7583" lon="3.21027">
        <ele>364.4</ele>
        <time>2024-08-11T10:47:35Z</time>
      </trkpt>
      <trkpt lat="45.75833" lon="3.21025">
        <ele>364.6</ele>
        <time>2024-08-11T10:47:36Z</time>
      </trkpt>
      <trkpt lat="45.75837" lon="3.21022">
        <ele>364.8</ele>
        <time>2024-08-11T10:47:37Z</time>
      </trkpt>
      <trkpt lat="45.75841" lon="3.2102">
        <ele>365</ele>
        <time>2024-08-11T10:47:38Z</time>
      </trkpt>
      <trkpt lat="45.75844" lon="3.21018">
        <ele>365.2</ele>
        <time>2024-08-11T10:47:39Z</time>
      </trkpt>
      <trkpt lat="45.75847" lon="3.21015">
        <ele>365.2</ele>
        <time>2024-08-11T10:47:40Z</time>
      </trkpt>
      <trkpt lat="45.75851" lon="3.21013">
        <ele>365.6</ele>
        <time>2024-08-11T10:47:41Z</time>
      </trkpt>
      <trkpt lat="45.75854" lon="3.21011">
        <ele>365.8</ele>
        <time>2024-08-11T10:47:42Z</time>
      </trkpt>
      <trkpt lat="45.75858" lon="3.21008">
        <ele>366</ele>
        <time>2024-08-11T10:47:43Z</time>
      </trkpt>
      <trkpt lat="45.75861" lon="3.21006">
        <ele>366.2</ele>
        <time>2024-08-11T10:47:44Z</time>
      </trkpt>
      <trkpt lat="45.75864" lon="3.21004">
        <ele>366.2</ele>
        <time>2024-08-11T10:47:45Z</time>
      </trkpt>
      <trkpt lat="45.75867" lon="3.21002">
        <ele>366.4</ele>
        <time>2024-08-11T10:47:46Z</time>
      </trkpt>
      <trkpt lat="45.7587" lon="3.21">
        <ele>366.6</ele>
        <time>2024-08-11T10:47:47Z</time>
      </trkpt>
      <trkpt lat="45.75873" lon="3.20998">
        <ele>366.8</ele>
        <time>2024-08-11T10:47:48Z</time>
      </trkpt>
      <trkpt lat="45.75876" lon="3.20995">
        <ele>367</ele>
        <time>2024-08-11T10:47:49Z</time>
      </trkpt>
      <trkpt lat="45.75879" lon="3.20993">
        <ele>367.2</ele>
        <time>2024-08-11T10:47:50Z</time>
      </trkpt>
      <trkpt lat="45.75882" lon="3.20992">
        <ele>367.4</ele>
        <time>2024-08-11T10:47:51Z</time>
      </trkpt>
      <trkpt lat="45.75885" lon="3.2099">
        <ele>367.6</ele>
        <time>2024-08-11T10:47:52Z</time>
      </trkpt>
      <trkpt lat="45.75888" lon="3.20987">
        <ele>367.8</ele>
        <time>2024-08-11T10:47:53Z</time>
      </trkpt>
      <trkpt lat="45.7589" lon="3.20985">
        <ele>368</ele>
        <time>2024-08-11T10:47:54Z</time>
      </trkpt>
      <trkpt lat="45.75893" lon="3.20983">
        <ele>368</ele>
        <time>2024-08-11T10:47:55Z</time>
      </trkpt>
      <trkpt lat="45.75895" lon="3.20981">
        <ele>368.2</ele>
        <time>2024-08-11T10:47:56Z</time>
      </trkpt>
      <trkpt lat="45.75898" lon="3.20979">
        <ele>368.4</ele>
        <time>2024-08-11T10:47:57Z</time>
      </trkpt>
      <trkpt lat="45.75901" lon="3.20977">
        <ele>368.4</ele>
        <time>2024-08-11T10:47:58Z</time>
      </trkpt>
      <trkpt lat="45.75903" lon="3.20975">
        <ele>368.6</ele>
        <time>2024-08-11T10:47:59Z</time>
      </trkpt>
      <trkpt lat="45.75906" lon="3.20973">
        <ele>368.8</ele>
        <time>2024-08-11T10:48:00Z</time>
      </trkpt>
      <trkpt lat="45.75908" lon="3.20971">
        <ele>369</ele>
        <time>2024-08-11T10:48:01Z</time>
      </trkpt>
      <trkpt lat="45.75911" lon="3.20969">
        <ele>369.2</ele>
        <time>2024-08-11T10:48:02Z</time>
      </trkpt>
      <trkpt lat="45.75913" lon="3.20967">
        <ele>369.2</ele>
        <time>2024-08-11T10:48:03Z</time>
      </trkpt>
      <trkpt lat="45.75916" lon="3.20965">
        <ele>369.4</ele>
        <time>2024-08-11T10:48:04Z</time>
      </trkpt>
      <trkpt lat="45.75918" lon="3.20963">
        <ele>369.6</ele>
        <time>2024-08-11T10:48:05Z</time>
      </trkpt>
      <trkpt lat="45.7592" lon="3.20961">
        <ele>369.8</ele>
        <time>2024-08-11T10:48:06Z</time>
      </trkpt>
      <trkpt lat="45.75923" lon="3.20959">
        <ele>369.8</ele>
        <time>2024-08-11T10:48:07Z</time>
      </trkpt>
      <trkpt lat="45.75925" lon="3.20957">
        <ele>370</ele>
        <time>2024-08-11T10:48:08Z</time>
      </trkpt>
      <trkpt lat="45.75927" lon="3.20955">
        <ele>370.2</ele>
        <time>2024-08-11T10:48:09Z</time>
      </trkpt>
      <trkpt lat="45.7593" lon="3.20953">
        <ele>370.4</ele>
        <time>2024-08-11T10:48:10Z</time>
      </trkpt>
      <trkpt lat="45.75932" lon="3.20951">
        <ele>370.6</ele>
        <time>2024-08-11T10:48:11Z</time>
      </trkpt>
      <trkpt lat="45.75935" lon="3.20949">
        <ele>370.6</ele>
        <time>2024-08-11T10:48:12Z</time>
      </trkpt>
      <trkpt lat="45.75938" lon="3.20947">
        <ele>370.8</ele>
        <time>2024-08-11T10:48:13Z</time>
      </trkpt>
      <trkpt lat="45.7594" lon="3.20945">
        <ele>371</ele>
        <time>2024-08-11T10:48:14Z</time>
      </trkpt>
      <trkpt lat="45.75942" lon="3.20943">
        <ele>371.2</ele>
        <time>2024-08-11T10:48:15Z</time>
      </trkpt>
      <trkpt lat="45.75945" lon="3.20941">
        <ele>371.4</ele>
        <time>2024-08-11T10:48:16Z</time>
      </trkpt>
      <trkpt lat="45.75947" lon="3.20939">
        <ele>371.6</ele>
        <time>2024-08-11T10:48:17Z</time>
      </trkpt>
      <trkpt lat="45.75949" lon="3.20937">
        <ele>371.8</ele>
        <time>2024-08-11T10:48:18Z</time>
      </trkpt>
      <trkpt lat="45.75952" lon="3.20935">
        <ele>372</ele>
        <time>2024-08-11T10:48:19Z</time>
      </trkpt>
      <trkpt lat="45.75954" lon="3.20933">
        <ele>372.2</ele>
        <time>2024-08-11T10:48:20Z</time>
      </trkpt>
      <trkpt lat="45.75956" lon="3.20931">
        <ele>372.4</ele>
        <time>2024-08-11T10:48:21Z</time>
      </trkpt>
      <trkpt lat="45.75959" lon="3.20929">
        <ele>372.6</ele>
        <time>2024-08-11T10:48:22Z</time>
      </trkpt>
      <trkpt lat="45.75961" lon="3.20927">
        <ele>372.8</ele>
        <time>2024-08-11T10:48:23Z</time>
      </trkpt>
      <trkpt lat="45.75963" lon="3.20925">
        <ele>373</ele>
        <time>2024-08-11T10:48:24Z</time>
      </trkpt>
      <trkpt lat="45.75965" lon="3.20923">
        <ele>373.2</ele>
        <time>2024-08-11T10:48:25Z</time>
      </trkpt>
      <trkpt lat="45.75967" lon="3.20921">
        <ele>373.4</ele>
        <time>2024-08-11T10:48:26Z</time>
      </trkpt>
      <trkpt lat="45.75969" lon="3.20919">
        <ele>373.6</ele>
        <time>2024-08-11T10:48:27Z</time>
      </trkpt>
      <trkpt lat="45.75971" lon="3.20917">
        <ele>373.8</ele>
        <time>2024-08-11T10:48:28Z</time>
      </trkpt>
      <trkpt lat="45.75973" lon="3.20915">
        <ele>374</ele>
        <time>2024-08-11T10:48:29Z</time>
      </trkpt>
      <trkpt lat="45.75975" lon="3.20913">
        <ele>374.2</ele>
        <time>2024-08-11T10:48:30Z</time>
      </trkpt>
      <trkpt lat="45.75978" lon="3.20911">
        <ele>374.2</ele>
        <time>2024-08-11T10:48:31Z</time>
      </trkpt>
      <trkpt lat="45.7598" lon="3.20909">
        <ele>374.4</ele>
        <time>2024-08-11T10:48:32Z</time>
      </trkpt>
      <trkpt lat="45.75982" lon="3.20907">
        <ele>374.6</ele>
        <time>2024-08-11T10:48:33Z</time>
      </trkpt>
      <trkpt lat="45.75984" lon="3.20905">
        <ele>374.8</ele>
        <time>2024-08-11T10:48:34Z</time>
      </trkpt>
      <trkpt lat="45.75986" lon="3.20903">
        <ele>375</ele>
        <time>2024-08-11T10:48:35Z</time>
      </trkpt>
      <trkpt lat="45.75988" lon="3.20901">
        <ele>375.2</ele>
        <time>2024-08-11T10:48:36Z</time>
      </trkpt>
      <trkpt lat="45.7599" lon="3.20899">
        <ele>375.4</ele>
        <time>2024-08-11T10:48:37Z</time>
      </trkpt>
      <trkpt lat="45.75992" lon="3.20897">
        <ele>375.6</ele>
        <time>2024-08-11T10:48:38Z</time>
      </trkpt>
      <trkpt lat="45.75994" lon="3.20895">
        <ele>375.6</ele>
        <time>2024-08-11T10:48:39Z</time>
      </trkpt>
      <trkpt lat="45.75997" lon="3.20893">
        <ele>375.8</ele>
        <time>2024-08-11T10:48:40Z</time>
      </trkpt>
      <trkpt lat="45.75999" lon="3.20891">
        <ele>376</ele>
        <time>2024-08-11T10:48:41Z</time>
      </trkpt>
      <trkpt lat="45.76001" lon="3.20888">
        <ele>376.2</ele>
        <time>2024-08-11T10:48:42Z</time>
      </trkpt>
      <trkpt lat="45.76003" lon="3.20886">
        <ele>376.4</ele>
        <time>2024-08-11T10:48:43Z</time>
      </trkpt>
      <trkpt lat="45.76005" lon="3.20884">
        <ele>376.6</ele>
        <time>2024-08-11T10:48:44Z</time>
      </trkpt>
      <trkpt lat="45.76008" lon="3.20882">
        <ele>376.8</ele>
        <time>2024-08-11T10:48:45Z</time>
      </trkpt>
      <trkpt lat="45.7601" lon="3.2088">
        <ele>377</ele>
        <time>2024-08-11T10:48:46Z</time>
      </trkpt>
      <trkpt lat="45.76012" lon="3.20878">
        <ele>377.2</ele>
        <time>2024-08-11T10:48:47Z</time>
      </trkpt>
      <trkpt lat="45.76014" lon="3.20876">
        <ele>377.4</ele>
        <time>2024-08-11T10:48:48Z</time>
      </trkpt>
      <trkpt lat="45.76016" lon="3.20874">
        <ele>377.6</ele>
        <time>2024-08-11T10:48:49Z</time>
      </trkpt>
      <trkpt lat="45.76018" lon="3.20872">
        <ele>377.8</ele>
        <time>2024-08-11T10:48:50Z</time>
      </trkpt>
      <trkpt lat="45.7602" lon="3.2087">
        <ele>378</ele>
        <time>2024-08-11T10:48:51Z</time>
      </trkpt>
      <trkpt lat="45.76022" lon="3.20868">
        <ele>378.2</ele>
        <time>2024-08-11T10:48:52Z</time>
      </trkpt>
      <trkpt lat="45.76025" lon="3.20866">
        <ele>378.4</ele>
        <time>2024-08-11T10:48:53Z</time>
      </trkpt>
      <trkpt lat="45.76027" lon="3.20864">
        <ele>378.6</ele>
        <time>2024-08-11T10:48:54Z</time>
      </trkpt>
      <trkpt lat="45.76029" lon="3.20862">
        <ele>378.6</ele>
        <time>2024-08-11T10:48:55Z</time>
      </trkpt>
      <trkpt lat="45.76031" lon="3.20859">
        <ele>378.8</ele>
        <time>2024-08-11T10:48:56Z</time>
      </trkpt>
      <trkpt lat="45.76034" lon="3.20857">
        <ele>379</ele>
        <time>2024-08-11T10:48:57Z</time>
      </trkpt>
      <trkpt lat="45.76036" lon="3.20855">
        <ele>379.2</ele>
        <time>2024-08-11T10:48:58Z</time>
      </trkpt>
      <trkpt lat="45.76038" lon="3.20853">
        <ele>379.4</ele>
        <time>2024-08-11T10:48:59Z</time>
      </trkpt>
      <trkpt lat="45.7604" lon="3.20851">
        <ele>379.6</ele>
        <time>2024-08-11T10:49:00Z</time>
      </trkpt>
      <trkpt lat="45.76042" lon="3.20849">
        <ele>379.8</ele>
        <time>2024-08-11T10:49:01Z</time>
      </trkpt>
      <trkpt lat="45.76045" lon="3.20847">
        <ele>380</ele>
        <time>2024-08-11T10:49:02Z</time>
      </trkpt>
      <trkpt lat="45.76047" lon="3.20844">
        <ele>380.2</ele>
        <time>2024-08-11T10:49:03Z</time>
      </trkpt>
      <trkpt lat="45.76049" lon="3.20842">
        <ele>380.4</ele>
        <time>2024-08-11T10:49:04Z</time>
      </trkpt>
      <trkpt lat="45.76051" lon="3.2084">
        <ele>380.6</ele>
        <time>2024-08-11T10:49:05Z</time>
      </trkpt>
      <trkpt lat="45.76053" lon="3.20838">
        <ele>380.8</ele>
        <time>2024-08-11T10:49:06Z</time>
      </trkpt>
      <trkpt lat="45.76055" lon="3.20837">
        <ele>381</ele>
        <time>2024-08-11T10:49:07Z</time>
      </trkpt>
      <trkpt lat="45.76057" lon="3.20835">
        <ele>381.2</ele>
        <time>2024-08-11T10:49:08Z</time>
      </trkpt>
      <trkpt lat="45.7606" lon="3.20832">
        <ele>381.4</ele>
        <time>2024-08-11T10:49:09Z</time>
      </trkpt>
      <trkpt lat="45.76062" lon="3.2083">
        <ele>381.6</ele>
        <time>2024-08-11T10:49:10Z</time>
      </trkpt>
      <trkpt lat="45.76064" lon="3.20828">
        <ele>381.8</ele>
        <time>2024-08-11T10:49:11Z</time>
      </trkpt>
      <trkpt lat="45.76066" lon="3.20826">
        <ele>381.8</ele>
        <time>2024-08-11T10:49:12Z</time>
      </trkpt>
      <trkpt lat="45.76069" lon="3.20824">
        <ele>382</ele>
        <time>2024-08-11T10:49:13Z</time>
      </trkpt>
      <trkpt lat="45.76071" lon="3.20821">
        <ele>382.2</ele>
        <time>2024-08-11T10:49:14Z</time>
      </trkpt>
      <trkpt lat="45.76074" lon="3.20819">
        <ele>382.4</ele>
        <time>2024-08-11T10:49:15Z</time>
      </trkpt>
      <trkpt lat="45.76076" lon="3.20816">
        <ele>382.6</ele>
        <time>2024-08-11T10:49:16Z</time>
      </trkpt>
      <trkpt lat="45.76079" lon="3.20814">
        <ele>382.8</ele>
        <time>2024-08-11T10:49:17Z</time>
      </trkpt>
      <trkpt lat="45.76081" lon="3.20812">
        <ele>383</ele>
        <time>2024-08-11T10:49:18Z</time>
      </trkpt>
      <trkpt lat="45.76084" lon="3.20809">
        <ele>383.2</ele>
        <time>2024-08-11T10:49:19Z</time>
      </trkpt>
      <trkpt lat="45.76086" lon="3.20807">
        <ele>383.4</ele>
        <time>2024-08-11T10:49:20Z</time>
      </trkpt>
      <trkpt lat="45.76089" lon="3.20804">
        <ele>383.6</ele>
        <time>2024-08-11T10:49:21Z</time>
      </trkpt>
      <trkpt lat="45.76092" lon="3.20802">
        <ele>383.8</ele>
        <time>2024-08-11T10:49:22Z</time>
      </trkpt>
      <trkpt lat="45.76094" lon="3.20799">
        <ele>384</ele>
        <time>2024-08-11T10:49:23Z</time>
      </trkpt>
      <trkpt lat="45.76097" lon="3.20797">
        <ele>384.2</ele>
        <time>2024-08-11T10:49:24Z</time>
      </trkpt>
      <trkpt lat="45.761" lon="3.20794">
        <ele>384.4</ele>
        <time>2024-08-11T10:49:25Z</time>
      </trkpt>
      <trkpt lat="45.76102" lon="3.20792">
        <ele>384.4</ele>
        <time>2024-08-11T10:49:26Z</time>
      </trkpt>
      <trkpt lat="45.76105" lon="3.20789">
        <ele>384.6</ele>
        <time>2024-08-11T10:49:27Z</time>
      </trkpt>
      <trkpt lat="45.76108" lon="3.20786">
        <ele>384.8</ele>
        <time>2024-08-11T10:49:28Z</time>
      </trkpt>
      <trkpt lat="45.76111" lon="3.20784">
        <ele>385</ele>
        <time>2024-08-11T10:49:29Z</time>
      </trkpt>
      <trkpt lat="45.76113" lon="3.20781">
        <ele>385.2</ele>
        <time>2024-08-11T10:49:30Z</time>
      </trkpt>
      <trkpt lat="45.76116" lon="3.20778">
        <ele>385.4</ele>
        <time>2024-08-11T10:49:31Z</time>
      </trkpt>
      <trkpt lat="45.7612" lon="3.20775">
        <ele>385.6</ele>
        <time>2024-08-11T10:49:32Z</time>
      </trkpt>
      <trkpt lat="45.76123" lon="3.20772">
        <ele>385.8</ele>
        <time>2024-08-11T10:49:33Z</time>
      </trkpt>
      <trkpt lat="45.76126" lon="3.20769">
        <ele>385.8</ele>
        <time>2024-08-11T10:49:34Z</time>
      </trkpt>
      <trkpt lat="45.7613" lon="3.20765">
        <ele>386</ele>
        <time>2024-08-11T10:49:35Z</time>
      </trkpt>
      <trkpt lat="45.76133" lon="3.20762">
        <ele>386.2</ele>
        <time>2024-08-11T10:49:36Z</time>
      </trkpt>
      <trkpt lat="45.76137" lon="3.20758">
        <ele>386.4</ele>
        <time>2024-08-11T10:49:37Z</time>
      </trkpt>
      <trkpt lat="45.7614" lon="3.20755">
        <ele>386.6</ele>
        <time>2024-08-11T10:49:38Z</time>
      </trkpt>
      <trkpt lat="45.76144" lon="3.20752">
        <ele>386.6</ele>
        <time>2024-08-11T10:49:39Z</time>
      </trkpt>
      <trkpt lat="45.76147" lon="3.20748">
        <ele>386.8</ele>
        <time>2024-08-11T10:49:40Z</time>
      </trkpt>
      <trkpt lat="45.76151" lon="3.20745">
        <ele>387</ele>
        <time>2024-08-11T10:49:41Z</time>
      </trkpt>
      <trkpt lat="45.76155" lon="3.20741">
        <ele>387.2</ele>
        <time>2024-08-11T10:49:42Z</time>
      </trkpt>
      <trkpt lat="45.76159" lon="3.20737">
        <ele>387.2</ele>
        <time>2024-08-11T10:49:43Z</time>
      </trkpt>
      <trkpt lat="45.76163" lon="3.20733">
        <ele>387.4</ele>
        <time>2024-08-11T10:49:44Z</time>
      </trkpt>
      <trkpt lat="45.76168" lon="3.20729">
        <ele>387.6</ele>
        <time>2024-08-11T10:49:45Z</time>
      </trkpt>
      <trkpt lat="45.76172" lon="3.20725">
        <ele>387.6</ele>
        <time>2024-08-11T10:49:46Z</time>
      </trkpt>
      <trkpt lat="45.76176" lon="3.20721">
        <ele>387.8</ele>
        <time>2024-08-11T10:49:47Z</time>
      </trkpt>
      <trkpt lat="45.76181" lon="3.20716">
        <ele>387.8</ele>
        <time>2024-08-11T10:49:48Z</time>
      </trkpt>
      <trkpt lat="45.76186" lon="3.20712">
        <ele>388</ele>
        <time>2024-08-11T10:49:49Z</time>
      </trkpt>
      <trkpt lat="45.7619" lon="3.20707">
        <ele>388.2</ele>
        <time>2024-08-11T10:49:50Z</time>
      </trkpt>
      <trkpt lat="45.76195" lon="3.20703">
        <ele>388.2</ele>
        <time>2024-08-11T10:49:51Z</time>
      </trkpt>
      <trkpt lat="45.762" lon="3.20698">
        <ele>388.2</ele>
        <time>2024-08-11T10:49:52Z</time>
      </trkpt>
      <trkpt lat="45.76205" lon="3.20693">
        <ele>388.4</ele>
        <time>2024-08-11T10:49:53Z</time>
      </trkpt>
      <trkpt lat="45.76211" lon="3.20689">
        <ele>388.6</ele>
        <time>2024-08-11T10:49:54Z</time>
      </trkpt>
      <trkpt lat="45.76217" lon="3.20686">
        <ele>388.6</ele>
        <time>2024-08-11T10:49:55Z</time>
      </trkpt>
      <trkpt lat="45.76223" lon="3.20683">
        <ele>388.8</ele>
        <time>2024-08-11T10:49:56Z</time>
      </trkpt>
      <trkpt lat="45.76229" lon="3.20679">
        <ele>388.8</ele>
        <time>2024-08-11T10:49:57Z</time>
      </trkpt>
      <trkpt lat="45.76235" lon="3.20676">
        <ele>389</ele>
        <time>2024-08-11T10:49:58Z</time>
      </trkpt>
      <trkpt lat="45.76241" lon="3.20672">
        <ele>389</ele>
        <time>2024-08-11T10:49:59Z</time>
      </trkpt>
      <trkpt lat="45.76248" lon="3.20669">
        <ele>389</ele>
        <time>2024-08-11T10:50:00Z</time>
      </trkpt>
      <trkpt lat="45.76254" lon="3.20667">
        <ele>389</ele>
        <time>2024-08-11T10:50:01Z</time>
      </trkpt>
      <trkpt lat="45.76262" lon="3.20665">
        <ele>389.2</ele>
        <time>2024-08-11T10:50:02Z</time>
      </trkpt>
      <trkpt lat="45.76269" lon="3.20663">
        <ele>389.2</ele>
        <time>2024-08-11T10:50:03Z</time>
      </trkpt>
      <trkpt lat="45.76277" lon="3.20661">
        <ele>389.2</ele>
        <time>2024-08-11T10:50:04Z</time>
      </trkpt>
      <trkpt lat="45.76285" lon="3.20659">
        <ele>389.2</ele>
        <time>2024-08-11T10:50:05Z</time>
      </trkpt>
      <trkpt lat="45.76294" lon="3.20656">
        <ele>389</ele>
        <time>2024-08-11T10:50:06Z</time>
      </trkpt>
      <trkpt lat="45.76302" lon="3.20655">
        <ele>389</ele>
        <time>2024-08-11T10:50:07Z</time>
      </trkpt>
      <trkpt lat="45.76311" lon="3.20655">
        <ele>389</ele>
        <time>2024-08-11T10:50:08Z</time>
      </trkpt>
      <trkpt lat="45.76321" lon="3.20656">
        <ele>388.8</ele>
        <time>2024-08-11T10:50:09Z</time>
      </trkpt>
      <trkpt lat="45.76331" lon="3.20645">
        <ele>388.8</ele>
        <time>2024-08-11T10:50:10Z</time>
      </trkpt>
      <trkpt lat="45.76341" lon="3.20645">
        <ele>388.6</ele>
        <time>2024-08-11T10:50:11Z</time>
      </trkpt>
      <trkpt lat="45.76351" lon="3.20645">
        <ele>388.6</ele>
        <time>2024-08-11T10:50:12Z</time>
      </trkpt>
      <trkpt lat="45.76362" lon="3.20646">
        <ele>389.4</ele>
        <time>2024-08-11T10:50:13Z</time>
      </trkpt>
      <trkpt lat="45.76372" lon="3.20646">
        <ele>388.6</ele>
        <time>2024-08-11T10:50:14Z</time>
      </trkpt>
      <trkpt lat="45.76383" lon="3.20646">
        <ele>387.8</ele>
        <time>2024-08-11T10:50:15Z</time>
      </trkpt>
      <trkpt lat="45.76393" lon="3.20661">
        <ele>388</ele>
        <time>2024-08-11T10:50:16Z</time>
      </trkpt>
      <trkpt lat="45.76404" lon="3.20663">
        <ele>388</ele>
        <time>2024-08-11T10:50:17Z</time>
      </trkpt>
      <trkpt lat="45.76415" lon="3.20666">
        <ele>387.8</ele>
        <time>2024-08-11T10:50:18Z</time>
      </trkpt>
      <trkpt lat="45.76427" lon="3.20669">
        <ele>387.6</ele>
        <time>2024-08-11T10:50:19Z</time>
      </trkpt>
      <trkpt lat="45.76439" lon="3.20672">
        <ele>387.4</ele>
        <time>2024-08-11T10:50:20Z</time>
      </trkpt>
      <trkpt lat="45.76451" lon="3.20675">
        <ele>387</ele>
        <time>2024-08-11T10:50:21Z</time>
      </trkpt>
      <trkpt lat="45.76463" lon="3.20677">
        <ele>386.8</ele>
        <time>2024-08-11T10:50:22Z</time>
      </trkpt>
      <trkpt lat="45.76475" lon="3.2068">
        <ele>386.6</ele>
        <time>2024-08-11T10:50:23Z</time>
      </trkpt>
      <trkpt lat="45.76488" lon="3.20684">
        <ele>386.4</ele>
        <time>2024-08-11T10:50:24Z</time>
      </trkpt>
      <trkpt lat="45.76501" lon="3.20687">
        <ele>386.2</ele>
        <time>2024-08-11T10:50:25Z</time>
      </trkpt>
      <trkpt lat="45.76514" lon="3.2069">
        <ele>385.8</ele>
        <time>2024-08-11T10:50:26Z</time>
      </trkpt>
      <trkpt lat="45.76527" lon="3.20693">
        <ele>385.6</ele>
        <time>2024-08-11T10:50:27Z</time>
      </trkpt>
      <trkpt lat="45.7654" lon="3.20696">
        <ele>385.2</ele>
        <time>2024-08-11T10:50:28Z</time>
      </trkpt>
      <trkpt lat="45.76553" lon="3.20699">
        <ele>385</ele>
        <time>2024-08-11T10:50:29Z</time>
      </trkpt>
      <trkpt lat="45.76567" lon="3.20703">
        <ele>384.6</ele>
        <time>2024-08-11T10:50:30Z</time>
      </trkpt>
      <trkpt lat="45.7658" lon="3.20706">
        <ele>384.4</ele>
        <time>2024-08-11T10:50:31Z</time>
      </trkpt>
      <trkpt lat="45.76594" lon="3.20709">
        <ele>384</ele>
        <time>2024-08-11T10:50:32Z</time>
      </trkpt>
      <trkpt lat="45.76607" lon="3.20712">
        <ele>383.6</ele>
        <time>2024-08-11T10:50:33Z</time>
      </trkpt>
      <trkpt lat="45.76621" lon="3.20716">
        <ele>383.2</ele>
        <time>2024-08-11T10:50:34Z</time>
      </trkpt>
      <trkpt lat="45.76635" lon="3.20719">
        <ele>383</ele>
        <time>2024-08-11T10:50:35Z</time>
      </trkpt>
      <trkpt lat="45.76649" lon="3.20722">
        <ele>382.6</ele>
        <time>2024-08-11T10:50:36Z</time>
      </trkpt>
      <trkpt lat="45.76663" lon="3.20726">
        <ele>382.2</ele>
        <time>2024-08-11T10:50:37Z</time>
      </trkpt>
      <trkpt lat="45.76677" lon="3.20729">
        <ele>381.8</ele>
        <time>2024-08-11T10:50:38Z</time>
      </trkpt>
      <trkpt lat="45.7669" lon="3.20733">
        <ele>381.2</ele>
        <time>2024-08-11T10:50:39Z</time>
      </trkpt>
      <trkpt lat="45.76704" lon="3.20736">
        <ele>380.8</ele>
        <time>2024-08-11T10:50:40Z</time>
      </trkpt>
      <trkpt lat="45.76718" lon="3.20739">
        <ele>380.4</ele>
        <time>2024-08-11T10:50:41Z</time>
      </trkpt>
      <trkpt lat="45.76732" lon="3.20743">
        <ele>380</ele>
        <time>2024-08-11T10:50:42Z</time>
      </trkpt>
      <trkpt lat="45.76745" lon="3.20746">
        <ele>379.6</ele>
        <time>2024-08-11T10:50:43Z</time>
      </trkpt>
      <trkpt lat="45.76759" lon="3.20749">
        <ele>379.2</ele>
        <time>2024-08-11T10:50:44Z</time>
      </trkpt>
      <trkpt lat="45.76773" lon="3.20753">
        <ele>378.8</ele>
        <time>2024-08-11T10:50:45Z</time>
      </trkpt>
      <trkpt lat="45.76787" lon="3.20756">
        <ele>378.4</ele>
        <time>2024-08-11T10:50:46Z</time>
      </trkpt>
      <trkpt lat="45.76801" lon="3.20759">
        <ele>378</ele>
        <time>2024-08-11T10:50:47Z</time>
      </trkpt>
      <trkpt lat="45.76814" lon="3.20763">
        <ele>377.6</ele>
        <time>2024-08-11T10:50:48Z</time>
      </trkpt>
      <trkpt lat="45.76827" lon="3.20766">
        <ele>377.2</ele>
        <time>2024-08-11T10:50:49Z</time>
      </trkpt>
      <trkpt lat="45.76841" lon="3.20769">
        <ele>376.8</ele>
        <time>2024-08-11T10:50:50Z</time>
      </trkpt>
      <trkpt lat="45.76854" lon="3.20772">
        <ele>376.4</ele>
        <time>2024-08-11T10:50:51Z</time>
      </trkpt>
      <trkpt lat="45.76867" lon="3.20775">
        <ele>376.2</ele>
        <time>2024-08-11T10:50:52Z</time>
      </trkpt>
      <trkpt lat="45.7688" lon="3.20778">
        <ele>375.8</ele>
        <time>2024-08-11T10:50:53Z</time>
      </trkpt>
      <trkpt lat="45.76893" lon="3.20781">
        <ele>375.4</ele>
        <time>2024-08-11T10:50:54Z</time>
      </trkpt>
      <trkpt lat="45.76905" lon="3.20785">
        <ele>374.8</ele>
        <time>2024-08-11T10:50:55Z</time>
      </trkpt>
      <trkpt lat="45.76918" lon="3.20788">
        <ele>374.6</ele>
        <time>2024-08-11T10:50:56Z</time>
      </trkpt>
      <trkpt lat="45.7693" lon="3.20791">
        <ele>374.2</ele>
        <time>2024-08-11T10:50:57Z</time>
      </trkpt>
      <trkpt lat="45.76942" lon="3.20793">
        <ele>373.8</ele>
        <time>2024-08-11T10:50:58Z</time>
      </trkpt>
      <trkpt lat="45.76954" lon="3.20796">
        <ele>373.4</ele>
        <time>2024-08-11T10:50:59Z</time>
      </trkpt>
      <trkpt lat="45.76966" lon="3.20799">
        <ele>373</ele>
        <time>2024-08-11T10:51:00Z</time>
      </trkpt>
      <trkpt lat="45.76978" lon="3.20802">
        <ele>372.6</ele>
        <time>2024-08-11T10:51:01Z</time>
      </trkpt>
      <trkpt lat="45.7699" lon="3.20805">
        <ele>372.4</ele>
        <time>2024-08-11T10:51:02Z</time>
      </trkpt>
      <trkpt lat="45.77001" lon="3.20808">
        <ele>372</ele>
        <time>2024-08-11T10:51:03Z</time>
      </trkpt>
      <trkpt lat="45.77013" lon="3.20811">
        <ele>371.6</ele>
        <time>2024-08-11T10:51:04Z</time>
      </trkpt>
      <trkpt lat="45.77024" lon="3.20813">
        <ele>371.4</ele>
        <time>2024-08-11T10:51:05Z</time>
      </trkpt>
      <trkpt lat="45.77035" lon="3.20816">
        <ele>370.8</ele>
        <time>2024-08-11T10:51:06Z</time>
      </trkpt>
      <trkpt lat="45.77046" lon="3.20819">
        <ele>370.6</ele>
        <time>2024-08-11T10:51:07Z</time>
      </trkpt>
      <trkpt lat="45.77058" lon="3.20821">
        <ele>370.2</ele>
        <time>2024-08-11T10:51:08Z</time>
      </trkpt>
      <trkpt lat="45.77069" lon="3.20824">
        <ele>369.8</ele>
        <time>2024-08-11T10:51:09Z</time>
      </trkpt>
      <trkpt lat="45.7708" lon="3.20827">
        <ele>369.4</ele>
        <time>2024-08-11T10:51:10Z</time>
      </trkpt>
      <trkpt lat="45.77091" lon="3.2083">
        <ele>369</ele>
        <time>2024-08-11T10:51:11Z</time>
      </trkpt>
      <trkpt lat="45.77102" lon="3.20832">
        <ele>368.8</ele>
        <time>2024-08-11T10:51:12Z</time>
      </trkpt>
      <trkpt lat="45.77112" lon="3.20835">
        <ele>368.4</ele>
        <time>2024-08-11T10:51:13Z</time>
      </trkpt>
      <trkpt lat="45.77123" lon="3.20837">
        <ele>368</ele>
        <time>2024-08-11T10:51:14Z</time>
      </trkpt>
      <trkpt lat="45.77134" lon="3.2084">
        <ele>367.6</ele>
        <time>2024-08-11T10:51:15Z</time>
      </trkpt>
      <trkpt lat="45.77145" lon="3.20843">
        <ele>367.2</ele>
        <time>2024-08-11T10:51:16Z</time>
      </trkpt>
      <trkpt lat="45.77156" lon="3.20845">
        <ele>366.8</ele>
        <time>2024-08-11T10:51:17Z</time>
      </trkpt>
      <trkpt lat="45.77167" lon="3.20848">
        <ele>366.4</ele>
        <time>2024-08-11T10:51:18Z</time>
      </trkpt>
      <trkpt lat="45.77177" lon="3.2085">
        <ele>366.2</ele>
        <time>2024-08-11T10:51:19Z</time>
      </trkpt>
      <trkpt lat="45.77187" lon="3.20853">
        <ele>365.8</ele>
        <time>2024-08-11T10:51:20Z</time>
      </trkpt>
      <trkpt lat="45.77194" lon="3.20854">
        <ele>365.4</ele>
        <time>2024-08-11T10:51:21Z</time>
      </trkpt>
      <trkpt lat="45.77194" lon="3.20854">
        <ele>365</ele>
        <time>2024-08-11T10:51:22Z</time>
      </trkpt>
      <trkpt lat="45.77207" lon="3.20891">
        <ele>364.6</ele>
        <time>2024-08-11T10:51:23Z</time>
      </trkpt>
      <trkpt lat="45.77205" lon="3.20893">
        <ele>364.4</ele>
        <time>2024-08-11T10:51:24Z</time>
      </trkpt>
      <trkpt lat="45.77206" lon="3.20903">
        <ele>364.2</ele>
        <time>2024-08-11T10:51:25Z</time>
      </trkpt>
      <trkpt lat="45.77207" lon="3.20913">
        <ele>364</ele>
        <time>2024-08-11T10:51:26Z</time>
      </trkpt>
      <trkpt lat="45.77209" lon="3.20923">
        <ele>363.8</ele>
        <time>2024-08-11T10:51:27Z</time>
      </trkpt>
      <trkpt lat="45.7721" lon="3.20932">
        <ele>363.6</ele>
        <time>2024-08-11T10:51:28Z</time>
      </trkpt>
      <trkpt lat="45.77211" lon="3.20942">
        <ele>363.4</ele>
        <time>2024-08-11T10:51:29Z</time>
      </trkpt>
      <trkpt lat="45.77212" lon="3.20951">
        <ele>363.2</ele>
        <time>2024-08-11T10:51:30Z</time>
      </trkpt>
      <trkpt lat="45.77213" lon="3.2096">
        <ele>363</ele>
        <time>2024-08-11T10:51:31Z</time>
      </trkpt>
      <trkpt lat="45.77214" lon="3.20968">
        <ele>362.8</ele>
        <time>2024-08-11T10:51:32Z</time>
      </trkpt>
      <trkpt lat="45.77215" lon="3.20977">
        <ele>362.6</ele>
        <time>2024-08-11T10:51:33Z</time>
      </trkpt>
      <trkpt lat="45.77216" lon="3.20985">
        <ele>362.4</ele>
        <time>2024-08-11T10:51:34Z</time>
      </trkpt>
      <trkpt lat="45.77217" lon="3.20993">
        <ele>362.2</ele>
        <time>2024-08-11T10:51:35Z</time>
      </trkpt>
      <trkpt lat="45.77218" lon="3.21001">
        <ele>362</ele>
        <time>2024-08-11T10:51:36Z</time>
      </trkpt>
      <trkpt lat="45.77219" lon="3.21009">
        <ele>361.8</ele>
        <time>2024-08-11T10:51:37Z</time>
      </trkpt>
      <trkpt lat="45.7722" lon="3.21016">
        <ele>361.8</ele>
        <time>2024-08-11T10:51:38Z</time>
      </trkpt>
      <trkpt lat="45.77222" lon="3.21024">
        <ele>361.6</ele>
        <time>2024-08-11T10:51:39Z</time>
      </trkpt>
      <trkpt lat="45.77224" lon="3.21031">
        <ele>361.4</ele>
        <time>2024-08-11T10:51:40Z</time>
      </trkpt>
      <trkpt lat="45.77225" lon="3.21038">
        <ele>361.2</ele>
        <time>2024-08-11T10:51:41Z</time>
      </trkpt>
      <trkpt lat="45.77227" lon="3.21045">
        <ele>361</ele>
        <time>2024-08-11T10:51:42Z</time>
      </trkpt>
      <trkpt lat="45.77229" lon="3.21051">
        <ele>360.8</ele>
        <time>2024-08-11T10:51:43Z</time>
      </trkpt>
      <trkpt lat="45.7723" lon="3.21058">
        <ele>360.6</ele>
        <time>2024-08-11T10:51:44Z</time>
      </trkpt>
      <trkpt lat="45.77232" lon="3.21064">
        <ele>360.6</ele>
        <time>2024-08-11T10:51:45Z</time>
      </trkpt>
      <trkpt lat="45.77233" lon="3.21071">
        <ele>360.4</ele>
        <time>2024-08-11T10:51:46Z</time>
      </trkpt>
      <trkpt lat="45.77235" lon="3.21077">
        <ele>360.2</ele>
        <time>2024-08-11T10:51:47Z</time>
      </trkpt>
      <trkpt lat="45.77237" lon="3.21082">
        <ele>360.2</ele>
        <time>2024-08-11T10:51:48Z</time>
      </trkpt>
      <trkpt lat="45.7724" lon="3.21087">
        <ele>360</ele>
        <time>2024-08-11T10:51:49Z</time>
      </trkpt>
      <trkpt lat="45.77242" lon="3.21093">
        <ele>360</ele>
        <time>2024-08-11T10:51:50Z</time>
      </trkpt>
      <trkpt lat="45.77245" lon="3.21098">
        <ele>359.8</ele>
        <time>2024-08-11T10:51:51Z</time>
      </trkpt>
      <trkpt lat="45.77248" lon="3.21103">
        <ele>359.6</ele>
        <time>2024-08-11T10:51:52Z</time>
      </trkpt>
      <trkpt lat="45.7725" lon="3.21109">
        <ele>359.6</ele>
        <time>2024-08-11T10:51:53Z</time>
      </trkpt>
      <trkpt lat="45.77253" lon="3.21114">
        <ele>359.4</ele>
        <time>2024-08-11T10:51:54Z</time>
      </trkpt>
      <trkpt lat="45.77256" lon="3.2112">
        <ele>359.2</ele>
        <time>2024-08-11T10:51:55Z</time>
      </trkpt>
      <trkpt lat="45.77259" lon="3.21125">
        <ele>359.2</ele>
        <time>2024-08-11T10:51:56Z</time>
      </trkpt>
      <trkpt lat="45.77261" lon="3.21131">
        <ele>359</ele>
        <time>2024-08-11T10:51:57Z</time>
      </trkpt>
      <trkpt lat="45.77264" lon="3.21136">
        <ele>358.8</ele>
        <time>2024-08-11T10:51:58Z</time>
      </trkpt>
      <trkpt lat="45.77267" lon="3.21141">
        <ele>358.8</ele>
        <time>2024-08-11T10:51:59Z</time>
      </trkpt>
      <trkpt lat="45.77269" lon="3.21147">
        <ele>358.6</ele>
        <time>2024-08-11T10:52:00Z</time>
      </trkpt>
      <trkpt lat="45.77272" lon="3.21152">
        <ele>358.6</ele>
        <time>2024-08-11T10:52:01Z</time>
      </trkpt>
      <trkpt lat="45.77275" lon="3.21157">
        <ele>358.4</ele>
        <time>2024-08-11T10:52:02Z</time>
      </trkpt>
      <trkpt lat="45.77277" lon="3.21163">
        <ele>358.4</ele>
        <time>2024-08-11T10:52:03Z</time>
      </trkpt>
      <trkpt lat="45.77281" lon="3.21167">
        <ele>358.2</ele>
        <time>2024-08-11T10:52:04Z</time>
      </trkpt>
      <trkpt lat="45.77284" lon="3.21171">
        <ele>358.2</ele>
        <time>2024-08-11T10:52:05Z</time>
      </trkpt>
      <trkpt lat="45.77287" lon="3.21175">
        <ele>358.2</ele>
        <time>2024-08-11T10:52:06Z</time>
      </trkpt>
      <trkpt lat="45.77291" lon="3.21179">
        <ele>358</ele>
        <time>2024-08-11T10:52:07Z</time>
      </trkpt>
      <trkpt lat="45.77294" lon="3.21183">
        <ele>358</ele>
        <time>2024-08-11T10:52:08Z</time>
      </trkpt>
      <trkpt lat="45.77298" lon="3.21187">
        <ele>357.8</ele>
        <time>2024-08-11T10:52:09Z</time>
      </trkpt>
      <trkpt lat="45.77301" lon="3.21191">
        <ele>357.8</ele>
        <time>2024-08-11T10:52:10Z</time>
      </trkpt>
      <trkpt lat="45.77305" lon="3.21195">
        <ele>357.8</ele>
        <time>2024-08-11T10:52:11Z</time>
      </trkpt>
      <trkpt lat="45.77309" lon="3.212">
        <ele>357.6</ele>
        <time>2024-08-11T10:52:12Z</time>
      </trkpt>
      <trkpt lat="45.77312" lon="3.21204">
        <ele>357.6</ele>
        <time>2024-08-11T10:52:13Z</time>
      </trkpt>
      <trkpt lat="45.77316" lon="3.21208">
        <ele>357.4</ele>
        <time>2024-08-11T10:52:14Z</time>
      </trkpt>
      <trkpt lat="45.77319" lon="3.21212">
        <ele>357.4</ele>
        <time>2024-08-11T10:52:15Z</time>
      </trkpt>
      <trkpt lat="45.77321" lon="3.21215">
        <ele>357.2</ele>
        <time>2024-08-11T10:52:16Z</time>
      </trkpt>
      <trkpt lat="45.77324" lon="3.21218">
        <ele>357.2</ele>
        <time>2024-08-11T10:52:17Z</time>
      </trkpt>
      <trkpt lat="45.77327" lon="3.21221">
        <ele>357</ele>
        <time>2024-08-11T10:52:18Z</time>
      </trkpt>
      <trkpt lat="45.77329" lon="3.21229">
        <ele>356.8</ele>
        <time>2024-08-11T10:52:19Z</time>
      </trkpt>
      <trkpt lat="45.77332" lon="3.21236">
        <ele>356.6</ele>
        <time>2024-08-11T10:52:20Z</time>
      </trkpt>
      <trkpt lat="45.77333" lon="3.21243">
        <ele>356.6</ele>
        <time>2024-08-11T10:52:21Z</time>
      </trkpt>
      <trkpt lat="45.77333" lon="3.2125">
        <ele>356.4</ele>
        <time>2024-08-11T10:52:22Z</time>
      </trkpt>
      <trkpt lat="45.77332" lon="3.21257">
        <ele>356.4</ele>
        <time>2024-08-11T10:52:23Z</time>
      </trkpt>
      <trkpt lat="45.77331" lon="3.21264">
        <ele>356.4</ele>
        <time>2024-08-11T10:52:24Z</time>
      </trkpt>
      <trkpt lat="45.77331" lon="3.2127">
        <ele>356.4</ele>
        <time>2024-08-11T10:52:25Z</time>
      </trkpt>
      <trkpt lat="45.7733" lon="3.21277">
        <ele>356.4</ele>
        <time>2024-08-11T10:52:26Z</time>
      </trkpt>
      <trkpt lat="45.77329" lon="3.21283">
        <ele>356.4</ele>
        <time>2024-08-11T10:52:27Z</time>
      </trkpt>
      <trkpt lat="45.77329" lon="3.21289">
        <ele>356.4</ele>
        <time>2024-08-11T10:52:28Z</time>
      </trkpt>
      <trkpt lat="45.77328" lon="3.21295">
        <ele>356.4</ele>
        <time>2024-08-11T10:52:29Z</time>
      </trkpt>
      <trkpt lat="45.77328" lon="3.21302">
        <ele>356.4</ele>
        <time>2024-08-11T10:52:30Z</time>
      </trkpt>
      <trkpt lat="45.77327" lon="3.21308">
        <ele>356.4</ele>
        <time>2024-08-11T10:52:31Z</time>
      </trkpt>
      <trkpt lat="45.77326" lon="3.21314">
        <ele>356.4</ele>
        <time>2024-08-11T10:52:32Z</time>
      </trkpt>
      <trkpt lat="45.77326" lon="3.2132">
        <ele>356.4</ele>
        <time>2024-08-11T10:52:33Z</time>
      </trkpt>
      <trkpt lat="45.77325" lon="3.21326">
        <ele>356.2</ele>
        <time>2024-08-11T10:52:34Z</time>
      </trkpt>
      <trkpt lat="45.77324" lon="3.21332">
        <ele>356.2</ele>
        <time>2024-08-11T10:52:35Z</time>
      </trkpt>
      <trkpt lat="45.77324" lon="3.21338">
        <ele>356.4</ele>
        <time>2024-08-11T10:52:36Z</time>
      </trkpt>
      <trkpt lat="45.77323" lon="3.21343">
        <ele>356.4</ele>
        <time>2024-08-11T10:52:37Z</time>
      </trkpt>
      <trkpt lat="45.77322" lon="3.21349">
        <ele>356.4</ele>
        <time>2024-08-11T10:52:38Z</time>
      </trkpt>
      <trkpt lat="45.77322" lon="3.21355">
        <ele>356.4</ele>
        <time>2024-08-11T10:52:39Z</time>
      </trkpt>
      <trkpt lat="45.77321" lon="3.2136">
        <ele>356.4</ele>
        <time>2024-08-11T10:52:40Z</time>
      </trkpt>
      <trkpt lat="45.7732" lon="3.21366">
        <ele>356.4</ele>
        <time>2024-08-11T10:52:41Z</time>
      </trkpt>
      <trkpt lat="45.7732" lon="3.21371">
        <ele>356.4</ele>
        <time>2024-08-11T10:52:42Z</time>
      </trkpt>
      <trkpt lat="45.77319" lon="3.21377">
        <ele>356.4</ele>
        <time>2024-08-11T10:52:43Z</time>
      </trkpt>
      <trkpt lat="45.77319" lon="3.21382">
        <ele>355.6</ele>
        <time>2024-08-11T10:52:44Z</time>
      </trkpt>
      <trkpt lat="45.77318" lon="3.21387">
        <ele>356</ele>
        <time>2024-08-11T10:52:45Z</time>
      </trkpt>
      <trkpt lat="45.77317" lon="3.21392">
        <ele>355.8</ele>
        <time>2024-08-11T10:52:46Z</time>
      </trkpt>
      <trkpt lat="45.77317" lon="3.21397">
        <ele>356</ele>
        <time>2024-08-11T10:52:47Z</time>
      </trkpt>
      <trkpt lat="45.77316" lon="3.21402">
        <ele>356.2</ele>
        <time>2024-08-11T10:52:48Z</time>
      </trkpt>
      <trkpt lat="45.77316" lon="3.21407">
        <ele>356.2</ele>
        <time>2024-08-11T10:52:49Z</time>
      </trkpt>
      <trkpt lat="45.77315" lon="3.21412">
        <ele>356.4</ele>
        <time>2024-08-11T10:52:50Z</time>
      </trkpt>
      <trkpt lat="45.77315" lon="3.21417">
        <ele>356.8</ele>
        <time>2024-08-11T10:52:51Z</time>
      </trkpt>
      <trkpt lat="45.77314" lon="3.21422">
        <ele>356.4</ele>
        <time>2024-08-11T10:52:52Z</time>
      </trkpt>
      <trkpt lat="45.77313" lon="3.21427">
        <ele>356.4</ele>
        <time>2024-08-11T10:52:53Z</time>
      </trkpt>
      <trkpt lat="45.77313" lon="3.21432">
        <ele>356.6</ele>
        <time>2024-08-11T10:52:54Z</time>
      </trkpt>
      <trkpt lat="45.77312" lon="3.21438">
        <ele>356.6</ele>
        <time>2024-08-11T10:52:55Z</time>
      </trkpt>
      <trkpt lat="45.77312" lon="3.21442">
        <ele>356.6</ele>
        <time>2024-08-11T10:52:56Z</time>
      </trkpt>
      <trkpt lat="45.77311" lon="3.21447">
        <ele>356.6</ele>
        <time>2024-08-11T10:52:57Z</time>
      </trkpt>
      <trkpt lat="45.77311" lon="3.21452">
        <ele>356.6</ele>
        <time>2024-08-11T10:52:58Z</time>
      </trkpt>
      <trkpt lat="45.7731" lon="3.21457">
        <ele>356.8</ele>
        <time>2024-08-11T10:52:59Z</time>
      </trkpt>
      <trkpt lat="45.7731" lon="3.21462">
        <ele>356.8</ele>
        <time>2024-08-11T10:53:00Z</time>
      </trkpt>
      <trkpt lat="45.77309" lon="3.21466">
        <ele>356.8</ele>
        <time>2024-08-11T10:53:01Z</time>
      </trkpt>
      <trkpt lat="45.77308" lon="3.21471">
        <ele>356.8</ele>
        <time>2024-08-11T10:53:02Z</time>
      </trkpt>
      <trkpt lat="45.77308" lon="3.21476">
        <ele>356.8</ele>
        <time>2024-08-11T10:53:03Z</time>
      </trkpt>
      <trkpt lat="45.77307" lon="3.21482">
        <ele>357</ele>
        <time>2024-08-11T10:53:04Z</time>
      </trkpt>
      <trkpt lat="45.77307" lon="3.21487">
        <ele>357</ele>
        <time>2024-08-11T10:53:05Z</time>
      </trkpt>
      <trkpt lat="45.77306" lon="3.21493">
        <ele>357</ele>
        <time>2024-08-11T10:53:06Z</time>
      </trkpt>
      <trkpt lat="45.77305" lon="3.21499">
        <ele>357</ele>
        <time>2024-08-11T10:53:07Z</time>
      </trkpt>
      <trkpt lat="45.77305" lon="3.21505">
        <ele>357</ele>
        <time>2024-08-11T10:53:08Z</time>
      </trkpt>
      <trkpt lat="45.77304" lon="3.21511">
        <ele>357</ele>
        <time>2024-08-11T10:53:09Z</time>
      </trkpt>
      <trkpt lat="45.77303" lon="3.21516">
        <ele>357.2</ele>
        <time>2024-08-11T10:53:10Z</time>
      </trkpt>
      <trkpt lat="45.77303" lon="3.21521">
        <ele>357.2</ele>
        <time>2024-08-11T10:53:11Z</time>
      </trkpt>
      <trkpt lat="45.77302" lon="3.21526">
        <ele>357.4</ele>
        <time>2024-08-11T10:53:12Z</time>
      </trkpt>
      <trkpt lat="45.77302" lon="3.21531">
        <ele>357.4</ele>
        <time>2024-08-11T10:53:13Z</time>
      </trkpt>
      <trkpt lat="45.77301" lon="3.21536">
        <ele>357.4</ele>
        <time>2024-08-11T10:53:14Z</time>
      </trkpt>
      <trkpt lat="45.77301" lon="3.21541">
        <ele>357.4</ele>
        <time>2024-08-11T10:53:15Z</time>
      </trkpt>
      <trkpt lat="45.773" lon="3.21546">
        <ele>357.4</ele>
        <time>2024-08-11T10:53:16Z</time>
      </trkpt>
      <trkpt lat="45.77299" lon="3.2155">
        <ele>357.6</ele>
        <time>2024-08-11T10:53:17Z</time>
      </trkpt>
      <trkpt lat="45.77299" lon="3.21555">
        <ele>357.6</ele>
        <time>2024-08-11T10:53:18Z</time>
      </trkpt>
      <trkpt lat="45.77298" lon="3.21559">
        <ele>357.6</ele>
        <time>2024-08-11T10:53:19Z</time>
      </trkpt>
      <trkpt lat="45.77298" lon="3.21564">
        <ele>357.6</ele>
        <time>2024-08-11T10:53:20Z</time>
      </trkpt>
      <trkpt lat="45.77297" lon="3.21568">
        <ele>357.8</ele>
        <time>2024-08-11T10:53:21Z</time>
      </trkpt>
      <trkpt lat="45.77297" lon="3.21572">
        <ele>357.8</ele>
        <time>2024-08-11T10:53:22Z</time>
      </trkpt>
      <trkpt lat="45.77296" lon="3.21577">
        <ele>358</ele>
        <time>2024-08-11T10:53:23Z</time>
      </trkpt>
      <trkpt lat="45.77296" lon="3.21581">
        <ele>358</ele>
        <time>2024-08-11T10:53:24Z</time>
      </trkpt>
      <trkpt lat="45.77295" lon="3.21586">
        <ele>358</ele>
        <time>2024-08-11T10:53:25Z</time>
      </trkpt>
      <trkpt lat="45.77295" lon="3.2159">
        <ele>358.2</ele>
        <time>2024-08-11T10:53:26Z</time>
      </trkpt>
      <trkpt lat="45.77294" lon="3.21595">
        <ele>358.2</ele>
        <time>2024-08-11T10:53:27Z</time>
      </trkpt>
      <trkpt lat="45.77294" lon="3.21599">
        <ele>358.2</ele>
        <time>2024-08-11T10:53:28Z</time>
      </trkpt>
      <trkpt lat="45.77293" lon="3.21603">
        <ele>358.4</ele>
        <time>2024-08-11T10:53:29Z</time>
      </trkpt>
      <trkpt lat="45.77293" lon="3.21608">
        <ele>358.4</ele>
        <time>2024-08-11T10:53:30Z</time>
      </trkpt>
      <trkpt lat="45.77292" lon="3.21612">
        <ele>358.6</ele>
        <time>2024-08-11T10:53:31Z</time>
      </trkpt>
      <trkpt lat="45.77292" lon="3.21616">
        <ele>358.6</ele>
        <time>2024-08-11T10:53:32Z</time>
      </trkpt>
      <trkpt lat="45.77292" lon="3.21621">
        <ele>358.6</ele>
        <time>2024-08-11T10:53:33Z</time>
      </trkpt>
      <trkpt lat="45.77291" lon="3.21625">
        <ele>358.8</ele>
        <time>2024-08-11T10:53:34Z</time>
      </trkpt>
      <trkpt lat="45.77291" lon="3.21629">
        <ele>358.8</ele>
        <time>2024-08-11T10:53:35Z</time>
      </trkpt>
      <trkpt lat="45.7729" lon="3.21633">
        <ele>359</ele>
        <time>2024-08-11T10:53:36Z</time>
      </trkpt>
      <trkpt lat="45.7729" lon="3.21638">
        <ele>359</ele>
        <time>2024-08-11T10:53:37Z</time>
      </trkpt>
      <trkpt lat="45.77289" lon="3.21642">
        <ele>359</ele>
        <time>2024-08-11T10:53:38Z</time>
      </trkpt>
      <trkpt lat="45.77289" lon="3.21646">
        <ele>359.2</ele>
        <time>2024-08-11T10:53:39Z</time>
      </trkpt>
      <trkpt lat="45.77288" lon="3.21651">
        <ele>359.2</ele>
        <time>2024-08-11T10:53:40Z</time>
      </trkpt>
      <trkpt lat="45.77288" lon="3.21655">
        <ele>359.2</ele>
        <time>2024-08-11T10:53:41Z</time>
      </trkpt>
      <trkpt lat="45.77287" lon="3.21659">
        <ele>359.4</ele>
        <time>2024-08-11T10:53:42Z</time>
      </trkpt>
      <trkpt lat="45.77287" lon="3.21663">
        <ele>359.4</ele>
        <time>2024-08-11T10:53:43Z</time>
      </trkpt>
      <trkpt lat="45.77286" lon="3.21667">
        <ele>359.6</ele>
        <time>2024-08-11T10:53:44Z</time>
      </trkpt>
      <trkpt lat="45.77286" lon="3.21671">
        <ele>359.6</ele>
        <time>2024-08-11T10:53:45Z</time>
      </trkpt>
      <trkpt lat="45.77285" lon="3.21675">
        <ele>359.6</ele>
        <time>2024-08-11T10:53:46Z</time>
      </trkpt>
      <trkpt lat="45.77285" lon="3.21679">
        <ele>359.8</ele>
        <time>2024-08-11T10:53:47Z</time>
      </trkpt>
      <trkpt lat="45.77284" lon="3.21683">
        <ele>359.8</ele>
        <time>2024-08-11T10:53:48Z</time>
      </trkpt>
      <trkpt lat="45.77284" lon="3.21687">
        <ele>360</ele>
        <time>2024-08-11T10:53:49Z</time>
      </trkpt>
      <trkpt lat="45.77284" lon="3.21691">
        <ele>360</ele>
        <time>2024-08-11T10:53:50Z</time>
      </trkpt>
      <trkpt lat="45.77283" lon="3.21695">
        <ele>360.2</ele>
        <time>2024-08-11T10:53:51Z</time>
      </trkpt>
      <trkpt lat="45.77283" lon="3.21699">
        <ele>360.2</ele>
        <time>2024-08-11T10:53:52Z</time>
      </trkpt>
      <trkpt lat="45.77282" lon="3.21703">
        <ele>360.4</ele>
        <time>2024-08-11T10:53:53Z</time>
      </trkpt>
      <trkpt lat="45.77282" lon="3.21707">
        <ele>360.4</ele>
        <time>2024-08-11T10:53:54Z</time>
      </trkpt>
      <trkpt lat="45.77281" lon="3.21711">
        <ele>360.6</ele>
        <time>2024-08-11T10:53:55Z</time>
      </trkpt>
      <trkpt lat="45.77281" lon="3.21715">
        <ele>360.6</ele>
        <time>2024-08-11T10:53:56Z</time>
      </trkpt>
      <trkpt lat="45.7728" lon="3.21719">
        <ele>360.8</ele>
        <time>2024-08-11T10:53:57Z</time>
      </trkpt>
      <trkpt lat="45.7728" lon="3.21723">
        <ele>360.8</ele>
        <time>2024-08-11T10:53:58Z</time>
      </trkpt>
      <trkpt lat="45.77279" lon="3.21727">
        <ele>361</ele>
        <time>2024-08-11T10:53:59Z</time>
      </trkpt>
      <trkpt lat="45.77279" lon="3.21731">
        <ele>361</ele>
        <time>2024-08-11T10:54:00Z</time>
      </trkpt>
      <trkpt lat="45.77279" lon="3.21735">
        <ele>361.2</ele>
        <time>2024-08-11T10:54:01Z</time>
      </trkpt>
      <trkpt lat="45.77278" lon="3.21739">
        <ele>361.2</ele>
        <time>2024-08-11T10:54:02Z</time>
      </trkpt>
      <trkpt lat="45.77278" lon="3.21743">
        <ele>361.4</ele>
        <time>2024-08-11T10:54:03Z</time>
      </trkpt>
      <trkpt lat="45.77277" lon="3.21748">
        <ele>361.4</ele>
        <time>2024-08-11T10:54:04Z</time>
      </trkpt>
      <trkpt lat="45.77277" lon="3.21752">
        <ele>361.6</ele>
        <time>2024-08-11T10:54:05Z</time>
      </trkpt>
      <trkpt lat="45.77277" lon="3.21756">
        <ele>361.6</ele>
        <time>2024-08-11T10:54:06Z</time>
      </trkpt>
      <trkpt lat="45.77277" lon="3.2176">
        <ele>361.8</ele>
        <time>2024-08-11T10:54:07Z</time>
      </trkpt>
      <trkpt lat="45.77277" lon="3.21764">
        <ele>361.8</ele>
        <time>2024-08-11T10:54:08Z</time>
      </trkpt>
      <trkpt lat="45.77276" lon="3.21768">
        <ele>362</ele>
        <time>2024-08-11T10:54:09Z</time>
      </trkpt>
      <trkpt lat="45.77276" lon="3.21773">
        <ele>362</ele>
        <time>2024-08-11T10:54:10Z</time>
      </trkpt>
      <trkpt lat="45.77276" lon="3.21777">
        <ele>362.2</ele>
        <time>2024-08-11T10:54:11Z</time>
      </trkpt>
      <trkpt lat="45.77276" lon="3.21781">
        <ele>362.4</ele>
        <time>2024-08-11T10:54:12Z</time>
      </trkpt>
      <trkpt lat="45.77276" lon="3.21785">
        <ele>362.4</ele>
        <time>2024-08-11T10:54:13Z</time>
      </trkpt>
      <trkpt lat="45.77275" lon="3.21789">
        <ele>362.6</ele>
        <time>2024-08-11T10:54:14Z</time>
      </trkpt>
      <trkpt lat="45.77275" lon="3.21793">
        <ele>362.6</ele>
        <time>2024-08-11T10:54:15Z</time>
      </trkpt>
      <trkpt lat="45.77275" lon="3.21797">
        <ele>362.8</ele>
        <time>2024-08-11T10:54:16Z</time>
      </trkpt>
      <trkpt lat="45.77275" lon="3.21801">
        <ele>362.8</ele>
        <time>2024-08-11T10:54:17Z</time>
      </trkpt>
      <trkpt lat="45.77274" lon="3.21805">
        <ele>363</ele>
        <time>2024-08-11T10:54:18Z</time>
      </trkpt>
      <trkpt lat="45.77274" lon="3.21809">
        <ele>363.2</ele>
        <time>2024-08-11T10:54:19Z</time>
      </trkpt>
      <trkpt lat="45.77274" lon="3.21813">
        <ele>363.2</ele>
        <time>2024-08-11T10:54:20Z</time>
      </trkpt>
      <trkpt lat="45.77274" lon="3.21818">
        <ele>363.2</ele>
        <time>2024-08-11T10:54:21Z</time>
      </trkpt>
      <trkpt lat="45.77274" lon="3.21822">
        <ele>363.4</ele>
        <time>2024-08-11T10:54:22Z</time>
      </trkpt>
      <trkpt lat="45.77273" lon="3.21826">
        <ele>363.6</ele>
        <time>2024-08-11T10:54:23Z</time>
      </trkpt>
      <trkpt lat="45.77273" lon="3.21831">
        <ele>363.6</ele>
        <time>2024-08-11T10:54:24Z</time>
      </trkpt>
      <trkpt lat="45.77274" lon="3.21835">
        <ele>363.8</ele>
        <time>2024-08-11T10:54:25Z</time>
      </trkpt>
      <trkpt lat="45.77274" lon="3.2184">
        <ele>363.8</ele>
        <time>2024-08-11T10:54:26Z</time>
      </trkpt>
      <trkpt lat="45.77274" lon="3.21844">
        <ele>364</ele>
        <time>2024-08-11T10:54:27Z</time>
      </trkpt>
      <trkpt lat="45.77274" lon="3.21848">
        <ele>364</ele>
        <time>2024-08-11T10:54:28Z</time>
      </trkpt>
      <trkpt lat="45.77274" lon="3.21853">
        <ele>364.2</ele>
        <time>2024-08-11T10:54:29Z</time>
      </trkpt>
      <trkpt lat="45.77274" lon="3.21858">
        <ele>364.4</ele>
        <time>2024-08-11T10:54:30Z</time>
      </trkpt>
      <trkpt lat="45.77274" lon="3.21862">
        <ele>364.4</ele>
        <time>2024-08-11T10:54:31Z</time>
      </trkpt>
      <trkpt lat="45.77275" lon="3.21866">
        <ele>364.6</ele>
        <time>2024-08-11T10:54:32Z</time>
      </trkpt>
      <trkpt lat="45.77275" lon="3.2187">
        <ele>364.8</ele>
        <time>2024-08-11T10:54:33Z</time>
      </trkpt>
      <trkpt lat="45.77275" lon="3.21875">
        <ele>364.8</ele>
        <time>2024-08-11T10:54:34Z</time>
      </trkpt>
      <trkpt lat="45.77275" lon="3.21879">
        <ele>365</ele>
        <time>2024-08-11T10:54:35Z</time>
      </trkpt>
      <trkpt lat="45.77275" lon="3.21883">
        <ele>365</ele>
        <time>2024-08-11T10:54:36Z</time>
      </trkpt>
      <trkpt lat="45.77275" lon="3.21888">
        <ele>365.2</ele>
        <time>2024-08-11T10:54:37Z</time>
      </trkpt>
      <trkpt lat="45.77275" lon="3.21892">
        <ele>365.4</ele>
        <time>2024-08-11T10:54:38Z</time>
      </trkpt>
      <trkpt lat="45.77276" lon="3.21897">
        <ele>365.4</ele>
        <time>2024-08-11T10:54:39Z</time>
      </trkpt>
      <trkpt lat="45.77276" lon="3.21901">
        <ele>365.6</ele>
        <time>2024-08-11T10:54:40Z</time>
      </trkpt>
      <trkpt lat="45.77276" lon="3.21906">
        <ele>365.6</ele>
        <time>2024-08-11T10:54:41Z</time>
      </trkpt>
      <trkpt lat="45.77276" lon="3.21911">
        <ele>365.8</ele>
        <time>2024-08-11T10:54:42Z</time>
      </trkpt>
      <trkpt lat="45.77276" lon="3.21916">
        <ele>365.8</ele>
        <time>2024-08-11T10:54:43Z</time>
      </trkpt>
      <trkpt lat="45.77276" lon="3.21921">
        <ele>366</ele>
        <time>2024-08-11T10:54:44Z</time>
      </trkpt>
      <trkpt lat="45.77276" lon="3.21926">
        <ele>366.2</ele>
        <time>2024-08-11T10:54:45Z</time>
      </trkpt>
      <trkpt lat="45.77277" lon="3.21931">
        <ele>366.2</ele>
        <time>2024-08-11T10:54:46Z</time>
      </trkpt>
      <trkpt lat="45.77277" lon="3.21936">
        <ele>366.4</ele>
        <time>2024-08-11T10:54:47Z</time>
      </trkpt>
      <trkpt lat="45.77277" lon="3.21941">
        <ele>366.4</ele>
        <time>2024-08-11T10:54:48Z</time>
      </trkpt>
      <trkpt lat="45.77277" lon="3.21947">
        <ele>366.6</ele>
        <time>2024-08-11T10:54:49Z</time>
      </trkpt>
      <trkpt lat="45.77277" lon="3.21952">
        <ele>366.6</ele>
        <time>2024-08-11T10:54:50Z</time>
      </trkpt>
      <trkpt lat="45.77277" lon="3.21957">
        <ele>366.8</ele>
        <time>2024-08-11T10:54:51Z</time>
      </trkpt>
      <trkpt lat="45.77278" lon="3.21963">
        <ele>366.8</ele>
        <time>2024-08-11T10:54:52Z</time>
      </trkpt>
      <trkpt lat="45.77278" lon="3.21968">
        <ele>367</ele>
        <time>2024-08-11T10:54:53Z</time>
      </trkpt>
      <trkpt lat="45.77278" lon="3.21973">
        <ele>367</ele>
        <time>2024-08-11T10:54:54Z</time>
      </trkpt>
      <trkpt lat="45.77278" lon="3.21979">
        <ele>367.2</ele>
        <time>2024-08-11T10:54:55Z</time>
      </trkpt>
      <trkpt lat="45.77279" lon="3.21985">
        <ele>367.2</ele>
        <time>2024-08-11T10:54:56Z</time>
      </trkpt>
      <trkpt lat="45.77279" lon="3.21991">
        <ele>367.4</ele>
        <time>2024-08-11T10:54:57Z</time>
      </trkpt>
      <trkpt lat="45.77279" lon="3.21997">
        <ele>367.4</ele>
        <time>2024-08-11T10:54:58Z</time>
      </trkpt>
      <trkpt lat="45.77279" lon="3.22003">
        <ele>367.4</ele>
        <time>2024-08-11T10:54:59Z</time>
      </trkpt>
      <trkpt lat="45.7728" lon="3.22009">
        <ele>367.6</ele>
        <time>2024-08-11T10:55:00Z</time>
      </trkpt>
      <trkpt lat="45.7728" lon="3.22015">
        <ele>367.6</ele>
        <time>2024-08-11T10:55:01Z</time>
      </trkpt>
      <trkpt lat="45.7728" lon="3.22022">
        <ele>367.8</ele>
        <time>2024-08-11T10:55:02Z</time>
      </trkpt>
      <trkpt lat="45.77281" lon="3.22028">
        <ele>367.8</ele>
        <time>2024-08-11T10:55:03Z</time>
      </trkpt>
      <trkpt lat="45.77281" lon="3.22035">
        <ele>368</ele>
        <time>2024-08-11T10:55:04Z</time>
      </trkpt>
      <trkpt lat="45.77281" lon="3.22042">
        <ele>368</ele>
        <time>2024-08-11T10:55:05Z</time>
      </trkpt>
      <trkpt lat="45.77282" lon="3.22049">
        <ele>368</ele>
        <time>2024-08-11T10:55:06Z</time>
      </trkpt>
      <trkpt lat="45.77282" lon="3.22057">
        <ele>368.2</ele>
        <time>2024-08-11T10:55:07Z</time>
      </trkpt>
      <trkpt lat="45.77282" lon="3.22064">
        <ele>368.2</ele>
        <time>2024-08-11T10:55:08Z</time>
      </trkpt>
      <trkpt lat="45.77283" lon="3.22071">
        <ele>368.2</ele>
        <time>2024-08-11T10:55:09Z</time>
      </trkpt>
      <trkpt lat="45.77283" lon="3.22079">
        <ele>368.4</ele>
        <time>2024-08-11T10:55:10Z</time>
      </trkpt>
      <trkpt lat="45.77283" lon="3.22086">
        <ele>368.4</ele>
        <time>2024-08-11T10:55:11Z</time>
      </trkpt>
      <trkpt lat="45.77284" lon="3.22093">
        <ele>368.4</ele>
        <time>2024-08-11T10:55:12Z</time>
      </trkpt>
      <trkpt lat="45.77284" lon="3.22101">
        <ele>368.6</ele>
        <time>2024-08-11T10:55:13Z</time>
      </trkpt>
      <trkpt lat="45.77284" lon="3.22109">
        <ele>368.6</ele>
        <time>2024-08-11T10:55:14Z</time>
      </trkpt>
      <trkpt lat="45.77285" lon="3.22117">
        <ele>368.6</ele>
        <time>2024-08-11T10:55:15Z</time>
      </trkpt>
      <trkpt lat="45.77285" lon="3.22125">
        <ele>368.6</ele>
        <time>2024-08-11T10:55:16Z</time>
      </trkpt>
      <trkpt lat="45.77286" lon="3.22134">
        <ele>368.8</ele>
        <time>2024-08-11T10:55:17Z</time>
      </trkpt>
      <trkpt lat="45.77286" lon="3.22143">
        <ele>368.8</ele>
        <time>2024-08-11T10:55:18Z</time>
      </trkpt>
      <trkpt lat="45.77286" lon="3.22152">
        <ele>368.8</ele>
        <time>2024-08-11T10:55:19Z</time>
      </trkpt>
      <trkpt lat="45.77287" lon="3.22161">
        <ele>368.8</ele>
        <time>2024-08-11T10:55:20Z</time>
      </trkpt>
      <trkpt lat="45.77287" lon="3.22169">
        <ele>369</ele>
        <time>2024-08-11T10:55:21Z</time>
      </trkpt>
      <trkpt lat="45.77288" lon="3.22179">
        <ele>369</ele>
        <time>2024-08-11T10:55:22Z</time>
      </trkpt>
      <trkpt lat="45.77288" lon="3.22188">
        <ele>369</ele>
        <time>2024-08-11T10:55:23Z</time>
      </trkpt>
      <trkpt lat="45.77289" lon="3.22197">
        <ele>369</ele>
        <time>2024-08-11T10:55:24Z</time>
      </trkpt>
      <trkpt lat="45.7729" lon="3.22206">
        <ele>369</ele>
        <time>2024-08-11T10:55:25Z</time>
      </trkpt>
      <trkpt lat="45.7729" lon="3.22215">
        <ele>369</ele>
        <time>2024-08-11T10:55:26Z</time>
      </trkpt>
      <trkpt lat="45.77291" lon="3.22224">
        <ele>369</ele>
        <time>2024-08-11T10:55:27Z</time>
      </trkpt>
      <trkpt lat="45.77292" lon="3.22234">
        <ele>369</ele>
        <time>2024-08-11T10:55:28Z</time>
      </trkpt>
      <trkpt lat="45.77293" lon="3.22243">
        <ele>369</ele>
        <time>2024-08-11T10:55:29Z</time>
      </trkpt>
      <trkpt lat="45.77294" lon="3.22252">
        <ele>369</ele>
        <time>2024-08-11T10:55:30Z</time>
      </trkpt>
      <trkpt lat="45.77295" lon="3.22261">
        <ele>369</ele>
        <time>2024-08-11T10:55:31Z</time>
      </trkpt>
      <trkpt lat="45.77296" lon="3.2227">
        <ele>369</ele>
        <time>2024-08-11T10:55:32Z</time>
      </trkpt>
      <trkpt lat="45.77297" lon="3.22279">
        <ele>369</ele>
        <time>2024-08-11T10:55:33Z</time>
      </trkpt>
      <trkpt lat="45.77299" lon="3.22289">
        <ele>369</ele>
        <time>2024-08-11T10:55:34Z</time>
      </trkpt>
      <trkpt lat="45.773" lon="3.22299">
        <ele>369</ele>
        <time>2024-08-11T10:55:35Z</time>
      </trkpt>
      <trkpt lat="45.77301" lon="3.22308">
        <ele>369</ele>
        <time>2024-08-11T10:55:36Z</time>
      </trkpt>
      <trkpt lat="45.77303" lon="3.22318">
        <ele>369</ele>
        <time>2024-08-11T10:55:37Z</time>
      </trkpt>
      <trkpt lat="45.77305" lon="3.22327">
        <ele>369</ele>
        <time>2024-08-11T10:55:38Z</time>
      </trkpt>
      <trkpt lat="45.77308" lon="3.22336">
        <ele>369</ele>
        <time>2024-08-11T10:55:39Z</time>
      </trkpt>
      <trkpt lat="45.77311" lon="3.22345">
        <ele>369</ele>
        <time>2024-08-11T10:55:40Z</time>
      </trkpt>
      <trkpt lat="45.77314" lon="3.22354">
        <ele>369.2</ele>
        <time>2024-08-11T10:55:41Z</time>
      </trkpt>
      <trkpt lat="45.77316" lon="3.22363">
        <ele>368.8</ele>
        <time>2024-08-11T10:55:42Z</time>
      </trkpt>
      <trkpt lat="45.77319" lon="3.22372">
        <ele>368.4</ele>
        <time>2024-08-11T10:55:43Z</time>
      </trkpt>
      <trkpt lat="45.77322" lon="3.22381">
        <ele>368.8</ele>
        <time>2024-08-11T10:55:44Z</time>
      </trkpt>
      <trkpt lat="45.77325" lon="3.2239">
        <ele>368.6</ele>
        <time>2024-08-11T10:55:45Z</time>
      </trkpt>
      <trkpt lat="45.77328" lon="3.22399">
        <ele>368.6</ele>
        <time>2024-08-11T10:55:46Z</time>
      </trkpt>
      <trkpt lat="45.77331" lon="3.22408">
        <ele>368.6</ele>
        <time>2024-08-11T10:55:47Z</time>
      </trkpt>
      <trkpt lat="45.77333" lon="3.22417">
        <ele>368.4</ele>
        <time>2024-08-11T10:55:48Z</time>
      </trkpt>
      <trkpt lat="45.77336" lon="3.22426">
        <ele>368.4</ele>
        <time>2024-08-11T10:55:49Z</time>
      </trkpt>
      <trkpt lat="45.77339" lon="3.22435">
        <ele>368.4</ele>
        <time>2024-08-11T10:55:50Z</time>
      </trkpt>
      <trkpt lat="45.77342" lon="3.22444">
        <ele>368.2</ele>
        <time>2024-08-11T10:55:51Z</time>
      </trkpt>
      <trkpt lat="45.77346" lon="3.22452">
        <ele>368.2</ele>
        <time>2024-08-11T10:55:52Z</time>
      </trkpt>
      <trkpt lat="45.7735" lon="3.2246">
        <ele>368.2</ele>
        <time>2024-08-11T10:55:53Z</time>
      </trkpt>
      <trkpt lat="45.77354" lon="3.22468">
        <ele>368</ele>
        <time>2024-08-11T10:55:54Z</time>
      </trkpt>
      <trkpt lat="45.77358" lon="3.22476">
        <ele>368</ele>
        <time>2024-08-11T10:55:55Z</time>
      </trkpt>
      <trkpt lat="45.77362" lon="3.22484">
        <ele>367.8</ele>
        <time>2024-08-11T10:55:56Z</time>
      </trkpt>
      <trkpt lat="45.77366" lon="3.22492">
        <ele>367.8</ele>
        <time>2024-08-11T10:55:57Z</time>
      </trkpt>
      <trkpt lat="45.7737" lon="3.225">
        <ele>367.8</ele>
        <time>2024-08-11T10:55:58Z</time>
      </trkpt>
      <trkpt lat="45.77374" lon="3.22507">
        <ele>367.6</ele>
        <time>2024-08-11T10:55:59Z</time>
      </trkpt>
      <trkpt lat="45.77379" lon="3.22514">
        <ele>367.6</ele>
        <time>2024-08-11T10:56:00Z</time>
      </trkpt>
      <trkpt lat="45.77384" lon="3.22521">
        <ele>367.6</ele>
        <time>2024-08-11T10:56:01Z</time>
      </trkpt>
      <trkpt lat="45.77389" lon="3.22528">
        <ele>367.4</ele>
        <time>2024-08-11T10:56:02Z</time>
      </trkpt>
      <trkpt lat="45.77394" lon="3.22535">
        <ele>367.4</ele>
        <time>2024-08-11T10:56:03Z</time>
      </trkpt>
      <trkpt lat="45.77398" lon="3.22542">
        <ele>367.4</ele>
        <time>2024-08-11T10:56:04Z</time>
      </trkpt>
      <trkpt lat="45.77403" lon="3.22549">
        <ele>367.2</ele>
        <time>2024-08-11T10:56:05Z</time>
      </trkpt>
      <trkpt lat="45.77408" lon="3.22557">
        <ele>367.2</ele>
        <time>2024-08-11T10:56:06Z</time>
      </trkpt>
      <trkpt lat="45.77413" lon="3.22564">
        <ele>367</ele>
        <time>2024-08-11T10:56:07Z</time>
      </trkpt>
      <trkpt lat="45.77418" lon="3.22571">
        <ele>367</ele>
        <time>2024-08-11T10:56:08Z</time>
      </trkpt>
      <trkpt lat="45.77423" lon="3.22579">
        <ele>366.8</ele>
        <time>2024-08-11T10:56:09Z</time>
      </trkpt>
      <trkpt lat="45.77428" lon="3.22586">
        <ele>366.8</ele>
        <time>2024-08-11T10:56:10Z</time>
      </trkpt>
      <trkpt lat="45.77433" lon="3.22594">
        <ele>366.6</ele>
        <time>2024-08-11T10:56:11Z</time>
      </trkpt>
      <trkpt lat="45.77438" lon="3.22601">
        <ele>366.6</ele>
        <time>2024-08-11T10:56:12Z</time>
      </trkpt>
      <trkpt lat="45.77444" lon="3.22609">
        <ele>366.4</ele>
        <time>2024-08-11T10:56:13Z</time>
      </trkpt>
      <trkpt lat="45.77449" lon="3.22617">
        <ele>366.2</ele>
        <time>2024-08-11T10:56:14Z</time>
      </trkpt>
      <trkpt lat="45.77454" lon="3.22625">
        <ele>366.2</ele>
        <time>2024-08-11T10:56:15Z</time>
      </trkpt>
      <trkpt lat="45.7746" lon="3.22633">
        <ele>366</ele>
        <time>2024-08-11T10:56:16Z</time>
      </trkpt>
      <trkpt lat="45.77465" lon="3.22641">
        <ele>365.8</ele>
        <time>2024-08-11T10:56:17Z</time>
      </trkpt>
      <trkpt lat="45.77471" lon="3.2265">
        <ele>365.6</ele>
        <time>2024-08-11T10:56:18Z</time>
      </trkpt>
      <trkpt lat="45.77477" lon="3.22658">
        <ele>365.4</ele>
        <time>2024-08-11T10:56:19Z</time>
      </trkpt>
      <trkpt lat="45.77482" lon="3.22668">
        <ele>365.2</ele>
        <time>2024-08-11T10:56:20Z</time>
      </trkpt>
      <trkpt lat="45.77487" lon="3.22678">
        <ele>365.2</ele>
        <time>2024-08-11T10:56:21Z</time>
      </trkpt>
      <trkpt lat="45.77491" lon="3.22688">
        <ele>365</ele>
        <time>2024-08-11T10:56:22Z</time>
      </trkpt>
      <trkpt lat="45.77496" lon="3.22699">
        <ele>364.6</ele>
        <time>2024-08-11T10:56:23Z</time>
      </trkpt>
      <trkpt lat="45.77502" lon="3.2271">
        <ele>364.4</ele>
        <time>2024-08-11T10:56:24Z</time>
      </trkpt>
      <trkpt lat="45.77507" lon="3.2272">
        <ele>364.2</ele>
        <time>2024-08-11T10:56:25Z</time>
      </trkpt>
      <trkpt lat="45.77511" lon="3.22732">
        <ele>364</ele>
        <time>2024-08-11T10:56:26Z</time>
      </trkpt>
      <trkpt lat="45.77515" lon="3.22744">
        <ele>363.8</ele>
        <time>2024-08-11T10:56:27Z</time>
      </trkpt>
      <trkpt lat="45.77519" lon="3.22755">
        <ele>363.6</ele>
        <time>2024-08-11T10:56:28Z</time>
      </trkpt>
      <trkpt lat="45.77524" lon="3.22767">
        <ele>363.4</ele>
        <time>2024-08-11T10:56:29Z</time>
      </trkpt>
      <trkpt lat="45.77528" lon="3.2278">
        <ele>363.2</ele>
        <time>2024-08-11T10:56:30Z</time>
      </trkpt>
      <trkpt lat="45.77532" lon="3.22793">
        <ele>363</ele>
        <time>2024-08-11T10:56:31Z</time>
      </trkpt>
      <trkpt lat="45.77536" lon="3.22806">
        <ele>362.8</ele>
        <time>2024-08-11T10:56:32Z</time>
      </trkpt>
      <trkpt lat="45.77539" lon="3.2282">
        <ele>362.4</ele>
        <time>2024-08-11T10:56:33Z</time>
      </trkpt>
      <trkpt lat="45.77542" lon="3.22835">
        <ele>362.2</ele>
        <time>2024-08-11T10:56:34Z</time>
      </trkpt>
      <trkpt lat="45.77545" lon="3.22849">
        <ele>362</ele>
        <time>2024-08-11T10:56:35Z</time>
      </trkpt>
      <trkpt lat="45.77549" lon="3.22865">
        <ele>361.8</ele>
        <time>2024-08-11T10:56:36Z</time>
      </trkpt>
      <trkpt lat="45.77551" lon="3.22881">
        <ele>361.4</ele>
        <time>2024-08-11T10:56:37Z</time>
      </trkpt>
      <trkpt lat="45.77552" lon="3.22897">
        <ele>361.2</ele>
        <time>2024-08-11T10:56:38Z</time>
      </trkpt>
      <trkpt lat="45.77554" lon="3.22913">
        <ele>360.8</ele>
        <time>2024-08-11T10:56:39Z</time>
      </trkpt>
      <trkpt lat="45.77556" lon="3.22931">
        <ele>360.6</ele>
        <time>2024-08-11T10:56:40Z</time>
      </trkpt>
      <trkpt lat="45.77557" lon="3.22948">
        <ele>360.4</ele>
        <time>2024-08-11T10:56:41Z</time>
      </trkpt>
      <trkpt lat="45.77557" lon="3.22965">
        <ele>360</ele>
        <time>2024-08-11T10:56:42Z</time>
      </trkpt>
      <trkpt lat="45.77557" lon="3.22983">
        <ele>359.6</ele>
        <time>2024-08-11T10:56:43Z</time>
      </trkpt>
      <trkpt lat="45.77557" lon="3.23">
        <ele>359.4</ele>
        <time>2024-08-11T10:56:44Z</time>
      </trkpt>
      <trkpt lat="45.77557" lon="3.23018">
        <ele>359</ele>
        <time>2024-08-11T10:56:45Z</time>
      </trkpt>
      <trkpt lat="45.77557" lon="3.23036">
        <ele>358.6</ele>
        <time>2024-08-11T10:56:46Z</time>
      </trkpt>
      <trkpt lat="45.77556" lon="3.23054">
        <ele>358.2</ele>
        <time>2024-08-11T10:56:47Z</time>
      </trkpt>
      <trkpt lat="45.77553" lon="3.23072">
        <ele>358</ele>
        <time>2024-08-11T10:56:48Z</time>
      </trkpt>
      <trkpt lat="45.7755" lon="3.2309">
        <ele>357.6</ele>
        <time>2024-08-11T10:56:49Z</time>
      </trkpt>
      <trkpt lat="45.77548" lon="3.23107">
        <ele>357.2</ele>
        <time>2024-08-11T10:56:50Z</time>
      </trkpt>
      <trkpt lat="45.77545" lon="3.23125">
        <ele>356.8</ele>
        <time>2024-08-11T10:56:51Z</time>
      </trkpt>
      <trkpt lat="45.77542" lon="3.23143">
        <ele>356.4</ele>
        <time>2024-08-11T10:56:52Z</time>
      </trkpt>
      <trkpt lat="45.77539" lon="3.23161">
        <ele>356</ele>
        <time>2024-08-11T10:56:53Z</time>
      </trkpt>
      <trkpt lat="45.77537" lon="3.23179">
        <ele>355.6</ele>
        <time>2024-08-11T10:56:54Z</time>
      </trkpt>
      <trkpt lat="45.77534" lon="3.23197">
        <ele>355.4</ele>
        <time>2024-08-11T10:56:55Z</time>
      </trkpt>
      <trkpt lat="45.77532" lon="3.23214">
        <ele>355</ele>
        <time>2024-08-11T10:56:56Z</time>
      </trkpt>
      <trkpt lat="45.77529" lon="3.23232">
        <ele>354.6</ele>
        <time>2024-08-11T10:56:57Z</time>
      </trkpt>
      <trkpt lat="45.77526" lon="3.23249">
        <ele>354.2</ele>
        <time>2024-08-11T10:56:58Z</time>
      </trkpt>
      <trkpt lat="45.77524" lon="3.23266">
        <ele>353.8</ele>
        <time>2024-08-11T10:56:59Z</time>
      </trkpt>
      <trkpt lat="45.77521" lon="3.23283">
        <ele>353.6</ele>
        <time>2024-08-11T10:57:00Z</time>
      </trkpt>
      <trkpt lat="45.77519" lon="3.233">
        <ele>353.2</ele>
        <time>2024-08-11T10:57:01Z</time>
      </trkpt>
      <trkpt lat="45.77516" lon="3.23316">
        <ele>352.8</ele>
        <time>2024-08-11T10:57:02Z</time>
      </trkpt>
      <trkpt lat="45.77514" lon="3.23333">
        <ele>352.4</ele>
        <time>2024-08-11T10:57:03Z</time>
      </trkpt>
      <trkpt lat="45.77511" lon="3.23349">
        <ele>352.2</ele>
        <time>2024-08-11T10:57:04Z</time>
      </trkpt>
      <trkpt lat="45.77509" lon="3.23365">
        <ele>351.8</ele>
        <time>2024-08-11T10:57:05Z</time>
      </trkpt>
      <trkpt lat="45.77506" lon="3.23381">
        <ele>351.4</ele>
        <time>2024-08-11T10:57:06Z</time>
      </trkpt>
      <trkpt lat="45.77504" lon="3.23396">
        <ele>351</ele>
        <time>2024-08-11T10:57:07Z</time>
      </trkpt>
      <trkpt lat="45.77502" lon="3.23411">
        <ele>350.6</ele>
        <time>2024-08-11T10:57:08Z</time>
      </trkpt>
      <trkpt lat="45.77499" lon="3.23423">
        <ele>350.4</ele>
        <time>2024-08-11T10:57:09Z</time>
      </trkpt>
      <trkpt lat="45.77494" lon="3.23434">
        <ele>350</ele>
        <time>2024-08-11T10:57:10Z</time>
      </trkpt>
      <trkpt lat="45.77491" lon="3.23443">
        <ele>349.8</ele>
        <time>2024-08-11T10:57:11Z</time>
      </trkpt>
      <trkpt lat="45.77489" lon="3.23454">
        <ele>349.4</ele>
        <time>2024-08-11T10:57:12Z</time>
      </trkpt>
      <trkpt lat="45.77491" lon="3.23463">
        <ele>349.2</ele>
        <time>2024-08-11T10:57:13Z</time>
      </trkpt>
      <trkpt lat="45.77499" lon="3.23465">
        <ele>348.8</ele>
        <time>2024-08-11T10:57:14Z</time>
      </trkpt>
      <trkpt lat="45.77504" lon="3.23467">
        <ele>348.6</ele>
        <time>2024-08-11T10:57:15Z</time>
      </trkpt>
      <trkpt lat="45.7751" lon="3.23464">
        <ele>348.2</ele>
        <time>2024-08-11T10:57:16Z</time>
      </trkpt>
      <trkpt lat="45.77516" lon="3.23462">
        <ele>348</ele>
        <time>2024-08-11T10:57:17Z</time>
      </trkpt>
      <trkpt lat="45.77521" lon="3.2346">
        <ele>347.6</ele>
        <time>2024-08-11T10:57:18Z</time>
      </trkpt>
      <trkpt lat="45.77527" lon="3.23459">
        <ele>347.4</ele>
        <time>2024-08-11T10:57:19Z</time>
      </trkpt>
      <trkpt lat="45.77533" lon="3.2346">
        <ele>347.2</ele>
        <time>2024-08-11T10:57:20Z</time>
      </trkpt>
      <trkpt lat="45.77539" lon="3.2346">
        <ele>346.8</ele>
        <time>2024-08-11T10:57:21Z</time>
      </trkpt>
      <trkpt lat="45.77546" lon="3.2346">
        <ele>346.6</ele>
        <time>2024-08-11T10:57:22Z</time>
      </trkpt>
      <trkpt lat="45.77553" lon="3.23461">
        <ele>346.4</ele>
        <time>2024-08-11T10:57:23Z</time>
      </trkpt>
      <trkpt lat="45.7756" lon="3.23461">
        <ele>346.2</ele>
        <time>2024-08-11T10:57:24Z</time>
      </trkpt>
      <trkpt lat="45.77568" lon="3.23461">
        <ele>345.8</ele>
        <time>2024-08-11T10:57:25Z</time>
      </trkpt>
      <trkpt lat="45.77576" lon="3.23462">
        <ele>345.6</ele>
        <time>2024-08-11T10:57:26Z</time>
      </trkpt>
      <trkpt lat="45.77583" lon="3.23466">
        <ele>345.4</ele>
        <time>2024-08-11T10:57:27Z</time>
      </trkpt>
      <trkpt lat="45.77589" lon="3.23471">
        <ele>345</ele>
        <time>2024-08-11T10:57:28Z</time>
      </trkpt>
      <trkpt lat="45.77596" lon="3.23476">
        <ele>344.8</ele>
        <time>2024-08-11T10:57:29Z</time>
      </trkpt>
      <trkpt lat="45.77604" lon="3.2348">
        <ele>344.6</ele>
        <time>2024-08-11T10:57:30Z</time>
      </trkpt>
      <trkpt lat="45.77611" lon="3.23485">
        <ele>344.4</ele>
        <time>2024-08-11T10:57:31Z</time>
      </trkpt>
      <trkpt lat="45.77618" lon="3.2349">
        <ele>344</ele>
        <time>2024-08-11T10:57:32Z</time>
      </trkpt>
      <trkpt lat="45.77624" lon="3.23494">
        <ele>343.8</ele>
        <time>2024-08-11T10:57:33Z</time>
      </trkpt>
      <trkpt lat="45.77631" lon="3.23499">
        <ele>343.6</ele>
        <time>2024-08-11T10:57:34Z</time>
      </trkpt>
      <trkpt lat="45.77637" lon="3.23503">
        <ele>343.2</ele>
        <time>2024-08-11T10:57:35Z</time>
      </trkpt>
      <trkpt lat="45.77644" lon="3.23508">
        <ele>343</ele>
        <time>2024-08-11T10:57:36Z</time>
      </trkpt>
      <trkpt lat="45.7765" lon="3.23512">
        <ele>342.8</ele>
        <time>2024-08-11T10:57:37Z</time>
      </trkpt>
      <trkpt lat="45.77657" lon="3.23517">
        <ele>342.6</ele>
        <time>2024-08-11T10:57:38Z</time>
      </trkpt>
      <trkpt lat="45.77663" lon="3.23521">
        <ele>342.4</ele>
        <time>2024-08-11T10:57:39Z</time>
      </trkpt>
      <trkpt lat="45.7767" lon="3.23525">
        <ele>342.2</ele>
        <time>2024-08-11T10:57:40Z</time>
      </trkpt>
      <trkpt lat="45.77676" lon="3.23529">
        <ele>342</ele>
        <time>2024-08-11T10:57:41Z</time>
      </trkpt>
      <trkpt lat="45.77682" lon="3.23534">
        <ele>341.6</ele>
        <time>2024-08-11T10:57:42Z</time>
      </trkpt>
      <trkpt lat="45.77688" lon="3.23538">
        <ele>341.4</ele>
        <time>2024-08-11T10:57:43Z</time>
      </trkpt>
      <trkpt lat="45.77694" lon="3.23542">
        <ele>341.2</ele>
        <time>2024-08-11T10:57:44Z</time>
      </trkpt>
      <trkpt lat="45.77701" lon="3.23546">
        <ele>341</ele>
        <time>2024-08-11T10:57:45Z</time>
      </trkpt>
      <trkpt lat="45.77707" lon="3.2355">
        <ele>340.8</ele>
        <time>2024-08-11T10:57:46Z</time>
      </trkpt>
      <trkpt lat="45.77713" lon="3.23555">
        <ele>340.6</ele>
        <time>2024-08-11T10:57:47Z</time>
      </trkpt>
      <trkpt lat="45.77719" lon="3.23559">
        <ele>340.2</ele>
        <time>2024-08-11T10:57:48Z</time>
      </trkpt>
      <trkpt lat="45.77725" lon="3.23563">
        <ele>340.2</ele>
        <time>2024-08-11T10:57:49Z</time>
      </trkpt>
      <trkpt lat="45.77731" lon="3.23567">
        <ele>339.8</ele>
        <time>2024-08-11T10:57:50Z</time>
      </trkpt>
      <trkpt lat="45.77737" lon="3.23571">
        <ele>339.8</ele>
        <time>2024-08-11T10:57:51Z</time>
      </trkpt>
      <trkpt lat="45.77743" lon="3.23575">
        <ele>339.4</ele>
        <time>2024-08-11T10:57:52Z</time>
      </trkpt>
      <trkpt lat="45.77749" lon="3.23579">
        <ele>339.4</ele>
        <time>2024-08-11T10:57:53Z</time>
      </trkpt>
      <trkpt lat="45.77754" lon="3.23583">
        <ele>339.2</ele>
        <time>2024-08-11T10:57:54Z</time>
      </trkpt>
      <trkpt lat="45.7776" lon="3.23587">
        <ele>339</ele>
        <time>2024-08-11T10:57:55Z</time>
      </trkpt>
      <trkpt lat="45.77766" lon="3.23591">
        <ele>338.8</ele>
        <time>2024-08-11T10:57:56Z</time>
      </trkpt>
      <trkpt lat="45.77772" lon="3.23594">
        <ele>338.8</ele>
        <time>2024-08-11T10:57:57Z</time>
      </trkpt>
      <trkpt lat="45.77777" lon="3.23598">
        <ele>338.6</ele>
        <time>2024-08-11T10:57:58Z</time>
      </trkpt>
      <trkpt lat="45.77783" lon="3.23602">
        <ele>338.4</ele>
        <time>2024-08-11T10:57:59Z</time>
      </trkpt>
      <trkpt lat="45.77789" lon="3.23606">
        <ele>338.2</ele>
        <time>2024-08-11T10:58:00Z</time>
      </trkpt>
      <trkpt lat="45.77794" lon="3.2361">
        <ele>338</ele>
        <time>2024-08-11T10:58:01Z</time>
      </trkpt>
      <trkpt lat="45.778" lon="3.23614">
        <ele>338</ele>
        <time>2024-08-11T10:58:02Z</time>
      </trkpt>
      <trkpt lat="45.77806" lon="3.23617">
        <ele>337.8</ele>
        <time>2024-08-11T10:58:03Z</time>
      </trkpt>
      <trkpt lat="45.77812" lon="3.23619">
        <ele>337.6</ele>
        <time>2024-08-11T10:58:04Z</time>
      </trkpt>
      <trkpt lat="45.77818" lon="3.23621">
        <ele>337.4</ele>
        <time>2024-08-11T10:58:05Z</time>
      </trkpt>
      <trkpt lat="45.77824" lon="3.23623">
        <ele>337.4</ele>
        <time>2024-08-11T10:58:06Z</time>
      </trkpt>
      <trkpt lat="45.77831" lon="3.23625">
        <ele>337.2</ele>
        <time>2024-08-11T10:58:07Z</time>
      </trkpt>
      <trkpt lat="45.77837" lon="3.23627">
        <ele>337.2</ele>
        <time>2024-08-11T10:58:08Z</time>
      </trkpt>
      <trkpt lat="45.77843" lon="3.23629">
        <ele>337</ele>
        <time>2024-08-11T10:58:09Z</time>
      </trkpt>
      <trkpt lat="45.77849" lon="3.23631">
        <ele>336.8</ele>
        <time>2024-08-11T10:58:10Z</time>
      </trkpt>
      <trkpt lat="45.77855" lon="3.23633">
        <ele>336.8</ele>
        <time>2024-08-11T10:58:11Z</time>
      </trkpt>
      <trkpt lat="45.77861" lon="3.23635">
        <ele>336.6</ele>
        <time>2024-08-11T10:58:12Z</time>
      </trkpt>
      <trkpt lat="45.77868" lon="3.23637">
        <ele>336.6</ele>
        <time>2024-08-11T10:58:13Z</time>
      </trkpt>
      <trkpt lat="45.77873" lon="3.23638">
        <ele>336.6</ele>
        <time>2024-08-11T10:58:14Z</time>
      </trkpt>
      <trkpt lat="45.7788" lon="3.2364">
        <ele>336.4</ele>
        <time>2024-08-11T10:58:15Z</time>
      </trkpt>
      <trkpt lat="45.77886" lon="3.23643">
        <ele>336.2</ele>
        <time>2024-08-11T10:58:16Z</time>
      </trkpt>
      <trkpt lat="45.77892" lon="3.23645">
        <ele>336.2</ele>
        <time>2024-08-11T10:58:17Z</time>
      </trkpt>
      <trkpt lat="45.77898" lon="3.23646">
        <ele>336</ele>
        <time>2024-08-11T10:58:18Z</time>
      </trkpt>
      <trkpt lat="45.77904" lon="3.23648">
        <ele>336</ele>
        <time>2024-08-11T10:58:19Z</time>
      </trkpt>
      <trkpt lat="45.7791" lon="3.2365">
        <ele>335.8</ele>
        <time>2024-08-11T10:58:20Z</time>
      </trkpt>
      <trkpt lat="45.77916" lon="3.23652">
        <ele>335.8</ele>
        <time>2024-08-11T10:58:21Z</time>
      </trkpt>
      <trkpt lat="45.77922" lon="3.23654">
        <ele>335.6</ele>
        <time>2024-08-11T10:58:22Z</time>
      </trkpt>
      <trkpt lat="45.77928" lon="3.23656">
        <ele>335.4</ele>
        <time>2024-08-11T10:58:23Z</time>
      </trkpt>
      <trkpt lat="45.77934" lon="3.23657">
        <ele>335.4</ele>
        <time>2024-08-11T10:58:24Z</time>
      </trkpt>
      <trkpt lat="45.7794" lon="3.23659">
        <ele>335.4</ele>
        <time>2024-08-11T10:58:25Z</time>
      </trkpt>
      <trkpt lat="45.77946" lon="3.23661">
        <ele>335.4</ele>
        <time>2024-08-11T10:58:26Z</time>
      </trkpt>
      <trkpt lat="45.77952" lon="3.23663">
        <ele>335.2</ele>
        <time>2024-08-11T10:58:27Z</time>
      </trkpt>
      <trkpt lat="45.77958" lon="3.23664">
        <ele>335.2</ele>
        <time>2024-08-11T10:58:28Z</time>
      </trkpt>
      <trkpt lat="45.77963" lon="3.23666">
        <ele>335.2</ele>
        <time>2024-08-11T10:58:29Z</time>
      </trkpt>
      <trkpt lat="45.77969" lon="3.23668">
        <ele>335</ele>
        <time>2024-08-11T10:58:30Z</time>
      </trkpt>
      <trkpt lat="45.77974" lon="3.23669">
        <ele>335</ele>
        <time>2024-08-11T10:58:31Z</time>
      </trkpt>
      <trkpt lat="45.7798" lon="3.23671">
        <ele>334.8</ele>
        <time>2024-08-11T10:58:32Z</time>
      </trkpt>
      <trkpt lat="45.77986" lon="3.23673">
        <ele>334.8</ele>
        <time>2024-08-11T10:58:33Z</time>
      </trkpt>
      <trkpt lat="45.77992" lon="3.23675">
        <ele>334.6</ele>
        <time>2024-08-11T10:58:34Z</time>
      </trkpt>
      <trkpt lat="45.77997" lon="3.23676">
        <ele>334.6</ele>
        <time>2024-08-11T10:58:35Z</time>
      </trkpt>
      <trkpt lat="45.78003" lon="3.23678">
        <ele>334.6</ele>
        <time>2024-08-11T10:58:36Z</time>
      </trkpt>
      <trkpt lat="45.78008" lon="3.2368">
        <ele>334.6</ele>
        <time>2024-08-11T10:58:37Z</time>
      </trkpt>
      <trkpt lat="45.78014" lon="3.23681">
        <ele>334.4</ele>
        <time>2024-08-11T10:58:38Z</time>
      </trkpt>
      <trkpt lat="45.78019" lon="3.23683">
        <ele>334.4</ele>
        <time>2024-08-11T10:58:39Z</time>
      </trkpt>
      <trkpt lat="45.78025" lon="3.23684">
        <ele>334.4</ele>
        <time>2024-08-11T10:58:40Z</time>
      </trkpt>
      <trkpt lat="45.7803" lon="3.23686">
        <ele>334.4</ele>
        <time>2024-08-11T10:58:41Z</time>
      </trkpt>
      <trkpt lat="45.78036" lon="3.23687">
        <ele>334.2</ele>
        <time>2024-08-11T10:58:42Z</time>
      </trkpt>
      <trkpt lat="45.78042" lon="3.23688">
        <ele>334.2</ele>
        <time>2024-08-11T10:58:43Z</time>
      </trkpt>
      <trkpt lat="45.78048" lon="3.2369">
        <ele>334</ele>
        <time>2024-08-11T10:58:44Z</time>
      </trkpt>
      <trkpt lat="45.78054" lon="3.23691">
        <ele>334</ele>
        <time>2024-08-11T10:58:45Z</time>
      </trkpt>
      <trkpt lat="45.7806" lon="3.23692">
        <ele>334</ele>
        <time>2024-08-11T10:58:46Z</time>
      </trkpt>
      <trkpt lat="45.78066" lon="3.23693">
        <ele>334</ele>
        <time>2024-08-11T10:58:47Z</time>
      </trkpt>
      <trkpt lat="45.78072" lon="3.23694">
        <ele>333.8</ele>
        <time>2024-08-11T10:58:48Z</time>
      </trkpt>
      <trkpt lat="45.78078" lon="3.23695">
        <ele>333.8</ele>
        <time>2024-08-11T10:58:49Z</time>
      </trkpt>
      <trkpt lat="45.78083" lon="3.23696">
        <ele>333.8</ele>
        <time>2024-08-11T10:58:50Z</time>
      </trkpt>
      <trkpt lat="45.78089" lon="3.23697">
        <ele>333.8</ele>
        <time>2024-08-11T10:58:51Z</time>
      </trkpt>
      <trkpt lat="45.78095" lon="3.23698">
        <ele>333.8</ele>
        <time>2024-08-11T10:58:52Z</time>
      </trkpt>
      <trkpt lat="45.78101" lon="3.23699">
        <ele>333.6</ele>
        <time>2024-08-11T10:58:53Z</time>
      </trkpt>
      <trkpt lat="45.78107" lon="3.237">
        <ele>333.6</ele>
        <time>2024-08-11T10:58:54Z</time>
      </trkpt>
      <trkpt lat="45.78113" lon="3.23701">
        <ele>333.6</ele>
        <time>2024-08-11T10:58:55Z</time>
      </trkpt>
      <trkpt lat="45.78119" lon="3.23702">
        <ele>333.6</ele>
        <time>2024-08-11T10:58:56Z</time>
      </trkpt>
      <trkpt lat="45.78125" lon="3.23703">
        <ele>333.6</ele>
        <time>2024-08-11T10:58:57Z</time>
      </trkpt>
      <trkpt lat="45.7813" lon="3.23705">
        <ele>333.4</ele>
        <time>2024-08-11T10:58:58Z</time>
      </trkpt>
      <trkpt lat="45.78136" lon="3.23706">
        <ele>333.4</ele>
        <time>2024-08-11T10:58:59Z</time>
      </trkpt>
      <trkpt lat="45.78142" lon="3.23707">
        <ele>333.4</ele>
        <time>2024-08-11T10:59:00Z</time>
      </trkpt>
      <trkpt lat="45.78148" lon="3.23708">
        <ele>333.4</ele>
        <time>2024-08-11T10:59:01Z</time>
      </trkpt>
      <trkpt lat="45.78153" lon="3.23709">
        <ele>333.4</ele>
        <time>2024-08-11T10:59:02Z</time>
      </trkpt>
      <trkpt lat="45.78158" lon="3.23711">
        <ele>333.4</ele>
        <time>2024-08-11T10:59:03Z</time>
      </trkpt>
      <trkpt lat="45.78163" lon="3.23713">
        <ele>333.4</ele>
        <time>2024-08-11T10:59:04Z</time>
      </trkpt>
      <trkpt lat="45.78169" lon="3.23715">
        <ele>333.2</ele>
        <time>2024-08-11T10:59:05Z</time>
      </trkpt>
      <trkpt lat="45.78174" lon="3.23717">
        <ele>333.2</ele>
        <time>2024-08-11T10:59:06Z</time>
      </trkpt>
      <trkpt lat="45.78179" lon="3.2372">
        <ele>333.2</ele>
        <time>2024-08-11T10:59:07Z</time>
      </trkpt>
      <trkpt lat="45.78184" lon="3.23722">
        <ele>333.2</ele>
        <time>2024-08-11T10:59:08Z</time>
      </trkpt>
      <trkpt lat="45.7819" lon="3.23724">
        <ele>333.2</ele>
        <time>2024-08-11T10:59:09Z</time>
      </trkpt>
      <trkpt lat="45.78195" lon="3.23726">
        <ele>333.2</ele>
        <time>2024-08-11T10:59:10Z</time>
      </trkpt>
      <trkpt lat="45.78201" lon="3.23728">
        <ele>333.2</ele>
        <time>2024-08-11T10:59:11Z</time>
      </trkpt>
      <trkpt lat="45.78206" lon="3.2373">
        <ele>333.2</ele>
        <time>2024-08-11T10:59:12Z</time>
      </trkpt>
      <trkpt lat="45.78211" lon="3.23733">
        <ele>333.2</ele>
        <time>2024-08-11T10:59:13Z</time>
      </trkpt>
      <trkpt lat="45.78217" lon="3.23736">
        <ele>333</ele>
        <time>2024-08-11T10:59:14Z</time>
      </trkpt>
      <trkpt lat="45.78223" lon="3.23739">
        <ele>333</ele>
        <time>2024-08-11T10:59:15Z</time>
      </trkpt>
      <trkpt lat="45.78228" lon="3.23741">
        <ele>333</ele>
        <time>2024-08-11T10:59:16Z</time>
      </trkpt>
      <trkpt lat="45.78234" lon="3.23744">
        <ele>333</ele>
        <time>2024-08-11T10:59:17Z</time>
      </trkpt>
      <trkpt lat="45.7824" lon="3.23747">
        <ele>333</ele>
        <time>2024-08-11T10:59:18Z</time>
      </trkpt>
      <trkpt lat="45.78245" lon="3.23749">
        <ele>333</ele>
        <time>2024-08-11T10:59:19Z</time>
      </trkpt>
      <trkpt lat="45.7825" lon="3.23752">
        <ele>333</ele>
        <time>2024-08-11T10:59:20Z</time>
      </trkpt>
      <trkpt lat="45.78256" lon="3.23755">
        <ele>333</ele>
        <time>2024-08-11T10:59:21Z</time>
      </trkpt>
      <trkpt lat="45.78261" lon="3.23757">
        <ele>333</ele>
        <time>2024-08-11T10:59:22Z</time>
      </trkpt>
      <trkpt lat="45.78266" lon="3.23759">
        <ele>333</ele>
        <time>2024-08-11T10:59:23Z</time>
      </trkpt>
      <trkpt lat="45.78271" lon="3.23762">
        <ele>333</ele>
        <time>2024-08-11T10:59:24Z</time>
      </trkpt>
      <trkpt lat="45.78276" lon="3.23765">
        <ele>333</ele>
        <time>2024-08-11T10:59:25Z</time>
      </trkpt>
      <trkpt lat="45.78281" lon="3.23767">
        <ele>333</ele>
        <time>2024-08-11T10:59:26Z</time>
      </trkpt>
      <trkpt lat="45.78287" lon="3.2377">
        <ele>333</ele>
        <time>2024-08-11T10:59:27Z</time>
      </trkpt>
      <trkpt lat="45.78293" lon="3.23773">
        <ele>333</ele>
        <time>2024-08-11T10:59:28Z</time>
      </trkpt>
      <trkpt lat="45.78298" lon="3.23774">
        <ele>333</ele>
        <time>2024-08-11T10:59:29Z</time>
      </trkpt>
      <trkpt lat="45.78304" lon="3.23776">
        <ele>332.8</ele>
        <time>2024-08-11T10:59:30Z</time>
      </trkpt>
      <trkpt lat="45.7831" lon="3.23777">
        <ele>332.8</ele>
        <time>2024-08-11T10:59:31Z</time>
      </trkpt>
      <trkpt lat="45.78316" lon="3.23778">
        <ele>332.8</ele>
        <time>2024-08-11T10:59:32Z</time>
      </trkpt>
      <trkpt lat="45.78321" lon="3.2378">
        <ele>332.6</ele>
        <time>2024-08-11T10:59:33Z</time>
      </trkpt>
      <trkpt lat="45.78327" lon="3.23781">
        <ele>332.6</ele>
        <time>2024-08-11T10:59:34Z</time>
      </trkpt>
      <trkpt lat="45.78332" lon="3.23783">
        <ele>332.6</ele>
        <time>2024-08-11T10:59:35Z</time>
      </trkpt>
      <trkpt lat="45.78338" lon="3.23784">
        <ele>332.6</ele>
        <time>2024-08-11T10:59:36Z</time>
      </trkpt>
      <trkpt lat="45.78343" lon="3.23785">
        <ele>332.6</ele>
        <time>2024-08-11T10:59:37Z</time>
      </trkpt>
      <trkpt lat="45.78349" lon="3.23786">
        <ele>332.4</ele>
        <time>2024-08-11T10:59:38Z</time>
      </trkpt>
      <trkpt lat="45.78355" lon="3.23786">
        <ele>332.4</ele>
        <time>2024-08-11T10:59:39Z</time>
      </trkpt>
      <trkpt lat="45.7836" lon="3.23787">
        <ele>332.4</ele>
        <time>2024-08-11T10:59:40Z</time>
      </trkpt>
      <trkpt lat="45.78366" lon="3.23787">
        <ele>332.4</ele>
        <time>2024-08-11T10:59:41Z</time>
      </trkpt>
      <trkpt lat="45.78372" lon="3.23788">
        <ele>332.4</ele>
        <time>2024-08-11T10:59:42Z</time>
      </trkpt>
      <trkpt lat="45.78377" lon="3.23788">
        <ele>332.4</ele>
        <time>2024-08-11T10:59:43Z</time>
      </trkpt>
      <trkpt lat="45.78383" lon="3.23789">
        <ele>332.4</ele>
        <time>2024-08-11T10:59:44Z</time>
      </trkpt>
      <trkpt lat="45.78388" lon="3.23789">
        <ele>332.4</ele>
        <time>2024-08-11T10:59:45Z</time>
      </trkpt>
      <trkpt lat="45.78394" lon="3.2379">
        <ele>332.4</ele>
        <time>2024-08-11T10:59:46Z</time>
      </trkpt>
      <trkpt lat="45.784" lon="3.2379">
        <ele>332.2</ele>
        <time>2024-08-11T10:59:47Z</time>
      </trkpt>
      <trkpt lat="45.78405" lon="3.23791">
        <ele>332.2</ele>
        <time>2024-08-11T10:59:48Z</time>
      </trkpt>
      <trkpt lat="45.78411" lon="3.23791">
        <ele>332.2</ele>
        <time>2024-08-11T10:59:49Z</time>
      </trkpt>
      <trkpt lat="45.78417" lon="3.23792">
        <ele>332.2</ele>
        <time>2024-08-11T10:59:50Z</time>
      </trkpt>
      <trkpt lat="45.78423" lon="3.23792">
        <ele>332.4</ele>
        <time>2024-08-11T10:59:51Z</time>
      </trkpt>
      <trkpt lat="45.78428" lon="3.23793">
        <ele>332.4</ele>
        <time>2024-08-11T10:59:52Z</time>
      </trkpt>
      <trkpt lat="45.78434" lon="3.23793">
        <ele>332.4</ele>
        <time>2024-08-11T10:59:53Z</time>
      </trkpt>
      <trkpt lat="45.7844" lon="3.23794">
        <ele>332.4</ele>
        <time>2024-08-11T10:59:54Z</time>
      </trkpt>
      <trkpt lat="45.78446" lon="3.23794">
        <ele>332.4</ele>
        <time>2024-08-11T10:59:55Z</time>
      </trkpt>
      <trkpt lat="45.78452" lon="3.23795">
        <ele>332.4</ele>
        <time>2024-08-11T10:59:56Z</time>
      </trkpt>
      <trkpt lat="45.78458" lon="3.23795">
        <ele>332.4</ele>
        <time>2024-08-11T10:59:57Z</time>
      </trkpt>
      <trkpt lat="45.78464" lon="3.23796">
        <ele>332.4</ele>
        <time>2024-08-11T10:59:58Z</time>
      </trkpt>
      <trkpt lat="45.7847" lon="3.23796">
        <ele>332.4</ele>
        <time>2024-08-11T10:59:59Z</time>
      </trkpt>
      <trkpt lat="45.78476" lon="3.23797">
        <ele>332.2</ele>
        <time>2024-08-11T11:00:00Z</time>
      </trkpt>
      <trkpt lat="45.78482" lon="3.23797">
        <ele>332.4</ele>
        <time>2024-08-11T11:00:01Z</time>
      </trkpt>
      <trkpt lat="45.78488" lon="3.23798">
        <ele>332.2</ele>
        <time>2024-08-11T11:00:02Z</time>
      </trkpt>
      <trkpt lat="45.78494" lon="3.23798">
        <ele>332.4</ele>
        <time>2024-08-11T11:00:03Z</time>
      </trkpt>
      <trkpt lat="45.785" lon="3.23799">
        <ele>332.4</ele>
        <time>2024-08-11T11:00:04Z</time>
      </trkpt>
      <trkpt lat="45.78506" lon="3.238">
        <ele>332.4</ele>
        <time>2024-08-11T11:00:05Z</time>
      </trkpt>
      <trkpt lat="45.78513" lon="3.23802">
        <ele>332.6</ele>
        <time>2024-08-11T11:00:06Z</time>
      </trkpt>
      <trkpt lat="45.78519" lon="3.23803">
        <ele>332.4</ele>
        <time>2024-08-11T11:00:07Z</time>
      </trkpt>
      <trkpt lat="45.78525" lon="3.23805">
        <ele>332.2</ele>
        <time>2024-08-11T11:00:08Z</time>
      </trkpt>
      <trkpt lat="45.78531" lon="3.23807">
        <ele>332.2</ele>
        <time>2024-08-11T11:00:09Z</time>
      </trkpt>
      <trkpt lat="45.78537" lon="3.23808">
        <ele>332.2</ele>
        <time>2024-08-11T11:00:10Z</time>
      </trkpt>
      <trkpt lat="45.78543" lon="3.23809">
        <ele>332.2</ele>
        <time>2024-08-11T11:00:11Z</time>
      </trkpt>
      <trkpt lat="45.78549" lon="3.23811">
        <ele>332.2</ele>
        <time>2024-08-11T11:00:12Z</time>
      </trkpt>
      <trkpt lat="45.78555" lon="3.23812">
        <ele>332.2</ele>
        <time>2024-08-11T11:00:13Z</time>
      </trkpt>
      <trkpt lat="45.78561" lon="3.23814">
        <ele>332.2</ele>
        <time>2024-08-11T11:00:14Z</time>
      </trkpt>
      <trkpt lat="45.78568" lon="3.23816">
        <ele>332.2</ele>
        <time>2024-08-11T11:00:15Z</time>
      </trkpt>
      <trkpt lat="45.78574" lon="3.23817">
        <ele>332.2</ele>
        <time>2024-08-11T11:00:16Z</time>
      </trkpt>
      <trkpt lat="45.7858" lon="3.23819">
        <ele>332.2</ele>
        <time>2024-08-11T11:00:17Z</time>
      </trkpt>
      <trkpt lat="45.78587" lon="3.2382">
        <ele>332.2</ele>
        <time>2024-08-11T11:00:18Z</time>
      </trkpt>
      <trkpt lat="45.78593" lon="3.23822">
        <ele>332.2</ele>
        <time>2024-08-11T11:00:19Z</time>
      </trkpt>
      <trkpt lat="45.786" lon="3.23824">
        <ele>332.2</ele>
        <time>2024-08-11T11:00:20Z</time>
      </trkpt>
      <trkpt lat="45.78606" lon="3.23825">
        <ele>332.2</ele>
        <time>2024-08-11T11:00:21Z</time>
      </trkpt>
      <trkpt lat="45.78612" lon="3.23827">
        <ele>332</ele>
        <time>2024-08-11T11:00:22Z</time>
      </trkpt>
      <trkpt lat="45.78619" lon="3.23828">
        <ele>332</ele>
        <time>2024-08-11T11:00:23Z</time>
      </trkpt>
      <trkpt lat="45.78625" lon="3.2383">
        <ele>332</ele>
        <time>2024-08-11T11:00:24Z</time>
      </trkpt>
      <trkpt lat="45.78632" lon="3.23831">
        <ele>332</ele>
        <time>2024-08-11T11:00:25Z</time>
      </trkpt>
      <trkpt lat="45.78638" lon="3.23831">
        <ele>332</ele>
        <time>2024-08-11T11:00:26Z</time>
      </trkpt>
      <trkpt lat="45.78645" lon="3.23832">
        <ele>332</ele>
        <time>2024-08-11T11:00:27Z</time>
      </trkpt>
      <trkpt lat="45.78652" lon="3.23833">
        <ele>332</ele>
        <time>2024-08-11T11:00:28Z</time>
      </trkpt>
      <trkpt lat="45.78658" lon="3.23833">
        <ele>332</ele>
        <time>2024-08-11T11:00:29Z</time>
      </trkpt>
      <trkpt lat="45.78665" lon="3.23834">
        <ele>331.8</ele>
        <time>2024-08-11T11:00:30Z</time>
      </trkpt>
      <trkpt lat="45.78672" lon="3.23834">
        <ele>331.8</ele>
        <time>2024-08-11T11:00:31Z</time>
      </trkpt>
      <trkpt lat="45.78677" lon="3.23835">
        <ele>331.8</ele>
        <time>2024-08-11T11:00:32Z</time>
      </trkpt>
      <trkpt lat="45.78683" lon="3.23835">
        <ele>332</ele>
        <time>2024-08-11T11:00:33Z</time>
      </trkpt>
      <trkpt lat="45.78689" lon="3.23836">
        <ele>331.8</ele>
        <time>2024-08-11T11:00:34Z</time>
      </trkpt>
      <trkpt lat="45.78694" lon="3.23836">
        <ele>332</ele>
        <time>2024-08-11T11:00:35Z</time>
      </trkpt>
      <trkpt lat="45.787" lon="3.23837">
        <ele>332</ele>
        <time>2024-08-11T11:00:36Z</time>
      </trkpt>
      <trkpt lat="45.78706" lon="3.23837">
        <ele>332</ele>
        <time>2024-08-11T11:00:37Z</time>
      </trkpt>
      <trkpt lat="45.78712" lon="3.23838">
        <ele>332</ele>
        <time>2024-08-11T11:00:38Z</time>
      </trkpt>
      <trkpt lat="45.78718" lon="3.23838">
        <ele>332</ele>
        <time>2024-08-11T11:00:39Z</time>
      </trkpt>
      <trkpt lat="45.78724" lon="3.23839">
        <ele>331.8</ele>
        <time>2024-08-11T11:00:40Z</time>
      </trkpt>
      <trkpt lat="45.78729" lon="3.23839">
        <ele>331.8</ele>
        <time>2024-08-11T11:00:41Z</time>
      </trkpt>
      <trkpt lat="45.78734" lon="3.2384">
        <ele>332</ele>
        <time>2024-08-11T11:00:42Z</time>
      </trkpt>
      <trkpt lat="45.7874" lon="3.2384">
        <ele>332</ele>
        <time>2024-08-11T11:00:43Z</time>
      </trkpt>
      <trkpt lat="45.78746" lon="3.2384">
        <ele>332</ele>
        <time>2024-08-11T11:00:44Z</time>
      </trkpt>
      <trkpt lat="45.78751" lon="3.23841">
        <ele>332</ele>
        <time>2024-08-11T11:00:45Z</time>
      </trkpt>
      <trkpt lat="45.78758" lon="3.23842">
        <ele>331.8</ele>
        <time>2024-08-11T11:00:46Z</time>
      </trkpt>
      <trkpt lat="45.78765" lon="3.23842">
        <ele>331.8</ele>
        <time>2024-08-11T11:00:47Z</time>
      </trkpt>
      <trkpt lat="45.78771" lon="3.23843">
        <ele>331.8</ele>
        <time>2024-08-11T11:00:48Z</time>
      </trkpt>
      <trkpt lat="45.78777" lon="3.23843">
        <ele>331.8</ele>
        <time>2024-08-11T11:00:49Z</time>
      </trkpt>
      <trkpt lat="45.78783" lon="3.23844">
        <ele>331.8</ele>
        <time>2024-08-11T11:00:50Z</time>
      </trkpt>
      <trkpt lat="45.78788" lon="3.23844">
        <ele>331.8</ele>
        <time>2024-08-11T11:00:51Z</time>
      </trkpt>
      <trkpt lat="45.78794" lon="3.23845">
        <ele>331.8</ele>
        <time>2024-08-11T11:00:52Z</time>
      </trkpt>
      <trkpt lat="45.788" lon="3.23846">
        <ele>331.8</ele>
        <time>2024-08-11T11:00:53Z</time>
      </trkpt>
      <trkpt lat="45.78806" lon="3.23847">
        <ele>331.8</ele>
        <time>2024-08-11T11:00:54Z</time>
      </trkpt>
      <trkpt lat="45.78812" lon="3.23847">
        <ele>331.8</ele>
        <time>2024-08-11T11:00:55Z</time>
      </trkpt>
      <trkpt lat="45.78818" lon="3.23848">
        <ele>331.8</ele>
        <time>2024-08-11T11:00:56Z</time>
      </trkpt>
      <trkpt lat="45.78823" lon="3.23849">
        <ele>331.8</ele>
        <time>2024-08-11T11:00:57Z</time>
      </trkpt>
      <trkpt lat="45.78829" lon="3.2385">
        <ele>332</ele>
        <time>2024-08-11T11:00:58Z</time>
      </trkpt>
      <trkpt lat="45.78835" lon="3.23851">
        <ele>332</ele>
        <time>2024-08-11T11:00:59Z</time>
      </trkpt>
      <trkpt lat="45.7884" lon="3.23853">
        <ele>332</ele>
        <time>2024-08-11T11:01:00Z</time>
      </trkpt>
      <trkpt lat="45.78846" lon="3.23855">
        <ele>332</ele>
        <time>2024-08-11T11:01:01Z</time>
      </trkpt>
      <trkpt lat="45.78851" lon="3.23857">
        <ele>332</ele>
        <time>2024-08-11T11:01:02Z</time>
      </trkpt>
      <trkpt lat="45.78857" lon="3.23858">
        <ele>332</ele>
        <time>2024-08-11T11:01:03Z</time>
      </trkpt>
      <trkpt lat="45.78862" lon="3.2386">
        <ele>332</ele>
        <time>2024-08-11T11:01:04Z</time>
      </trkpt>
      <trkpt lat="45.78868" lon="3.23863">
        <ele>332</ele>
        <time>2024-08-11T11:01:05Z</time>
      </trkpt>
      <trkpt lat="45.78874" lon="3.23865">
        <ele>331.8</ele>
        <time>2024-08-11T11:01:06Z</time>
      </trkpt>
      <trkpt lat="45.78881" lon="3.23868">
        <ele>331.8</ele>
        <time>2024-08-11T11:01:07Z</time>
      </trkpt>
      <trkpt lat="45.78887" lon="3.2387">
        <ele>331.8</ele>
        <time>2024-08-11T11:01:08Z</time>
      </trkpt>
      <trkpt lat="45.78893" lon="3.23873">
        <ele>331.8</ele>
        <time>2024-08-11T11:01:09Z</time>
      </trkpt>
      <trkpt lat="45.789" lon="3.23875">
        <ele>331.8</ele>
        <time>2024-08-11T11:01:10Z</time>
      </trkpt>
      <trkpt lat="45.78907" lon="3.23878">
        <ele>331.8</ele>
        <time>2024-08-11T11:01:11Z</time>
      </trkpt>
      <trkpt lat="45.78913" lon="3.2388">
        <ele>331.8</ele>
        <time>2024-08-11T11:01:12Z</time>
      </trkpt>
      <trkpt lat="45.7892" lon="3.23883">
        <ele>331.6</ele>
        <time>2024-08-11T11:01:13Z</time>
      </trkpt>
      <trkpt lat="45.78926" lon="3.23885">
        <ele>331.6</ele>
        <time>2024-08-11T11:01:14Z</time>
      </trkpt>
      <trkpt lat="45.78933" lon="3.23888">
        <ele>331.6</ele>
        <time>2024-08-11T11:01:15Z</time>
      </trkpt>
      <trkpt lat="45.78939" lon="3.2389">
        <ele>331.4</ele>
        <time>2024-08-11T11:01:16Z</time>
      </trkpt>
      <trkpt lat="45.78946" lon="3.23893">
        <ele>331.4</ele>
        <time>2024-08-11T11:01:17Z</time>
      </trkpt>
      <trkpt lat="45.78951" lon="3.23895">
        <ele>331.4</ele>
        <time>2024-08-11T11:01:18Z</time>
      </trkpt>
      <trkpt lat="45.78958" lon="3.23897">
        <ele>331.4</ele>
        <time>2024-08-11T11:01:19Z</time>
      </trkpt>
      <trkpt lat="45.78964" lon="3.239">
        <ele>331.4</ele>
        <time>2024-08-11T11:01:20Z</time>
      </trkpt>
      <trkpt lat="45.7897" lon="3.23902">
        <ele>331.4</ele>
        <time>2024-08-11T11:01:21Z</time>
      </trkpt>
      <trkpt lat="45.78976" lon="3.23904">
        <ele>331.2</ele>
        <time>2024-08-11T11:01:22Z</time>
      </trkpt>
      <trkpt lat="45.78982" lon="3.23907">
        <ele>331.2</ele>
        <time>2024-08-11T11:01:23Z</time>
      </trkpt>
      <trkpt lat="45.78988" lon="3.23909">
        <ele>331.2</ele>
        <time>2024-08-11T11:01:24Z</time>
      </trkpt>
      <trkpt lat="45.78993" lon="3.23912">
        <ele>331</ele>
        <time>2024-08-11T11:01:25Z</time>
      </trkpt>
      <trkpt lat="45.79" lon="3.23914">
        <ele>331</ele>
        <time>2024-08-11T11:01:26Z</time>
      </trkpt>
      <trkpt lat="45.79006" lon="3.23917">
        <ele>331</ele>
        <time>2024-08-11T11:01:27Z</time>
      </trkpt>
      <trkpt lat="45.79013" lon="3.23919">
        <ele>331</ele>
        <time>2024-08-11T11:01:28Z</time>
      </trkpt>
      <trkpt lat="45.79019" lon="3.23922">
        <ele>331</ele>
        <time>2024-08-11T11:01:29Z</time>
      </trkpt>
      <trkpt lat="45.79025" lon="3.23925">
        <ele>331</ele>
        <time>2024-08-11T11:01:30Z</time>
      </trkpt>
      <trkpt lat="45.79032" lon="3.23927">
        <ele>330.8</ele>
        <time>2024-08-11T11:01:31Z</time>
      </trkpt>
      <trkpt lat="45.79038" lon="3.23929">
        <ele>330.8</ele>
        <time>2024-08-11T11:01:32Z</time>
      </trkpt>
      <trkpt lat="45.79044" lon="3.23932">
        <ele>330.8</ele>
        <time>2024-08-11T11:01:33Z</time>
      </trkpt>
      <trkpt lat="45.7905" lon="3.23934">
        <ele>330.8</ele>
        <time>2024-08-11T11:01:34Z</time>
      </trkpt>
      <trkpt lat="45.79056" lon="3.23937">
        <ele>330.8</ele>
        <time>2024-08-11T11:01:35Z</time>
      </trkpt>
      <trkpt lat="45.79062" lon="3.23939">
        <ele>330.6</ele>
        <time>2024-08-11T11:01:36Z</time>
      </trkpt>
      <trkpt lat="45.79068" lon="3.23941">
        <ele>330.6</ele>
        <time>2024-08-11T11:01:37Z</time>
      </trkpt>
      <trkpt lat="45.79075" lon="3.23943">
        <ele>330.6</ele>
        <time>2024-08-11T11:01:38Z</time>
      </trkpt>
      <trkpt lat="45.7908" lon="3.23945">
        <ele>330.6</ele>
        <time>2024-08-11T11:01:39Z</time>
      </trkpt>
      <trkpt lat="45.79087" lon="3.23946">
        <ele>330.6</ele>
        <time>2024-08-11T11:01:40Z</time>
      </trkpt>
      <trkpt lat="45.79093" lon="3.23948">
        <ele>330.6</ele>
        <time>2024-08-11T11:01:41Z</time>
      </trkpt>
      <trkpt lat="45.79098" lon="3.2395">
        <ele>330.6</ele>
        <time>2024-08-11T11:01:42Z</time>
      </trkpt>
      <trkpt lat="45.79104" lon="3.23952">
        <ele>330.6</ele>
        <time>2024-08-11T11:01:43Z</time>
      </trkpt>
      <trkpt lat="45.7911" lon="3.23953">
        <ele>330.4</ele>
        <time>2024-08-11T11:01:44Z</time>
      </trkpt>
      <trkpt lat="45.79116" lon="3.23955">
        <ele>330.4</ele>
        <time>2024-08-11T11:01:45Z</time>
      </trkpt>
      <trkpt lat="45.79122" lon="3.23957">
        <ele>330.4</ele>
        <time>2024-08-11T11:01:46Z</time>
      </trkpt>
      <trkpt lat="45.79128" lon="3.23958">
        <ele>330.4</ele>
        <time>2024-08-11T11:01:47Z</time>
      </trkpt>
      <trkpt lat="45.79134" lon="3.2396">
        <ele>330.4</ele>
        <time>2024-08-11T11:01:48Z</time>
      </trkpt>
      <trkpt lat="45.7914" lon="3.23962">
        <ele>330.2</ele>
        <time>2024-08-11T11:01:49Z</time>
      </trkpt>
      <trkpt lat="45.79146" lon="3.23963">
        <ele>330.2</ele>
        <time>2024-08-11T11:01:50Z</time>
      </trkpt>
      <trkpt lat="45.79152" lon="3.23964">
        <ele>330.2</ele>
        <time>2024-08-11T11:01:51Z</time>
      </trkpt>
      <trkpt lat="45.79158" lon="3.23966">
        <ele>330.2</ele>
        <time>2024-08-11T11:01:52Z</time>
      </trkpt>
      <trkpt lat="45.79164" lon="3.23967">
        <ele>330.2</ele>
        <time>2024-08-11T11:01:53Z</time>
      </trkpt>
      <trkpt lat="45.7917" lon="3.23969">
        <ele>330.2</ele>
        <time>2024-08-11T11:01:54Z</time>
      </trkpt>
      <trkpt lat="45.79176" lon="3.2397">
        <ele>330.2</ele>
        <time>2024-08-11T11:01:55Z</time>
      </trkpt>
      <trkpt lat="45.79181" lon="3.23973">
        <ele>330.2</ele>
        <time>2024-08-11T11:01:56Z</time>
      </trkpt>
      <trkpt lat="45.79186" lon="3.23975">
        <ele>330.2</ele>
        <time>2024-08-11T11:01:57Z</time>
      </trkpt>
      <trkpt lat="45.79191" lon="3.23977">
        <ele>330.2</ele>
        <time>2024-08-11T11:01:58Z</time>
      </trkpt>
      <trkpt lat="45.79197" lon="3.23979">
        <ele>330.2</ele>
        <time>2024-08-11T11:01:59Z</time>
      </trkpt>
      <trkpt lat="45.79203" lon="3.2398">
        <ele>330.2</ele>
        <time>2024-08-11T11:02:00Z</time>
      </trkpt>
      <trkpt lat="45.79209" lon="3.2398">
        <ele>330</ele>
        <time>2024-08-11T11:02:01Z</time>
      </trkpt>
      <trkpt lat="45.79214" lon="3.2398">
        <ele>330</ele>
        <time>2024-08-11T11:02:02Z</time>
      </trkpt>
      <trkpt lat="45.7922" lon="3.23979">
        <ele>330</ele>
        <time>2024-08-11T11:02:03Z</time>
      </trkpt>
      <trkpt lat="45.79227" lon="3.2398">
        <ele>329.8</ele>
        <time>2024-08-11T11:02:04Z</time>
      </trkpt>
      <trkpt lat="45.79233" lon="3.23981">
        <ele>329.8</ele>
        <time>2024-08-11T11:02:05Z</time>
      </trkpt>
      <trkpt lat="45.79239" lon="3.23982">
        <ele>329.8</ele>
        <time>2024-08-11T11:02:06Z</time>
      </trkpt>
      <trkpt lat="45.79245" lon="3.23983">
        <ele>329.8</ele>
        <time>2024-08-11T11:02:07Z</time>
      </trkpt>
      <trkpt lat="45.79251" lon="3.23984">
        <ele>329.8</ele>
        <time>2024-08-11T11:02:08Z</time>
      </trkpt>
      <trkpt lat="45.79258" lon="3.23985">
        <ele>329.8</ele>
        <time>2024-08-11T11:02:09Z</time>
      </trkpt>
      <trkpt lat="45.79263" lon="3.23986">
        <ele>329.8</ele>
        <time>2024-08-11T11:02:10Z</time>
      </trkpt>
      <trkpt lat="45.79269" lon="3.23987">
        <ele>329.8</ele>
        <time>2024-08-11T11:02:11Z</time>
      </trkpt>
      <trkpt lat="45.79274" lon="3.23988">
        <ele>329.8</ele>
        <time>2024-08-11T11:02:12Z</time>
      </trkpt>
      <trkpt lat="45.7928" lon="3.23989">
        <ele>329.8</ele>
        <time>2024-08-11T11:02:13Z</time>
      </trkpt>
      <trkpt lat="45.79286" lon="3.2399">
        <ele>329.8</ele>
        <time>2024-08-11T11:02:14Z</time>
      </trkpt>
      <trkpt lat="45.79291" lon="3.23991">
        <ele>329.8</ele>
        <time>2024-08-11T11:02:15Z</time>
      </trkpt>
      <trkpt lat="45.79296" lon="3.23991">
        <ele>329.8</ele>
        <time>2024-08-11T11:02:16Z</time>
      </trkpt>
      <trkpt lat="45.79301" lon="3.23992">
        <ele>329.8</ele>
        <time>2024-08-11T11:02:17Z</time>
      </trkpt>
      <trkpt lat="45.79307" lon="3.23993">
        <ele>329.8</ele>
        <time>2024-08-11T11:02:18Z</time>
      </trkpt>
      <trkpt lat="45.79312" lon="3.23994">
        <ele>329.6</ele>
        <time>2024-08-11T11:02:19Z</time>
      </trkpt>
      <trkpt lat="45.79318" lon="3.23995">
        <ele>329.8</ele>
        <time>2024-08-11T11:02:20Z</time>
      </trkpt>
      <trkpt lat="45.79323" lon="3.23996">
        <ele>329.6</ele>
        <time>2024-08-11T11:02:21Z</time>
      </trkpt>
      <trkpt lat="45.79328" lon="3.23997">
        <ele>329.8</ele>
        <time>2024-08-11T11:02:22Z</time>
      </trkpt>
      <trkpt lat="45.79333" lon="3.23997">
        <ele>329.8</ele>
        <time>2024-08-11T11:02:23Z</time>
      </trkpt>
      <trkpt lat="45.79338" lon="3.23998">
        <ele>330</ele>
        <time>2024-08-11T11:02:24Z</time>
      </trkpt>
      <trkpt lat="45.79343" lon="3.23999">
        <ele>330.4</ele>
        <time>2024-08-11T11:02:25Z</time>
      </trkpt>
      <trkpt lat="45.79348" lon="3.24">
        <ele>330.4</ele>
        <time>2024-08-11T11:02:26Z</time>
      </trkpt>
      <trkpt lat="45.79353" lon="3.24001">
        <ele>330.2</ele>
        <time>2024-08-11T11:02:27Z</time>
      </trkpt>
      <trkpt lat="45.79358" lon="3.24001">
        <ele>330.2</ele>
        <time>2024-08-11T11:02:28Z</time>
      </trkpt>
      <trkpt lat="45.79363" lon="3.24002">
        <ele>330.2</ele>
        <time>2024-08-11T11:02:29Z</time>
      </trkpt>
      <trkpt lat="45.79368" lon="3.24003">
        <ele>330.2</ele>
        <time>2024-08-11T11:02:30Z</time>
      </trkpt>
      <trkpt lat="45.79373" lon="3.24003">
        <ele>330</ele>
        <time>2024-08-11T11:02:31Z</time>
      </trkpt>
      <trkpt lat="45.79378" lon="3.24003">
        <ele>330</ele>
        <time>2024-08-11T11:02:32Z</time>
      </trkpt>
      <trkpt lat="45.79383" lon="3.24003">
        <ele>330</ele>
        <time>2024-08-11T11:02:33Z</time>
      </trkpt>
      <trkpt lat="45.79388" lon="3.24004">
        <ele>330</ele>
        <time>2024-08-11T11:02:34Z</time>
      </trkpt>
      <trkpt lat="45.79393" lon="3.24004">
        <ele>330</ele>
        <time>2024-08-11T11:02:35Z</time>
      </trkpt>
      <trkpt lat="45.79398" lon="3.24004">
        <ele>330.2</ele>
        <time>2024-08-11T11:02:36Z</time>
      </trkpt>
      <trkpt lat="45.79403" lon="3.24005">
        <ele>330</ele>
        <time>2024-08-11T11:02:37Z</time>
      </trkpt>
      <trkpt lat="45.79407" lon="3.24005">
        <ele>330</ele>
        <time>2024-08-11T11:02:38Z</time>
      </trkpt>
      <trkpt lat="45.79412" lon="3.24005">
        <ele>330</ele>
        <time>2024-08-11T11:02:39Z</time>
      </trkpt>
      <trkpt lat="45.79417" lon="3.24006">
        <ele>330</ele>
        <time>2024-08-11T11:02:40Z</time>
      </trkpt>
      <trkpt lat="45.79422" lon="3.24006">
        <ele>330</ele>
        <time>2024-08-11T11:02:41Z</time>
      </trkpt>
      <trkpt lat="45.79427" lon="3.24006">
        <ele>330</ele>
        <time>2024-08-11T11:02:42Z</time>
      </trkpt>
      <trkpt lat="45.79432" lon="3.24007">
        <ele>330.2</ele>
        <time>2024-08-11T11:02:43Z</time>
      </trkpt>
      <trkpt lat="45.79437" lon="3.24007">
        <ele>330.2</ele>
        <time>2024-08-11T11:02:44Z</time>
      </trkpt>
      <trkpt lat="45.79441" lon="3.24008">
        <ele>330.2</ele>
        <time>2024-08-11T11:02:45Z</time>
      </trkpt>
      <trkpt lat="45.79446" lon="3.24009">
        <ele>330.2</ele>
        <time>2024-08-11T11:02:46Z</time>
      </trkpt>
      <trkpt lat="45.7945" lon="3.2401">
        <ele>330.4</ele>
        <time>2024-08-11T11:02:47Z</time>
      </trkpt>
      <trkpt lat="45.79454" lon="3.2401">
        <ele>330.2</ele>
        <time>2024-08-11T11:02:48Z</time>
      </trkpt>
      <trkpt lat="45.79457" lon="3.24011">
        <ele>330.4</ele>
        <time>2024-08-11T11:02:49Z</time>
      </trkpt>
      <trkpt lat="45.79461" lon="3.24012">
        <ele>330.4</ele>
        <time>2024-08-11T11:02:50Z</time>
      </trkpt>
      <trkpt lat="45.79464" lon="3.24012">
        <ele>330.4</ele>
        <time>2024-08-11T11:02:51Z</time>
      </trkpt>
      <trkpt lat="45.79468" lon="3.24013">
        <ele>330.6</ele>
        <time>2024-08-11T11:02:52Z</time>
      </trkpt>
      <trkpt lat="45.79471" lon="3.24013">
        <ele>330.6</ele>
        <time>2024-08-11T11:02:53Z</time>
      </trkpt>
      <trkpt lat="45.79474" lon="3.24014">
        <ele>330.6</ele>
        <time>2024-08-11T11:02:54Z</time>
      </trkpt>
      <trkpt lat="45.79477" lon="3.24014">
        <ele>330.6</ele>
        <time>2024-08-11T11:02:55Z</time>
      </trkpt>
      <trkpt lat="45.7948" lon="3.24015">
        <ele>330.8</ele>
        <time>2024-08-11T11:02:56Z</time>
      </trkpt>
      <trkpt lat="45.79483" lon="3.24015">
        <ele>330.8</ele>
        <time>2024-08-11T11:02:57Z</time>
      </trkpt>
      <trkpt lat="45.79486" lon="3.24016">
        <ele>330.8</ele>
        <time>2024-08-11T11:02:58Z</time>
      </trkpt>
      <trkpt lat="45.79489" lon="3.24016">
        <ele>330.8</ele>
        <time>2024-08-11T11:02:59Z</time>
      </trkpt>
      <trkpt lat="45.79492" lon="3.24017">
        <ele>330.8</ele>
        <time>2024-08-11T11:03:00Z</time>
      </trkpt>
      <trkpt lat="45.79495" lon="3.24017">
        <ele>330.8</ele>
        <time>2024-08-11T11:03:01Z</time>
      </trkpt>
      <trkpt lat="45.79497" lon="3.24018">
        <ele>330.8</ele>
        <time>2024-08-11T11:03:02Z</time>
      </trkpt>
      <trkpt lat="45.795" lon="3.24018">
        <ele>331</ele>
        <time>2024-08-11T11:03:03Z</time>
      </trkpt>
      <trkpt lat="45.79502" lon="3.24019">
        <ele>331</ele>
        <time>2024-08-11T11:03:04Z</time>
      </trkpt>
      <trkpt lat="45.79504" lon="3.24019">
        <ele>331</ele>
        <time>2024-08-11T11:03:05Z</time>
      </trkpt>
      <trkpt lat="45.79507" lon="3.24019">
        <ele>331</ele>
        <time>2024-08-11T11:03:06Z</time>
      </trkpt>
      <trkpt lat="45.79509" lon="3.2402">
        <ele>331.2</ele>
        <time>2024-08-11T11:03:07Z</time>
      </trkpt>
      <trkpt lat="45.79511" lon="3.2402">
        <ele>331.2</ele>
        <time>2024-08-11T11:03:08Z</time>
      </trkpt>
      <trkpt lat="45.79514" lon="3.24021">
        <ele>331.2</ele>
        <time>2024-08-11T11:03:09Z</time>
      </trkpt>
      <trkpt lat="45.79516" lon="3.24021">
        <ele>331.2</ele>
        <time>2024-08-11T11:03:10Z</time>
      </trkpt>
      <trkpt lat="45.79521" lon="3.24023">
        <ele>331.2</ele>
        <time>2024-08-11T11:03:11Z</time>
      </trkpt>
      <trkpt lat="45.79523" lon="3.24025">
        <ele>331.2</ele>
        <time>2024-08-11T11:03:12Z</time>
      </trkpt>
      <trkpt lat="45.79525" lon="3.24027">
        <ele>331.4</ele>
        <time>2024-08-11T11:03:13Z</time>
      </trkpt>
      <trkpt lat="45.79527" lon="3.24029">
        <ele>331.4</ele>
        <time>2024-08-11T11:03:14Z</time>
      </trkpt>
      <trkpt lat="45.79529" lon="3.24032">
        <ele>331.4</ele>
        <time>2024-08-11T11:03:15Z</time>
      </trkpt>
      <trkpt lat="45.79531" lon="3.24034">
        <ele>331.6</ele>
        <time>2024-08-11T11:03:16Z</time>
      </trkpt>
      <trkpt lat="45.79533" lon="3.24036">
        <ele>331.6</ele>
        <time>2024-08-11T11:03:17Z</time>
      </trkpt>
      <trkpt lat="45.79535" lon="3.24038">
        <ele>331.8</ele>
        <time>2024-08-11T11:03:18Z</time>
      </trkpt>
      <trkpt lat="45.79536" lon="3.2404">
        <ele>331.8</ele>
        <time>2024-08-11T11:03:19Z</time>
      </trkpt>
      <trkpt lat="45.79538" lon="3.24041">
        <ele>332</ele>
        <time>2024-08-11T11:03:20Z</time>
      </trkpt>
      <trkpt lat="45.79539" lon="3.24043">
        <ele>332.2</ele>
        <time>2024-08-11T11:03:21Z</time>
      </trkpt>
      <trkpt lat="45.79541" lon="3.24045">
        <ele>332.2</ele>
        <time>2024-08-11T11:03:22Z</time>
      </trkpt>
      <trkpt lat="45.79542" lon="3.24046">
        <ele>332.4</ele>
        <time>2024-08-11T11:03:23Z</time>
      </trkpt>
      <trkpt lat="45.79544" lon="3.24048">
        <ele>332.6</ele>
        <time>2024-08-11T11:03:24Z</time>
      </trkpt>
      <trkpt lat="45.79545" lon="3.2405">
        <ele>332.6</ele>
        <time>2024-08-11T11:03:25Z</time>
      </trkpt>
      <trkpt lat="45.79547" lon="3.24051">
        <ele>332.8</ele>
        <time>2024-08-11T11:03:26Z</time>
      </trkpt>
      <trkpt lat="45.79548" lon="3.24053">
        <ele>333</ele>
        <time>2024-08-11T11:03:27Z</time>
      </trkpt>
      <trkpt lat="45.7955" lon="3.24055">
        <ele>333.2</ele>
        <time>2024-08-11T11:03:28Z</time>
      </trkpt>
      <trkpt lat="45.79551" lon="3.24056">
        <ele>333.4</ele>
        <time>2024-08-11T11:03:29Z</time>
      </trkpt>
      <trkpt lat="45.79553" lon="3.24058">
        <ele>333.6</ele>
        <time>2024-08-11T11:03:30Z</time>
      </trkpt>
      <trkpt lat="45.79555" lon="3.2406">
        <ele>333.6</ele>
        <time>2024-08-11T11:03:31Z</time>
      </trkpt>
      <trkpt lat="45.79556" lon="3.24062">
        <ele>333.8</ele>
        <time>2024-08-11T11:03:32Z</time>
      </trkpt>
      <trkpt lat="45.79558" lon="3.24063">
        <ele>334</ele>
        <time>2024-08-11T11:03:33Z</time>
      </trkpt>
      <trkpt lat="45.79559" lon="3.24065">
        <ele>334.2</ele>
        <time>2024-08-11T11:03:34Z</time>
      </trkpt>
      <trkpt lat="45.79561" lon="3.24067">
        <ele>334.4</ele>
        <time>2024-08-11T11:03:35Z</time>
      </trkpt>
      <trkpt lat="45.79562" lon="3.24068">
        <ele>334.4</ele>
        <time>2024-08-11T11:03:36Z</time>
      </trkpt>
      <trkpt lat="45.79563" lon="3.2407">
        <ele>334.6</ele>
        <time>2024-08-11T11:03:37Z</time>
      </trkpt>
      <trkpt lat="45.79565" lon="3.24071">
        <ele>334.8</ele>
        <time>2024-08-11T11:03:38Z</time>
      </trkpt>
      <trkpt lat="45.79566" lon="3.24073">
        <ele>335</ele>
        <time>2024-08-11T11:03:39Z</time>
      </trkpt>
      <trkpt lat="45.79568" lon="3.24074">
        <ele>335.2</ele>
        <time>2024-08-11T11:03:40Z</time>
      </trkpt>
      <trkpt lat="45.79569" lon="3.24076">
        <ele>335.4</ele>
        <time>2024-08-11T11:03:41Z</time>
      </trkpt>
      <trkpt lat="45.7957" lon="3.24077">
        <ele>335.6</ele>
        <time>2024-08-11T11:03:42Z</time>
      </trkpt>
      <trkpt lat="45.79572" lon="3.24079">
        <ele>335.6</ele>
        <time>2024-08-11T11:03:43Z</time>
      </trkpt>
      <trkpt lat="45.79573" lon="3.24081">
        <ele>335.8</ele>
        <time>2024-08-11T11:03:44Z</time>
      </trkpt>
      <trkpt lat="45.79575" lon="3.24082">
        <ele>336</ele>
        <time>2024-08-11T11:03:45Z</time>
      </trkpt>
      <trkpt lat="45.79576" lon="3.24083">
        <ele>336.2</ele>
        <time>2024-08-11T11:03:46Z</time>
      </trkpt>
      <trkpt lat="45.79577" lon="3.24085">
        <ele>336.4</ele>
        <time>2024-08-11T11:03:47Z</time>
      </trkpt>
      <trkpt lat="45.79578" lon="3.24086">
        <ele>336.6</ele>
        <time>2024-08-11T11:03:48Z</time>
      </trkpt>
      <trkpt lat="45.7958" lon="3.24088">
        <ele>337</ele>
        <time>2024-08-11T11:03:49Z</time>
      </trkpt>
      <trkpt lat="45.79581" lon="3.24089">
        <ele>337</ele>
        <time>2024-08-11T11:03:50Z</time>
      </trkpt>
      <trkpt lat="45.79583" lon="3.24091">
        <ele>337.4</ele>
        <time>2024-08-11T11:03:51Z</time>
      </trkpt>
      <trkpt lat="45.79584" lon="3.24092">
        <ele>337.6</ele>
        <time>2024-08-11T11:03:52Z</time>
      </trkpt>
      <trkpt lat="45.79585" lon="3.24094">
        <ele>337.8</ele>
        <time>2024-08-11T11:03:53Z</time>
      </trkpt>
      <trkpt lat="45.79587" lon="3.24095">
        <ele>338</ele>
        <time>2024-08-11T11:03:54Z</time>
      </trkpt>
      <trkpt lat="45.79588" lon="3.24097">
        <ele>338.4</ele>
        <time>2024-08-11T11:03:55Z</time>
      </trkpt>
      <trkpt lat="45.79589" lon="3.24098">
        <ele>338.6</ele>
        <time>2024-08-11T11:03:56Z</time>
      </trkpt>
      <trkpt lat="45.79591" lon="3.241">
        <ele>338.8</ele>
        <time>2024-08-11T11:03:57Z</time>
      </trkpt>
      <trkpt lat="45.79592" lon="3.24102">
        <ele>339</ele>
        <time>2024-08-11T11:03:58Z</time>
      </trkpt>
      <trkpt lat="45.79594" lon="3.24103">
        <ele>339.2</ele>
        <time>2024-08-11T11:03:59Z</time>
      </trkpt>
      <trkpt lat="45.79595" lon="3.24105">
        <ele>339.4</ele>
        <time>2024-08-11T11:04:00Z</time>
      </trkpt>
      <trkpt lat="45.79597" lon="3.24106">
        <ele>339.8</ele>
        <time>2024-08-11T11:04:01Z</time>
      </trkpt>
      <trkpt lat="45.79598" lon="3.24108">
        <ele>340</ele>
        <time>2024-08-11T11:04:02Z</time>
      </trkpt>
      <trkpt lat="45.79599" lon="3.24109">
        <ele>340.2</ele>
        <time>2024-08-11T11:04:03Z</time>
      </trkpt>
      <trkpt lat="45.79601" lon="3.24111">
        <ele>340.4</ele>
        <time>2024-08-11T11:04:04Z</time>
      </trkpt>
      <trkpt lat="45.79602" lon="3.24112">
        <ele>340.6</ele>
        <time>2024-08-11T11:04:05Z</time>
      </trkpt>
      <trkpt lat="45.79603" lon="3.24114">
        <ele>340.8</ele>
        <time>2024-08-11T11:04:06Z</time>
      </trkpt>
      <trkpt lat="45.79605" lon="3.24115">
        <ele>341</ele>
        <time>2024-08-11T11:04:07Z</time>
      </trkpt>
      <trkpt lat="45.79606" lon="3.24117">
        <ele>341.2</ele>
        <time>2024-08-11T11:04:08Z</time>
      </trkpt>
      <trkpt lat="45.79608" lon="3.24119">
        <ele>341.4</ele>
        <time>2024-08-11T11:04:09Z</time>
      </trkpt>
      <trkpt lat="45.79609" lon="3.2412">
        <ele>341.6</ele>
        <time>2024-08-11T11:04:10Z</time>
      </trkpt>
      <trkpt lat="45.7961" lon="3.24122">
        <ele>341.6</ele>
        <time>2024-08-11T11:04:11Z</time>
      </trkpt>
      <trkpt lat="45.79612" lon="3.24123">
        <ele>342</ele>
        <time>2024-08-11T11:04:12Z</time>
      </trkpt>
      <trkpt lat="45.79613" lon="3.24125">
        <ele>342.2</ele>
        <time>2024-08-11T11:04:13Z</time>
      </trkpt>
      <trkpt lat="45.79615" lon="3.24127">
        <ele>342.4</ele>
        <time>2024-08-11T11:04:14Z</time>
      </trkpt>
      <trkpt lat="45.79617" lon="3.24128">
        <ele>342.4</ele>
        <time>2024-08-11T11:04:15Z</time>
      </trkpt>
      <trkpt lat="45.79618" lon="3.2413">
        <ele>342.6</ele>
        <time>2024-08-11T11:04:16Z</time>
      </trkpt>
      <trkpt lat="45.7962" lon="3.24132">
        <ele>342.8</ele>
        <time>2024-08-11T11:04:17Z</time>
      </trkpt>
      <trkpt lat="45.79621" lon="3.24134">
        <ele>343</ele>
        <time>2024-08-11T11:04:18Z</time>
      </trkpt>
      <trkpt lat="45.79623" lon="3.24136">
        <ele>343.4</ele>
        <time>2024-08-11T11:04:19Z</time>
      </trkpt>
      <trkpt lat="45.79625" lon="3.24137">
        <ele>343.6</ele>
        <time>2024-08-11T11:04:20Z</time>
      </trkpt>
      <trkpt lat="45.79626" lon="3.24139">
        <ele>343.8</ele>
        <time>2024-08-11T11:04:21Z</time>
      </trkpt>
      <trkpt lat="45.79628" lon="3.24141">
        <ele>344</ele>
        <time>2024-08-11T11:04:22Z</time>
      </trkpt>
      <trkpt lat="45.79629" lon="3.24143">
        <ele>344.2</ele>
        <time>2024-08-11T11:04:23Z</time>
      </trkpt>
      <trkpt lat="45.79631" lon="3.24144">
        <ele>344.4</ele>
        <time>2024-08-11T11:04:24Z</time>
      </trkpt>
      <trkpt lat="45.79632" lon="3.24146">
        <ele>344.6</ele>
        <time>2024-08-11T11:04:25Z</time>
      </trkpt>
      <trkpt lat="45.79634" lon="3.24148">
        <ele>344.8</ele>
        <time>2024-08-11T11:04:26Z</time>
      </trkpt>
      <trkpt lat="45.79635" lon="3.24149">
        <ele>344.8</ele>
        <time>2024-08-11T11:04:27Z</time>
      </trkpt>
      <trkpt lat="45.79637" lon="3.24151">
        <ele>345</ele>
        <time>2024-08-11T11:04:28Z</time>
      </trkpt>
      <trkpt lat="45.79639" lon="3.24153">
        <ele>345.2</ele>
        <time>2024-08-11T11:04:29Z</time>
      </trkpt>
      <trkpt lat="45.7964" lon="3.24155">
        <ele>345.4</ele>
        <time>2024-08-11T11:04:30Z</time>
      </trkpt>
      <trkpt lat="45.79642" lon="3.24157">
        <ele>345.6</ele>
        <time>2024-08-11T11:04:31Z</time>
      </trkpt>
      <trkpt lat="45.79644" lon="3.24159">
        <ele>345.8</ele>
        <time>2024-08-11T11:04:32Z</time>
      </trkpt>
      <trkpt lat="45.79645" lon="3.24162">
        <ele>346</ele>
        <time>2024-08-11T11:04:33Z</time>
      </trkpt>
      <trkpt lat="45.79647" lon="3.24164">
        <ele>346</ele>
        <time>2024-08-11T11:04:34Z</time>
      </trkpt>
      <trkpt lat="45.79648" lon="3.24166">
        <ele>346.2</ele>
        <time>2024-08-11T11:04:35Z</time>
      </trkpt>
      <trkpt lat="45.79649" lon="3.24168">
        <ele>346.2</ele>
        <time>2024-08-11T11:04:36Z</time>
      </trkpt>
      <trkpt lat="45.79651" lon="3.2417">
        <ele>346.4</ele>
        <time>2024-08-11T11:04:37Z</time>
      </trkpt>
      <trkpt lat="45.79653" lon="3.24172">
        <ele>346.6</ele>
        <time>2024-08-11T11:04:38Z</time>
      </trkpt>
      <trkpt lat="45.79654" lon="3.24174">
        <ele>346.8</ele>
        <time>2024-08-11T11:04:39Z</time>
      </trkpt>
      <trkpt lat="45.79656" lon="3.24177">
        <ele>346.8</ele>
        <time>2024-08-11T11:04:40Z</time>
      </trkpt>
      <trkpt lat="45.79657" lon="3.24179">
        <ele>347</ele>
        <time>2024-08-11T11:04:41Z</time>
      </trkpt>
      <trkpt lat="45.79659" lon="3.24181">
        <ele>347.2</ele>
        <time>2024-08-11T11:04:42Z</time>
      </trkpt>
      <trkpt lat="45.79661" lon="3.24184">
        <ele>347.2</ele>
        <time>2024-08-11T11:04:43Z</time>
      </trkpt>
      <trkpt lat="45.79662" lon="3.24186">
        <ele>347.4</ele>
        <time>2024-08-11T11:04:44Z</time>
      </trkpt>
      <trkpt lat="45.79664" lon="3.24189">
        <ele>347.6</ele>
        <time>2024-08-11T11:04:45Z</time>
      </trkpt>
      <trkpt lat="45.79666" lon="3.24191">
        <ele>347.6</ele>
        <time>2024-08-11T11:04:46Z</time>
      </trkpt>
      <trkpt lat="45.79667" lon="3.24193">
        <ele>347.8</ele>
        <time>2024-08-11T11:04:47Z</time>
      </trkpt>
      <trkpt lat="45.79669" lon="3.24195">
        <ele>348</ele>
        <time>2024-08-11T11:04:48Z</time>
      </trkpt>
      <trkpt lat="45.79671" lon="3.24197">
        <ele>348.2</ele>
        <time>2024-08-11T11:04:49Z</time>
      </trkpt>
      <trkpt lat="45.79672" lon="3.24199">
        <ele>348.2</ele>
        <time>2024-08-11T11:04:50Z</time>
      </trkpt>
      <trkpt lat="45.79674" lon="3.24201">
        <ele>348.4</ele>
        <time>2024-08-11T11:04:51Z</time>
      </trkpt>
      <trkpt lat="45.79676" lon="3.24203">
        <ele>348.6</ele>
        <time>2024-08-11T11:04:52Z</time>
      </trkpt>
      <trkpt lat="45.79678" lon="3.24206">
        <ele>348.8</ele>
        <time>2024-08-11T11:04:53Z</time>
      </trkpt>
      <trkpt lat="45.79681" lon="3.24208">
        <ele>348.8</ele>
        <time>2024-08-11T11:04:54Z</time>
      </trkpt>
      <trkpt lat="45.79683" lon="3.24211">
        <ele>349</ele>
        <time>2024-08-11T11:04:55Z</time>
      </trkpt>
      <trkpt lat="45.79685" lon="3.24213">
        <ele>349.2</ele>
        <time>2024-08-11T11:04:56Z</time>
      </trkpt>
      <trkpt lat="45.79687" lon="3.24216">
        <ele>349.2</ele>
        <time>2024-08-11T11:04:57Z</time>
      </trkpt>
      <trkpt lat="45.79689" lon="3.24219">
        <ele>349.4</ele>
        <time>2024-08-11T11:04:58Z</time>
      </trkpt>
      <trkpt lat="45.79691" lon="3.24221">
        <ele>349.6</ele>
        <time>2024-08-11T11:04:59Z</time>
      </trkpt>
      <trkpt lat="45.79694" lon="3.24224">
        <ele>349.6</ele>
        <time>2024-08-11T11:05:00Z</time>
      </trkpt>
      <trkpt lat="45.79696" lon="3.24227">
        <ele>349.8</ele>
        <time>2024-08-11T11:05:01Z</time>
      </trkpt>
      <trkpt lat="45.79699" lon="3.2423">
        <ele>349.8</ele>
        <time>2024-08-11T11:05:02Z</time>
      </trkpt>
      <trkpt lat="45.79701" lon="3.24232">
        <ele>350</ele>
        <time>2024-08-11T11:05:03Z</time>
      </trkpt>
      <trkpt lat="45.79703" lon="3.24235">
        <ele>350.2</ele>
        <time>2024-08-11T11:05:04Z</time>
      </trkpt>
      <trkpt lat="45.79706" lon="3.24238">
        <ele>350.2</ele>
        <time>2024-08-11T11:05:05Z</time>
      </trkpt>
      <trkpt lat="45.79708" lon="3.24241">
        <ele>350.4</ele>
        <time>2024-08-11T11:05:06Z</time>
      </trkpt>
      <trkpt lat="45.79711" lon="3.24244">
        <ele>350.4</ele>
        <time>2024-08-11T11:05:07Z</time>
      </trkpt>
      <trkpt lat="45.79713" lon="3.24247">
        <ele>350.6</ele>
        <time>2024-08-11T11:05:08Z</time>
      </trkpt>
      <trkpt lat="45.79716" lon="3.2425">
        <ele>350.8</ele>
        <time>2024-08-11T11:05:09Z</time>
      </trkpt>
      <trkpt lat="45.79718" lon="3.24253">
        <ele>350.8</ele>
        <time>2024-08-11T11:05:10Z</time>
      </trkpt>
      <trkpt lat="45.79721" lon="3.24256">
        <ele>351</ele>
        <time>2024-08-11T11:05:11Z</time>
      </trkpt>
      <trkpt lat="45.79724" lon="3.24259">
        <ele>351.2</ele>
        <time>2024-08-11T11:05:12Z</time>
      </trkpt>
      <trkpt lat="45.79726" lon="3.24262">
        <ele>351.2</ele>
        <time>2024-08-11T11:05:13Z</time>
      </trkpt>
      <trkpt lat="45.79729" lon="3.24266">
        <ele>351.4</ele>
        <time>2024-08-11T11:05:14Z</time>
      </trkpt>
      <trkpt lat="45.79732" lon="3.24269">
        <ele>351.6</ele>
        <time>2024-08-11T11:05:15Z</time>
      </trkpt>
      <trkpt lat="45.79735" lon="3.24273">
        <ele>351.6</ele>
        <time>2024-08-11T11:05:16Z</time>
      </trkpt>
      <trkpt lat="45.79738" lon="3.24276">
        <ele>351.8</ele>
        <time>2024-08-11T11:05:17Z</time>
      </trkpt>
      <trkpt lat="45.79741" lon="3.2428">
        <ele>351.8</ele>
        <time>2024-08-11T11:05:18Z</time>
      </trkpt>
      <trkpt lat="45.79744" lon="3.24284">
        <ele>352</ele>
        <time>2024-08-11T11:05:19Z</time>
      </trkpt>
      <trkpt lat="45.79747" lon="3.24287">
        <ele>352</ele>
        <time>2024-08-11T11:05:20Z</time>
      </trkpt>
      <trkpt lat="45.7975" lon="3.2429">
        <ele>352.2</ele>
        <time>2024-08-11T11:05:21Z</time>
      </trkpt>
      <trkpt lat="45.79753" lon="3.24294">
        <ele>352.2</ele>
        <time>2024-08-11T11:05:22Z</time>
      </trkpt>
      <trkpt lat="45.79756" lon="3.24297">
        <ele>352.4</ele>
        <time>2024-08-11T11:05:23Z</time>
      </trkpt>
      <trkpt lat="45.79759" lon="3.243">
        <ele>352.4</ele>
        <time>2024-08-11T11:05:24Z</time>
      </trkpt>
      <trkpt lat="45.79762" lon="3.24304">
        <ele>352.6</ele>
        <time>2024-08-11T11:05:25Z</time>
      </trkpt>
      <trkpt lat="45.79766" lon="3.24307">
        <ele>352.6</ele>
        <time>2024-08-11T11:05:26Z</time>
      </trkpt>
      <trkpt lat="45.79769" lon="3.24311">
        <ele>352.8</ele>
        <time>2024-08-11T11:05:27Z</time>
      </trkpt>
      <trkpt lat="45.79772" lon="3.24314">
        <ele>352.8</ele>
        <time>2024-08-11T11:05:28Z</time>
      </trkpt>
      <trkpt lat="45.79775" lon="3.24318">
        <ele>353</ele>
        <time>2024-08-11T11:05:29Z</time>
      </trkpt>
      <trkpt lat="45.79779" lon="3.24321">
        <ele>353.2</ele>
        <time>2024-08-11T11:05:30Z</time>
      </trkpt>
      <trkpt lat="45.79783" lon="3.24325">
        <ele>353.2</ele>
        <time>2024-08-11T11:05:31Z</time>
      </trkpt>
      <trkpt lat="45.79786" lon="3.24329">
        <ele>353.4</ele>
        <time>2024-08-11T11:05:32Z</time>
      </trkpt>
      <trkpt lat="45.7979" lon="3.24332">
        <ele>353.4</ele>
        <time>2024-08-11T11:05:33Z</time>
      </trkpt>
      <trkpt lat="45.79794" lon="3.24336">
        <ele>353.4</ele>
        <time>2024-08-11T11:05:34Z</time>
      </trkpt>
      <trkpt lat="45.79798" lon="3.2434">
        <ele>353.6</ele>
        <time>2024-08-11T11:05:35Z</time>
      </trkpt>
      <trkpt lat="45.79802" lon="3.24344">
        <ele>353.6</ele>
        <time>2024-08-11T11:05:36Z</time>
      </trkpt>
      <trkpt lat="45.79805" lon="3.24348">
        <ele>353.8</ele>
        <time>2024-08-11T11:05:37Z</time>
      </trkpt>
      <trkpt lat="45.79809" lon="3.24351">
        <ele>353.8</ele>
        <time>2024-08-11T11:05:38Z</time>
      </trkpt>
      <trkpt lat="45.79813" lon="3.24355">
        <ele>354</ele>
        <time>2024-08-11T11:05:39Z</time>
      </trkpt>
      <trkpt lat="45.79817" lon="3.24359">
        <ele>354</ele>
        <time>2024-08-11T11:05:40Z</time>
      </trkpt>
      <trkpt lat="45.79821" lon="3.24363">
        <ele>354.2</ele>
        <time>2024-08-11T11:05:41Z</time>
      </trkpt>
      <trkpt lat="45.79825" lon="3.24367">
        <ele>354.2</ele>
        <time>2024-08-11T11:05:42Z</time>
      </trkpt>
      <trkpt lat="45.79829" lon="3.24371">
        <ele>354.4</ele>
        <time>2024-08-11T11:05:43Z</time>
      </trkpt>
      <trkpt lat="45.79832" lon="3.24375">
        <ele>354.4</ele>
        <time>2024-08-11T11:05:44Z</time>
      </trkpt>
      <trkpt lat="45.79836" lon="3.24379">
        <ele>354.6</ele>
        <time>2024-08-11T11:05:45Z</time>
      </trkpt>
      <trkpt lat="45.7984" lon="3.24383">
        <ele>354.6</ele>
        <time>2024-08-11T11:05:46Z</time>
      </trkpt>
      <trkpt lat="45.79843" lon="3.24386">
        <ele>354.8</ele>
        <time>2024-08-11T11:05:47Z</time>
      </trkpt>
      <trkpt lat="45.79847" lon="3.2439">
        <ele>354.8</ele>
        <time>2024-08-11T11:05:48Z</time>
      </trkpt>
      <trkpt lat="45.7985" lon="3.24394">
        <ele>355</ele>
        <time>2024-08-11T11:05:49Z</time>
      </trkpt>
      <trkpt lat="45.79854" lon="3.24397">
        <ele>355.2</ele>
        <time>2024-08-11T11:05:50Z</time>
      </trkpt>
      <trkpt lat="45.79857" lon="3.244">
        <ele>355.2</ele>
        <time>2024-08-11T11:05:51Z</time>
      </trkpt>
      <trkpt lat="45.7986" lon="3.24404">
        <ele>355.4</ele>
        <time>2024-08-11T11:05:52Z</time>
      </trkpt>
      <trkpt lat="45.79864" lon="3.24407">
        <ele>355.4</ele>
        <time>2024-08-11T11:05:53Z</time>
      </trkpt>
      <trkpt lat="45.79867" lon="3.24411">
        <ele>355.4</ele>
        <time>2024-08-11T11:05:54Z</time>
      </trkpt>
      <trkpt lat="45.79871" lon="3.24415">
        <ele>355.6</ele>
        <time>2024-08-11T11:05:55Z</time>
      </trkpt>
      <trkpt lat="45.79874" lon="3.24419">
        <ele>355.6</ele>
        <time>2024-08-11T11:05:56Z</time>
      </trkpt>
      <trkpt lat="45.79874" lon="3.24428">
        <ele>355.6</ele>
        <time>2024-08-11T11:05:57Z</time>
      </trkpt>
      <trkpt lat="45.79875" lon="3.24433">
        <ele>355.8</ele>
        <time>2024-08-11T11:05:58Z</time>
      </trkpt>
      <trkpt lat="45.79876" lon="3.24439">
        <ele>355.8</ele>
        <time>2024-08-11T11:05:59Z</time>
      </trkpt>
      <trkpt lat="45.7988" lon="3.24444">
        <ele>356</ele>
        <time>2024-08-11T11:06:00Z</time>
      </trkpt>
      <trkpt lat="45.7988" lon="3.24444">
        <ele>356</ele>
        <time>2024-08-11T11:06:01Z</time>
      </trkpt>
      <trkpt lat="45.7989" lon="3.24441">
        <ele>356</ele>
        <time>2024-08-11T11:06:02Z</time>
      </trkpt>
      <trkpt lat="45.79894" lon="3.24443">
        <ele>356</ele>
        <time>2024-08-11T11:06:03Z</time>
      </trkpt>
      <trkpt lat="45.79897" lon="3.24445">
        <ele>356.2</ele>
        <time>2024-08-11T11:06:04Z</time>
      </trkpt>
      <trkpt lat="45.79901" lon="3.24448">
        <ele>356.2</ele>
        <time>2024-08-11T11:06:05Z</time>
      </trkpt>
      <trkpt lat="45.79904" lon="3.2445">
        <ele>356.2</ele>
        <time>2024-08-11T11:06:06Z</time>
      </trkpt>
      <trkpt lat="45.79907" lon="3.24452">
        <ele>356.2</ele>
        <time>2024-08-11T11:06:07Z</time>
      </trkpt>
      <trkpt lat="45.7991" lon="3.24454">
        <ele>356.4</ele>
        <time>2024-08-11T11:06:08Z</time>
      </trkpt>
      <trkpt lat="45.79913" lon="3.24456">
        <ele>356.4</ele>
        <time>2024-08-11T11:06:09Z</time>
      </trkpt>
      <trkpt lat="45.79915" lon="3.24457">
        <ele>356.4</ele>
        <time>2024-08-11T11:06:10Z</time>
      </trkpt>
      <trkpt lat="45.79917" lon="3.24458">
        <ele>356.4</ele>
        <time>2024-08-11T11:06:11Z</time>
      </trkpt>
      <trkpt lat="45.79917" lon="3.24458">
        <ele>356.4</ele>
        <time>2024-08-11T11:06:12Z</time>
      </trkpt>
      <trkpt lat="45.79917" lon="3.24458">
        <ele>356.6</ele>
        <time>2024-08-11T11:06:13Z</time>
      </trkpt>
      <trkpt lat="45.79921" lon="3.2446">
        <ele>357</ele>
        <time>2024-08-11T11:06:20Z</time>
      </trkpt>
      <trkpt lat="45.79923" lon="3.24462">
        <ele>357</ele>
        <time>2024-08-11T11:06:21Z</time>
      </trkpt>
      <trkpt lat="45.79925" lon="3.24463">
        <ele>357</ele>
        <time>2024-08-11T11:06:22Z</time>
      </trkpt>
      <trkpt lat="45.79926" lon="3.24464">
        <ele>357.2</ele>
        <time>2024-08-11T11:06:23Z</time>
      </trkpt>
      <trkpt lat="45.7993" lon="3.24463">
        <ele>357.2</ele>
        <time>2024-08-11T11:06:24Z</time>
      </trkpt>
      <trkpt lat="45.79934" lon="3.24463">
        <ele>357.2</ele>
        <time>2024-08-11T11:06:25Z</time>
      </trkpt>
      <trkpt lat="45.79938" lon="3.24462">
        <ele>357.2</ele>
        <time>2024-08-11T11:06:26Z</time>
      </trkpt>
      <trkpt lat="45.79942" lon="3.24462">
        <ele>357.2</ele>
        <time>2024-08-11T11:06:27Z</time>
      </trkpt>
      <trkpt lat="45.79947" lon="3.24462">
        <ele>357.2</ele>
        <time>2024-08-11T11:06:28Z</time>
      </trkpt>
      <trkpt lat="45.7995" lon="3.2446">
        <ele>357.4</ele>
        <time>2024-08-11T11:06:29Z</time>
      </trkpt>
      <trkpt lat="45.79953" lon="3.24456">
        <ele>357.4</ele>
        <time>2024-08-11T11:06:30Z</time>
      </trkpt>
      <trkpt lat="45.79956" lon="3.24452">
        <ele>357.4</ele>
        <time>2024-08-11T11:06:31Z</time>
      </trkpt>
      <trkpt lat="45.7996" lon="3.24448">
        <ele>357.4</ele>
        <time>2024-08-11T11:06:32Z</time>
      </trkpt>
      <trkpt lat="45.79963" lon="3.24444">
        <ele>357.6</ele>
        <time>2024-08-11T11:06:33Z</time>
      </trkpt>
      <trkpt lat="45.79966" lon="3.24439">
        <ele>357.6</ele>
        <time>2024-08-11T11:06:34Z</time>
      </trkpt>
      <trkpt lat="45.79969" lon="3.24435">
        <ele>357.6</ele>
        <time>2024-08-11T11:06:35Z</time>
      </trkpt>
      <trkpt lat="45.79973" lon="3.24431">
        <ele>357.6</ele>
        <time>2024-08-11T11:06:36Z</time>
      </trkpt>
      <trkpt lat="45.79976" lon="3.24426">
        <ele>357.8</ele>
        <time>2024-08-11T11:06:37Z</time>
      </trkpt>
      <trkpt lat="45.79979" lon="3.24422">
        <ele>357.8</ele>
        <time>2024-08-11T11:06:38Z</time>
      </trkpt>
      <trkpt lat="45.79983" lon="3.24417">
        <ele>357.8</ele>
        <time>2024-08-11T11:06:39Z</time>
      </trkpt>
      <trkpt lat="45.79986" lon="3.24412">
        <ele>358</ele>
        <time>2024-08-11T11:06:40Z</time>
      </trkpt>
      <trkpt lat="45.7999" lon="3.24407">
        <ele>358</ele>
        <time>2024-08-11T11:06:41Z</time>
      </trkpt>
      <trkpt lat="45.79993" lon="3.24402">
        <ele>358</ele>
        <time>2024-08-11T11:06:42Z</time>
      </trkpt>
      <trkpt lat="45.79996" lon="3.24397">
        <ele>358</ele>
        <time>2024-08-11T11:06:43Z</time>
      </trkpt>
      <trkpt lat="45.79999" lon="3.24392">
        <ele>358</ele>
        <time>2024-08-11T11:06:44Z</time>
      </trkpt>
      <trkpt lat="45.80003" lon="3.24387">
        <ele>358.2</ele>
        <time>2024-08-11T11:06:45Z</time>
      </trkpt>
      <trkpt lat="45.80006" lon="3.24382">
        <ele>358.2</ele>
        <time>2024-08-11T11:06:46Z</time>
      </trkpt>
      <trkpt lat="45.80009" lon="3.24377">
        <ele>358.2</ele>
        <time>2024-08-11T11:06:47Z</time>
      </trkpt>
      <trkpt lat="45.80013" lon="3.24372">
        <ele>358.2</ele>
        <time>2024-08-11T11:06:48Z</time>
      </trkpt>
      <trkpt lat="45.80016" lon="3.24367">
        <ele>358.2</ele>
        <time>2024-08-11T11:06:49Z</time>
      </trkpt>
      <trkpt lat="45.8002" lon="3.24362">
        <ele>358.2</ele>
        <time>2024-08-11T11:06:50Z</time>
      </trkpt>
      <trkpt lat="45.80023" lon="3.24357">
        <ele>358.2</ele>
        <time>2024-08-11T11:06:51Z</time>
      </trkpt>
      <trkpt lat="45.80027" lon="3.24352">
        <ele>358.2</ele>
        <time>2024-08-11T11:06:52Z</time>
      </trkpt>
      <trkpt lat="45.80031" lon="3.24346">
        <ele>358.2</ele>
        <time>2024-08-11T11:06:53Z</time>
      </trkpt>
      <trkpt lat="45.80034" lon="3.24341">
        <ele>358.2</ele>
        <time>2024-08-11T11:06:54Z</time>
      </trkpt>
      <trkpt lat="45.80038" lon="3.24335">
        <ele>358.4</ele>
        <time>2024-08-11T11:06:55Z</time>
      </trkpt>
      <trkpt lat="45.80042" lon="3.2433">
        <ele>358.4</ele>
        <time>2024-08-11T11:06:56Z</time>
      </trkpt>
      <trkpt lat="45.80045" lon="3.24325">
        <ele>358.4</ele>
        <time>2024-08-11T11:06:57Z</time>
      </trkpt>
      <trkpt lat="45.80048" lon="3.2432">
        <ele>358.4</ele>
        <time>2024-08-11T11:06:58Z</time>
      </trkpt>
      <trkpt lat="45.80056" lon="3.24319">
        <ele>358.4</ele>
        <time>2024-08-11T11:06:59Z</time>
      </trkpt>
      <trkpt lat="45.80061" lon="3.24319">
        <ele>358.4</ele>
        <time>2024-08-11T11:07:00Z</time>
      </trkpt>
      <trkpt lat="45.80067" lon="3.24315">
        <ele>358.4</ele>
        <time>2024-08-11T11:07:01Z</time>
      </trkpt>
      <trkpt lat="45.80067" lon="3.24313">
        <ele>358.4</ele>
        <time>2024-08-11T11:07:02Z</time>
      </trkpt>
      <trkpt lat="45.80064" lon="3.24304">
        <ele>358.2</ele>
        <time>2024-08-11T11:07:03Z</time>
      </trkpt>
      <trkpt lat="45.80064" lon="3.24288">
        <ele>358.2</ele>
        <time>2024-08-11T11:07:04Z</time>
      </trkpt>
      <trkpt lat="45.80067" lon="3.24281">
        <ele>358.2</ele>
        <time>2024-08-11T11:07:05Z</time>
      </trkpt>
      <trkpt lat="45.80069" lon="3.24274">
        <ele>358.2</ele>
        <time>2024-08-11T11:07:06Z</time>
      </trkpt>
      <trkpt lat="45.80072" lon="3.24266">
        <ele>358.4</ele>
        <time>2024-08-11T11:07:07Z</time>
      </trkpt>
      <trkpt lat="45.80075" lon="3.24259">
        <ele>358.4</ele>
        <time>2024-08-11T11:07:08Z</time>
      </trkpt>
      <trkpt lat="45.80078" lon="3.24251">
        <ele>358.4</ele>
        <time>2024-08-11T11:07:09Z</time>
      </trkpt>
      <trkpt lat="45.80081" lon="3.24244">
        <ele>358.4</ele>
        <time>2024-08-11T11:07:10Z</time>
      </trkpt>
      <trkpt lat="45.80085" lon="3.24237">
        <ele>358.4</ele>
        <time>2024-08-11T11:07:11Z</time>
      </trkpt>
      <trkpt lat="45.80088" lon="3.2423">
        <ele>358.4</ele>
        <time>2024-08-11T11:07:12Z</time>
      </trkpt>
      <trkpt lat="45.80092" lon="3.24224">
        <ele>358.4</ele>
        <time>2024-08-11T11:07:13Z</time>
      </trkpt>
      <trkpt lat="45.80096" lon="3.24218">
        <ele>358.4</ele>
        <time>2024-08-11T11:07:14Z</time>
      </trkpt>
      <trkpt lat="45.801" lon="3.24211">
        <ele>358.6</ele>
        <time>2024-08-11T11:07:15Z</time>
      </trkpt>
      <trkpt lat="45.80104" lon="3.24205">
        <ele>358.6</ele>
        <time>2024-08-11T11:07:16Z</time>
      </trkpt>
      <trkpt lat="45.80107" lon="3.24199">
        <ele>358.6</ele>
        <time>2024-08-11T11:07:17Z</time>
      </trkpt>
      <trkpt lat="45.80111" lon="3.24193">
        <ele>358.6</ele>
        <time>2024-08-11T11:07:18Z</time>
      </trkpt>
      <trkpt lat="45.80115" lon="3.24187">
        <ele>358.6</ele>
        <time>2024-08-11T11:07:19Z</time>
      </trkpt>
      <trkpt lat="45.80118" lon="3.24181">
        <ele>358.6</ele>
        <time>2024-08-11T11:07:20Z</time>
      </trkpt>
      <trkpt lat="45.80122" lon="3.24174">
        <ele>358.6</ele>
        <time>2024-08-11T11:07:21Z</time>
      </trkpt>
      <trkpt lat="45.80125" lon="3.24168">
        <ele>358.6</ele>
        <time>2024-08-11T11:07:22Z</time>
      </trkpt>
      <trkpt lat="45.80129" lon="3.24162">
        <ele>358.6</ele>
        <time>2024-08-11T11:07:23Z</time>
      </trkpt>
      <trkpt lat="45.80132" lon="3.24156">
        <ele>358.6</ele>
        <time>2024-08-11T11:07:24Z</time>
      </trkpt>
      <trkpt lat="45.80136" lon="3.2415">
        <ele>358.6</ele>
        <time>2024-08-11T11:07:25Z</time>
      </trkpt>
      <trkpt lat="45.80139" lon="3.24145">
        <ele>358.6</ele>
        <time>2024-08-11T11:07:26Z</time>
      </trkpt>
      <trkpt lat="45.80142" lon="3.24139">
        <ele>358.8</ele>
        <time>2024-08-11T11:07:27Z</time>
      </trkpt>
      <trkpt lat="45.80146" lon="3.24133">
        <ele>358.8</ele>
        <time>2024-08-11T11:07:28Z</time>
      </trkpt>
      <trkpt lat="45.80149" lon="3.24127">
        <ele>358.8</ele>
        <time>2024-08-11T11:07:29Z</time>
      </trkpt>
      <trkpt lat="45.80153" lon="3.24122">
        <ele>359</ele>
        <time>2024-08-11T11:07:30Z</time>
      </trkpt>
      <trkpt lat="45.80156" lon="3.24116">
        <ele>358.8</ele>
        <time>2024-08-11T11:07:31Z</time>
      </trkpt>
      <trkpt lat="45.80159" lon="3.24111">
        <ele>358.8</ele>
        <time>2024-08-11T11:07:32Z</time>
      </trkpt>
      <trkpt lat="45.80162" lon="3.24106">
        <ele>359</ele>
        <time>2024-08-11T11:07:33Z</time>
      </trkpt>
      <trkpt lat="45.80165" lon="3.241">
        <ele>359</ele>
        <time>2024-08-11T11:07:34Z</time>
      </trkpt>
      <trkpt lat="45.80169" lon="3.24093">
        <ele>359</ele>
        <time>2024-08-11T11:07:35Z</time>
      </trkpt>
      <trkpt lat="45.80172" lon="3.24088">
        <ele>359</ele>
        <time>2024-08-11T11:07:36Z</time>
      </trkpt>
      <trkpt lat="45.80176" lon="3.24082">
        <ele>359</ele>
        <time>2024-08-11T11:07:37Z</time>
      </trkpt>
      <trkpt lat="45.80179" lon="3.24077">
        <ele>359</ele>
        <time>2024-08-11T11:07:38Z</time>
      </trkpt>
      <trkpt lat="45.80182" lon="3.24071">
        <ele>359.2</ele>
        <time>2024-08-11T11:07:39Z</time>
      </trkpt>
      <trkpt lat="45.80185" lon="3.24066">
        <ele>359.2</ele>
        <time>2024-08-11T11:07:40Z</time>
      </trkpt>
      <trkpt lat="45.80188" lon="3.24061">
        <ele>359.2</ele>
        <time>2024-08-11T11:07:41Z</time>
      </trkpt>
      <trkpt lat="45.80191" lon="3.24056">
        <ele>359.2</ele>
        <time>2024-08-11T11:07:42Z</time>
      </trkpt>
      <trkpt lat="45.80193" lon="3.24052">
        <ele>359.2</ele>
        <time>2024-08-11T11:07:43Z</time>
      </trkpt>
      <trkpt lat="45.80196" lon="3.24047">
        <ele>359.2</ele>
        <time>2024-08-11T11:07:44Z</time>
      </trkpt>
      <trkpt lat="45.80198" lon="3.24042">
        <ele>359.2</ele>
        <time>2024-08-11T11:07:45Z</time>
      </trkpt>
      <trkpt lat="45.80201" lon="3.24037">
        <ele>359.2</ele>
        <time>2024-08-11T11:07:46Z</time>
      </trkpt>
      <trkpt lat="45.80203" lon="3.24032">
        <ele>359.2</ele>
        <time>2024-08-11T11:07:47Z</time>
      </trkpt>
      <trkpt lat="45.80205" lon="3.24027">
        <ele>359.2</ele>
        <time>2024-08-11T11:07:48Z</time>
      </trkpt>
      <trkpt lat="45.80208" lon="3.24021">
        <ele>359.4</ele>
        <time>2024-08-11T11:07:49Z</time>
      </trkpt>
      <trkpt lat="45.8021" lon="3.24016">
        <ele>359.4</ele>
        <time>2024-08-11T11:07:50Z</time>
      </trkpt>
      <trkpt lat="45.80212" lon="3.24011">
        <ele>359.4</ele>
        <time>2024-08-11T11:07:51Z</time>
      </trkpt>
      <trkpt lat="45.80215" lon="3.24005">
        <ele>359.4</ele>
        <time>2024-08-11T11:07:52Z</time>
      </trkpt>
      <trkpt lat="45.80218" lon="3.23999">
        <ele>359.4</ele>
        <time>2024-08-11T11:07:53Z</time>
      </trkpt>
      <trkpt lat="45.80219" lon="3.23993">
        <ele>359.4</ele>
        <time>2024-08-11T11:07:54Z</time>
      </trkpt>
      <trkpt lat="45.80221" lon="3.23986">
        <ele>359.4</ele>
        <time>2024-08-11T11:07:55Z</time>
      </trkpt>
      <trkpt lat="45.80222" lon="3.2398">
        <ele>359.6</ele>
        <time>2024-08-11T11:07:56Z</time>
      </trkpt>
      <trkpt lat="45.80223" lon="3.23974">
        <ele>359.6</ele>
        <time>2024-08-11T11:07:57Z</time>
      </trkpt>
      <trkpt lat="45.80225" lon="3.23968">
        <ele>359.8</ele>
        <time>2024-08-11T11:07:58Z</time>
      </trkpt>
      <trkpt lat="45.80226" lon="3.23963">
        <ele>359.8</ele>
        <time>2024-08-11T11:07:59Z</time>
      </trkpt>
      <trkpt lat="45.80227" lon="3.23957">
        <ele>360</ele>
        <time>2024-08-11T11:08:00Z</time>
      </trkpt>
      <trkpt lat="45.80229" lon="3.23951">
        <ele>360</ele>
        <time>2024-08-11T11:08:01Z</time>
      </trkpt>
      <trkpt lat="45.80231" lon="3.23944">
        <ele>360.2</ele>
        <time>2024-08-11T11:08:02Z</time>
      </trkpt>
      <trkpt lat="45.80234" lon="3.2394">
        <ele>360.4</ele>
        <time>2024-08-11T11:08:03Z</time>
      </trkpt>
      <trkpt lat="45.80237" lon="3.23936">
        <ele>360.4</ele>
        <time>2024-08-11T11:08:04Z</time>
      </trkpt>
      <trkpt lat="45.8024" lon="3.23932">
        <ele>360.6</ele>
        <time>2024-08-11T11:08:05Z</time>
      </trkpt>
      <trkpt lat="45.80244" lon="3.23928">
        <ele>360.6</ele>
        <time>2024-08-11T11:08:06Z</time>
      </trkpt>
      <trkpt lat="45.80247" lon="3.23924">
        <ele>360.6</ele>
        <time>2024-08-11T11:08:07Z</time>
      </trkpt>
      <trkpt lat="45.8025" lon="3.2392">
        <ele>360.8</ele>
        <time>2024-08-11T11:08:08Z</time>
      </trkpt>
      <trkpt lat="45.80254" lon="3.23915">
        <ele>360.8</ele>
        <time>2024-08-11T11:08:09Z</time>
      </trkpt>
      <trkpt lat="45.80257" lon="3.23911">
        <ele>361</ele>
        <time>2024-08-11T11:08:10Z</time>
      </trkpt>
      <trkpt lat="45.80261" lon="3.23909">
        <ele>361</ele>
        <time>2024-08-11T11:08:11Z</time>
      </trkpt>
      <trkpt lat="45.80265" lon="3.23907">
        <ele>361</ele>
        <time>2024-08-11T11:08:12Z</time>
      </trkpt>
      <trkpt lat="45.80269" lon="3.23905">
        <ele>361.2</ele>
        <time>2024-08-11T11:08:13Z</time>
      </trkpt>
      <trkpt lat="45.80273" lon="3.23903">
        <ele>361.4</ele>
        <time>2024-08-11T11:08:14Z</time>
      </trkpt>
      <trkpt lat="45.80277" lon="3.23901">
        <ele>361.4</ele>
        <time>2024-08-11T11:08:15Z</time>
      </trkpt>
      <trkpt lat="45.80281" lon="3.23899">
        <ele>361.6</ele>
        <time>2024-08-11T11:08:16Z</time>
      </trkpt>
      <trkpt lat="45.80285" lon="3.23897">
        <ele>361.6</ele>
        <time>2024-08-11T11:08:17Z</time>
      </trkpt>
      <trkpt lat="45.80289" lon="3.23895">
        <ele>361.8</ele>
        <time>2024-08-11T11:08:18Z</time>
      </trkpt>
      <trkpt lat="45.80293" lon="3.23893">
        <ele>361.8</ele>
        <time>2024-08-11T11:08:19Z</time>
      </trkpt>
      <trkpt lat="45.80297" lon="3.2389">
        <ele>362</ele>
        <time>2024-08-11T11:08:20Z</time>
      </trkpt>
      <trkpt lat="45.80302" lon="3.23888">
        <ele>362.2</ele>
        <time>2024-08-11T11:08:21Z</time>
      </trkpt>
      <trkpt lat="45.80306" lon="3.23886">
        <ele>362.2</ele>
        <time>2024-08-11T11:08:22Z</time>
      </trkpt>
      <trkpt lat="45.80311" lon="3.23884">
        <ele>362.2</ele>
        <time>2024-08-11T11:08:23Z</time>
      </trkpt>
      <trkpt lat="45.80315" lon="3.23881">
        <ele>362.4</ele>
        <time>2024-08-11T11:08:24Z</time>
      </trkpt>
      <trkpt lat="45.8032" lon="3.23879">
        <ele>362.4</ele>
        <time>2024-08-11T11:08:25Z</time>
      </trkpt>
      <trkpt lat="45.80324" lon="3.23877">
        <ele>362.6</ele>
        <time>2024-08-11T11:08:26Z</time>
      </trkpt>
      <trkpt lat="45.80328" lon="3.23875">
        <ele>362.6</ele>
        <time>2024-08-11T11:08:27Z</time>
      </trkpt>
      <trkpt lat="45.80333" lon="3.23873">
        <ele>362.8</ele>
        <time>2024-08-11T11:08:28Z</time>
      </trkpt>
      <trkpt lat="45.80337" lon="3.23871">
        <ele>362.8</ele>
        <time>2024-08-11T11:08:29Z</time>
      </trkpt>
      <trkpt lat="45.80341" lon="3.23869">
        <ele>363</ele>
        <time>2024-08-11T11:08:30Z</time>
      </trkpt>
      <trkpt lat="45.80345" lon="3.23866">
        <ele>363</ele>
        <time>2024-08-11T11:08:31Z</time>
      </trkpt>
      <trkpt lat="45.8035" lon="3.23864">
        <ele>363.2</ele>
        <time>2024-08-11T11:08:32Z</time>
      </trkpt>
      <trkpt lat="45.80354" lon="3.23862">
        <ele>363.4</ele>
        <time>2024-08-11T11:08:33Z</time>
      </trkpt>
      <trkpt lat="45.80359" lon="3.2386">
        <ele>363.4</ele>
        <time>2024-08-11T11:08:34Z</time>
      </trkpt>
      <trkpt lat="45.80364" lon="3.23857">
        <ele>363.4</ele>
        <time>2024-08-11T11:08:35Z</time>
      </trkpt>
      <trkpt lat="45.80369" lon="3.23855">
        <ele>363.6</ele>
        <time>2024-08-11T11:08:36Z</time>
      </trkpt>
      <trkpt lat="45.80373" lon="3.23852">
        <ele>363.6</ele>
        <time>2024-08-11T11:08:37Z</time>
      </trkpt>
      <trkpt lat="45.80378" lon="3.23849">
        <ele>363.8</ele>
        <time>2024-08-11T11:08:38Z</time>
      </trkpt>
      <trkpt lat="45.80383" lon="3.23847">
        <ele>363.8</ele>
        <time>2024-08-11T11:08:39Z</time>
      </trkpt>
      <trkpt lat="45.80387" lon="3.23844">
        <ele>363.8</ele>
        <time>2024-08-11T11:08:40Z</time>
      </trkpt>
      <trkpt lat="45.80392" lon="3.23841">
        <ele>364</ele>
        <time>2024-08-11T11:08:41Z</time>
      </trkpt>
      <trkpt lat="45.80397" lon="3.23838">
        <ele>364</ele>
        <time>2024-08-11T11:08:42Z</time>
      </trkpt>
      <trkpt lat="45.80402" lon="3.23835">
        <ele>364.2</ele>
        <time>2024-08-11T11:08:43Z</time>
      </trkpt>
      <trkpt lat="45.80407" lon="3.23832">
        <ele>364.2</ele>
        <time>2024-08-11T11:08:44Z</time>
      </trkpt>
      <trkpt lat="45.80412" lon="3.2383">
        <ele>364.4</ele>
        <time>2024-08-11T11:08:45Z</time>
      </trkpt>
      <trkpt lat="45.80417" lon="3.23827">
        <ele>364.6</ele>
        <time>2024-08-11T11:08:46Z</time>
      </trkpt>
      <trkpt lat="45.80422" lon="3.23824">
        <ele>364.6</ele>
        <time>2024-08-11T11:08:47Z</time>
      </trkpt>
      <trkpt lat="45.80427" lon="3.23821">
        <ele>364.6</ele>
        <time>2024-08-11T11:08:48Z</time>
      </trkpt>
      <trkpt lat="45.80432" lon="3.23818">
        <ele>364.8</ele>
        <time>2024-08-11T11:08:49Z</time>
      </trkpt>
      <trkpt lat="45.80436" lon="3.23816">
        <ele>364.8</ele>
        <time>2024-08-11T11:08:50Z</time>
      </trkpt>
      <trkpt lat="45.80441" lon="3.23813">
        <ele>364.8</ele>
        <time>2024-08-11T11:08:51Z</time>
      </trkpt>
      <trkpt lat="45.80446" lon="3.2381">
        <ele>365</ele>
        <time>2024-08-11T11:08:52Z</time>
      </trkpt>
      <trkpt lat="45.8045" lon="3.23808">
        <ele>365</ele>
        <time>2024-08-11T11:08:53Z</time>
      </trkpt>
      <trkpt lat="45.80455" lon="3.23805">
        <ele>365.2</ele>
        <time>2024-08-11T11:08:54Z</time>
      </trkpt>
      <trkpt lat="45.8046" lon="3.23802">
        <ele>365.2</ele>
        <time>2024-08-11T11:08:55Z</time>
      </trkpt>
      <trkpt lat="45.80465" lon="3.23799">
        <ele>365.2</ele>
        <time>2024-08-11T11:08:56Z</time>
      </trkpt>
      <trkpt lat="45.8047" lon="3.23796">
        <ele>365.4</ele>
        <time>2024-08-11T11:08:57Z</time>
      </trkpt>
      <trkpt lat="45.80474" lon="3.23794">
        <ele>365.4</ele>
        <time>2024-08-11T11:08:58Z</time>
      </trkpt>
      <trkpt lat="45.80479" lon="3.23791">
        <ele>365.4</ele>
        <time>2024-08-11T11:08:59Z</time>
      </trkpt>
      <trkpt lat="45.80484" lon="3.23788">
        <ele>365.6</ele>
        <time>2024-08-11T11:09:00Z</time>
      </trkpt>
      <trkpt lat="45.80488" lon="3.23785">
        <ele>365.6</ele>
        <time>2024-08-11T11:09:01Z</time>
      </trkpt>
      <trkpt lat="45.80493" lon="3.23782">
        <ele>365.6</ele>
        <time>2024-08-11T11:09:02Z</time>
      </trkpt>
      <trkpt lat="45.80498" lon="3.2378">
        <ele>365.8</ele>
        <time>2024-08-11T11:09:03Z</time>
      </trkpt>
      <trkpt lat="45.80503" lon="3.23777">
        <ele>365.8</ele>
        <time>2024-08-11T11:09:04Z</time>
      </trkpt>
      <trkpt lat="45.80507" lon="3.23774">
        <ele>366</ele>
        <time>2024-08-11T11:09:05Z</time>
      </trkpt>
      <trkpt lat="45.80512" lon="3.23771">
        <ele>366</ele>
        <time>2024-08-11T11:09:06Z</time>
      </trkpt>
      <trkpt lat="45.80517" lon="3.23768">
        <ele>366</ele>
        <time>2024-08-11T11:09:07Z</time>
      </trkpt>
      <trkpt lat="45.80522" lon="3.23765">
        <ele>366.2</ele>
        <time>2024-08-11T11:09:08Z</time>
      </trkpt>
      <trkpt lat="45.80526" lon="3.23763">
        <ele>366.2</ele>
        <time>2024-08-11T11:09:09Z</time>
      </trkpt>
      <trkpt lat="45.80531" lon="3.2376">
        <ele>366.2</ele>
        <time>2024-08-11T11:09:10Z</time>
      </trkpt>
      <trkpt lat="45.80536" lon="3.23757">
        <ele>366.2</ele>
        <time>2024-08-11T11:09:11Z</time>
      </trkpt>
      <trkpt lat="45.80542" lon="3.23754">
        <ele>366.4</ele>
        <time>2024-08-11T11:09:12Z</time>
      </trkpt>
      <trkpt lat="45.80547" lon="3.23751">
        <ele>366.4</ele>
        <time>2024-08-11T11:09:13Z</time>
      </trkpt>
      <trkpt lat="45.80552" lon="3.23748">
        <ele>366.4</ele>
        <time>2024-08-11T11:09:14Z</time>
      </trkpt>
      <trkpt lat="45.80557" lon="3.23745">
        <ele>366.6</ele>
        <time>2024-08-11T11:09:15Z</time>
      </trkpt>
      <trkpt lat="45.80562" lon="3.23742">
        <ele>366.6</ele>
        <time>2024-08-11T11:09:16Z</time>
      </trkpt>
      <trkpt lat="45.80567" lon="3.23739">
        <ele>366.6</ele>
        <time>2024-08-11T11:09:17Z</time>
      </trkpt>
      <trkpt lat="45.80572" lon="3.23736">
        <ele>366.8</ele>
        <time>2024-08-11T11:09:18Z</time>
      </trkpt>
      <trkpt lat="45.80577" lon="3.23733">
        <ele>366.8</ele>
        <time>2024-08-11T11:09:19Z</time>
      </trkpt>
      <trkpt lat="45.80582" lon="3.2373">
        <ele>366.8</ele>
        <time>2024-08-11T11:09:20Z</time>
      </trkpt>
      <trkpt lat="45.80587" lon="3.23727">
        <ele>366.8</ele>
        <time>2024-08-11T11:09:21Z</time>
      </trkpt>
      <trkpt lat="45.80592" lon="3.23724">
        <ele>366.8</ele>
        <time>2024-08-11T11:09:22Z</time>
      </trkpt>
      <trkpt lat="45.80597" lon="3.23721">
        <ele>367</ele>
        <time>2024-08-11T11:09:23Z</time>
      </trkpt>
      <trkpt lat="45.80602" lon="3.23719">
        <ele>367</ele>
        <time>2024-08-11T11:09:24Z</time>
      </trkpt>
      <trkpt lat="45.80607" lon="3.23716">
        <ele>367</ele>
        <time>2024-08-11T11:09:25Z</time>
      </trkpt>
      <trkpt lat="45.80611" lon="3.23713">
        <ele>367</ele>
        <time>2024-08-11T11:09:26Z</time>
      </trkpt>
      <trkpt lat="45.80616" lon="3.2371">
        <ele>367</ele>
        <time>2024-08-11T11:09:27Z</time>
      </trkpt>
      <trkpt lat="45.80621" lon="3.23707">
        <ele>367.2</ele>
        <time>2024-08-11T11:09:28Z</time>
      </trkpt>
      <trkpt lat="45.80626" lon="3.23704">
        <ele>367.2</ele>
        <time>2024-08-11T11:09:29Z</time>
      </trkpt>
      <trkpt lat="45.8063" lon="3.237">
        <ele>367.2</ele>
        <time>2024-08-11T11:09:30Z</time>
      </trkpt>
      <trkpt lat="45.80634" lon="3.23696">
        <ele>367.2</ele>
        <time>2024-08-11T11:09:31Z</time>
      </trkpt>
      <trkpt lat="45.80638" lon="3.23693">
        <ele>367.4</ele>
        <time>2024-08-11T11:09:32Z</time>
      </trkpt>
      <trkpt lat="45.80642" lon="3.23689">
        <ele>367.4</ele>
        <time>2024-08-11T11:09:33Z</time>
      </trkpt>
      <trkpt lat="45.80646" lon="3.23686">
        <ele>367.4</ele>
        <time>2024-08-11T11:09:34Z</time>
      </trkpt>
      <trkpt lat="45.8065" lon="3.23682">
        <ele>367.4</ele>
        <time>2024-08-11T11:09:35Z</time>
      </trkpt>
      <trkpt lat="45.80654" lon="3.23679">
        <ele>367.4</ele>
        <time>2024-08-11T11:09:36Z</time>
      </trkpt>
      <trkpt lat="45.80658" lon="3.23675">
        <ele>367.6</ele>
        <time>2024-08-11T11:09:37Z</time>
      </trkpt>
      <trkpt lat="45.80661" lon="3.23671">
        <ele>367.6</ele>
        <time>2024-08-11T11:09:38Z</time>
      </trkpt>
      <trkpt lat="45.80664" lon="3.23667">
        <ele>367.6</ele>
        <time>2024-08-11T11:09:39Z</time>
      </trkpt>
      <trkpt lat="45.80667" lon="3.23662">
        <ele>367.8</ele>
        <time>2024-08-11T11:09:40Z</time>
      </trkpt>
      <trkpt lat="45.8067" lon="3.23657">
        <ele>367.8</ele>
        <time>2024-08-11T11:09:41Z</time>
      </trkpt>
      <trkpt lat="45.80673" lon="3.23653">
        <ele>367.8</ele>
        <time>2024-08-11T11:09:42Z</time>
      </trkpt>
      <trkpt lat="45.80676" lon="3.23649">
        <ele>368</ele>
        <time>2024-08-11T11:09:43Z</time>
      </trkpt>
      <trkpt lat="45.80695" lon="3.23636">
        <ele>368</ele>
        <time>2024-08-11T11:09:44Z</time>
      </trkpt>
      <trkpt lat="45.80696" lon="3.23637">
        <ele>368</ele>
        <time>2024-08-11T11:09:45Z</time>
      </trkpt>
      <trkpt lat="45.80696" lon="3.23655">
        <ele>368.2</ele>
        <time>2024-08-11T11:09:46Z</time>
      </trkpt>
      <trkpt lat="45.80692" lon="3.23668">
        <ele>368.4</ele>
        <time>2024-08-11T11:09:47Z</time>
      </trkpt>
      <trkpt lat="45.80691" lon="3.23674">
        <ele>368.4</ele>
        <time>2024-08-11T11:09:48Z</time>
      </trkpt>
      <trkpt lat="45.80689" lon="3.2368">
        <ele>368.4</ele>
        <time>2024-08-11T11:09:49Z</time>
      </trkpt>
      <trkpt lat="45.80687" lon="3.23687">
        <ele>368.6</ele>
        <time>2024-08-11T11:09:50Z</time>
      </trkpt>
      <trkpt lat="45.80685" lon="3.23694">
        <ele>368.6</ele>
        <time>2024-08-11T11:09:51Z</time>
      </trkpt>
      <trkpt lat="45.80684" lon="3.23701">
        <ele>368.6</ele>
        <time>2024-08-11T11:09:52Z</time>
      </trkpt>
      <trkpt lat="45.80682" lon="3.23709">
        <ele>368.8</ele>
        <time>2024-08-11T11:09:53Z</time>
      </trkpt>
      <trkpt lat="45.8068" lon="3.23716">
        <ele>368.8</ele>
        <time>2024-08-11T11:09:54Z</time>
      </trkpt>
      <trkpt lat="45.80678" lon="3.23723">
        <ele>368.8</ele>
        <time>2024-08-11T11:09:55Z</time>
      </trkpt>
      <trkpt lat="45.80676" lon="3.23731">
        <ele>368.8</ele>
        <time>2024-08-11T11:09:56Z</time>
      </trkpt>
      <trkpt lat="45.80674" lon="3.23739">
        <ele>368.8</ele>
        <time>2024-08-11T11:09:57Z</time>
      </trkpt>
      <trkpt lat="45.80671" lon="3.23748">
        <ele>368.8</ele>
        <time>2024-08-11T11:09:58Z</time>
      </trkpt>
      <trkpt lat="45.80669" lon="3.23756">
        <ele>368.8</ele>
        <time>2024-08-11T11:09:59Z</time>
      </trkpt>
      <trkpt lat="45.80667" lon="3.23765">
        <ele>368.8</ele>
        <time>2024-08-11T11:10:00Z</time>
      </trkpt>
      <trkpt lat="45.80665" lon="3.23773">
        <ele>368.8</ele>
        <time>2024-08-11T11:10:01Z</time>
      </trkpt>
      <trkpt lat="45.80663" lon="3.23781">
        <ele>368.8</ele>
        <time>2024-08-11T11:10:02Z</time>
      </trkpt>
      <trkpt lat="45.8066" lon="3.23789">
        <ele>368.8</ele>
        <time>2024-08-11T11:10:03Z</time>
      </trkpt>
      <trkpt lat="45.80658" lon="3.23797">
        <ele>368.8</ele>
        <time>2024-08-11T11:10:04Z</time>
      </trkpt>
      <trkpt lat="45.80656" lon="3.23805">
        <ele>368.8</ele>
        <time>2024-08-11T11:10:05Z</time>
      </trkpt>
      <trkpt lat="45.80654" lon="3.23812">
        <ele>368.8</ele>
        <time>2024-08-11T11:10:06Z</time>
      </trkpt>
      <trkpt lat="45.80652" lon="3.23819">
        <ele>368.8</ele>
        <time>2024-08-11T11:10:07Z</time>
      </trkpt>
      <trkpt lat="45.8065" lon="3.23826">
        <ele>369</ele>
        <time>2024-08-11T11:10:08Z</time>
      </trkpt>
      <trkpt lat="45.80648" lon="3.23833">
        <ele>369</ele>
        <time>2024-08-11T11:10:09Z</time>
      </trkpt>
      <trkpt lat="45.80647" lon="3.2384">
        <ele>369</ele>
        <time>2024-08-11T11:10:10Z</time>
      </trkpt>
      <trkpt lat="45.80645" lon="3.23847">
        <ele>369</ele>
        <time>2024-08-11T11:10:11Z</time>
      </trkpt>
      <trkpt lat="45.80643" lon="3.23854">
        <ele>369.2</ele>
        <time>2024-08-11T11:10:12Z</time>
      </trkpt>
      <trkpt lat="45.80641" lon="3.23861">
        <ele>369.2</ele>
        <time>2024-08-11T11:10:13Z</time>
      </trkpt>
      <trkpt lat="45.80639" lon="3.23868">
        <ele>369.2</ele>
        <time>2024-08-11T11:10:14Z</time>
      </trkpt>
      <trkpt lat="45.80637" lon="3.23875">
        <ele>369.2</ele>
        <time>2024-08-11T11:10:15Z</time>
      </trkpt>
      <trkpt lat="45.80636" lon="3.23882">
        <ele>369.2</ele>
        <time>2024-08-11T11:10:16Z</time>
      </trkpt>
      <trkpt lat="45.80634" lon="3.23889">
        <ele>369.2</ele>
        <time>2024-08-11T11:10:17Z</time>
      </trkpt>
      <trkpt lat="45.80632" lon="3.23895">
        <ele>369.2</ele>
        <time>2024-08-11T11:10:18Z</time>
      </trkpt>
      <trkpt lat="45.8063" lon="3.23902">
        <ele>369.2</ele>
        <time>2024-08-11T11:10:19Z</time>
      </trkpt>
      <trkpt lat="45.80628" lon="3.23909">
        <ele>369.2</ele>
        <time>2024-08-11T11:10:20Z</time>
      </trkpt>
      <trkpt lat="45.80626" lon="3.23916">
        <ele>369.2</ele>
        <time>2024-08-11T11:10:21Z</time>
      </trkpt>
      <trkpt lat="45.80623" lon="3.23923">
        <ele>369.2</ele>
        <time>2024-08-11T11:10:22Z</time>
      </trkpt>
      <trkpt lat="45.80621" lon="3.2393">
        <ele>369.2</ele>
        <time>2024-08-11T11:10:23Z</time>
      </trkpt>
      <trkpt lat="45.80619" lon="3.23938">
        <ele>369.2</ele>
        <time>2024-08-11T11:10:24Z</time>
      </trkpt>
      <trkpt lat="45.80617" lon="3.23945">
        <ele>369.2</ele>
        <time>2024-08-11T11:10:25Z</time>
      </trkpt>
      <trkpt lat="45.80615" lon="3.23951">
        <ele>369.2</ele>
        <time>2024-08-11T11:10:26Z</time>
      </trkpt>
      <trkpt lat="45.80613" lon="3.23957">
        <ele>369.2</ele>
        <time>2024-08-11T11:10:27Z</time>
      </trkpt>
      <trkpt lat="45.80611" lon="3.23964">
        <ele>369.2</ele>
        <time>2024-08-11T11:10:28Z</time>
      </trkpt>
      <trkpt lat="45.80609" lon="3.23969">
        <ele>369.2</ele>
        <time>2024-08-11T11:10:29Z</time>
      </trkpt>
      <trkpt lat="45.80608" lon="3.23973">
        <ele>369.2</ele>
        <time>2024-08-11T11:10:30Z</time>
      </trkpt>
      <trkpt lat="45.80607" lon="3.23975">
        <ele>369.2</ele>
        <time>2024-08-11T11:10:31Z</time>
      </trkpt>
      <trkpt lat="45.80606" lon="3.23977">
        <ele>369.2</ele>
        <time>2024-08-11T11:10:32Z</time>
      </trkpt>
      <trkpt lat="45.80606" lon="3.23977">
        <ele>369.2</ele>
        <time>2024-08-11T11:10:33Z</time>
      </trkpt>
      <trkpt lat="45.80606" lon="3.23977">
        <ele>369.2</ele>
        <time>2024-08-11T11:10:34Z</time>
      </trkpt>
      <trkpt lat="45.80606" lon="3.23979">
        <ele>369.4</ele>
        <time>2024-08-11T11:12:30Z</time>
      </trkpt>
      <trkpt lat="45.80608" lon="3.23972">
        <ele>369.4</ele>
        <time>2024-08-11T11:12:31Z</time>
      </trkpt>
      <trkpt lat="45.80609" lon="3.23973">
        <ele>369.4</ele>
        <time>2024-08-11T11:12:32Z</time>
      </trkpt>
      <trkpt lat="45.80612" lon="3.23973">
        <ele>369.4</ele>
        <time>2024-08-11T11:12:33Z</time>
      </trkpt>
      <trkpt lat="45.80615" lon="3.23974">
        <ele>369.4</ele>
        <time>2024-08-11T11:12:34Z</time>
      </trkpt>
      <trkpt lat="45.80618" lon="3.23975">
        <ele>369.4</ele>
        <time>2024-08-11T11:12:35Z</time>
      </trkpt>
      <trkpt lat="45.80622" lon="3.23977">
        <ele>369.2</ele>
        <time>2024-08-11T11:12:36Z</time>
      </trkpt>
      <trkpt lat="45.80626" lon="3.23978">
        <ele>369.2</ele>
        <time>2024-08-11T11:12:37Z</time>
      </trkpt>
      <trkpt lat="45.80631" lon="3.23979">
        <ele>369.2</ele>
        <time>2024-08-11T11:12:38Z</time>
      </trkpt>
      <trkpt lat="45.80635" lon="3.23981">
        <ele>369.2</ele>
        <time>2024-08-11T11:12:39Z</time>
      </trkpt>
      <trkpt lat="45.80639" lon="3.23982">
        <ele>369.4</ele>
        <time>2024-08-11T11:12:40Z</time>
      </trkpt>
      <trkpt lat="45.80643" lon="3.23983">
        <ele>369.4</ele>
        <time>2024-08-11T11:12:41Z</time>
      </trkpt>
      <trkpt lat="45.80648" lon="3.23985">
        <ele>369.4</ele>
        <time>2024-08-11T11:12:42Z</time>
      </trkpt>
      <trkpt lat="45.80652" lon="3.23986">
        <ele>369.4</ele>
        <time>2024-08-11T11:12:43Z</time>
      </trkpt>
      <trkpt lat="45.80657" lon="3.23987">
        <ele>369.4</ele>
        <time>2024-08-11T11:12:44Z</time>
      </trkpt>
      <trkpt lat="45.80661" lon="3.23988">
        <ele>369.4</ele>
        <time>2024-08-11T11:12:45Z</time>
      </trkpt>
      <trkpt lat="45.80666" lon="3.23989">
        <ele>369.4</ele>
        <time>2024-08-11T11:12:46Z</time>
      </trkpt>
      <trkpt lat="45.8067" lon="3.2399">
        <ele>369.4</ele>
        <time>2024-08-11T11:12:47Z</time>
      </trkpt>
      <trkpt lat="45.80675" lon="3.23991">
        <ele>369.4</ele>
        <time>2024-08-11T11:12:48Z</time>
      </trkpt>
      <trkpt lat="45.80679" lon="3.23992">
        <ele>369.4</ele>
        <time>2024-08-11T11:12:49Z</time>
      </trkpt>
      <trkpt lat="45.80684" lon="3.23993">
        <ele>369.4</ele>
        <time>2024-08-11T11:12:50Z</time>
      </trkpt>
      <trkpt lat="45.80688" lon="3.23994">
        <ele>369.4</ele>
        <time>2024-08-11T11:12:51Z</time>
      </trkpt>
      <trkpt lat="45.80692" lon="3.23994">
        <ele>369.2</ele>
        <time>2024-08-11T11:12:52Z</time>
      </trkpt>
      <trkpt lat="45.80697" lon="3.23995">
        <ele>369.4</ele>
        <time>2024-08-11T11:12:53Z</time>
      </trkpt>
      <trkpt lat="45.80701" lon="3.23996">
        <ele>369.4</ele>
        <time>2024-08-11T11:12:54Z</time>
      </trkpt>
      <trkpt lat="45.80706" lon="3.23997">
        <ele>369.4</ele>
        <time>2024-08-11T11:12:55Z</time>
      </trkpt>
      <trkpt lat="45.8071" lon="3.23998">
        <ele>369.4</ele>
        <time>2024-08-11T11:12:56Z</time>
      </trkpt>
      <trkpt lat="45.80714" lon="3.23999">
        <ele>369.4</ele>
        <time>2024-08-11T11:12:57Z</time>
      </trkpt>
      <trkpt lat="45.80719" lon="3.24">
        <ele>369.4</ele>
        <time>2024-08-11T11:12:58Z</time>
      </trkpt>
      <trkpt lat="45.80723" lon="3.24002">
        <ele>369.4</ele>
        <time>2024-08-11T11:12:59Z</time>
      </trkpt>
      <trkpt lat="45.80727" lon="3.24003">
        <ele>369.4</ele>
        <time>2024-08-11T11:13:00Z</time>
      </trkpt>
      <trkpt lat="45.80731" lon="3.24004">
        <ele>369.4</ele>
        <time>2024-08-11T11:13:01Z</time>
      </trkpt>
      <trkpt lat="45.80735" lon="3.24005">
        <ele>369.4</ele>
        <time>2024-08-11T11:13:02Z</time>
      </trkpt>
      <trkpt lat="45.80739" lon="3.24005">
        <ele>369.4</ele>
        <time>2024-08-11T11:13:03Z</time>
      </trkpt>
      <trkpt lat="45.80742" lon="3.24006">
        <ele>369.4</ele>
        <time>2024-08-11T11:13:04Z</time>
      </trkpt>
      <trkpt lat="45.80746" lon="3.24007">
        <ele>369.4</ele>
        <time>2024-08-11T11:13:05Z</time>
      </trkpt>
      <trkpt lat="45.80749" lon="3.24008">
        <ele>369.4</ele>
        <time>2024-08-11T11:13:06Z</time>
      </trkpt>
      <trkpt lat="45.80753" lon="3.24009">
        <ele>369.4</ele>
        <time>2024-08-11T11:13:07Z</time>
      </trkpt>
      <trkpt lat="45.80756" lon="3.2401">
        <ele>369.4</ele>
        <time>2024-08-11T11:13:08Z</time>
      </trkpt>
      <trkpt lat="45.80759" lon="3.24011">
        <ele>369.6</ele>
        <time>2024-08-11T11:13:09Z</time>
      </trkpt>
      <trkpt lat="45.80762" lon="3.24012">
        <ele>369.6</ele>
        <time>2024-08-11T11:13:10Z</time>
      </trkpt>
      <trkpt lat="45.80765" lon="3.24013">
        <ele>369.6</ele>
        <time>2024-08-11T11:13:11Z</time>
      </trkpt>
      <trkpt lat="45.80768" lon="3.24015">
        <ele>369.6</ele>
        <time>2024-08-11T11:13:12Z</time>
      </trkpt>
      <trkpt lat="45.80771" lon="3.24016">
        <ele>369.6</ele>
        <time>2024-08-11T11:13:13Z</time>
      </trkpt>
      <trkpt lat="45.80774" lon="3.24018">
        <ele>369.8</ele>
        <time>2024-08-11T11:13:14Z</time>
      </trkpt>
      <trkpt lat="45.80777" lon="3.2402">
        <ele>369.8</ele>
        <time>2024-08-11T11:13:15Z</time>
      </trkpt>
      <trkpt lat="45.80781" lon="3.24022">
        <ele>369.8</ele>
        <time>2024-08-11T11:13:16Z</time>
      </trkpt>
      <trkpt lat="45.80784" lon="3.24024">
        <ele>369.8</ele>
        <time>2024-08-11T11:13:17Z</time>
      </trkpt>
      <trkpt lat="45.80788" lon="3.24026">
        <ele>370</ele>
        <time>2024-08-11T11:13:18Z</time>
      </trkpt>
      <trkpt lat="45.80792" lon="3.24028">
        <ele>370</ele>
        <time>2024-08-11T11:13:19Z</time>
      </trkpt>
      <trkpt lat="45.80796" lon="3.2403">
        <ele>370</ele>
        <time>2024-08-11T11:13:20Z</time>
      </trkpt>
      <trkpt lat="45.808" lon="3.24032">
        <ele>370</ele>
        <time>2024-08-11T11:13:21Z</time>
      </trkpt>
      <trkpt lat="45.80804" lon="3.24034">
        <ele>370.2</ele>
        <time>2024-08-11T11:13:22Z</time>
      </trkpt>
      <trkpt lat="45.80808" lon="3.24035">
        <ele>370.2</ele>
        <time>2024-08-11T11:13:23Z</time>
      </trkpt>
      <trkpt lat="45.80812" lon="3.24037">
        <ele>370.4</ele>
        <time>2024-08-11T11:13:24Z</time>
      </trkpt>
      <trkpt lat="45.80816" lon="3.24038">
        <ele>370.4</ele>
        <time>2024-08-11T11:13:25Z</time>
      </trkpt>
      <trkpt lat="45.8082" lon="3.2404">
        <ele>370.4</ele>
        <time>2024-08-11T11:13:26Z</time>
      </trkpt>
      <trkpt lat="45.80825" lon="3.24041">
        <ele>370.4</ele>
        <time>2024-08-11T11:13:27Z</time>
      </trkpt>
      <trkpt lat="45.80829" lon="3.24043">
        <ele>370.4</ele>
        <time>2024-08-11T11:13:28Z</time>
      </trkpt>
      <trkpt lat="45.80833" lon="3.24045">
        <ele>370.4</ele>
        <time>2024-08-11T11:13:29Z</time>
      </trkpt>
      <trkpt lat="45.80838" lon="3.24046">
        <ele>370.4</ele>
        <time>2024-08-11T11:13:30Z</time>
      </trkpt>
      <trkpt lat="45.80842" lon="3.24048">
        <ele>370.4</ele>
        <time>2024-08-11T11:13:31Z</time>
      </trkpt>
      <trkpt lat="45.80847" lon="3.2405">
        <ele>370.6</ele>
        <time>2024-08-11T11:13:32Z</time>
      </trkpt>
      <trkpt lat="45.80851" lon="3.24052">
        <ele>370.6</ele>
        <time>2024-08-11T11:13:33Z</time>
      </trkpt>
      <trkpt lat="45.80856" lon="3.24053">
        <ele>370.6</ele>
        <time>2024-08-11T11:13:34Z</time>
      </trkpt>
      <trkpt lat="45.8086" lon="3.24055">
        <ele>370.6</ele>
        <time>2024-08-11T11:13:35Z</time>
      </trkpt>
      <trkpt lat="45.80864" lon="3.24057">
        <ele>370.6</ele>
        <time>2024-08-11T11:13:36Z</time>
      </trkpt>
      <trkpt lat="45.80868" lon="3.24058">
        <ele>370.6</ele>
        <time>2024-08-11T11:13:37Z</time>
      </trkpt>
      <trkpt lat="45.80872" lon="3.2406">
        <ele>370.6</ele>
        <time>2024-08-11T11:13:38Z</time>
      </trkpt>
      <trkpt lat="45.80876" lon="3.24061">
        <ele>370.6</ele>
        <time>2024-08-11T11:13:39Z</time>
      </trkpt>
      <trkpt lat="45.80881" lon="3.24063">
        <ele>370.6</ele>
        <time>2024-08-11T11:13:40Z</time>
      </trkpt>
      <trkpt lat="45.80885" lon="3.24065">
        <ele>370.6</ele>
        <time>2024-08-11T11:13:41Z</time>
      </trkpt>
      <trkpt lat="45.80889" lon="3.24066">
        <ele>370.8</ele>
        <time>2024-08-11T11:13:42Z</time>
      </trkpt>
      <trkpt lat="45.80894" lon="3.24068">
        <ele>370.8</ele>
        <time>2024-08-11T11:13:43Z</time>
      </trkpt>
      <trkpt lat="45.80898" lon="3.2407">
        <ele>370.8</ele>
        <time>2024-08-11T11:13:44Z</time>
      </trkpt>
      <trkpt lat="45.80903" lon="3.24072">
        <ele>370.8</ele>
        <time>2024-08-11T11:13:45Z</time>
      </trkpt>
      <trkpt lat="45.80908" lon="3.24073">
        <ele>370.6</ele>
        <time>2024-08-11T11:13:46Z</time>
      </trkpt>
      <trkpt lat="45.80912" lon="3.24075">
        <ele>370.6</ele>
        <time>2024-08-11T11:13:47Z</time>
      </trkpt>
      <trkpt lat="45.80917" lon="3.24077">
        <ele>370.6</ele>
        <time>2024-08-11T11:13:48Z</time>
      </trkpt>
      <trkpt lat="45.80922" lon="3.24079">
        <ele>370.6</ele>
        <time>2024-08-11T11:13:49Z</time>
      </trkpt>
      <trkpt lat="45.80926" lon="3.24081">
        <ele>370.6</ele>
        <time>2024-08-11T11:13:50Z</time>
      </trkpt>
      <trkpt lat="45.8093" lon="3.24083">
        <ele>370.6</ele>
        <time>2024-08-11T11:13:51Z</time>
      </trkpt>
      <trkpt lat="45.80935" lon="3.24086">
        <ele>370.6</ele>
        <time>2024-08-11T11:13:52Z</time>
      </trkpt>
      <trkpt lat="45.80939" lon="3.24088">
        <ele>371</ele>
        <time>2024-08-11T11:13:53Z</time>
      </trkpt>
      <trkpt lat="45.80944" lon="3.24091">
        <ele>370.6</ele>
        <time>2024-08-11T11:13:54Z</time>
      </trkpt>
      <trkpt lat="45.80948" lon="3.24093">
        <ele>370.4</ele>
        <time>2024-08-11T11:13:55Z</time>
      </trkpt>
      <trkpt lat="45.80952" lon="3.24095">
        <ele>370.4</ele>
        <time>2024-08-11T11:13:56Z</time>
      </trkpt>
      <trkpt lat="45.80956" lon="3.24097">
        <ele>370.4</ele>
        <time>2024-08-11T11:13:57Z</time>
      </trkpt>
      <trkpt lat="45.8096" lon="3.241">
        <ele>370.4</ele>
        <time>2024-08-11T11:13:58Z</time>
      </trkpt>
      <trkpt lat="45.80965" lon="3.24102">
        <ele>370.6</ele>
        <time>2024-08-11T11:13:59Z</time>
      </trkpt>
      <trkpt lat="45.80969" lon="3.24105">
        <ele>370.6</ele>
        <time>2024-08-11T11:14:00Z</time>
      </trkpt>
      <trkpt lat="45.80974" lon="3.24107">
        <ele>370.6</ele>
        <time>2024-08-11T11:14:01Z</time>
      </trkpt>
      <trkpt lat="45.80978" lon="3.24109">
        <ele>370.4</ele>
        <time>2024-08-11T11:14:02Z</time>
      </trkpt>
      <trkpt lat="45.80982" lon="3.24112">
        <ele>370.4</ele>
        <time>2024-08-11T11:14:03Z</time>
      </trkpt>
      <trkpt lat="45.80986" lon="3.24114">
        <ele>370.4</ele>
        <time>2024-08-11T11:14:04Z</time>
      </trkpt>
      <trkpt lat="45.8099" lon="3.24117">
        <ele>370.4</ele>
        <time>2024-08-11T11:14:05Z</time>
      </trkpt>
      <trkpt lat="45.80988" lon="3.24121">
        <ele>370.6</ele>
        <time>2024-08-11T11:14:06Z</time>
      </trkpt>
      <trkpt lat="45.80987" lon="3.24126">
        <ele>370.4</ele>
        <time>2024-08-11T11:14:07Z</time>
      </trkpt>
      <trkpt lat="45.80986" lon="3.24131">
        <ele>370.4</ele>
        <time>2024-08-11T11:14:08Z</time>
      </trkpt>
      <trkpt lat="45.80985" lon="3.24137">
        <ele>370.4</ele>
        <time>2024-08-11T11:14:09Z</time>
      </trkpt>
      <trkpt lat="45.80983" lon="3.24143">
        <ele>370.4</ele>
        <time>2024-08-11T11:14:10Z</time>
      </trkpt>
      <trkpt lat="45.80982" lon="3.24148">
        <ele>370.4</ele>
        <time>2024-08-11T11:14:11Z</time>
      </trkpt>
      <trkpt lat="45.8098" lon="3.24154">
        <ele>370.4</ele>
        <time>2024-08-11T11:14:12Z</time>
      </trkpt>
      <trkpt lat="45.80979" lon="3.24159">
        <ele>370.4</ele>
        <time>2024-08-11T11:14:13Z</time>
      </trkpt>
      <trkpt lat="45.80978" lon="3.24164">
        <ele>370.4</ele>
        <time>2024-08-11T11:14:14Z</time>
      </trkpt>
      <trkpt lat="45.80977" lon="3.24168">
        <ele>370.4</ele>
        <time>2024-08-11T11:14:15Z</time>
      </trkpt>
      <trkpt lat="45.80976" lon="3.24171">
        <ele>370.4</ele>
        <time>2024-08-11T11:14:16Z</time>
      </trkpt>
      <trkpt lat="45.80978" lon="3.24173">
        <ele>370.4</ele>
        <time>2024-08-11T11:14:17Z</time>
      </trkpt>
      <trkpt lat="45.80981" lon="3.24171">
        <ele>370.4</ele>
        <time>2024-08-11T11:14:18Z</time>
      </trkpt>
      <trkpt lat="45.80985" lon="3.24168">
        <ele>370.4</ele>
        <time>2024-08-11T11:14:19Z</time>
      </trkpt>
      <trkpt lat="45.80989" lon="3.24164">
        <ele>370.4</ele>
        <time>2024-08-11T11:14:20Z</time>
      </trkpt>
      <trkpt lat="45.80994" lon="3.2416">
        <ele>370.4</ele>
        <time>2024-08-11T11:14:21Z</time>
      </trkpt>
      <trkpt lat="45.80998" lon="3.24156">
        <ele>370.2</ele>
        <time>2024-08-11T11:14:22Z</time>
      </trkpt>
      <trkpt lat="45.81002" lon="3.24152">
        <ele>370.2</ele>
        <time>2024-08-11T11:14:23Z</time>
      </trkpt>
      <trkpt lat="45.81006" lon="3.24148">
        <ele>370.4</ele>
        <time>2024-08-11T11:14:24Z</time>
      </trkpt>
      <trkpt lat="45.81011" lon="3.24145">
        <ele>370.4</ele>
        <time>2024-08-11T11:14:25Z</time>
      </trkpt>
      <trkpt lat="45.81015" lon="3.24141">
        <ele>370.2</ele>
        <time>2024-08-11T11:14:26Z</time>
      </trkpt>
      <trkpt lat="45.81019" lon="3.24137">
        <ele>370.4</ele>
        <time>2024-08-11T11:14:27Z</time>
      </trkpt>
      <trkpt lat="45.81024" lon="3.24133">
        <ele>370.4</ele>
        <time>2024-08-11T11:14:28Z</time>
      </trkpt>
      <trkpt lat="45.81028" lon="3.24129">
        <ele>370.4</ele>
        <time>2024-08-11T11:14:29Z</time>
      </trkpt>
      <trkpt lat="45.81033" lon="3.24125">
        <ele>370.4</ele>
        <time>2024-08-11T11:14:30Z</time>
      </trkpt>
      <trkpt lat="45.81037" lon="3.24122">
        <ele>370.4</ele>
        <time>2024-08-11T11:14:31Z</time>
      </trkpt>
      <trkpt lat="45.81042" lon="3.24117">
        <ele>370.4</ele>
        <time>2024-08-11T11:14:32Z</time>
      </trkpt>
      <trkpt lat="45.81047" lon="3.24113">
        <ele>370.2</ele>
        <time>2024-08-11T11:14:33Z</time>
      </trkpt>
      <trkpt lat="45.81052" lon="3.24109">
        <ele>370.2</ele>
        <time>2024-08-11T11:14:34Z</time>
      </trkpt>
      <trkpt lat="45.81056" lon="3.24105">
        <ele>370.2</ele>
        <time>2024-08-11T11:14:35Z</time>
      </trkpt>
      <trkpt lat="45.81061" lon="3.24101">
        <ele>370.2</ele>
        <time>2024-08-11T11:14:36Z</time>
      </trkpt>
      <trkpt lat="45.81066" lon="3.24096">
        <ele>370.2</ele>
        <time>2024-08-11T11:14:37Z</time>
      </trkpt>
      <trkpt lat="45.81072" lon="3.24092">
        <ele>370.2</ele>
        <time>2024-08-11T11:14:38Z</time>
      </trkpt>
      <trkpt lat="45.81077" lon="3.24087">
        <ele>370</ele>
        <time>2024-08-11T11:14:39Z</time>
      </trkpt>
      <trkpt lat="45.81083" lon="3.24082">
        <ele>370</ele>
        <time>2024-08-11T11:14:40Z</time>
      </trkpt>
      <trkpt lat="45.81088" lon="3.24077">
        <ele>370</ele>
        <time>2024-08-11T11:14:41Z</time>
      </trkpt>
      <trkpt lat="45.81094" lon="3.24072">
        <ele>370</ele>
        <time>2024-08-11T11:14:42Z</time>
      </trkpt>
      <trkpt lat="45.81101" lon="3.24067">
        <ele>369.8</ele>
        <time>2024-08-11T11:14:43Z</time>
      </trkpt>
      <trkpt lat="45.81107" lon="3.24061">
        <ele>369.8</ele>
        <time>2024-08-11T11:14:44Z</time>
      </trkpt>
      <trkpt lat="45.81115" lon="3.24057">
        <ele>369.6</ele>
        <time>2024-08-11T11:14:45Z</time>
      </trkpt>
      <trkpt lat="45.81122" lon="3.24053">
        <ele>369.4</ele>
        <time>2024-08-11T11:14:46Z</time>
      </trkpt>
      <trkpt lat="45.8113" lon="3.24048">
        <ele>369.2</ele>
        <time>2024-08-11T11:14:47Z</time>
      </trkpt>
      <trkpt lat="45.81138" lon="3.24043">
        <ele>369.2</ele>
        <time>2024-08-11T11:14:48Z</time>
      </trkpt>
      <trkpt lat="45.81146" lon="3.24038">
        <ele>369</ele>
        <time>2024-08-11T11:14:49Z</time>
      </trkpt>
      <trkpt lat="45.81155" lon="3.24033">
        <ele>368.8</ele>
        <time>2024-08-11T11:14:50Z</time>
      </trkpt>
      <trkpt lat="45.81163" lon="3.24028">
        <ele>368.8</ele>
        <time>2024-08-11T11:14:51Z</time>
      </trkpt>
      <trkpt lat="45.81172" lon="3.24023">
        <ele>368.6</ele>
        <time>2024-08-11T11:14:52Z</time>
      </trkpt>
      <trkpt lat="45.81182" lon="3.24017">
        <ele>368.4</ele>
        <time>2024-08-11T11:14:53Z</time>
      </trkpt>
      <trkpt lat="45.81192" lon="3.24016">
        <ele>368.2</ele>
        <time>2024-08-11T11:14:54Z</time>
      </trkpt>
      <trkpt lat="45.81202" lon="3.24017">
        <ele>368</ele>
        <time>2024-08-11T11:14:55Z</time>
      </trkpt>
      <trkpt lat="45.81212" lon="3.24021">
        <ele>367.8</ele>
        <time>2024-08-11T11:14:56Z</time>
      </trkpt>
      <trkpt lat="45.81219" lon="3.24028">
        <ele>367.6</ele>
        <time>2024-08-11T11:14:57Z</time>
      </trkpt>
      <trkpt lat="45.8123" lon="3.24028">
        <ele>367.4</ele>
        <time>2024-08-11T11:14:58Z</time>
      </trkpt>
      <trkpt lat="45.81239" lon="3.24021">
        <ele>367.4</ele>
        <time>2024-08-11T11:14:59Z</time>
      </trkpt>
      <trkpt lat="45.81243" lon="3.24017">
        <ele>367.2</ele>
        <time>2024-08-11T11:15:00Z</time>
      </trkpt>
      <trkpt lat="45.81253" lon="3.24">
        <ele>367</ele>
        <time>2024-08-11T11:15:01Z</time>
      </trkpt>
      <trkpt lat="45.81262" lon="3.23995">
        <ele>366.8</ele>
        <time>2024-08-11T11:15:02Z</time>
      </trkpt>
      <trkpt lat="45.81271" lon="3.2399">
        <ele>366.6</ele>
        <time>2024-08-11T11:15:03Z</time>
      </trkpt>
      <trkpt lat="45.81283" lon="3.23986">
        <ele>366.2</ele>
        <time>2024-08-11T11:15:04Z</time>
      </trkpt>
      <trkpt lat="45.81294" lon="3.23989">
        <ele>366</ele>
        <time>2024-08-11T11:15:05Z</time>
      </trkpt>
      <trkpt lat="45.81305" lon="3.23993">
        <ele>365.6</ele>
        <time>2024-08-11T11:15:06Z</time>
      </trkpt>
      <trkpt lat="45.81316" lon="3.23997">
        <ele>365.2</ele>
        <time>2024-08-11T11:15:07Z</time>
      </trkpt>
      <trkpt lat="45.81327" lon="3.24001">
        <ele>364.8</ele>
        <time>2024-08-11T11:15:08Z</time>
      </trkpt>
      <trkpt lat="45.81339" lon="3.24003">
        <ele>364.6</ele>
        <time>2024-08-11T11:15:09Z</time>
      </trkpt>
      <trkpt lat="45.81351" lon="3.24004">
        <ele>364.2</ele>
        <time>2024-08-11T11:15:10Z</time>
      </trkpt>
      <trkpt lat="45.81363" lon="3.24005">
        <ele>363.8</ele>
        <time>2024-08-11T11:15:11Z</time>
      </trkpt>
      <trkpt lat="45.81374" lon="3.24006">
        <ele>363.6</ele>
        <time>2024-08-11T11:15:12Z</time>
      </trkpt>
      <trkpt lat="45.81386" lon="3.24003">
        <ele>363.2</ele>
        <time>2024-08-11T11:15:13Z</time>
      </trkpt>
      <trkpt lat="45.81398" lon="3.24">
        <ele>363</ele>
        <time>2024-08-11T11:15:14Z</time>
      </trkpt>
      <trkpt lat="45.81409" lon="3.23997">
        <ele>362.6</ele>
        <time>2024-08-11T11:15:15Z</time>
      </trkpt>
      <trkpt lat="45.81421" lon="3.23994">
        <ele>362.2</ele>
        <time>2024-08-11T11:15:16Z</time>
      </trkpt>
      <trkpt lat="45.81433" lon="3.23991">
        <ele>362</ele>
        <time>2024-08-11T11:15:17Z</time>
      </trkpt>
      <trkpt lat="45.81444" lon="3.23988">
        <ele>361.6</ele>
        <time>2024-08-11T11:15:18Z</time>
      </trkpt>
      <trkpt lat="45.81456" lon="3.23985">
        <ele>361.2</ele>
        <time>2024-08-11T11:15:19Z</time>
      </trkpt>
      <trkpt lat="45.81468" lon="3.23982">
        <ele>360.8</ele>
        <time>2024-08-11T11:15:20Z</time>
      </trkpt>
      <trkpt lat="45.81479" lon="3.23979">
        <ele>360.4</ele>
        <time>2024-08-11T11:15:21Z</time>
      </trkpt>
      <trkpt lat="45.8149" lon="3.23976">
        <ele>360.2</ele>
        <time>2024-08-11T11:15:22Z</time>
      </trkpt>
      <trkpt lat="45.81501" lon="3.23973">
        <ele>359.8</ele>
        <time>2024-08-11T11:15:23Z</time>
      </trkpt>
      <trkpt lat="45.81512" lon="3.2397">
        <ele>359.6</ele>
        <time>2024-08-11T11:15:24Z</time>
      </trkpt>
      <trkpt lat="45.81523" lon="3.23967">
        <ele>359.2</ele>
        <time>2024-08-11T11:15:25Z</time>
      </trkpt>
      <trkpt lat="45.81534" lon="3.23964">
        <ele>359</ele>
        <time>2024-08-11T11:15:26Z</time>
      </trkpt>
      <trkpt lat="45.81544" lon="3.23961">
        <ele>358.6</ele>
        <time>2024-08-11T11:15:27Z</time>
      </trkpt>
      <trkpt lat="45.81555" lon="3.23958">
        <ele>358.4</ele>
        <time>2024-08-11T11:15:28Z</time>
      </trkpt>
      <trkpt lat="45.81566" lon="3.23955">
        <ele>358.2</ele>
        <time>2024-08-11T11:15:29Z</time>
      </trkpt>
      <trkpt lat="45.81576" lon="3.23952">
        <ele>357.8</ele>
        <time>2024-08-11T11:15:30Z</time>
      </trkpt>
      <trkpt lat="45.81586" lon="3.23949">
        <ele>357.6</ele>
        <time>2024-08-11T11:15:31Z</time>
      </trkpt>
      <trkpt lat="45.81597" lon="3.23946">
        <ele>357.2</ele>
        <time>2024-08-11T11:15:32Z</time>
      </trkpt>
      <trkpt lat="45.81607" lon="3.23943">
        <ele>357</ele>
        <time>2024-08-11T11:15:33Z</time>
      </trkpt>
      <trkpt lat="45.81617" lon="3.2394">
        <ele>356.6</ele>
        <time>2024-08-11T11:15:34Z</time>
      </trkpt>
      <trkpt lat="45.81627" lon="3.23938">
        <ele>356.4</ele>
        <time>2024-08-11T11:15:35Z</time>
      </trkpt>
      <trkpt lat="45.81638" lon="3.23936">
        <ele>356</ele>
        <time>2024-08-11T11:15:36Z</time>
      </trkpt>
      <trkpt lat="45.81648" lon="3.23933">
        <ele>355.8</ele>
        <time>2024-08-11T11:15:37Z</time>
      </trkpt>
      <trkpt lat="45.81658" lon="3.23931">
        <ele>355.4</ele>
        <time>2024-08-11T11:15:38Z</time>
      </trkpt>
      <trkpt lat="45.81668" lon="3.23929">
        <ele>355.2</ele>
        <time>2024-08-11T11:15:39Z</time>
      </trkpt>
      <trkpt lat="45.81678" lon="3.23926">
        <ele>354.8</ele>
        <time>2024-08-11T11:15:40Z</time>
      </trkpt>
      <trkpt lat="45.81688" lon="3.23924">
        <ele>354.6</ele>
        <time>2024-08-11T11:15:41Z</time>
      </trkpt>
      <trkpt lat="45.81698" lon="3.23922">
        <ele>354.2</ele>
        <time>2024-08-11T11:15:42Z</time>
      </trkpt>
      <trkpt lat="45.81708" lon="3.2392">
        <ele>353.8</ele>
        <time>2024-08-11T11:15:43Z</time>
      </trkpt>
      <trkpt lat="45.81718" lon="3.23917">
        <ele>353.6</ele>
        <time>2024-08-11T11:15:44Z</time>
      </trkpt>
      <trkpt lat="45.81727" lon="3.23915">
        <ele>353.2</ele>
        <time>2024-08-11T11:15:45Z</time>
      </trkpt>
      <trkpt lat="45.81737" lon="3.23913">
        <ele>353</ele>
        <time>2024-08-11T11:15:46Z</time>
      </trkpt>
      <trkpt lat="45.81747" lon="3.23911">
        <ele>352.6</ele>
        <time>2024-08-11T11:15:47Z</time>
      </trkpt>
      <trkpt lat="45.81756" lon="3.23908">
        <ele>352.4</ele>
        <time>2024-08-11T11:15:48Z</time>
      </trkpt>
      <trkpt lat="45.81766" lon="3.23906">
        <ele>352</ele>
        <time>2024-08-11T11:15:49Z</time>
      </trkpt>
      <trkpt lat="45.81775" lon="3.23904">
        <ele>351.8</ele>
        <time>2024-08-11T11:15:50Z</time>
      </trkpt>
      <trkpt lat="45.81784" lon="3.23901">
        <ele>351.4</ele>
        <time>2024-08-11T11:15:51Z</time>
      </trkpt>
      <trkpt lat="45.81794" lon="3.23899">
        <ele>351.2</ele>
        <time>2024-08-11T11:15:52Z</time>
      </trkpt>
      <trkpt lat="45.81803" lon="3.23897">
        <ele>350.8</ele>
        <time>2024-08-11T11:15:53Z</time>
      </trkpt>
      <trkpt lat="45.81813" lon="3.23894">
        <ele>350.6</ele>
        <time>2024-08-11T11:15:54Z</time>
      </trkpt>
      <trkpt lat="45.81821" lon="3.23892">
        <ele>350.2</ele>
        <time>2024-08-11T11:15:55Z</time>
      </trkpt>
      <trkpt lat="45.81829" lon="3.2389">
        <ele>350</ele>
        <time>2024-08-11T11:15:56Z</time>
      </trkpt>
      <trkpt lat="45.81836" lon="3.23888">
        <ele>349.6</ele>
        <time>2024-08-11T11:15:57Z</time>
      </trkpt>
      <trkpt lat="45.81842" lon="3.23887">
        <ele>349.4</ele>
        <time>2024-08-11T11:15:58Z</time>
      </trkpt>
      <trkpt lat="45.81847" lon="3.23885">
        <ele>349</ele>
        <time>2024-08-11T11:15:59Z</time>
      </trkpt>
      <trkpt lat="45.81849" lon="3.23885">
        <ele>348.8</ele>
        <time>2024-08-11T11:16:00Z</time>
      </trkpt>
      <trkpt lat="45.81852" lon="3.23884">
        <ele>348.4</ele>
        <time>2024-08-11T11:16:01Z</time>
      </trkpt>
      <trkpt lat="45.81854" lon="3.23883">
        <ele>348.2</ele>
        <time>2024-08-11T11:16:02Z</time>
      </trkpt>
      <trkpt lat="45.81858" lon="3.23882">
        <ele>348</ele>
        <time>2024-08-11T11:16:03Z</time>
      </trkpt>
      <trkpt lat="45.81862" lon="3.23881">
        <ele>347.6</ele>
        <time>2024-08-11T11:16:04Z</time>
      </trkpt>
      <trkpt lat="45.81867" lon="3.2388">
        <ele>347.4</ele>
        <time>2024-08-11T11:16:05Z</time>
      </trkpt>
      <trkpt lat="45.81871" lon="3.23879">
        <ele>347</ele>
        <time>2024-08-11T11:16:06Z</time>
      </trkpt>
      <trkpt lat="45.81884" lon="3.23891">
        <ele>346.8</ele>
        <time>2024-08-11T11:16:07Z</time>
      </trkpt>
      <trkpt lat="45.81885" lon="3.23897">
        <ele>346.6</ele>
        <time>2024-08-11T11:16:08Z</time>
      </trkpt>
      <trkpt lat="45.81888" lon="3.23902">
        <ele>346.2</ele>
        <time>2024-08-11T11:16:09Z</time>
      </trkpt>
      <trkpt lat="45.81891" lon="3.23908">
        <ele>346</ele>
        <time>2024-08-11T11:16:10Z</time>
      </trkpt>
      <trkpt lat="45.81895" lon="3.23914">
        <ele>345.6</ele>
        <time>2024-08-11T11:16:11Z</time>
      </trkpt>
      <trkpt lat="45.81899" lon="3.2392">
        <ele>345.4</ele>
        <time>2024-08-11T11:16:12Z</time>
      </trkpt>
      <trkpt lat="45.81902" lon="3.23926">
        <ele>345.2</ele>
        <time>2024-08-11T11:16:13Z</time>
      </trkpt>
      <trkpt lat="45.81906" lon="3.23932">
        <ele>345</ele>
        <time>2024-08-11T11:16:14Z</time>
      </trkpt>
      <trkpt lat="45.8191" lon="3.23937">
        <ele>344.6</ele>
        <time>2024-08-11T11:16:15Z</time>
      </trkpt>
      <trkpt lat="45.81915" lon="3.23941">
        <ele>344.4</ele>
        <time>2024-08-11T11:16:16Z</time>
      </trkpt>
      <trkpt lat="45.8192" lon="3.23945">
        <ele>344.2</ele>
        <time>2024-08-11T11:16:17Z</time>
      </trkpt>
      <trkpt lat="45.81925" lon="3.23948">
        <ele>344</ele>
        <time>2024-08-11T11:16:18Z</time>
      </trkpt>
      <trkpt lat="45.81929" lon="3.23952">
        <ele>343.8</ele>
        <time>2024-08-11T11:16:19Z</time>
      </trkpt>
      <trkpt lat="45.81933" lon="3.23956">
        <ele>343.6</ele>
        <time>2024-08-11T11:16:20Z</time>
      </trkpt>
      <trkpt lat="45.81938" lon="3.23961">
        <ele>343.4</ele>
        <time>2024-08-11T11:16:21Z</time>
      </trkpt>
      <trkpt lat="45.81942" lon="3.23965">
        <ele>343.2</ele>
        <time>2024-08-11T11:16:22Z</time>
      </trkpt>
      <trkpt lat="45.81946" lon="3.23969">
        <ele>343</ele>
        <time>2024-08-11T11:16:23Z</time>
      </trkpt>
      <trkpt lat="45.81951" lon="3.23973">
        <ele>343</ele>
        <time>2024-08-11T11:16:24Z</time>
      </trkpt>
      <trkpt lat="45.81955" lon="3.23978">
        <ele>342.8</ele>
        <time>2024-08-11T11:16:25Z</time>
      </trkpt>
      <trkpt lat="45.8196" lon="3.23982">
        <ele>342.6</ele>
        <time>2024-08-11T11:16:26Z</time>
      </trkpt>
      <trkpt lat="45.81965" lon="3.23987">
        <ele>342.4</ele>
        <time>2024-08-11T11:16:27Z</time>
      </trkpt>
      <trkpt lat="45.8197" lon="3.23992">
        <ele>342.2</ele>
        <time>2024-08-11T11:16:28Z</time>
      </trkpt>
      <trkpt lat="45.81974" lon="3.23996">
        <ele>342.2</ele>
        <time>2024-08-11T11:16:29Z</time>
      </trkpt>
      <trkpt lat="45.81979" lon="3.24">
        <ele>342</ele>
        <time>2024-08-11T11:16:30Z</time>
      </trkpt>
      <trkpt lat="45.81984" lon="3.24005">
        <ele>341.8</ele>
        <time>2024-08-11T11:16:31Z</time>
      </trkpt>
      <trkpt lat="45.81989" lon="3.2401">
        <ele>341.6</ele>
        <time>2024-08-11T11:16:32Z</time>
      </trkpt>
      <trkpt lat="45.81993" lon="3.24016">
        <ele>341.4</ele>
        <time>2024-08-11T11:16:33Z</time>
      </trkpt>
      <trkpt lat="45.81998" lon="3.24023">
        <ele>341.2</ele>
        <time>2024-08-11T11:16:34Z</time>
      </trkpt>
      <trkpt lat="45.82002" lon="3.24029">
        <ele>341</ele>
        <time>2024-08-11T11:16:35Z</time>
      </trkpt>
      <trkpt lat="45.82006" lon="3.24035">
        <ele>341</ele>
        <time>2024-08-11T11:16:36Z</time>
      </trkpt>
      <trkpt lat="45.82011" lon="3.24042">
        <ele>340.8</ele>
        <time>2024-08-11T11:16:37Z</time>
      </trkpt>
      <trkpt lat="45.82015" lon="3.24048">
        <ele>340.6</ele>
        <time>2024-08-11T11:16:38Z</time>
      </trkpt>
      <trkpt lat="45.82018" lon="3.24055">
        <ele>340.6</ele>
        <time>2024-08-11T11:16:39Z</time>
      </trkpt>
      <trkpt lat="45.82022" lon="3.24062">
        <ele>340.4</ele>
        <time>2024-08-11T11:16:40Z</time>
      </trkpt>
      <trkpt lat="45.82026" lon="3.24069">
        <ele>340.2</ele>
        <time>2024-08-11T11:16:41Z</time>
      </trkpt>
      <trkpt lat="45.82029" lon="3.24076">
        <ele>340.2</ele>
        <time>2024-08-11T11:16:42Z</time>
      </trkpt>
      <trkpt lat="45.82033" lon="3.24083">
        <ele>340</ele>
        <time>2024-08-11T11:16:43Z</time>
      </trkpt>
      <trkpt lat="45.82037" lon="3.2409">
        <ele>339.8</ele>
        <time>2024-08-11T11:16:44Z</time>
      </trkpt>
      <trkpt lat="45.8204" lon="3.24097">
        <ele>339.8</ele>
        <time>2024-08-11T11:16:45Z</time>
      </trkpt>
      <trkpt lat="45.82044" lon="3.24104">
        <ele>339.6</ele>
        <time>2024-08-11T11:16:46Z</time>
      </trkpt>
      <trkpt lat="45.82047" lon="3.24111">
        <ele>339.6</ele>
        <time>2024-08-11T11:16:47Z</time>
      </trkpt>
      <trkpt lat="45.82051" lon="3.24118">
        <ele>339.4</ele>
        <time>2024-08-11T11:16:48Z</time>
      </trkpt>
      <trkpt lat="45.82054" lon="3.24124">
        <ele>339.4</ele>
        <time>2024-08-11T11:16:49Z</time>
      </trkpt>
      <trkpt lat="45.82058" lon="3.24131">
        <ele>339.2</ele>
        <time>2024-08-11T11:16:50Z</time>
      </trkpt>
      <trkpt lat="45.82061" lon="3.24138">
        <ele>339.2</ele>
        <time>2024-08-11T11:16:51Z</time>
      </trkpt>
      <trkpt lat="45.82065" lon="3.24145">
        <ele>339.2</ele>
        <time>2024-08-11T11:16:52Z</time>
      </trkpt>
      <trkpt lat="45.82068" lon="3.24151">
        <ele>339</ele>
        <time>2024-08-11T11:16:53Z</time>
      </trkpt>
      <trkpt lat="45.82071" lon="3.24158">
        <ele>338.8</ele>
        <time>2024-08-11T11:16:54Z</time>
      </trkpt>
      <trkpt lat="45.82075" lon="3.24164">
        <ele>338.8</ele>
        <time>2024-08-11T11:16:55Z</time>
      </trkpt>
      <trkpt lat="45.82078" lon="3.24171">
        <ele>338.8</ele>
        <time>2024-08-11T11:16:56Z</time>
      </trkpt>
      <trkpt lat="45.82081" lon="3.24177">
        <ele>338.6</ele>
        <time>2024-08-11T11:16:57Z</time>
      </trkpt>
      <trkpt lat="45.82085" lon="3.24184">
        <ele>338.6</ele>
        <time>2024-08-11T11:16:58Z</time>
      </trkpt>
      <trkpt lat="45.82087" lon="3.24189">
        <ele>338.4</ele>
        <time>2024-08-11T11:16:59Z</time>
      </trkpt>
      <trkpt lat="45.82081" lon="3.24203">
        <ele>338.4</ele>
        <time>2024-08-11T11:17:00Z</time>
      </trkpt>
      <trkpt lat="45.82077" lon="3.24206">
        <ele>338.4</ele>
        <time>2024-08-11T11:17:01Z</time>
      </trkpt>
      <trkpt lat="45.82073" lon="3.24209">
        <ele>338.4</ele>
        <time>2024-08-11T11:17:02Z</time>
      </trkpt>
      <trkpt lat="45.82069" lon="3.24213">
        <ele>338.2</ele>
        <time>2024-08-11T11:17:03Z</time>
      </trkpt>
      <trkpt lat="45.82066" lon="3.24215">
        <ele>338.2</ele>
        <time>2024-08-11T11:17:04Z</time>
      </trkpt>
      <trkpt lat="45.82062" lon="3.24218">
        <ele>338.2</ele>
        <time>2024-08-11T11:17:05Z</time>
      </trkpt>
      <trkpt lat="45.82059" lon="3.2422">
        <ele>338.2</ele>
        <time>2024-08-11T11:17:06Z</time>
      </trkpt>
      <trkpt lat="45.82057" lon="3.24223">
        <ele>338.2</ele>
        <time>2024-08-11T11:17:07Z</time>
      </trkpt>
      <trkpt lat="45.82054" lon="3.24225">
        <ele>338.2</ele>
        <time>2024-08-11T11:17:08Z</time>
      </trkpt>
      <trkpt lat="45.82052" lon="3.24226">
        <ele>338.2</ele>
        <time>2024-08-11T11:17:09Z</time>
      </trkpt>
      <trkpt lat="45.8205" lon="3.24228">
        <ele>338.2</ele>
        <time>2024-08-11T11:17:10Z</time>
      </trkpt>
      <trkpt lat="45.82047" lon="3.2423">
        <ele>338.2</ele>
        <time>2024-08-11T11:17:11Z</time>
      </trkpt>
      <trkpt lat="45.82045" lon="3.24232">
        <ele>338.2</ele>
        <time>2024-08-11T11:17:12Z</time>
      </trkpt>
      <trkpt lat="45.82043" lon="3.24234">
        <ele>338</ele>
        <time>2024-08-11T11:17:13Z</time>
      </trkpt>
      <trkpt lat="45.8204" lon="3.24236">
        <ele>338</ele>
        <time>2024-08-11T11:17:14Z</time>
      </trkpt>
      <trkpt lat="45.82038" lon="3.24237">
        <ele>338</ele>
        <time>2024-08-11T11:17:15Z</time>
      </trkpt>
      <trkpt lat="45.82036" lon="3.24239">
        <ele>338</ele>
        <time>2024-08-11T11:17:16Z</time>
      </trkpt>
      <trkpt lat="45.82025" lon="3.24244">
        <ele>338</ele>
        <time>2024-08-11T11:17:17Z</time>
      </trkpt>
      <trkpt lat="45.82029" lon="3.24232">
        <ele>338.2</ele>
        <time>2024-08-11T11:17:18Z</time>
      </trkpt>
      <trkpt lat="45.82022" lon="3.24238">
        <ele>338.2</ele>
        <time>2024-08-11T11:17:19Z</time>
      </trkpt>
      <trkpt lat="45.82021" lon="3.24234">
        <ele>338.2</ele>
        <time>2024-08-11T11:17:20Z</time>
      </trkpt>
      <trkpt lat="45.82019" lon="3.24231">
        <ele>338.2</ele>
        <time>2024-08-11T11:17:21Z</time>
      </trkpt>
      <trkpt lat="45.82017" lon="3.24227">
        <ele>337.6</ele>
        <time>2024-08-11T11:17:22Z</time>
      </trkpt>
      <trkpt lat="45.82015" lon="3.24223">
        <ele>338</ele>
        <time>2024-08-11T11:17:23Z</time>
      </trkpt>
      <trkpt lat="45.82014" lon="3.2422">
        <ele>338.2</ele>
        <time>2024-08-11T11:17:24Z</time>
      </trkpt>
      <trkpt lat="45.82013" lon="3.24219">
        <ele>338.4</ele>
        <time>2024-08-11T11:17:25Z</time>
      </trkpt>
      <trkpt lat="45.82013" lon="3.24219">
        <ele>338.8</ele>
        <time>2024-08-11T11:17:26Z</time>
      </trkpt>
      <trkpt lat="45.82013" lon="3.24219">
        <ele>338.4</ele>
        <time>2024-08-11T11:17:27Z</time>
      </trkpt>
      <trkpt lat="45.82013" lon="3.24219">
        <ele>338.4</ele>
        <time>2024-08-11T11:17:28Z</time>
      </trkpt>
      <trkpt lat="45.82016" lon="3.24225">
        <ele>339.8</ele>
        <time>2024-08-11T11:20:53Z</time>
      </trkpt>
      <trkpt lat="45.82018" lon="3.24228">
        <ele>340</ele>
        <time>2024-08-11T11:20:54Z</time>
      </trkpt>
      <trkpt lat="45.82019" lon="3.24231">
        <ele>339.8</ele>
        <time>2024-08-11T11:20:55Z</time>
      </trkpt>
      <trkpt lat="45.82021" lon="3.24235">
        <ele>339.8</ele>
        <time>2024-08-11T11:20:56Z</time>
      </trkpt>
      <trkpt lat="45.82023" lon="3.24239">
        <ele>340</ele>
        <time>2024-08-11T11:20:57Z</time>
      </trkpt>
      <trkpt lat="45.82024" lon="3.24243">
        <ele>339.8</ele>
        <time>2024-08-11T11:20:58Z</time>
      </trkpt>
      <trkpt lat="45.82031" lon="3.24243">
        <ele>339.8</ele>
        <time>2024-08-11T11:20:59Z</time>
      </trkpt>
      <trkpt lat="45.82035" lon="3.2424">
        <ele>340</ele>
        <time>2024-08-11T11:21:00Z</time>
      </trkpt>
      <trkpt lat="45.82039" lon="3.24237">
        <ele>339.8</ele>
        <time>2024-08-11T11:21:01Z</time>
      </trkpt>
      <trkpt lat="45.82044" lon="3.24232">
        <ele>339.8</ele>
        <time>2024-08-11T11:21:02Z</time>
      </trkpt>
      <trkpt lat="45.82051" lon="3.24227">
        <ele>339.8</ele>
        <time>2024-08-11T11:21:03Z</time>
      </trkpt>
      <trkpt lat="45.82057" lon="3.24222">
        <ele>339.8</ele>
        <time>2024-08-11T11:21:04Z</time>
      </trkpt>
      <trkpt lat="45.82063" lon="3.24218">
        <ele>339.6</ele>
        <time>2024-08-11T11:21:05Z</time>
      </trkpt>
      <trkpt lat="45.82068" lon="3.24213">
        <ele>339.6</ele>
        <time>2024-08-11T11:21:06Z</time>
      </trkpt>
      <trkpt lat="45.82073" lon="3.24209">
        <ele>339.4</ele>
        <time>2024-08-11T11:21:07Z</time>
      </trkpt>
      <trkpt lat="45.82078" lon="3.24206">
        <ele>339.4</ele>
        <time>2024-08-11T11:21:08Z</time>
      </trkpt>
      <trkpt lat="45.82081" lon="3.24203">
        <ele>339.2</ele>
        <time>2024-08-11T11:21:09Z</time>
      </trkpt>
      <trkpt lat="45.82085" lon="3.242">
        <ele>339</ele>
        <time>2024-08-11T11:21:10Z</time>
      </trkpt>
      <trkpt lat="45.82093" lon="3.24202">
        <ele>339</ele>
        <time>2024-08-11T11:21:11Z</time>
      </trkpt>
      <trkpt lat="45.82096" lon="3.24207">
        <ele>338.8</ele>
        <time>2024-08-11T11:21:12Z</time>
      </trkpt>
      <trkpt lat="45.82098" lon="3.24212">
        <ele>338.6</ele>
        <time>2024-08-11T11:21:13Z</time>
      </trkpt>
      <trkpt lat="45.82101" lon="3.24217">
        <ele>338.2</ele>
        <time>2024-08-11T11:21:14Z</time>
      </trkpt>
      <trkpt lat="45.82103" lon="3.24223">
        <ele>338.2</ele>
        <time>2024-08-11T11:21:15Z</time>
      </trkpt>
      <trkpt lat="45.82106" lon="3.24228">
        <ele>338</ele>
        <time>2024-08-11T11:21:16Z</time>
      </trkpt>
      <trkpt lat="45.82108" lon="3.24234">
        <ele>338.2</ele>
        <time>2024-08-11T11:21:17Z</time>
      </trkpt>
      <trkpt lat="45.82111" lon="3.2424">
        <ele>338</ele>
        <time>2024-08-11T11:21:18Z</time>
      </trkpt>
      <trkpt lat="45.82113" lon="3.24246">
        <ele>338</ele>
        <time>2024-08-11T11:21:19Z</time>
      </trkpt>
      <trkpt lat="45.82116" lon="3.24252">
        <ele>337.8</ele>
        <time>2024-08-11T11:21:20Z</time>
      </trkpt>
      <trkpt lat="45.82119" lon="3.24258">
        <ele>337.8</ele>
        <time>2024-08-11T11:21:21Z</time>
      </trkpt>
      <trkpt lat="45.82121" lon="3.24263">
        <ele>337.6</ele>
        <time>2024-08-11T11:21:22Z</time>
      </trkpt>
      <trkpt lat="45.82124" lon="3.24268">
        <ele>337.4</ele>
        <time>2024-08-11T11:21:23Z</time>
      </trkpt>
      <trkpt lat="45.82127" lon="3.24273">
        <ele>337.4</ele>
        <time>2024-08-11T11:21:24Z</time>
      </trkpt>
      <trkpt lat="45.8213" lon="3.24278">
        <ele>337.4</ele>
        <time>2024-08-11T11:21:25Z</time>
      </trkpt>
      <trkpt lat="45.82134" lon="3.24283">
        <ele>337.2</ele>
        <time>2024-08-11T11:21:26Z</time>
      </trkpt>
      <trkpt lat="45.82137" lon="3.24288">
        <ele>337.2</ele>
        <time>2024-08-11T11:21:27Z</time>
      </trkpt>
      <trkpt lat="45.8214" lon="3.24293">
        <ele>337.2</ele>
        <time>2024-08-11T11:21:28Z</time>
      </trkpt>
      <trkpt lat="45.82143" lon="3.24297">
        <ele>337</ele>
        <time>2024-08-11T11:21:29Z</time>
      </trkpt>
      <trkpt lat="45.82146" lon="3.24302">
        <ele>337</ele>
        <time>2024-08-11T11:21:30Z</time>
      </trkpt>
      <trkpt lat="45.82149" lon="3.24307">
        <ele>337</ele>
        <time>2024-08-11T11:21:31Z</time>
      </trkpt>
      <trkpt lat="45.82152" lon="3.24312">
        <ele>337</ele>
        <time>2024-08-11T11:21:32Z</time>
      </trkpt>
      <trkpt lat="45.82155" lon="3.24317">
        <ele>337</ele>
        <time>2024-08-11T11:21:33Z</time>
      </trkpt>
      <trkpt lat="45.82158" lon="3.24322">
        <ele>336.8</ele>
        <time>2024-08-11T11:21:34Z</time>
      </trkpt>
      <trkpt lat="45.82161" lon="3.24326">
        <ele>336.8</ele>
        <time>2024-08-11T11:21:35Z</time>
      </trkpt>
      <trkpt lat="45.82164" lon="3.24331">
        <ele>336.8</ele>
        <time>2024-08-11T11:21:36Z</time>
      </trkpt>
      <trkpt lat="45.82167" lon="3.24336">
        <ele>336.6</ele>
        <time>2024-08-11T11:21:37Z</time>
      </trkpt>
      <trkpt lat="45.8217" lon="3.24341">
        <ele>336.8</ele>
        <time>2024-08-11T11:21:38Z</time>
      </trkpt>
      <trkpt lat="45.82173" lon="3.24345">
        <ele>336.8</ele>
        <time>2024-08-11T11:21:39Z</time>
      </trkpt>
      <trkpt lat="45.82176" lon="3.2435">
        <ele>336.6</ele>
        <time>2024-08-11T11:21:40Z</time>
      </trkpt>
      <trkpt lat="45.82179" lon="3.24354">
        <ele>336.6</ele>
        <time>2024-08-11T11:21:41Z</time>
      </trkpt>
      <trkpt lat="45.82182" lon="3.24359">
        <ele>336.4</ele>
        <time>2024-08-11T11:21:42Z</time>
      </trkpt>
      <trkpt lat="45.82185" lon="3.24364">
        <ele>336.4</ele>
        <time>2024-08-11T11:21:43Z</time>
      </trkpt>
      <trkpt lat="45.82188" lon="3.24369">
        <ele>336.4</ele>
        <time>2024-08-11T11:21:44Z</time>
      </trkpt>
      <trkpt lat="45.82191" lon="3.24373">
        <ele>336.4</ele>
        <time>2024-08-11T11:21:45Z</time>
      </trkpt>
      <trkpt lat="45.82194" lon="3.24378">
        <ele>336.4</ele>
        <time>2024-08-11T11:21:46Z</time>
      </trkpt>
      <trkpt lat="45.82197" lon="3.24382">
        <ele>336.4</ele>
        <time>2024-08-11T11:21:47Z</time>
      </trkpt>
      <trkpt lat="45.822" lon="3.24386">
        <ele>336.4</ele>
        <time>2024-08-11T11:21:48Z</time>
      </trkpt>
      <trkpt lat="45.82204" lon="3.2439">
        <ele>336.4</ele>
        <time>2024-08-11T11:21:49Z</time>
      </trkpt>
      <trkpt lat="45.82207" lon="3.24394">
        <ele>336.4</ele>
        <time>2024-08-11T11:21:50Z</time>
      </trkpt>
      <trkpt lat="45.8221" lon="3.24398">
        <ele>336.4</ele>
        <time>2024-08-11T11:21:51Z</time>
      </trkpt>
      <trkpt lat="45.82213" lon="3.24402">
        <ele>336.4</ele>
        <time>2024-08-11T11:21:52Z</time>
      </trkpt>
      <trkpt lat="45.82216" lon="3.24406">
        <ele>336.4</ele>
        <time>2024-08-11T11:21:53Z</time>
      </trkpt>
      <trkpt lat="45.8222" lon="3.2441">
        <ele>336.2</ele>
        <time>2024-08-11T11:21:54Z</time>
      </trkpt>
      <trkpt lat="45.82223" lon="3.24414">
        <ele>336</ele>
        <time>2024-08-11T11:21:55Z</time>
      </trkpt>
      <trkpt lat="45.82226" lon="3.24418">
        <ele>336</ele>
        <time>2024-08-11T11:21:56Z</time>
      </trkpt>
      <trkpt lat="45.82229" lon="3.24422">
        <ele>335.8</ele>
        <time>2024-08-11T11:21:57Z</time>
      </trkpt>
      <trkpt lat="45.82233" lon="3.24427">
        <ele>335.8</ele>
        <time>2024-08-11T11:21:58Z</time>
      </trkpt>
      <trkpt lat="45.82236" lon="3.24431">
        <ele>335.8</ele>
        <time>2024-08-11T11:21:59Z</time>
      </trkpt>
      <trkpt lat="45.8224" lon="3.24435">
        <ele>335.8</ele>
        <time>2024-08-11T11:22:00Z</time>
      </trkpt>
      <trkpt lat="45.82243" lon="3.2444">
        <ele>335.8</ele>
        <time>2024-08-11T11:22:01Z</time>
      </trkpt>
      <trkpt lat="45.82247" lon="3.24444">
        <ele>335.8</ele>
        <time>2024-08-11T11:22:02Z</time>
      </trkpt>
      <trkpt lat="45.82251" lon="3.24449">
        <ele>335.8</ele>
        <time>2024-08-11T11:22:03Z</time>
      </trkpt>
      <trkpt lat="45.82254" lon="3.24454">
        <ele>335.8</ele>
        <time>2024-08-11T11:22:04Z</time>
      </trkpt>
      <trkpt lat="45.82258" lon="3.24458">
        <ele>335.8</ele>
        <time>2024-08-11T11:22:05Z</time>
      </trkpt>
      <trkpt lat="45.82262" lon="3.24463">
        <ele>335.6</ele>
        <time>2024-08-11T11:22:06Z</time>
      </trkpt>
      <trkpt lat="45.82266" lon="3.24467">
        <ele>335.6</ele>
        <time>2024-08-11T11:22:07Z</time>
      </trkpt>
      <trkpt lat="45.8227" lon="3.24472">
        <ele>335.4</ele>
        <time>2024-08-11T11:22:08Z</time>
      </trkpt>
      <trkpt lat="45.82274" lon="3.24476">
        <ele>335.4</ele>
        <time>2024-08-11T11:22:09Z</time>
      </trkpt>
      <trkpt lat="45.82278" lon="3.24481">
        <ele>335.4</ele>
        <time>2024-08-11T11:22:10Z</time>
      </trkpt>
      <trkpt lat="45.82282" lon="3.24486">
        <ele>335.2</ele>
        <time>2024-08-11T11:22:11Z</time>
      </trkpt>
      <trkpt lat="45.82286" lon="3.2449">
        <ele>335.2</ele>
        <time>2024-08-11T11:22:12Z</time>
      </trkpt>
      <trkpt lat="45.82291" lon="3.24495">
        <ele>335</ele>
        <time>2024-08-11T11:22:13Z</time>
      </trkpt>
      <trkpt lat="45.82295" lon="3.245">
        <ele>335.2</ele>
        <time>2024-08-11T11:22:14Z</time>
      </trkpt>
      <trkpt lat="45.82299" lon="3.24505">
        <ele>335</ele>
        <time>2024-08-11T11:22:15Z</time>
      </trkpt>
      <trkpt lat="45.82304" lon="3.2451">
        <ele>335</ele>
        <time>2024-08-11T11:22:16Z</time>
      </trkpt>
      <trkpt lat="45.82308" lon="3.24514">
        <ele>335</ele>
        <time>2024-08-11T11:22:17Z</time>
      </trkpt>
      <trkpt lat="45.82313" lon="3.24519">
        <ele>335</ele>
        <time>2024-08-11T11:22:18Z</time>
      </trkpt>
      <trkpt lat="45.82317" lon="3.24524">
        <ele>334.8</ele>
        <time>2024-08-11T11:22:19Z</time>
      </trkpt>
      <trkpt lat="45.82322" lon="3.24529">
        <ele>334.8</ele>
        <time>2024-08-11T11:22:20Z</time>
      </trkpt>
      <trkpt lat="45.82326" lon="3.24534">
        <ele>335</ele>
        <time>2024-08-11T11:22:21Z</time>
      </trkpt>
      <trkpt lat="45.82331" lon="3.24539">
        <ele>335</ele>
        <time>2024-08-11T11:22:22Z</time>
      </trkpt>
      <trkpt lat="45.82335" lon="3.24544">
        <ele>335</ele>
        <time>2024-08-11T11:22:23Z</time>
      </trkpt>
      <trkpt lat="45.82339" lon="3.24549">
        <ele>335</ele>
        <time>2024-08-11T11:22:24Z</time>
      </trkpt>
      <trkpt lat="45.82344" lon="3.24554">
        <ele>335.2</ele>
        <time>2024-08-11T11:22:25Z</time>
      </trkpt>
      <trkpt lat="45.82348" lon="3.24559">
        <ele>335</ele>
        <time>2024-08-11T11:22:26Z</time>
      </trkpt>
      <trkpt lat="45.82353" lon="3.24564">
        <ele>335</ele>
        <time>2024-08-11T11:22:27Z</time>
      </trkpt>
      <trkpt lat="45.82358" lon="3.24569">
        <ele>335</ele>
        <time>2024-08-11T11:22:28Z</time>
      </trkpt>
      <trkpt lat="45.82362" lon="3.24574">
        <ele>334.8</ele>
        <time>2024-08-11T11:22:29Z</time>
      </trkpt>
      <trkpt lat="45.82367" lon="3.24579">
        <ele>335</ele>
        <time>2024-08-11T11:22:30Z</time>
      </trkpt>
      <trkpt lat="45.82371" lon="3.24584">
        <ele>335</ele>
        <time>2024-08-11T11:22:31Z</time>
      </trkpt>
      <trkpt lat="45.82376" lon="3.24589">
        <ele>334.8</ele>
        <time>2024-08-11T11:22:32Z</time>
      </trkpt>
      <trkpt lat="45.8238" lon="3.24594">
        <ele>334.8</ele>
        <time>2024-08-11T11:22:33Z</time>
      </trkpt>
      <trkpt lat="45.82385" lon="3.24599">
        <ele>334.8</ele>
        <time>2024-08-11T11:22:34Z</time>
      </trkpt>
      <trkpt lat="45.82389" lon="3.24604">
        <ele>335</ele>
        <time>2024-08-11T11:22:35Z</time>
      </trkpt>
      <trkpt lat="45.82394" lon="3.24609">
        <ele>334.6</ele>
        <time>2024-08-11T11:22:36Z</time>
      </trkpt>
      <trkpt lat="45.82398" lon="3.24614">
        <ele>334.4</ele>
        <time>2024-08-11T11:22:37Z</time>
      </trkpt>
      <trkpt lat="45.82402" lon="3.24618">
        <ele>334.4</ele>
        <time>2024-08-11T11:22:38Z</time>
      </trkpt>
      <trkpt lat="45.82407" lon="3.24623">
        <ele>334.6</ele>
        <time>2024-08-11T11:22:39Z</time>
      </trkpt>
      <trkpt lat="45.82411" lon="3.24628">
        <ele>334.8</ele>
        <time>2024-08-11T11:22:40Z</time>
      </trkpt>
      <trkpt lat="45.82415" lon="3.24632">
        <ele>334.8</ele>
        <time>2024-08-11T11:22:41Z</time>
      </trkpt>
      <trkpt lat="45.82419" lon="3.24637">
        <ele>334.8</ele>
        <time>2024-08-11T11:22:42Z</time>
      </trkpt>
      <trkpt lat="45.82424" lon="3.24642">
        <ele>334.4</ele>
        <time>2024-08-11T11:22:43Z</time>
      </trkpt>
      <trkpt lat="45.82428" lon="3.24647">
        <ele>334.8</ele>
        <time>2024-08-11T11:22:44Z</time>
      </trkpt>
      <trkpt lat="45.82432" lon="3.24651">
        <ele>334.6</ele>
        <time>2024-08-11T11:22:45Z</time>
      </trkpt>
      <trkpt lat="45.82436" lon="3.24656">
        <ele>334.8</ele>
        <time>2024-08-11T11:22:46Z</time>
      </trkpt>
      <trkpt lat="45.82441" lon="3.24661">
        <ele>334.6</ele>
        <time>2024-08-11T11:22:47Z</time>
      </trkpt>
      <trkpt lat="45.82445" lon="3.24665">
        <ele>334.6</ele>
        <time>2024-08-11T11:22:48Z</time>
      </trkpt>
      <trkpt lat="45.82449" lon="3.2467">
        <ele>334.6</ele>
        <time>2024-08-11T11:22:49Z</time>
      </trkpt>
      <trkpt lat="45.82453" lon="3.24675">
        <ele>334.6</ele>
        <time>2024-08-11T11:22:50Z</time>
      </trkpt>
      <trkpt lat="45.82458" lon="3.2468">
        <ele>334.8</ele>
        <time>2024-08-11T11:22:51Z</time>
      </trkpt>
      <trkpt lat="45.82462" lon="3.24685">
        <ele>335</ele>
        <time>2024-08-11T11:22:52Z</time>
      </trkpt>
      <trkpt lat="45.82467" lon="3.24689">
        <ele>335</ele>
        <time>2024-08-11T11:22:53Z</time>
      </trkpt>
      <trkpt lat="45.82471" lon="3.24694">
        <ele>335</ele>
        <time>2024-08-11T11:22:54Z</time>
      </trkpt>
      <trkpt lat="45.82476" lon="3.24699">
        <ele>335</ele>
        <time>2024-08-11T11:22:55Z</time>
      </trkpt>
      <trkpt lat="45.8248" lon="3.24704">
        <ele>335</ele>
        <time>2024-08-11T11:22:56Z</time>
      </trkpt>
      <trkpt lat="45.82485" lon="3.24709">
        <ele>335</ele>
        <time>2024-08-11T11:22:57Z</time>
      </trkpt>
      <trkpt lat="45.82489" lon="3.24714">
        <ele>335.2</ele>
        <time>2024-08-11T11:22:58Z</time>
      </trkpt>
      <trkpt lat="45.82494" lon="3.24719">
        <ele>335.2</ele>
        <time>2024-08-11T11:22:59Z</time>
      </trkpt>
      <trkpt lat="45.82498" lon="3.24724">
        <ele>335.2</ele>
        <time>2024-08-11T11:23:00Z</time>
      </trkpt>
      <trkpt lat="45.82503" lon="3.24729">
        <ele>335.2</ele>
        <time>2024-08-11T11:23:01Z</time>
      </trkpt>
      <trkpt lat="45.82508" lon="3.24735">
        <ele>335.2</ele>
        <time>2024-08-11T11:23:02Z</time>
      </trkpt>
      <trkpt lat="45.82512" lon="3.2474">
        <ele>335.2</ele>
        <time>2024-08-11T11:23:03Z</time>
      </trkpt>
      <trkpt lat="45.82517" lon="3.24745">
        <ele>335.2</ele>
        <time>2024-08-11T11:23:04Z</time>
      </trkpt>
      <trkpt lat="45.82522" lon="3.24751">
        <ele>335</ele>
        <time>2024-08-11T11:23:05Z</time>
      </trkpt>
      <trkpt lat="45.82527" lon="3.24756">
        <ele>335</ele>
        <time>2024-08-11T11:23:06Z</time>
      </trkpt>
      <trkpt lat="45.82531" lon="3.24761">
        <ele>335</ele>
        <time>2024-08-11T11:23:07Z</time>
      </trkpt>
      <trkpt lat="45.82536" lon="3.24766">
        <ele>335</ele>
        <time>2024-08-11T11:23:08Z</time>
      </trkpt>
      <trkpt lat="45.82541" lon="3.24771">
        <ele>335</ele>
        <time>2024-08-11T11:23:09Z</time>
      </trkpt>
      <trkpt lat="45.82546" lon="3.24777">
        <ele>335</ele>
        <time>2024-08-11T11:23:10Z</time>
      </trkpt>
      <trkpt lat="45.8255" lon="3.24781">
        <ele>335</ele>
        <time>2024-08-11T11:23:11Z</time>
      </trkpt>
      <trkpt lat="45.82556" lon="3.24786">
        <ele>335</ele>
        <time>2024-08-11T11:23:12Z</time>
      </trkpt>
      <trkpt lat="45.8256" lon="3.2479">
        <ele>335</ele>
        <time>2024-08-11T11:23:13Z</time>
      </trkpt>
      <trkpt lat="45.82565" lon="3.24794">
        <ele>335</ele>
        <time>2024-08-11T11:23:14Z</time>
      </trkpt>
      <trkpt lat="45.8257" lon="3.24798">
        <ele>335.2</ele>
        <time>2024-08-11T11:23:15Z</time>
      </trkpt>
      <trkpt lat="45.82575" lon="3.24802">
        <ele>335</ele>
        <time>2024-08-11T11:23:16Z</time>
      </trkpt>
      <trkpt lat="45.82579" lon="3.24807">
        <ele>335.2</ele>
        <time>2024-08-11T11:23:17Z</time>
      </trkpt>
      <trkpt lat="45.82584" lon="3.24811">
        <ele>335.2</ele>
        <time>2024-08-11T11:23:18Z</time>
      </trkpt>
      <trkpt lat="45.82589" lon="3.24815">
        <ele>334.8</ele>
        <time>2024-08-11T11:23:19Z</time>
      </trkpt>
      <trkpt lat="45.82594" lon="3.24819">
        <ele>335.4</ele>
        <time>2024-08-11T11:23:20Z</time>
      </trkpt>
      <trkpt lat="45.82599" lon="3.24823">
        <ele>335.2</ele>
        <time>2024-08-11T11:23:21Z</time>
      </trkpt>
      <trkpt lat="45.82603" lon="3.24827">
        <ele>335.2</ele>
        <time>2024-08-11T11:23:22Z</time>
      </trkpt>
      <trkpt lat="45.82608" lon="3.24832">
        <ele>335.4</ele>
        <time>2024-08-11T11:23:23Z</time>
      </trkpt>
      <trkpt lat="45.82613" lon="3.24836">
        <ele>335</ele>
        <time>2024-08-11T11:23:24Z</time>
      </trkpt>
      <trkpt lat="45.82618" lon="3.2484">
        <ele>335.2</ele>
        <time>2024-08-11T11:23:25Z</time>
      </trkpt>
      <trkpt lat="45.82623" lon="3.24845">
        <ele>335.2</ele>
        <time>2024-08-11T11:23:26Z</time>
      </trkpt>
      <trkpt lat="45.82628" lon="3.24849">
        <ele>335.2</ele>
        <time>2024-08-11T11:23:27Z</time>
      </trkpt>
      <trkpt lat="45.82633" lon="3.24853">
        <ele>335</ele>
        <time>2024-08-11T11:23:28Z</time>
      </trkpt>
      <trkpt lat="45.82638" lon="3.24858">
        <ele>335</ele>
        <time>2024-08-11T11:23:29Z</time>
      </trkpt>
      <trkpt lat="45.82643" lon="3.24862">
        <ele>335</ele>
        <time>2024-08-11T11:23:30Z</time>
      </trkpt>
      <trkpt lat="45.82649" lon="3.24866">
        <ele>335.2</ele>
        <time>2024-08-11T11:23:31Z</time>
      </trkpt>
      <trkpt lat="45.82655" lon="3.2487">
        <ele>335</ele>
        <time>2024-08-11T11:23:32Z</time>
      </trkpt>
      <trkpt lat="45.8266" lon="3.24873">
        <ele>335</ele>
        <time>2024-08-11T11:23:33Z</time>
      </trkpt>
      <trkpt lat="45.82666" lon="3.24877">
        <ele>334.8</ele>
        <time>2024-08-11T11:23:34Z</time>
      </trkpt>
      <trkpt lat="45.82671" lon="3.24881">
        <ele>334.8</ele>
        <time>2024-08-11T11:23:35Z</time>
      </trkpt>
      <trkpt lat="45.82677" lon="3.24884">
        <ele>334.8</ele>
        <time>2024-08-11T11:23:36Z</time>
      </trkpt>
      <trkpt lat="45.82682" lon="3.24888">
        <ele>335</ele>
        <time>2024-08-11T11:23:37Z</time>
      </trkpt>
      <trkpt lat="45.82688" lon="3.24892">
        <ele>334.8</ele>
        <time>2024-08-11T11:23:38Z</time>
      </trkpt>
      <trkpt lat="45.82694" lon="3.24896">
        <ele>334.8</ele>
        <time>2024-08-11T11:23:39Z</time>
      </trkpt>
      <trkpt lat="45.827" lon="3.249">
        <ele>334.8</ele>
        <time>2024-08-11T11:23:40Z</time>
      </trkpt>
      <trkpt lat="45.82705" lon="3.24904">
        <ele>334.8</ele>
        <time>2024-08-11T11:23:41Z</time>
      </trkpt>
      <trkpt lat="45.82711" lon="3.24907">
        <ele>334.8</ele>
        <time>2024-08-11T11:23:42Z</time>
      </trkpt>
      <trkpt lat="45.82717" lon="3.24911">
        <ele>334.6</ele>
        <time>2024-08-11T11:23:43Z</time>
      </trkpt>
      <trkpt lat="45.82723" lon="3.24915">
        <ele>334.6</ele>
        <time>2024-08-11T11:23:44Z</time>
      </trkpt>
      <trkpt lat="45.82729" lon="3.24919">
        <ele>334.8</ele>
        <time>2024-08-11T11:23:45Z</time>
      </trkpt>
      <trkpt lat="45.82735" lon="3.24923">
        <ele>334.6</ele>
        <time>2024-08-11T11:23:46Z</time>
      </trkpt>
      <trkpt lat="45.82741" lon="3.24927">
        <ele>334.8</ele>
        <time>2024-08-11T11:23:47Z</time>
      </trkpt>
      <trkpt lat="45.82747" lon="3.24931">
        <ele>334.8</ele>
        <time>2024-08-11T11:23:48Z</time>
      </trkpt>
      <trkpt lat="45.82753" lon="3.24935">
        <ele>334.6</ele>
        <time>2024-08-11T11:23:49Z</time>
      </trkpt>
      <trkpt lat="45.82759" lon="3.24939">
        <ele>334.6</ele>
        <time>2024-08-11T11:23:50Z</time>
      </trkpt>
      <trkpt lat="45.82765" lon="3.24943">
        <ele>334.6</ele>
        <time>2024-08-11T11:23:51Z</time>
      </trkpt>
      <trkpt lat="45.8277" lon="3.24947">
        <ele>334.6</ele>
        <time>2024-08-11T11:23:52Z</time>
      </trkpt>
      <trkpt lat="45.82776" lon="3.24951">
        <ele>334.6</ele>
        <time>2024-08-11T11:23:53Z</time>
      </trkpt>
      <trkpt lat="45.82782" lon="3.24954">
        <ele>334.4</ele>
        <time>2024-08-11T11:23:54Z</time>
      </trkpt>
      <trkpt lat="45.82787" lon="3.24958">
        <ele>334.4</ele>
        <time>2024-08-11T11:23:55Z</time>
      </trkpt>
      <trkpt lat="45.82793" lon="3.24962">
        <ele>334.6</ele>
        <time>2024-08-11T11:23:56Z</time>
      </trkpt>
      <trkpt lat="45.82798" lon="3.24966">
        <ele>334.4</ele>
        <time>2024-08-11T11:23:57Z</time>
      </trkpt>
      <trkpt lat="45.82803" lon="3.24971">
        <ele>334.4</ele>
        <time>2024-08-11T11:23:58Z</time>
      </trkpt>
      <trkpt lat="45.82808" lon="3.24975">
        <ele>334.4</ele>
        <time>2024-08-11T11:23:59Z</time>
      </trkpt>
      <trkpt lat="45.82814" lon="3.2498">
        <ele>334.4</ele>
        <time>2024-08-11T11:24:00Z</time>
      </trkpt>
      <trkpt lat="45.82819" lon="3.24985">
        <ele>334.4</ele>
        <time>2024-08-11T11:24:01Z</time>
      </trkpt>
      <trkpt lat="45.82825" lon="3.24989">
        <ele>334.4</ele>
        <time>2024-08-11T11:24:02Z</time>
      </trkpt>
      <trkpt lat="45.8283" lon="3.24994">
        <ele>334.2</ele>
        <time>2024-08-11T11:24:03Z</time>
      </trkpt>
      <trkpt lat="45.82836" lon="3.24998">
        <ele>334.2</ele>
        <time>2024-08-11T11:24:04Z</time>
      </trkpt>
      <trkpt lat="45.82841" lon="3.25003">
        <ele>334.2</ele>
        <time>2024-08-11T11:24:05Z</time>
      </trkpt>
      <trkpt lat="45.82847" lon="3.25008">
        <ele>334.2</ele>
        <time>2024-08-11T11:24:06Z</time>
      </trkpt>
      <trkpt lat="45.82852" lon="3.25013">
        <ele>334.2</ele>
        <time>2024-08-11T11:24:07Z</time>
      </trkpt>
      <trkpt lat="45.82857" lon="3.25019">
        <ele>334.2</ele>
        <time>2024-08-11T11:24:08Z</time>
      </trkpt>
      <trkpt lat="45.82862" lon="3.25025">
        <ele>334</ele>
        <time>2024-08-11T11:24:09Z</time>
      </trkpt>
      <trkpt lat="45.82866" lon="3.25032">
        <ele>334</ele>
        <time>2024-08-11T11:24:10Z</time>
      </trkpt>
      <trkpt lat="45.82871" lon="3.25038">
        <ele>334</ele>
        <time>2024-08-11T11:24:11Z</time>
      </trkpt>
      <trkpt lat="45.82876" lon="3.25045">
        <ele>334</ele>
        <time>2024-08-11T11:24:12Z</time>
      </trkpt>
      <trkpt lat="45.8288" lon="3.25053">
        <ele>334</ele>
        <time>2024-08-11T11:24:13Z</time>
      </trkpt>
      <trkpt lat="45.82883" lon="3.25061">
        <ele>334</ele>
        <time>2024-08-11T11:24:14Z</time>
      </trkpt>
      <trkpt lat="45.82886" lon="3.25069">
        <ele>334</ele>
        <time>2024-08-11T11:24:15Z</time>
      </trkpt>
      <trkpt lat="45.82889" lon="3.25077">
        <ele>334</ele>
        <time>2024-08-11T11:24:16Z</time>
      </trkpt>
      <trkpt lat="45.82891" lon="3.25085">
        <ele>334</ele>
        <time>2024-08-11T11:24:17Z</time>
      </trkpt>
      <trkpt lat="45.82894" lon="3.25094">
        <ele>333.8</ele>
        <time>2024-08-11T11:24:18Z</time>
      </trkpt>
      <trkpt lat="45.82897" lon="3.25102">
        <ele>334</ele>
        <time>2024-08-11T11:24:19Z</time>
      </trkpt>
      <trkpt lat="45.829" lon="3.2511">
        <ele>333.8</ele>
        <time>2024-08-11T11:24:20Z</time>
      </trkpt>
      <trkpt lat="45.82903" lon="3.25119">
        <ele>333.8</ele>
        <time>2024-08-11T11:24:21Z</time>
      </trkpt>
      <trkpt lat="45.82906" lon="3.25127">
        <ele>333.8</ele>
        <time>2024-08-11T11:24:22Z</time>
      </trkpt>
      <trkpt lat="45.82909" lon="3.25137">
        <ele>333.6</ele>
        <time>2024-08-11T11:24:23Z</time>
      </trkpt>
      <trkpt lat="45.8291" lon="3.25146">
        <ele>333.6</ele>
        <time>2024-08-11T11:24:24Z</time>
      </trkpt>
      <trkpt lat="45.82911" lon="3.25155">
        <ele>333.6</ele>
        <time>2024-08-11T11:24:25Z</time>
      </trkpt>
      <trkpt lat="45.82912" lon="3.25164">
        <ele>333.6</ele>
        <time>2024-08-11T11:24:26Z</time>
      </trkpt>
      <trkpt lat="45.82914" lon="3.25174">
        <ele>333.6</ele>
        <time>2024-08-11T11:24:27Z</time>
      </trkpt>
      <trkpt lat="45.82915" lon="3.25183">
        <ele>333.6</ele>
        <time>2024-08-11T11:24:28Z</time>
      </trkpt>
      <trkpt lat="45.82916" lon="3.25192">
        <ele>333.6</ele>
        <time>2024-08-11T11:24:29Z</time>
      </trkpt>
      <trkpt lat="45.82918" lon="3.25201">
        <ele>333.6</ele>
        <time>2024-08-11T11:24:30Z</time>
      </trkpt>
      <trkpt lat="45.8292" lon="3.2521">
        <ele>333.6</ele>
        <time>2024-08-11T11:24:31Z</time>
      </trkpt>
      <trkpt lat="45.82922" lon="3.25219">
        <ele>333.4</ele>
        <time>2024-08-11T11:24:32Z</time>
      </trkpt>
      <trkpt lat="45.82924" lon="3.25228">
        <ele>333.4</ele>
        <time>2024-08-11T11:24:33Z</time>
      </trkpt>
      <trkpt lat="45.82925" lon="3.25237">
        <ele>333.4</ele>
        <time>2024-08-11T11:24:34Z</time>
      </trkpt>
      <trkpt lat="45.82926" lon="3.25246">
        <ele>333.4</ele>
        <time>2024-08-11T11:24:35Z</time>
      </trkpt>
      <trkpt lat="45.82928" lon="3.25255">
        <ele>333.4</ele>
        <time>2024-08-11T11:24:36Z</time>
      </trkpt>
      <trkpt lat="45.82929" lon="3.25263">
        <ele>333.4</ele>
        <time>2024-08-11T11:24:37Z</time>
      </trkpt>
      <trkpt lat="45.82931" lon="3.25272">
        <ele>333.4</ele>
        <time>2024-08-11T11:24:38Z</time>
      </trkpt>
      <trkpt lat="45.82933" lon="3.2528">
        <ele>333.4</ele>
        <time>2024-08-11T11:24:39Z</time>
      </trkpt>
      <trkpt lat="45.82935" lon="3.25289">
        <ele>333.4</ele>
        <time>2024-08-11T11:24:40Z</time>
      </trkpt>
      <trkpt lat="45.82938" lon="3.25297">
        <ele>333.4</ele>
        <time>2024-08-11T11:24:41Z</time>
      </trkpt>
      <trkpt lat="45.8294" lon="3.25306">
        <ele>333.2</ele>
        <time>2024-08-11T11:24:42Z</time>
      </trkpt>
      <trkpt lat="45.82943" lon="3.25315">
        <ele>333.2</ele>
        <time>2024-08-11T11:24:43Z</time>
      </trkpt>
      <trkpt lat="45.82945" lon="3.25323">
        <ele>333.2</ele>
        <time>2024-08-11T11:24:44Z</time>
      </trkpt>
      <trkpt lat="45.82948" lon="3.25332">
        <ele>333.2</ele>
        <time>2024-08-11T11:24:45Z</time>
      </trkpt>
      <trkpt lat="45.8295" lon="3.25341">
        <ele>333</ele>
        <time>2024-08-11T11:24:46Z</time>
      </trkpt>
      <trkpt lat="45.82953" lon="3.2535">
        <ele>333</ele>
        <time>2024-08-11T11:24:47Z</time>
      </trkpt>
      <trkpt lat="45.82955" lon="3.25358">
        <ele>333</ele>
        <time>2024-08-11T11:24:48Z</time>
      </trkpt>
      <trkpt lat="45.82959" lon="3.25367">
        <ele>333</ele>
        <time>2024-08-11T11:24:49Z</time>
      </trkpt>
      <trkpt lat="45.82962" lon="3.25375">
        <ele>333</ele>
        <time>2024-08-11T11:24:50Z</time>
      </trkpt>
      <trkpt lat="45.82966" lon="3.25383">
        <ele>332.8</ele>
        <time>2024-08-11T11:24:51Z</time>
      </trkpt>
      <trkpt lat="45.82969" lon="3.25392">
        <ele>332.8</ele>
        <time>2024-08-11T11:24:52Z</time>
      </trkpt>
      <trkpt lat="45.82973" lon="3.254">
        <ele>332.8</ele>
        <time>2024-08-11T11:24:53Z</time>
      </trkpt>
      <trkpt lat="45.82976" lon="3.25409">
        <ele>332.6</ele>
        <time>2024-08-11T11:24:54Z</time>
      </trkpt>
      <trkpt lat="45.8298" lon="3.25417">
        <ele>332.6</ele>
        <time>2024-08-11T11:24:55Z</time>
      </trkpt>
      <trkpt lat="45.82983" lon="3.25426">
        <ele>332.6</ele>
        <time>2024-08-11T11:24:56Z</time>
      </trkpt>
      <trkpt lat="45.82987" lon="3.25434">
        <ele>332.4</ele>
        <time>2024-08-11T11:24:57Z</time>
      </trkpt>
      <trkpt lat="45.82992" lon="3.25442">
        <ele>332.4</ele>
        <time>2024-08-11T11:24:58Z</time>
      </trkpt>
      <trkpt lat="45.82998" lon="3.25449">
        <ele>332.2</ele>
        <time>2024-08-11T11:24:59Z</time>
      </trkpt>
      <trkpt lat="45.83003" lon="3.25456">
        <ele>332.2</ele>
        <time>2024-08-11T11:25:00Z</time>
      </trkpt>
      <trkpt lat="45.83008" lon="3.25463">
        <ele>332</ele>
        <time>2024-08-11T11:25:01Z</time>
      </trkpt>
      <trkpt lat="45.83013" lon="3.2547">
        <ele>332</ele>
        <time>2024-08-11T11:25:02Z</time>
      </trkpt>
      <trkpt lat="45.83018" lon="3.25477">
        <ele>331.8</ele>
        <time>2024-08-11T11:25:03Z</time>
      </trkpt>
      <trkpt lat="45.83023" lon="3.25483">
        <ele>331.8</ele>
        <time>2024-08-11T11:25:04Z</time>
      </trkpt>
      <trkpt lat="45.83028" lon="3.25491">
        <ele>331.6</ele>
        <time>2024-08-11T11:25:05Z</time>
      </trkpt>
      <trkpt lat="45.83032" lon="3.25499">
        <ele>331.6</ele>
        <time>2024-08-11T11:25:06Z</time>
      </trkpt>
      <trkpt lat="45.83036" lon="3.25506">
        <ele>331.4</ele>
        <time>2024-08-11T11:25:07Z</time>
      </trkpt>
      <trkpt lat="45.83041" lon="3.25514">
        <ele>331.4</ele>
        <time>2024-08-11T11:25:08Z</time>
      </trkpt>
      <trkpt lat="45.83045" lon="3.25522">
        <ele>331.2</ele>
        <time>2024-08-11T11:25:09Z</time>
      </trkpt>
      <trkpt lat="45.8305" lon="3.25529">
        <ele>331.2</ele>
        <time>2024-08-11T11:25:10Z</time>
      </trkpt>
      <trkpt lat="45.83054" lon="3.25537">
        <ele>331.2</ele>
        <time>2024-08-11T11:25:11Z</time>
      </trkpt>
      <trkpt lat="45.83058" lon="3.25544">
        <ele>331.2</ele>
        <time>2024-08-11T11:25:12Z</time>
      </trkpt>
      <trkpt lat="45.83063" lon="3.25552">
        <ele>331</ele>
        <time>2024-08-11T11:25:13Z</time>
      </trkpt>
      <trkpt lat="45.83067" lon="3.2556">
        <ele>330.8</ele>
        <time>2024-08-11T11:25:14Z</time>
      </trkpt>
      <trkpt lat="45.83071" lon="3.25567">
        <ele>330.8</ele>
        <time>2024-08-11T11:25:15Z</time>
      </trkpt>
      <trkpt lat="45.83075" lon="3.25574">
        <ele>330.8</ele>
        <time>2024-08-11T11:25:16Z</time>
      </trkpt>
      <trkpt lat="45.8308" lon="3.25582">
        <ele>330.6</ele>
        <time>2024-08-11T11:25:17Z</time>
      </trkpt>
      <trkpt lat="45.83084" lon="3.25589">
        <ele>330.6</ele>
        <time>2024-08-11T11:25:18Z</time>
      </trkpt>
      <trkpt lat="45.83088" lon="3.25597">
        <ele>330.6</ele>
        <time>2024-08-11T11:25:19Z</time>
      </trkpt>
      <trkpt lat="45.83093" lon="3.25605">
        <ele>330.4</ele>
        <time>2024-08-11T11:25:20Z</time>
      </trkpt>
      <trkpt lat="45.83097" lon="3.25612">
        <ele>330.2</ele>
        <time>2024-08-11T11:25:21Z</time>
      </trkpt>
      <trkpt lat="45.83102" lon="3.2562">
        <ele>330.2</ele>
        <time>2024-08-11T11:25:22Z</time>
      </trkpt>
      <trkpt lat="45.83106" lon="3.25627">
        <ele>330.2</ele>
        <time>2024-08-11T11:25:23Z</time>
      </trkpt>
      <trkpt lat="45.8311" lon="3.25635">
        <ele>330.2</ele>
        <time>2024-08-11T11:25:24Z</time>
      </trkpt>
      <trkpt lat="45.83114" lon="3.25642">
        <ele>330</ele>
        <time>2024-08-11T11:25:25Z</time>
      </trkpt>
      <trkpt lat="45.83119" lon="3.25649">
        <ele>330</ele>
        <time>2024-08-11T11:25:26Z</time>
      </trkpt>
      <trkpt lat="45.83123" lon="3.25656">
        <ele>330</ele>
        <time>2024-08-11T11:25:27Z</time>
      </trkpt>
      <trkpt lat="45.83127" lon="3.25663">
        <ele>329.8</ele>
        <time>2024-08-11T11:25:28Z</time>
      </trkpt>
      <trkpt lat="45.83131" lon="3.2567">
        <ele>329.8</ele>
        <time>2024-08-11T11:25:29Z</time>
      </trkpt>
      <trkpt lat="45.83134" lon="3.25676">
        <ele>329.6</ele>
        <time>2024-08-11T11:25:30Z</time>
      </trkpt>
      <trkpt lat="45.83138" lon="3.25683">
        <ele>329.6</ele>
        <time>2024-08-11T11:25:31Z</time>
      </trkpt>
      <trkpt lat="45.83142" lon="3.25689">
        <ele>329.6</ele>
        <time>2024-08-11T11:25:32Z</time>
      </trkpt>
      <trkpt lat="45.83145" lon="3.25696">
        <ele>329.6</ele>
        <time>2024-08-11T11:25:33Z</time>
      </trkpt>
      <trkpt lat="45.83149" lon="3.25702">
        <ele>329.4</ele>
        <time>2024-08-11T11:25:34Z</time>
      </trkpt>
      <trkpt lat="45.83152" lon="3.25708">
        <ele>329.4</ele>
        <time>2024-08-11T11:25:35Z</time>
      </trkpt>
      <trkpt lat="45.83156" lon="3.25714">
        <ele>329.4</ele>
        <time>2024-08-11T11:25:36Z</time>
      </trkpt>
      <trkpt lat="45.83159" lon="3.2572">
        <ele>329.4</ele>
        <time>2024-08-11T11:25:37Z</time>
      </trkpt>
      <trkpt lat="45.83163" lon="3.25726">
        <ele>329.2</ele>
        <time>2024-08-11T11:25:38Z</time>
      </trkpt>
      <trkpt lat="45.83166" lon="3.25732">
        <ele>329.2</ele>
        <time>2024-08-11T11:25:39Z</time>
      </trkpt>
      <trkpt lat="45.83169" lon="3.25737">
        <ele>329.2</ele>
        <time>2024-08-11T11:25:40Z</time>
      </trkpt>
      <trkpt lat="45.83172" lon="3.25743">
        <ele>329</ele>
        <time>2024-08-11T11:25:41Z</time>
      </trkpt>
      <trkpt lat="45.83176" lon="3.25748">
        <ele>329</ele>
        <time>2024-08-11T11:25:42Z</time>
      </trkpt>
      <trkpt lat="45.83179" lon="3.25754">
        <ele>329</ele>
        <time>2024-08-11T11:25:43Z</time>
      </trkpt>
      <trkpt lat="45.83182" lon="3.25759">
        <ele>329</ele>
        <time>2024-08-11T11:25:44Z</time>
      </trkpt>
      <trkpt lat="45.83185" lon="3.25764">
        <ele>329</ele>
        <time>2024-08-11T11:25:45Z</time>
      </trkpt>
      <trkpt lat="45.83187" lon="3.25769">
        <ele>329</ele>
        <time>2024-08-11T11:25:46Z</time>
      </trkpt>
      <trkpt lat="45.8319" lon="3.25774">
        <ele>329.2</ele>
        <time>2024-08-11T11:25:47Z</time>
      </trkpt>
      <trkpt lat="45.83193" lon="3.25779">
        <ele>329</ele>
        <time>2024-08-11T11:25:48Z</time>
      </trkpt>
      <trkpt lat="45.83196" lon="3.25783">
        <ele>329</ele>
        <time>2024-08-11T11:25:49Z</time>
      </trkpt>
      <trkpt lat="45.83199" lon="3.25788">
        <ele>329.2</ele>
        <time>2024-08-11T11:25:50Z</time>
      </trkpt>
      <trkpt lat="45.83202" lon="3.25793">
        <ele>329</ele>
        <time>2024-08-11T11:25:51Z</time>
      </trkpt>
      <trkpt lat="45.83204" lon="3.25798">
        <ele>329</ele>
        <time>2024-08-11T11:25:52Z</time>
      </trkpt>
      <trkpt lat="45.83207" lon="3.25802">
        <ele>329</ele>
        <time>2024-08-11T11:25:53Z</time>
      </trkpt>
      <trkpt lat="45.83209" lon="3.25807">
        <ele>329</ele>
        <time>2024-08-11T11:25:54Z</time>
      </trkpt>
      <trkpt lat="45.83212" lon="3.25811">
        <ele>329</ele>
        <time>2024-08-11T11:25:55Z</time>
      </trkpt>
      <trkpt lat="45.83214" lon="3.25815">
        <ele>329</ele>
        <time>2024-08-11T11:25:56Z</time>
      </trkpt>
      <trkpt lat="45.83217" lon="3.2582">
        <ele>329.2</ele>
        <time>2024-08-11T11:25:57Z</time>
      </trkpt>
      <trkpt lat="45.8322" lon="3.25825">
        <ele>329</ele>
        <time>2024-08-11T11:25:58Z</time>
      </trkpt>
      <trkpt lat="45.83222" lon="3.2583">
        <ele>329.2</ele>
        <time>2024-08-11T11:25:59Z</time>
      </trkpt>
      <trkpt lat="45.83225" lon="3.25835">
        <ele>329.4</ele>
        <time>2024-08-11T11:26:00Z</time>
      </trkpt>
      <trkpt lat="45.83227" lon="3.2584">
        <ele>329.4</ele>
        <time>2024-08-11T11:26:01Z</time>
      </trkpt>
      <trkpt lat="45.8323" lon="3.25845">
        <ele>329.4</ele>
        <time>2024-08-11T11:26:02Z</time>
      </trkpt>
      <trkpt lat="45.83232" lon="3.2585">
        <ele>329.4</ele>
        <time>2024-08-11T11:26:03Z</time>
      </trkpt>
      <trkpt lat="45.83235" lon="3.25855">
        <ele>329.4</ele>
        <time>2024-08-11T11:26:04Z</time>
      </trkpt>
      <trkpt lat="45.83237" lon="3.2586">
        <ele>329.4</ele>
        <time>2024-08-11T11:26:05Z</time>
      </trkpt>
      <trkpt lat="45.8324" lon="3.25865">
        <ele>329.4</ele>
        <time>2024-08-11T11:26:06Z</time>
      </trkpt>
      <trkpt lat="45.83242" lon="3.2587">
        <ele>329.4</ele>
        <time>2024-08-11T11:26:07Z</time>
      </trkpt>
      <trkpt lat="45.83244" lon="3.25874">
        <ele>329.4</ele>
        <time>2024-08-11T11:26:08Z</time>
      </trkpt>
      <trkpt lat="45.83246" lon="3.25878">
        <ele>329.4</ele>
        <time>2024-08-11T11:26:09Z</time>
      </trkpt>
      <trkpt lat="45.83249" lon="3.25883">
        <ele>329.6</ele>
        <time>2024-08-11T11:26:10Z</time>
      </trkpt>
      <trkpt lat="45.83251" lon="3.25886">
        <ele>329.6</ele>
        <time>2024-08-11T11:26:11Z</time>
      </trkpt>
      <trkpt lat="45.83252" lon="3.2589">
        <ele>329.6</ele>
        <time>2024-08-11T11:26:12Z</time>
      </trkpt>
      <trkpt lat="45.83254" lon="3.25894">
        <ele>329.8</ele>
        <time>2024-08-11T11:26:13Z</time>
      </trkpt>
      <trkpt lat="45.83256" lon="3.25898">
        <ele>329.8</ele>
        <time>2024-08-11T11:26:14Z</time>
      </trkpt>
      <trkpt lat="45.83258" lon="3.25902">
        <ele>329.8</ele>
        <time>2024-08-11T11:26:15Z</time>
      </trkpt>
      <trkpt lat="45.83261" lon="3.25906">
        <ele>329.8</ele>
        <time>2024-08-11T11:26:16Z</time>
      </trkpt>
      <trkpt lat="45.83263" lon="3.25911">
        <ele>330</ele>
        <time>2024-08-11T11:26:17Z</time>
      </trkpt>
      <trkpt lat="45.83265" lon="3.25915">
        <ele>330</ele>
        <time>2024-08-11T11:26:18Z</time>
      </trkpt>
      <trkpt lat="45.83267" lon="3.25919">
        <ele>330</ele>
        <time>2024-08-11T11:26:19Z</time>
      </trkpt>
      <trkpt lat="45.83269" lon="3.25923">
        <ele>330.2</ele>
        <time>2024-08-11T11:26:20Z</time>
      </trkpt>
      <trkpt lat="45.83272" lon="3.25927">
        <ele>330.2</ele>
        <time>2024-08-11T11:26:21Z</time>
      </trkpt>
      <trkpt lat="45.83274" lon="3.25931">
        <ele>330.4</ele>
        <time>2024-08-11T11:26:22Z</time>
      </trkpt>
      <trkpt lat="45.83276" lon="3.25935">
        <ele>330.4</ele>
        <time>2024-08-11T11:26:23Z</time>
      </trkpt>
      <trkpt lat="45.83279" lon="3.25939">
        <ele>330.4</ele>
        <time>2024-08-11T11:26:24Z</time>
      </trkpt>
      <trkpt lat="45.83282" lon="3.25943">
        <ele>330.6</ele>
        <time>2024-08-11T11:26:25Z</time>
      </trkpt>
      <trkpt lat="45.83284" lon="3.25948">
        <ele>330.6</ele>
        <time>2024-08-11T11:26:26Z</time>
      </trkpt>
      <trkpt lat="45.83286" lon="3.25951">
        <ele>330.6</ele>
        <time>2024-08-11T11:26:27Z</time>
      </trkpt>
      <trkpt lat="45.83289" lon="3.25955">
        <ele>330.6</ele>
        <time>2024-08-11T11:26:28Z</time>
      </trkpt>
      <trkpt lat="45.83291" lon="3.2596">
        <ele>330.8</ele>
        <time>2024-08-11T11:26:29Z</time>
      </trkpt>
      <trkpt lat="45.83294" lon="3.25964">
        <ele>330.8</ele>
        <time>2024-08-11T11:26:30Z</time>
      </trkpt>
      <trkpt lat="45.83297" lon="3.25969">
        <ele>330.8</ele>
        <time>2024-08-11T11:26:31Z</time>
      </trkpt>
      <trkpt lat="45.83299" lon="3.25973">
        <ele>331</ele>
        <time>2024-08-11T11:26:32Z</time>
      </trkpt>
      <trkpt lat="45.83302" lon="3.25977">
        <ele>331</ele>
        <time>2024-08-11T11:26:33Z</time>
      </trkpt>
      <trkpt lat="45.83304" lon="3.25981">
        <ele>331</ele>
        <time>2024-08-11T11:26:34Z</time>
      </trkpt>
      <trkpt lat="45.83307" lon="3.25986">
        <ele>331.2</ele>
        <time>2024-08-11T11:26:35Z</time>
      </trkpt>
      <trkpt lat="45.83309" lon="3.2599">
        <ele>331.2</ele>
        <time>2024-08-11T11:26:36Z</time>
      </trkpt>
      <trkpt lat="45.83312" lon="3.25994">
        <ele>331.2</ele>
        <time>2024-08-11T11:26:37Z</time>
      </trkpt>
      <trkpt lat="45.83314" lon="3.25998">
        <ele>331.2</ele>
        <time>2024-08-11T11:26:38Z</time>
      </trkpt>
      <trkpt lat="45.83317" lon="3.26003">
        <ele>331.4</ele>
        <time>2024-08-11T11:26:39Z</time>
      </trkpt>
      <trkpt lat="45.8332" lon="3.26007">
        <ele>331.4</ele>
        <time>2024-08-11T11:26:40Z</time>
      </trkpt>
      <trkpt lat="45.83324" lon="3.2601">
        <ele>331.2</ele>
        <time>2024-08-11T11:26:41Z</time>
      </trkpt>
      <trkpt lat="45.83327" lon="3.26014">
        <ele>331.4</ele>
        <time>2024-08-11T11:26:42Z</time>
      </trkpt>
      <trkpt lat="45.8333" lon="3.26021">
        <ele>331.4</ele>
        <time>2024-08-11T11:26:43Z</time>
      </trkpt>
      <trkpt lat="45.83332" lon="3.26027">
        <ele>331.6</ele>
        <time>2024-08-11T11:26:44Z</time>
      </trkpt>
      <trkpt lat="45.83333" lon="3.26032">
        <ele>331.6</ele>
        <time>2024-08-11T11:26:45Z</time>
      </trkpt>
      <trkpt lat="45.83335" lon="3.26038">
        <ele>331.6</ele>
        <time>2024-08-11T11:26:46Z</time>
      </trkpt>
      <trkpt lat="45.83337" lon="3.26044">
        <ele>331.6</ele>
        <time>2024-08-11T11:26:47Z</time>
      </trkpt>
      <trkpt lat="45.8334" lon="3.26049">
        <ele>331.6</ele>
        <time>2024-08-11T11:26:48Z</time>
      </trkpt>
      <trkpt lat="45.83343" lon="3.26055">
        <ele>331.6</ele>
        <time>2024-08-11T11:26:49Z</time>
      </trkpt>
      <trkpt lat="45.83346" lon="3.2606">
        <ele>331.8</ele>
        <time>2024-08-11T11:26:50Z</time>
      </trkpt>
      <trkpt lat="45.8335" lon="3.26066">
        <ele>331.8</ele>
        <time>2024-08-11T11:26:51Z</time>
      </trkpt>
      <trkpt lat="45.83355" lon="3.26071">
        <ele>331.8</ele>
        <time>2024-08-11T11:26:52Z</time>
      </trkpt>
      <trkpt lat="45.83361" lon="3.26075">
        <ele>331.8</ele>
        <time>2024-08-11T11:26:53Z</time>
      </trkpt>
      <trkpt lat="45.83366" lon="3.26079">
        <ele>331.8</ele>
        <time>2024-08-11T11:26:54Z</time>
      </trkpt>
      <trkpt lat="45.83372" lon="3.26083">
        <ele>331.8</ele>
        <time>2024-08-11T11:26:55Z</time>
      </trkpt>
      <trkpt lat="45.83377" lon="3.26088">
        <ele>331.8</ele>
        <time>2024-08-11T11:26:56Z</time>
      </trkpt>
      <trkpt lat="45.83383" lon="3.26092">
        <ele>332</ele>
        <time>2024-08-11T11:26:57Z</time>
      </trkpt>
      <trkpt lat="45.8339" lon="3.26098">
        <ele>332</ele>
        <time>2024-08-11T11:26:58Z</time>
      </trkpt>
      <trkpt lat="45.83394" lon="3.26105">
        <ele>332</ele>
        <time>2024-08-11T11:26:59Z</time>
      </trkpt>
      <trkpt lat="45.834" lon="3.26113">
        <ele>331.8</ele>
        <time>2024-08-11T11:27:00Z</time>
      </trkpt>
      <trkpt lat="45.83405" lon="3.26121">
        <ele>331.8</ele>
        <time>2024-08-11T11:27:01Z</time>
      </trkpt>
      <trkpt lat="45.8341" lon="3.26129">
        <ele>331.6</ele>
        <time>2024-08-11T11:27:02Z</time>
      </trkpt>
      <trkpt lat="45.83416" lon="3.26138">
        <ele>331.6</ele>
        <time>2024-08-11T11:27:03Z</time>
      </trkpt>
      <trkpt lat="45.83422" lon="3.26147">
        <ele>331</ele>
        <time>2024-08-11T11:27:04Z</time>
      </trkpt>
      <trkpt lat="45.83428" lon="3.26156">
        <ele>331</ele>
        <time>2024-08-11T11:27:05Z</time>
      </trkpt>
      <trkpt lat="45.83435" lon="3.26165">
        <ele>330.8</ele>
        <time>2024-08-11T11:27:06Z</time>
      </trkpt>
      <trkpt lat="45.83441" lon="3.26175">
        <ele>330.6</ele>
        <time>2024-08-11T11:27:07Z</time>
      </trkpt>
      <trkpt lat="45.83447" lon="3.26184">
        <ele>330.4</ele>
        <time>2024-08-11T11:27:08Z</time>
      </trkpt>
      <trkpt lat="45.83453" lon="3.26192">
        <ele>330.2</ele>
        <time>2024-08-11T11:27:09Z</time>
      </trkpt>
      <trkpt lat="45.83459" lon="3.262">
        <ele>330.2</ele>
        <time>2024-08-11T11:27:10Z</time>
      </trkpt>
      <trkpt lat="45.83466" lon="3.26209">
        <ele>330.2</ele>
        <time>2024-08-11T11:27:11Z</time>
      </trkpt>
      <trkpt lat="45.83472" lon="3.26218">
        <ele>330</ele>
        <time>2024-08-11T11:27:12Z</time>
      </trkpt>
      <trkpt lat="45.83478" lon="3.26226">
        <ele>329.8</ele>
        <time>2024-08-11T11:27:13Z</time>
      </trkpt>
      <trkpt lat="45.83483" lon="3.26235">
        <ele>329.6</ele>
        <time>2024-08-11T11:27:14Z</time>
      </trkpt>
      <trkpt lat="45.83489" lon="3.26244">
        <ele>329.4</ele>
        <time>2024-08-11T11:27:15Z</time>
      </trkpt>
      <trkpt lat="45.83496" lon="3.26253">
        <ele>329.2</ele>
        <time>2024-08-11T11:27:16Z</time>
      </trkpt>
      <trkpt lat="45.83502" lon="3.26262">
        <ele>329.2</ele>
        <time>2024-08-11T11:27:17Z</time>
      </trkpt>
      <trkpt lat="45.83508" lon="3.26271">
        <ele>329</ele>
        <time>2024-08-11T11:27:18Z</time>
      </trkpt>
      <trkpt lat="45.83515" lon="3.26278">
        <ele>329</ele>
        <time>2024-08-11T11:27:19Z</time>
      </trkpt>
      <trkpt lat="45.83523" lon="3.26285">
        <ele>329</ele>
        <time>2024-08-11T11:27:20Z</time>
      </trkpt>
      <trkpt lat="45.8353" lon="3.26295">
        <ele>328.8</ele>
        <time>2024-08-11T11:27:21Z</time>
      </trkpt>
      <trkpt lat="45.83536" lon="3.26305">
        <ele>328.6</ele>
        <time>2024-08-11T11:27:22Z</time>
      </trkpt>
      <trkpt lat="45.83542" lon="3.26315">
        <ele>328.4</ele>
        <time>2024-08-11T11:27:23Z</time>
      </trkpt>
      <trkpt lat="45.83547" lon="3.26327">
        <ele>328.4</ele>
        <time>2024-08-11T11:27:24Z</time>
      </trkpt>
      <trkpt lat="45.83552" lon="3.26339">
        <ele>328.2</ele>
        <time>2024-08-11T11:27:25Z</time>
      </trkpt>
      <trkpt lat="45.83557" lon="3.26351">
        <ele>328</ele>
        <time>2024-08-11T11:27:26Z</time>
      </trkpt>
      <trkpt lat="45.83562" lon="3.26363">
        <ele>327.8</ele>
        <time>2024-08-11T11:27:27Z</time>
      </trkpt>
      <trkpt lat="45.83567" lon="3.26373">
        <ele>327.8</ele>
        <time>2024-08-11T11:27:28Z</time>
      </trkpt>
      <trkpt lat="45.83573" lon="3.26383">
        <ele>327.6</ele>
        <time>2024-08-11T11:27:29Z</time>
      </trkpt>
      <trkpt lat="45.83579" lon="3.26393">
        <ele>327.6</ele>
        <time>2024-08-11T11:27:30Z</time>
      </trkpt>
      <trkpt lat="45.83584" lon="3.26403">
        <ele>327.6</ele>
        <time>2024-08-11T11:27:31Z</time>
      </trkpt>
      <trkpt lat="45.8359" lon="3.26413">
        <ele>327.4</ele>
        <time>2024-08-11T11:27:32Z</time>
      </trkpt>
      <trkpt lat="45.83596" lon="3.26423">
        <ele>327.2</ele>
        <time>2024-08-11T11:27:33Z</time>
      </trkpt>
      <trkpt lat="45.83602" lon="3.26433">
        <ele>327.2</ele>
        <time>2024-08-11T11:27:34Z</time>
      </trkpt>
      <trkpt lat="45.83607" lon="3.26443">
        <ele>327</ele>
        <time>2024-08-11T11:27:35Z</time>
      </trkpt>
      <trkpt lat="45.83612" lon="3.26452">
        <ele>326.8</ele>
        <time>2024-08-11T11:27:36Z</time>
      </trkpt>
      <trkpt lat="45.83618" lon="3.26461">
        <ele>326.6</ele>
        <time>2024-08-11T11:27:37Z</time>
      </trkpt>
      <trkpt lat="45.83623" lon="3.2647">
        <ele>326.4</ele>
        <time>2024-08-11T11:27:38Z</time>
      </trkpt>
      <trkpt lat="45.83628" lon="3.26479">
        <ele>326.2</ele>
        <time>2024-08-11T11:27:39Z</time>
      </trkpt>
      <trkpt lat="45.83633" lon="3.26488">
        <ele>326</ele>
        <time>2024-08-11T11:27:40Z</time>
      </trkpt>
      <trkpt lat="45.83638" lon="3.26496">
        <ele>325.8</ele>
        <time>2024-08-11T11:27:41Z</time>
      </trkpt>
      <trkpt lat="45.83643" lon="3.26505">
        <ele>325.6</ele>
        <time>2024-08-11T11:27:42Z</time>
      </trkpt>
      <trkpt lat="45.83647" lon="3.26513">
        <ele>325.6</ele>
        <time>2024-08-11T11:27:43Z</time>
      </trkpt>
      <trkpt lat="45.83652" lon="3.26521">
        <ele>325.4</ele>
        <time>2024-08-11T11:27:44Z</time>
      </trkpt>
      <trkpt lat="45.83656" lon="3.26528">
        <ele>325.4</ele>
        <time>2024-08-11T11:27:45Z</time>
      </trkpt>
      <trkpt lat="45.8366" lon="3.26537">
        <ele>325.2</ele>
        <time>2024-08-11T11:27:46Z</time>
      </trkpt>
      <trkpt lat="45.83663" lon="3.26545">
        <ele>325</ele>
        <time>2024-08-11T11:27:47Z</time>
      </trkpt>
      <trkpt lat="45.83667" lon="3.26553">
        <ele>325</ele>
        <time>2024-08-11T11:27:48Z</time>
      </trkpt>
      <trkpt lat="45.8367" lon="3.26562">
        <ele>324.8</ele>
        <time>2024-08-11T11:27:49Z</time>
      </trkpt>
      <trkpt lat="45.83673" lon="3.26571">
        <ele>324.6</ele>
        <time>2024-08-11T11:27:50Z</time>
      </trkpt>
      <trkpt lat="45.83675" lon="3.2658">
        <ele>324.6</ele>
        <time>2024-08-11T11:27:51Z</time>
      </trkpt>
      <trkpt lat="45.83677" lon="3.26589">
        <ele>324.4</ele>
        <time>2024-08-11T11:27:52Z</time>
      </trkpt>
      <trkpt lat="45.83679" lon="3.26597">
        <ele>324.2</ele>
        <time>2024-08-11T11:27:53Z</time>
      </trkpt>
      <trkpt lat="45.83681" lon="3.26606">
        <ele>324</ele>
        <time>2024-08-11T11:27:54Z</time>
      </trkpt>
      <trkpt lat="45.83683" lon="3.26615">
        <ele>324</ele>
        <time>2024-08-11T11:27:55Z</time>
      </trkpt>
      <trkpt lat="45.83685" lon="3.26624">
        <ele>324</ele>
        <time>2024-08-11T11:27:56Z</time>
      </trkpt>
      <trkpt lat="45.83688" lon="3.26633">
        <ele>323.8</ele>
        <time>2024-08-11T11:27:57Z</time>
      </trkpt>
      <trkpt lat="45.8369" lon="3.26641">
        <ele>323.6</ele>
        <time>2024-08-11T11:27:58Z</time>
      </trkpt>
      <trkpt lat="45.83692" lon="3.2665">
        <ele>323.6</ele>
        <time>2024-08-11T11:27:59Z</time>
      </trkpt>
      <trkpt lat="45.83694" lon="3.26658">
        <ele>323.4</ele>
        <time>2024-08-11T11:28:00Z</time>
      </trkpt>
      <trkpt lat="45.83696" lon="3.26667">
        <ele>323.2</ele>
        <time>2024-08-11T11:28:01Z</time>
      </trkpt>
      <trkpt lat="45.83698" lon="3.26675">
        <ele>323.2</ele>
        <time>2024-08-11T11:28:02Z</time>
      </trkpt>
      <trkpt lat="45.837" lon="3.26683">
        <ele>323.2</ele>
        <time>2024-08-11T11:28:03Z</time>
      </trkpt>
      <trkpt lat="45.83702" lon="3.26692">
        <ele>322.8</ele>
        <time>2024-08-11T11:28:04Z</time>
      </trkpt>
      <trkpt lat="45.83704" lon="3.267">
        <ele>322.8</ele>
        <time>2024-08-11T11:28:05Z</time>
      </trkpt>
      <trkpt lat="45.83705" lon="3.26709">
        <ele>322.6</ele>
        <time>2024-08-11T11:28:06Z</time>
      </trkpt>
      <trkpt lat="45.83706" lon="3.26718">
        <ele>322.6</ele>
        <time>2024-08-11T11:28:07Z</time>
      </trkpt>
      <trkpt lat="45.83706" lon="3.26727">
        <ele>322.4</ele>
        <time>2024-08-11T11:28:08Z</time>
      </trkpt>
      <trkpt lat="45.83707" lon="3.26737">
        <ele>322.6</ele>
        <time>2024-08-11T11:28:09Z</time>
      </trkpt>
      <trkpt lat="45.83708" lon="3.26745">
        <ele>322.4</ele>
        <time>2024-08-11T11:28:10Z</time>
      </trkpt>
      <trkpt lat="45.83709" lon="3.26754">
        <ele>322.2</ele>
        <time>2024-08-11T11:28:11Z</time>
      </trkpt>
      <trkpt lat="45.83709" lon="3.26764">
        <ele>322</ele>
        <time>2024-08-11T11:28:12Z</time>
      </trkpt>
      <trkpt lat="45.8371" lon="3.26773">
        <ele>321.8</ele>
        <time>2024-08-11T11:28:13Z</time>
      </trkpt>
      <trkpt lat="45.83711" lon="3.26782">
        <ele>321.8</ele>
        <time>2024-08-11T11:28:14Z</time>
      </trkpt>
      <trkpt lat="45.83712" lon="3.26792">
        <ele>321.6</ele>
        <time>2024-08-11T11:28:15Z</time>
      </trkpt>
      <trkpt lat="45.83712" lon="3.26801">
        <ele>321.6</ele>
        <time>2024-08-11T11:28:16Z</time>
      </trkpt>
      <trkpt lat="45.83712" lon="3.2681">
        <ele>321.4</ele>
        <time>2024-08-11T11:28:17Z</time>
      </trkpt>
      <trkpt lat="45.8371" lon="3.26819">
        <ele>321.2</ele>
        <time>2024-08-11T11:28:18Z</time>
      </trkpt>
      <trkpt lat="45.83708" lon="3.26829">
        <ele>321.4</ele>
        <time>2024-08-11T11:28:19Z</time>
      </trkpt>
      <trkpt lat="45.83706" lon="3.26838">
        <ele>321</ele>
        <time>2024-08-11T11:28:20Z</time>
      </trkpt>
      <trkpt lat="45.83704" lon="3.26848">
        <ele>321</ele>
        <time>2024-08-11T11:28:21Z</time>
      </trkpt>
      <trkpt lat="45.83702" lon="3.26856">
        <ele>320.8</ele>
        <time>2024-08-11T11:28:22Z</time>
      </trkpt>
      <trkpt lat="45.837" lon="3.26865">
        <ele>320.8</ele>
        <time>2024-08-11T11:28:23Z</time>
      </trkpt>
      <trkpt lat="45.83698" lon="3.26874">
        <ele>320.4</ele>
        <time>2024-08-11T11:28:24Z</time>
      </trkpt>
      <trkpt lat="45.83696" lon="3.26883">
        <ele>320.4</ele>
        <time>2024-08-11T11:28:25Z</time>
      </trkpt>
      <trkpt lat="45.83694" lon="3.26891">
        <ele>320.2</ele>
        <time>2024-08-11T11:28:26Z</time>
      </trkpt>
      <trkpt lat="45.83693" lon="3.269">
        <ele>320.2</ele>
        <time>2024-08-11T11:28:27Z</time>
      </trkpt>
      <trkpt lat="45.83691" lon="3.26908">
        <ele>320</ele>
        <time>2024-08-11T11:28:28Z</time>
      </trkpt>
      <trkpt lat="45.83689" lon="3.26916">
        <ele>320</ele>
        <time>2024-08-11T11:28:29Z</time>
      </trkpt>
      <trkpt lat="45.83688" lon="3.26924">
        <ele>320</ele>
        <time>2024-08-11T11:28:30Z</time>
      </trkpt>
      <trkpt lat="45.83686" lon="3.26931">
        <ele>319.8</ele>
        <time>2024-08-11T11:28:31Z</time>
      </trkpt>
      <trkpt lat="45.83685" lon="3.26939">
        <ele>319.8</ele>
        <time>2024-08-11T11:28:32Z</time>
      </trkpt>
      <trkpt lat="45.83683" lon="3.26946">
        <ele>319.8</ele>
        <time>2024-08-11T11:28:33Z</time>
      </trkpt>
      <trkpt lat="45.83681" lon="3.26954">
        <ele>319.6</ele>
        <time>2024-08-11T11:28:34Z</time>
      </trkpt>
      <trkpt lat="45.8368" lon="3.26961">
        <ele>319.4</ele>
        <time>2024-08-11T11:28:35Z</time>
      </trkpt>
      <trkpt lat="45.83679" lon="3.26967">
        <ele>319.4</ele>
        <time>2024-08-11T11:28:36Z</time>
      </trkpt>
      <trkpt lat="45.83677" lon="3.26974">
        <ele>319.2</ele>
        <time>2024-08-11T11:28:37Z</time>
      </trkpt>
      <trkpt lat="45.83676" lon="3.26981">
        <ele>319.2</ele>
        <time>2024-08-11T11:28:38Z</time>
      </trkpt>
      <trkpt lat="45.83675" lon="3.26987">
        <ele>319</ele>
        <time>2024-08-11T11:28:39Z</time>
      </trkpt>
      <trkpt lat="45.83673" lon="3.26992">
        <ele>319.2</ele>
        <time>2024-08-11T11:28:40Z</time>
      </trkpt>
      <trkpt lat="45.83672" lon="3.26997">
        <ele>319.2</ele>
        <time>2024-08-11T11:28:41Z</time>
      </trkpt>
      <trkpt lat="45.83672" lon="3.27001">
        <ele>319.2</ele>
        <time>2024-08-11T11:28:42Z</time>
      </trkpt>
      <trkpt lat="45.83678" lon="3.27008">
        <ele>319.2</ele>
        <time>2024-08-11T11:28:43Z</time>
      </trkpt>
      <trkpt lat="45.83681" lon="3.27008">
        <ele>319.2</ele>
        <time>2024-08-11T11:28:44Z</time>
      </trkpt>
      <trkpt lat="45.83686" lon="3.27008">
        <ele>319</ele>
        <time>2024-08-11T11:28:45Z</time>
      </trkpt>
      <trkpt lat="45.83692" lon="3.27008">
        <ele>319.2</ele>
        <time>2024-08-11T11:28:46Z</time>
      </trkpt>
      <trkpt lat="45.83698" lon="3.27007">
        <ele>319</ele>
        <time>2024-08-11T11:28:47Z</time>
      </trkpt>
      <trkpt lat="45.83704" lon="3.27007">
        <ele>319</ele>
        <time>2024-08-11T11:28:48Z</time>
      </trkpt>
      <trkpt lat="45.83711" lon="3.27007">
        <ele>318.8</ele>
        <time>2024-08-11T11:28:49Z</time>
      </trkpt>
      <trkpt lat="45.83717" lon="3.27007">
        <ele>318.8</ele>
        <time>2024-08-11T11:28:50Z</time>
      </trkpt>
      <trkpt lat="45.83724" lon="3.27006">
        <ele>318.6</ele>
        <time>2024-08-11T11:28:51Z</time>
      </trkpt>
      <trkpt lat="45.8373" lon="3.27006">
        <ele>318.6</ele>
        <time>2024-08-11T11:28:52Z</time>
      </trkpt>
      <trkpt lat="45.83737" lon="3.27006">
        <ele>318.4</ele>
        <time>2024-08-11T11:28:53Z</time>
      </trkpt>
      <trkpt lat="45.83743" lon="3.27006">
        <ele>318.4</ele>
        <time>2024-08-11T11:28:54Z</time>
      </trkpt>
      <trkpt lat="45.83749" lon="3.27006">
        <ele>318.4</ele>
        <time>2024-08-11T11:28:55Z</time>
      </trkpt>
      <trkpt lat="45.83756" lon="3.27005">
        <ele>318.4</ele>
        <time>2024-08-11T11:28:56Z</time>
      </trkpt>
      <trkpt lat="45.83762" lon="3.27005">
        <ele>318.4</ele>
        <time>2024-08-11T11:28:57Z</time>
      </trkpt>
      <trkpt lat="45.83768" lon="3.27005">
        <ele>318.2</ele>
        <time>2024-08-11T11:28:58Z</time>
      </trkpt>
      <trkpt lat="45.83774" lon="3.27005">
        <ele>318.2</ele>
        <time>2024-08-11T11:28:59Z</time>
      </trkpt>
      <trkpt lat="45.8378" lon="3.27004">
        <ele>318</ele>
        <time>2024-08-11T11:29:00Z</time>
      </trkpt>
      <trkpt lat="45.83786" lon="3.27004">
        <ele>317.8</ele>
        <time>2024-08-11T11:29:01Z</time>
      </trkpt>
      <trkpt lat="45.83792" lon="3.27005">
        <ele>317.8</ele>
        <time>2024-08-11T11:29:02Z</time>
      </trkpt>
      <trkpt lat="45.83799" lon="3.27006">
        <ele>317.8</ele>
        <time>2024-08-11T11:29:03Z</time>
      </trkpt>
      <trkpt lat="45.83805" lon="3.27007">
        <ele>317.8</ele>
        <time>2024-08-11T11:29:04Z</time>
      </trkpt>
      <trkpt lat="45.83811" lon="3.27008">
        <ele>317.6</ele>
        <time>2024-08-11T11:29:05Z</time>
      </trkpt>
      <trkpt lat="45.83817" lon="3.27009">
        <ele>317.6</ele>
        <time>2024-08-11T11:29:06Z</time>
      </trkpt>
      <trkpt lat="45.83823" lon="3.27011">
        <ele>317.6</ele>
        <time>2024-08-11T11:29:07Z</time>
      </trkpt>
      <trkpt lat="45.83829" lon="3.27012">
        <ele>317.6</ele>
        <time>2024-08-11T11:29:08Z</time>
      </trkpt>
      <trkpt lat="45.83835" lon="3.27013">
        <ele>317.6</ele>
        <time>2024-08-11T11:29:09Z</time>
      </trkpt>
      <trkpt lat="45.83842" lon="3.27015">
        <ele>317.6</ele>
        <time>2024-08-11T11:29:10Z</time>
      </trkpt>
      <trkpt lat="45.83848" lon="3.27016">
        <ele>317.6</ele>
        <time>2024-08-11T11:29:11Z</time>
      </trkpt>
      <trkpt lat="45.83854" lon="3.27018">
        <ele>317.6</ele>
        <time>2024-08-11T11:29:12Z</time>
      </trkpt>
      <trkpt lat="45.8386" lon="3.27019">
        <ele>317.4</ele>
        <time>2024-08-11T11:29:13Z</time>
      </trkpt>
      <trkpt lat="45.83867" lon="3.2702">
        <ele>317.4</ele>
        <time>2024-08-11T11:29:14Z</time>
      </trkpt>
      <trkpt lat="45.83873" lon="3.27022">
        <ele>317.2</ele>
        <time>2024-08-11T11:29:15Z</time>
      </trkpt>
      <trkpt lat="45.83879" lon="3.27023">
        <ele>317.2</ele>
        <time>2024-08-11T11:29:16Z</time>
      </trkpt>
      <trkpt lat="45.83885" lon="3.27024">
        <ele>317</ele>
        <time>2024-08-11T11:29:17Z</time>
      </trkpt>
      <trkpt lat="45.83891" lon="3.27026">
        <ele>317</ele>
        <time>2024-08-11T11:29:18Z</time>
      </trkpt>
      <trkpt lat="45.83897" lon="3.27029">
        <ele>317</ele>
        <time>2024-08-11T11:29:19Z</time>
      </trkpt>
      <trkpt lat="45.83903" lon="3.27032">
        <ele>317</ele>
        <time>2024-08-11T11:29:20Z</time>
      </trkpt>
      <trkpt lat="45.83909" lon="3.27036">
        <ele>316.8</ele>
        <time>2024-08-11T11:29:21Z</time>
      </trkpt>
      <trkpt lat="45.83914" lon="3.27041">
        <ele>316.8</ele>
        <time>2024-08-11T11:29:22Z</time>
      </trkpt>
      <trkpt lat="45.83918" lon="3.27046">
        <ele>316.6</ele>
        <time>2024-08-11T11:29:23Z</time>
      </trkpt>
      <trkpt lat="45.83923" lon="3.27052">
        <ele>316.6</ele>
        <time>2024-08-11T11:29:24Z</time>
      </trkpt>
      <trkpt lat="45.83927" lon="3.27057">
        <ele>316.6</ele>
        <time>2024-08-11T11:29:25Z</time>
      </trkpt>
      <trkpt lat="45.83932" lon="3.27063">
        <ele>316.6</ele>
        <time>2024-08-11T11:29:26Z</time>
      </trkpt>
      <trkpt lat="45.83936" lon="3.27067">
        <ele>316.6</ele>
        <time>2024-08-11T11:29:27Z</time>
      </trkpt>
      <trkpt lat="45.8394" lon="3.27072">
        <ele>316.6</ele>
        <time>2024-08-11T11:29:28Z</time>
      </trkpt>
      <trkpt lat="45.83944" lon="3.27077">
        <ele>316.4</ele>
        <time>2024-08-11T11:29:29Z</time>
      </trkpt>
      <trkpt lat="45.83948" lon="3.27082">
        <ele>316.4</ele>
        <time>2024-08-11T11:29:30Z</time>
      </trkpt>
      <trkpt lat="45.83952" lon="3.27087">
        <ele>316.4</ele>
        <time>2024-08-11T11:29:31Z</time>
      </trkpt>
      <trkpt lat="45.83956" lon="3.27092">
        <ele>316.4</ele>
        <time>2024-08-11T11:29:32Z</time>
      </trkpt>
      <trkpt lat="45.8396" lon="3.27097">
        <ele>316.4</ele>
        <time>2024-08-11T11:29:33Z</time>
      </trkpt>
      <trkpt lat="45.83964" lon="3.27101">
        <ele>316.2</ele>
        <time>2024-08-11T11:29:34Z</time>
      </trkpt>
      <trkpt lat="45.83968" lon="3.27106">
        <ele>316.4</ele>
        <time>2024-08-11T11:29:35Z</time>
      </trkpt>
      <trkpt lat="45.83972" lon="3.2711">
        <ele>316.2</ele>
        <time>2024-08-11T11:29:36Z</time>
      </trkpt>
      <trkpt lat="45.83975" lon="3.27115">
        <ele>316.2</ele>
        <time>2024-08-11T11:29:37Z</time>
      </trkpt>
      <trkpt lat="45.8398" lon="3.27119">
        <ele>316.2</ele>
        <time>2024-08-11T11:29:38Z</time>
      </trkpt>
      <trkpt lat="45.83983" lon="3.27124">
        <ele>316.2</ele>
        <time>2024-08-11T11:29:39Z</time>
      </trkpt>
      <trkpt lat="45.83987" lon="3.27128">
        <ele>316.2</ele>
        <time>2024-08-11T11:29:40Z</time>
      </trkpt>
      <trkpt lat="45.83991" lon="3.27133">
        <ele>316.2</ele>
        <time>2024-08-11T11:29:41Z</time>
      </trkpt>
      <trkpt lat="45.83995" lon="3.27137">
        <ele>316.4</ele>
        <time>2024-08-11T11:29:42Z</time>
      </trkpt>
      <trkpt lat="45.83999" lon="3.27142">
        <ele>316.4</ele>
        <time>2024-08-11T11:29:43Z</time>
      </trkpt>
      <trkpt lat="45.84003" lon="3.27146">
        <ele>315.8</ele>
        <time>2024-08-11T11:29:44Z</time>
      </trkpt>
      <trkpt lat="45.84007" lon="3.27151">
        <ele>315.8</ele>
        <time>2024-08-11T11:29:45Z</time>
      </trkpt>
      <trkpt lat="45.84011" lon="3.27155">
        <ele>315.8</ele>
        <time>2024-08-11T11:29:46Z</time>
      </trkpt>
      <trkpt lat="45.84015" lon="3.27159">
        <ele>315.8</ele>
        <time>2024-08-11T11:29:47Z</time>
      </trkpt>
      <trkpt lat="45.84019" lon="3.27164">
        <ele>316.4</ele>
        <time>2024-08-11T11:29:48Z</time>
      </trkpt>
      <trkpt lat="45.84023" lon="3.27168">
        <ele>315.8</ele>
        <time>2024-08-11T11:29:49Z</time>
      </trkpt>
      <trkpt lat="45.84027" lon="3.27171">
        <ele>316</ele>
        <time>2024-08-11T11:29:50Z</time>
      </trkpt>
      <trkpt lat="45.84031" lon="3.27175">
        <ele>316.2</ele>
        <time>2024-08-11T11:29:51Z</time>
      </trkpt>
      <trkpt lat="45.84035" lon="3.27179">
        <ele>315.8</ele>
        <time>2024-08-11T11:29:52Z</time>
      </trkpt>
      <trkpt lat="45.8404" lon="3.27182">
        <ele>316</ele>
        <time>2024-08-11T11:29:53Z</time>
      </trkpt>
      <trkpt lat="45.84044" lon="3.27186">
        <ele>316.2</ele>
        <time>2024-08-11T11:29:54Z</time>
      </trkpt>
      <trkpt lat="45.84049" lon="3.2719">
        <ele>316.2</ele>
        <time>2024-08-11T11:29:55Z</time>
      </trkpt>
      <trkpt lat="45.84053" lon="3.27193">
        <ele>316.2</ele>
        <time>2024-08-11T11:29:56Z</time>
      </trkpt>
      <trkpt lat="45.84058" lon="3.27197">
        <ele>316.2</ele>
        <time>2024-08-11T11:29:57Z</time>
      </trkpt>
      <trkpt lat="45.84062" lon="3.27201">
        <ele>316</ele>
        <time>2024-08-11T11:29:58Z</time>
      </trkpt>
      <trkpt lat="45.84067" lon="3.27205">
        <ele>316.2</ele>
        <time>2024-08-11T11:29:59Z</time>
      </trkpt>
      <trkpt lat="45.84071" lon="3.27209">
        <ele>316.2</ele>
        <time>2024-08-11T11:30:00Z</time>
      </trkpt>
      <trkpt lat="45.84076" lon="3.27213">
        <ele>316</ele>
        <time>2024-08-11T11:30:01Z</time>
      </trkpt>
      <trkpt lat="45.84081" lon="3.27217">
        <ele>316</ele>
        <time>2024-08-11T11:30:02Z</time>
      </trkpt>
      <trkpt lat="45.84085" lon="3.2722">
        <ele>316.2</ele>
        <time>2024-08-11T11:30:03Z</time>
      </trkpt>
      <trkpt lat="45.8409" lon="3.27224">
        <ele>316.2</ele>
        <time>2024-08-11T11:30:04Z</time>
      </trkpt>
      <trkpt lat="45.84094" lon="3.27228">
        <ele>316.4</ele>
        <time>2024-08-11T11:30:05Z</time>
      </trkpt>
      <trkpt lat="45.84099" lon="3.27232">
        <ele>316.2</ele>
        <time>2024-08-11T11:30:06Z</time>
      </trkpt>
      <trkpt lat="45.84104" lon="3.27236">
        <ele>316.2</ele>
        <time>2024-08-11T11:30:07Z</time>
      </trkpt>
      <trkpt lat="45.84108" lon="3.2724">
        <ele>316.2</ele>
        <time>2024-08-11T11:30:08Z</time>
      </trkpt>
      <trkpt lat="45.84113" lon="3.27244">
        <ele>316.2</ele>
        <time>2024-08-11T11:30:09Z</time>
      </trkpt>
      <trkpt lat="45.84118" lon="3.27248">
        <ele>316.2</ele>
        <time>2024-08-11T11:30:10Z</time>
      </trkpt>
      <trkpt lat="45.84122" lon="3.27252">
        <ele>316.4</ele>
        <time>2024-08-11T11:30:11Z</time>
      </trkpt>
      <trkpt lat="45.84127" lon="3.27256">
        <ele>316.2</ele>
        <time>2024-08-11T11:30:12Z</time>
      </trkpt>
      <trkpt lat="45.84132" lon="3.2726">
        <ele>316.2</ele>
        <time>2024-08-11T11:30:13Z</time>
      </trkpt>
      <trkpt lat="45.84136" lon="3.27264">
        <ele>316.4</ele>
        <time>2024-08-11T11:30:14Z</time>
      </trkpt>
      <trkpt lat="45.84141" lon="3.27268">
        <ele>316.2</ele>
        <time>2024-08-11T11:30:15Z</time>
      </trkpt>
      <trkpt lat="45.84146" lon="3.27272">
        <ele>316.2</ele>
        <time>2024-08-11T11:30:16Z</time>
      </trkpt>
      <trkpt lat="45.8415" lon="3.27276">
        <ele>316.2</ele>
        <time>2024-08-11T11:30:17Z</time>
      </trkpt>
      <trkpt lat="45.84155" lon="3.2728">
        <ele>316.2</ele>
        <time>2024-08-11T11:30:18Z</time>
      </trkpt>
      <trkpt lat="45.8416" lon="3.27284">
        <ele>316.2</ele>
        <time>2024-08-11T11:30:19Z</time>
      </trkpt>
      <trkpt lat="45.84164" lon="3.27288">
        <ele>316.4</ele>
        <time>2024-08-11T11:30:20Z</time>
      </trkpt>
      <trkpt lat="45.84169" lon="3.27292">
        <ele>316.4</ele>
        <time>2024-08-11T11:30:21Z</time>
      </trkpt>
      <trkpt lat="45.84174" lon="3.27296">
        <ele>316.4</ele>
        <time>2024-08-11T11:30:22Z</time>
      </trkpt>
      <trkpt lat="45.84178" lon="3.273">
        <ele>316.4</ele>
        <time>2024-08-11T11:30:23Z</time>
      </trkpt>
      <trkpt lat="45.84183" lon="3.27304">
        <ele>316.4</ele>
        <time>2024-08-11T11:30:24Z</time>
      </trkpt>
      <trkpt lat="45.84187" lon="3.27308">
        <ele>316.4</ele>
        <time>2024-08-11T11:30:25Z</time>
      </trkpt>
      <trkpt lat="45.84192" lon="3.27312">
        <ele>316.4</ele>
        <time>2024-08-11T11:30:26Z</time>
      </trkpt>
      <trkpt lat="45.84197" lon="3.27317">
        <ele>316.4</ele>
        <time>2024-08-11T11:30:27Z</time>
      </trkpt>
      <trkpt lat="45.84202" lon="3.27321">
        <ele>316.6</ele>
        <time>2024-08-11T11:30:28Z</time>
      </trkpt>
      <trkpt lat="45.84207" lon="3.27325">
        <ele>316.4</ele>
        <time>2024-08-11T11:30:29Z</time>
      </trkpt>
      <trkpt lat="45.84212" lon="3.27329">
        <ele>316.4</ele>
        <time>2024-08-11T11:30:30Z</time>
      </trkpt>
      <trkpt lat="45.84217" lon="3.27334">
        <ele>316.4</ele>
        <time>2024-08-11T11:30:31Z</time>
      </trkpt>
      <trkpt lat="45.84222" lon="3.27338">
        <ele>316.4</ele>
        <time>2024-08-11T11:30:32Z</time>
      </trkpt>
      <trkpt lat="45.84228" lon="3.27343">
        <ele>316.4</ele>
        <time>2024-08-11T11:30:33Z</time>
      </trkpt>
      <trkpt lat="45.84233" lon="3.27347">
        <ele>316.6</ele>
        <time>2024-08-11T11:30:34Z</time>
      </trkpt>
      <trkpt lat="45.84238" lon="3.27352">
        <ele>316.6</ele>
        <time>2024-08-11T11:30:35Z</time>
      </trkpt>
      <trkpt lat="45.84243" lon="3.27356">
        <ele>316.8</ele>
        <time>2024-08-11T11:30:36Z</time>
      </trkpt>
      <trkpt lat="45.84249" lon="3.27361">
        <ele>316.6</ele>
        <time>2024-08-11T11:30:37Z</time>
      </trkpt>
      <trkpt lat="45.84254" lon="3.27365">
        <ele>316.4</ele>
        <time>2024-08-11T11:30:38Z</time>
      </trkpt>
      <trkpt lat="45.84259" lon="3.27369">
        <ele>316.6</ele>
        <time>2024-08-11T11:30:39Z</time>
      </trkpt>
      <trkpt lat="45.84264" lon="3.27374">
        <ele>316.6</ele>
        <time>2024-08-11T11:30:40Z</time>
      </trkpt>
      <trkpt lat="45.84269" lon="3.27379">
        <ele>316.6</ele>
        <time>2024-08-11T11:30:41Z</time>
      </trkpt>
      <trkpt lat="45.84274" lon="3.27384">
        <ele>316.4</ele>
        <time>2024-08-11T11:30:42Z</time>
      </trkpt>
      <trkpt lat="45.84279" lon="3.27389">
        <ele>316.6</ele>
        <time>2024-08-11T11:30:43Z</time>
      </trkpt>
      <trkpt lat="45.84284" lon="3.27394">
        <ele>316.6</ele>
        <time>2024-08-11T11:30:44Z</time>
      </trkpt>
      <trkpt lat="45.84289" lon="3.274">
        <ele>316.6</ele>
        <time>2024-08-11T11:30:45Z</time>
      </trkpt>
      <trkpt lat="45.84294" lon="3.27405">
        <ele>316.8</ele>
        <time>2024-08-11T11:30:46Z</time>
      </trkpt>
      <trkpt lat="45.84299" lon="3.2741">
        <ele>316.8</ele>
        <time>2024-08-11T11:30:47Z</time>
      </trkpt>
      <trkpt lat="45.84304" lon="3.27415">
        <ele>316.8</ele>
        <time>2024-08-11T11:30:48Z</time>
      </trkpt>
      <trkpt lat="45.84309" lon="3.27421">
        <ele>316.8</ele>
        <time>2024-08-11T11:30:49Z</time>
      </trkpt>
      <trkpt lat="45.84314" lon="3.27426">
        <ele>316.8</ele>
        <time>2024-08-11T11:30:50Z</time>
      </trkpt>
      <trkpt lat="45.84318" lon="3.27431">
        <ele>316.8</ele>
        <time>2024-08-11T11:30:51Z</time>
      </trkpt>
      <trkpt lat="45.84323" lon="3.27436">
        <ele>316.8</ele>
        <time>2024-08-11T11:30:52Z</time>
      </trkpt>
      <trkpt lat="45.84328" lon="3.2744">
        <ele>316.6</ele>
        <time>2024-08-11T11:30:53Z</time>
      </trkpt>
      <trkpt lat="45.84332" lon="3.27445">
        <ele>316.6</ele>
        <time>2024-08-11T11:30:54Z</time>
      </trkpt>
      <trkpt lat="45.84337" lon="3.2745">
        <ele>316.6</ele>
        <time>2024-08-11T11:30:55Z</time>
      </trkpt>
      <trkpt lat="45.84342" lon="3.27455">
        <ele>316.6</ele>
        <time>2024-08-11T11:30:56Z</time>
      </trkpt>
      <trkpt lat="45.84346" lon="3.27461">
        <ele>316.6</ele>
        <time>2024-08-11T11:30:57Z</time>
      </trkpt>
      <trkpt lat="45.84351" lon="3.27466">
        <ele>316.8</ele>
        <time>2024-08-11T11:30:58Z</time>
      </trkpt>
      <trkpt lat="45.84356" lon="3.27471">
        <ele>316.8</ele>
        <time>2024-08-11T11:30:59Z</time>
      </trkpt>
      <trkpt lat="45.84361" lon="3.27476">
        <ele>316.8</ele>
        <time>2024-08-11T11:31:00Z</time>
      </trkpt>
      <trkpt lat="45.84365" lon="3.27481">
        <ele>316.8</ele>
        <time>2024-08-11T11:31:01Z</time>
      </trkpt>
      <trkpt lat="45.8437" lon="3.27486">
        <ele>316.8</ele>
        <time>2024-08-11T11:31:02Z</time>
      </trkpt>
      <trkpt lat="45.84374" lon="3.27492">
        <ele>316.8</ele>
        <time>2024-08-11T11:31:03Z</time>
      </trkpt>
      <trkpt lat="45.84379" lon="3.27498">
        <ele>317</ele>
        <time>2024-08-11T11:31:04Z</time>
      </trkpt>
      <trkpt lat="45.84383" lon="3.27503">
        <ele>317.2</ele>
        <time>2024-08-11T11:31:05Z</time>
      </trkpt>
      <trkpt lat="45.84388" lon="3.27508">
        <ele>317.2</ele>
        <time>2024-08-11T11:31:06Z</time>
      </trkpt>
      <trkpt lat="45.84392" lon="3.27514">
        <ele>317.2</ele>
        <time>2024-08-11T11:31:07Z</time>
      </trkpt>
      <trkpt lat="45.84397" lon="3.27519">
        <ele>317.4</ele>
        <time>2024-08-11T11:31:08Z</time>
      </trkpt>
      <trkpt lat="45.84401" lon="3.27525">
        <ele>317.2</ele>
        <time>2024-08-11T11:31:09Z</time>
      </trkpt>
      <trkpt lat="45.84405" lon="3.2753">
        <ele>317.2</ele>
        <time>2024-08-11T11:31:10Z</time>
      </trkpt>
      <trkpt lat="45.8441" lon="3.27536">
        <ele>317.2</ele>
        <time>2024-08-11T11:31:11Z</time>
      </trkpt>
      <trkpt lat="45.84414" lon="3.27541">
        <ele>317.4</ele>
        <time>2024-08-11T11:31:12Z</time>
      </trkpt>
      <trkpt lat="45.84419" lon="3.27547">
        <ele>317.6</ele>
        <time>2024-08-11T11:31:13Z</time>
      </trkpt>
      <trkpt lat="45.84423" lon="3.27552">
        <ele>317.8</ele>
        <time>2024-08-11T11:31:14Z</time>
      </trkpt>
      <trkpt lat="45.84428" lon="3.27558">
        <ele>317.8</ele>
        <time>2024-08-11T11:31:15Z</time>
      </trkpt>
      <trkpt lat="45.84431" lon="3.27565">
        <ele>317.8</ele>
        <time>2024-08-11T11:31:16Z</time>
      </trkpt>
      <trkpt lat="45.84434" lon="3.27572">
        <ele>318</ele>
        <time>2024-08-11T11:31:17Z</time>
      </trkpt>
      <trkpt lat="45.84437" lon="3.27579">
        <ele>318</ele>
        <time>2024-08-11T11:31:18Z</time>
      </trkpt>
      <trkpt lat="45.8444" lon="3.27587">
        <ele>318</ele>
        <time>2024-08-11T11:31:19Z</time>
      </trkpt>
      <trkpt lat="45.84443" lon="3.27594">
        <ele>317.8</ele>
        <time>2024-08-11T11:31:20Z</time>
      </trkpt>
      <trkpt lat="45.84446" lon="3.27601">
        <ele>318</ele>
        <time>2024-08-11T11:31:21Z</time>
      </trkpt>
      <trkpt lat="45.84449" lon="3.27609">
        <ele>317.8</ele>
        <time>2024-08-11T11:31:22Z</time>
      </trkpt>
      <trkpt lat="45.84452" lon="3.27617">
        <ele>317.8</ele>
        <time>2024-08-11T11:31:23Z</time>
      </trkpt>
      <trkpt lat="45.84455" lon="3.27624">
        <ele>318</ele>
        <time>2024-08-11T11:31:24Z</time>
      </trkpt>
      <trkpt lat="45.84458" lon="3.27632">
        <ele>318</ele>
        <time>2024-08-11T11:31:25Z</time>
      </trkpt>
      <trkpt lat="45.8446" lon="3.2764">
        <ele>318.2</ele>
        <time>2024-08-11T11:31:26Z</time>
      </trkpt>
      <trkpt lat="45.84463" lon="3.27648">
        <ele>318.2</ele>
        <time>2024-08-11T11:31:27Z</time>
      </trkpt>
      <trkpt lat="45.84465" lon="3.27657">
        <ele>318.2</ele>
        <time>2024-08-11T11:31:28Z</time>
      </trkpt>
      <trkpt lat="45.84468" lon="3.27665">
        <ele>318.4</ele>
        <time>2024-08-11T11:31:29Z</time>
      </trkpt>
      <trkpt lat="45.8447" lon="3.27674">
        <ele>318.4</ele>
        <time>2024-08-11T11:31:30Z</time>
      </trkpt>
      <trkpt lat="45.84473" lon="3.27682">
        <ele>318.6</ele>
        <time>2024-08-11T11:31:31Z</time>
      </trkpt>
      <trkpt lat="45.84475" lon="3.27691">
        <ele>318.6</ele>
        <time>2024-08-11T11:31:32Z</time>
      </trkpt>
      <trkpt lat="45.84478" lon="3.277">
        <ele>318.6</ele>
        <time>2024-08-11T11:31:33Z</time>
      </trkpt>
      <trkpt lat="45.8448" lon="3.27709">
        <ele>318.8</ele>
        <time>2024-08-11T11:31:34Z</time>
      </trkpt>
      <trkpt lat="45.84483" lon="3.27718">
        <ele>318.8</ele>
        <time>2024-08-11T11:31:35Z</time>
      </trkpt>
      <trkpt lat="45.84485" lon="3.27726">
        <ele>318.8</ele>
        <time>2024-08-11T11:31:36Z</time>
      </trkpt>
      <trkpt lat="45.84488" lon="3.27735">
        <ele>319</ele>
        <time>2024-08-11T11:31:37Z</time>
      </trkpt>
      <trkpt lat="45.84491" lon="3.27744">
        <ele>319</ele>
        <time>2024-08-11T11:31:38Z</time>
      </trkpt>
      <trkpt lat="45.84493" lon="3.27752">
        <ele>319</ele>
        <time>2024-08-11T11:31:39Z</time>
      </trkpt>
      <trkpt lat="45.84496" lon="3.27761">
        <ele>319</ele>
        <time>2024-08-11T11:31:40Z</time>
      </trkpt>
      <trkpt lat="45.84498" lon="3.2777">
        <ele>319.2</ele>
        <time>2024-08-11T11:31:41Z</time>
      </trkpt>
      <trkpt lat="45.84501" lon="3.27779">
        <ele>319.2</ele>
        <time>2024-08-11T11:31:42Z</time>
      </trkpt>
      <trkpt lat="45.84504" lon="3.27788">
        <ele>319.2</ele>
        <time>2024-08-11T11:31:43Z</time>
      </trkpt>
      <trkpt lat="45.84506" lon="3.27798">
        <ele>319.4</ele>
        <time>2024-08-11T11:31:44Z</time>
      </trkpt>
      <trkpt lat="45.84509" lon="3.27807">
        <ele>319.4</ele>
        <time>2024-08-11T11:31:45Z</time>
      </trkpt>
      <trkpt lat="45.84511" lon="3.27816">
        <ele>319.4</ele>
        <time>2024-08-11T11:31:46Z</time>
      </trkpt>
      <trkpt lat="45.84514" lon="3.27825">
        <ele>319.4</ele>
        <time>2024-08-11T11:31:47Z</time>
      </trkpt>
      <trkpt lat="45.84517" lon="3.27834">
        <ele>319.6</ele>
        <time>2024-08-11T11:31:48Z</time>
      </trkpt>
      <trkpt lat="45.84519" lon="3.27842">
        <ele>319.4</ele>
        <time>2024-08-11T11:31:49Z</time>
      </trkpt>
      <trkpt lat="45.84522" lon="3.27852">
        <ele>319.6</ele>
        <time>2024-08-11T11:31:50Z</time>
      </trkpt>
      <trkpt lat="45.84525" lon="3.27861">
        <ele>319.8</ele>
        <time>2024-08-11T11:31:51Z</time>
      </trkpt>
      <trkpt lat="45.84527" lon="3.27869">
        <ele>319.6</ele>
        <time>2024-08-11T11:31:52Z</time>
      </trkpt>
      <trkpt lat="45.8453" lon="3.27878">
        <ele>319.6</ele>
        <time>2024-08-11T11:31:53Z</time>
      </trkpt>
      <trkpt lat="45.84532" lon="3.27887">
        <ele>319.6</ele>
        <time>2024-08-11T11:31:54Z</time>
      </trkpt>
      <trkpt lat="45.84535" lon="3.27897">
        <ele>319.8</ele>
        <time>2024-08-11T11:31:55Z</time>
      </trkpt>
      <trkpt lat="45.84538" lon="3.27906">
        <ele>319.8</ele>
        <time>2024-08-11T11:31:56Z</time>
      </trkpt>
      <trkpt lat="45.8454" lon="3.27915">
        <ele>319.8</ele>
        <time>2024-08-11T11:31:57Z</time>
      </trkpt>
      <trkpt lat="45.84543" lon="3.27924">
        <ele>319.8</ele>
        <time>2024-08-11T11:31:58Z</time>
      </trkpt>
      <trkpt lat="45.84546" lon="3.27933">
        <ele>319.8</ele>
        <time>2024-08-11T11:31:59Z</time>
      </trkpt>
      <trkpt lat="45.84548" lon="3.27942">
        <ele>319.8</ele>
        <time>2024-08-11T11:32:00Z</time>
      </trkpt>
      <trkpt lat="45.84551" lon="3.27951">
        <ele>320</ele>
        <time>2024-08-11T11:32:01Z</time>
      </trkpt>
      <trkpt lat="45.84554" lon="3.27961">
        <ele>320</ele>
        <time>2024-08-11T11:32:02Z</time>
      </trkpt>
      <trkpt lat="45.84556" lon="3.2797">
        <ele>320</ele>
        <time>2024-08-11T11:32:03Z</time>
      </trkpt>
      <trkpt lat="45.84559" lon="3.27979">
        <ele>320</ele>
        <time>2024-08-11T11:32:04Z</time>
      </trkpt>
      <trkpt lat="45.84562" lon="3.27988">
        <ele>320</ele>
        <time>2024-08-11T11:32:05Z</time>
      </trkpt>
      <trkpt lat="45.84565" lon="3.27997">
        <ele>320</ele>
        <time>2024-08-11T11:32:06Z</time>
      </trkpt>
      <trkpt lat="45.8457" lon="3.28004">
        <ele>320</ele>
        <time>2024-08-11T11:32:07Z</time>
      </trkpt>
      <trkpt lat="45.84574" lon="3.28012">
        <ele>320</ele>
        <time>2024-08-11T11:32:08Z</time>
      </trkpt>
      <trkpt lat="45.84578" lon="3.2802">
        <ele>320</ele>
        <time>2024-08-11T11:32:09Z</time>
      </trkpt>
      <trkpt lat="45.84583" lon="3.28028">
        <ele>320.2</ele>
        <time>2024-08-11T11:32:10Z</time>
      </trkpt>
      <trkpt lat="45.84587" lon="3.28036">
        <ele>320.2</ele>
        <time>2024-08-11T11:32:11Z</time>
      </trkpt>
      <trkpt lat="45.84592" lon="3.28043">
        <ele>320.2</ele>
        <time>2024-08-11T11:32:12Z</time>
      </trkpt>
      <trkpt lat="45.84598" lon="3.28049">
        <ele>320.4</ele>
        <time>2024-08-11T11:32:13Z</time>
      </trkpt>
      <trkpt lat="45.84604" lon="3.28055">
        <ele>320.2</ele>
        <time>2024-08-11T11:32:14Z</time>
      </trkpt>
      <trkpt lat="45.84609" lon="3.2806">
        <ele>320.2</ele>
        <time>2024-08-11T11:32:15Z</time>
      </trkpt>
      <trkpt lat="45.84615" lon="3.28066">
        <ele>320.4</ele>
        <time>2024-08-11T11:32:16Z</time>
      </trkpt>
      <trkpt lat="45.84621" lon="3.28072">
        <ele>320.4</ele>
        <time>2024-08-11T11:32:17Z</time>
      </trkpt>
      <trkpt lat="45.84626" lon="3.28078">
        <ele>320.4</ele>
        <time>2024-08-11T11:32:18Z</time>
      </trkpt>
      <trkpt lat="45.84632" lon="3.28084">
        <ele>320.2</ele>
        <time>2024-08-11T11:32:19Z</time>
      </trkpt>
      <trkpt lat="45.84637" lon="3.2809">
        <ele>320.2</ele>
        <time>2024-08-11T11:32:20Z</time>
      </trkpt>
      <trkpt lat="45.84643" lon="3.28096">
        <ele>320.2</ele>
        <time>2024-08-11T11:32:21Z</time>
      </trkpt>
      <trkpt lat="45.84649" lon="3.28102">
        <ele>320.2</ele>
        <time>2024-08-11T11:32:22Z</time>
      </trkpt>
      <trkpt lat="45.84655" lon="3.28108">
        <ele>320.2</ele>
        <time>2024-08-11T11:32:23Z</time>
      </trkpt>
      <trkpt lat="45.8466" lon="3.28113">
        <ele>320.2</ele>
        <time>2024-08-11T11:32:24Z</time>
      </trkpt>
      <trkpt lat="45.84665" lon="3.28119">
        <ele>320.2</ele>
        <time>2024-08-11T11:32:25Z</time>
      </trkpt>
      <trkpt lat="45.84671" lon="3.28125">
        <ele>319.6</ele>
        <time>2024-08-11T11:32:26Z</time>
      </trkpt>
      <trkpt lat="45.84676" lon="3.2813">
        <ele>320</ele>
        <time>2024-08-11T11:32:27Z</time>
      </trkpt>
      <trkpt lat="45.84681" lon="3.28136">
        <ele>319.8</ele>
        <time>2024-08-11T11:32:28Z</time>
      </trkpt>
      <trkpt lat="45.84687" lon="3.28141">
        <ele>319.8</ele>
        <time>2024-08-11T11:32:29Z</time>
      </trkpt>
      <trkpt lat="45.84692" lon="3.28147">
        <ele>320</ele>
        <time>2024-08-11T11:32:30Z</time>
      </trkpt>
      <trkpt lat="45.84698" lon="3.28153">
        <ele>319.8</ele>
        <time>2024-08-11T11:32:31Z</time>
      </trkpt>
      <trkpt lat="45.84703" lon="3.28159">
        <ele>319.8</ele>
        <time>2024-08-11T11:32:32Z</time>
      </trkpt>
      <trkpt lat="45.84709" lon="3.28165">
        <ele>319.8</ele>
        <time>2024-08-11T11:32:33Z</time>
      </trkpt>
      <trkpt lat="45.84715" lon="3.28171">
        <ele>319.8</ele>
        <time>2024-08-11T11:32:34Z</time>
      </trkpt>
      <trkpt lat="45.84721" lon="3.28177">
        <ele>319.8</ele>
        <time>2024-08-11T11:32:35Z</time>
      </trkpt>
      <trkpt lat="45.84727" lon="3.28183">
        <ele>319.6</ele>
        <time>2024-08-11T11:32:36Z</time>
      </trkpt>
      <trkpt lat="45.84733" lon="3.28189">
        <ele>319.6</ele>
        <time>2024-08-11T11:32:37Z</time>
      </trkpt>
      <trkpt lat="45.84739" lon="3.28195">
        <ele>319.6</ele>
        <time>2024-08-11T11:32:38Z</time>
      </trkpt>
      <trkpt lat="45.84745" lon="3.28202">
        <ele>319.6</ele>
        <time>2024-08-11T11:32:39Z</time>
      </trkpt>
      <trkpt lat="45.84751" lon="3.28208">
        <ele>319.6</ele>
        <time>2024-08-11T11:32:40Z</time>
      </trkpt>
      <trkpt lat="45.84757" lon="3.28214">
        <ele>319.6</ele>
        <time>2024-08-11T11:32:41Z</time>
      </trkpt>
      <trkpt lat="45.84763" lon="3.2822">
        <ele>319.6</ele>
        <time>2024-08-11T11:32:42Z</time>
      </trkpt>
      <trkpt lat="45.84769" lon="3.28227">
        <ele>319.6</ele>
        <time>2024-08-11T11:32:43Z</time>
      </trkpt>
      <trkpt lat="45.84775" lon="3.28233">
        <ele>319.6</ele>
        <time>2024-08-11T11:32:44Z</time>
      </trkpt>
      <trkpt lat="45.84781" lon="3.28239">
        <ele>319.6</ele>
        <time>2024-08-11T11:32:45Z</time>
      </trkpt>
      <trkpt lat="45.84787" lon="3.28245">
        <ele>319.6</ele>
        <time>2024-08-11T11:32:46Z</time>
      </trkpt>
      <trkpt lat="45.84793" lon="3.28252">
        <ele>319.6</ele>
        <time>2024-08-11T11:32:47Z</time>
      </trkpt>
      <trkpt lat="45.84799" lon="3.28258">
        <ele>319.4</ele>
        <time>2024-08-11T11:32:48Z</time>
      </trkpt>
      <trkpt lat="45.84805" lon="3.28264">
        <ele>319.4</ele>
        <time>2024-08-11T11:32:49Z</time>
      </trkpt>
      <trkpt lat="45.84811" lon="3.2827">
        <ele>319.4</ele>
        <time>2024-08-11T11:32:50Z</time>
      </trkpt>
      <trkpt lat="45.84817" lon="3.28277">
        <ele>319.4</ele>
        <time>2024-08-11T11:32:51Z</time>
      </trkpt>
      <trkpt lat="45.84823" lon="3.28283">
        <ele>319.4</ele>
        <time>2024-08-11T11:32:52Z</time>
      </trkpt>
      <trkpt lat="45.84829" lon="3.28289">
        <ele>319.2</ele>
        <time>2024-08-11T11:32:53Z</time>
      </trkpt>
      <trkpt lat="45.84835" lon="3.28295">
        <ele>319.2</ele>
        <time>2024-08-11T11:32:54Z</time>
      </trkpt>
      <trkpt lat="45.84841" lon="3.28301">
        <ele>319.2</ele>
        <time>2024-08-11T11:32:55Z</time>
      </trkpt>
      <trkpt lat="45.84847" lon="3.28308">
        <ele>319.2</ele>
        <time>2024-08-11T11:32:56Z</time>
      </trkpt>
      <trkpt lat="45.84854" lon="3.28311">
        <ele>319.2</ele>
        <time>2024-08-11T11:32:57Z</time>
      </trkpt>
      <trkpt lat="45.8486" lon="3.28315">
        <ele>319.2</ele>
        <time>2024-08-11T11:32:58Z</time>
      </trkpt>
      <trkpt lat="45.84867" lon="3.28318">
        <ele>319.4</ele>
        <time>2024-08-11T11:32:59Z</time>
      </trkpt>
      <trkpt lat="45.84874" lon="3.2832">
        <ele>319.2</ele>
        <time>2024-08-11T11:33:00Z</time>
      </trkpt>
      <trkpt lat="45.8488" lon="3.28323">
        <ele>319.4</ele>
        <time>2024-08-11T11:33:01Z</time>
      </trkpt>
      <trkpt lat="45.84887" lon="3.28325">
        <ele>319.4</ele>
        <time>2024-08-11T11:33:02Z</time>
      </trkpt>
      <trkpt lat="45.84894" lon="3.28327">
        <ele>319.4</ele>
        <time>2024-08-11T11:33:03Z</time>
      </trkpt>
      <trkpt lat="45.84901" lon="3.2833">
        <ele>319.4</ele>
        <time>2024-08-11T11:33:04Z</time>
      </trkpt>
      <trkpt lat="45.84907" lon="3.28332">
        <ele>319.2</ele>
        <time>2024-08-11T11:33:05Z</time>
      </trkpt>
      <trkpt lat="45.84914" lon="3.28334">
        <ele>319.2</ele>
        <time>2024-08-11T11:33:06Z</time>
      </trkpt>
      <trkpt lat="45.84921" lon="3.28336">
        <ele>319.2</ele>
        <time>2024-08-11T11:33:07Z</time>
      </trkpt>
      <trkpt lat="45.84927" lon="3.28337">
        <ele>319.2</ele>
        <time>2024-08-11T11:33:08Z</time>
      </trkpt>
      <trkpt lat="45.84934" lon="3.28338">
        <ele>319.4</ele>
        <time>2024-08-11T11:33:09Z</time>
      </trkpt>
      <trkpt lat="45.8494" lon="3.28339">
        <ele>319.4</ele>
        <time>2024-08-11T11:33:10Z</time>
      </trkpt>
      <trkpt lat="45.84946" lon="3.28341">
        <ele>319.6</ele>
        <time>2024-08-11T11:33:11Z</time>
      </trkpt>
      <trkpt lat="45.84953" lon="3.28342">
        <ele>319.6</ele>
        <time>2024-08-11T11:33:12Z</time>
      </trkpt>
      <trkpt lat="45.84959" lon="3.28343">
        <ele>319.6</ele>
        <time>2024-08-11T11:33:13Z</time>
      </trkpt>
      <trkpt lat="45.84965" lon="3.28344">
        <ele>319.6</ele>
        <time>2024-08-11T11:33:14Z</time>
      </trkpt>
      <trkpt lat="45.84972" lon="3.28346">
        <ele>319.6</ele>
        <time>2024-08-11T11:33:15Z</time>
      </trkpt>
      <trkpt lat="45.84978" lon="3.28347">
        <ele>319.6</ele>
        <time>2024-08-11T11:33:16Z</time>
      </trkpt>
      <trkpt lat="45.84985" lon="3.28348">
        <ele>319.6</ele>
        <time>2024-08-11T11:33:17Z</time>
      </trkpt>
      <trkpt lat="45.84991" lon="3.28349">
        <ele>319.6</ele>
        <time>2024-08-11T11:33:18Z</time>
      </trkpt>
      <trkpt lat="45.84998" lon="3.28351">
        <ele>319.6</ele>
        <time>2024-08-11T11:33:19Z</time>
      </trkpt>
      <trkpt lat="45.85005" lon="3.28352">
        <ele>319.6</ele>
        <time>2024-08-11T11:33:20Z</time>
      </trkpt>
      <trkpt lat="45.85012" lon="3.28353">
        <ele>319.6</ele>
        <time>2024-08-11T11:33:21Z</time>
      </trkpt>
      <trkpt lat="45.85018" lon="3.28355">
        <ele>319.6</ele>
        <time>2024-08-11T11:33:22Z</time>
      </trkpt>
      <trkpt lat="45.85025" lon="3.28356">
        <ele>319.6</ele>
        <time>2024-08-11T11:33:23Z</time>
      </trkpt>
      <trkpt lat="45.85032" lon="3.28359">
        <ele>319.6</ele>
        <time>2024-08-11T11:33:24Z</time>
      </trkpt>
      <trkpt lat="45.85038" lon="3.28362">
        <ele>319.6</ele>
        <time>2024-08-11T11:33:25Z</time>
      </trkpt>
      <trkpt lat="45.85044" lon="3.28364">
        <ele>319.6</ele>
        <time>2024-08-11T11:33:26Z</time>
      </trkpt>
      <trkpt lat="45.85051" lon="3.28367">
        <ele>319.6</ele>
        <time>2024-08-11T11:33:27Z</time>
      </trkpt>
      <trkpt lat="45.85057" lon="3.2837">
        <ele>319.4</ele>
        <time>2024-08-11T11:33:28Z</time>
      </trkpt>
      <trkpt lat="45.85063" lon="3.28373">
        <ele>319.4</ele>
        <time>2024-08-11T11:33:29Z</time>
      </trkpt>
      <trkpt lat="45.8507" lon="3.28376">
        <ele>319.2</ele>
        <time>2024-08-11T11:33:30Z</time>
      </trkpt>
      <trkpt lat="45.85076" lon="3.2838">
        <ele>319.2</ele>
        <time>2024-08-11T11:33:31Z</time>
      </trkpt>
      <trkpt lat="45.85081" lon="3.28384">
        <ele>319.2</ele>
        <time>2024-08-11T11:33:32Z</time>
      </trkpt>
      <trkpt lat="45.85087" lon="3.28389">
        <ele>319.2</ele>
        <time>2024-08-11T11:33:33Z</time>
      </trkpt>
      <trkpt lat="45.85093" lon="3.28393">
        <ele>319.2</ele>
        <time>2024-08-11T11:33:34Z</time>
      </trkpt>
      <trkpt lat="45.85099" lon="3.28397">
        <ele>319.2</ele>
        <time>2024-08-11T11:33:35Z</time>
      </trkpt>
      <trkpt lat="45.85105" lon="3.28402">
        <ele>319</ele>
        <time>2024-08-11T11:33:36Z</time>
      </trkpt>
      <trkpt lat="45.85111" lon="3.28406">
        <ele>319</ele>
        <time>2024-08-11T11:33:37Z</time>
      </trkpt>
      <trkpt lat="45.85116" lon="3.28412">
        <ele>318.8</ele>
        <time>2024-08-11T11:33:38Z</time>
      </trkpt>
      <trkpt lat="45.85122" lon="3.28418">
        <ele>318.8</ele>
        <time>2024-08-11T11:33:39Z</time>
      </trkpt>
      <trkpt lat="45.85128" lon="3.28423">
        <ele>318.8</ele>
        <time>2024-08-11T11:33:40Z</time>
      </trkpt>
      <trkpt lat="45.85134" lon="3.28429">
        <ele>318.8</ele>
        <time>2024-08-11T11:33:41Z</time>
      </trkpt>
      <trkpt lat="45.85139" lon="3.28435">
        <ele>318.8</ele>
        <time>2024-08-11T11:33:42Z</time>
      </trkpt>
      <trkpt lat="45.85145" lon="3.28441">
        <ele>318.8</ele>
        <time>2024-08-11T11:33:43Z</time>
      </trkpt>
      <trkpt lat="45.85151" lon="3.28447">
        <ele>318.8</ele>
        <time>2024-08-11T11:33:44Z</time>
      </trkpt>
      <trkpt lat="45.85157" lon="3.28454">
        <ele>318.8</ele>
        <time>2024-08-11T11:33:45Z</time>
      </trkpt>
      <trkpt lat="45.85162" lon="3.28461">
        <ele>318.8</ele>
        <time>2024-08-11T11:33:46Z</time>
      </trkpt>
      <trkpt lat="45.85167" lon="3.28469">
        <ele>318.8</ele>
        <time>2024-08-11T11:33:47Z</time>
      </trkpt>
      <trkpt lat="45.85172" lon="3.28476">
        <ele>318.6</ele>
        <time>2024-08-11T11:33:48Z</time>
      </trkpt>
      <trkpt lat="45.85177" lon="3.28484">
        <ele>318.8</ele>
        <time>2024-08-11T11:33:49Z</time>
      </trkpt>
      <trkpt lat="45.85182" lon="3.28491">
        <ele>318.8</ele>
        <time>2024-08-11T11:33:50Z</time>
      </trkpt>
      <trkpt lat="45.85187" lon="3.28499">
        <ele>318.6</ele>
        <time>2024-08-11T11:33:51Z</time>
      </trkpt>
      <trkpt lat="45.85192" lon="3.28507">
        <ele>318.6</ele>
        <time>2024-08-11T11:33:52Z</time>
      </trkpt>
      <trkpt lat="45.85197" lon="3.28515">
        <ele>318.4</ele>
        <time>2024-08-11T11:33:53Z</time>
      </trkpt>
      <trkpt lat="45.85201" lon="3.28523">
        <ele>318.4</ele>
        <time>2024-08-11T11:33:54Z</time>
      </trkpt>
      <trkpt lat="45.85206" lon="3.28531">
        <ele>318.4</ele>
        <time>2024-08-11T11:33:55Z</time>
      </trkpt>
      <trkpt lat="45.85211" lon="3.28538">
        <ele>318.4</ele>
        <time>2024-08-11T11:33:56Z</time>
      </trkpt>
      <trkpt lat="45.85216" lon="3.28546">
        <ele>318.4</ele>
        <time>2024-08-11T11:33:57Z</time>
      </trkpt>
      <trkpt lat="45.85221" lon="3.28554">
        <ele>318.4</ele>
        <time>2024-08-11T11:33:58Z</time>
      </trkpt>
      <trkpt lat="45.85225" lon="3.28562">
        <ele>318.4</ele>
        <time>2024-08-11T11:33:59Z</time>
      </trkpt>
      <trkpt lat="45.8523" lon="3.2857">
        <ele>318.2</ele>
        <time>2024-08-11T11:34:00Z</time>
      </trkpt>
      <trkpt lat="45.85235" lon="3.28577">
        <ele>318.2</ele>
        <time>2024-08-11T11:34:01Z</time>
      </trkpt>
      <trkpt lat="45.85239" lon="3.28585">
        <ele>318.2</ele>
        <time>2024-08-11T11:34:02Z</time>
      </trkpt>
      <trkpt lat="45.85244" lon="3.28592">
        <ele>318.4</ele>
        <time>2024-08-11T11:34:03Z</time>
      </trkpt>
      <trkpt lat="45.85248" lon="3.286">
        <ele>318.2</ele>
        <time>2024-08-11T11:34:04Z</time>
      </trkpt>
      <trkpt lat="45.85253" lon="3.28607">
        <ele>318.2</ele>
        <time>2024-08-11T11:34:05Z</time>
      </trkpt>
      <trkpt lat="45.85257" lon="3.28615">
        <ele>318.2</ele>
        <time>2024-08-11T11:34:06Z</time>
      </trkpt>
      <trkpt lat="45.85262" lon="3.28622">
        <ele>318.2</ele>
        <time>2024-08-11T11:34:07Z</time>
      </trkpt>
      <trkpt lat="45.85267" lon="3.2863">
        <ele>318.2</ele>
        <time>2024-08-11T11:34:08Z</time>
      </trkpt>
      <trkpt lat="45.85271" lon="3.28637">
        <ele>318.2</ele>
        <time>2024-08-11T11:34:09Z</time>
      </trkpt>
      <trkpt lat="45.85276" lon="3.28645">
        <ele>318.2</ele>
        <time>2024-08-11T11:34:10Z</time>
      </trkpt>
      <trkpt lat="45.8528" lon="3.28652">
        <ele>318</ele>
        <time>2024-08-11T11:34:11Z</time>
      </trkpt>
      <trkpt lat="45.85285" lon="3.28659">
        <ele>318</ele>
        <time>2024-08-11T11:34:12Z</time>
      </trkpt>
      <trkpt lat="45.85289" lon="3.28667">
        <ele>318</ele>
        <time>2024-08-11T11:34:13Z</time>
      </trkpt>
      <trkpt lat="45.85294" lon="3.28674">
        <ele>318</ele>
        <time>2024-08-11T11:34:14Z</time>
      </trkpt>
      <trkpt lat="45.85299" lon="3.28681">
        <ele>318</ele>
        <time>2024-08-11T11:34:15Z</time>
      </trkpt>
      <trkpt lat="45.85303" lon="3.28689">
        <ele>318</ele>
        <time>2024-08-11T11:34:16Z</time>
      </trkpt>
      <trkpt lat="45.85308" lon="3.28696">
        <ele>318</ele>
        <time>2024-08-11T11:34:17Z</time>
      </trkpt>
      <trkpt lat="45.85312" lon="3.28703">
        <ele>318</ele>
        <time>2024-08-11T11:34:18Z</time>
      </trkpt>
      <trkpt lat="45.85317" lon="3.2871">
        <ele>317.8</ele>
        <time>2024-08-11T11:34:19Z</time>
      </trkpt>
      <trkpt lat="45.85321" lon="3.28717">
        <ele>317.8</ele>
        <time>2024-08-11T11:34:20Z</time>
      </trkpt>
      <trkpt lat="45.85326" lon="3.28725">
        <ele>317.8</ele>
        <time>2024-08-11T11:34:21Z</time>
      </trkpt>
      <trkpt lat="45.8533" lon="3.28731">
        <ele>317.6</ele>
        <time>2024-08-11T11:34:22Z</time>
      </trkpt>
      <trkpt lat="45.85334" lon="3.28739">
        <ele>317.6</ele>
        <time>2024-08-11T11:34:23Z</time>
      </trkpt>
      <trkpt lat="45.85339" lon="3.28746">
        <ele>317.6</ele>
        <time>2024-08-11T11:34:24Z</time>
      </trkpt>
      <trkpt lat="45.85343" lon="3.28753">
        <ele>317.6</ele>
        <time>2024-08-11T11:34:25Z</time>
      </trkpt>
      <trkpt lat="45.85348" lon="3.28761">
        <ele>317.6</ele>
        <time>2024-08-11T11:34:26Z</time>
      </trkpt>
      <trkpt lat="45.85353" lon="3.28768">
        <ele>317.6</ele>
        <time>2024-08-11T11:34:27Z</time>
      </trkpt>
      <trkpt lat="45.85357" lon="3.28775">
        <ele>317.6</ele>
        <time>2024-08-11T11:34:28Z</time>
      </trkpt>
      <trkpt lat="45.85362" lon="3.28782">
        <ele>317.6</ele>
        <time>2024-08-11T11:34:29Z</time>
      </trkpt>
      <trkpt lat="45.85366" lon="3.28789">
        <ele>317.4</ele>
        <time>2024-08-11T11:34:30Z</time>
      </trkpt>
      <trkpt lat="45.8537" lon="3.28796">
        <ele>317.4</ele>
        <time>2024-08-11T11:34:31Z</time>
      </trkpt>
      <trkpt lat="45.85375" lon="3.28803">
        <ele>317.4</ele>
        <time>2024-08-11T11:34:32Z</time>
      </trkpt>
      <trkpt lat="45.85379" lon="3.2881">
        <ele>317.4</ele>
        <time>2024-08-11T11:34:33Z</time>
      </trkpt>
      <trkpt lat="45.85384" lon="3.28817">
        <ele>317.4</ele>
        <time>2024-08-11T11:34:34Z</time>
      </trkpt>
      <trkpt lat="45.85388" lon="3.28824">
        <ele>317.2</ele>
        <time>2024-08-11T11:34:35Z</time>
      </trkpt>
      <trkpt lat="45.85392" lon="3.28831">
        <ele>317.4</ele>
        <time>2024-08-11T11:34:36Z</time>
      </trkpt>
      <trkpt lat="45.85397" lon="3.28838">
        <ele>317.2</ele>
        <time>2024-08-11T11:34:37Z</time>
      </trkpt>
      <trkpt lat="45.85401" lon="3.28845">
        <ele>317.2</ele>
        <time>2024-08-11T11:34:38Z</time>
      </trkpt>
      <trkpt lat="45.85405" lon="3.28852">
        <ele>317.2</ele>
        <time>2024-08-11T11:34:39Z</time>
      </trkpt>
      <trkpt lat="45.8541" lon="3.28859">
        <ele>317.2</ele>
        <time>2024-08-11T11:34:40Z</time>
      </trkpt>
      <trkpt lat="45.85414" lon="3.28866">
        <ele>317</ele>
        <time>2024-08-11T11:34:41Z</time>
      </trkpt>
      <trkpt lat="45.85419" lon="3.28873">
        <ele>317</ele>
        <time>2024-08-11T11:34:42Z</time>
      </trkpt>
      <trkpt lat="45.85423" lon="3.2888">
        <ele>317</ele>
        <time>2024-08-11T11:34:43Z</time>
      </trkpt>
      <trkpt lat="45.85427" lon="3.28887">
        <ele>317</ele>
        <time>2024-08-11T11:34:44Z</time>
      </trkpt>
      <trkpt lat="45.85432" lon="3.28894">
        <ele>316.8</ele>
        <time>2024-08-11T11:34:45Z</time>
      </trkpt>
      <trkpt lat="45.85436" lon="3.28901">
        <ele>316.8</ele>
        <time>2024-08-11T11:34:46Z</time>
      </trkpt>
      <trkpt lat="45.8544" lon="3.28908">
        <ele>316.8</ele>
        <time>2024-08-11T11:34:47Z</time>
      </trkpt>
      <trkpt lat="45.85444" lon="3.28915">
        <ele>316.6</ele>
        <time>2024-08-11T11:34:48Z</time>
      </trkpt>
      <trkpt lat="45.85449" lon="3.28921">
        <ele>316.6</ele>
        <time>2024-08-11T11:34:49Z</time>
      </trkpt>
      <trkpt lat="45.85453" lon="3.28929">
        <ele>316.6</ele>
        <time>2024-08-11T11:34:50Z</time>
      </trkpt>
      <trkpt lat="45.85458" lon="3.28936">
        <ele>316.4</ele>
        <time>2024-08-11T11:34:51Z</time>
      </trkpt>
      <trkpt lat="45.85462" lon="3.28943">
        <ele>316.4</ele>
        <time>2024-08-11T11:34:52Z</time>
      </trkpt>
      <trkpt lat="45.85467" lon="3.2895">
        <ele>316.4</ele>
        <time>2024-08-11T11:34:53Z</time>
      </trkpt>
      <trkpt lat="45.85471" lon="3.28958">
        <ele>316.4</ele>
        <time>2024-08-11T11:34:54Z</time>
      </trkpt>
      <trkpt lat="45.85475" lon="3.28966">
        <ele>316.4</ele>
        <time>2024-08-11T11:34:55Z</time>
      </trkpt>
      <trkpt lat="45.85479" lon="3.28974">
        <ele>316.4</ele>
        <time>2024-08-11T11:34:56Z</time>
      </trkpt>
      <trkpt lat="45.85483" lon="3.28982">
        <ele>316.4</ele>
        <time>2024-08-11T11:34:57Z</time>
      </trkpt>
      <trkpt lat="45.85487" lon="3.28989">
        <ele>316.4</ele>
        <time>2024-08-11T11:34:58Z</time>
      </trkpt>
      <trkpt lat="45.85492" lon="3.28997">
        <ele>316.4</ele>
        <time>2024-08-11T11:34:59Z</time>
      </trkpt>
      <trkpt lat="45.85495" lon="3.29006">
        <ele>316.4</ele>
        <time>2024-08-11T11:35:00Z</time>
      </trkpt>
      <trkpt lat="45.85498" lon="3.29015">
        <ele>316.4</ele>
        <time>2024-08-11T11:35:01Z</time>
      </trkpt>
      <trkpt lat="45.85501" lon="3.29023">
        <ele>316.4</ele>
        <time>2024-08-11T11:35:02Z</time>
      </trkpt>
      <trkpt lat="45.85504" lon="3.29032">
        <ele>316.4</ele>
        <time>2024-08-11T11:35:03Z</time>
      </trkpt>
      <trkpt lat="45.85507" lon="3.29041">
        <ele>316.2</ele>
        <time>2024-08-11T11:35:04Z</time>
      </trkpt>
      <trkpt lat="45.8551" lon="3.2905">
        <ele>316.2</ele>
        <time>2024-08-11T11:35:05Z</time>
      </trkpt>
      <trkpt lat="45.85513" lon="3.29058">
        <ele>316.2</ele>
        <time>2024-08-11T11:35:06Z</time>
      </trkpt>
      <trkpt lat="45.85516" lon="3.29067">
        <ele>316.2</ele>
        <time>2024-08-11T11:35:07Z</time>
      </trkpt>
      <trkpt lat="45.8552" lon="3.29076">
        <ele>316.2</ele>
        <time>2024-08-11T11:35:08Z</time>
      </trkpt>
      <trkpt lat="45.85523" lon="3.29085">
        <ele>316.2</ele>
        <time>2024-08-11T11:35:09Z</time>
      </trkpt>
      <trkpt lat="45.85526" lon="3.29094">
        <ele>316</ele>
        <time>2024-08-11T11:35:10Z</time>
      </trkpt>
      <trkpt lat="45.85529" lon="3.29103">
        <ele>316</ele>
        <time>2024-08-11T11:35:11Z</time>
      </trkpt>
      <trkpt lat="45.85532" lon="3.29112">
        <ele>316</ele>
        <time>2024-08-11T11:35:12Z</time>
      </trkpt>
      <trkpt lat="45.85536" lon="3.29121">
        <ele>316</ele>
        <time>2024-08-11T11:35:13Z</time>
      </trkpt>
      <trkpt lat="45.85539" lon="3.2913">
        <ele>316</ele>
        <time>2024-08-11T11:35:14Z</time>
      </trkpt>
      <trkpt lat="45.85542" lon="3.29139">
        <ele>316</ele>
        <time>2024-08-11T11:35:15Z</time>
      </trkpt>
      <trkpt lat="45.85545" lon="3.29148">
        <ele>315.8</ele>
        <time>2024-08-11T11:35:16Z</time>
      </trkpt>
      <trkpt lat="45.85549" lon="3.29157">
        <ele>315.8</ele>
        <time>2024-08-11T11:35:17Z</time>
      </trkpt>
      <trkpt lat="45.85552" lon="3.29166">
        <ele>315.8</ele>
        <time>2024-08-11T11:35:18Z</time>
      </trkpt>
      <trkpt lat="45.85555" lon="3.29176">
        <ele>315.8</ele>
        <time>2024-08-11T11:35:19Z</time>
      </trkpt>
      <trkpt lat="45.85558" lon="3.29185">
        <ele>315.8</ele>
        <time>2024-08-11T11:35:20Z</time>
      </trkpt>
      <trkpt lat="45.85562" lon="3.29194">
        <ele>315.8</ele>
        <time>2024-08-11T11:35:21Z</time>
      </trkpt>
      <trkpt lat="45.85565" lon="3.29204">
        <ele>315.6</ele>
        <time>2024-08-11T11:35:22Z</time>
      </trkpt>
      <trkpt lat="45.85568" lon="3.29213">
        <ele>315.6</ele>
        <time>2024-08-11T11:35:23Z</time>
      </trkpt>
      <trkpt lat="45.85572" lon="3.29222">
        <ele>315.6</ele>
        <time>2024-08-11T11:35:24Z</time>
      </trkpt>
      <trkpt lat="45.85575" lon="3.29232">
        <ele>315.4</ele>
        <time>2024-08-11T11:35:25Z</time>
      </trkpt>
      <trkpt lat="45.85578" lon="3.29241">
        <ele>315.4</ele>
        <time>2024-08-11T11:35:26Z</time>
      </trkpt>
      <trkpt lat="45.85582" lon="3.29251">
        <ele>315.4</ele>
        <time>2024-08-11T11:35:27Z</time>
      </trkpt>
      <trkpt lat="45.85585" lon="3.2926">
        <ele>315.2</ele>
        <time>2024-08-11T11:35:28Z</time>
      </trkpt>
      <trkpt lat="45.85589" lon="3.2927">
        <ele>315.2</ele>
        <time>2024-08-11T11:35:29Z</time>
      </trkpt>
      <trkpt lat="45.85592" lon="3.29279">
        <ele>315.2</ele>
        <time>2024-08-11T11:35:30Z</time>
      </trkpt>
      <trkpt lat="45.85596" lon="3.29288">
        <ele>315</ele>
        <time>2024-08-11T11:35:31Z</time>
      </trkpt>
      <trkpt lat="45.856" lon="3.29297">
        <ele>315.2</ele>
        <time>2024-08-11T11:35:32Z</time>
      </trkpt>
      <trkpt lat="45.85603" lon="3.29306">
        <ele>315</ele>
        <time>2024-08-11T11:35:33Z</time>
      </trkpt>
      <trkpt lat="45.85607" lon="3.29315">
        <ele>315</ele>
        <time>2024-08-11T11:35:34Z</time>
      </trkpt>
      <trkpt lat="45.85611" lon="3.29324">
        <ele>315</ele>
        <time>2024-08-11T11:35:35Z</time>
      </trkpt>
      <trkpt lat="45.85615" lon="3.29332">
        <ele>314.8</ele>
        <time>2024-08-11T11:35:36Z</time>
      </trkpt>
      <trkpt lat="45.85618" lon="3.29341">
        <ele>315</ele>
        <time>2024-08-11T11:35:37Z</time>
      </trkpt>
      <trkpt lat="45.85622" lon="3.2935">
        <ele>314.8</ele>
        <time>2024-08-11T11:35:38Z</time>
      </trkpt>
      <trkpt lat="45.85625" lon="3.29358">
        <ele>314.8</ele>
        <time>2024-08-11T11:35:39Z</time>
      </trkpt>
      <trkpt lat="45.85629" lon="3.29367">
        <ele>314.8</ele>
        <time>2024-08-11T11:35:40Z</time>
      </trkpt>
      <trkpt lat="45.85632" lon="3.29375">
        <ele>314.8</ele>
        <time>2024-08-11T11:35:41Z</time>
      </trkpt>
      <trkpt lat="45.85636" lon="3.29383">
        <ele>314.8</ele>
        <time>2024-08-11T11:35:42Z</time>
      </trkpt>
      <trkpt lat="45.85639" lon="3.29391">
        <ele>314.6</ele>
        <time>2024-08-11T11:35:43Z</time>
      </trkpt>
      <trkpt lat="45.85642" lon="3.294">
        <ele>314.8</ele>
        <time>2024-08-11T11:35:44Z</time>
      </trkpt>
      <trkpt lat="45.85645" lon="3.29409">
        <ele>314.6</ele>
        <time>2024-08-11T11:35:45Z</time>
      </trkpt>
      <trkpt lat="45.85648" lon="3.29418">
        <ele>314.6</ele>
        <time>2024-08-11T11:35:46Z</time>
      </trkpt>
      <trkpt lat="45.8565" lon="3.29426">
        <ele>314.6</ele>
        <time>2024-08-11T11:35:47Z</time>
      </trkpt>
      <trkpt lat="45.85653" lon="3.29435">
        <ele>314.6</ele>
        <time>2024-08-11T11:35:48Z</time>
      </trkpt>
      <trkpt lat="45.85656" lon="3.29443">
        <ele>314.4</ele>
        <time>2024-08-11T11:35:49Z</time>
      </trkpt>
      <trkpt lat="45.85658" lon="3.29452">
        <ele>314.4</ele>
        <time>2024-08-11T11:35:50Z</time>
      </trkpt>
      <trkpt lat="45.85661" lon="3.2946">
        <ele>314.4</ele>
        <time>2024-08-11T11:35:51Z</time>
      </trkpt>
      <trkpt lat="45.85664" lon="3.29468">
        <ele>314.4</ele>
        <time>2024-08-11T11:35:52Z</time>
      </trkpt>
      <trkpt lat="45.85666" lon="3.29477">
        <ele>314.2</ele>
        <time>2024-08-11T11:35:53Z</time>
      </trkpt>
      <trkpt lat="45.85669" lon="3.29486">
        <ele>314.2</ele>
        <time>2024-08-11T11:35:54Z</time>
      </trkpt>
      <trkpt lat="45.85672" lon="3.29495">
        <ele>314.2</ele>
        <time>2024-08-11T11:35:55Z</time>
      </trkpt>
      <trkpt lat="45.85675" lon="3.29504">
        <ele>314.2</ele>
        <time>2024-08-11T11:35:56Z</time>
      </trkpt>
      <trkpt lat="45.85677" lon="3.29512">
        <ele>314.2</ele>
        <time>2024-08-11T11:35:57Z</time>
      </trkpt>
      <trkpt lat="45.8568" lon="3.29522">
        <ele>314</ele>
        <time>2024-08-11T11:35:58Z</time>
      </trkpt>
      <trkpt lat="45.85683" lon="3.29531">
        <ele>314</ele>
        <time>2024-08-11T11:35:59Z</time>
      </trkpt>
      <trkpt lat="45.85686" lon="3.2954">
        <ele>314</ele>
        <time>2024-08-11T11:36:00Z</time>
      </trkpt>
      <trkpt lat="45.85689" lon="3.29549">
        <ele>314</ele>
        <time>2024-08-11T11:36:01Z</time>
      </trkpt>
      <trkpt lat="45.85691" lon="3.29558">
        <ele>314</ele>
        <time>2024-08-11T11:36:02Z</time>
      </trkpt>
      <trkpt lat="45.85694" lon="3.29566">
        <ele>314</ele>
        <time>2024-08-11T11:36:03Z</time>
      </trkpt>
      <trkpt lat="45.85697" lon="3.29575">
        <ele>314</ele>
        <time>2024-08-11T11:36:04Z</time>
      </trkpt>
      <trkpt lat="45.857" lon="3.29584">
        <ele>314</ele>
        <time>2024-08-11T11:36:05Z</time>
      </trkpt>
      <trkpt lat="45.85703" lon="3.29593">
        <ele>314</ele>
        <time>2024-08-11T11:36:06Z</time>
      </trkpt>
      <trkpt lat="45.85705" lon="3.29602">
        <ele>313.8</ele>
        <time>2024-08-11T11:36:07Z</time>
      </trkpt>
      <trkpt lat="45.85708" lon="3.29611">
        <ele>313.8</ele>
        <time>2024-08-11T11:36:08Z</time>
      </trkpt>
      <trkpt lat="45.85711" lon="3.29619">
        <ele>313.8</ele>
        <time>2024-08-11T11:36:09Z</time>
      </trkpt>
      <trkpt lat="45.85713" lon="3.29628">
        <ele>313.8</ele>
        <time>2024-08-11T11:36:10Z</time>
      </trkpt>
      <trkpt lat="45.85716" lon="3.29637">
        <ele>313.8</ele>
        <time>2024-08-11T11:36:11Z</time>
      </trkpt>
      <trkpt lat="45.85719" lon="3.29646">
        <ele>313.6</ele>
        <time>2024-08-11T11:36:12Z</time>
      </trkpt>
      <trkpt lat="45.85722" lon="3.29655">
        <ele>313.6</ele>
        <time>2024-08-11T11:36:13Z</time>
      </trkpt>
      <trkpt lat="45.85725" lon="3.29664">
        <ele>313.6</ele>
        <time>2024-08-11T11:36:14Z</time>
      </trkpt>
      <trkpt lat="45.85728" lon="3.29674">
        <ele>313.4</ele>
        <time>2024-08-11T11:36:15Z</time>
      </trkpt>
      <trkpt lat="45.85731" lon="3.29683">
        <ele>313.4</ele>
        <time>2024-08-11T11:36:16Z</time>
      </trkpt>
      <trkpt lat="45.85736" lon="3.29691">
        <ele>313.4</ele>
        <time>2024-08-11T11:36:17Z</time>
      </trkpt>
      <trkpt lat="45.8574" lon="3.297">
        <ele>313.2</ele>
        <time>2024-08-11T11:36:18Z</time>
      </trkpt>
      <trkpt lat="45.85744" lon="3.29708">
        <ele>313.2</ele>
        <time>2024-08-11T11:36:19Z</time>
      </trkpt>
      <trkpt lat="45.85748" lon="3.29716">
        <ele>313.2</ele>
        <time>2024-08-11T11:36:20Z</time>
      </trkpt>
      <trkpt lat="45.85752" lon="3.29724">
        <ele>313</ele>
        <time>2024-08-11T11:36:21Z</time>
      </trkpt>
      <trkpt lat="45.85756" lon="3.29733">
        <ele>313</ele>
        <time>2024-08-11T11:36:22Z</time>
      </trkpt>
      <trkpt lat="45.8576" lon="3.29741">
        <ele>313</ele>
        <time>2024-08-11T11:36:23Z</time>
      </trkpt>
      <trkpt lat="45.85765" lon="3.2975">
        <ele>313</ele>
        <time>2024-08-11T11:36:24Z</time>
      </trkpt>
      <trkpt lat="45.85769" lon="3.29758">
        <ele>312.8</ele>
        <time>2024-08-11T11:36:25Z</time>
      </trkpt>
      <trkpt lat="45.85773" lon="3.29767">
        <ele>312.8</ele>
        <time>2024-08-11T11:36:26Z</time>
      </trkpt>
      <trkpt lat="45.85777" lon="3.29775">
        <ele>312.8</ele>
        <time>2024-08-11T11:36:27Z</time>
      </trkpt>
      <trkpt lat="45.8578" lon="3.29784">
        <ele>312.8</ele>
        <time>2024-08-11T11:36:28Z</time>
      </trkpt>
      <trkpt lat="45.85783" lon="3.29793">
        <ele>312.6</ele>
        <time>2024-08-11T11:36:29Z</time>
      </trkpt>
      <trkpt lat="45.85786" lon="3.29802">
        <ele>312.6</ele>
        <time>2024-08-11T11:36:30Z</time>
      </trkpt>
      <trkpt lat="45.85788" lon="3.29811">
        <ele>312.6</ele>
        <time>2024-08-11T11:36:31Z</time>
      </trkpt>
      <trkpt lat="45.85791" lon="3.2982">
        <ele>312.6</ele>
        <time>2024-08-11T11:36:32Z</time>
      </trkpt>
      <trkpt lat="45.85794" lon="3.29828">
        <ele>312.6</ele>
        <time>2024-08-11T11:36:33Z</time>
      </trkpt>
      <trkpt lat="45.85796" lon="3.29836">
        <ele>312.6</ele>
        <time>2024-08-11T11:36:34Z</time>
      </trkpt>
      <trkpt lat="45.85799" lon="3.29845">
        <ele>312.6</ele>
        <time>2024-08-11T11:36:35Z</time>
      </trkpt>
      <trkpt lat="45.85802" lon="3.29853">
        <ele>312.4</ele>
        <time>2024-08-11T11:36:36Z</time>
      </trkpt>
      <trkpt lat="45.85804" lon="3.29861">
        <ele>312.4</ele>
        <time>2024-08-11T11:36:37Z</time>
      </trkpt>
      <trkpt lat="45.85806" lon="3.29868">
        <ele>312.4</ele>
        <time>2024-08-11T11:36:38Z</time>
      </trkpt>
      <trkpt lat="45.85809" lon="3.29876">
        <ele>312.4</ele>
        <time>2024-08-11T11:36:39Z</time>
      </trkpt>
      <trkpt lat="45.85811" lon="3.29883">
        <ele>312.4</ele>
        <time>2024-08-11T11:36:40Z</time>
      </trkpt>
      <trkpt lat="45.85813" lon="3.2989">
        <ele>312.4</ele>
        <time>2024-08-11T11:36:41Z</time>
      </trkpt>
      <trkpt lat="45.85815" lon="3.29897">
        <ele>312.4</ele>
        <time>2024-08-11T11:36:42Z</time>
      </trkpt>
      <trkpt lat="45.85817" lon="3.29904">
        <ele>312.4</ele>
        <time>2024-08-11T11:36:43Z</time>
      </trkpt>
      <trkpt lat="45.8582" lon="3.2991">
        <ele>312.4</ele>
        <time>2024-08-11T11:36:44Z</time>
      </trkpt>
      <trkpt lat="45.85822" lon="3.29917">
        <ele>312.4</ele>
        <time>2024-08-11T11:36:45Z</time>
      </trkpt>
      <trkpt lat="45.85825" lon="3.29923">
        <ele>312.4</ele>
        <time>2024-08-11T11:36:46Z</time>
      </trkpt>
      <trkpt lat="45.85828" lon="3.29929">
        <ele>312.4</ele>
        <time>2024-08-11T11:36:47Z</time>
      </trkpt>
      <trkpt lat="45.85831" lon="3.29935">
        <ele>312.4</ele>
        <time>2024-08-11T11:36:48Z</time>
      </trkpt>
      <trkpt lat="45.85834" lon="3.29941">
        <ele>312.6</ele>
        <time>2024-08-11T11:36:49Z</time>
      </trkpt>
      <trkpt lat="45.85837" lon="3.29947">
        <ele>312.4</ele>
        <time>2024-08-11T11:36:50Z</time>
      </trkpt>
      <trkpt lat="45.85841" lon="3.29952">
        <ele>312.4</ele>
        <time>2024-08-11T11:36:51Z</time>
      </trkpt>
      <trkpt lat="45.85846" lon="3.29957">
        <ele>312.6</ele>
        <time>2024-08-11T11:36:52Z</time>
      </trkpt>
      <trkpt lat="45.85851" lon="3.29962">
        <ele>312.4</ele>
        <time>2024-08-11T11:36:53Z</time>
      </trkpt>
      <trkpt lat="45.85856" lon="3.29967">
        <ele>312.4</ele>
        <time>2024-08-11T11:36:54Z</time>
      </trkpt>
      <trkpt lat="45.85861" lon="3.29972">
        <ele>312.4</ele>
        <time>2024-08-11T11:36:55Z</time>
      </trkpt>
      <trkpt lat="45.85866" lon="3.29978">
        <ele>312.2</ele>
        <time>2024-08-11T11:36:56Z</time>
      </trkpt>
      <trkpt lat="45.85872" lon="3.29983">
        <ele>312.4</ele>
        <time>2024-08-11T11:36:57Z</time>
      </trkpt>
      <trkpt lat="45.85877" lon="3.29988">
        <ele>312.4</ele>
        <time>2024-08-11T11:36:58Z</time>
      </trkpt>
      <trkpt lat="45.85883" lon="3.29993">
        <ele>312.4</ele>
        <time>2024-08-11T11:36:59Z</time>
      </trkpt>
      <trkpt lat="45.85888" lon="3.29998">
        <ele>312.4</ele>
        <time>2024-08-11T11:37:00Z</time>
      </trkpt>
      <trkpt lat="45.85894" lon="3.30002">
        <ele>312.4</ele>
        <time>2024-08-11T11:37:01Z</time>
      </trkpt>
      <trkpt lat="45.859" lon="3.30006">
        <ele>312.4</ele>
        <time>2024-08-11T11:37:02Z</time>
      </trkpt>
      <trkpt lat="45.85905" lon="3.30011">
        <ele>312.2</ele>
        <time>2024-08-11T11:37:03Z</time>
      </trkpt>
      <trkpt lat="45.85911" lon="3.30015">
        <ele>312.4</ele>
        <time>2024-08-11T11:37:04Z</time>
      </trkpt>
      <trkpt lat="45.85916" lon="3.30019">
        <ele>312.4</ele>
        <time>2024-08-11T11:37:05Z</time>
      </trkpt>
      <trkpt lat="45.85922" lon="3.30024">
        <ele>312.4</ele>
        <time>2024-08-11T11:37:06Z</time>
      </trkpt>
      <trkpt lat="45.85927" lon="3.30028">
        <ele>312.4</ele>
        <time>2024-08-11T11:37:07Z</time>
      </trkpt>
      <trkpt lat="45.85932" lon="3.30032">
        <ele>312.4</ele>
        <time>2024-08-11T11:37:08Z</time>
      </trkpt>
      <trkpt lat="45.85938" lon="3.30036">
        <ele>312.4</ele>
        <time>2024-08-11T11:37:09Z</time>
      </trkpt>
      <trkpt lat="45.85944" lon="3.30041">
        <ele>312.4</ele>
        <time>2024-08-11T11:37:10Z</time>
      </trkpt>
      <trkpt lat="45.85949" lon="3.30045">
        <ele>312.4</ele>
        <time>2024-08-11T11:37:11Z</time>
      </trkpt>
      <trkpt lat="45.85954" lon="3.3005">
        <ele>312.2</ele>
        <time>2024-08-11T11:37:12Z</time>
      </trkpt>
      <trkpt lat="45.85959" lon="3.30055">
        <ele>312.2</ele>
        <time>2024-08-11T11:37:13Z</time>
      </trkpt>
      <trkpt lat="45.85964" lon="3.30059">
        <ele>312.2</ele>
        <time>2024-08-11T11:37:14Z</time>
      </trkpt>
      <trkpt lat="45.8597" lon="3.30064">
        <ele>312.2</ele>
        <time>2024-08-11T11:37:15Z</time>
      </trkpt>
      <trkpt lat="45.85975" lon="3.3007">
        <ele>312.2</ele>
        <time>2024-08-11T11:37:16Z</time>
      </trkpt>
      <trkpt lat="45.85981" lon="3.30074">
        <ele>312.2</ele>
        <time>2024-08-11T11:37:17Z</time>
      </trkpt>
      <trkpt lat="45.85987" lon="3.30079">
        <ele>312.2</ele>
        <time>2024-08-11T11:37:18Z</time>
      </trkpt>
      <trkpt lat="45.85992" lon="3.30083">
        <ele>312.2</ele>
        <time>2024-08-11T11:37:19Z</time>
      </trkpt>
      <trkpt lat="45.85998" lon="3.30086">
        <ele>312.2</ele>
        <time>2024-08-11T11:37:20Z</time>
      </trkpt>
      <trkpt lat="45.86004" lon="3.30089">
        <ele>312.2</ele>
        <time>2024-08-11T11:37:21Z</time>
      </trkpt>
      <trkpt lat="45.8601" lon="3.3009">
        <ele>312.2</ele>
        <time>2024-08-11T11:37:22Z</time>
      </trkpt>
      <trkpt lat="45.86016" lon="3.3009">
        <ele>312.2</ele>
        <time>2024-08-11T11:37:23Z</time>
      </trkpt>
      <trkpt lat="45.86023" lon="3.30091">
        <ele>312.2</ele>
        <time>2024-08-11T11:37:24Z</time>
      </trkpt>
      <trkpt lat="45.86029" lon="3.30092">
        <ele>312.2</ele>
        <time>2024-08-11T11:37:25Z</time>
      </trkpt>
      <trkpt lat="45.86035" lon="3.30093">
        <ele>312.2</ele>
        <time>2024-08-11T11:37:26Z</time>
      </trkpt>
      <trkpt lat="45.86041" lon="3.30094">
        <ele>312.2</ele>
        <time>2024-08-11T11:37:27Z</time>
      </trkpt>
      <trkpt lat="45.86048" lon="3.30096">
        <ele>312.2</ele>
        <time>2024-08-11T11:37:28Z</time>
      </trkpt>
      <trkpt lat="45.86053" lon="3.30097">
        <ele>312.2</ele>
        <time>2024-08-11T11:37:29Z</time>
      </trkpt>
      <trkpt lat="45.86059" lon="3.30098">
        <ele>312</ele>
        <time>2024-08-11T11:37:30Z</time>
      </trkpt>
      <trkpt lat="45.86064" lon="3.30099">
        <ele>312.2</ele>
        <time>2024-08-11T11:37:31Z</time>
      </trkpt>
      <trkpt lat="45.8607" lon="3.301">
        <ele>312.2</ele>
        <time>2024-08-11T11:37:32Z</time>
      </trkpt>
      <trkpt lat="45.86075" lon="3.30101">
        <ele>312.2</ele>
        <time>2024-08-11T11:37:33Z</time>
      </trkpt>
      <trkpt lat="45.86081" lon="3.30102">
        <ele>312.4</ele>
        <time>2024-08-11T11:37:34Z</time>
      </trkpt>
      <trkpt lat="45.86085" lon="3.30103">
        <ele>312.4</ele>
        <time>2024-08-11T11:37:35Z</time>
      </trkpt>
      <trkpt lat="45.8609" lon="3.30104">
        <ele>312.4</ele>
        <time>2024-08-11T11:37:36Z</time>
      </trkpt>
      <trkpt lat="45.86096" lon="3.30105">
        <ele>312.4</ele>
        <time>2024-08-11T11:37:37Z</time>
      </trkpt>
      <trkpt lat="45.86101" lon="3.30106">
        <ele>312.4</ele>
        <time>2024-08-11T11:37:38Z</time>
      </trkpt>
      <trkpt lat="45.86105" lon="3.30107">
        <ele>312.4</ele>
        <time>2024-08-11T11:37:39Z</time>
      </trkpt>
      <trkpt lat="45.8611" lon="3.30108">
        <ele>312.4</ele>
        <time>2024-08-11T11:37:40Z</time>
      </trkpt>
      <trkpt lat="45.86115" lon="3.30109">
        <ele>312.4</ele>
        <time>2024-08-11T11:37:41Z</time>
      </trkpt>
      <trkpt lat="45.86119" lon="3.3011">
        <ele>312.4</ele>
        <time>2024-08-11T11:37:42Z</time>
      </trkpt>
      <trkpt lat="45.86124" lon="3.30111">
        <ele>312.4</ele>
        <time>2024-08-11T11:37:43Z</time>
      </trkpt>
      <trkpt lat="45.86129" lon="3.30111">
        <ele>312.4</ele>
        <time>2024-08-11T11:37:44Z</time>
      </trkpt>
      <trkpt lat="45.86133" lon="3.30112">
        <ele>312.4</ele>
        <time>2024-08-11T11:37:45Z</time>
      </trkpt>
      <trkpt lat="45.86138" lon="3.30113">
        <ele>312.4</ele>
        <time>2024-08-11T11:37:46Z</time>
      </trkpt>
      <trkpt lat="45.86143" lon="3.30114">
        <ele>312.4</ele>
        <time>2024-08-11T11:37:47Z</time>
      </trkpt>
      <trkpt lat="45.86148" lon="3.30115">
        <ele>312.4</ele>
        <time>2024-08-11T11:37:48Z</time>
      </trkpt>
      <trkpt lat="45.86152" lon="3.30116">
        <ele>312.4</ele>
        <time>2024-08-11T11:37:49Z</time>
      </trkpt>
      <trkpt lat="45.86157" lon="3.30117">
        <ele>312.4</ele>
        <time>2024-08-11T11:37:50Z</time>
      </trkpt>
      <trkpt lat="45.86162" lon="3.30118">
        <ele>312.4</ele>
        <time>2024-08-11T11:37:51Z</time>
      </trkpt>
      <trkpt lat="45.86167" lon="3.30119">
        <ele>312.6</ele>
        <time>2024-08-11T11:37:52Z</time>
      </trkpt>
      <trkpt lat="45.86172" lon="3.3012">
        <ele>312.4</ele>
        <time>2024-08-11T11:37:53Z</time>
      </trkpt>
      <trkpt lat="45.86177" lon="3.30121">
        <ele>312.4</ele>
        <time>2024-08-11T11:37:54Z</time>
      </trkpt>
      <trkpt lat="45.86182" lon="3.30123">
        <ele>312.4</ele>
        <time>2024-08-11T11:37:55Z</time>
      </trkpt>
      <trkpt lat="45.86186" lon="3.30125">
        <ele>312.6</ele>
        <time>2024-08-11T11:37:56Z</time>
      </trkpt>
      <trkpt lat="45.86191" lon="3.30126">
        <ele>312.4</ele>
        <time>2024-08-11T11:37:57Z</time>
      </trkpt>
      <trkpt lat="45.86196" lon="3.30129">
        <ele>312.6</ele>
        <time>2024-08-11T11:37:58Z</time>
      </trkpt>
      <trkpt lat="45.862" lon="3.30131">
        <ele>312.6</ele>
        <time>2024-08-11T11:37:59Z</time>
      </trkpt>
      <trkpt lat="45.86205" lon="3.30134">
        <ele>312.6</ele>
        <time>2024-08-11T11:38:00Z</time>
      </trkpt>
      <trkpt lat="45.8621" lon="3.30136">
        <ele>312.6</ele>
        <time>2024-08-11T11:38:01Z</time>
      </trkpt>
      <trkpt lat="45.86214" lon="3.30139">
        <ele>312.6</ele>
        <time>2024-08-11T11:38:02Z</time>
      </trkpt>
      <trkpt lat="45.86219" lon="3.30141">
        <ele>312.8</ele>
        <time>2024-08-11T11:38:03Z</time>
      </trkpt>
      <trkpt lat="45.86223" lon="3.30144">
        <ele>312.8</ele>
        <time>2024-08-11T11:38:04Z</time>
      </trkpt>
      <trkpt lat="45.86228" lon="3.30147">
        <ele>312.8</ele>
        <time>2024-08-11T11:38:05Z</time>
      </trkpt>
      <trkpt lat="45.86233" lon="3.30149">
        <ele>312.8</ele>
        <time>2024-08-11T11:38:06Z</time>
      </trkpt>
      <trkpt lat="45.86239" lon="3.30152">
        <ele>312.8</ele>
        <time>2024-08-11T11:38:07Z</time>
      </trkpt>
      <trkpt lat="45.86244" lon="3.30155">
        <ele>312.8</ele>
        <time>2024-08-11T11:38:08Z</time>
      </trkpt>
      <trkpt lat="45.86249" lon="3.30158">
        <ele>312.8</ele>
        <time>2024-08-11T11:38:09Z</time>
      </trkpt>
      <trkpt lat="45.86254" lon="3.30161">
        <ele>312.8</ele>
        <time>2024-08-11T11:38:10Z</time>
      </trkpt>
      <trkpt lat="45.8626" lon="3.30164">
        <ele>313</ele>
        <time>2024-08-11T11:38:11Z</time>
      </trkpt>
      <trkpt lat="45.86265" lon="3.30167">
        <ele>313</ele>
        <time>2024-08-11T11:38:12Z</time>
      </trkpt>
      <trkpt lat="45.86271" lon="3.3017">
        <ele>313.2</ele>
        <time>2024-08-11T11:38:13Z</time>
      </trkpt>
      <trkpt lat="45.86276" lon="3.30172">
        <ele>313.4</ele>
        <time>2024-08-11T11:38:14Z</time>
      </trkpt>
      <trkpt lat="45.86282" lon="3.30175">
        <ele>313.6</ele>
        <time>2024-08-11T11:38:15Z</time>
      </trkpt>
      <trkpt lat="45.86287" lon="3.30178">
        <ele>313.6</ele>
        <time>2024-08-11T11:38:16Z</time>
      </trkpt>
      <trkpt lat="45.86293" lon="3.30181">
        <ele>313.4</ele>
        <time>2024-08-11T11:38:17Z</time>
      </trkpt>
      <trkpt lat="45.86298" lon="3.30184">
        <ele>313.4</ele>
        <time>2024-08-11T11:38:18Z</time>
      </trkpt>
      <trkpt lat="45.86304" lon="3.30187">
        <ele>313.2</ele>
        <time>2024-08-11T11:38:19Z</time>
      </trkpt>
      <trkpt lat="45.86309" lon="3.30189">
        <ele>313.2</ele>
        <time>2024-08-11T11:38:20Z</time>
      </trkpt>
      <trkpt lat="45.86315" lon="3.30191">
        <ele>313</ele>
        <time>2024-08-11T11:38:21Z</time>
      </trkpt>
      <trkpt lat="45.8632" lon="3.30193">
        <ele>313</ele>
        <time>2024-08-11T11:38:22Z</time>
      </trkpt>
      <trkpt lat="45.86326" lon="3.30195">
        <ele>313.4</ele>
        <time>2024-08-11T11:38:23Z</time>
      </trkpt>
      <trkpt lat="45.86332" lon="3.30197">
        <ele>313.2</ele>
        <time>2024-08-11T11:38:24Z</time>
      </trkpt>
      <trkpt lat="45.86337" lon="3.302">
        <ele>313</ele>
        <time>2024-08-11T11:38:25Z</time>
      </trkpt>
      <trkpt lat="45.86343" lon="3.30202">
        <ele>312.8</ele>
        <time>2024-08-11T11:38:26Z</time>
      </trkpt>
      <trkpt lat="45.86348" lon="3.30204">
        <ele>312.6</ele>
        <time>2024-08-11T11:38:27Z</time>
      </trkpt>
      <trkpt lat="45.86354" lon="3.30206">
        <ele>312.4</ele>
        <time>2024-08-11T11:38:28Z</time>
      </trkpt>
      <trkpt lat="45.8636" lon="3.30209">
        <ele>312.8</ele>
        <time>2024-08-11T11:38:29Z</time>
      </trkpt>
      <trkpt lat="45.86365" lon="3.30212">
        <ele>312.8</ele>
        <time>2024-08-11T11:38:30Z</time>
      </trkpt>
      <trkpt lat="45.8637" lon="3.30216">
        <ele>312.8</ele>
        <time>2024-08-11T11:38:31Z</time>
      </trkpt>
      <trkpt lat="45.86375" lon="3.30219">
        <ele>312.6</ele>
        <time>2024-08-11T11:38:32Z</time>
      </trkpt>
      <trkpt lat="45.86381" lon="3.30223">
        <ele>312.6</ele>
        <time>2024-08-11T11:38:33Z</time>
      </trkpt>
      <trkpt lat="45.86386" lon="3.30227">
        <ele>312.4</ele>
        <time>2024-08-11T11:38:34Z</time>
      </trkpt>
      <trkpt lat="45.86392" lon="3.30231">
        <ele>312.8</ele>
        <time>2024-08-11T11:38:35Z</time>
      </trkpt>
      <trkpt lat="45.86398" lon="3.30233">
        <ele>313.2</ele>
        <time>2024-08-11T11:38:36Z</time>
      </trkpt>
      <trkpt lat="45.86404" lon="3.30235">
        <ele>313.2</ele>
        <time>2024-08-11T11:38:37Z</time>
      </trkpt>
      <trkpt lat="45.86409" lon="3.30237">
        <ele>313.2</ele>
        <time>2024-08-11T11:38:38Z</time>
      </trkpt>
      <trkpt lat="45.86415" lon="3.3024">
        <ele>313.2</ele>
        <time>2024-08-11T11:38:39Z</time>
      </trkpt>
      <trkpt lat="45.86421" lon="3.30242">
        <ele>313.6</ele>
        <time>2024-08-11T11:38:40Z</time>
      </trkpt>
      <trkpt lat="45.86426" lon="3.30244">
        <ele>313.2</ele>
        <time>2024-08-11T11:38:41Z</time>
      </trkpt>
      <trkpt lat="45.86432" lon="3.30246">
        <ele>313.2</ele>
        <time>2024-08-11T11:38:42Z</time>
      </trkpt>
      <trkpt lat="45.86438" lon="3.30248">
        <ele>313.2</ele>
        <time>2024-08-11T11:38:43Z</time>
      </trkpt>
      <trkpt lat="45.86445" lon="3.3025">
        <ele>313.4</ele>
        <time>2024-08-11T11:38:44Z</time>
      </trkpt>
      <trkpt lat="45.86451" lon="3.30252">
        <ele>313</ele>
        <time>2024-08-11T11:38:45Z</time>
      </trkpt>
      <trkpt lat="45.86457" lon="3.30253">
        <ele>312.4</ele>
        <time>2024-08-11T11:38:46Z</time>
      </trkpt>
      <trkpt lat="45.86464" lon="3.30255">
        <ele>312.8</ele>
        <time>2024-08-11T11:38:47Z</time>
      </trkpt>
      <trkpt lat="45.8647" lon="3.30257">
        <ele>312.8</ele>
        <time>2024-08-11T11:38:48Z</time>
      </trkpt>
      <trkpt lat="45.86477" lon="3.30259">
        <ele>312.6</ele>
        <time>2024-08-11T11:38:49Z</time>
      </trkpt>
      <trkpt lat="45.86483" lon="3.3026">
        <ele>312.6</ele>
        <time>2024-08-11T11:38:50Z</time>
      </trkpt>
      <trkpt lat="45.8649" lon="3.30261">
        <ele>312.6</ele>
        <time>2024-08-11T11:38:51Z</time>
      </trkpt>
      <trkpt lat="45.86497" lon="3.30262">
        <ele>312.6</ele>
        <time>2024-08-11T11:38:52Z</time>
      </trkpt>
      <trkpt lat="45.86504" lon="3.30263">
        <ele>312.6</ele>
        <time>2024-08-11T11:38:53Z</time>
      </trkpt>
      <trkpt lat="45.86511" lon="3.30264">
        <ele>312.6</ele>
        <time>2024-08-11T11:38:54Z</time>
      </trkpt>
      <trkpt lat="45.86518" lon="3.30266">
        <ele>312.6</ele>
        <time>2024-08-11T11:38:55Z</time>
      </trkpt>
      <trkpt lat="45.86524" lon="3.30267">
        <ele>313</ele>
        <time>2024-08-11T11:38:56Z</time>
      </trkpt>
      <trkpt lat="45.86531" lon="3.30268">
        <ele>313</ele>
        <time>2024-08-11T11:38:57Z</time>
      </trkpt>
      <trkpt lat="45.86539" lon="3.30269">
        <ele>313.2</ele>
        <time>2024-08-11T11:38:58Z</time>
      </trkpt>
      <trkpt lat="45.86546" lon="3.3027">
        <ele>313.4</ele>
        <time>2024-08-11T11:38:59Z</time>
      </trkpt>
      <trkpt lat="45.86553" lon="3.3027">
        <ele>313.4</ele>
        <time>2024-08-11T11:39:00Z</time>
      </trkpt>
      <trkpt lat="45.8656" lon="3.30269">
        <ele>313.6</ele>
        <time>2024-08-11T11:39:01Z</time>
      </trkpt>
      <trkpt lat="45.86567" lon="3.30269">
        <ele>313.6</ele>
        <time>2024-08-11T11:39:02Z</time>
      </trkpt>
      <trkpt lat="45.86574" lon="3.30268">
        <ele>313.8</ele>
        <time>2024-08-11T11:39:03Z</time>
      </trkpt>
      <trkpt lat="45.8658" lon="3.30268">
        <ele>313.8</ele>
        <time>2024-08-11T11:39:04Z</time>
      </trkpt>
      <trkpt lat="45.86587" lon="3.30267">
        <ele>313.8</ele>
        <time>2024-08-11T11:39:05Z</time>
      </trkpt>
      <trkpt lat="45.86594" lon="3.30266">
        <ele>313.8</ele>
        <time>2024-08-11T11:39:06Z</time>
      </trkpt>
      <trkpt lat="45.866" lon="3.30266">
        <ele>314</ele>
        <time>2024-08-11T11:39:07Z</time>
      </trkpt>
      <trkpt lat="45.86607" lon="3.30265">
        <ele>314</ele>
        <time>2024-08-11T11:39:08Z</time>
      </trkpt>
      <trkpt lat="45.86613" lon="3.30265">
        <ele>314</ele>
        <time>2024-08-11T11:39:09Z</time>
      </trkpt>
      <trkpt lat="45.8662" lon="3.30264">
        <ele>314.2</ele>
        <time>2024-08-11T11:39:10Z</time>
      </trkpt>
      <trkpt lat="45.86626" lon="3.30264">
        <ele>314.2</ele>
        <time>2024-08-11T11:39:11Z</time>
      </trkpt>
      <trkpt lat="45.86633" lon="3.30265">
        <ele>314.2</ele>
        <time>2024-08-11T11:39:12Z</time>
      </trkpt>
      <trkpt lat="45.86639" lon="3.30265">
        <ele>314.4</ele>
        <time>2024-08-11T11:39:13Z</time>
      </trkpt>
      <trkpt lat="45.86645" lon="3.30266">
        <ele>314.4</ele>
        <time>2024-08-11T11:39:14Z</time>
      </trkpt>
      <trkpt lat="45.86651" lon="3.30266">
        <ele>314.4</ele>
        <time>2024-08-11T11:39:15Z</time>
      </trkpt>
      <trkpt lat="45.86657" lon="3.30267">
        <ele>314.4</ele>
        <time>2024-08-11T11:39:16Z</time>
      </trkpt>
      <trkpt lat="45.86663" lon="3.30267">
        <ele>314.4</ele>
        <time>2024-08-11T11:39:17Z</time>
      </trkpt>
      <trkpt lat="45.86669" lon="3.30268">
        <ele>314.4</ele>
        <time>2024-08-11T11:39:18Z</time>
      </trkpt>
      <trkpt lat="45.86675" lon="3.30268">
        <ele>314.4</ele>
        <time>2024-08-11T11:39:19Z</time>
      </trkpt>
      <trkpt lat="45.86682" lon="3.30269">
        <ele>314.6</ele>
        <time>2024-08-11T11:39:20Z</time>
      </trkpt>
      <trkpt lat="45.86688" lon="3.3027">
        <ele>314.6</ele>
        <time>2024-08-11T11:39:21Z</time>
      </trkpt>
      <trkpt lat="45.86695" lon="3.3027">
        <ele>314.6</ele>
        <time>2024-08-11T11:39:22Z</time>
      </trkpt>
      <trkpt lat="45.86701" lon="3.30271">
        <ele>314.6</ele>
        <time>2024-08-11T11:39:23Z</time>
      </trkpt>
      <trkpt lat="45.86707" lon="3.30271">
        <ele>314.6</ele>
        <time>2024-08-11T11:39:24Z</time>
      </trkpt>
      <trkpt lat="45.86714" lon="3.30272">
        <ele>314.6</ele>
        <time>2024-08-11T11:39:25Z</time>
      </trkpt>
      <trkpt lat="45.86721" lon="3.30272">
        <ele>314.8</ele>
        <time>2024-08-11T11:39:26Z</time>
      </trkpt>
      <trkpt lat="45.86727" lon="3.30273">
        <ele>314.8</ele>
        <time>2024-08-11T11:39:27Z</time>
      </trkpt>
      <trkpt lat="45.86733" lon="3.30274">
        <ele>314.8</ele>
        <time>2024-08-11T11:39:28Z</time>
      </trkpt>
      <trkpt lat="45.86739" lon="3.30274">
        <ele>315</ele>
        <time>2024-08-11T11:39:29Z</time>
      </trkpt>
      <trkpt lat="45.86745" lon="3.30275">
        <ele>315</ele>
        <time>2024-08-11T11:39:30Z</time>
      </trkpt>
      <trkpt lat="45.86751" lon="3.30275">
        <ele>315</ele>
        <time>2024-08-11T11:39:31Z</time>
      </trkpt>
      <trkpt lat="45.86757" lon="3.30276">
        <ele>315</ele>
        <time>2024-08-11T11:39:32Z</time>
      </trkpt>
      <trkpt lat="45.86763" lon="3.30276">
        <ele>315.2</ele>
        <time>2024-08-11T11:39:33Z</time>
      </trkpt>
      <trkpt lat="45.86769" lon="3.30277">
        <ele>315.2</ele>
        <time>2024-08-11T11:39:34Z</time>
      </trkpt>
      <trkpt lat="45.86775" lon="3.30277">
        <ele>315.2</ele>
        <time>2024-08-11T11:39:35Z</time>
      </trkpt>
      <trkpt lat="45.86781" lon="3.30277">
        <ele>315.2</ele>
        <time>2024-08-11T11:39:36Z</time>
      </trkpt>
      <trkpt lat="45.86788" lon="3.30278">
        <ele>315.2</ele>
        <time>2024-08-11T11:39:37Z</time>
      </trkpt>
      <trkpt lat="45.86794" lon="3.30278">
        <ele>315.2</ele>
        <time>2024-08-11T11:39:38Z</time>
      </trkpt>
      <trkpt lat="45.86799" lon="3.30278">
        <ele>315.4</ele>
        <time>2024-08-11T11:39:39Z</time>
      </trkpt>
      <trkpt lat="45.86805" lon="3.30278">
        <ele>315.4</ele>
        <time>2024-08-11T11:39:40Z</time>
      </trkpt>
      <trkpt lat="45.86811" lon="3.30278">
        <ele>315.4</ele>
        <time>2024-08-11T11:39:41Z</time>
      </trkpt>
      <trkpt lat="45.86817" lon="3.30277">
        <ele>315.4</ele>
        <time>2024-08-11T11:39:42Z</time>
      </trkpt>
      <trkpt lat="45.86823" lon="3.30276">
        <ele>315.4</ele>
        <time>2024-08-11T11:39:43Z</time>
      </trkpt>
      <trkpt lat="45.86829" lon="3.30275">
        <ele>315.4</ele>
        <time>2024-08-11T11:39:44Z</time>
      </trkpt>
      <trkpt lat="45.86835" lon="3.30274">
        <ele>315.6</ele>
        <time>2024-08-11T11:39:45Z</time>
      </trkpt>
      <trkpt lat="45.86841" lon="3.30274">
        <ele>315.6</ele>
        <time>2024-08-11T11:39:46Z</time>
      </trkpt>
      <trkpt lat="45.86847" lon="3.30273">
        <ele>315.6</ele>
        <time>2024-08-11T11:39:47Z</time>
      </trkpt>
      <trkpt lat="45.86853" lon="3.30272">
        <ele>315.6</ele>
        <time>2024-08-11T11:39:48Z</time>
      </trkpt>
      <trkpt lat="45.86859" lon="3.30271">
        <ele>315.6</ele>
        <time>2024-08-11T11:39:49Z</time>
      </trkpt>
      <trkpt lat="45.86864" lon="3.30271">
        <ele>315.6</ele>
        <time>2024-08-11T11:39:50Z</time>
      </trkpt>
      <trkpt lat="45.8687" lon="3.3027">
        <ele>315.8</ele>
        <time>2024-08-11T11:39:51Z</time>
      </trkpt>
      <trkpt lat="45.86876" lon="3.30269">
        <ele>315.8</ele>
        <time>2024-08-11T11:39:52Z</time>
      </trkpt>
      <trkpt lat="45.86882" lon="3.30268">
        <ele>315.8</ele>
        <time>2024-08-11T11:39:53Z</time>
      </trkpt>
      <trkpt lat="45.86888" lon="3.30268">
        <ele>315.8</ele>
        <time>2024-08-11T11:39:54Z</time>
      </trkpt>
      <trkpt lat="45.86894" lon="3.30267">
        <ele>315.8</ele>
        <time>2024-08-11T11:39:55Z</time>
      </trkpt>
      <trkpt lat="45.869" lon="3.30266">
        <ele>315.8</ele>
        <time>2024-08-11T11:39:56Z</time>
      </trkpt>
      <trkpt lat="45.86906" lon="3.30265">
        <ele>315.8</ele>
        <time>2024-08-11T11:39:57Z</time>
      </trkpt>
      <trkpt lat="45.86912" lon="3.30264">
        <ele>315.8</ele>
        <time>2024-08-11T11:39:58Z</time>
      </trkpt>
      <trkpt lat="45.86917" lon="3.30264">
        <ele>315.8</ele>
        <time>2024-08-11T11:39:59Z</time>
      </trkpt>
      <trkpt lat="45.86923" lon="3.30263">
        <ele>315.8</ele>
        <time>2024-08-11T11:40:00Z</time>
      </trkpt>
      <trkpt lat="45.86929" lon="3.30262">
        <ele>316</ele>
        <time>2024-08-11T11:40:01Z</time>
      </trkpt>
      <trkpt lat="45.86936" lon="3.30261">
        <ele>316</ele>
        <time>2024-08-11T11:40:02Z</time>
      </trkpt>
      <trkpt lat="45.86942" lon="3.3026">
        <ele>316</ele>
        <time>2024-08-11T11:40:03Z</time>
      </trkpt>
      <trkpt lat="45.86948" lon="3.3026">
        <ele>315.8</ele>
        <time>2024-08-11T11:40:04Z</time>
      </trkpt>
      <trkpt lat="45.86955" lon="3.30259">
        <ele>316</ele>
        <time>2024-08-11T11:40:05Z</time>
      </trkpt>
      <trkpt lat="45.86961" lon="3.30258">
        <ele>316</ele>
        <time>2024-08-11T11:40:06Z</time>
      </trkpt>
      <trkpt lat="45.86968" lon="3.30257">
        <ele>316</ele>
        <time>2024-08-11T11:40:07Z</time>
      </trkpt>
      <trkpt lat="45.86975" lon="3.30256">
        <ele>316</ele>
        <time>2024-08-11T11:40:08Z</time>
      </trkpt>
      <trkpt lat="45.86982" lon="3.30255">
        <ele>316</ele>
        <time>2024-08-11T11:40:09Z</time>
      </trkpt>
      <trkpt lat="45.86988" lon="3.30254">
        <ele>316</ele>
        <time>2024-08-11T11:40:10Z</time>
      </trkpt>
      <trkpt lat="45.86995" lon="3.30254">
        <ele>316</ele>
        <time>2024-08-11T11:40:11Z</time>
      </trkpt>
      <trkpt lat="45.87002" lon="3.30254">
        <ele>316</ele>
        <time>2024-08-11T11:40:12Z</time>
      </trkpt>
      <trkpt lat="45.87009" lon="3.30256">
        <ele>316</ele>
        <time>2024-08-11T11:40:13Z</time>
      </trkpt>
      <trkpt lat="45.87015" lon="3.30258">
        <ele>316.2</ele>
        <time>2024-08-11T11:40:14Z</time>
      </trkpt>
      <trkpt lat="45.87022" lon="3.30261">
        <ele>316.2</ele>
        <time>2024-08-11T11:40:15Z</time>
      </trkpt>
      <trkpt lat="45.87028" lon="3.30263">
        <ele>316.2</ele>
        <time>2024-08-11T11:40:16Z</time>
      </trkpt>
      <trkpt lat="45.87035" lon="3.30265">
        <ele>316.2</ele>
        <time>2024-08-11T11:40:17Z</time>
      </trkpt>
      <trkpt lat="45.87041" lon="3.30268">
        <ele>316.2</ele>
        <time>2024-08-11T11:40:18Z</time>
      </trkpt>
      <trkpt lat="45.87048" lon="3.30271">
        <ele>316.2</ele>
        <time>2024-08-11T11:40:19Z</time>
      </trkpt>
      <trkpt lat="45.87053" lon="3.30276">
        <ele>316.4</ele>
        <time>2024-08-11T11:40:20Z</time>
      </trkpt>
      <trkpt lat="45.87058" lon="3.3028">
        <ele>316.4</ele>
        <time>2024-08-11T11:40:21Z</time>
      </trkpt>
      <trkpt lat="45.87064" lon="3.30285">
        <ele>316.4</ele>
        <time>2024-08-11T11:40:22Z</time>
      </trkpt>
      <trkpt lat="45.87069" lon="3.3029">
        <ele>316.4</ele>
        <time>2024-08-11T11:40:23Z</time>
      </trkpt>
      <trkpt lat="45.87073" lon="3.30294">
        <ele>316.2</ele>
        <time>2024-08-11T11:40:24Z</time>
      </trkpt>
      <trkpt lat="45.87078" lon="3.30299">
        <ele>316.4</ele>
        <time>2024-08-11T11:40:25Z</time>
      </trkpt>
      <trkpt lat="45.87083" lon="3.30303">
        <ele>316.4</ele>
        <time>2024-08-11T11:40:26Z</time>
      </trkpt>
      <trkpt lat="45.87087" lon="3.30308">
        <ele>316.4</ele>
        <time>2024-08-11T11:40:27Z</time>
      </trkpt>
      <trkpt lat="45.87092" lon="3.30312">
        <ele>316.4</ele>
        <time>2024-08-11T11:40:28Z</time>
      </trkpt>
      <trkpt lat="45.87097" lon="3.30317">
        <ele>316.2</ele>
        <time>2024-08-11T11:40:29Z</time>
      </trkpt>
      <trkpt lat="45.87102" lon="3.30322">
        <ele>316.2</ele>
        <time>2024-08-11T11:40:30Z</time>
      </trkpt>
      <trkpt lat="45.87107" lon="3.30326">
        <ele>316.4</ele>
        <time>2024-08-11T11:40:31Z</time>
      </trkpt>
      <trkpt lat="45.87112" lon="3.30331">
        <ele>316.2</ele>
        <time>2024-08-11T11:40:32Z</time>
      </trkpt>
      <trkpt lat="45.87118" lon="3.30336">
        <ele>316.2</ele>
        <time>2024-08-11T11:40:33Z</time>
      </trkpt>
      <trkpt lat="45.87123" lon="3.30341">
        <ele>316.2</ele>
        <time>2024-08-11T11:40:34Z</time>
      </trkpt>
      <trkpt lat="45.87128" lon="3.30346">
        <ele>316</ele>
        <time>2024-08-11T11:40:35Z</time>
      </trkpt>
      <trkpt lat="45.87133" lon="3.3035">
        <ele>316</ele>
        <time>2024-08-11T11:40:36Z</time>
      </trkpt>
      <trkpt lat="45.87138" lon="3.30355">
        <ele>316</ele>
        <time>2024-08-11T11:40:37Z</time>
      </trkpt>
      <trkpt lat="45.87144" lon="3.3036">
        <ele>316</ele>
        <time>2024-08-11T11:40:38Z</time>
      </trkpt>
      <trkpt lat="45.87149" lon="3.30365">
        <ele>316</ele>
        <time>2024-08-11T11:40:39Z</time>
      </trkpt>
      <trkpt lat="45.87154" lon="3.3037">
        <ele>316</ele>
        <time>2024-08-11T11:40:40Z</time>
      </trkpt>
      <trkpt lat="45.87159" lon="3.30375">
        <ele>316</ele>
        <time>2024-08-11T11:40:41Z</time>
      </trkpt>
      <trkpt lat="45.87163" lon="3.30381">
        <ele>316</ele>
        <time>2024-08-11T11:40:42Z</time>
      </trkpt>
      <trkpt lat="45.87168" lon="3.30386">
        <ele>316</ele>
        <time>2024-08-11T11:40:43Z</time>
      </trkpt>
      <trkpt lat="45.87173" lon="3.30391">
        <ele>316</ele>
        <time>2024-08-11T11:40:44Z</time>
      </trkpt>
      <trkpt lat="45.87178" lon="3.30396">
        <ele>316</ele>
        <time>2024-08-11T11:40:45Z</time>
      </trkpt>
      <trkpt lat="45.87182" lon="3.30402">
        <ele>316</ele>
        <time>2024-08-11T11:40:46Z</time>
      </trkpt>
      <trkpt lat="45.87187" lon="3.30407">
        <ele>316</ele>
        <time>2024-08-11T11:40:47Z</time>
      </trkpt>
      <trkpt lat="45.87192" lon="3.30412">
        <ele>316</ele>
        <time>2024-08-11T11:40:48Z</time>
      </trkpt>
      <trkpt lat="45.87196" lon="3.30417">
        <ele>316</ele>
        <time>2024-08-11T11:40:49Z</time>
      </trkpt>
      <trkpt lat="45.87201" lon="3.30422">
        <ele>316.2</ele>
        <time>2024-08-11T11:40:50Z</time>
      </trkpt>
      <trkpt lat="45.87206" lon="3.30428">
        <ele>316</ele>
        <time>2024-08-11T11:40:51Z</time>
      </trkpt>
      <trkpt lat="45.87211" lon="3.30433">
        <ele>316.2</ele>
        <time>2024-08-11T11:40:52Z</time>
      </trkpt>
      <trkpt lat="45.87216" lon="3.30439">
        <ele>316.2</ele>
        <time>2024-08-11T11:40:53Z</time>
      </trkpt>
      <trkpt lat="45.8722" lon="3.30444">
        <ele>316.4</ele>
        <time>2024-08-11T11:40:54Z</time>
      </trkpt>
      <trkpt lat="45.87225" lon="3.30449">
        <ele>316.4</ele>
        <time>2024-08-11T11:40:55Z</time>
      </trkpt>
      <trkpt lat="45.8723" lon="3.30454">
        <ele>316.2</ele>
        <time>2024-08-11T11:40:56Z</time>
      </trkpt>
      <trkpt lat="45.87235" lon="3.3046">
        <ele>316.2</ele>
        <time>2024-08-11T11:40:57Z</time>
      </trkpt>
      <trkpt lat="45.8724" lon="3.30465">
        <ele>316.2</ele>
        <time>2024-08-11T11:40:58Z</time>
      </trkpt>
      <trkpt lat="45.87245" lon="3.30471">
        <ele>316.2</ele>
        <time>2024-08-11T11:40:59Z</time>
      </trkpt>
      <trkpt lat="45.87249" lon="3.30476">
        <ele>316.4</ele>
        <time>2024-08-11T11:41:00Z</time>
      </trkpt>
      <trkpt lat="45.87255" lon="3.30482">
        <ele>316.2</ele>
        <time>2024-08-11T11:41:01Z</time>
      </trkpt>
      <trkpt lat="45.8726" lon="3.30488">
        <ele>316.2</ele>
        <time>2024-08-11T11:41:02Z</time>
      </trkpt>
      <trkpt lat="45.87265" lon="3.30493">
        <ele>316.4</ele>
        <time>2024-08-11T11:41:03Z</time>
      </trkpt>
      <trkpt lat="45.8727" lon="3.30499">
        <ele>316.2</ele>
        <time>2024-08-11T11:41:04Z</time>
      </trkpt>
      <trkpt lat="45.87275" lon="3.30505">
        <ele>316.4</ele>
        <time>2024-08-11T11:41:05Z</time>
      </trkpt>
      <trkpt lat="45.8728" lon="3.3051">
        <ele>316.4</ele>
        <time>2024-08-11T11:41:06Z</time>
      </trkpt>
      <trkpt lat="45.87285" lon="3.30516">
        <ele>316.2</ele>
        <time>2024-08-11T11:41:07Z</time>
      </trkpt>
      <trkpt lat="45.8729" lon="3.30521">
        <ele>316.2</ele>
        <time>2024-08-11T11:41:08Z</time>
      </trkpt>
      <trkpt lat="45.87295" lon="3.30527">
        <ele>316.2</ele>
        <time>2024-08-11T11:41:09Z</time>
      </trkpt>
      <trkpt lat="45.873" lon="3.30533">
        <ele>316.2</ele>
        <time>2024-08-11T11:41:10Z</time>
      </trkpt>
      <trkpt lat="45.87305" lon="3.30538">
        <ele>316.2</ele>
        <time>2024-08-11T11:41:11Z</time>
      </trkpt>
      <trkpt lat="45.8731" lon="3.30544">
        <ele>316.2</ele>
        <time>2024-08-11T11:41:12Z</time>
      </trkpt>
      <trkpt lat="45.87315" lon="3.3055">
        <ele>316.2</ele>
        <time>2024-08-11T11:41:13Z</time>
      </trkpt>
      <trkpt lat="45.8732" lon="3.30556">
        <ele>316.4</ele>
        <time>2024-08-11T11:41:14Z</time>
      </trkpt>
      <trkpt lat="45.87324" lon="3.30562">
        <ele>316.4</ele>
        <time>2024-08-11T11:41:15Z</time>
      </trkpt>
      <trkpt lat="45.87329" lon="3.30569">
        <ele>316.4</ele>
        <time>2024-08-11T11:41:16Z</time>
      </trkpt>
      <trkpt lat="45.87333" lon="3.30575">
        <ele>316.4</ele>
        <time>2024-08-11T11:41:17Z</time>
      </trkpt>
      <trkpt lat="45.87338" lon="3.30581">
        <ele>316.4</ele>
        <time>2024-08-11T11:41:18Z</time>
      </trkpt>
      <trkpt lat="45.87343" lon="3.30588">
        <ele>316.4</ele>
        <time>2024-08-11T11:41:19Z</time>
      </trkpt>
      <trkpt lat="45.87347" lon="3.30594">
        <ele>316.4</ele>
        <time>2024-08-11T11:41:20Z</time>
      </trkpt>
      <trkpt lat="45.87352" lon="3.30601">
        <ele>316.4</ele>
        <time>2024-08-11T11:41:21Z</time>
      </trkpt>
      <trkpt lat="45.87356" lon="3.30607">
        <ele>316.4</ele>
        <time>2024-08-11T11:41:22Z</time>
      </trkpt>
      <trkpt lat="45.87361" lon="3.30613">
        <ele>316.4</ele>
        <time>2024-08-11T11:41:23Z</time>
      </trkpt>
      <trkpt lat="45.87366" lon="3.30619">
        <ele>316.4</ele>
        <time>2024-08-11T11:41:24Z</time>
      </trkpt>
      <trkpt lat="45.8737" lon="3.30625">
        <ele>316.6</ele>
        <time>2024-08-11T11:41:25Z</time>
      </trkpt>
      <trkpt lat="45.87375" lon="3.30632">
        <ele>316.6</ele>
        <time>2024-08-11T11:41:26Z</time>
      </trkpt>
      <trkpt lat="45.87379" lon="3.30638">
        <ele>316.6</ele>
        <time>2024-08-11T11:41:27Z</time>
      </trkpt>
      <trkpt lat="45.87384" lon="3.30644">
        <ele>316.6</ele>
        <time>2024-08-11T11:41:28Z</time>
      </trkpt>
      <trkpt lat="45.87389" lon="3.30651">
        <ele>316.6</ele>
        <time>2024-08-11T11:41:29Z</time>
      </trkpt>
      <trkpt lat="45.87393" lon="3.30657">
        <ele>316.6</ele>
        <time>2024-08-11T11:41:30Z</time>
      </trkpt>
      <trkpt lat="45.87398" lon="3.30663">
        <ele>316.6</ele>
        <time>2024-08-11T11:41:31Z</time>
      </trkpt>
      <trkpt lat="45.87402" lon="3.3067">
        <ele>316.6</ele>
        <time>2024-08-11T11:41:32Z</time>
      </trkpt>
      <trkpt lat="45.87408" lon="3.30675">
        <ele>316.6</ele>
        <time>2024-08-11T11:41:33Z</time>
      </trkpt>
      <trkpt lat="45.87413" lon="3.30681">
        <ele>316.6</ele>
        <time>2024-08-11T11:41:34Z</time>
      </trkpt>
      <trkpt lat="45.87418" lon="3.30686">
        <ele>316.8</ele>
        <time>2024-08-11T11:41:35Z</time>
      </trkpt>
      <trkpt lat="45.87424" lon="3.30691">
        <ele>316.8</ele>
        <time>2024-08-11T11:41:36Z</time>
      </trkpt>
      <trkpt lat="45.87429" lon="3.30697">
        <ele>316.8</ele>
        <time>2024-08-11T11:41:37Z</time>
      </trkpt>
      <trkpt lat="45.87435" lon="3.30703">
        <ele>316.8</ele>
        <time>2024-08-11T11:41:38Z</time>
      </trkpt>
      <trkpt lat="45.8744" lon="3.30708">
        <ele>316.8</ele>
        <time>2024-08-11T11:41:39Z</time>
      </trkpt>
      <trkpt lat="45.87446" lon="3.30714">
        <ele>316.8</ele>
        <time>2024-08-11T11:41:40Z</time>
      </trkpt>
      <trkpt lat="45.87452" lon="3.30719">
        <ele>316.8</ele>
        <time>2024-08-11T11:41:41Z</time>
      </trkpt>
      <trkpt lat="45.87457" lon="3.30725">
        <ele>316.8</ele>
        <time>2024-08-11T11:41:42Z</time>
      </trkpt>
      <trkpt lat="45.87463" lon="3.3073">
        <ele>316.8</ele>
        <time>2024-08-11T11:41:43Z</time>
      </trkpt>
      <trkpt lat="45.87468" lon="3.30736">
        <ele>316.8</ele>
        <time>2024-08-11T11:41:44Z</time>
      </trkpt>
      <trkpt lat="45.87474" lon="3.30741">
        <ele>316.8</ele>
        <time>2024-08-11T11:41:45Z</time>
      </trkpt>
      <trkpt lat="45.87479" lon="3.30746">
        <ele>316.8</ele>
        <time>2024-08-11T11:41:46Z</time>
      </trkpt>
      <trkpt lat="45.87485" lon="3.30751">
        <ele>316.8</ele>
        <time>2024-08-11T11:41:47Z</time>
      </trkpt>
      <trkpt lat="45.87491" lon="3.30756">
        <ele>316.8</ele>
        <time>2024-08-11T11:41:48Z</time>
      </trkpt>
      <trkpt lat="45.87497" lon="3.30761">
        <ele>316.8</ele>
        <time>2024-08-11T11:41:49Z</time>
      </trkpt>
      <trkpt lat="45.87503" lon="3.30766">
        <ele>316.8</ele>
        <time>2024-08-11T11:41:50Z</time>
      </trkpt>
      <trkpt lat="45.87509" lon="3.30771">
        <ele>316.8</ele>
        <time>2024-08-11T11:41:51Z</time>
      </trkpt>
      <trkpt lat="45.87515" lon="3.30776">
        <ele>316.8</ele>
        <time>2024-08-11T11:41:52Z</time>
      </trkpt>
      <trkpt lat="45.8752" lon="3.30782">
        <ele>316.8</ele>
        <time>2024-08-11T11:41:53Z</time>
      </trkpt>
      <trkpt lat="45.87525" lon="3.30789">
        <ele>316.8</ele>
        <time>2024-08-11T11:41:54Z</time>
      </trkpt>
      <trkpt lat="45.8753" lon="3.30796">
        <ele>316.8</ele>
        <time>2024-08-11T11:41:55Z</time>
      </trkpt>
      <trkpt lat="45.87536" lon="3.30802">
        <ele>317</ele>
        <time>2024-08-11T11:41:56Z</time>
      </trkpt>
      <trkpt lat="45.87541" lon="3.30809">
        <ele>317</ele>
        <time>2024-08-11T11:41:57Z</time>
      </trkpt>
      <trkpt lat="45.87546" lon="3.30816">
        <ele>316.8</ele>
        <time>2024-08-11T11:41:58Z</time>
      </trkpt>
      <trkpt lat="45.87552" lon="3.30822">
        <ele>316.8</ele>
        <time>2024-08-11T11:41:59Z</time>
      </trkpt>
      <trkpt lat="45.87557" lon="3.30828">
        <ele>317</ele>
        <time>2024-08-11T11:42:00Z</time>
      </trkpt>
      <trkpt lat="45.87562" lon="3.30835">
        <ele>317</ele>
        <time>2024-08-11T11:42:01Z</time>
      </trkpt>
      <trkpt lat="45.87567" lon="3.30841">
        <ele>317</ele>
        <time>2024-08-11T11:42:02Z</time>
      </trkpt>
      <trkpt lat="45.87572" lon="3.30848">
        <ele>317</ele>
        <time>2024-08-11T11:42:03Z</time>
      </trkpt>
      <trkpt lat="45.87577" lon="3.30854">
        <ele>317</ele>
        <time>2024-08-11T11:42:04Z</time>
      </trkpt>
      <trkpt lat="45.87582" lon="3.30861">
        <ele>317</ele>
        <time>2024-08-11T11:42:05Z</time>
      </trkpt>
      <trkpt lat="45.87587" lon="3.30867">
        <ele>317</ele>
        <time>2024-08-11T11:42:06Z</time>
      </trkpt>
      <trkpt lat="45.87592" lon="3.30873">
        <ele>317</ele>
        <time>2024-08-11T11:42:07Z</time>
      </trkpt>
      <trkpt lat="45.87597" lon="3.30879">
        <ele>317</ele>
        <time>2024-08-11T11:42:08Z</time>
      </trkpt>
      <trkpt lat="45.87602" lon="3.30886">
        <ele>317</ele>
        <time>2024-08-11T11:42:09Z</time>
      </trkpt>
      <trkpt lat="45.87607" lon="3.30892">
        <ele>317</ele>
        <time>2024-08-11T11:42:10Z</time>
      </trkpt>
      <trkpt lat="45.87613" lon="3.30898">
        <ele>317</ele>
        <time>2024-08-11T11:42:11Z</time>
      </trkpt>
      <trkpt lat="45.87618" lon="3.30905">
        <ele>317</ele>
        <time>2024-08-11T11:42:12Z</time>
      </trkpt>
      <trkpt lat="45.87623" lon="3.30911">
        <ele>317</ele>
        <time>2024-08-11T11:42:13Z</time>
      </trkpt>
      <trkpt lat="45.87628" lon="3.30918">
        <ele>317</ele>
        <time>2024-08-11T11:42:14Z</time>
      </trkpt>
      <trkpt lat="45.87633" lon="3.30924">
        <ele>317</ele>
        <time>2024-08-11T11:42:15Z</time>
      </trkpt>
      <trkpt lat="45.87638" lon="3.3093">
        <ele>317</ele>
        <time>2024-08-11T11:42:16Z</time>
      </trkpt>
      <trkpt lat="45.87643" lon="3.30937">
        <ele>317</ele>
        <time>2024-08-11T11:42:17Z</time>
      </trkpt>
      <trkpt lat="45.87649" lon="3.30943">
        <ele>317.2</ele>
        <time>2024-08-11T11:42:18Z</time>
      </trkpt>
      <trkpt lat="45.87654" lon="3.3095">
        <ele>317.2</ele>
        <time>2024-08-11T11:42:19Z</time>
      </trkpt>
      <trkpt lat="45.87659" lon="3.30956">
        <ele>317.2</ele>
        <time>2024-08-11T11:42:20Z</time>
      </trkpt>
      <trkpt lat="45.87665" lon="3.30962">
        <ele>317</ele>
        <time>2024-08-11T11:42:21Z</time>
      </trkpt>
      <trkpt lat="45.8767" lon="3.30967">
        <ele>317.2</ele>
        <time>2024-08-11T11:42:22Z</time>
      </trkpt>
      <trkpt lat="45.87675" lon="3.30973">
        <ele>317.2</ele>
        <time>2024-08-11T11:42:23Z</time>
      </trkpt>
      <trkpt lat="45.8768" lon="3.30979">
        <ele>317.2</ele>
        <time>2024-08-11T11:42:24Z</time>
      </trkpt>
      <trkpt lat="45.87685" lon="3.30985">
        <ele>317.2</ele>
        <time>2024-08-11T11:42:25Z</time>
      </trkpt>
      <trkpt lat="45.8769" lon="3.3099">
        <ele>317.2</ele>
        <time>2024-08-11T11:42:26Z</time>
      </trkpt>
      <trkpt lat="45.87695" lon="3.30996">
        <ele>317.2</ele>
        <time>2024-08-11T11:42:27Z</time>
      </trkpt>
      <trkpt lat="45.877" lon="3.31001">
        <ele>317.2</ele>
        <time>2024-08-11T11:42:28Z</time>
      </trkpt>
      <trkpt lat="45.87706" lon="3.31007">
        <ele>317.2</ele>
        <time>2024-08-11T11:42:29Z</time>
      </trkpt>
      <trkpt lat="45.87711" lon="3.31013">
        <ele>317.2</ele>
        <time>2024-08-11T11:42:30Z</time>
      </trkpt>
      <trkpt lat="45.87717" lon="3.31019">
        <ele>317.2</ele>
        <time>2024-08-11T11:42:31Z</time>
      </trkpt>
      <trkpt lat="45.87722" lon="3.31025">
        <ele>317.2</ele>
        <time>2024-08-11T11:42:32Z</time>
      </trkpt>
      <trkpt lat="45.87727" lon="3.31031">
        <ele>317.2</ele>
        <time>2024-08-11T11:42:33Z</time>
      </trkpt>
      <trkpt lat="45.87732" lon="3.31037">
        <ele>317.2</ele>
        <time>2024-08-11T11:42:34Z</time>
      </trkpt>
      <trkpt lat="45.87738" lon="3.31043">
        <ele>317.2</ele>
        <time>2024-08-11T11:42:35Z</time>
      </trkpt>
      <trkpt lat="45.87743" lon="3.31049">
        <ele>317.2</ele>
        <time>2024-08-11T11:42:36Z</time>
      </trkpt>
      <trkpt lat="45.87748" lon="3.31054">
        <ele>317.2</ele>
        <time>2024-08-11T11:42:37Z</time>
      </trkpt>
      <trkpt lat="45.87754" lon="3.3106">
        <ele>317</ele>
        <time>2024-08-11T11:42:38Z</time>
      </trkpt>
      <trkpt lat="45.87759" lon="3.31066">
        <ele>317.2</ele>
        <time>2024-08-11T11:42:39Z</time>
      </trkpt>
      <trkpt lat="45.87764" lon="3.31072">
        <ele>317</ele>
        <time>2024-08-11T11:42:40Z</time>
      </trkpt>
      <trkpt lat="45.8777" lon="3.31078">
        <ele>317</ele>
        <time>2024-08-11T11:42:41Z</time>
      </trkpt>
      <trkpt lat="45.87775" lon="3.31084">
        <ele>317</ele>
        <time>2024-08-11T11:42:42Z</time>
      </trkpt>
      <trkpt lat="45.8778" lon="3.3109">
        <ele>317</ele>
        <time>2024-08-11T11:42:43Z</time>
      </trkpt>
      <trkpt lat="45.87786" lon="3.31096">
        <ele>317</ele>
        <time>2024-08-11T11:42:44Z</time>
      </trkpt>
      <trkpt lat="45.87791" lon="3.31102">
        <ele>317</ele>
        <time>2024-08-11T11:42:45Z</time>
      </trkpt>
      <trkpt lat="45.87796" lon="3.31108">
        <ele>317</ele>
        <time>2024-08-11T11:42:46Z</time>
      </trkpt>
      <trkpt lat="45.87802" lon="3.31114">
        <ele>317</ele>
        <time>2024-08-11T11:42:47Z</time>
      </trkpt>
      <trkpt lat="45.87807" lon="3.3112">
        <ele>317</ele>
        <time>2024-08-11T11:42:48Z</time>
      </trkpt>
      <trkpt lat="45.87812" lon="3.31125">
        <ele>317</ele>
        <time>2024-08-11T11:42:49Z</time>
      </trkpt>
      <trkpt lat="45.87817" lon="3.31131">
        <ele>317</ele>
        <time>2024-08-11T11:42:50Z</time>
      </trkpt>
      <trkpt lat="45.87822" lon="3.31137">
        <ele>317</ele>
        <time>2024-08-11T11:42:51Z</time>
      </trkpt>
      <trkpt lat="45.87828" lon="3.31143">
        <ele>317</ele>
        <time>2024-08-11T11:42:52Z</time>
      </trkpt>
      <trkpt lat="45.87833" lon="3.31148">
        <ele>317</ele>
        <time>2024-08-11T11:42:53Z</time>
      </trkpt>
      <trkpt lat="45.87838" lon="3.31154">
        <ele>317</ele>
        <time>2024-08-11T11:42:54Z</time>
      </trkpt>
      <trkpt lat="45.87843" lon="3.3116">
        <ele>317</ele>
        <time>2024-08-11T11:42:55Z</time>
      </trkpt>
      <trkpt lat="45.87849" lon="3.31165">
        <ele>317</ele>
        <time>2024-08-11T11:42:56Z</time>
      </trkpt>
      <trkpt lat="45.87855" lon="3.3117">
        <ele>317</ele>
        <time>2024-08-11T11:42:57Z</time>
      </trkpt>
      <trkpt lat="45.87861" lon="3.31174">
        <ele>317</ele>
        <time>2024-08-11T11:42:58Z</time>
      </trkpt>
      <trkpt lat="45.87866" lon="3.31179">
        <ele>317</ele>
        <time>2024-08-11T11:42:59Z</time>
      </trkpt>
      <trkpt lat="45.87872" lon="3.31183">
        <ele>317</ele>
        <time>2024-08-11T11:43:00Z</time>
      </trkpt>
      <trkpt lat="45.87878" lon="3.31188">
        <ele>317</ele>
        <time>2024-08-11T11:43:01Z</time>
      </trkpt>
      <trkpt lat="45.87884" lon="3.31193">
        <ele>316.8</ele>
        <time>2024-08-11T11:43:02Z</time>
      </trkpt>
      <trkpt lat="45.8789" lon="3.31197">
        <ele>316.8</ele>
        <time>2024-08-11T11:43:03Z</time>
      </trkpt>
      <trkpt lat="45.87896" lon="3.31202">
        <ele>316.8</ele>
        <time>2024-08-11T11:43:04Z</time>
      </trkpt>
      <trkpt lat="45.87902" lon="3.31207">
        <ele>316.8</ele>
        <time>2024-08-11T11:43:05Z</time>
      </trkpt>
      <trkpt lat="45.87908" lon="3.31211">
        <ele>316.8</ele>
        <time>2024-08-11T11:43:06Z</time>
      </trkpt>
      <trkpt lat="45.87914" lon="3.31216">
        <ele>316.8</ele>
        <time>2024-08-11T11:43:07Z</time>
      </trkpt>
      <trkpt lat="45.8792" lon="3.3122">
        <ele>316.8</ele>
        <time>2024-08-11T11:43:08Z</time>
      </trkpt>
      <trkpt lat="45.87926" lon="3.31225">
        <ele>316.8</ele>
        <time>2024-08-11T11:43:09Z</time>
      </trkpt>
      <trkpt lat="45.87932" lon="3.3123">
        <ele>316.8</ele>
        <time>2024-08-11T11:43:10Z</time>
      </trkpt>
      <trkpt lat="45.87938" lon="3.31234">
        <ele>316.8</ele>
        <time>2024-08-11T11:43:11Z</time>
      </trkpt>
      <trkpt lat="45.87944" lon="3.31239">
        <ele>316.8</ele>
        <time>2024-08-11T11:43:12Z</time>
      </trkpt>
      <trkpt lat="45.8795" lon="3.31244">
        <ele>316.8</ele>
        <time>2024-08-11T11:43:13Z</time>
      </trkpt>
      <trkpt lat="45.87957" lon="3.31249">
        <ele>316.6</ele>
        <time>2024-08-11T11:43:14Z</time>
      </trkpt>
      <trkpt lat="45.87963" lon="3.31255">
        <ele>316.6</ele>
        <time>2024-08-11T11:43:15Z</time>
      </trkpt>
      <trkpt lat="45.87968" lon="3.31261">
        <ele>316.6</ele>
        <time>2024-08-11T11:43:16Z</time>
      </trkpt>
      <trkpt lat="45.87974" lon="3.31268">
        <ele>316.6</ele>
        <time>2024-08-11T11:43:17Z</time>
      </trkpt>
      <trkpt lat="45.87979" lon="3.31275">
        <ele>316.6</ele>
        <time>2024-08-11T11:43:18Z</time>
      </trkpt>
      <trkpt lat="45.87985" lon="3.31282">
        <ele>316.6</ele>
        <time>2024-08-11T11:43:19Z</time>
      </trkpt>
      <trkpt lat="45.8799" lon="3.31288">
        <ele>316.4</ele>
        <time>2024-08-11T11:43:20Z</time>
      </trkpt>
      <trkpt lat="45.87996" lon="3.31295">
        <ele>316.4</ele>
        <time>2024-08-11T11:43:21Z</time>
      </trkpt>
      <trkpt lat="45.88001" lon="3.31301">
        <ele>316.4</ele>
        <time>2024-08-11T11:43:22Z</time>
      </trkpt>
      <trkpt lat="45.88006" lon="3.31307">
        <ele>316.4</ele>
        <time>2024-08-11T11:43:23Z</time>
      </trkpt>
      <trkpt lat="45.88011" lon="3.31314">
        <ele>316.4</ele>
        <time>2024-08-11T11:43:24Z</time>
      </trkpt>
      <trkpt lat="45.88017" lon="3.3132">
        <ele>316.4</ele>
        <time>2024-08-11T11:43:25Z</time>
      </trkpt>
      <trkpt lat="45.88022" lon="3.31326">
        <ele>316.4</ele>
        <time>2024-08-11T11:43:26Z</time>
      </trkpt>
      <trkpt lat="45.88027" lon="3.31332">
        <ele>316.4</ele>
        <time>2024-08-11T11:43:27Z</time>
      </trkpt>
      <trkpt lat="45.88032" lon="3.31339">
        <ele>316.4</ele>
        <time>2024-08-11T11:43:28Z</time>
      </trkpt>
      <trkpt lat="45.88037" lon="3.31345">
        <ele>316.4</ele>
        <time>2024-08-11T11:43:29Z</time>
      </trkpt>
      <trkpt lat="45.88043" lon="3.31351">
        <ele>316.4</ele>
        <time>2024-08-11T11:43:30Z</time>
      </trkpt>
      <trkpt lat="45.88049" lon="3.31354">
        <ele>316.4</ele>
        <time>2024-08-11T11:43:31Z</time>
      </trkpt>
      <trkpt lat="45.88055" lon="3.31358">
        <ele>316.4</ele>
        <time>2024-08-11T11:43:32Z</time>
      </trkpt>
      <trkpt lat="45.88061" lon="3.31362">
        <ele>316.4</ele>
        <time>2024-08-11T11:43:33Z</time>
      </trkpt>
      <trkpt lat="45.88067" lon="3.31365">
        <ele>316.4</ele>
        <time>2024-08-11T11:43:34Z</time>
      </trkpt>
      <trkpt lat="45.88073" lon="3.31369">
        <ele>316.2</ele>
        <time>2024-08-11T11:43:35Z</time>
      </trkpt>
      <trkpt lat="45.88079" lon="3.31373">
        <ele>316.2</ele>
        <time>2024-08-11T11:43:36Z</time>
      </trkpt>
      <trkpt lat="45.88086" lon="3.31376">
        <ele>316.2</ele>
        <time>2024-08-11T11:43:37Z</time>
      </trkpt>
      <trkpt lat="45.88092" lon="3.3138">
        <ele>316.2</ele>
        <time>2024-08-11T11:43:38Z</time>
      </trkpt>
      <trkpt lat="45.88098" lon="3.31384">
        <ele>316.4</ele>
        <time>2024-08-11T11:43:39Z</time>
      </trkpt>
      <trkpt lat="45.88104" lon="3.31388">
        <ele>316.4</ele>
        <time>2024-08-11T11:43:40Z</time>
      </trkpt>
      <trkpt lat="45.8811" lon="3.31391">
        <ele>316.2</ele>
        <time>2024-08-11T11:43:41Z</time>
      </trkpt>
      <trkpt lat="45.88116" lon="3.31395">
        <ele>316.2</ele>
        <time>2024-08-11T11:43:42Z</time>
      </trkpt>
      <trkpt lat="45.88123" lon="3.31399">
        <ele>316.2</ele>
        <time>2024-08-11T11:43:43Z</time>
      </trkpt>
      <trkpt lat="45.88129" lon="3.31404">
        <ele>316.2</ele>
        <time>2024-08-11T11:43:44Z</time>
      </trkpt>
      <trkpt lat="45.88134" lon="3.31409">
        <ele>316.2</ele>
        <time>2024-08-11T11:43:45Z</time>
      </trkpt>
      <trkpt lat="45.8814" lon="3.31414">
        <ele>316.2</ele>
        <time>2024-08-11T11:43:46Z</time>
      </trkpt>
      <trkpt lat="45.88146" lon="3.3142">
        <ele>316.2</ele>
        <time>2024-08-11T11:43:47Z</time>
      </trkpt>
      <trkpt lat="45.88152" lon="3.31425">
        <ele>316.2</ele>
        <time>2024-08-11T11:43:48Z</time>
      </trkpt>
      <trkpt lat="45.88158" lon="3.3143">
        <ele>316.2</ele>
        <time>2024-08-11T11:43:49Z</time>
      </trkpt>
      <trkpt lat="45.88163" lon="3.31435">
        <ele>316.2</ele>
        <time>2024-08-11T11:43:50Z</time>
      </trkpt>
      <trkpt lat="45.88169" lon="3.3144">
        <ele>316.2</ele>
        <time>2024-08-11T11:43:51Z</time>
      </trkpt>
      <trkpt lat="45.88175" lon="3.31445">
        <ele>316.2</ele>
        <time>2024-08-11T11:43:52Z</time>
      </trkpt>
      <trkpt lat="45.8818" lon="3.3145">
        <ele>316.2</ele>
        <time>2024-08-11T11:43:53Z</time>
      </trkpt>
      <trkpt lat="45.88186" lon="3.31454">
        <ele>316.2</ele>
        <time>2024-08-11T11:43:54Z</time>
      </trkpt>
      <trkpt lat="45.88191" lon="3.31459">
        <ele>316.2</ele>
        <time>2024-08-11T11:43:55Z</time>
      </trkpt>
      <trkpt lat="45.88197" lon="3.31466">
        <ele>316.2</ele>
        <time>2024-08-11T11:43:56Z</time>
      </trkpt>
      <trkpt lat="45.88202" lon="3.31473">
        <ele>316.2</ele>
        <time>2024-08-11T11:43:57Z</time>
      </trkpt>
      <trkpt lat="45.88206" lon="3.31479">
        <ele>316</ele>
        <time>2024-08-11T11:43:58Z</time>
      </trkpt>
      <trkpt lat="45.88211" lon="3.31486">
        <ele>316</ele>
        <time>2024-08-11T11:43:59Z</time>
      </trkpt>
      <trkpt lat="45.88215" lon="3.31493">
        <ele>316</ele>
        <time>2024-08-11T11:44:00Z</time>
      </trkpt>
      <trkpt lat="45.8822" lon="3.31499">
        <ele>316</ele>
        <time>2024-08-11T11:44:01Z</time>
      </trkpt>
      <trkpt lat="45.88225" lon="3.31506">
        <ele>316</ele>
        <time>2024-08-11T11:44:02Z</time>
      </trkpt>
      <trkpt lat="45.88229" lon="3.31513">
        <ele>316</ele>
        <time>2024-08-11T11:44:03Z</time>
      </trkpt>
      <trkpt lat="45.88234" lon="3.3152">
        <ele>315.8</ele>
        <time>2024-08-11T11:44:04Z</time>
      </trkpt>
      <trkpt lat="45.88239" lon="3.31526">
        <ele>315.8</ele>
        <time>2024-08-11T11:44:05Z</time>
      </trkpt>
      <trkpt lat="45.88244" lon="3.31533">
        <ele>315.8</ele>
        <time>2024-08-11T11:44:06Z</time>
      </trkpt>
      <trkpt lat="45.88248" lon="3.3154">
        <ele>315.8</ele>
        <time>2024-08-11T11:44:07Z</time>
      </trkpt>
      <trkpt lat="45.88253" lon="3.31547">
        <ele>316</ele>
        <time>2024-08-11T11:44:08Z</time>
      </trkpt>
      <trkpt lat="45.88258" lon="3.31553">
        <ele>315.8</ele>
        <time>2024-08-11T11:44:09Z</time>
      </trkpt>
      <trkpt lat="45.88262" lon="3.3156">
        <ele>315.8</ele>
        <time>2024-08-11T11:44:10Z</time>
      </trkpt>
      <trkpt lat="45.88267" lon="3.31566">
        <ele>315.8</ele>
        <time>2024-08-11T11:44:11Z</time>
      </trkpt>
      <trkpt lat="45.88271" lon="3.31573">
        <ele>315.8</ele>
        <time>2024-08-11T11:44:12Z</time>
      </trkpt>
      <trkpt lat="45.88276" lon="3.3158">
        <ele>315.8</ele>
        <time>2024-08-11T11:44:13Z</time>
      </trkpt>
      <trkpt lat="45.88281" lon="3.31586">
        <ele>315.8</ele>
        <time>2024-08-11T11:44:14Z</time>
      </trkpt>
      <trkpt lat="45.88285" lon="3.31593">
        <ele>315.8</ele>
        <time>2024-08-11T11:44:15Z</time>
      </trkpt>
      <trkpt lat="45.8829" lon="3.31599">
        <ele>315.8</ele>
        <time>2024-08-11T11:44:16Z</time>
      </trkpt>
      <trkpt lat="45.88295" lon="3.31606">
        <ele>315.8</ele>
        <time>2024-08-11T11:44:17Z</time>
      </trkpt>
      <trkpt lat="45.88299" lon="3.31612">
        <ele>315.8</ele>
        <time>2024-08-11T11:44:18Z</time>
      </trkpt>
      <trkpt lat="45.88304" lon="3.31619">
        <ele>315.8</ele>
        <time>2024-08-11T11:44:19Z</time>
      </trkpt>
      <trkpt lat="45.88308" lon="3.31625">
        <ele>315.8</ele>
        <time>2024-08-11T11:44:20Z</time>
      </trkpt>
      <trkpt lat="45.88313" lon="3.31632">
        <ele>315.8</ele>
        <time>2024-08-11T11:44:21Z</time>
      </trkpt>
      <trkpt lat="45.88318" lon="3.31639">
        <ele>315.8</ele>
        <time>2024-08-11T11:44:22Z</time>
      </trkpt>
      <trkpt lat="45.88322" lon="3.31646">
        <ele>315.8</ele>
        <time>2024-08-11T11:44:23Z</time>
      </trkpt>
      <trkpt lat="45.88327" lon="3.31653">
        <ele>315.8</ele>
        <time>2024-08-11T11:44:24Z</time>
      </trkpt>
      <trkpt lat="45.88332" lon="3.3166">
        <ele>315.8</ele>
        <time>2024-08-11T11:44:25Z</time>
      </trkpt>
      <trkpt lat="45.88337" lon="3.31667">
        <ele>315.8</ele>
        <time>2024-08-11T11:44:26Z</time>
      </trkpt>
      <trkpt lat="45.88342" lon="3.31673">
        <ele>315.8</ele>
        <time>2024-08-11T11:44:27Z</time>
      </trkpt>
      <trkpt lat="45.88347" lon="3.3168">
        <ele>315.8</ele>
        <time>2024-08-11T11:44:28Z</time>
      </trkpt>
      <trkpt lat="45.88352" lon="3.31687">
        <ele>315.8</ele>
        <time>2024-08-11T11:44:29Z</time>
      </trkpt>
      <trkpt lat="45.88357" lon="3.31693">
        <ele>315.8</ele>
        <time>2024-08-11T11:44:30Z</time>
      </trkpt>
      <trkpt lat="45.88363" lon="3.317">
        <ele>315.8</ele>
        <time>2024-08-11T11:44:31Z</time>
      </trkpt>
      <trkpt lat="45.88368" lon="3.31706">
        <ele>315.8</ele>
        <time>2024-08-11T11:44:32Z</time>
      </trkpt>
      <trkpt lat="45.88373" lon="3.31713">
        <ele>315.8</ele>
        <time>2024-08-11T11:44:33Z</time>
      </trkpt>
      <trkpt lat="45.88378" lon="3.3172">
        <ele>315.8</ele>
        <time>2024-08-11T11:44:34Z</time>
      </trkpt>
      <trkpt lat="45.88383" lon="3.31727">
        <ele>315.8</ele>
        <time>2024-08-11T11:44:35Z</time>
      </trkpt>
      <trkpt lat="45.88388" lon="3.31734">
        <ele>315.8</ele>
        <time>2024-08-11T11:44:36Z</time>
      </trkpt>
      <trkpt lat="45.88394" lon="3.31741">
        <ele>315.8</ele>
        <time>2024-08-11T11:44:37Z</time>
      </trkpt>
      <trkpt lat="45.88399" lon="3.31748">
        <ele>315.8</ele>
        <time>2024-08-11T11:44:38Z</time>
      </trkpt>
      <trkpt lat="45.88404" lon="3.31754">
        <ele>315.8</ele>
        <time>2024-08-11T11:44:39Z</time>
      </trkpt>
      <trkpt lat="45.88409" lon="3.31761">
        <ele>315.8</ele>
        <time>2024-08-11T11:44:40Z</time>
      </trkpt>
      <trkpt lat="45.88414" lon="3.31768">
        <ele>315.8</ele>
        <time>2024-08-11T11:44:41Z</time>
      </trkpt>
      <trkpt lat="45.88419" lon="3.31775">
        <ele>315.8</ele>
        <time>2024-08-11T11:44:42Z</time>
      </trkpt>
      <trkpt lat="45.88425" lon="3.31781">
        <ele>315.8</ele>
        <time>2024-08-11T11:44:43Z</time>
      </trkpt>
      <trkpt lat="45.8843" lon="3.31788">
        <ele>315.8</ele>
        <time>2024-08-11T11:44:44Z</time>
      </trkpt>
      <trkpt lat="45.88435" lon="3.31794">
        <ele>315.8</ele>
        <time>2024-08-11T11:44:45Z</time>
      </trkpt>
      <trkpt lat="45.88441" lon="3.31801">
        <ele>315.8</ele>
        <time>2024-08-11T11:44:46Z</time>
      </trkpt>
      <trkpt lat="45.88446" lon="3.31807">
        <ele>315.8</ele>
        <time>2024-08-11T11:44:47Z</time>
      </trkpt>
      <trkpt lat="45.88451" lon="3.31813">
        <ele>315.8</ele>
        <time>2024-08-11T11:44:48Z</time>
      </trkpt>
      <trkpt lat="45.88456" lon="3.3182">
        <ele>315.8</ele>
        <time>2024-08-11T11:44:49Z</time>
      </trkpt>
      <trkpt lat="45.88462" lon="3.31826">
        <ele>315.6</ele>
        <time>2024-08-11T11:44:50Z</time>
      </trkpt>
      <trkpt lat="45.88467" lon="3.31833">
        <ele>315.6</ele>
        <time>2024-08-11T11:44:51Z</time>
      </trkpt>
      <trkpt lat="45.88473" lon="3.31839">
        <ele>315.6</ele>
        <time>2024-08-11T11:44:52Z</time>
      </trkpt>
      <trkpt lat="45.88478" lon="3.31846">
        <ele>315.6</ele>
        <time>2024-08-11T11:44:53Z</time>
      </trkpt>
      <trkpt lat="45.88483" lon="3.31852">
        <ele>315.6</ele>
        <time>2024-08-11T11:44:54Z</time>
      </trkpt>
      <trkpt lat="45.88489" lon="3.31859">
        <ele>315.6</ele>
        <time>2024-08-11T11:44:55Z</time>
      </trkpt>
      <trkpt lat="45.88494" lon="3.31865">
        <ele>315.4</ele>
        <time>2024-08-11T11:44:56Z</time>
      </trkpt>
      <trkpt lat="45.88499" lon="3.31872">
        <ele>315.4</ele>
        <time>2024-08-11T11:44:57Z</time>
      </trkpt>
      <trkpt lat="45.88505" lon="3.31878">
        <ele>315.4</ele>
        <time>2024-08-11T11:44:58Z</time>
      </trkpt>
      <trkpt lat="45.8851" lon="3.31884">
        <ele>315.4</ele>
        <time>2024-08-11T11:44:59Z</time>
      </trkpt>
      <trkpt lat="45.88515" lon="3.31891">
        <ele>315.4</ele>
        <time>2024-08-11T11:45:00Z</time>
      </trkpt>
      <trkpt lat="45.8852" lon="3.31897">
        <ele>315.4</ele>
        <time>2024-08-11T11:45:01Z</time>
      </trkpt>
      <trkpt lat="45.88526" lon="3.31903">
        <ele>315.4</ele>
        <time>2024-08-11T11:45:02Z</time>
      </trkpt>
      <trkpt lat="45.88531" lon="3.3191">
        <ele>315.2</ele>
        <time>2024-08-11T11:45:03Z</time>
      </trkpt>
      <trkpt lat="45.88537" lon="3.31916">
        <ele>315.4</ele>
        <time>2024-08-11T11:45:04Z</time>
      </trkpt>
      <trkpt lat="45.88542" lon="3.31923">
        <ele>315.2</ele>
        <time>2024-08-11T11:45:05Z</time>
      </trkpt>
      <trkpt lat="45.88547" lon="3.31929">
        <ele>315.2</ele>
        <time>2024-08-11T11:45:06Z</time>
      </trkpt>
      <trkpt lat="45.88553" lon="3.31936">
        <ele>315.2</ele>
        <time>2024-08-11T11:45:07Z</time>
      </trkpt>
      <trkpt lat="45.88558" lon="3.31942">
        <ele>315.2</ele>
        <time>2024-08-11T11:45:08Z</time>
      </trkpt>
      <trkpt lat="45.88563" lon="3.31948">
        <ele>315.2</ele>
        <time>2024-08-11T11:45:09Z</time>
      </trkpt>
      <trkpt lat="45.88568" lon="3.31955">
        <ele>315</ele>
        <time>2024-08-11T11:45:10Z</time>
      </trkpt>
      <trkpt lat="45.88574" lon="3.31962">
        <ele>315</ele>
        <time>2024-08-11T11:45:11Z</time>
      </trkpt>
      <trkpt lat="45.88579" lon="3.31968">
        <ele>315</ele>
        <time>2024-08-11T11:45:12Z</time>
      </trkpt>
      <trkpt lat="45.88585" lon="3.31974">
        <ele>315</ele>
        <time>2024-08-11T11:45:13Z</time>
      </trkpt>
      <trkpt lat="45.88591" lon="3.3198">
        <ele>315</ele>
        <time>2024-08-11T11:45:14Z</time>
      </trkpt>
      <trkpt lat="45.88596" lon="3.31985">
        <ele>315</ele>
        <time>2024-08-11T11:45:15Z</time>
      </trkpt>
      <trkpt lat="45.88602" lon="3.3199">
        <ele>314.8</ele>
        <time>2024-08-11T11:45:16Z</time>
      </trkpt>
      <trkpt lat="45.88608" lon="3.31995">
        <ele>315</ele>
        <time>2024-08-11T11:45:17Z</time>
      </trkpt>
      <trkpt lat="45.88614" lon="3.32001">
        <ele>314.8</ele>
        <time>2024-08-11T11:45:18Z</time>
      </trkpt>
      <trkpt lat="45.8862" lon="3.32006">
        <ele>314.8</ele>
        <time>2024-08-11T11:45:19Z</time>
      </trkpt>
      <trkpt lat="45.88626" lon="3.32011">
        <ele>314.8</ele>
        <time>2024-08-11T11:45:20Z</time>
      </trkpt>
      <trkpt lat="45.88632" lon="3.32016">
        <ele>314.8</ele>
        <time>2024-08-11T11:45:21Z</time>
      </trkpt>
      <trkpt lat="45.88638" lon="3.32021">
        <ele>314.8</ele>
        <time>2024-08-11T11:45:22Z</time>
      </trkpt>
      <trkpt lat="45.88644" lon="3.32026">
        <ele>314.8</ele>
        <time>2024-08-11T11:45:23Z</time>
      </trkpt>
      <trkpt lat="45.8865" lon="3.32032">
        <ele>314.8</ele>
        <time>2024-08-11T11:45:24Z</time>
      </trkpt>
      <trkpt lat="45.88655" lon="3.32037">
        <ele>314.8</ele>
        <time>2024-08-11T11:45:25Z</time>
      </trkpt>
      <trkpt lat="45.88661" lon="3.32042">
        <ele>314.8</ele>
        <time>2024-08-11T11:45:26Z</time>
      </trkpt>
      <trkpt lat="45.88667" lon="3.32047">
        <ele>314.8</ele>
        <time>2024-08-11T11:45:27Z</time>
      </trkpt>
      <trkpt lat="45.88672" lon="3.32052">
        <ele>314.8</ele>
        <time>2024-08-11T11:45:28Z</time>
      </trkpt>
      <trkpt lat="45.88678" lon="3.32057">
        <ele>314.6</ele>
        <time>2024-08-11T11:45:29Z</time>
      </trkpt>
      <trkpt lat="45.88684" lon="3.32062">
        <ele>314.6</ele>
        <time>2024-08-11T11:45:30Z</time>
      </trkpt>
      <trkpt lat="45.8869" lon="3.32067">
        <ele>314.6</ele>
        <time>2024-08-11T11:45:31Z</time>
      </trkpt>
      <trkpt lat="45.88696" lon="3.32072">
        <ele>314.6</ele>
        <time>2024-08-11T11:45:32Z</time>
      </trkpt>
      <trkpt lat="45.88702" lon="3.32078">
        <ele>314.6</ele>
        <time>2024-08-11T11:45:33Z</time>
      </trkpt>
      <trkpt lat="45.88708" lon="3.32083">
        <ele>314.6</ele>
        <time>2024-08-11T11:45:34Z</time>
      </trkpt>
      <trkpt lat="45.88714" lon="3.32088">
        <ele>314.6</ele>
        <time>2024-08-11T11:45:35Z</time>
      </trkpt>
      <trkpt lat="45.8872" lon="3.32093">
        <ele>314.6</ele>
        <time>2024-08-11T11:45:36Z</time>
      </trkpt>
      <trkpt lat="45.88725" lon="3.32098">
        <ele>314.6</ele>
        <time>2024-08-11T11:45:37Z</time>
      </trkpt>
      <trkpt lat="45.88731" lon="3.32102">
        <ele>314.4</ele>
        <time>2024-08-11T11:45:38Z</time>
      </trkpt>
      <trkpt lat="45.88736" lon="3.32107">
        <ele>314.4</ele>
        <time>2024-08-11T11:45:39Z</time>
      </trkpt>
      <trkpt lat="45.88741" lon="3.32112">
        <ele>314.4</ele>
        <time>2024-08-11T11:45:40Z</time>
      </trkpt>
      <trkpt lat="45.88747" lon="3.32117">
        <ele>314.4</ele>
        <time>2024-08-11T11:45:41Z</time>
      </trkpt>
      <trkpt lat="45.88752" lon="3.32121">
        <ele>314.4</ele>
        <time>2024-08-11T11:45:42Z</time>
      </trkpt>
      <trkpt lat="45.88758" lon="3.32126">
        <ele>314.4</ele>
        <time>2024-08-11T11:45:43Z</time>
      </trkpt>
      <trkpt lat="45.88764" lon="3.32131">
        <ele>314.4</ele>
        <time>2024-08-11T11:45:44Z</time>
      </trkpt>
      <trkpt lat="45.88769" lon="3.32136">
        <ele>314.4</ele>
        <time>2024-08-11T11:45:45Z</time>
      </trkpt>
      <trkpt lat="45.88775" lon="3.32141">
        <ele>314.4</ele>
        <time>2024-08-11T11:45:46Z</time>
      </trkpt>
      <trkpt lat="45.8878" lon="3.32147">
        <ele>314.2</ele>
        <time>2024-08-11T11:45:47Z</time>
      </trkpt>
      <trkpt lat="45.88785" lon="3.32152">
        <ele>314.2</ele>
        <time>2024-08-11T11:45:48Z</time>
      </trkpt>
      <trkpt lat="45.88791" lon="3.32158">
        <ele>314.2</ele>
        <time>2024-08-11T11:45:49Z</time>
      </trkpt>
      <trkpt lat="45.88796" lon="3.32164">
        <ele>314.2</ele>
        <time>2024-08-11T11:45:50Z</time>
      </trkpt>
      <trkpt lat="45.88801" lon="3.3217">
        <ele>314.2</ele>
        <time>2024-08-11T11:45:51Z</time>
      </trkpt>
      <trkpt lat="45.88807" lon="3.32175">
        <ele>314.2</ele>
        <time>2024-08-11T11:45:52Z</time>
      </trkpt>
      <trkpt lat="45.88812" lon="3.32181">
        <ele>314.2</ele>
        <time>2024-08-11T11:45:53Z</time>
      </trkpt>
      <trkpt lat="45.88817" lon="3.32187">
        <ele>314.2</ele>
        <time>2024-08-11T11:45:54Z</time>
      </trkpt>
      <trkpt lat="45.88823" lon="3.32193">
        <ele>314.2</ele>
        <time>2024-08-11T11:45:55Z</time>
      </trkpt>
      <trkpt lat="45.88828" lon="3.32198">
        <ele>314.2</ele>
        <time>2024-08-11T11:45:56Z</time>
      </trkpt>
      <trkpt lat="45.88834" lon="3.32204">
        <ele>314.2</ele>
        <time>2024-08-11T11:45:57Z</time>
      </trkpt>
      <trkpt lat="45.88839" lon="3.3221">
        <ele>314.2</ele>
        <time>2024-08-11T11:45:58Z</time>
      </trkpt>
      <trkpt lat="45.88844" lon="3.32215">
        <ele>314.2</ele>
        <time>2024-08-11T11:45:59Z</time>
      </trkpt>
      <trkpt lat="45.8885" lon="3.32221">
        <ele>314.2</ele>
        <time>2024-08-11T11:46:00Z</time>
      </trkpt>
      <trkpt lat="45.88855" lon="3.32227">
        <ele>314.2</ele>
        <time>2024-08-11T11:46:01Z</time>
      </trkpt>
      <trkpt lat="45.88861" lon="3.32232">
        <ele>314.2</ele>
        <time>2024-08-11T11:46:02Z</time>
      </trkpt>
      <trkpt lat="45.88866" lon="3.32238">
        <ele>314</ele>
        <time>2024-08-11T11:46:03Z</time>
      </trkpt>
      <trkpt lat="45.88871" lon="3.32244">
        <ele>314</ele>
        <time>2024-08-11T11:46:04Z</time>
      </trkpt>
      <trkpt lat="45.88877" lon="3.3225">
        <ele>314</ele>
        <time>2024-08-11T11:46:05Z</time>
      </trkpt>
      <trkpt lat="45.88882" lon="3.32253">
        <ele>314</ele>
        <time>2024-08-11T11:46:06Z</time>
      </trkpt>
      <trkpt lat="45.88887" lon="3.32258">
        <ele>314</ele>
        <time>2024-08-11T11:46:07Z</time>
      </trkpt>
      <trkpt lat="45.88893" lon="3.32262">
        <ele>314</ele>
        <time>2024-08-11T11:46:08Z</time>
      </trkpt>
      <trkpt lat="45.88899" lon="3.32266">
        <ele>314</ele>
        <time>2024-08-11T11:46:09Z</time>
      </trkpt>
      <trkpt lat="45.88905" lon="3.3227">
        <ele>313.8</ele>
        <time>2024-08-11T11:46:10Z</time>
      </trkpt>
      <trkpt lat="45.88911" lon="3.32274">
        <ele>313.8</ele>
        <time>2024-08-11T11:46:11Z</time>
      </trkpt>
      <trkpt lat="45.88917" lon="3.32279">
        <ele>313.8</ele>
        <time>2024-08-11T11:46:12Z</time>
      </trkpt>
      <trkpt lat="45.88922" lon="3.32283">
        <ele>313.6</ele>
        <time>2024-08-11T11:46:13Z</time>
      </trkpt>
      <trkpt lat="45.88928" lon="3.32287">
        <ele>313.6</ele>
        <time>2024-08-11T11:46:14Z</time>
      </trkpt>
      <trkpt lat="45.88934" lon="3.32291">
        <ele>313.6</ele>
        <time>2024-08-11T11:46:15Z</time>
      </trkpt>
      <trkpt lat="45.8894" lon="3.32295">
        <ele>313.6</ele>
        <time>2024-08-11T11:46:16Z</time>
      </trkpt>
      <trkpt lat="45.88946" lon="3.323">
        <ele>313.4</ele>
        <time>2024-08-11T11:46:17Z</time>
      </trkpt>
      <trkpt lat="45.88952" lon="3.32304">
        <ele>313.4</ele>
        <time>2024-08-11T11:46:18Z</time>
      </trkpt>
      <trkpt lat="45.88958" lon="3.32308">
        <ele>313.4</ele>
        <time>2024-08-11T11:46:19Z</time>
      </trkpt>
      <trkpt lat="45.88963" lon="3.32312">
        <ele>313.4</ele>
        <time>2024-08-11T11:46:20Z</time>
      </trkpt>
      <trkpt lat="45.88969" lon="3.32317">
        <ele>313.4</ele>
        <time>2024-08-11T11:46:21Z</time>
      </trkpt>
      <trkpt lat="45.88975" lon="3.32321">
        <ele>313.2</ele>
        <time>2024-08-11T11:46:22Z</time>
      </trkpt>
      <trkpt lat="45.88981" lon="3.32325">
        <ele>313.2</ele>
        <time>2024-08-11T11:46:23Z</time>
      </trkpt>
      <trkpt lat="45.88987" lon="3.32329">
        <ele>313.2</ele>
        <time>2024-08-11T11:46:24Z</time>
      </trkpt>
      <trkpt lat="45.88993" lon="3.32334">
        <ele>313.2</ele>
        <time>2024-08-11T11:46:25Z</time>
      </trkpt>
      <trkpt lat="45.88999" lon="3.32338">
        <ele>313.2</ele>
        <time>2024-08-11T11:46:26Z</time>
      </trkpt>
      <trkpt lat="45.89005" lon="3.32342">
        <ele>313.2</ele>
        <time>2024-08-11T11:46:27Z</time>
      </trkpt>
      <trkpt lat="45.89011" lon="3.32347">
        <ele>313.2</ele>
        <time>2024-08-11T11:46:28Z</time>
      </trkpt>
      <trkpt lat="45.89017" lon="3.32351">
        <ele>313</ele>
        <time>2024-08-11T11:46:29Z</time>
      </trkpt>
      <trkpt lat="45.89023" lon="3.32356">
        <ele>313</ele>
        <time>2024-08-11T11:46:30Z</time>
      </trkpt>
      <trkpt lat="45.89029" lon="3.3236">
        <ele>313</ele>
        <time>2024-08-11T11:46:31Z</time>
      </trkpt>
      <trkpt lat="45.89035" lon="3.32364">
        <ele>313</ele>
        <time>2024-08-11T11:46:32Z</time>
      </trkpt>
      <trkpt lat="45.89042" lon="3.32369">
        <ele>313</ele>
        <time>2024-08-11T11:46:33Z</time>
      </trkpt>
      <trkpt lat="45.89048" lon="3.32373">
        <ele>313</ele>
        <time>2024-08-11T11:46:34Z</time>
      </trkpt>
      <trkpt lat="45.89054" lon="3.32378">
        <ele>313</ele>
        <time>2024-08-11T11:46:35Z</time>
      </trkpt>
      <trkpt lat="45.8906" lon="3.32382">
        <ele>313</ele>
        <time>2024-08-11T11:46:36Z</time>
      </trkpt>
      <trkpt lat="45.89066" lon="3.32386">
        <ele>312.8</ele>
        <time>2024-08-11T11:46:37Z</time>
      </trkpt>
      <trkpt lat="45.89072" lon="3.3239">
        <ele>312.8</ele>
        <time>2024-08-11T11:46:38Z</time>
      </trkpt>
      <trkpt lat="45.89078" lon="3.32393">
        <ele>312.8</ele>
        <time>2024-08-11T11:46:39Z</time>
      </trkpt>
      <trkpt lat="45.89085" lon="3.32397">
        <ele>312.8</ele>
        <time>2024-08-11T11:46:40Z</time>
      </trkpt>
      <trkpt lat="45.89091" lon="3.32401">
        <ele>312.8</ele>
        <time>2024-08-11T11:46:41Z</time>
      </trkpt>
      <trkpt lat="45.89097" lon="3.32405">
        <ele>312.8</ele>
        <time>2024-08-11T11:46:42Z</time>
      </trkpt>
      <trkpt lat="45.89104" lon="3.32409">
        <ele>312.8</ele>
        <time>2024-08-11T11:46:43Z</time>
      </trkpt>
      <trkpt lat="45.8911" lon="3.32413">
        <ele>312.8</ele>
        <time>2024-08-11T11:46:44Z</time>
      </trkpt>
      <trkpt lat="45.89117" lon="3.32417">
        <ele>312.8</ele>
        <time>2024-08-11T11:46:45Z</time>
      </trkpt>
      <trkpt lat="45.89123" lon="3.3242">
        <ele>312.8</ele>
        <time>2024-08-11T11:46:46Z</time>
      </trkpt>
      <trkpt lat="45.8913" lon="3.32424">
        <ele>312.8</ele>
        <time>2024-08-11T11:46:47Z</time>
      </trkpt>
      <trkpt lat="45.89136" lon="3.32428">
        <ele>312.8</ele>
        <time>2024-08-11T11:46:48Z</time>
      </trkpt>
      <trkpt lat="45.89142" lon="3.32432">
        <ele>312.8</ele>
        <time>2024-08-11T11:46:49Z</time>
      </trkpt>
      <trkpt lat="45.89149" lon="3.32436">
        <ele>312.8</ele>
        <time>2024-08-11T11:46:50Z</time>
      </trkpt>
      <trkpt lat="45.89155" lon="3.3244">
        <ele>312.8</ele>
        <time>2024-08-11T11:46:51Z</time>
      </trkpt>
      <trkpt lat="45.89162" lon="3.32444">
        <ele>312.8</ele>
        <time>2024-08-11T11:46:52Z</time>
      </trkpt>
      <trkpt lat="45.89168" lon="3.32447">
        <ele>312.8</ele>
        <time>2024-08-11T11:46:53Z</time>
      </trkpt>
      <trkpt lat="45.89174" lon="3.32451">
        <ele>312.8</ele>
        <time>2024-08-11T11:46:54Z</time>
      </trkpt>
      <trkpt lat="45.89181" lon="3.32454">
        <ele>312.8</ele>
        <time>2024-08-11T11:46:55Z</time>
      </trkpt>
      <trkpt lat="45.89187" lon="3.32456">
        <ele>312.8</ele>
        <time>2024-08-11T11:46:56Z</time>
      </trkpt>
      <trkpt lat="45.89194" lon="3.32458">
        <ele>312.8</ele>
        <time>2024-08-11T11:46:57Z</time>
      </trkpt>
      <trkpt lat="45.892" lon="3.3246">
        <ele>312.8</ele>
        <time>2024-08-11T11:46:58Z</time>
      </trkpt>
      <trkpt lat="45.89207" lon="3.32462">
        <ele>312.8</ele>
        <time>2024-08-11T11:46:59Z</time>
      </trkpt>
      <trkpt lat="45.89213" lon="3.32465">
        <ele>312.6</ele>
        <time>2024-08-11T11:47:00Z</time>
      </trkpt>
      <trkpt lat="45.8922" lon="3.32467">
        <ele>312.6</ele>
        <time>2024-08-11T11:47:01Z</time>
      </trkpt>
      <trkpt lat="45.89226" lon="3.32469">
        <ele>312.6</ele>
        <time>2024-08-11T11:47:02Z</time>
      </trkpt>
      <trkpt lat="45.89233" lon="3.32471">
        <ele>312.6</ele>
        <time>2024-08-11T11:47:03Z</time>
      </trkpt>
      <trkpt lat="45.89239" lon="3.32473">
        <ele>312.6</ele>
        <time>2024-08-11T11:47:04Z</time>
      </trkpt>
      <trkpt lat="45.89246" lon="3.32475">
        <ele>312.6</ele>
        <time>2024-08-11T11:47:05Z</time>
      </trkpt>
      <trkpt lat="45.89252" lon="3.32478">
        <ele>312.6</ele>
        <time>2024-08-11T11:47:06Z</time>
      </trkpt>
      <trkpt lat="45.89259" lon="3.3248">
        <ele>312.4</ele>
        <time>2024-08-11T11:47:07Z</time>
      </trkpt>
      <trkpt lat="45.89265" lon="3.32482">
        <ele>312.4</ele>
        <time>2024-08-11T11:47:08Z</time>
      </trkpt>
      <trkpt lat="45.89272" lon="3.32484">
        <ele>312.4</ele>
        <time>2024-08-11T11:47:09Z</time>
      </trkpt>
      <trkpt lat="45.89278" lon="3.32486">
        <ele>312.4</ele>
        <time>2024-08-11T11:47:10Z</time>
      </trkpt>
      <trkpt lat="45.89285" lon="3.32488">
        <ele>312.2</ele>
        <time>2024-08-11T11:47:11Z</time>
      </trkpt>
      <trkpt lat="45.89291" lon="3.3249">
        <ele>312.2</ele>
        <time>2024-08-11T11:47:12Z</time>
      </trkpt>
      <trkpt lat="45.89298" lon="3.32493">
        <ele>312.2</ele>
        <time>2024-08-11T11:47:13Z</time>
      </trkpt>
      <trkpt lat="45.89305" lon="3.32495">
        <ele>312.2</ele>
        <time>2024-08-11T11:47:14Z</time>
      </trkpt>
      <trkpt lat="45.89311" lon="3.32497">
        <ele>312.2</ele>
        <time>2024-08-11T11:47:15Z</time>
      </trkpt>
      <trkpt lat="45.89318" lon="3.32499">
        <ele>312.2</ele>
        <time>2024-08-11T11:47:16Z</time>
      </trkpt>
      <trkpt lat="45.89325" lon="3.32502">
        <ele>312.2</ele>
        <time>2024-08-11T11:47:17Z</time>
      </trkpt>
      <trkpt lat="45.89332" lon="3.32504">
        <ele>312</ele>
        <time>2024-08-11T11:47:18Z</time>
      </trkpt>
      <trkpt lat="45.89339" lon="3.32506">
        <ele>312</ele>
        <time>2024-08-11T11:47:19Z</time>
      </trkpt>
      <trkpt lat="45.89346" lon="3.32509">
        <ele>312</ele>
        <time>2024-08-11T11:47:20Z</time>
      </trkpt>
      <trkpt lat="45.89353" lon="3.32511">
        <ele>311.8</ele>
        <time>2024-08-11T11:47:21Z</time>
      </trkpt>
      <trkpt lat="45.8936" lon="3.32513">
        <ele>311.8</ele>
        <time>2024-08-11T11:47:22Z</time>
      </trkpt>
      <trkpt lat="45.89366" lon="3.32515">
        <ele>311.8</ele>
        <time>2024-08-11T11:47:23Z</time>
      </trkpt>
      <trkpt lat="45.89373" lon="3.32518">
        <ele>311.8</ele>
        <time>2024-08-11T11:47:24Z</time>
      </trkpt>
      <trkpt lat="45.89379" lon="3.3252">
        <ele>311.8</ele>
        <time>2024-08-11T11:47:25Z</time>
      </trkpt>
      <trkpt lat="45.89386" lon="3.32522">
        <ele>311.8</ele>
        <time>2024-08-11T11:47:26Z</time>
      </trkpt>
      <trkpt lat="45.89392" lon="3.32524">
        <ele>311.8</ele>
        <time>2024-08-11T11:47:27Z</time>
      </trkpt>
      <trkpt lat="45.89398" lon="3.32526">
        <ele>311.6</ele>
        <time>2024-08-11T11:47:28Z</time>
      </trkpt>
      <trkpt lat="45.89405" lon="3.32528">
        <ele>311.6</ele>
        <time>2024-08-11T11:47:29Z</time>
      </trkpt>
      <trkpt lat="45.89411" lon="3.3253">
        <ele>311.6</ele>
        <time>2024-08-11T11:47:30Z</time>
      </trkpt>
      <trkpt lat="45.89417" lon="3.32532">
        <ele>311.6</ele>
        <time>2024-08-11T11:47:31Z</time>
      </trkpt>
      <trkpt lat="45.89424" lon="3.32534">
        <ele>311.6</ele>
        <time>2024-08-11T11:47:32Z</time>
      </trkpt>
      <trkpt lat="45.8943" lon="3.32537">
        <ele>311.6</ele>
        <time>2024-08-11T11:47:33Z</time>
      </trkpt>
      <trkpt lat="45.89437" lon="3.32539">
        <ele>311.4</ele>
        <time>2024-08-11T11:47:34Z</time>
      </trkpt>
      <trkpt lat="45.89443" lon="3.32541">
        <ele>311.4</ele>
        <time>2024-08-11T11:47:35Z</time>
      </trkpt>
      <trkpt lat="45.89449" lon="3.32543">
        <ele>311.4</ele>
        <time>2024-08-11T11:47:36Z</time>
      </trkpt>
      <trkpt lat="45.89455" lon="3.32545">
        <ele>311.4</ele>
        <time>2024-08-11T11:47:37Z</time>
      </trkpt>
      <trkpt lat="45.89462" lon="3.32547">
        <ele>311.2</ele>
        <time>2024-08-11T11:47:38Z</time>
      </trkpt>
      <trkpt lat="45.89468" lon="3.32549">
        <ele>311.2</ele>
        <time>2024-08-11T11:47:39Z</time>
      </trkpt>
      <trkpt lat="45.89475" lon="3.32552">
        <ele>311.2</ele>
        <time>2024-08-11T11:47:40Z</time>
      </trkpt>
      <trkpt lat="45.89482" lon="3.32554">
        <ele>311.2</ele>
        <time>2024-08-11T11:47:41Z</time>
      </trkpt>
      <trkpt lat="45.89488" lon="3.32556">
        <ele>311.2</ele>
        <time>2024-08-11T11:47:42Z</time>
      </trkpt>
      <trkpt lat="45.89495" lon="3.32558">
        <ele>311</ele>
        <time>2024-08-11T11:47:43Z</time>
      </trkpt>
      <trkpt lat="45.89501" lon="3.3256">
        <ele>311.2</ele>
        <time>2024-08-11T11:47:44Z</time>
      </trkpt>
      <trkpt lat="45.89508" lon="3.32562">
        <ele>311</ele>
        <time>2024-08-11T11:47:45Z</time>
      </trkpt>
      <trkpt lat="45.89514" lon="3.32564">
        <ele>311</ele>
        <time>2024-08-11T11:47:46Z</time>
      </trkpt>
      <trkpt lat="45.89521" lon="3.32567">
        <ele>311.2</ele>
        <time>2024-08-11T11:47:47Z</time>
      </trkpt>
      <trkpt lat="45.89527" lon="3.32569">
        <ele>311</ele>
        <time>2024-08-11T11:47:48Z</time>
      </trkpt>
      <trkpt lat="45.89534" lon="3.32571">
        <ele>311</ele>
        <time>2024-08-11T11:47:49Z</time>
      </trkpt>
      <trkpt lat="45.89541" lon="3.32573">
        <ele>311</ele>
        <time>2024-08-11T11:47:50Z</time>
      </trkpt>
      <trkpt lat="45.89547" lon="3.32575">
        <ele>311</ele>
        <time>2024-08-11T11:47:51Z</time>
      </trkpt>
      <trkpt lat="45.89554" lon="3.32578">
        <ele>311</ele>
        <time>2024-08-11T11:47:52Z</time>
      </trkpt>
      <trkpt lat="45.8956" lon="3.3258">
        <ele>311</ele>
        <time>2024-08-11T11:47:53Z</time>
      </trkpt>
      <trkpt lat="45.89567" lon="3.32582">
        <ele>311</ele>
        <time>2024-08-11T11:47:54Z</time>
      </trkpt>
      <trkpt lat="45.89574" lon="3.32584">
        <ele>311</ele>
        <time>2024-08-11T11:47:55Z</time>
      </trkpt>
      <trkpt lat="45.89581" lon="3.32586">
        <ele>311</ele>
        <time>2024-08-11T11:47:56Z</time>
      </trkpt>
      <trkpt lat="45.89588" lon="3.32588">
        <ele>311</ele>
        <time>2024-08-11T11:47:57Z</time>
      </trkpt>
      <trkpt lat="45.89595" lon="3.32589">
        <ele>311.2</ele>
        <time>2024-08-11T11:47:58Z</time>
      </trkpt>
      <trkpt lat="45.89602" lon="3.3259">
        <ele>311.2</ele>
        <time>2024-08-11T11:47:59Z</time>
      </trkpt>
      <trkpt lat="45.89608" lon="3.32592">
        <ele>311.2</ele>
        <time>2024-08-11T11:48:00Z</time>
      </trkpt>
      <trkpt lat="45.89615" lon="3.32593">
        <ele>311</ele>
        <time>2024-08-11T11:48:01Z</time>
      </trkpt>
      <trkpt lat="45.89622" lon="3.32594">
        <ele>311</ele>
        <time>2024-08-11T11:48:02Z</time>
      </trkpt>
      <trkpt lat="45.89629" lon="3.32596">
        <ele>311</ele>
        <time>2024-08-11T11:48:03Z</time>
      </trkpt>
      <trkpt lat="45.89636" lon="3.32597">
        <ele>311.2</ele>
        <time>2024-08-11T11:48:04Z</time>
      </trkpt>
      <trkpt lat="45.89643" lon="3.32599">
        <ele>311.2</ele>
        <time>2024-08-11T11:48:05Z</time>
      </trkpt>
      <trkpt lat="45.89651" lon="3.326">
        <ele>311</ele>
        <time>2024-08-11T11:48:06Z</time>
      </trkpt>
      <trkpt lat="45.89658" lon="3.32602">
        <ele>311</ele>
        <time>2024-08-11T11:48:07Z</time>
      </trkpt>
      <trkpt lat="45.89665" lon="3.32603">
        <ele>311</ele>
        <time>2024-08-11T11:48:08Z</time>
      </trkpt>
      <trkpt lat="45.89672" lon="3.32605">
        <ele>311</ele>
        <time>2024-08-11T11:48:09Z</time>
      </trkpt>
      <trkpt lat="45.89679" lon="3.32606">
        <ele>311</ele>
        <time>2024-08-11T11:48:10Z</time>
      </trkpt>
      <trkpt lat="45.89687" lon="3.32607">
        <ele>311</ele>
        <time>2024-08-11T11:48:11Z</time>
      </trkpt>
      <trkpt lat="45.89694" lon="3.32609">
        <ele>310.8</ele>
        <time>2024-08-11T11:48:12Z</time>
      </trkpt>
      <trkpt lat="45.89701" lon="3.3261">
        <ele>310.8</ele>
        <time>2024-08-11T11:48:13Z</time>
      </trkpt>
      <trkpt lat="45.89709" lon="3.32612">
        <ele>310.8</ele>
        <time>2024-08-11T11:48:14Z</time>
      </trkpt>
      <trkpt lat="45.89716" lon="3.32613">
        <ele>310.8</ele>
        <time>2024-08-11T11:48:15Z</time>
      </trkpt>
      <trkpt lat="45.89724" lon="3.32615">
        <ele>310.6</ele>
        <time>2024-08-11T11:48:16Z</time>
      </trkpt>
      <trkpt lat="45.89731" lon="3.32616">
        <ele>310.6</ele>
        <time>2024-08-11T11:48:17Z</time>
      </trkpt>
      <trkpt lat="45.89739" lon="3.32618">
        <ele>310.6</ele>
        <time>2024-08-11T11:48:18Z</time>
      </trkpt>
      <trkpt lat="45.89747" lon="3.3262">
        <ele>310.6</ele>
        <time>2024-08-11T11:48:19Z</time>
      </trkpt>
      <trkpt lat="45.89754" lon="3.32621">
        <ele>310.6</ele>
        <time>2024-08-11T11:48:20Z</time>
      </trkpt>
      <trkpt lat="45.89762" lon="3.32623">
        <ele>310.4</ele>
        <time>2024-08-11T11:48:21Z</time>
      </trkpt>
      <trkpt lat="45.8977" lon="3.32624">
        <ele>310.4</ele>
        <time>2024-08-11T11:48:22Z</time>
      </trkpt>
      <trkpt lat="45.89778" lon="3.32626">
        <ele>310.4</ele>
        <time>2024-08-11T11:48:23Z</time>
      </trkpt>
      <trkpt lat="45.89785" lon="3.32627">
        <ele>310.4</ele>
        <time>2024-08-11T11:48:24Z</time>
      </trkpt>
      <trkpt lat="45.89793" lon="3.32629">
        <ele>310.2</ele>
        <time>2024-08-11T11:48:25Z</time>
      </trkpt>
      <trkpt lat="45.89801" lon="3.32631">
        <ele>310.2</ele>
        <time>2024-08-11T11:48:26Z</time>
      </trkpt>
      <trkpt lat="45.89808" lon="3.32632">
        <ele>310.2</ele>
        <time>2024-08-11T11:48:27Z</time>
      </trkpt>
      <trkpt lat="45.89816" lon="3.32634">
        <ele>310</ele>
        <time>2024-08-11T11:48:28Z</time>
      </trkpt>
      <trkpt lat="45.89824" lon="3.32635">
        <ele>310</ele>
        <time>2024-08-11T11:48:29Z</time>
      </trkpt>
      <trkpt lat="45.89831" lon="3.32637">
        <ele>310</ele>
        <time>2024-08-11T11:48:30Z</time>
      </trkpt>
      <trkpt lat="45.89838" lon="3.32638">
        <ele>309.8</ele>
        <time>2024-08-11T11:48:31Z</time>
      </trkpt>
      <trkpt lat="45.89846" lon="3.3264">
        <ele>309.8</ele>
        <time>2024-08-11T11:48:32Z</time>
      </trkpt>
      <trkpt lat="45.89854" lon="3.32641">
        <ele>309.8</ele>
        <time>2024-08-11T11:48:33Z</time>
      </trkpt>
      <trkpt lat="45.89861" lon="3.32643">
        <ele>309.8</ele>
        <time>2024-08-11T11:48:34Z</time>
      </trkpt>
      <trkpt lat="45.89868" lon="3.32644">
        <ele>309.6</ele>
        <time>2024-08-11T11:48:35Z</time>
      </trkpt>
      <trkpt lat="45.89876" lon="3.32646">
        <ele>309.6</ele>
        <time>2024-08-11T11:48:36Z</time>
      </trkpt>
      <trkpt lat="45.89883" lon="3.32647">
        <ele>309.6</ele>
        <time>2024-08-11T11:48:37Z</time>
      </trkpt>
      <trkpt lat="45.8989" lon="3.32649">
        <ele>309.6</ele>
        <time>2024-08-11T11:48:38Z</time>
      </trkpt>
      <trkpt lat="45.89898" lon="3.3265">
        <ele>309.6</ele>
        <time>2024-08-11T11:48:39Z</time>
      </trkpt>
      <trkpt lat="45.89905" lon="3.32652">
        <ele>309.6</ele>
        <time>2024-08-11T11:48:40Z</time>
      </trkpt>
      <trkpt lat="45.89912" lon="3.32653">
        <ele>309.4</ele>
        <time>2024-08-11T11:48:41Z</time>
      </trkpt>
      <trkpt lat="45.8992" lon="3.32655">
        <ele>309.4</ele>
        <time>2024-08-11T11:48:42Z</time>
      </trkpt>
      <trkpt lat="45.89927" lon="3.32656">
        <ele>309.4</ele>
        <time>2024-08-11T11:48:43Z</time>
      </trkpt>
      <trkpt lat="45.89934" lon="3.32658">
        <ele>309.4</ele>
        <time>2024-08-11T11:48:44Z</time>
      </trkpt>
      <trkpt lat="45.89942" lon="3.32659">
        <ele>309.4</ele>
        <time>2024-08-11T11:48:45Z</time>
      </trkpt>
      <trkpt lat="45.89949" lon="3.32661">
        <ele>309.4</ele>
        <time>2024-08-11T11:48:46Z</time>
      </trkpt>
      <trkpt lat="45.89956" lon="3.32662">
        <ele>309.4</ele>
        <time>2024-08-11T11:48:47Z</time>
      </trkpt>
      <trkpt lat="45.89964" lon="3.32663">
        <ele>309.2</ele>
        <time>2024-08-11T11:48:48Z</time>
      </trkpt>
      <trkpt lat="45.89971" lon="3.32665">
        <ele>309.2</ele>
        <time>2024-08-11T11:48:49Z</time>
      </trkpt>
      <trkpt lat="45.89978" lon="3.32666">
        <ele>309.4</ele>
        <time>2024-08-11T11:48:50Z</time>
      </trkpt>
      <trkpt lat="45.89985" lon="3.32669">
        <ele>309.4</ele>
        <time>2024-08-11T11:48:51Z</time>
      </trkpt>
      <trkpt lat="45.89992" lon="3.32672">
        <ele>309.4</ele>
        <time>2024-08-11T11:48:52Z</time>
      </trkpt>
      <trkpt lat="45.89999" lon="3.32675">
        <ele>309.4</ele>
        <time>2024-08-11T11:48:53Z</time>
      </trkpt>
      <trkpt lat="45.90006" lon="3.32678">
        <ele>309.4</ele>
        <time>2024-08-11T11:48:54Z</time>
      </trkpt>
      <trkpt lat="45.90013" lon="3.32681">
        <ele>309.4</ele>
        <time>2024-08-11T11:48:55Z</time>
      </trkpt>
      <trkpt lat="45.9002" lon="3.32684">
        <ele>309.2</ele>
        <time>2024-08-11T11:48:56Z</time>
      </trkpt>
      <trkpt lat="45.90027" lon="3.32687">
        <ele>309.2</ele>
        <time>2024-08-11T11:48:57Z</time>
      </trkpt>
      <trkpt lat="45.90034" lon="3.3269">
        <ele>309.2</ele>
        <time>2024-08-11T11:48:58Z</time>
      </trkpt>
      <trkpt lat="45.90041" lon="3.32693">
        <ele>309.2</ele>
        <time>2024-08-11T11:48:59Z</time>
      </trkpt>
      <trkpt lat="45.90048" lon="3.32696">
        <ele>309.2</ele>
        <time>2024-08-11T11:49:00Z</time>
      </trkpt>
      <trkpt lat="45.90055" lon="3.32699">
        <ele>309.4</ele>
        <time>2024-08-11T11:49:01Z</time>
      </trkpt>
      <trkpt lat="45.90062" lon="3.32702">
        <ele>309.2</ele>
        <time>2024-08-11T11:49:02Z</time>
      </trkpt>
      <trkpt lat="45.90069" lon="3.32705">
        <ele>309.2</ele>
        <time>2024-08-11T11:49:03Z</time>
      </trkpt>
      <trkpt lat="45.90076" lon="3.32708">
        <ele>309.2</ele>
        <time>2024-08-11T11:49:04Z</time>
      </trkpt>
      <trkpt lat="45.90083" lon="3.32711">
        <ele>309.2</ele>
        <time>2024-08-11T11:49:05Z</time>
      </trkpt>
      <trkpt lat="45.9009" lon="3.32714">
        <ele>309.2</ele>
        <time>2024-08-11T11:49:06Z</time>
      </trkpt>
      <trkpt lat="45.90096" lon="3.32717">
        <ele>309.2</ele>
        <time>2024-08-11T11:49:07Z</time>
      </trkpt>
      <trkpt lat="45.90103" lon="3.3272">
        <ele>309.2</ele>
        <time>2024-08-11T11:49:08Z</time>
      </trkpt>
      <trkpt lat="45.9011" lon="3.32723">
        <ele>309.2</ele>
        <time>2024-08-11T11:49:09Z</time>
      </trkpt>
      <trkpt lat="45.90117" lon="3.32727">
        <ele>309.2</ele>
        <time>2024-08-11T11:49:10Z</time>
      </trkpt>
      <trkpt lat="45.90123" lon="3.32731">
        <ele>309.2</ele>
        <time>2024-08-11T11:49:11Z</time>
      </trkpt>
      <trkpt lat="45.9013" lon="3.32735">
        <ele>309.2</ele>
        <time>2024-08-11T11:49:12Z</time>
      </trkpt>
      <trkpt lat="45.90136" lon="3.3274">
        <ele>309.2</ele>
        <time>2024-08-11T11:49:13Z</time>
      </trkpt>
      <trkpt lat="45.90142" lon="3.32744">
        <ele>309.4</ele>
        <time>2024-08-11T11:49:14Z</time>
      </trkpt>
      <trkpt lat="45.90149" lon="3.32748">
        <ele>309.4</ele>
        <time>2024-08-11T11:49:15Z</time>
      </trkpt>
      <trkpt lat="45.90155" lon="3.32753">
        <ele>309.4</ele>
        <time>2024-08-11T11:49:16Z</time>
      </trkpt>
      <trkpt lat="45.90162" lon="3.32757">
        <ele>309.4</ele>
        <time>2024-08-11T11:49:17Z</time>
      </trkpt>
      <trkpt lat="45.90169" lon="3.32762">
        <ele>309.4</ele>
        <time>2024-08-11T11:49:18Z</time>
      </trkpt>
      <trkpt lat="45.90176" lon="3.32766">
        <ele>309.4</ele>
        <time>2024-08-11T11:49:19Z</time>
      </trkpt>
      <trkpt lat="45.90182" lon="3.3277">
        <ele>309.4</ele>
        <time>2024-08-11T11:49:20Z</time>
      </trkpt>
      <trkpt lat="45.90189" lon="3.32775">
        <ele>309.4</ele>
        <time>2024-08-11T11:49:21Z</time>
      </trkpt>
      <trkpt lat="45.90195" lon="3.32779">
        <ele>309.4</ele>
        <time>2024-08-11T11:49:22Z</time>
      </trkpt>
      <trkpt lat="45.90202" lon="3.32783">
        <ele>309.4</ele>
        <time>2024-08-11T11:49:23Z</time>
      </trkpt>
      <trkpt lat="45.90208" lon="3.32788">
        <ele>309.4</ele>
        <time>2024-08-11T11:49:24Z</time>
      </trkpt>
      <trkpt lat="45.90214" lon="3.32792">
        <ele>309.4</ele>
        <time>2024-08-11T11:49:25Z</time>
      </trkpt>
      <trkpt lat="45.9022" lon="3.32796">
        <ele>309.4</ele>
        <time>2024-08-11T11:49:26Z</time>
      </trkpt>
      <trkpt lat="45.90226" lon="3.32802">
        <ele>309.4</ele>
        <time>2024-08-11T11:49:27Z</time>
      </trkpt>
      <trkpt lat="45.90232" lon="3.32808">
        <ele>309.4</ele>
        <time>2024-08-11T11:49:28Z</time>
      </trkpt>
      <trkpt lat="45.90237" lon="3.32814">
        <ele>309.4</ele>
        <time>2024-08-11T11:49:29Z</time>
      </trkpt>
      <trkpt lat="45.90243" lon="3.3282">
        <ele>309.4</ele>
        <time>2024-08-11T11:49:30Z</time>
      </trkpt>
      <trkpt lat="45.90248" lon="3.32827">
        <ele>309.4</ele>
        <time>2024-08-11T11:49:31Z</time>
      </trkpt>
      <trkpt lat="45.90254" lon="3.32833">
        <ele>309.4</ele>
        <time>2024-08-11T11:49:32Z</time>
      </trkpt>
      <trkpt lat="45.9026" lon="3.3284">
        <ele>309.4</ele>
        <time>2024-08-11T11:49:33Z</time>
      </trkpt>
      <trkpt lat="45.90265" lon="3.32846">
        <ele>309.4</ele>
        <time>2024-08-11T11:49:34Z</time>
      </trkpt>
      <trkpt lat="45.90271" lon="3.32852">
        <ele>309.4</ele>
        <time>2024-08-11T11:49:35Z</time>
      </trkpt>
      <trkpt lat="45.90276" lon="3.32858">
        <ele>309.4</ele>
        <time>2024-08-11T11:49:36Z</time>
      </trkpt>
      <trkpt lat="45.90282" lon="3.32865">
        <ele>309.4</ele>
        <time>2024-08-11T11:49:37Z</time>
      </trkpt>
      <trkpt lat="45.90287" lon="3.32871">
        <ele>309.4</ele>
        <time>2024-08-11T11:49:38Z</time>
      </trkpt>
      <trkpt lat="45.90293" lon="3.32878">
        <ele>309.4</ele>
        <time>2024-08-11T11:49:39Z</time>
      </trkpt>
      <trkpt lat="45.90298" lon="3.32884">
        <ele>309.2</ele>
        <time>2024-08-11T11:49:40Z</time>
      </trkpt>
      <trkpt lat="45.90304" lon="3.3289">
        <ele>309.2</ele>
        <time>2024-08-11T11:49:41Z</time>
      </trkpt>
      <trkpt lat="45.9031" lon="3.32897">
        <ele>309.4</ele>
        <time>2024-08-11T11:49:42Z</time>
      </trkpt>
      <trkpt lat="45.90315" lon="3.32903">
        <ele>309.4</ele>
        <time>2024-08-11T11:49:43Z</time>
      </trkpt>
      <trkpt lat="45.90321" lon="3.32909">
        <ele>309.4</ele>
        <time>2024-08-11T11:49:44Z</time>
      </trkpt>
      <trkpt lat="45.90326" lon="3.32916">
        <ele>309.4</ele>
        <time>2024-08-11T11:49:45Z</time>
      </trkpt>
      <trkpt lat="45.90332" lon="3.32922">
        <ele>309.4</ele>
        <time>2024-08-11T11:49:46Z</time>
      </trkpt>
      <trkpt lat="45.90337" lon="3.32928">
        <ele>309.4</ele>
        <time>2024-08-11T11:49:47Z</time>
      </trkpt>
      <trkpt lat="45.90343" lon="3.32934">
        <ele>309.4</ele>
        <time>2024-08-11T11:49:48Z</time>
      </trkpt>
      <trkpt lat="45.9035" lon="3.32939">
        <ele>309.4</ele>
        <time>2024-08-11T11:49:49Z</time>
      </trkpt>
      <trkpt lat="45.90357" lon="3.32942">
        <ele>309.4</ele>
        <time>2024-08-11T11:49:50Z</time>
      </trkpt>
      <trkpt lat="45.90364" lon="3.32945">
        <ele>309.4</ele>
        <time>2024-08-11T11:49:51Z</time>
      </trkpt>
      <trkpt lat="45.9037" lon="3.32949">
        <ele>309.4</ele>
        <time>2024-08-11T11:49:52Z</time>
      </trkpt>
      <trkpt lat="45.90377" lon="3.32952">
        <ele>309.4</ele>
        <time>2024-08-11T11:49:53Z</time>
      </trkpt>
      <trkpt lat="45.90383" lon="3.32955">
        <ele>309.4</ele>
        <time>2024-08-11T11:49:54Z</time>
      </trkpt>
      <trkpt lat="45.9039" lon="3.32958">
        <ele>309.4</ele>
        <time>2024-08-11T11:49:55Z</time>
      </trkpt>
      <trkpt lat="45.90396" lon="3.32962">
        <ele>309.4</ele>
        <time>2024-08-11T11:49:56Z</time>
      </trkpt>
      <trkpt lat="45.90403" lon="3.32965">
        <ele>309.4</ele>
        <time>2024-08-11T11:49:57Z</time>
      </trkpt>
      <trkpt lat="45.90409" lon="3.32968">
        <ele>309.4</ele>
        <time>2024-08-11T11:49:58Z</time>
      </trkpt>
      <trkpt lat="45.90415" lon="3.32971">
        <ele>309.4</ele>
        <time>2024-08-11T11:49:59Z</time>
      </trkpt>
      <trkpt lat="45.90422" lon="3.32975">
        <ele>309.4</ele>
        <time>2024-08-11T11:50:00Z</time>
      </trkpt>
      <trkpt lat="45.90428" lon="3.32978">
        <ele>309.4</ele>
        <time>2024-08-11T11:50:01Z</time>
      </trkpt>
      <trkpt lat="45.90434" lon="3.32981">
        <ele>309.4</ele>
        <time>2024-08-11T11:50:02Z</time>
      </trkpt>
      <trkpt lat="45.90441" lon="3.32984">
        <ele>309.4</ele>
        <time>2024-08-11T11:50:03Z</time>
      </trkpt>
      <trkpt lat="45.90447" lon="3.32988">
        <ele>309.4</ele>
        <time>2024-08-11T11:50:04Z</time>
      </trkpt>
      <trkpt lat="45.90453" lon="3.32991">
        <ele>309.4</ele>
        <time>2024-08-11T11:50:05Z</time>
      </trkpt>
      <trkpt lat="45.90459" lon="3.32994">
        <ele>309.2</ele>
        <time>2024-08-11T11:50:06Z</time>
      </trkpt>
      <trkpt lat="45.90465" lon="3.32997">
        <ele>309.4</ele>
        <time>2024-08-11T11:50:07Z</time>
      </trkpt>
      <trkpt lat="45.90472" lon="3.33">
        <ele>309.2</ele>
        <time>2024-08-11T11:50:08Z</time>
      </trkpt>
      <trkpt lat="45.90478" lon="3.33004">
        <ele>309.2</ele>
        <time>2024-08-11T11:50:09Z</time>
      </trkpt>
      <trkpt lat="45.90484" lon="3.33007">
        <ele>309.2</ele>
        <time>2024-08-11T11:50:10Z</time>
      </trkpt>
      <trkpt lat="45.9049" lon="3.3301">
        <ele>309.2</ele>
        <time>2024-08-11T11:50:11Z</time>
      </trkpt>
      <trkpt lat="45.90496" lon="3.33013">
        <ele>309.2</ele>
        <time>2024-08-11T11:50:12Z</time>
      </trkpt>
      <trkpt lat="45.90503" lon="3.33017">
        <ele>309</ele>
        <time>2024-08-11T11:50:13Z</time>
      </trkpt>
      <trkpt lat="45.90509" lon="3.3302">
        <ele>309</ele>
        <time>2024-08-11T11:50:14Z</time>
      </trkpt>
      <trkpt lat="45.90515" lon="3.33023">
        <ele>309</ele>
        <time>2024-08-11T11:50:15Z</time>
      </trkpt>
      <trkpt lat="45.90522" lon="3.33026">
        <ele>309</ele>
        <time>2024-08-11T11:50:16Z</time>
      </trkpt>
      <trkpt lat="45.90529" lon="3.33028">
        <ele>309</ele>
        <time>2024-08-11T11:50:17Z</time>
      </trkpt>
      <trkpt lat="45.90535" lon="3.33029">
        <ele>309</ele>
        <time>2024-08-11T11:50:18Z</time>
      </trkpt>
      <trkpt lat="45.90542" lon="3.33031">
        <ele>309</ele>
        <time>2024-08-11T11:50:19Z</time>
      </trkpt>
      <trkpt lat="45.90549" lon="3.33033">
        <ele>309</ele>
        <time>2024-08-11T11:50:20Z</time>
      </trkpt>
      <trkpt lat="45.90555" lon="3.33034">
        <ele>309</ele>
        <time>2024-08-11T11:50:21Z</time>
      </trkpt>
      <trkpt lat="45.90562" lon="3.33036">
        <ele>308.8</ele>
        <time>2024-08-11T11:50:22Z</time>
      </trkpt>
      <trkpt lat="45.90568" lon="3.33038">
        <ele>308.8</ele>
        <time>2024-08-11T11:50:23Z</time>
      </trkpt>
      <trkpt lat="45.90575" lon="3.3304">
        <ele>308.8</ele>
        <time>2024-08-11T11:50:24Z</time>
      </trkpt>
      <trkpt lat="45.90582" lon="3.33041">
        <ele>308.8</ele>
        <time>2024-08-11T11:50:25Z</time>
      </trkpt>
      <trkpt lat="45.90588" lon="3.33043">
        <ele>308.8</ele>
        <time>2024-08-11T11:50:26Z</time>
      </trkpt>
      <trkpt lat="45.90595" lon="3.33045">
        <ele>308.8</ele>
        <time>2024-08-11T11:50:27Z</time>
      </trkpt>
      <trkpt lat="45.90602" lon="3.33046">
        <ele>308.8</ele>
        <time>2024-08-11T11:50:28Z</time>
      </trkpt>
      <trkpt lat="45.90609" lon="3.33048">
        <ele>308.8</ele>
        <time>2024-08-11T11:50:29Z</time>
      </trkpt>
      <trkpt lat="45.90615" lon="3.3305">
        <ele>308.6</ele>
        <time>2024-08-11T11:50:30Z</time>
      </trkpt>
      <trkpt lat="45.90622" lon="3.33052">
        <ele>308.6</ele>
        <time>2024-08-11T11:50:31Z</time>
      </trkpt>
      <trkpt lat="45.90629" lon="3.33053">
        <ele>308.6</ele>
        <time>2024-08-11T11:50:32Z</time>
      </trkpt>
      <trkpt lat="45.90636" lon="3.33055">
        <ele>308.6</ele>
        <time>2024-08-11T11:50:33Z</time>
      </trkpt>
      <trkpt lat="45.90643" lon="3.33057">
        <ele>308.6</ele>
        <time>2024-08-11T11:50:34Z</time>
      </trkpt>
      <trkpt lat="45.9065" lon="3.33059">
        <ele>308.6</ele>
        <time>2024-08-11T11:50:35Z</time>
      </trkpt>
      <trkpt lat="45.90657" lon="3.3306">
        <ele>308.6</ele>
        <time>2024-08-11T11:50:36Z</time>
      </trkpt>
      <trkpt lat="45.90663" lon="3.33062">
        <ele>308.6</ele>
        <time>2024-08-11T11:50:37Z</time>
      </trkpt>
      <trkpt lat="45.9067" lon="3.33064">
        <ele>308.6</ele>
        <time>2024-08-11T11:50:38Z</time>
      </trkpt>
      <trkpt lat="45.90677" lon="3.33066">
        <ele>308.6</ele>
        <time>2024-08-11T11:50:39Z</time>
      </trkpt>
      <trkpt lat="45.90684" lon="3.33067">
        <ele>308.4</ele>
        <time>2024-08-11T11:50:40Z</time>
      </trkpt>
      <trkpt lat="45.90691" lon="3.33069">
        <ele>308.4</ele>
        <time>2024-08-11T11:50:41Z</time>
      </trkpt>
      <trkpt lat="45.90698" lon="3.33071">
        <ele>308.4</ele>
        <time>2024-08-11T11:50:42Z</time>
      </trkpt>
      <trkpt lat="45.90705" lon="3.33073">
        <ele>308.4</ele>
        <time>2024-08-11T11:50:43Z</time>
      </trkpt>
      <trkpt lat="45.90712" lon="3.33075">
        <ele>308.4</ele>
        <time>2024-08-11T11:50:44Z</time>
      </trkpt>
      <trkpt lat="45.90719" lon="3.33078">
        <ele>308.4</ele>
        <time>2024-08-11T11:50:45Z</time>
      </trkpt>
      <trkpt lat="45.90726" lon="3.3308">
        <ele>308.4</ele>
        <time>2024-08-11T11:50:46Z</time>
      </trkpt>
      <trkpt lat="45.90733" lon="3.33082">
        <ele>308.4</ele>
        <time>2024-08-11T11:50:47Z</time>
      </trkpt>
      <trkpt lat="45.9074" lon="3.33085">
        <ele>308.4</ele>
        <time>2024-08-11T11:50:48Z</time>
      </trkpt>
      <trkpt lat="45.90747" lon="3.33087">
        <ele>308.4</ele>
        <time>2024-08-11T11:50:49Z</time>
      </trkpt>
      <trkpt lat="45.90754" lon="3.33089">
        <ele>308.4</ele>
        <time>2024-08-11T11:50:50Z</time>
      </trkpt>
      <trkpt lat="45.90761" lon="3.33092">
        <ele>308.4</ele>
        <time>2024-08-11T11:50:51Z</time>
      </trkpt>
      <trkpt lat="45.90768" lon="3.33094">
        <ele>308.4</ele>
        <time>2024-08-11T11:50:52Z</time>
      </trkpt>
      <trkpt lat="45.90775" lon="3.33097">
        <ele>308.4</ele>
        <time>2024-08-11T11:50:53Z</time>
      </trkpt>
      <trkpt lat="45.90782" lon="3.33099">
        <ele>308.4</ele>
        <time>2024-08-11T11:50:54Z</time>
      </trkpt>
      <trkpt lat="45.90789" lon="3.33101">
        <ele>308.4</ele>
        <time>2024-08-11T11:50:55Z</time>
      </trkpt>
      <trkpt lat="45.90796" lon="3.33104">
        <ele>308.4</ele>
        <time>2024-08-11T11:50:56Z</time>
      </trkpt>
      <trkpt lat="45.90803" lon="3.33106">
        <ele>308.4</ele>
        <time>2024-08-11T11:50:57Z</time>
      </trkpt>
      <trkpt lat="45.9081" lon="3.33108">
        <ele>308.4</ele>
        <time>2024-08-11T11:50:58Z</time>
      </trkpt>
      <trkpt lat="45.90817" lon="3.33111">
        <ele>308.4</ele>
        <time>2024-08-11T11:50:59Z</time>
      </trkpt>
      <trkpt lat="45.90824" lon="3.33113">
        <ele>308.4</ele>
        <time>2024-08-11T11:51:00Z</time>
      </trkpt>
      <trkpt lat="45.90831" lon="3.33115">
        <ele>308.4</ele>
        <time>2024-08-11T11:51:01Z</time>
      </trkpt>
      <trkpt lat="45.90838" lon="3.33118">
        <ele>308.4</ele>
        <time>2024-08-11T11:51:02Z</time>
      </trkpt>
      <trkpt lat="45.90845" lon="3.3312">
        <ele>308.4</ele>
        <time>2024-08-11T11:51:03Z</time>
      </trkpt>
      <trkpt lat="45.90852" lon="3.33122">
        <ele>308.4</ele>
        <time>2024-08-11T11:51:04Z</time>
      </trkpt>
      <trkpt lat="45.90859" lon="3.33125">
        <ele>308.4</ele>
        <time>2024-08-11T11:51:05Z</time>
      </trkpt>
      <trkpt lat="45.90866" lon="3.33127">
        <ele>308.4</ele>
        <time>2024-08-11T11:51:06Z</time>
      </trkpt>
      <trkpt lat="45.90873" lon="3.33129">
        <ele>308.4</ele>
        <time>2024-08-11T11:51:07Z</time>
      </trkpt>
      <trkpt lat="45.90879" lon="3.33132">
        <ele>308.4</ele>
        <time>2024-08-11T11:51:08Z</time>
      </trkpt>
      <trkpt lat="45.90886" lon="3.33135">
        <ele>308.4</ele>
        <time>2024-08-11T11:51:09Z</time>
      </trkpt>
      <trkpt lat="45.90892" lon="3.33138">
        <ele>308.2</ele>
        <time>2024-08-11T11:51:10Z</time>
      </trkpt>
      <trkpt lat="45.90899" lon="3.3314">
        <ele>308.4</ele>
        <time>2024-08-11T11:51:11Z</time>
      </trkpt>
      <trkpt lat="45.90906" lon="3.33143">
        <ele>308.4</ele>
        <time>2024-08-11T11:51:12Z</time>
      </trkpt>
      <trkpt lat="45.90912" lon="3.33146">
        <ele>308.4</ele>
        <time>2024-08-11T11:51:13Z</time>
      </trkpt>
      <trkpt lat="45.90919" lon="3.33149">
        <ele>308.4</ele>
        <time>2024-08-11T11:51:14Z</time>
      </trkpt>
      <trkpt lat="45.90925" lon="3.33151">
        <ele>308.4</ele>
        <time>2024-08-11T11:51:15Z</time>
      </trkpt>
      <trkpt lat="45.90931" lon="3.33154">
        <ele>308.4</ele>
        <time>2024-08-11T11:51:16Z</time>
      </trkpt>
      <trkpt lat="45.90938" lon="3.33157">
        <ele>308.4</ele>
        <time>2024-08-11T11:51:17Z</time>
      </trkpt>
      <trkpt lat="45.90944" lon="3.33159">
        <ele>308.4</ele>
        <time>2024-08-11T11:51:18Z</time>
      </trkpt>
      <trkpt lat="45.90951" lon="3.33162">
        <ele>308.6</ele>
        <time>2024-08-11T11:51:19Z</time>
      </trkpt>
      <trkpt lat="45.90957" lon="3.33165">
        <ele>308.6</ele>
        <time>2024-08-11T11:51:20Z</time>
      </trkpt>
      <trkpt lat="45.90963" lon="3.33168">
        <ele>308.6</ele>
        <time>2024-08-11T11:51:21Z</time>
      </trkpt>
      <trkpt lat="45.9097" lon="3.33171">
        <ele>308.6</ele>
        <time>2024-08-11T11:51:22Z</time>
      </trkpt>
      <trkpt lat="45.90976" lon="3.33174">
        <ele>308.6</ele>
        <time>2024-08-11T11:51:23Z</time>
      </trkpt>
      <trkpt lat="45.90983" lon="3.33177">
        <ele>308.6</ele>
        <time>2024-08-11T11:51:24Z</time>
      </trkpt>
      <trkpt lat="45.90989" lon="3.3318">
        <ele>308.6</ele>
        <time>2024-08-11T11:51:25Z</time>
      </trkpt>
      <trkpt lat="45.90995" lon="3.33183">
        <ele>308.6</ele>
        <time>2024-08-11T11:51:26Z</time>
      </trkpt>
      <trkpt lat="45.91001" lon="3.33186">
        <ele>308.6</ele>
        <time>2024-08-11T11:51:27Z</time>
      </trkpt>
      <trkpt lat="45.91007" lon="3.3319">
        <ele>308.6</ele>
        <time>2024-08-11T11:51:28Z</time>
      </trkpt>
      <trkpt lat="45.91014" lon="3.33193">
        <ele>308.6</ele>
        <time>2024-08-11T11:51:29Z</time>
      </trkpt>
      <trkpt lat="45.9102" lon="3.33196">
        <ele>308.6</ele>
        <time>2024-08-11T11:51:30Z</time>
      </trkpt>
      <trkpt lat="45.91026" lon="3.332">
        <ele>308.6</ele>
        <time>2024-08-11T11:51:31Z</time>
      </trkpt>
      <trkpt lat="45.91032" lon="3.33205">
        <ele>308.6</ele>
        <time>2024-08-11T11:51:32Z</time>
      </trkpt>
      <trkpt lat="45.91038" lon="3.33209">
        <ele>308.6</ele>
        <time>2024-08-11T11:51:33Z</time>
      </trkpt>
      <trkpt lat="45.91044" lon="3.33213">
        <ele>308.6</ele>
        <time>2024-08-11T11:51:34Z</time>
      </trkpt>
      <trkpt lat="45.9105" lon="3.33217">
        <ele>308.6</ele>
        <time>2024-08-11T11:51:35Z</time>
      </trkpt>
      <trkpt lat="45.91056" lon="3.33222">
        <ele>308.6</ele>
        <time>2024-08-11T11:51:36Z</time>
      </trkpt>
      <trkpt lat="45.91062" lon="3.33227">
        <ele>308.6</ele>
        <time>2024-08-11T11:51:37Z</time>
      </trkpt>
      <trkpt lat="45.91067" lon="3.33233">
        <ele>308.6</ele>
        <time>2024-08-11T11:51:38Z</time>
      </trkpt>
      <trkpt lat="45.91073" lon="3.33239">
        <ele>308.6</ele>
        <time>2024-08-11T11:51:39Z</time>
      </trkpt>
      <trkpt lat="45.91078" lon="3.33245">
        <ele>308.8</ele>
        <time>2024-08-11T11:51:40Z</time>
      </trkpt>
      <trkpt lat="45.91083" lon="3.33251">
        <ele>308.8</ele>
        <time>2024-08-11T11:51:41Z</time>
      </trkpt>
      <trkpt lat="45.91089" lon="3.33257">
        <ele>308.8</ele>
        <time>2024-08-11T11:51:42Z</time>
      </trkpt>
      <trkpt lat="45.91094" lon="3.33263">
        <ele>308.8</ele>
        <time>2024-08-11T11:51:43Z</time>
      </trkpt>
      <trkpt lat="45.911" lon="3.33269">
        <ele>308.6</ele>
        <time>2024-08-11T11:51:44Z</time>
      </trkpt>
      <trkpt lat="45.91104" lon="3.33278">
        <ele>308.8</ele>
        <time>2024-08-11T11:51:45Z</time>
      </trkpt>
      <trkpt lat="45.91107" lon="3.33287">
        <ele>308.8</ele>
        <time>2024-08-11T11:51:46Z</time>
      </trkpt>
      <trkpt lat="45.9111" lon="3.33296">
        <ele>308.8</ele>
        <time>2024-08-11T11:51:47Z</time>
      </trkpt>
      <trkpt lat="45.91113" lon="3.33304">
        <ele>308.8</ele>
        <time>2024-08-11T11:51:48Z</time>
      </trkpt>
      <trkpt lat="45.91116" lon="3.33313">
        <ele>308.8</ele>
        <time>2024-08-11T11:51:49Z</time>
      </trkpt>
      <trkpt lat="45.9112" lon="3.33322">
        <ele>308.8</ele>
        <time>2024-08-11T11:51:50Z</time>
      </trkpt>
      <trkpt lat="45.91123" lon="3.33331">
        <ele>308.8</ele>
        <time>2024-08-11T11:51:51Z</time>
      </trkpt>
      <trkpt lat="45.91126" lon="3.3334">
        <ele>308.8</ele>
        <time>2024-08-11T11:51:52Z</time>
      </trkpt>
      <trkpt lat="45.91128" lon="3.33349">
        <ele>308.8</ele>
        <time>2024-08-11T11:51:53Z</time>
      </trkpt>
      <trkpt lat="45.91134" lon="3.33358">
        <ele>308.8</ele>
        <time>2024-08-11T11:51:54Z</time>
      </trkpt>
      <trkpt lat="45.91139" lon="3.33365">
        <ele>308.8</ele>
        <time>2024-08-11T11:51:55Z</time>
      </trkpt>
      <trkpt lat="45.91146" lon="3.33371">
        <ele>308.8</ele>
        <time>2024-08-11T11:51:56Z</time>
      </trkpt>
      <trkpt lat="45.91153" lon="3.33371">
        <ele>308.8</ele>
        <time>2024-08-11T11:51:57Z</time>
      </trkpt>
      <trkpt lat="45.91159" lon="3.33376">
        <ele>309</ele>
        <time>2024-08-11T11:51:58Z</time>
      </trkpt>
      <trkpt lat="45.91165" lon="3.33382">
        <ele>309</ele>
        <time>2024-08-11T11:51:59Z</time>
      </trkpt>
      <trkpt lat="45.91171" lon="3.33389">
        <ele>309</ele>
        <time>2024-08-11T11:52:00Z</time>
      </trkpt>
      <trkpt lat="45.91177" lon="3.33395">
        <ele>309</ele>
        <time>2024-08-11T11:52:01Z</time>
      </trkpt>
      <trkpt lat="45.91184" lon="3.33401">
        <ele>308.8</ele>
        <time>2024-08-11T11:52:02Z</time>
      </trkpt>
      <trkpt lat="45.9119" lon="3.33408">
        <ele>309</ele>
        <time>2024-08-11T11:52:03Z</time>
      </trkpt>
      <trkpt lat="45.91196" lon="3.33414">
        <ele>309</ele>
        <time>2024-08-11T11:52:04Z</time>
      </trkpt>
      <trkpt lat="45.91201" lon="3.33421">
        <ele>308.8</ele>
        <time>2024-08-11T11:52:05Z</time>
      </trkpt>
      <trkpt lat="45.91206" lon="3.33428">
        <ele>308.8</ele>
        <time>2024-08-11T11:52:06Z</time>
      </trkpt>
      <trkpt lat="45.91212" lon="3.33434">
        <ele>309</ele>
        <time>2024-08-11T11:52:07Z</time>
      </trkpt>
      <trkpt lat="45.91217" lon="3.33441">
        <ele>308.8</ele>
        <time>2024-08-11T11:52:08Z</time>
      </trkpt>
      <trkpt lat="45.91222" lon="3.33447">
        <ele>309</ele>
        <time>2024-08-11T11:52:09Z</time>
      </trkpt>
      <trkpt lat="45.91227" lon="3.33454">
        <ele>309</ele>
        <time>2024-08-11T11:52:10Z</time>
      </trkpt>
      <trkpt lat="45.91232" lon="3.3346">
        <ele>309</ele>
        <time>2024-08-11T11:52:11Z</time>
      </trkpt>
      <trkpt lat="45.91237" lon="3.33467">
        <ele>309</ele>
        <time>2024-08-11T11:52:12Z</time>
      </trkpt>
      <trkpt lat="45.91242" lon="3.33473">
        <ele>309</ele>
        <time>2024-08-11T11:52:13Z</time>
      </trkpt>
      <trkpt lat="45.91247" lon="3.3348">
        <ele>309</ele>
        <time>2024-08-11T11:52:14Z</time>
      </trkpt>
      <trkpt lat="45.91252" lon="3.33486">
        <ele>309</ele>
        <time>2024-08-11T11:52:15Z</time>
      </trkpt>
      <trkpt lat="45.91257" lon="3.33493">
        <ele>309</ele>
        <time>2024-08-11T11:52:16Z</time>
      </trkpt>
      <trkpt lat="45.91262" lon="3.33499">
        <ele>309</ele>
        <time>2024-08-11T11:52:17Z</time>
      </trkpt>
      <trkpt lat="45.91267" lon="3.33506">
        <ele>309.2</ele>
        <time>2024-08-11T11:52:18Z</time>
      </trkpt>
      <trkpt lat="45.91271" lon="3.33512">
        <ele>309</ele>
        <time>2024-08-11T11:52:19Z</time>
      </trkpt>
      <trkpt lat="45.91276" lon="3.33518">
        <ele>309</ele>
        <time>2024-08-11T11:52:20Z</time>
      </trkpt>
      <trkpt lat="45.91281" lon="3.33524">
        <ele>309</ele>
        <time>2024-08-11T11:52:21Z</time>
      </trkpt>
      <trkpt lat="45.91287" lon="3.33531">
        <ele>309</ele>
        <time>2024-08-11T11:52:22Z</time>
      </trkpt>
      <trkpt lat="45.91293" lon="3.33535">
        <ele>309</ele>
        <time>2024-08-11T11:52:23Z</time>
      </trkpt>
      <trkpt lat="45.91299" lon="3.33538">
        <ele>309</ele>
        <time>2024-08-11T11:52:24Z</time>
      </trkpt>
      <trkpt lat="45.91305" lon="3.33542">
        <ele>309</ele>
        <time>2024-08-11T11:52:25Z</time>
      </trkpt>
      <trkpt lat="45.91311" lon="3.33547">
        <ele>309.2</ele>
        <time>2024-08-11T11:52:26Z</time>
      </trkpt>
      <trkpt lat="45.91317" lon="3.33551">
        <ele>309.2</ele>
        <time>2024-08-11T11:52:27Z</time>
      </trkpt>
      <trkpt lat="45.91323" lon="3.33555">
        <ele>309.2</ele>
        <time>2024-08-11T11:52:28Z</time>
      </trkpt>
      <trkpt lat="45.91329" lon="3.33559">
        <ele>309.2</ele>
        <time>2024-08-11T11:52:29Z</time>
      </trkpt>
      <trkpt lat="45.91335" lon="3.33563">
        <ele>309.2</ele>
        <time>2024-08-11T11:52:30Z</time>
      </trkpt>
      <trkpt lat="45.91341" lon="3.33567">
        <ele>309.2</ele>
        <time>2024-08-11T11:52:31Z</time>
      </trkpt>
      <trkpt lat="45.91348" lon="3.33571">
        <ele>309.2</ele>
        <time>2024-08-11T11:52:32Z</time>
      </trkpt>
      <trkpt lat="45.91354" lon="3.33575">
        <ele>309.2</ele>
        <time>2024-08-11T11:52:33Z</time>
      </trkpt>
      <trkpt lat="45.9136" lon="3.33578">
        <ele>309.2</ele>
        <time>2024-08-11T11:52:34Z</time>
      </trkpt>
      <trkpt lat="45.91367" lon="3.33581">
        <ele>309.2</ele>
        <time>2024-08-11T11:52:35Z</time>
      </trkpt>
      <trkpt lat="45.91374" lon="3.33584">
        <ele>309.2</ele>
        <time>2024-08-11T11:52:36Z</time>
      </trkpt>
      <trkpt lat="45.9138" lon="3.33586">
        <ele>309.2</ele>
        <time>2024-08-11T11:52:37Z</time>
      </trkpt>
      <trkpt lat="45.91387" lon="3.33589">
        <ele>309.2</ele>
        <time>2024-08-11T11:52:38Z</time>
      </trkpt>
      <trkpt lat="45.91393" lon="3.33591">
        <ele>309.2</ele>
        <time>2024-08-11T11:52:39Z</time>
      </trkpt>
      <trkpt lat="45.914" lon="3.33594">
        <ele>309.2</ele>
        <time>2024-08-11T11:52:40Z</time>
      </trkpt>
      <trkpt lat="45.91406" lon="3.33596">
        <ele>309.2</ele>
        <time>2024-08-11T11:52:41Z</time>
      </trkpt>
      <trkpt lat="45.91412" lon="3.33599">
        <ele>309.2</ele>
        <time>2024-08-11T11:52:42Z</time>
      </trkpt>
      <trkpt lat="45.91418" lon="3.33601">
        <ele>309.2</ele>
        <time>2024-08-11T11:52:43Z</time>
      </trkpt>
      <trkpt lat="45.91423" lon="3.33603">
        <ele>309.2</ele>
        <time>2024-08-11T11:52:44Z</time>
      </trkpt>
      <trkpt lat="45.9143" lon="3.33605">
        <ele>309.2</ele>
        <time>2024-08-11T11:52:45Z</time>
      </trkpt>
      <trkpt lat="45.91436" lon="3.33607">
        <ele>309.2</ele>
        <time>2024-08-11T11:52:46Z</time>
      </trkpt>
      <trkpt lat="45.91443" lon="3.33609">
        <ele>309.2</ele>
        <time>2024-08-11T11:52:47Z</time>
      </trkpt>
      <trkpt lat="45.9145" lon="3.3361">
        <ele>309.2</ele>
        <time>2024-08-11T11:52:48Z</time>
      </trkpt>
      <trkpt lat="45.91456" lon="3.33612">
        <ele>309</ele>
        <time>2024-08-11T11:52:49Z</time>
      </trkpt>
      <trkpt lat="45.91463" lon="3.33613">
        <ele>309</ele>
        <time>2024-08-11T11:52:50Z</time>
      </trkpt>
      <trkpt lat="45.9147" lon="3.33615">
        <ele>309.2</ele>
        <time>2024-08-11T11:52:51Z</time>
      </trkpt>
      <trkpt lat="45.91476" lon="3.33617">
        <ele>309</ele>
        <time>2024-08-11T11:52:52Z</time>
      </trkpt>
      <trkpt lat="45.91483" lon="3.33618">
        <ele>309</ele>
        <time>2024-08-11T11:52:53Z</time>
      </trkpt>
      <trkpt lat="45.91489" lon="3.3362">
        <ele>309</ele>
        <time>2024-08-11T11:52:54Z</time>
      </trkpt>
      <trkpt lat="45.91496" lon="3.33622">
        <ele>309</ele>
        <time>2024-08-11T11:52:55Z</time>
      </trkpt>
      <trkpt lat="45.91502" lon="3.33623">
        <ele>309</ele>
        <time>2024-08-11T11:52:56Z</time>
      </trkpt>
      <trkpt lat="45.91508" lon="3.33625">
        <ele>309</ele>
        <time>2024-08-11T11:52:57Z</time>
      </trkpt>
      <trkpt lat="45.91515" lon="3.33626">
        <ele>309</ele>
        <time>2024-08-11T11:52:58Z</time>
      </trkpt>
      <trkpt lat="45.91521" lon="3.33628">
        <ele>308.8</ele>
        <time>2024-08-11T11:52:59Z</time>
      </trkpt>
      <trkpt lat="45.91528" lon="3.3363">
        <ele>308.8</ele>
        <time>2024-08-11T11:53:00Z</time>
      </trkpt>
      <trkpt lat="45.91534" lon="3.33631">
        <ele>308.8</ele>
        <time>2024-08-11T11:53:01Z</time>
      </trkpt>
      <trkpt lat="45.91541" lon="3.33633">
        <ele>308.8</ele>
        <time>2024-08-11T11:53:02Z</time>
      </trkpt>
      <trkpt lat="45.91547" lon="3.33634">
        <ele>308.8</ele>
        <time>2024-08-11T11:53:03Z</time>
      </trkpt>
      <trkpt lat="45.91553" lon="3.33636">
        <ele>308.8</ele>
        <time>2024-08-11T11:53:04Z</time>
      </trkpt>
      <trkpt lat="45.9156" lon="3.33638">
        <ele>308.8</ele>
        <time>2024-08-11T11:53:05Z</time>
      </trkpt>
      <trkpt lat="45.91566" lon="3.33639">
        <ele>308.8</ele>
        <time>2024-08-11T11:53:06Z</time>
      </trkpt>
      <trkpt lat="45.91573" lon="3.33641">
        <ele>308.8</ele>
        <time>2024-08-11T11:53:07Z</time>
      </trkpt>
      <trkpt lat="45.91579" lon="3.33642">
        <ele>308.8</ele>
        <time>2024-08-11T11:53:08Z</time>
      </trkpt>
      <trkpt lat="45.91586" lon="3.33644">
        <ele>308.8</ele>
        <time>2024-08-11T11:53:09Z</time>
      </trkpt>
      <trkpt lat="45.91592" lon="3.33646">
        <ele>308.6</ele>
        <time>2024-08-11T11:53:10Z</time>
      </trkpt>
      <trkpt lat="45.91599" lon="3.33647">
        <ele>308.6</ele>
        <time>2024-08-11T11:53:11Z</time>
      </trkpt>
      <trkpt lat="45.91605" lon="3.33649">
        <ele>308.6</ele>
        <time>2024-08-11T11:53:12Z</time>
      </trkpt>
      <trkpt lat="45.91612" lon="3.3365">
        <ele>308.6</ele>
        <time>2024-08-11T11:53:13Z</time>
      </trkpt>
      <trkpt lat="45.91618" lon="3.33652">
        <ele>308.6</ele>
        <time>2024-08-11T11:53:14Z</time>
      </trkpt>
      <trkpt lat="45.91631" lon="3.33655">
        <ele>308.6</ele>
        <time>2024-08-11T11:53:15Z</time>
      </trkpt>
      <trkpt lat="45.91631" lon="3.33655">
        <ele>308.6</ele>
        <time>2024-08-11T11:53:16Z</time>
      </trkpt>
      <trkpt lat="45.91637" lon="3.33657">
        <ele>308.6</ele>
        <time>2024-08-11T11:53:17Z</time>
      </trkpt>
      <trkpt lat="45.91643" lon="3.33658">
        <ele>308.6</ele>
        <time>2024-08-11T11:53:18Z</time>
      </trkpt>
      <trkpt lat="45.9165" lon="3.3366">
        <ele>308.6</ele>
        <time>2024-08-11T11:53:19Z</time>
      </trkpt>
      <trkpt lat="45.91656" lon="3.33661">
        <ele>308.6</ele>
        <time>2024-08-11T11:53:20Z</time>
      </trkpt>
      <trkpt lat="45.91662" lon="3.33663">
        <ele>308.4</ele>
        <time>2024-08-11T11:53:21Z</time>
      </trkpt>
      <trkpt lat="45.91668" lon="3.33665">
        <ele>308.4</ele>
        <time>2024-08-11T11:53:22Z</time>
      </trkpt>
      <trkpt lat="45.91675" lon="3.33668">
        <ele>308.4</ele>
        <time>2024-08-11T11:53:23Z</time>
      </trkpt>
      <trkpt lat="45.91681" lon="3.3367">
        <ele>308.4</ele>
        <time>2024-08-11T11:53:24Z</time>
      </trkpt>
      <trkpt lat="45.91687" lon="3.33672">
        <ele>308.4</ele>
        <time>2024-08-11T11:53:25Z</time>
      </trkpt>
      <trkpt lat="45.91694" lon="3.33675">
        <ele>308.4</ele>
        <time>2024-08-11T11:53:26Z</time>
      </trkpt>
      <trkpt lat="45.917" lon="3.33677">
        <ele>308.4</ele>
        <time>2024-08-11T11:53:27Z</time>
      </trkpt>
      <trkpt lat="45.91706" lon="3.33679">
        <ele>308.4</ele>
        <time>2024-08-11T11:53:28Z</time>
      </trkpt>
      <trkpt lat="45.91712" lon="3.33682">
        <ele>308.4</ele>
        <time>2024-08-11T11:53:29Z</time>
      </trkpt>
      <trkpt lat="45.91719" lon="3.33684">
        <ele>308.2</ele>
        <time>2024-08-11T11:53:30Z</time>
      </trkpt>
      <trkpt lat="45.91725" lon="3.33686">
        <ele>308.2</ele>
        <time>2024-08-11T11:53:31Z</time>
      </trkpt>
      <trkpt lat="45.91731" lon="3.33689">
        <ele>308.2</ele>
        <time>2024-08-11T11:53:32Z</time>
      </trkpt>
      <trkpt lat="45.91737" lon="3.33691">
        <ele>308.2</ele>
        <time>2024-08-11T11:53:33Z</time>
      </trkpt>
      <trkpt lat="45.91744" lon="3.33693">
        <ele>308.2</ele>
        <time>2024-08-11T11:53:34Z</time>
      </trkpt>
      <trkpt lat="45.9175" lon="3.33696">
        <ele>308</ele>
        <time>2024-08-11T11:53:35Z</time>
      </trkpt>
      <trkpt lat="45.91756" lon="3.33698">
        <ele>308</ele>
        <time>2024-08-11T11:53:36Z</time>
      </trkpt>
      <trkpt lat="45.91763" lon="3.33701">
        <ele>308</ele>
        <time>2024-08-11T11:53:37Z</time>
      </trkpt>
      <trkpt lat="45.9177" lon="3.33703">
        <ele>308</ele>
        <time>2024-08-11T11:53:38Z</time>
      </trkpt>
      <trkpt lat="45.91776" lon="3.33706">
        <ele>307.8</ele>
        <time>2024-08-11T11:53:39Z</time>
      </trkpt>
      <trkpt lat="45.91782" lon="3.33709">
        <ele>307.8</ele>
        <time>2024-08-11T11:53:40Z</time>
      </trkpt>
      <trkpt lat="45.91789" lon="3.33712">
        <ele>307.8</ele>
        <time>2024-08-11T11:53:41Z</time>
      </trkpt>
      <trkpt lat="45.91795" lon="3.33715">
        <ele>307.8</ele>
        <time>2024-08-11T11:53:42Z</time>
      </trkpt>
      <trkpt lat="45.91802" lon="3.33718">
        <ele>307.8</ele>
        <time>2024-08-11T11:53:43Z</time>
      </trkpt>
      <trkpt lat="45.91808" lon="3.33721">
        <ele>307.8</ele>
        <time>2024-08-11T11:53:44Z</time>
      </trkpt>
      <trkpt lat="45.91815" lon="3.33724">
        <ele>307.8</ele>
        <time>2024-08-11T11:53:45Z</time>
      </trkpt>
      <trkpt lat="45.91821" lon="3.33727">
        <ele>307.8</ele>
        <time>2024-08-11T11:53:46Z</time>
      </trkpt>
      <trkpt lat="45.91828" lon="3.3373">
        <ele>307.8</ele>
        <time>2024-08-11T11:53:47Z</time>
      </trkpt>
      <trkpt lat="45.91835" lon="3.33733">
        <ele>307.8</ele>
        <time>2024-08-11T11:53:48Z</time>
      </trkpt>
      <trkpt lat="45.91841" lon="3.33735">
        <ele>307.8</ele>
        <time>2024-08-11T11:53:49Z</time>
      </trkpt>
      <trkpt lat="45.91848" lon="3.33738">
        <ele>307.8</ele>
        <time>2024-08-11T11:53:50Z</time>
      </trkpt>
      <trkpt lat="45.91854" lon="3.33741">
        <ele>307.8</ele>
        <time>2024-08-11T11:53:51Z</time>
      </trkpt>
      <trkpt lat="45.91861" lon="3.33744">
        <ele>307.8</ele>
        <time>2024-08-11T11:53:52Z</time>
      </trkpt>
      <trkpt lat="45.91867" lon="3.33747">
        <ele>307.8</ele>
        <time>2024-08-11T11:53:53Z</time>
      </trkpt>
      <trkpt lat="45.91873" lon="3.3375">
        <ele>307.8</ele>
        <time>2024-08-11T11:53:54Z</time>
      </trkpt>
      <trkpt lat="45.9188" lon="3.33753">
        <ele>307.8</ele>
        <time>2024-08-11T11:53:55Z</time>
      </trkpt>
      <trkpt lat="45.91886" lon="3.33755">
        <ele>307.8</ele>
        <time>2024-08-11T11:53:56Z</time>
      </trkpt>
      <trkpt lat="45.91892" lon="3.33758">
        <ele>307.8</ele>
        <time>2024-08-11T11:53:57Z</time>
      </trkpt>
      <trkpt lat="45.91898" lon="3.33761">
        <ele>307.8</ele>
        <time>2024-08-11T11:53:58Z</time>
      </trkpt>
      <trkpt lat="45.91905" lon="3.33764">
        <ele>307.8</ele>
        <time>2024-08-11T11:53:59Z</time>
      </trkpt>
      <trkpt lat="45.91911" lon="3.33767">
        <ele>307.6</ele>
        <time>2024-08-11T11:54:00Z</time>
      </trkpt>
      <trkpt lat="45.91917" lon="3.33769">
        <ele>307.8</ele>
        <time>2024-08-11T11:54:01Z</time>
      </trkpt>
      <trkpt lat="45.91924" lon="3.33773">
        <ele>307.8</ele>
        <time>2024-08-11T11:54:02Z</time>
      </trkpt>
      <trkpt lat="45.9193" lon="3.33777">
        <ele>307.8</ele>
        <time>2024-08-11T11:54:03Z</time>
      </trkpt>
      <trkpt lat="45.91936" lon="3.33781">
        <ele>307.6</ele>
        <time>2024-08-11T11:54:04Z</time>
      </trkpt>
      <trkpt lat="45.91943" lon="3.33785">
        <ele>307.6</ele>
        <time>2024-08-11T11:54:05Z</time>
      </trkpt>
      <trkpt lat="45.91949" lon="3.3379">
        <ele>307.6</ele>
        <time>2024-08-11T11:54:06Z</time>
      </trkpt>
      <trkpt lat="45.91956" lon="3.33794">
        <ele>307.6</ele>
        <time>2024-08-11T11:54:07Z</time>
      </trkpt>
      <trkpt lat="45.91963" lon="3.33798">
        <ele>307.6</ele>
        <time>2024-08-11T11:54:08Z</time>
      </trkpt>
      <trkpt lat="45.9197" lon="3.33802">
        <ele>307.6</ele>
        <time>2024-08-11T11:54:09Z</time>
      </trkpt>
      <trkpt lat="45.91976" lon="3.33807">
        <ele>307.6</ele>
        <time>2024-08-11T11:54:10Z</time>
      </trkpt>
      <trkpt lat="45.91983" lon="3.33811">
        <ele>307.4</ele>
        <time>2024-08-11T11:54:11Z</time>
      </trkpt>
      <trkpt lat="45.9199" lon="3.33816">
        <ele>307.4</ele>
        <time>2024-08-11T11:54:12Z</time>
      </trkpt>
      <trkpt lat="45.91997" lon="3.3382">
        <ele>307.4</ele>
        <time>2024-08-11T11:54:13Z</time>
      </trkpt>
      <trkpt lat="45.92004" lon="3.33824">
        <ele>307.2</ele>
        <time>2024-08-11T11:54:14Z</time>
      </trkpt>
      <trkpt lat="45.92011" lon="3.33829">
        <ele>307.2</ele>
        <time>2024-08-11T11:54:15Z</time>
      </trkpt>
      <trkpt lat="45.92016" lon="3.33837">
        <ele>307.2</ele>
        <time>2024-08-11T11:54:16Z</time>
      </trkpt>
      <trkpt lat="45.9202" lon="3.33846">
        <ele>307.2</ele>
        <time>2024-08-11T11:54:17Z</time>
      </trkpt>
      <trkpt lat="45.92022" lon="3.33857">
        <ele>307.2</ele>
        <time>2024-08-11T11:54:18Z</time>
      </trkpt>
      <trkpt lat="45.92023" lon="3.33868">
        <ele>307</ele>
        <time>2024-08-11T11:54:19Z</time>
      </trkpt>
      <trkpt lat="45.92024" lon="3.3388">
        <ele>307</ele>
        <time>2024-08-11T11:54:20Z</time>
      </trkpt>
      <trkpt lat="45.92025" lon="3.33891">
        <ele>307</ele>
        <time>2024-08-11T11:54:21Z</time>
      </trkpt>
      <trkpt lat="45.92026" lon="3.33903">
        <ele>307</ele>
        <time>2024-08-11T11:54:22Z</time>
      </trkpt>
      <trkpt lat="45.92027" lon="3.33914">
        <ele>307</ele>
        <time>2024-08-11T11:54:23Z</time>
      </trkpt>
      <trkpt lat="45.92028" lon="3.33925">
        <ele>306.8</ele>
        <time>2024-08-11T11:54:24Z</time>
      </trkpt>
      <trkpt lat="45.92029" lon="3.33936">
        <ele>306.8</ele>
        <time>2024-08-11T11:54:25Z</time>
      </trkpt>
      <trkpt lat="45.92032" lon="3.33947">
        <ele>306.8</ele>
        <time>2024-08-11T11:54:26Z</time>
      </trkpt>
      <trkpt lat="45.92034" lon="3.33957">
        <ele>306.8</ele>
        <time>2024-08-11T11:54:27Z</time>
      </trkpt>
      <trkpt lat="45.92037" lon="3.33968">
        <ele>306.8</ele>
        <time>2024-08-11T11:54:28Z</time>
      </trkpt>
      <trkpt lat="45.92039" lon="3.33978">
        <ele>306.6</ele>
        <time>2024-08-11T11:54:29Z</time>
      </trkpt>
      <trkpt lat="45.92041" lon="3.33988">
        <ele>306.6</ele>
        <time>2024-08-11T11:54:30Z</time>
      </trkpt>
      <trkpt lat="45.92043" lon="3.33997">
        <ele>306.6</ele>
        <time>2024-08-11T11:54:31Z</time>
      </trkpt>
      <trkpt lat="45.92046" lon="3.34007">
        <ele>306.6</ele>
        <time>2024-08-11T11:54:32Z</time>
      </trkpt>
      <trkpt lat="45.92048" lon="3.34016">
        <ele>306.6</ele>
        <time>2024-08-11T11:54:33Z</time>
      </trkpt>
      <trkpt lat="45.92051" lon="3.34025">
        <ele>306.6</ele>
        <time>2024-08-11T11:54:34Z</time>
      </trkpt>
      <trkpt lat="45.92055" lon="3.34034">
        <ele>306.6</ele>
        <time>2024-08-11T11:54:35Z</time>
      </trkpt>
      <trkpt lat="45.92059" lon="3.34042">
        <ele>306.6</ele>
        <time>2024-08-11T11:54:36Z</time>
      </trkpt>
      <trkpt lat="45.92062" lon="3.34051">
        <ele>306.4</ele>
        <time>2024-08-11T11:54:37Z</time>
      </trkpt>
      <trkpt lat="45.92066" lon="3.34059">
        <ele>306.4</ele>
        <time>2024-08-11T11:54:38Z</time>
      </trkpt>
      <trkpt lat="45.9207" lon="3.34068">
        <ele>306.4</ele>
        <time>2024-08-11T11:54:39Z</time>
      </trkpt>
      <trkpt lat="45.92074" lon="3.34077">
        <ele>306.2</ele>
        <time>2024-08-11T11:54:40Z</time>
      </trkpt>
      <trkpt lat="45.92078" lon="3.34086">
        <ele>306.2</ele>
        <time>2024-08-11T11:54:41Z</time>
      </trkpt>
      <trkpt lat="45.92082" lon="3.34095">
        <ele>306</ele>
        <time>2024-08-11T11:54:42Z</time>
      </trkpt>
      <trkpt lat="45.92087" lon="3.34104">
        <ele>306</ele>
        <time>2024-08-11T11:54:43Z</time>
      </trkpt>
      <trkpt lat="45.92088" lon="3.34114">
        <ele>306</ele>
        <time>2024-08-11T11:54:44Z</time>
      </trkpt>
      <trkpt lat="45.92089" lon="3.34125">
        <ele>306</ele>
        <time>2024-08-11T11:54:45Z</time>
      </trkpt>
      <trkpt lat="45.9209" lon="3.34135">
        <ele>305.8</ele>
        <time>2024-08-11T11:54:46Z</time>
      </trkpt>
      <trkpt lat="45.92091" lon="3.34146">
        <ele>305.8</ele>
        <time>2024-08-11T11:54:47Z</time>
      </trkpt>
      <trkpt lat="45.92092" lon="3.34157">
        <ele>305.8</ele>
        <time>2024-08-11T11:54:48Z</time>
      </trkpt>
      <trkpt lat="45.92093" lon="3.34169">
        <ele>305.6</ele>
        <time>2024-08-11T11:54:49Z</time>
      </trkpt>
      <trkpt lat="45.92094" lon="3.3418">
        <ele>305.6</ele>
        <time>2024-08-11T11:54:50Z</time>
      </trkpt>
      <trkpt lat="45.92095" lon="3.34191">
        <ele>305.4</ele>
        <time>2024-08-11T11:54:51Z</time>
      </trkpt>
      <trkpt lat="45.92096" lon="3.34202">
        <ele>305.4</ele>
        <time>2024-08-11T11:54:52Z</time>
      </trkpt>
      <trkpt lat="45.92096" lon="3.34213">
        <ele>305.2</ele>
        <time>2024-08-11T11:54:53Z</time>
      </trkpt>
      <trkpt lat="45.92097" lon="3.34224">
        <ele>305.2</ele>
        <time>2024-08-11T11:54:54Z</time>
      </trkpt>
      <trkpt lat="45.92098" lon="3.34235">
        <ele>305.2</ele>
        <time>2024-08-11T11:54:55Z</time>
      </trkpt>
      <trkpt lat="45.92099" lon="3.34246">
        <ele>305</ele>
        <time>2024-08-11T11:54:56Z</time>
      </trkpt>
      <trkpt lat="45.921" lon="3.34257">
        <ele>304.8</ele>
        <time>2024-08-11T11:54:57Z</time>
      </trkpt>
      <trkpt lat="45.92101" lon="3.34268">
        <ele>304.8</ele>
        <time>2024-08-11T11:54:58Z</time>
      </trkpt>
      <trkpt lat="45.92101" lon="3.34279">
        <ele>304.8</ele>
        <time>2024-08-11T11:54:59Z</time>
      </trkpt>
      <trkpt lat="45.92101" lon="3.34289">
        <ele>304.8</ele>
        <time>2024-08-11T11:55:00Z</time>
      </trkpt>
      <trkpt lat="45.92101" lon="3.343">
        <ele>304.8</ele>
        <time>2024-08-11T11:55:01Z</time>
      </trkpt>
      <trkpt lat="45.92101" lon="3.3431">
        <ele>304.8</ele>
        <time>2024-08-11T11:55:02Z</time>
      </trkpt>
      <trkpt lat="45.92101" lon="3.34321">
        <ele>304.8</ele>
        <time>2024-08-11T11:55:03Z</time>
      </trkpt>
      <trkpt lat="45.92101" lon="3.34331">
        <ele>304.8</ele>
        <time>2024-08-11T11:55:04Z</time>
      </trkpt>
      <trkpt lat="45.92101" lon="3.34342">
        <ele>304.8</ele>
        <time>2024-08-11T11:55:05Z</time>
      </trkpt>
      <trkpt lat="45.92099" lon="3.34352">
        <ele>304.8</ele>
        <time>2024-08-11T11:55:06Z</time>
      </trkpt>
      <trkpt lat="45.92097" lon="3.34361">
        <ele>304.8</ele>
        <time>2024-08-11T11:55:07Z</time>
      </trkpt>
      <trkpt lat="45.92095" lon="3.34371">
        <ele>304.8</ele>
        <time>2024-08-11T11:55:08Z</time>
      </trkpt>
      <trkpt lat="45.92092" lon="3.34382">
        <ele>305</ele>
        <time>2024-08-11T11:55:09Z</time>
      </trkpt>
      <trkpt lat="45.9209" lon="3.34392">
        <ele>304.8</ele>
        <time>2024-08-11T11:55:10Z</time>
      </trkpt>
      <trkpt lat="45.92085" lon="3.34401">
        <ele>304.8</ele>
        <time>2024-08-11T11:55:11Z</time>
      </trkpt>
      <trkpt lat="45.9208" lon="3.34409">
        <ele>304.6</ele>
        <time>2024-08-11T11:55:12Z</time>
      </trkpt>
      <trkpt lat="45.92075" lon="3.34416">
        <ele>304.6</ele>
        <time>2024-08-11T11:55:13Z</time>
      </trkpt>
      <trkpt lat="45.9207" lon="3.34423">
        <ele>304.6</ele>
        <time>2024-08-11T11:55:14Z</time>
      </trkpt>
      <trkpt lat="45.92065" lon="3.3443">
        <ele>304.6</ele>
        <time>2024-08-11T11:55:15Z</time>
      </trkpt>
      <trkpt lat="45.92061" lon="3.34435">
        <ele>304.6</ele>
        <time>2024-08-11T11:55:16Z</time>
      </trkpt>
      <trkpt lat="45.92057" lon="3.3444">
        <ele>304.4</ele>
        <time>2024-08-11T11:55:17Z</time>
      </trkpt>
      <trkpt lat="45.92052" lon="3.34445">
        <ele>304.4</ele>
        <time>2024-08-11T11:55:18Z</time>
      </trkpt>
      <trkpt lat="45.92047" lon="3.34451">
        <ele>304.4</ele>
        <time>2024-08-11T11:55:19Z</time>
      </trkpt>
      <trkpt lat="45.92043" lon="3.34456">
        <ele>304.4</ele>
        <time>2024-08-11T11:55:20Z</time>
      </trkpt>
      <trkpt lat="45.92038" lon="3.34461">
        <ele>304.4</ele>
        <time>2024-08-11T11:55:21Z</time>
      </trkpt>
      <trkpt lat="45.92034" lon="3.34466">
        <ele>304.4</ele>
        <time>2024-08-11T11:55:22Z</time>
      </trkpt>
      <trkpt lat="45.9203" lon="3.34471">
        <ele>304.4</ele>
        <time>2024-08-11T11:55:23Z</time>
      </trkpt>
      <trkpt lat="45.92025" lon="3.34476">
        <ele>304.4</ele>
        <time>2024-08-11T11:55:24Z</time>
      </trkpt>
      <trkpt lat="45.9202" lon="3.3448">
        <ele>304.4</ele>
        <time>2024-08-11T11:55:25Z</time>
      </trkpt>
      <trkpt lat="45.92014" lon="3.34483">
        <ele>304.6</ele>
        <time>2024-08-11T11:55:26Z</time>
      </trkpt>
      <trkpt lat="45.92009" lon="3.34487">
        <ele>304.2</ele>
        <time>2024-08-11T11:55:27Z</time>
      </trkpt>
      <trkpt lat="45.92003" lon="3.3449">
        <ele>304.4</ele>
        <time>2024-08-11T11:55:28Z</time>
      </trkpt>
      <trkpt lat="45.91998" lon="3.34494">
        <ele>304.6</ele>
        <time>2024-08-11T11:55:29Z</time>
      </trkpt>
      <trkpt lat="45.91993" lon="3.34497">
        <ele>304.8</ele>
        <time>2024-08-11T11:55:30Z</time>
      </trkpt>
      <trkpt lat="45.91988" lon="3.345">
        <ele>305</ele>
        <time>2024-08-11T11:55:31Z</time>
      </trkpt>
      <trkpt lat="45.91983" lon="3.34504">
        <ele>304.8</ele>
        <time>2024-08-11T11:55:32Z</time>
      </trkpt>
      <trkpt lat="45.91978" lon="3.34508">
        <ele>304.8</ele>
        <time>2024-08-11T11:55:33Z</time>
      </trkpt>
      <trkpt lat="45.91974" lon="3.34511">
        <ele>304.8</ele>
        <time>2024-08-11T11:55:34Z</time>
      </trkpt>
      <trkpt lat="45.91969" lon="3.34515">
        <ele>304.8</ele>
        <time>2024-08-11T11:55:35Z</time>
      </trkpt>
      <trkpt lat="45.91964" lon="3.34519">
        <ele>304.8</ele>
        <time>2024-08-11T11:55:36Z</time>
      </trkpt>
      <trkpt lat="45.91959" lon="3.34523">
        <ele>304.8</ele>
        <time>2024-08-11T11:55:37Z</time>
      </trkpt>
      <trkpt lat="45.91954" lon="3.34527">
        <ele>304.8</ele>
        <time>2024-08-11T11:55:38Z</time>
      </trkpt>
      <trkpt lat="45.91949" lon="3.34531">
        <ele>304.8</ele>
        <time>2024-08-11T11:55:39Z</time>
      </trkpt>
      <trkpt lat="45.91944" lon="3.34534">
        <ele>304.8</ele>
        <time>2024-08-11T11:55:40Z</time>
      </trkpt>
      <trkpt lat="45.91939" lon="3.34539">
        <ele>304.8</ele>
        <time>2024-08-11T11:55:41Z</time>
      </trkpt>
      <trkpt lat="45.91935" lon="3.34545">
        <ele>304.8</ele>
        <time>2024-08-11T11:55:42Z</time>
      </trkpt>
      <trkpt lat="45.9193" lon="3.34551">
        <ele>304.8</ele>
        <time>2024-08-11T11:55:43Z</time>
      </trkpt>
      <trkpt lat="45.91925" lon="3.34558">
        <ele>304.8</ele>
        <time>2024-08-11T11:55:44Z</time>
      </trkpt>
      <trkpt lat="45.9192" lon="3.34565">
        <ele>304.8</ele>
        <time>2024-08-11T11:55:45Z</time>
      </trkpt>
      <trkpt lat="45.91915" lon="3.34572">
        <ele>304.6</ele>
        <time>2024-08-11T11:55:46Z</time>
      </trkpt>
      <trkpt lat="45.91909" lon="3.3458">
        <ele>304.4</ele>
        <time>2024-08-11T11:55:47Z</time>
      </trkpt>
      <trkpt lat="45.91904" lon="3.34588">
        <ele>304.4</ele>
        <time>2024-08-11T11:55:48Z</time>
      </trkpt>
      <trkpt lat="45.91899" lon="3.34596">
        <ele>304.4</ele>
        <time>2024-08-11T11:55:49Z</time>
      </trkpt>
      <trkpt lat="45.91894" lon="3.34604">
        <ele>304.4</ele>
        <time>2024-08-11T11:55:50Z</time>
      </trkpt>
      <trkpt lat="45.91889" lon="3.34613">
        <ele>304.2</ele>
        <time>2024-08-11T11:55:51Z</time>
      </trkpt>
      <trkpt lat="45.91884" lon="3.34622">
        <ele>304.2</ele>
        <time>2024-08-11T11:55:52Z</time>
      </trkpt>
      <trkpt lat="45.91879" lon="3.34632">
        <ele>304</ele>
        <time>2024-08-11T11:55:53Z</time>
      </trkpt>
      <trkpt lat="45.91874" lon="3.34643">
        <ele>304</ele>
        <time>2024-08-11T11:55:54Z</time>
      </trkpt>
      <trkpt lat="45.91869" lon="3.34653">
        <ele>304</ele>
        <time>2024-08-11T11:55:55Z</time>
      </trkpt>
      <trkpt lat="45.91865" lon="3.34663">
        <ele>303.8</ele>
        <time>2024-08-11T11:55:56Z</time>
      </trkpt>
      <trkpt lat="45.9186" lon="3.34674">
        <ele>303.6</ele>
        <time>2024-08-11T11:55:57Z</time>
      </trkpt>
      <trkpt lat="45.91855" lon="3.34685">
        <ele>303.6</ele>
        <time>2024-08-11T11:55:58Z</time>
      </trkpt>
      <trkpt lat="45.91852" lon="3.34697">
        <ele>303.4</ele>
        <time>2024-08-11T11:55:59Z</time>
      </trkpt>
      <trkpt lat="45.91848" lon="3.34709">
        <ele>303.2</ele>
        <time>2024-08-11T11:56:00Z</time>
      </trkpt>
      <trkpt lat="45.91845" lon="3.34721">
        <ele>303</ele>
        <time>2024-08-11T11:56:01Z</time>
      </trkpt>
      <trkpt lat="45.91841" lon="3.34733">
        <ele>303</ele>
        <time>2024-08-11T11:56:02Z</time>
      </trkpt>
      <trkpt lat="45.91838" lon="3.34746">
        <ele>302.8</ele>
        <time>2024-08-11T11:56:03Z</time>
      </trkpt>
      <trkpt lat="45.91834" lon="3.34758">
        <ele>302.6</ele>
        <time>2024-08-11T11:56:04Z</time>
      </trkpt>
      <trkpt lat="45.91831" lon="3.34771">
        <ele>302.4</ele>
        <time>2024-08-11T11:56:05Z</time>
      </trkpt>
      <trkpt lat="45.91827" lon="3.34783">
        <ele>302.2</ele>
        <time>2024-08-11T11:56:06Z</time>
      </trkpt>
      <trkpt lat="45.91824" lon="3.34796">
        <ele>302</ele>
        <time>2024-08-11T11:56:07Z</time>
      </trkpt>
      <trkpt lat="45.9182" lon="3.34809">
        <ele>301.8</ele>
        <time>2024-08-11T11:56:08Z</time>
      </trkpt>
      <trkpt lat="45.91816" lon="3.34821">
        <ele>301.6</ele>
        <time>2024-08-11T11:56:09Z</time>
      </trkpt>
      <trkpt lat="45.91813" lon="3.34834">
        <ele>301.4</ele>
        <time>2024-08-11T11:56:10Z</time>
      </trkpt>
      <trkpt lat="45.91809" lon="3.34847">
        <ele>301.2</ele>
        <time>2024-08-11T11:56:11Z</time>
      </trkpt>
      <trkpt lat="45.91805" lon="3.3486">
        <ele>301</ele>
        <time>2024-08-11T11:56:12Z</time>
      </trkpt>
      <trkpt lat="45.91802" lon="3.34873">
        <ele>300.8</ele>
        <time>2024-08-11T11:56:13Z</time>
      </trkpt>
      <trkpt lat="45.91798" lon="3.34886">
        <ele>300.6</ele>
        <time>2024-08-11T11:56:14Z</time>
      </trkpt>
      <trkpt lat="45.91794" lon="3.34899">
        <ele>300.4</ele>
        <time>2024-08-11T11:56:15Z</time>
      </trkpt>
      <trkpt lat="45.91791" lon="3.34912">
        <ele>300.2</ele>
        <time>2024-08-11T11:56:16Z</time>
      </trkpt>
      <trkpt lat="45.91787" lon="3.34925">
        <ele>299.8</ele>
        <time>2024-08-11T11:56:17Z</time>
      </trkpt>
      <trkpt lat="45.91784" lon="3.34937">
        <ele>299.6</ele>
        <time>2024-08-11T11:56:18Z</time>
      </trkpt>
      <trkpt lat="45.91781" lon="3.34948">
        <ele>299.6</ele>
        <time>2024-08-11T11:56:19Z</time>
      </trkpt>
      <trkpt lat="45.91779" lon="3.34961">
        <ele>299.4</ele>
        <time>2024-08-11T11:56:20Z</time>
      </trkpt>
      <trkpt lat="45.91776" lon="3.34973">
        <ele>299.4</ele>
        <time>2024-08-11T11:56:21Z</time>
      </trkpt>
      <trkpt lat="45.91774" lon="3.34985">
        <ele>299.4</ele>
        <time>2024-08-11T11:56:22Z</time>
      </trkpt>
      <trkpt lat="45.91772" lon="3.34996">
        <ele>299.2</ele>
        <time>2024-08-11T11:56:23Z</time>
      </trkpt>
      <trkpt lat="45.91769" lon="3.35008">
        <ele>299.2</ele>
        <time>2024-08-11T11:56:24Z</time>
      </trkpt>
      <trkpt lat="45.91767" lon="3.35019">
        <ele>299</ele>
        <time>2024-08-11T11:56:25Z</time>
      </trkpt>
      <trkpt lat="45.91765" lon="3.3503">
        <ele>299</ele>
        <time>2024-08-11T11:56:26Z</time>
      </trkpt>
      <trkpt lat="45.91763" lon="3.35042">
        <ele>298.8</ele>
        <time>2024-08-11T11:56:27Z</time>
      </trkpt>
      <trkpt lat="45.9176" lon="3.35053">
        <ele>298.8</ele>
        <time>2024-08-11T11:56:28Z</time>
      </trkpt>
      <trkpt lat="45.91758" lon="3.35064">
        <ele>298.6</ele>
        <time>2024-08-11T11:56:29Z</time>
      </trkpt>
      <trkpt lat="45.91756" lon="3.35075">
        <ele>298.6</ele>
        <time>2024-08-11T11:56:30Z</time>
      </trkpt>
      <trkpt lat="45.91754" lon="3.35086">
        <ele>298.4</ele>
        <time>2024-08-11T11:56:31Z</time>
      </trkpt>
      <trkpt lat="45.91752" lon="3.35096">
        <ele>298.4</ele>
        <time>2024-08-11T11:56:32Z</time>
      </trkpt>
      <trkpt lat="45.9175" lon="3.35107">
        <ele>298.2</ele>
        <time>2024-08-11T11:56:33Z</time>
      </trkpt>
      <trkpt lat="45.91747" lon="3.35117">
        <ele>298.2</ele>
        <time>2024-08-11T11:56:34Z</time>
      </trkpt>
      <trkpt lat="45.91745" lon="3.35128">
        <ele>298.2</ele>
        <time>2024-08-11T11:56:35Z</time>
      </trkpt>
      <trkpt lat="45.91743" lon="3.35139">
        <ele>298</ele>
        <time>2024-08-11T11:56:36Z</time>
      </trkpt>
      <trkpt lat="45.91741" lon="3.35149">
        <ele>298</ele>
        <time>2024-08-11T11:56:37Z</time>
      </trkpt>
      <trkpt lat="45.91739" lon="3.35159">
        <ele>297.8</ele>
        <time>2024-08-11T11:56:38Z</time>
      </trkpt>
      <trkpt lat="45.91737" lon="3.3517">
        <ele>297.8</ele>
        <time>2024-08-11T11:56:39Z</time>
      </trkpt>
      <trkpt lat="45.91735" lon="3.3518">
        <ele>297.6</ele>
        <time>2024-08-11T11:56:40Z</time>
      </trkpt>
      <trkpt lat="45.91732" lon="3.35191">
        <ele>297.6</ele>
        <time>2024-08-11T11:56:41Z</time>
      </trkpt>
      <trkpt lat="45.91729" lon="3.35201">
        <ele>297.4</ele>
        <time>2024-08-11T11:56:42Z</time>
      </trkpt>
      <trkpt lat="45.91726" lon="3.35211">
        <ele>297.4</ele>
        <time>2024-08-11T11:56:43Z</time>
      </trkpt>
      <trkpt lat="45.91724" lon="3.35222">
        <ele>297.2</ele>
        <time>2024-08-11T11:56:44Z</time>
      </trkpt>
      <trkpt lat="45.91721" lon="3.35232">
        <ele>297.2</ele>
        <time>2024-08-11T11:56:45Z</time>
      </trkpt>
      <trkpt lat="45.91718" lon="3.35243">
        <ele>297</ele>
        <time>2024-08-11T11:56:46Z</time>
      </trkpt>
      <trkpt lat="45.91715" lon="3.35253">
        <ele>297</ele>
        <time>2024-08-11T11:56:47Z</time>
      </trkpt>
      <trkpt lat="45.91712" lon="3.35264">
        <ele>296.8</ele>
        <time>2024-08-11T11:56:48Z</time>
      </trkpt>
      <trkpt lat="45.9171" lon="3.35275">
        <ele>296.8</ele>
        <time>2024-08-11T11:56:49Z</time>
      </trkpt>
      <trkpt lat="45.91707" lon="3.35285">
        <ele>296.6</ele>
        <time>2024-08-11T11:56:50Z</time>
      </trkpt>
      <trkpt lat="45.91704" lon="3.35296">
        <ele>296.6</ele>
        <time>2024-08-11T11:56:51Z</time>
      </trkpt>
      <trkpt lat="45.91701" lon="3.35306">
        <ele>296.6</ele>
        <time>2024-08-11T11:56:52Z</time>
      </trkpt>
      <trkpt lat="45.91698" lon="3.35317">
        <ele>296.4</ele>
        <time>2024-08-11T11:56:53Z</time>
      </trkpt>
      <trkpt lat="45.91696" lon="3.35327">
        <ele>296.4</ele>
        <time>2024-08-11T11:56:54Z</time>
      </trkpt>
      <trkpt lat="45.91693" lon="3.35338">
        <ele>296.2</ele>
        <time>2024-08-11T11:56:55Z</time>
      </trkpt>
      <trkpt lat="45.9169" lon="3.35349">
        <ele>296.2</ele>
        <time>2024-08-11T11:56:56Z</time>
      </trkpt>
      <trkpt lat="45.91687" lon="3.35359">
        <ele>296</ele>
        <time>2024-08-11T11:56:57Z</time>
      </trkpt>
      <trkpt lat="45.91684" lon="3.3537">
        <ele>296</ele>
        <time>2024-08-11T11:56:58Z</time>
      </trkpt>
      <trkpt lat="45.91681" lon="3.35381">
        <ele>296</ele>
        <time>2024-08-11T11:56:59Z</time>
      </trkpt>
      <trkpt lat="45.91679" lon="3.35392">
        <ele>295.8</ele>
        <time>2024-08-11T11:57:00Z</time>
      </trkpt>
      <trkpt lat="45.91676" lon="3.35403">
        <ele>295.6</ele>
        <time>2024-08-11T11:57:01Z</time>
      </trkpt>
      <trkpt lat="45.91673" lon="3.35413">
        <ele>295.6</ele>
        <time>2024-08-11T11:57:02Z</time>
      </trkpt>
      <trkpt lat="45.9167" lon="3.35424">
        <ele>295.6</ele>
        <time>2024-08-11T11:57:03Z</time>
      </trkpt>
      <trkpt lat="45.91667" lon="3.35434">
        <ele>295.4</ele>
        <time>2024-08-11T11:57:04Z</time>
      </trkpt>
      <trkpt lat="45.91664" lon="3.35445">
        <ele>295.4</ele>
        <time>2024-08-11T11:57:05Z</time>
      </trkpt>
      <trkpt lat="45.91662" lon="3.35456">
        <ele>295.2</ele>
        <time>2024-08-11T11:57:06Z</time>
      </trkpt>
      <trkpt lat="45.91659" lon="3.35466">
        <ele>295.2</ele>
        <time>2024-08-11T11:57:07Z</time>
      </trkpt>
      <trkpt lat="45.91656" lon="3.35477">
        <ele>295</ele>
        <time>2024-08-11T11:57:08Z</time>
      </trkpt>
      <trkpt lat="45.91653" lon="3.35487">
        <ele>295</ele>
        <time>2024-08-11T11:57:09Z</time>
      </trkpt>
      <trkpt lat="45.91651" lon="3.35497">
        <ele>295</ele>
        <time>2024-08-11T11:57:10Z</time>
      </trkpt>
      <trkpt lat="45.91648" lon="3.35507">
        <ele>294.8</ele>
        <time>2024-08-11T11:57:11Z</time>
      </trkpt>
      <trkpt lat="45.91647" lon="3.35518">
        <ele>294.8</ele>
        <time>2024-08-11T11:57:12Z</time>
      </trkpt>
      <trkpt lat="45.91647" lon="3.35529">
        <ele>294.8</ele>
        <time>2024-08-11T11:57:13Z</time>
      </trkpt>
      <trkpt lat="45.91646" lon="3.3554">
        <ele>294.8</ele>
        <time>2024-08-11T11:57:14Z</time>
      </trkpt>
      <trkpt lat="45.91645" lon="3.35551">
        <ele>294.6</ele>
        <time>2024-08-11T11:57:15Z</time>
      </trkpt>
      <trkpt lat="45.91645" lon="3.35562">
        <ele>294.6</ele>
        <time>2024-08-11T11:57:16Z</time>
      </trkpt>
      <trkpt lat="45.91644" lon="3.35572">
        <ele>294.6</ele>
        <time>2024-08-11T11:57:17Z</time>
      </trkpt>
      <trkpt lat="45.91644" lon="3.35583">
        <ele>294.6</ele>
        <time>2024-08-11T11:57:18Z</time>
      </trkpt>
      <trkpt lat="45.91645" lon="3.35594">
        <ele>294.4</ele>
        <time>2024-08-11T11:57:19Z</time>
      </trkpt>
      <trkpt lat="45.91646" lon="3.35604">
        <ele>294.4</ele>
        <time>2024-08-11T11:57:20Z</time>
      </trkpt>
      <trkpt lat="45.91647" lon="3.35615">
        <ele>294.2</ele>
        <time>2024-08-11T11:57:21Z</time>
      </trkpt>
      <trkpt lat="45.91649" lon="3.35625">
        <ele>294.2</ele>
        <time>2024-08-11T11:57:22Z</time>
      </trkpt>
      <trkpt lat="45.9165" lon="3.35635">
        <ele>294.2</ele>
        <time>2024-08-11T11:57:23Z</time>
      </trkpt>
      <trkpt lat="45.91652" lon="3.35645">
        <ele>294.2</ele>
        <time>2024-08-11T11:57:24Z</time>
      </trkpt>
      <trkpt lat="45.91654" lon="3.35656">
        <ele>294</ele>
        <time>2024-08-11T11:57:25Z</time>
      </trkpt>
      <trkpt lat="45.91656" lon="3.35665">
        <ele>294</ele>
        <time>2024-08-11T11:57:26Z</time>
      </trkpt>
      <trkpt lat="45.91658" lon="3.35675">
        <ele>294</ele>
        <time>2024-08-11T11:57:27Z</time>
      </trkpt>
      <trkpt lat="45.9166" lon="3.35685">
        <ele>293.8</ele>
        <time>2024-08-11T11:57:28Z</time>
      </trkpt>
      <trkpt lat="45.91662" lon="3.35695">
        <ele>293.8</ele>
        <time>2024-08-11T11:57:29Z</time>
      </trkpt>
      <trkpt lat="45.91665" lon="3.35705">
        <ele>293.8</ele>
        <time>2024-08-11T11:57:30Z</time>
      </trkpt>
      <trkpt lat="45.91667" lon="3.35716">
        <ele>293.8</ele>
        <time>2024-08-11T11:57:31Z</time>
      </trkpt>
      <trkpt lat="45.91669" lon="3.35726">
        <ele>293.6</ele>
        <time>2024-08-11T11:57:32Z</time>
      </trkpt>
      <trkpt lat="45.91671" lon="3.35736">
        <ele>293.6</ele>
        <time>2024-08-11T11:57:33Z</time>
      </trkpt>
      <trkpt lat="45.91673" lon="3.35746">
        <ele>293.6</ele>
        <time>2024-08-11T11:57:34Z</time>
      </trkpt>
      <trkpt lat="45.91675" lon="3.35756">
        <ele>293.6</ele>
        <time>2024-08-11T11:57:35Z</time>
      </trkpt>
      <trkpt lat="45.91678" lon="3.35766">
        <ele>293.4</ele>
        <time>2024-08-11T11:57:36Z</time>
      </trkpt>
      <trkpt lat="45.9168" lon="3.35776">
        <ele>293.4</ele>
        <time>2024-08-11T11:57:37Z</time>
      </trkpt>
      <trkpt lat="45.91683" lon="3.35785">
        <ele>293.4</ele>
        <time>2024-08-11T11:57:38Z</time>
      </trkpt>
      <trkpt lat="45.91686" lon="3.35794">
        <ele>293.4</ele>
        <time>2024-08-11T11:57:39Z</time>
      </trkpt>
      <trkpt lat="45.91688" lon="3.35804">
        <ele>293.2</ele>
        <time>2024-08-11T11:57:40Z</time>
      </trkpt>
      <trkpt lat="45.91691" lon="3.35813">
        <ele>293.2</ele>
        <time>2024-08-11T11:57:41Z</time>
      </trkpt>
      <trkpt lat="45.91694" lon="3.35822">
        <ele>293.2</ele>
        <time>2024-08-11T11:57:42Z</time>
      </trkpt>
      <trkpt lat="45.91696" lon="3.35832">
        <ele>293</ele>
        <time>2024-08-11T11:57:43Z</time>
      </trkpt>
      <trkpt lat="45.91699" lon="3.35841">
        <ele>293</ele>
        <time>2024-08-11T11:57:44Z</time>
      </trkpt>
      <trkpt lat="45.91701" lon="3.3585">
        <ele>293</ele>
        <time>2024-08-11T11:57:45Z</time>
      </trkpt>
      <trkpt lat="45.91704" lon="3.3586">
        <ele>292.8</ele>
        <time>2024-08-11T11:57:46Z</time>
      </trkpt>
      <trkpt lat="45.91707" lon="3.35869">
        <ele>292.8</ele>
        <time>2024-08-11T11:57:47Z</time>
      </trkpt>
      <trkpt lat="45.91709" lon="3.35878">
        <ele>292.8</ele>
        <time>2024-08-11T11:57:48Z</time>
      </trkpt>
      <trkpt lat="45.91712" lon="3.35887">
        <ele>292.8</ele>
        <time>2024-08-11T11:57:49Z</time>
      </trkpt>
      <trkpt lat="45.91714" lon="3.35897">
        <ele>292.8</ele>
        <time>2024-08-11T11:57:50Z</time>
      </trkpt>
      <trkpt lat="45.91717" lon="3.35906">
        <ele>292.6</ele>
        <time>2024-08-11T11:57:51Z</time>
      </trkpt>
      <trkpt lat="45.9172" lon="3.35915">
        <ele>292.6</ele>
        <time>2024-08-11T11:57:52Z</time>
      </trkpt>
      <trkpt lat="45.91722" lon="3.35924">
        <ele>292.6</ele>
        <time>2024-08-11T11:57:53Z</time>
      </trkpt>
      <trkpt lat="45.91725" lon="3.35934">
        <ele>292.6</ele>
        <time>2024-08-11T11:57:54Z</time>
      </trkpt>
      <trkpt lat="45.91727" lon="3.35943">
        <ele>292.6</ele>
        <time>2024-08-11T11:57:55Z</time>
      </trkpt>
      <trkpt lat="45.9173" lon="3.35952">
        <ele>292.4</ele>
        <time>2024-08-11T11:57:56Z</time>
      </trkpt>
      <trkpt lat="45.91733" lon="3.35961">
        <ele>292.4</ele>
        <time>2024-08-11T11:57:57Z</time>
      </trkpt>
      <trkpt lat="45.91734" lon="3.35971">
        <ele>292.4</ele>
        <time>2024-08-11T11:57:58Z</time>
      </trkpt>
      <trkpt lat="45.91736" lon="3.3598">
        <ele>292.4</ele>
        <time>2024-08-11T11:57:59Z</time>
      </trkpt>
      <trkpt lat="45.91737" lon="3.3599">
        <ele>292.4</ele>
        <time>2024-08-11T11:58:00Z</time>
      </trkpt>
      <trkpt lat="45.91738" lon="3.36">
        <ele>292.4</ele>
        <time>2024-08-11T11:58:01Z</time>
      </trkpt>
      <trkpt lat="45.9174" lon="3.36009">
        <ele>292.4</ele>
        <time>2024-08-11T11:58:02Z</time>
      </trkpt>
      <trkpt lat="45.9174" lon="3.36019">
        <ele>292.6</ele>
        <time>2024-08-11T11:58:03Z</time>
      </trkpt>
      <trkpt lat="45.9174" lon="3.36029">
        <ele>292.6</ele>
        <time>2024-08-11T11:58:04Z</time>
      </trkpt>
      <trkpt lat="45.9174" lon="3.36038">
        <ele>292.6</ele>
        <time>2024-08-11T11:58:05Z</time>
      </trkpt>
      <trkpt lat="45.9174" lon="3.36048">
        <ele>292.6</ele>
        <time>2024-08-11T11:58:06Z</time>
      </trkpt>
      <trkpt lat="45.91739" lon="3.36057">
        <ele>292.6</ele>
        <time>2024-08-11T11:58:07Z</time>
      </trkpt>
      <trkpt lat="45.91738" lon="3.36066">
        <ele>292.6</ele>
        <time>2024-08-11T11:58:08Z</time>
      </trkpt>
      <trkpt lat="45.91737" lon="3.36076">
        <ele>292.6</ele>
        <time>2024-08-11T11:58:09Z</time>
      </trkpt>
      <trkpt lat="45.91736" lon="3.36085">
        <ele>292.6</ele>
        <time>2024-08-11T11:58:10Z</time>
      </trkpt>
      <trkpt lat="45.91735" lon="3.36095">
        <ele>292.2</ele>
        <time>2024-08-11T11:58:11Z</time>
      </trkpt>
      <trkpt lat="45.91734" lon="3.36105">
        <ele>292.2</ele>
        <time>2024-08-11T11:58:12Z</time>
      </trkpt>
      <trkpt lat="45.91733" lon="3.36114">
        <ele>292.4</ele>
        <time>2024-08-11T11:58:13Z</time>
      </trkpt>
      <trkpt lat="45.91732" lon="3.36123">
        <ele>292.4</ele>
        <time>2024-08-11T11:58:14Z</time>
      </trkpt>
      <trkpt lat="45.9173" lon="3.36132">
        <ele>292.4</ele>
        <time>2024-08-11T11:58:15Z</time>
      </trkpt>
      <trkpt lat="45.91728" lon="3.36141">
        <ele>292.6</ele>
        <time>2024-08-11T11:58:16Z</time>
      </trkpt>
      <trkpt lat="45.91726" lon="3.36149">
        <ele>292.6</ele>
        <time>2024-08-11T11:58:17Z</time>
      </trkpt>
      <trkpt lat="45.91725" lon="3.36158">
        <ele>292.6</ele>
        <time>2024-08-11T11:58:18Z</time>
      </trkpt>
      <trkpt lat="45.91723" lon="3.36166">
        <ele>292.8</ele>
        <time>2024-08-11T11:58:19Z</time>
      </trkpt>
      <trkpt lat="45.91721" lon="3.36175">
        <ele>292.8</ele>
        <time>2024-08-11T11:58:20Z</time>
      </trkpt>
      <trkpt lat="45.91719" lon="3.36183">
        <ele>292.8</ele>
        <time>2024-08-11T11:58:21Z</time>
      </trkpt>
      <trkpt lat="45.91717" lon="3.36191">
        <ele>292.6</ele>
        <time>2024-08-11T11:58:22Z</time>
      </trkpt>
      <trkpt lat="45.91715" lon="3.36199">
        <ele>292.6</ele>
        <time>2024-08-11T11:58:23Z</time>
      </trkpt>
      <trkpt lat="45.91714" lon="3.36208">
        <ele>292.8</ele>
        <time>2024-08-11T11:58:24Z</time>
      </trkpt>
      <trkpt lat="45.91712" lon="3.36216">
        <ele>292.6</ele>
        <time>2024-08-11T11:58:25Z</time>
      </trkpt>
      <trkpt lat="45.9171" lon="3.36224">
        <ele>292.8</ele>
        <time>2024-08-11T11:58:26Z</time>
      </trkpt>
      <trkpt lat="45.91708" lon="3.36232">
        <ele>292.8</ele>
        <time>2024-08-11T11:58:27Z</time>
      </trkpt>
      <trkpt lat="45.91706" lon="3.36241">
        <ele>292.8</ele>
        <time>2024-08-11T11:58:28Z</time>
      </trkpt>
      <trkpt lat="45.91705" lon="3.36249">
        <ele>292.8</ele>
        <time>2024-08-11T11:58:29Z</time>
      </trkpt>
      <trkpt lat="45.91703" lon="3.36257">
        <ele>292.8</ele>
        <time>2024-08-11T11:58:30Z</time>
      </trkpt>
      <trkpt lat="45.91701" lon="3.36264">
        <ele>292.8</ele>
        <time>2024-08-11T11:58:31Z</time>
      </trkpt>
      <trkpt lat="45.91699" lon="3.36273">
        <ele>292.8</ele>
        <time>2024-08-11T11:58:32Z</time>
      </trkpt>
      <trkpt lat="45.91698" lon="3.36281">
        <ele>292.8</ele>
        <time>2024-08-11T11:58:33Z</time>
      </trkpt>
      <trkpt lat="45.91696" lon="3.36289">
        <ele>292.8</ele>
        <time>2024-08-11T11:58:34Z</time>
      </trkpt>
      <trkpt lat="45.91694" lon="3.36298">
        <ele>292.8</ele>
        <time>2024-08-11T11:58:35Z</time>
      </trkpt>
      <trkpt lat="45.91692" lon="3.36306">
        <ele>292.8</ele>
        <time>2024-08-11T11:58:36Z</time>
      </trkpt>
      <trkpt lat="45.9169" lon="3.36315">
        <ele>292.8</ele>
        <time>2024-08-11T11:58:37Z</time>
      </trkpt>
      <trkpt lat="45.91688" lon="3.36323">
        <ele>292.8</ele>
        <time>2024-08-11T11:58:38Z</time>
      </trkpt>
      <trkpt lat="45.91686" lon="3.36332">
        <ele>292.8</ele>
        <time>2024-08-11T11:58:39Z</time>
      </trkpt>
      <trkpt lat="45.91684" lon="3.36341">
        <ele>293</ele>
        <time>2024-08-11T11:58:40Z</time>
      </trkpt>
      <trkpt lat="45.91683" lon="3.36349">
        <ele>293</ele>
        <time>2024-08-11T11:58:41Z</time>
      </trkpt>
      <trkpt lat="45.91681" lon="3.36358">
        <ele>293</ele>
        <time>2024-08-11T11:58:42Z</time>
      </trkpt>
      <trkpt lat="45.91679" lon="3.36366">
        <ele>293</ele>
        <time>2024-08-11T11:58:43Z</time>
      </trkpt>
      <trkpt lat="45.91677" lon="3.36374">
        <ele>293</ele>
        <time>2024-08-11T11:58:44Z</time>
      </trkpt>
      <trkpt lat="45.91675" lon="3.36383">
        <ele>293</ele>
        <time>2024-08-11T11:58:45Z</time>
      </trkpt>
      <trkpt lat="45.91673" lon="3.36391">
        <ele>293</ele>
        <time>2024-08-11T11:58:46Z</time>
      </trkpt>
      <trkpt lat="45.91672" lon="3.36399">
        <ele>293</ele>
        <time>2024-08-11T11:58:47Z</time>
      </trkpt>
      <trkpt lat="45.9167" lon="3.36408">
        <ele>293.2</ele>
        <time>2024-08-11T11:58:48Z</time>
      </trkpt>
      <trkpt lat="45.91668" lon="3.36417">
        <ele>293.2</ele>
        <time>2024-08-11T11:58:49Z</time>
      </trkpt>
      <trkpt lat="45.91666" lon="3.36425">
        <ele>293.2</ele>
        <time>2024-08-11T11:58:50Z</time>
      </trkpt>
      <trkpt lat="45.91664" lon="3.36434">
        <ele>293.2</ele>
        <time>2024-08-11T11:58:51Z</time>
      </trkpt>
      <trkpt lat="45.91662" lon="3.36442">
        <ele>293.2</ele>
        <time>2024-08-11T11:58:52Z</time>
      </trkpt>
      <trkpt lat="45.9166" lon="3.3645">
        <ele>293.2</ele>
        <time>2024-08-11T11:58:53Z</time>
      </trkpt>
      <trkpt lat="45.91658" lon="3.36459">
        <ele>293.2</ele>
        <time>2024-08-11T11:58:54Z</time>
      </trkpt>
      <trkpt lat="45.91657" lon="3.36467">
        <ele>293.2</ele>
        <time>2024-08-11T11:58:55Z</time>
      </trkpt>
      <trkpt lat="45.91655" lon="3.36475">
        <ele>293.2</ele>
        <time>2024-08-11T11:58:56Z</time>
      </trkpt>
      <trkpt lat="45.91653" lon="3.36484">
        <ele>293.2</ele>
        <time>2024-08-11T11:58:57Z</time>
      </trkpt>
      <trkpt lat="45.91651" lon="3.36492">
        <ele>293.2</ele>
        <time>2024-08-11T11:58:58Z</time>
      </trkpt>
      <trkpt lat="45.91649" lon="3.365">
        <ele>293.2</ele>
        <time>2024-08-11T11:58:59Z</time>
      </trkpt>
      <trkpt lat="45.91647" lon="3.36509">
        <ele>293.2</ele>
        <time>2024-08-11T11:59:00Z</time>
      </trkpt>
      <trkpt lat="45.91646" lon="3.36517">
        <ele>293.2</ele>
        <time>2024-08-11T11:59:01Z</time>
      </trkpt>
      <trkpt lat="45.91644" lon="3.36525">
        <ele>293.2</ele>
        <time>2024-08-11T11:59:02Z</time>
      </trkpt>
      <trkpt lat="45.91642" lon="3.36534">
        <ele>293.2</ele>
        <time>2024-08-11T11:59:03Z</time>
      </trkpt>
      <trkpt lat="45.9164" lon="3.3654">
        <ele>293.2</ele>
        <time>2024-08-11T11:59:04Z</time>
      </trkpt>
      <trkpt lat="45.91639" lon="3.36546">
        <ele>293.2</ele>
        <time>2024-08-11T11:59:05Z</time>
      </trkpt>
      <trkpt lat="45.91638" lon="3.36553">
        <ele>293</ele>
        <time>2024-08-11T11:59:06Z</time>
      </trkpt>
      <trkpt lat="45.91636" lon="3.36562">
        <ele>293</ele>
        <time>2024-08-11T11:59:07Z</time>
      </trkpt>
      <trkpt lat="45.91633" lon="3.36572">
        <ele>293</ele>
        <time>2024-08-11T11:59:08Z</time>
      </trkpt>
      <trkpt lat="45.91631" lon="3.36581">
        <ele>293</ele>
        <time>2024-08-11T11:59:09Z</time>
      </trkpt>
      <trkpt lat="45.91629" lon="3.36591">
        <ele>292.8</ele>
        <time>2024-08-11T11:59:10Z</time>
      </trkpt>
      <trkpt lat="45.91628" lon="3.366">
        <ele>292.8</ele>
        <time>2024-08-11T11:59:11Z</time>
      </trkpt>
      <trkpt lat="45.91626" lon="3.3661">
        <ele>292.8</ele>
        <time>2024-08-11T11:59:12Z</time>
      </trkpt>
      <trkpt lat="45.91625" lon="3.36619">
        <ele>292.8</ele>
        <time>2024-08-11T11:59:13Z</time>
      </trkpt>
      <trkpt lat="45.91624" lon="3.36629">
        <ele>292.8</ele>
        <time>2024-08-11T11:59:14Z</time>
      </trkpt>
      <trkpt lat="45.91622" lon="3.36638">
        <ele>292.8</ele>
        <time>2024-08-11T11:59:15Z</time>
      </trkpt>
      <trkpt lat="45.91621" lon="3.36648">
        <ele>292.8</ele>
        <time>2024-08-11T11:59:16Z</time>
      </trkpt>
      <trkpt lat="45.9162" lon="3.36657">
        <ele>292.8</ele>
        <time>2024-08-11T11:59:17Z</time>
      </trkpt>
      <trkpt lat="45.9162" lon="3.36667">
        <ele>292.8</ele>
        <time>2024-08-11T11:59:18Z</time>
      </trkpt>
      <trkpt lat="45.9162" lon="3.36676">
        <ele>293</ele>
        <time>2024-08-11T11:59:19Z</time>
      </trkpt>
      <trkpt lat="45.9162" lon="3.36686">
        <ele>293</ele>
        <time>2024-08-11T11:59:20Z</time>
      </trkpt>
      <trkpt lat="45.9162" lon="3.36696">
        <ele>293</ele>
        <time>2024-08-11T11:59:21Z</time>
      </trkpt>
      <trkpt lat="45.9162" lon="3.36705">
        <ele>293</ele>
        <time>2024-08-11T11:59:22Z</time>
      </trkpt>
      <trkpt lat="45.9162" lon="3.36715">
        <ele>293</ele>
        <time>2024-08-11T11:59:23Z</time>
      </trkpt>
      <trkpt lat="45.9162" lon="3.36724">
        <ele>293</ele>
        <time>2024-08-11T11:59:24Z</time>
      </trkpt>
      <trkpt lat="45.9162" lon="3.36734">
        <ele>293</ele>
        <time>2024-08-11T11:59:25Z</time>
      </trkpt>
      <trkpt lat="45.9162" lon="3.36743">
        <ele>293</ele>
        <time>2024-08-11T11:59:26Z</time>
      </trkpt>
      <trkpt lat="45.9162" lon="3.36752">
        <ele>293</ele>
        <time>2024-08-11T11:59:27Z</time>
      </trkpt>
      <trkpt lat="45.9162" lon="3.36761">
        <ele>293.2</ele>
        <time>2024-08-11T11:59:28Z</time>
      </trkpt>
      <trkpt lat="45.9162" lon="3.36771">
        <ele>293.2</ele>
        <time>2024-08-11T11:59:29Z</time>
      </trkpt>
      <trkpt lat="45.91619" lon="3.36781">
        <ele>293.2</ele>
        <time>2024-08-11T11:59:30Z</time>
      </trkpt>
      <trkpt lat="45.91619" lon="3.3679">
        <ele>293.2</ele>
        <time>2024-08-11T11:59:31Z</time>
      </trkpt>
      <trkpt lat="45.91619" lon="3.368">
        <ele>293</ele>
        <time>2024-08-11T11:59:32Z</time>
      </trkpt>
      <trkpt lat="45.91619" lon="3.3681">
        <ele>293</ele>
        <time>2024-08-11T11:59:33Z</time>
      </trkpt>
      <trkpt lat="45.91619" lon="3.3682">
        <ele>293</ele>
        <time>2024-08-11T11:59:34Z</time>
      </trkpt>
      <trkpt lat="45.91619" lon="3.36829">
        <ele>293.2</ele>
        <time>2024-08-11T11:59:35Z</time>
      </trkpt>
      <trkpt lat="45.91619" lon="3.36839">
        <ele>293</ele>
        <time>2024-08-11T11:59:36Z</time>
      </trkpt>
      <trkpt lat="45.91619" lon="3.36848">
        <ele>293</ele>
        <time>2024-08-11T11:59:37Z</time>
      </trkpt>
      <trkpt lat="45.91619" lon="3.36857">
        <ele>293</ele>
        <time>2024-08-11T11:59:38Z</time>
      </trkpt>
      <trkpt lat="45.91619" lon="3.36866">
        <ele>293</ele>
        <time>2024-08-11T11:59:39Z</time>
      </trkpt>
      <trkpt lat="45.91619" lon="3.36876">
        <ele>293</ele>
        <time>2024-08-11T11:59:40Z</time>
      </trkpt>
      <trkpt lat="45.91619" lon="3.36885">
        <ele>293</ele>
        <time>2024-08-11T11:59:41Z</time>
      </trkpt>
      <trkpt lat="45.91619" lon="3.36894">
        <ele>293</ele>
        <time>2024-08-11T11:59:42Z</time>
      </trkpt>
      <trkpt lat="45.91619" lon="3.36902">
        <ele>293</ele>
        <time>2024-08-11T11:59:43Z</time>
      </trkpt>
      <trkpt lat="45.91619" lon="3.36912">
        <ele>293</ele>
        <time>2024-08-11T11:59:44Z</time>
      </trkpt>
      <trkpt lat="45.91619" lon="3.36921">
        <ele>293</ele>
        <time>2024-08-11T11:59:45Z</time>
      </trkpt>
      <trkpt lat="45.91619" lon="3.3693">
        <ele>293</ele>
        <time>2024-08-11T11:59:46Z</time>
      </trkpt>
      <trkpt lat="45.91619" lon="3.36939">
        <ele>293</ele>
        <time>2024-08-11T11:59:47Z</time>
      </trkpt>
      <trkpt lat="45.91619" lon="3.36948">
        <ele>293</ele>
        <time>2024-08-11T11:59:48Z</time>
      </trkpt>
      <trkpt lat="45.91619" lon="3.36958">
        <ele>293.2</ele>
        <time>2024-08-11T11:59:49Z</time>
      </trkpt>
      <trkpt lat="45.91619" lon="3.36967">
        <ele>293.2</ele>
        <time>2024-08-11T11:59:50Z</time>
      </trkpt>
      <trkpt lat="45.91619" lon="3.36977">
        <ele>293.2</ele>
        <time>2024-08-11T11:59:51Z</time>
      </trkpt>
      <trkpt lat="45.91619" lon="3.36986">
        <ele>293.2</ele>
        <time>2024-08-11T11:59:52Z</time>
      </trkpt>
      <trkpt lat="45.91619" lon="3.36995">
        <ele>293.2</ele>
        <time>2024-08-11T11:59:53Z</time>
      </trkpt>
      <trkpt lat="45.91619" lon="3.37004">
        <ele>293.2</ele>
        <time>2024-08-11T11:59:54Z</time>
      </trkpt>
      <trkpt lat="45.91619" lon="3.37014">
        <ele>293.4</ele>
        <time>2024-08-11T11:59:55Z</time>
      </trkpt>
      <trkpt lat="45.91619" lon="3.37024">
        <ele>293.2</ele>
        <time>2024-08-11T11:59:56Z</time>
      </trkpt>
      <trkpt lat="45.91619" lon="3.37033">
        <ele>293.2</ele>
        <time>2024-08-11T11:59:57Z</time>
      </trkpt>
      <trkpt lat="45.91619" lon="3.37042">
        <ele>293.2</ele>
        <time>2024-08-11T11:59:58Z</time>
      </trkpt>
      <trkpt lat="45.91618" lon="3.37052">
        <ele>293.4</ele>
        <time>2024-08-11T11:59:59Z</time>
      </trkpt>
      <trkpt lat="45.91618" lon="3.37061">
        <ele>293.2</ele>
        <time>2024-08-11T12:00:00Z</time>
      </trkpt>
      <trkpt lat="45.91618" lon="3.37071">
        <ele>293.2</ele>
        <time>2024-08-11T12:00:01Z</time>
      </trkpt>
      <trkpt lat="45.91618" lon="3.3708">
        <ele>293.2</ele>
        <time>2024-08-11T12:00:02Z</time>
      </trkpt>
      <trkpt lat="45.91618" lon="3.37089">
        <ele>293.2</ele>
        <time>2024-08-11T12:00:03Z</time>
      </trkpt>
      <trkpt lat="45.91618" lon="3.37099">
        <ele>293.2</ele>
        <time>2024-08-11T12:00:04Z</time>
      </trkpt>
      <trkpt lat="45.91618" lon="3.37108">
        <ele>293.4</ele>
        <time>2024-08-11T12:00:05Z</time>
      </trkpt>
      <trkpt lat="45.91618" lon="3.37117">
        <ele>293.2</ele>
        <time>2024-08-11T12:00:06Z</time>
      </trkpt>
      <trkpt lat="45.91618" lon="3.37126">
        <ele>293.4</ele>
        <time>2024-08-11T12:00:07Z</time>
      </trkpt>
      <trkpt lat="45.91618" lon="3.37135">
        <ele>293.4</ele>
        <time>2024-08-11T12:00:08Z</time>
      </trkpt>
      <trkpt lat="45.91618" lon="3.37145">
        <ele>293.4</ele>
        <time>2024-08-11T12:00:09Z</time>
      </trkpt>
      <trkpt lat="45.91618" lon="3.37154">
        <ele>293.4</ele>
        <time>2024-08-11T12:00:10Z</time>
      </trkpt>
      <trkpt lat="45.91618" lon="3.37163">
        <ele>293.4</ele>
        <time>2024-08-11T12:00:11Z</time>
      </trkpt>
      <trkpt lat="45.91618" lon="3.37172">
        <ele>293.4</ele>
        <time>2024-08-11T12:00:12Z</time>
      </trkpt>
      <trkpt lat="45.91618" lon="3.3718">
        <ele>293.4</ele>
        <time>2024-08-11T12:00:13Z</time>
      </trkpt>
      <trkpt lat="45.91618" lon="3.37189">
        <ele>293.4</ele>
        <time>2024-08-11T12:00:14Z</time>
      </trkpt>
      <trkpt lat="45.91618" lon="3.37198">
        <ele>293.6</ele>
        <time>2024-08-11T12:00:15Z</time>
      </trkpt>
      <trkpt lat="45.91618" lon="3.37207">
        <ele>293.6</ele>
        <time>2024-08-11T12:00:16Z</time>
      </trkpt>
      <trkpt lat="45.91618" lon="3.37216">
        <ele>293.6</ele>
        <time>2024-08-11T12:00:17Z</time>
      </trkpt>
      <trkpt lat="45.91618" lon="3.37225">
        <ele>293.8</ele>
        <time>2024-08-11T12:00:18Z</time>
      </trkpt>
      <trkpt lat="45.91618" lon="3.37234">
        <ele>293.8</ele>
        <time>2024-08-11T12:00:19Z</time>
      </trkpt>
      <trkpt lat="45.91615" lon="3.37242">
        <ele>294</ele>
        <time>2024-08-11T12:00:20Z</time>
      </trkpt>
      <trkpt lat="45.91613" lon="3.3725">
        <ele>294</ele>
        <time>2024-08-11T12:00:21Z</time>
      </trkpt>
      <trkpt lat="45.91611" lon="3.37258">
        <ele>294</ele>
        <time>2024-08-11T12:00:22Z</time>
      </trkpt>
      <trkpt lat="45.91608" lon="3.37267">
        <ele>294.2</ele>
        <time>2024-08-11T12:00:23Z</time>
      </trkpt>
      <trkpt lat="45.91606" lon="3.37274">
        <ele>294.2</ele>
        <time>2024-08-11T12:00:24Z</time>
      </trkpt>
      <trkpt lat="45.91604" lon="3.37282">
        <ele>294.4</ele>
        <time>2024-08-11T12:00:25Z</time>
      </trkpt>
      <trkpt lat="45.91602" lon="3.37289">
        <ele>294.4</ele>
        <time>2024-08-11T12:00:26Z</time>
      </trkpt>
      <trkpt lat="45.916" lon="3.37296">
        <ele>294.4</ele>
        <time>2024-08-11T12:00:27Z</time>
      </trkpt>
      <trkpt lat="45.91598" lon="3.37303">
        <ele>294.6</ele>
        <time>2024-08-11T12:00:28Z</time>
      </trkpt>
      <trkpt lat="45.91596" lon="3.3731">
        <ele>294.6</ele>
        <time>2024-08-11T12:00:29Z</time>
      </trkpt>
      <trkpt lat="45.91594" lon="3.37317">
        <ele>294.6</ele>
        <time>2024-08-11T12:00:30Z</time>
      </trkpt>
      <trkpt lat="45.91592" lon="3.37324">
        <ele>294.8</ele>
        <time>2024-08-11T12:00:31Z</time>
      </trkpt>
      <trkpt lat="45.9159" lon="3.37331">
        <ele>294.8</ele>
        <time>2024-08-11T12:00:32Z</time>
      </trkpt>
      <trkpt lat="45.91588" lon="3.37338">
        <ele>294.8</ele>
        <time>2024-08-11T12:00:33Z</time>
      </trkpt>
      <trkpt lat="45.91586" lon="3.37345">
        <ele>295</ele>
        <time>2024-08-11T12:00:34Z</time>
      </trkpt>
      <trkpt lat="45.91584" lon="3.37351">
        <ele>295</ele>
        <time>2024-08-11T12:00:35Z</time>
      </trkpt>
      <trkpt lat="45.91582" lon="3.37358">
        <ele>295.2</ele>
        <time>2024-08-11T12:00:36Z</time>
      </trkpt>
      <trkpt lat="45.9158" lon="3.37364">
        <ele>295.2</ele>
        <time>2024-08-11T12:00:37Z</time>
      </trkpt>
      <trkpt lat="45.91579" lon="3.3737">
        <ele>295.4</ele>
        <time>2024-08-11T12:00:38Z</time>
      </trkpt>
      <trkpt lat="45.91577" lon="3.37376">
        <ele>295.4</ele>
        <time>2024-08-11T12:00:39Z</time>
      </trkpt>
      <trkpt lat="45.91575" lon="3.37382">
        <ele>295.4</ele>
        <time>2024-08-11T12:00:40Z</time>
      </trkpt>
      <trkpt lat="45.91573" lon="3.37389">
        <ele>295.6</ele>
        <time>2024-08-11T12:00:41Z</time>
      </trkpt>
      <trkpt lat="45.91571" lon="3.37395">
        <ele>295.6</ele>
        <time>2024-08-11T12:00:42Z</time>
      </trkpt>
      <trkpt lat="45.9157" lon="3.37401">
        <ele>295.8</ele>
        <time>2024-08-11T12:00:43Z</time>
      </trkpt>
      <trkpt lat="45.91568" lon="3.37406">
        <ele>295.8</ele>
        <time>2024-08-11T12:00:44Z</time>
      </trkpt>
      <trkpt lat="45.91566" lon="3.37412">
        <ele>295.8</ele>
        <time>2024-08-11T12:00:45Z</time>
      </trkpt>
      <trkpt lat="45.91565" lon="3.37418">
        <ele>296</ele>
        <time>2024-08-11T12:00:46Z</time>
      </trkpt>
      <trkpt lat="45.91563" lon="3.37423">
        <ele>296</ele>
        <time>2024-08-11T12:00:47Z</time>
      </trkpt>
      <trkpt lat="45.91562" lon="3.37428">
        <ele>296.2</ele>
        <time>2024-08-11T12:00:48Z</time>
      </trkpt>
      <trkpt lat="45.9156" lon="3.37433">
        <ele>296.4</ele>
        <time>2024-08-11T12:00:49Z</time>
      </trkpt>
      <trkpt lat="45.91559" lon="3.37438">
        <ele>296.4</ele>
        <time>2024-08-11T12:00:50Z</time>
      </trkpt>
      <trkpt lat="45.91557" lon="3.37443">
        <ele>296.6</ele>
        <time>2024-08-11T12:00:51Z</time>
      </trkpt>
      <trkpt lat="45.91556" lon="3.37449">
        <ele>296.6</ele>
        <time>2024-08-11T12:00:52Z</time>
      </trkpt>
      <trkpt lat="45.91555" lon="3.37455">
        <ele>296.8</ele>
        <time>2024-08-11T12:00:53Z</time>
      </trkpt>
      <trkpt lat="45.91553" lon="3.37461">
        <ele>296.8</ele>
        <time>2024-08-11T12:00:54Z</time>
      </trkpt>
      <trkpt lat="45.91552" lon="3.37467">
        <ele>297</ele>
        <time>2024-08-11T12:00:55Z</time>
      </trkpt>
      <trkpt lat="45.91551" lon="3.37472">
        <ele>297</ele>
        <time>2024-08-11T12:00:56Z</time>
      </trkpt>
      <trkpt lat="45.9155" lon="3.37477">
        <ele>297.2</ele>
        <time>2024-08-11T12:00:57Z</time>
      </trkpt>
      <trkpt lat="45.91549" lon="3.37481">
        <ele>297.2</ele>
        <time>2024-08-11T12:00:58Z</time>
      </trkpt>
      <trkpt lat="45.91548" lon="3.37486">
        <ele>297.4</ele>
        <time>2024-08-11T12:00:59Z</time>
      </trkpt>
      <trkpt lat="45.91547" lon="3.37491">
        <ele>297.4</ele>
        <time>2024-08-11T12:01:00Z</time>
      </trkpt>
      <trkpt lat="45.91546" lon="3.37496">
        <ele>297.6</ele>
        <time>2024-08-11T12:01:01Z</time>
      </trkpt>
      <trkpt lat="45.91546" lon="3.375">
        <ele>297.6</ele>
        <time>2024-08-11T12:01:02Z</time>
      </trkpt>
      <trkpt lat="45.91545" lon="3.37505">
        <ele>297.8</ele>
        <time>2024-08-11T12:01:03Z</time>
      </trkpt>
      <trkpt lat="45.91543" lon="3.37511">
        <ele>297.8</ele>
        <time>2024-08-11T12:01:04Z</time>
      </trkpt>
      <trkpt lat="45.91543" lon="3.37518">
        <ele>298</ele>
        <time>2024-08-11T12:01:05Z</time>
      </trkpt>
      <trkpt lat="45.91542" lon="3.37524">
        <ele>298</ele>
        <time>2024-08-11T12:01:06Z</time>
      </trkpt>
      <trkpt lat="45.91542" lon="3.3753">
        <ele>298.2</ele>
        <time>2024-08-11T12:01:07Z</time>
      </trkpt>
      <trkpt lat="45.91542" lon="3.37536">
        <ele>298.2</ele>
        <time>2024-08-11T12:01:08Z</time>
      </trkpt>
      <trkpt lat="45.91541" lon="3.37542">
        <ele>298.4</ele>
        <time>2024-08-11T12:01:09Z</time>
      </trkpt>
      <trkpt lat="45.91541" lon="3.37548">
        <ele>298.4</ele>
        <time>2024-08-11T12:01:10Z</time>
      </trkpt>
      <trkpt lat="45.91541" lon="3.37554">
        <ele>298.6</ele>
        <time>2024-08-11T12:01:11Z</time>
      </trkpt>
      <trkpt lat="45.91541" lon="3.3756">
        <ele>298.6</ele>
        <time>2024-08-11T12:01:12Z</time>
      </trkpt>
      <trkpt lat="45.91542" lon="3.37565">
        <ele>298.6</ele>
        <time>2024-08-11T12:01:13Z</time>
      </trkpt>
      <trkpt lat="45.91542" lon="3.37571">
        <ele>298.8</ele>
        <time>2024-08-11T12:01:14Z</time>
      </trkpt>
      <trkpt lat="45.91543" lon="3.37581">
        <ele>298.8</ele>
        <time>2024-08-11T12:01:15Z</time>
      </trkpt>
      <trkpt lat="45.91543" lon="3.37581">
        <ele>299</ele>
        <time>2024-08-11T12:01:16Z</time>
      </trkpt>
      <trkpt lat="45.91544" lon="3.37587">
        <ele>299.2</ele>
        <time>2024-08-11T12:01:17Z</time>
      </trkpt>
      <trkpt lat="45.91544" lon="3.37593">
        <ele>299.2</ele>
        <time>2024-08-11T12:01:18Z</time>
      </trkpt>
      <trkpt lat="45.91545" lon="3.37598">
        <ele>299.4</ele>
        <time>2024-08-11T12:01:19Z</time>
      </trkpt>
      <trkpt lat="45.91545" lon="3.37603">
        <ele>299.4</ele>
        <time>2024-08-11T12:01:20Z</time>
      </trkpt>
      <trkpt lat="45.91546" lon="3.37609">
        <ele>299.4</ele>
        <time>2024-08-11T12:01:21Z</time>
      </trkpt>
      <trkpt lat="45.91546" lon="3.37614">
        <ele>299.6</ele>
        <time>2024-08-11T12:01:22Z</time>
      </trkpt>
      <trkpt lat="45.91547" lon="3.37619">
        <ele>299.8</ele>
        <time>2024-08-11T12:01:23Z</time>
      </trkpt>
      <trkpt lat="45.91547" lon="3.37625">
        <ele>299.8</ele>
        <time>2024-08-11T12:01:24Z</time>
      </trkpt>
      <trkpt lat="45.91548" lon="3.3763">
        <ele>300</ele>
        <time>2024-08-11T12:01:25Z</time>
      </trkpt>
      <trkpt lat="45.91548" lon="3.37636">
        <ele>300.2</ele>
        <time>2024-08-11T12:01:26Z</time>
      </trkpt>
      <trkpt lat="45.91549" lon="3.37641">
        <ele>300.2</ele>
        <time>2024-08-11T12:01:27Z</time>
      </trkpt>
      <trkpt lat="45.91549" lon="3.37646">
        <ele>300.4</ele>
        <time>2024-08-11T12:01:28Z</time>
      </trkpt>
      <trkpt lat="45.91543" lon="3.37655">
        <ele>300.4</ele>
        <time>2024-08-11T12:01:29Z</time>
      </trkpt>
      <trkpt lat="45.91539" lon="3.37655">
        <ele>300.4</ele>
        <time>2024-08-11T12:01:30Z</time>
      </trkpt>
      <trkpt lat="45.91534" lon="3.37656">
        <ele>300.6</ele>
        <time>2024-08-11T12:01:31Z</time>
      </trkpt>
      <trkpt lat="45.9153" lon="3.37656">
        <ele>300.8</ele>
        <time>2024-08-11T12:01:32Z</time>
      </trkpt>
      <trkpt lat="45.91526" lon="3.37657">
        <ele>300.8</ele>
        <time>2024-08-11T12:01:33Z</time>
      </trkpt>
      <trkpt lat="45.91522" lon="3.37657">
        <ele>301</ele>
        <time>2024-08-11T12:01:34Z</time>
      </trkpt>
      <trkpt lat="45.91518" lon="3.37658">
        <ele>301.2</ele>
        <time>2024-08-11T12:01:35Z</time>
      </trkpt>
      <trkpt lat="45.91513" lon="3.37657">
        <ele>301.2</ele>
        <time>2024-08-11T12:01:36Z</time>
      </trkpt>
      <trkpt lat="45.91509" lon="3.37655">
        <ele>301.4</ele>
        <time>2024-08-11T12:01:37Z</time>
      </trkpt>
      <trkpt lat="45.91505" lon="3.37653">
        <ele>301.6</ele>
        <time>2024-08-11T12:01:38Z</time>
      </trkpt>
      <trkpt lat="45.91499" lon="3.3765">
        <ele>301.6</ele>
        <time>2024-08-11T12:01:39Z</time>
      </trkpt>
      <trkpt lat="45.91496" lon="3.37645">
        <ele>301.8</ele>
        <time>2024-08-11T12:01:40Z</time>
      </trkpt>
      <trkpt lat="45.91494" lon="3.3764">
        <ele>302</ele>
        <time>2024-08-11T12:01:41Z</time>
      </trkpt>
      <trkpt lat="45.91492" lon="3.37633">
        <ele>302</ele>
        <time>2024-08-11T12:01:42Z</time>
      </trkpt>
      <trkpt lat="45.91491" lon="3.37627">
        <ele>302.2</ele>
        <time>2024-08-11T12:01:43Z</time>
      </trkpt>
      <trkpt lat="45.9149" lon="3.3762">
        <ele>302.4</ele>
        <time>2024-08-11T12:01:44Z</time>
      </trkpt>
      <trkpt lat="45.91489" lon="3.37614">
        <ele>302.4</ele>
        <time>2024-08-11T12:01:45Z</time>
      </trkpt>
      <trkpt lat="45.91487" lon="3.37608">
        <ele>302.6</ele>
        <time>2024-08-11T12:01:46Z</time>
      </trkpt>
      <trkpt lat="45.91486" lon="3.37602">
        <ele>302.6</ele>
        <time>2024-08-11T12:01:47Z</time>
      </trkpt>
      <trkpt lat="45.91485" lon="3.37596">
        <ele>302.8</ele>
        <time>2024-08-11T12:01:48Z</time>
      </trkpt>
      <trkpt lat="45.91484" lon="3.37589">
        <ele>303</ele>
        <time>2024-08-11T12:01:49Z</time>
      </trkpt>
      <trkpt lat="45.91482" lon="3.37583">
        <ele>303</ele>
        <time>2024-08-11T12:01:50Z</time>
      </trkpt>
      <trkpt lat="45.91481" lon="3.37576">
        <ele>303.2</ele>
        <time>2024-08-11T12:01:51Z</time>
      </trkpt>
      <trkpt lat="45.9148" lon="3.3757">
        <ele>303.4</ele>
        <time>2024-08-11T12:01:52Z</time>
      </trkpt>
      <trkpt lat="45.91478" lon="3.37563">
        <ele>303.4</ele>
        <time>2024-08-11T12:01:53Z</time>
      </trkpt>
      <trkpt lat="45.91477" lon="3.37557">
        <ele>303.4</ele>
        <time>2024-08-11T12:01:54Z</time>
      </trkpt>
      <trkpt lat="45.91476" lon="3.37551">
        <ele>303.6</ele>
        <time>2024-08-11T12:01:55Z</time>
      </trkpt>
      <trkpt lat="45.91475" lon="3.37545">
        <ele>303.8</ele>
        <time>2024-08-11T12:01:56Z</time>
      </trkpt>
      <trkpt lat="45.91472" lon="3.37539">
        <ele>303.8</ele>
        <time>2024-08-11T12:01:57Z</time>
      </trkpt>
      <trkpt lat="45.91469" lon="3.37534">
        <ele>304</ele>
        <time>2024-08-11T12:01:58Z</time>
      </trkpt>
      <trkpt lat="45.91466" lon="3.37529">
        <ele>304</ele>
        <time>2024-08-11T12:01:59Z</time>
      </trkpt>
      <trkpt lat="45.91464" lon="3.37524">
        <ele>304.2</ele>
        <time>2024-08-11T12:02:00Z</time>
      </trkpt>
      <trkpt lat="45.91461" lon="3.37519">
        <ele>304.4</ele>
        <time>2024-08-11T12:02:01Z</time>
      </trkpt>
      <trkpt lat="45.91458" lon="3.37515">
        <ele>304.6</ele>
        <time>2024-08-11T12:02:02Z</time>
      </trkpt>
      <trkpt lat="45.91455" lon="3.37511">
        <ele>304.8</ele>
        <time>2024-08-11T12:02:03Z</time>
      </trkpt>
      <trkpt lat="45.91451" lon="3.37509">
        <ele>304.8</ele>
        <time>2024-08-11T12:02:04Z</time>
      </trkpt>
      <trkpt lat="45.91447" lon="3.37506">
        <ele>305</ele>
        <time>2024-08-11T12:02:05Z</time>
      </trkpt>
      <trkpt lat="45.91444" lon="3.37504">
        <ele>305.2</ele>
        <time>2024-08-11T12:02:06Z</time>
      </trkpt>
      <trkpt lat="45.9144" lon="3.37502">
        <ele>305.2</ele>
        <time>2024-08-11T12:02:07Z</time>
      </trkpt>
      <trkpt lat="45.91437" lon="3.375">
        <ele>305.4</ele>
        <time>2024-08-11T12:02:08Z</time>
      </trkpt>
      <trkpt lat="45.91433" lon="3.37492">
        <ele>305.6</ele>
        <time>2024-08-11T12:02:09Z</time>
      </trkpt>
      <trkpt lat="45.91431" lon="3.37487">
        <ele>305.6</ele>
        <time>2024-08-11T12:02:10Z</time>
      </trkpt>
      <trkpt lat="45.9143" lon="3.37482">
        <ele>305.8</ele>
        <time>2024-08-11T12:02:11Z</time>
      </trkpt>
      <trkpt lat="45.91426" lon="3.3747">
        <ele>306</ele>
        <time>2024-08-11T12:02:12Z</time>
      </trkpt>
      <trkpt lat="45.91426" lon="3.3747">
        <ele>306</ele>
        <time>2024-08-11T12:02:13Z</time>
      </trkpt>
      <trkpt lat="45.91422" lon="3.37458">
        <ele>306.2</ele>
        <time>2024-08-11T12:02:14Z</time>
      </trkpt>
      <trkpt lat="45.91419" lon="3.37452">
        <ele>306.2</ele>
        <time>2024-08-11T12:02:15Z</time>
      </trkpt>
      <trkpt lat="45.91417" lon="3.37445">
        <ele>306.4</ele>
        <time>2024-08-11T12:02:16Z</time>
      </trkpt>
      <trkpt lat="45.91415" lon="3.37438">
        <ele>306.4</ele>
        <time>2024-08-11T12:02:17Z</time>
      </trkpt>
      <trkpt lat="45.91412" lon="3.3743">
        <ele>306.6</ele>
        <time>2024-08-11T12:02:18Z</time>
      </trkpt>
      <trkpt lat="45.91409" lon="3.37421">
        <ele>306.6</ele>
        <time>2024-08-11T12:02:19Z</time>
      </trkpt>
      <trkpt lat="45.91406" lon="3.37413">
        <ele>306.6</ele>
        <time>2024-08-11T12:02:20Z</time>
      </trkpt>
      <trkpt lat="45.91403" lon="3.37404">
        <ele>306.8</ele>
        <time>2024-08-11T12:02:21Z</time>
      </trkpt>
      <trkpt lat="45.914" lon="3.37395">
        <ele>306.8</ele>
        <time>2024-08-11T12:02:22Z</time>
      </trkpt>
      <trkpt lat="45.91397" lon="3.37386">
        <ele>307</ele>
        <time>2024-08-11T12:02:23Z</time>
      </trkpt>
      <trkpt lat="45.91394" lon="3.37377">
        <ele>307</ele>
        <time>2024-08-11T12:02:24Z</time>
      </trkpt>
      <trkpt lat="45.91391" lon="3.37369">
        <ele>307.2</ele>
        <time>2024-08-11T12:02:25Z</time>
      </trkpt>
      <trkpt lat="45.91389" lon="3.3736">
        <ele>307.2</ele>
        <time>2024-08-11T12:02:26Z</time>
      </trkpt>
      <trkpt lat="45.91386" lon="3.37352">
        <ele>307.2</ele>
        <time>2024-08-11T12:02:27Z</time>
      </trkpt>
      <trkpt lat="45.91383" lon="3.37344">
        <ele>307.4</ele>
        <time>2024-08-11T12:02:28Z</time>
      </trkpt>
      <trkpt lat="45.91383" lon="3.37344">
        <ele>307.6</ele>
        <time>2024-08-11T12:02:29Z</time>
      </trkpt>
      <trkpt lat="45.91381" lon="3.37338">
        <ele>307.6</ele>
        <time>2024-08-11T12:02:30Z</time>
      </trkpt>
      <trkpt lat="45.91373" lon="3.37337">
        <ele>307.8</ele>
        <time>2024-08-11T12:02:31Z</time>
      </trkpt>
      <trkpt lat="45.91363" lon="3.3734">
        <ele>308</ele>
        <time>2024-08-11T12:02:32Z</time>
      </trkpt>
      <trkpt lat="45.91359" lon="3.37342">
        <ele>308</ele>
        <time>2024-08-11T12:02:33Z</time>
      </trkpt>
      <trkpt lat="45.91355" lon="3.37344">
        <ele>308.2</ele>
        <time>2024-08-11T12:02:34Z</time>
      </trkpt>
      <trkpt lat="45.9135" lon="3.37346">
        <ele>308.4</ele>
        <time>2024-08-11T12:02:35Z</time>
      </trkpt>
      <trkpt lat="45.91346" lon="3.37348">
        <ele>308.6</ele>
        <time>2024-08-11T12:02:36Z</time>
      </trkpt>
      <trkpt lat="45.91342" lon="3.37349">
        <ele>308.8</ele>
        <time>2024-08-11T12:02:37Z</time>
      </trkpt>
      <trkpt lat="45.91338" lon="3.37351">
        <ele>308.8</ele>
        <time>2024-08-11T12:02:38Z</time>
      </trkpt>
    </trkseg>
  </trk>
</gpx>